<?xml version="1.0" encoding="UTF-8" standalone="no" ?>
<gpx xmlns="http://www.topografix.com/GPX/1/1" xmlns:xsi="http://www.w3.org/2001/XMLSchema-instance" xsi:schemaLocation="http://www.topografix.com/GPX/1/1 http://www.topografix.com/GPX/1/1/gpx.xsd" version="1.1" creator="VisuGPX - https://www.visugpx.com">
  <metadata>
    <name>SO 1701</name>
  </metadata>
  <trk>
    <name><![CDATA[Sortie plien vent vers condé sur noireau.
Retour tres cool 👍]]></name>
    <trkseg>
      <trkpt lat="49.29467" lon="-0.06599">
        <ele>122</ele>
        <time>2024-04-07T04:36:10Z</time>
      </trkpt>
      <trkpt lat="49.29467" lon="-0.06599">
        <ele>123</ele>
        <time>2024-04-07T04:36:11Z</time>
      </trkpt>
      <trkpt lat="49.29467" lon="-0.06599">
        <ele>123.2</ele>
        <time>2024-04-07T04:36:12Z</time>
      </trkpt>
      <trkpt lat="49.29495" lon="-0.0658">
        <ele>124.2</ele>
        <time>2024-04-07T04:38:46Z</time>
      </trkpt>
      <trkpt lat="49.29496" lon="-0.06582">
        <ele>124</ele>
        <time>2024-04-07T04:38:47Z</time>
      </trkpt>
      <trkpt lat="49.29497" lon="-0.06586">
        <ele>124</ele>
        <time>2024-04-07T04:38:48Z</time>
      </trkpt>
      <trkpt lat="49.29496" lon="-0.06591">
        <ele>123.8</ele>
        <time>2024-04-07T04:38:49Z</time>
      </trkpt>
      <trkpt lat="49.29496" lon="-0.06595">
        <ele>123.8</ele>
        <time>2024-04-07T04:38:50Z</time>
      </trkpt>
      <trkpt lat="49.29495" lon="-0.066">
        <ele>123.6</ele>
        <time>2024-04-07T04:38:51Z</time>
      </trkpt>
      <trkpt lat="49.29494" lon="-0.06605">
        <ele>123.4</ele>
        <time>2024-04-07T04:38:52Z</time>
      </trkpt>
      <trkpt lat="49.29493" lon="-0.06611">
        <ele>123.2</ele>
        <time>2024-04-07T04:38:53Z</time>
      </trkpt>
      <trkpt lat="49.29492" lon="-0.06616">
        <ele>123</ele>
        <time>2024-04-07T04:38:54Z</time>
      </trkpt>
      <trkpt lat="49.29491" lon="-0.06622">
        <ele>122.6</ele>
        <time>2024-04-07T04:38:55Z</time>
      </trkpt>
      <trkpt lat="49.29489" lon="-0.06629">
        <ele>122.4</ele>
        <time>2024-04-07T04:38:56Z</time>
      </trkpt>
      <trkpt lat="49.29488" lon="-0.06636">
        <ele>122</ele>
        <time>2024-04-07T04:38:57Z</time>
      </trkpt>
      <trkpt lat="49.29486" lon="-0.06643">
        <ele>121.8</ele>
        <time>2024-04-07T04:38:58Z</time>
      </trkpt>
      <trkpt lat="49.29485" lon="-0.06651">
        <ele>121.8</ele>
        <time>2024-04-07T04:38:59Z</time>
      </trkpt>
      <trkpt lat="49.29483" lon="-0.06658">
        <ele>121.6</ele>
        <time>2024-04-07T04:39:00Z</time>
      </trkpt>
      <trkpt lat="49.29481" lon="-0.06666">
        <ele>121.4</ele>
        <time>2024-04-07T04:39:01Z</time>
      </trkpt>
      <trkpt lat="49.29479" lon="-0.06673">
        <ele>121.2</ele>
        <time>2024-04-07T04:39:02Z</time>
      </trkpt>
      <trkpt lat="49.29476" lon="-0.0668">
        <ele>121</ele>
        <time>2024-04-07T04:39:03Z</time>
      </trkpt>
      <trkpt lat="49.29472" lon="-0.06686">
        <ele>120.8</ele>
        <time>2024-04-07T04:39:04Z</time>
      </trkpt>
      <trkpt lat="49.29469" lon="-0.06692">
        <ele>120.6</ele>
        <time>2024-04-07T04:39:05Z</time>
      </trkpt>
      <trkpt lat="49.29465" lon="-0.06698">
        <ele>120.6</ele>
        <time>2024-04-07T04:39:06Z</time>
      </trkpt>
      <trkpt lat="49.29461" lon="-0.06703">
        <ele>120.4</ele>
        <time>2024-04-07T04:39:07Z</time>
      </trkpt>
      <trkpt lat="49.29457" lon="-0.06709">
        <ele>120.4</ele>
        <time>2024-04-07T04:39:08Z</time>
      </trkpt>
      <trkpt lat="49.29453" lon="-0.06716">
        <ele>120.4</ele>
        <time>2024-04-07T04:39:09Z</time>
      </trkpt>
      <trkpt lat="49.2945" lon="-0.06724">
        <ele>120.4</ele>
        <time>2024-04-07T04:39:10Z</time>
      </trkpt>
      <trkpt lat="49.29447" lon="-0.06731">
        <ele>120.4</ele>
        <time>2024-04-07T04:39:11Z</time>
      </trkpt>
      <trkpt lat="49.29444" lon="-0.06738">
        <ele>120.4</ele>
        <time>2024-04-07T04:39:12Z</time>
      </trkpt>
      <trkpt lat="49.29441" lon="-0.06744">
        <ele>120.4</ele>
        <time>2024-04-07T04:39:13Z</time>
      </trkpt>
      <trkpt lat="49.29439" lon="-0.06751">
        <ele>120.2</ele>
        <time>2024-04-07T04:39:14Z</time>
      </trkpt>
      <trkpt lat="49.29433" lon="-0.06766">
        <ele>119.8</ele>
        <time>2024-04-07T04:39:15Z</time>
      </trkpt>
      <trkpt lat="49.29432" lon="-0.0677">
        <ele>119.8</ele>
        <time>2024-04-07T04:39:16Z</time>
      </trkpt>
      <trkpt lat="49.29431" lon="-0.06773">
        <ele>119.8</ele>
        <time>2024-04-07T04:39:17Z</time>
      </trkpt>
      <trkpt lat="49.29429" lon="-0.06782">
        <ele>119.8</ele>
        <time>2024-04-07T04:39:18Z</time>
      </trkpt>
      <trkpt lat="49.29426" lon="-0.06791">
        <ele>119.6</ele>
        <time>2024-04-07T04:39:19Z</time>
      </trkpt>
      <trkpt lat="49.29423" lon="-0.068">
        <ele>119.4</ele>
        <time>2024-04-07T04:39:20Z</time>
      </trkpt>
      <trkpt lat="49.2942" lon="-0.06809">
        <ele>119.2</ele>
        <time>2024-04-07T04:39:21Z</time>
      </trkpt>
      <trkpt lat="49.29418" lon="-0.06818">
        <ele>119.2</ele>
        <time>2024-04-07T04:39:22Z</time>
      </trkpt>
      <trkpt lat="49.29416" lon="-0.06826">
        <ele>119.2</ele>
        <time>2024-04-07T04:39:23Z</time>
      </trkpt>
      <trkpt lat="49.29414" lon="-0.06835">
        <ele>119.2</ele>
        <time>2024-04-07T04:39:24Z</time>
      </trkpt>
      <trkpt lat="49.29412" lon="-0.06844">
        <ele>119.2</ele>
        <time>2024-04-07T04:39:25Z</time>
      </trkpt>
      <trkpt lat="49.2941" lon="-0.06853">
        <ele>119.4</ele>
        <time>2024-04-07T04:39:26Z</time>
      </trkpt>
      <trkpt lat="49.29408" lon="-0.06862">
        <ele>119.6</ele>
        <time>2024-04-07T04:39:27Z</time>
      </trkpt>
      <trkpt lat="49.29406" lon="-0.0687">
        <ele>119.8</ele>
        <time>2024-04-07T04:39:28Z</time>
      </trkpt>
      <trkpt lat="49.29404" lon="-0.06879">
        <ele>119.8</ele>
        <time>2024-04-07T04:39:29Z</time>
      </trkpt>
      <trkpt lat="49.29402" lon="-0.06887">
        <ele>119.8</ele>
        <time>2024-04-07T04:39:30Z</time>
      </trkpt>
      <trkpt lat="49.29401" lon="-0.06896">
        <ele>119.8</ele>
        <time>2024-04-07T04:39:31Z</time>
      </trkpt>
      <trkpt lat="49.29399" lon="-0.06905">
        <ele>119.8</ele>
        <time>2024-04-07T04:39:32Z</time>
      </trkpt>
      <trkpt lat="49.29398" lon="-0.06913">
        <ele>119.8</ele>
        <time>2024-04-07T04:39:33Z</time>
      </trkpt>
      <trkpt lat="49.29396" lon="-0.06922">
        <ele>120</ele>
        <time>2024-04-07T04:39:34Z</time>
      </trkpt>
      <trkpt lat="49.29395" lon="-0.06931">
        <ele>120</ele>
        <time>2024-04-07T04:39:35Z</time>
      </trkpt>
      <trkpt lat="49.29393" lon="-0.0694">
        <ele>120.2</ele>
        <time>2024-04-07T04:39:36Z</time>
      </trkpt>
      <trkpt lat="49.29392" lon="-0.06949">
        <ele>120.2</ele>
        <time>2024-04-07T04:39:37Z</time>
      </trkpt>
      <trkpt lat="49.29391" lon="-0.06958">
        <ele>120.2</ele>
        <time>2024-04-07T04:39:38Z</time>
      </trkpt>
      <trkpt lat="49.29389" lon="-0.06966">
        <ele>120.4</ele>
        <time>2024-04-07T04:39:39Z</time>
      </trkpt>
      <trkpt lat="49.29388" lon="-0.06975">
        <ele>120.6</ele>
        <time>2024-04-07T04:39:40Z</time>
      </trkpt>
      <trkpt lat="49.29386" lon="-0.06984">
        <ele>120.6</ele>
        <time>2024-04-07T04:39:41Z</time>
      </trkpt>
      <trkpt lat="49.29384" lon="-0.06993">
        <ele>120.4</ele>
        <time>2024-04-07T04:39:42Z</time>
      </trkpt>
      <trkpt lat="49.29382" lon="-0.07003">
        <ele>120.2</ele>
        <time>2024-04-07T04:39:43Z</time>
      </trkpt>
      <trkpt lat="49.2938" lon="-0.07012">
        <ele>120</ele>
        <time>2024-04-07T04:39:44Z</time>
      </trkpt>
      <trkpt lat="49.29379" lon="-0.07022">
        <ele>119.6</ele>
        <time>2024-04-07T04:39:45Z</time>
      </trkpt>
      <trkpt lat="49.29377" lon="-0.07031">
        <ele>119.2</ele>
        <time>2024-04-07T04:39:46Z</time>
      </trkpt>
      <trkpt lat="49.29375" lon="-0.07041">
        <ele>119</ele>
        <time>2024-04-07T04:39:47Z</time>
      </trkpt>
      <trkpt lat="49.29373" lon="-0.07051">
        <ele>118.8</ele>
        <time>2024-04-07T04:39:48Z</time>
      </trkpt>
      <trkpt lat="49.29372" lon="-0.0706">
        <ele>118.6</ele>
        <time>2024-04-07T04:39:49Z</time>
      </trkpt>
      <trkpt lat="49.2937" lon="-0.0707">
        <ele>118.6</ele>
        <time>2024-04-07T04:39:50Z</time>
      </trkpt>
      <trkpt lat="49.29368" lon="-0.0708">
        <ele>118.4</ele>
        <time>2024-04-07T04:39:51Z</time>
      </trkpt>
      <trkpt lat="49.29366" lon="-0.0709">
        <ele>118.2</ele>
        <time>2024-04-07T04:39:52Z</time>
      </trkpt>
      <trkpt lat="49.29364" lon="-0.071">
        <ele>118</ele>
        <time>2024-04-07T04:39:53Z</time>
      </trkpt>
      <trkpt lat="49.29362" lon="-0.0711">
        <ele>117.8</ele>
        <time>2024-04-07T04:39:54Z</time>
      </trkpt>
      <trkpt lat="49.2936" lon="-0.0712">
        <ele>117.6</ele>
        <time>2024-04-07T04:39:55Z</time>
      </trkpt>
      <trkpt lat="49.29359" lon="-0.0713">
        <ele>117.4</ele>
        <time>2024-04-07T04:39:56Z</time>
      </trkpt>
      <trkpt lat="49.29359" lon="-0.0714">
        <ele>117.4</ele>
        <time>2024-04-07T04:39:57Z</time>
      </trkpt>
      <trkpt lat="49.2936" lon="-0.0715">
        <ele>117.2</ele>
        <time>2024-04-07T04:39:58Z</time>
      </trkpt>
      <trkpt lat="49.2936" lon="-0.0716">
        <ele>117.2</ele>
        <time>2024-04-07T04:39:59Z</time>
      </trkpt>
      <trkpt lat="49.29362" lon="-0.0717">
        <ele>117.2</ele>
        <time>2024-04-07T04:40:00Z</time>
      </trkpt>
      <trkpt lat="49.29364" lon="-0.0718">
        <ele>117.4</ele>
        <time>2024-04-07T04:40:01Z</time>
      </trkpt>
      <trkpt lat="49.29366" lon="-0.0719">
        <ele>117.4</ele>
        <time>2024-04-07T04:40:02Z</time>
      </trkpt>
      <trkpt lat="49.29369" lon="-0.072">
        <ele>117.4</ele>
        <time>2024-04-07T04:40:03Z</time>
      </trkpt>
      <trkpt lat="49.29373" lon="-0.07208">
        <ele>117.2</ele>
        <time>2024-04-07T04:40:04Z</time>
      </trkpt>
      <trkpt lat="49.29378" lon="-0.07216">
        <ele>117.2</ele>
        <time>2024-04-07T04:40:05Z</time>
      </trkpt>
      <trkpt lat="49.29383" lon="-0.07223">
        <ele>117.2</ele>
        <time>2024-04-07T04:40:06Z</time>
      </trkpt>
      <trkpt lat="49.29388" lon="-0.07231">
        <ele>117.2</ele>
        <time>2024-04-07T04:40:07Z</time>
      </trkpt>
      <trkpt lat="49.29393" lon="-0.07238">
        <ele>117</ele>
        <time>2024-04-07T04:40:08Z</time>
      </trkpt>
      <trkpt lat="49.29398" lon="-0.07245">
        <ele>117</ele>
        <time>2024-04-07T04:40:09Z</time>
      </trkpt>
      <trkpt lat="49.29403" lon="-0.07253">
        <ele>117</ele>
        <time>2024-04-07T04:40:10Z</time>
      </trkpt>
      <trkpt lat="49.29408" lon="-0.0726">
        <ele>116.8</ele>
        <time>2024-04-07T04:40:11Z</time>
      </trkpt>
      <trkpt lat="49.29413" lon="-0.07267">
        <ele>116.8</ele>
        <time>2024-04-07T04:40:12Z</time>
      </trkpt>
      <trkpt lat="49.29417" lon="-0.07275">
        <ele>116.8</ele>
        <time>2024-04-07T04:40:13Z</time>
      </trkpt>
      <trkpt lat="49.29422" lon="-0.07282">
        <ele>116.8</ele>
        <time>2024-04-07T04:40:14Z</time>
      </trkpt>
      <trkpt lat="49.29427" lon="-0.0729">
        <ele>116.6</ele>
        <time>2024-04-07T04:40:15Z</time>
      </trkpt>
      <trkpt lat="49.29431" lon="-0.07298">
        <ele>116.6</ele>
        <time>2024-04-07T04:40:16Z</time>
      </trkpt>
      <trkpt lat="49.29436" lon="-0.07305">
        <ele>116.6</ele>
        <time>2024-04-07T04:40:17Z</time>
      </trkpt>
      <trkpt lat="49.29441" lon="-0.07312">
        <ele>116.8</ele>
        <time>2024-04-07T04:40:18Z</time>
      </trkpt>
      <trkpt lat="49.29446" lon="-0.0732">
        <ele>116.6</ele>
        <time>2024-04-07T04:40:19Z</time>
      </trkpt>
      <trkpt lat="49.29451" lon="-0.07327">
        <ele>116.8</ele>
        <time>2024-04-07T04:40:20Z</time>
      </trkpt>
      <trkpt lat="49.29455" lon="-0.07335">
        <ele>116.6</ele>
        <time>2024-04-07T04:40:21Z</time>
      </trkpt>
      <trkpt lat="49.2946" lon="-0.07343">
        <ele>116.6</ele>
        <time>2024-04-07T04:40:22Z</time>
      </trkpt>
      <trkpt lat="49.29464" lon="-0.07351">
        <ele>116.6</ele>
        <time>2024-04-07T04:40:23Z</time>
      </trkpt>
      <trkpt lat="49.29469" lon="-0.07358">
        <ele>116.6</ele>
        <time>2024-04-07T04:40:24Z</time>
      </trkpt>
      <trkpt lat="49.29473" lon="-0.07366">
        <ele>116.6</ele>
        <time>2024-04-07T04:40:25Z</time>
      </trkpt>
      <trkpt lat="49.29477" lon="-0.07374">
        <ele>116.6</ele>
        <time>2024-04-07T04:40:26Z</time>
      </trkpt>
      <trkpt lat="49.29481" lon="-0.07382">
        <ele>116.4</ele>
        <time>2024-04-07T04:40:27Z</time>
      </trkpt>
      <trkpt lat="49.29484" lon="-0.07391">
        <ele>116.4</ele>
        <time>2024-04-07T04:40:28Z</time>
      </trkpt>
      <trkpt lat="49.29487" lon="-0.074">
        <ele>116.4</ele>
        <time>2024-04-07T04:40:29Z</time>
      </trkpt>
      <trkpt lat="49.2949" lon="-0.07409">
        <ele>116.4</ele>
        <time>2024-04-07T04:40:30Z</time>
      </trkpt>
      <trkpt lat="49.29493" lon="-0.07418">
        <ele>116.4</ele>
        <time>2024-04-07T04:40:31Z</time>
      </trkpt>
      <trkpt lat="49.29496" lon="-0.07427">
        <ele>116.4</ele>
        <time>2024-04-07T04:40:32Z</time>
      </trkpt>
      <trkpt lat="49.29499" lon="-0.07436">
        <ele>116.6</ele>
        <time>2024-04-07T04:40:33Z</time>
      </trkpt>
      <trkpt lat="49.29502" lon="-0.07445">
        <ele>116.6</ele>
        <time>2024-04-07T04:40:34Z</time>
      </trkpt>
      <trkpt lat="49.29506" lon="-0.07455">
        <ele>116.6</ele>
        <time>2024-04-07T04:40:35Z</time>
      </trkpt>
      <trkpt lat="49.29509" lon="-0.07464">
        <ele>116.6</ele>
        <time>2024-04-07T04:40:36Z</time>
      </trkpt>
      <trkpt lat="49.29512" lon="-0.07473">
        <ele>116.6</ele>
        <time>2024-04-07T04:40:37Z</time>
      </trkpt>
      <trkpt lat="49.29516" lon="-0.07483">
        <ele>116.8</ele>
        <time>2024-04-07T04:40:38Z</time>
      </trkpt>
      <trkpt lat="49.29519" lon="-0.07492">
        <ele>116.8</ele>
        <time>2024-04-07T04:40:39Z</time>
      </trkpt>
      <trkpt lat="49.29523" lon="-0.07502">
        <ele>117</ele>
        <time>2024-04-07T04:40:40Z</time>
      </trkpt>
      <trkpt lat="49.29526" lon="-0.07512">
        <ele>117</ele>
        <time>2024-04-07T04:40:41Z</time>
      </trkpt>
      <trkpt lat="49.2953" lon="-0.07521">
        <ele>117</ele>
        <time>2024-04-07T04:40:42Z</time>
      </trkpt>
      <trkpt lat="49.29533" lon="-0.07531">
        <ele>117</ele>
        <time>2024-04-07T04:40:43Z</time>
      </trkpt>
      <trkpt lat="49.29537" lon="-0.07541">
        <ele>117</ele>
        <time>2024-04-07T04:40:44Z</time>
      </trkpt>
      <trkpt lat="49.2954" lon="-0.0755">
        <ele>116.8</ele>
        <time>2024-04-07T04:40:45Z</time>
      </trkpt>
      <trkpt lat="49.29544" lon="-0.0756">
        <ele>116.8</ele>
        <time>2024-04-07T04:40:46Z</time>
      </trkpt>
      <trkpt lat="49.29548" lon="-0.0757">
        <ele>116.6</ele>
        <time>2024-04-07T04:40:47Z</time>
      </trkpt>
      <trkpt lat="49.29551" lon="-0.0758">
        <ele>116.4</ele>
        <time>2024-04-07T04:40:48Z</time>
      </trkpt>
      <trkpt lat="49.29555" lon="-0.07589">
        <ele>116.2</ele>
        <time>2024-04-07T04:40:49Z</time>
      </trkpt>
      <trkpt lat="49.29559" lon="-0.07599">
        <ele>116</ele>
        <time>2024-04-07T04:40:50Z</time>
      </trkpt>
      <trkpt lat="49.29563" lon="-0.07609">
        <ele>115.8</ele>
        <time>2024-04-07T04:40:51Z</time>
      </trkpt>
      <trkpt lat="49.29572" lon="-0.07628">
        <ele>115.6</ele>
        <time>2024-04-07T04:40:52Z</time>
      </trkpt>
      <trkpt lat="49.29574" lon="-0.07633">
        <ele>115.2</ele>
        <time>2024-04-07T04:40:53Z</time>
      </trkpt>
      <trkpt lat="49.29577" lon="-0.07638">
        <ele>114.8</ele>
        <time>2024-04-07T04:40:54Z</time>
      </trkpt>
      <trkpt lat="49.29581" lon="-0.07648">
        <ele>114.6</ele>
        <time>2024-04-07T04:40:55Z</time>
      </trkpt>
      <trkpt lat="49.29586" lon="-0.07657">
        <ele>114.4</ele>
        <time>2024-04-07T04:40:56Z</time>
      </trkpt>
      <trkpt lat="49.29591" lon="-0.07666">
        <ele>114.2</ele>
        <time>2024-04-07T04:40:57Z</time>
      </trkpt>
      <trkpt lat="49.29596" lon="-0.07676">
        <ele>114</ele>
        <time>2024-04-07T04:40:58Z</time>
      </trkpt>
      <trkpt lat="49.29601" lon="-0.07685">
        <ele>113.8</ele>
        <time>2024-04-07T04:40:59Z</time>
      </trkpt>
      <trkpt lat="49.29607" lon="-0.07693">
        <ele>113.6</ele>
        <time>2024-04-07T04:41:00Z</time>
      </trkpt>
      <trkpt lat="49.29613" lon="-0.07702">
        <ele>113.6</ele>
        <time>2024-04-07T04:41:01Z</time>
      </trkpt>
      <trkpt lat="49.2962" lon="-0.0771">
        <ele>113.6</ele>
        <time>2024-04-07T04:41:02Z</time>
      </trkpt>
      <trkpt lat="49.29625" lon="-0.07719">
        <ele>113.6</ele>
        <time>2024-04-07T04:41:03Z</time>
      </trkpt>
      <trkpt lat="49.29631" lon="-0.07727">
        <ele>113.6</ele>
        <time>2024-04-07T04:41:04Z</time>
      </trkpt>
      <trkpt lat="49.29637" lon="-0.07735">
        <ele>113.4</ele>
        <time>2024-04-07T04:41:05Z</time>
      </trkpt>
      <trkpt lat="49.29643" lon="-0.07744">
        <ele>113.2</ele>
        <time>2024-04-07T04:41:06Z</time>
      </trkpt>
      <trkpt lat="49.29648" lon="-0.07751">
        <ele>113</ele>
        <time>2024-04-07T04:41:07Z</time>
      </trkpt>
      <trkpt lat="49.29654" lon="-0.0776">
        <ele>112.8</ele>
        <time>2024-04-07T04:41:08Z</time>
      </trkpt>
      <trkpt lat="49.2966" lon="-0.07769">
        <ele>112.8</ele>
        <time>2024-04-07T04:41:09Z</time>
      </trkpt>
      <trkpt lat="49.29664" lon="-0.07778">
        <ele>112.6</ele>
        <time>2024-04-07T04:41:10Z</time>
      </trkpt>
      <trkpt lat="49.29669" lon="-0.07788">
        <ele>112.4</ele>
        <time>2024-04-07T04:41:11Z</time>
      </trkpt>
      <trkpt lat="49.29672" lon="-0.07798">
        <ele>112.2</ele>
        <time>2024-04-07T04:41:12Z</time>
      </trkpt>
      <trkpt lat="49.29675" lon="-0.0781">
        <ele>112.2</ele>
        <time>2024-04-07T04:41:13Z</time>
      </trkpt>
      <trkpt lat="49.29677" lon="-0.07821">
        <ele>112</ele>
        <time>2024-04-07T04:41:14Z</time>
      </trkpt>
      <trkpt lat="49.29679" lon="-0.07833">
        <ele>111.8</ele>
        <time>2024-04-07T04:41:15Z</time>
      </trkpt>
      <trkpt lat="49.2968" lon="-0.07845">
        <ele>111.6</ele>
        <time>2024-04-07T04:41:16Z</time>
      </trkpt>
      <trkpt lat="49.29681" lon="-0.07857">
        <ele>111.4</ele>
        <time>2024-04-07T04:41:17Z</time>
      </trkpt>
      <trkpt lat="49.29681" lon="-0.07869">
        <ele>111.2</ele>
        <time>2024-04-07T04:41:18Z</time>
      </trkpt>
      <trkpt lat="49.29681" lon="-0.07881">
        <ele>111</ele>
        <time>2024-04-07T04:41:19Z</time>
      </trkpt>
      <trkpt lat="49.2968" lon="-0.07893">
        <ele>110.8</ele>
        <time>2024-04-07T04:41:20Z</time>
      </trkpt>
      <trkpt lat="49.29679" lon="-0.07905">
        <ele>110.6</ele>
        <time>2024-04-07T04:41:21Z</time>
      </trkpt>
      <trkpt lat="49.29678" lon="-0.07917">
        <ele>110.6</ele>
        <time>2024-04-07T04:41:22Z</time>
      </trkpt>
      <trkpt lat="49.29677" lon="-0.07929">
        <ele>110.6</ele>
        <time>2024-04-07T04:41:23Z</time>
      </trkpt>
      <trkpt lat="49.29677" lon="-0.07941">
        <ele>110.4</ele>
        <time>2024-04-07T04:41:24Z</time>
      </trkpt>
      <trkpt lat="49.29676" lon="-0.07953">
        <ele>110.4</ele>
        <time>2024-04-07T04:41:25Z</time>
      </trkpt>
      <trkpt lat="49.29677" lon="-0.07964">
        <ele>110.4</ele>
        <time>2024-04-07T04:41:26Z</time>
      </trkpt>
      <trkpt lat="49.29677" lon="-0.07976">
        <ele>110.4</ele>
        <time>2024-04-07T04:41:27Z</time>
      </trkpt>
      <trkpt lat="49.29678" lon="-0.07985">
        <ele>110.6</ele>
        <time>2024-04-07T04:41:28Z</time>
      </trkpt>
      <trkpt lat="49.29681" lon="-0.07996">
        <ele>110.6</ele>
        <time>2024-04-07T04:41:29Z</time>
      </trkpt>
      <trkpt lat="49.29684" lon="-0.08006">
        <ele>110.6</ele>
        <time>2024-04-07T04:41:30Z</time>
      </trkpt>
      <trkpt lat="49.29689" lon="-0.08016">
        <ele>110.8</ele>
        <time>2024-04-07T04:41:31Z</time>
      </trkpt>
      <trkpt lat="49.29694" lon="-0.08024">
        <ele>110.8</ele>
        <time>2024-04-07T04:41:32Z</time>
      </trkpt>
      <trkpt lat="49.297" lon="-0.08032">
        <ele>110.8</ele>
        <time>2024-04-07T04:41:33Z</time>
      </trkpt>
      <trkpt lat="49.29707" lon="-0.08039">
        <ele>110.8</ele>
        <time>2024-04-07T04:41:34Z</time>
      </trkpt>
      <trkpt lat="49.29713" lon="-0.08047">
        <ele>110.8</ele>
        <time>2024-04-07T04:41:35Z</time>
      </trkpt>
      <trkpt lat="49.29719" lon="-0.08055">
        <ele>110.8</ele>
        <time>2024-04-07T04:41:36Z</time>
      </trkpt>
      <trkpt lat="49.29726" lon="-0.08063">
        <ele>110.8</ele>
        <time>2024-04-07T04:41:37Z</time>
      </trkpt>
      <trkpt lat="49.29732" lon="-0.0807">
        <ele>110.8</ele>
        <time>2024-04-07T04:41:38Z</time>
      </trkpt>
      <trkpt lat="49.29739" lon="-0.08078">
        <ele>111</ele>
        <time>2024-04-07T04:41:39Z</time>
      </trkpt>
      <trkpt lat="49.29745" lon="-0.08085">
        <ele>111.2</ele>
        <time>2024-04-07T04:41:40Z</time>
      </trkpt>
      <trkpt lat="49.29752" lon="-0.08092">
        <ele>111.2</ele>
        <time>2024-04-07T04:41:41Z</time>
      </trkpt>
      <trkpt lat="49.29758" lon="-0.081">
        <ele>111.4</ele>
        <time>2024-04-07T04:41:42Z</time>
      </trkpt>
      <trkpt lat="49.29764" lon="-0.08108">
        <ele>111.4</ele>
        <time>2024-04-07T04:41:43Z</time>
      </trkpt>
      <trkpt lat="49.29771" lon="-0.08116">
        <ele>111.4</ele>
        <time>2024-04-07T04:41:44Z</time>
      </trkpt>
      <trkpt lat="49.29777" lon="-0.08124">
        <ele>111.4</ele>
        <time>2024-04-07T04:41:45Z</time>
      </trkpt>
      <trkpt lat="49.29783" lon="-0.08132">
        <ele>111.4</ele>
        <time>2024-04-07T04:41:46Z</time>
      </trkpt>
      <trkpt lat="49.29789" lon="-0.0814">
        <ele>111.2</ele>
        <time>2024-04-07T04:41:47Z</time>
      </trkpt>
      <trkpt lat="49.29795" lon="-0.08147">
        <ele>111.2</ele>
        <time>2024-04-07T04:41:48Z</time>
      </trkpt>
      <trkpt lat="49.29801" lon="-0.08155">
        <ele>111</ele>
        <time>2024-04-07T04:41:49Z</time>
      </trkpt>
      <trkpt lat="49.29806" lon="-0.08163">
        <ele>110.8</ele>
        <time>2024-04-07T04:41:50Z</time>
      </trkpt>
      <trkpt lat="49.29812" lon="-0.08171">
        <ele>110.6</ele>
        <time>2024-04-07T04:41:51Z</time>
      </trkpt>
      <trkpt lat="49.29818" lon="-0.08179">
        <ele>110.6</ele>
        <time>2024-04-07T04:41:52Z</time>
      </trkpt>
      <trkpt lat="49.29824" lon="-0.08186">
        <ele>110.4</ele>
        <time>2024-04-07T04:41:53Z</time>
      </trkpt>
      <trkpt lat="49.2983" lon="-0.08192">
        <ele>110</ele>
        <time>2024-04-07T04:41:54Z</time>
      </trkpt>
      <trkpt lat="49.29836" lon="-0.08196">
        <ele>109.8</ele>
        <time>2024-04-07T04:41:55Z</time>
      </trkpt>
      <trkpt lat="49.29843" lon="-0.08197">
        <ele>109.6</ele>
        <time>2024-04-07T04:41:56Z</time>
      </trkpt>
      <trkpt lat="49.29848" lon="-0.08196">
        <ele>109.6</ele>
        <time>2024-04-07T04:41:57Z</time>
      </trkpt>
      <trkpt lat="49.29853" lon="-0.08195">
        <ele>109.6</ele>
        <time>2024-04-07T04:41:58Z</time>
      </trkpt>
      <trkpt lat="49.29858" lon="-0.08196">
        <ele>109.6</ele>
        <time>2024-04-07T04:41:59Z</time>
      </trkpt>
      <trkpt lat="49.29864" lon="-0.08199">
        <ele>109.8</ele>
        <time>2024-04-07T04:42:00Z</time>
      </trkpt>
      <trkpt lat="49.29868" lon="-0.08205">
        <ele>110</ele>
        <time>2024-04-07T04:42:01Z</time>
      </trkpt>
      <trkpt lat="49.29872" lon="-0.08211">
        <ele>110.2</ele>
        <time>2024-04-07T04:42:02Z</time>
      </trkpt>
      <trkpt lat="49.29877" lon="-0.08218">
        <ele>110.2</ele>
        <time>2024-04-07T04:42:03Z</time>
      </trkpt>
      <trkpt lat="49.29881" lon="-0.08226">
        <ele>110.2</ele>
        <time>2024-04-07T04:42:04Z</time>
      </trkpt>
      <trkpt lat="49.29885" lon="-0.08234">
        <ele>110.2</ele>
        <time>2024-04-07T04:42:05Z</time>
      </trkpt>
      <trkpt lat="49.29889" lon="-0.08242">
        <ele>110</ele>
        <time>2024-04-07T04:42:06Z</time>
      </trkpt>
      <trkpt lat="49.29892" lon="-0.08251">
        <ele>109.8</ele>
        <time>2024-04-07T04:42:07Z</time>
      </trkpt>
      <trkpt lat="49.29896" lon="-0.08259">
        <ele>109.6</ele>
        <time>2024-04-07T04:42:08Z</time>
      </trkpt>
      <trkpt lat="49.29899" lon="-0.08268">
        <ele>109.4</ele>
        <time>2024-04-07T04:42:09Z</time>
      </trkpt>
      <trkpt lat="49.29903" lon="-0.08276">
        <ele>109.2</ele>
        <time>2024-04-07T04:42:10Z</time>
      </trkpt>
      <trkpt lat="49.29907" lon="-0.08285">
        <ele>109.2</ele>
        <time>2024-04-07T04:42:11Z</time>
      </trkpt>
      <trkpt lat="49.2991" lon="-0.08294">
        <ele>109</ele>
        <time>2024-04-07T04:42:12Z</time>
      </trkpt>
      <trkpt lat="49.29915" lon="-0.08303">
        <ele>109.2</ele>
        <time>2024-04-07T04:42:13Z</time>
      </trkpt>
      <trkpt lat="49.29918" lon="-0.08311">
        <ele>109.2</ele>
        <time>2024-04-07T04:42:14Z</time>
      </trkpt>
      <trkpt lat="49.29922" lon="-0.0832">
        <ele>109.4</ele>
        <time>2024-04-07T04:42:15Z</time>
      </trkpt>
      <trkpt lat="49.29926" lon="-0.08329">
        <ele>109.6</ele>
        <time>2024-04-07T04:42:16Z</time>
      </trkpt>
      <trkpt lat="49.29931" lon="-0.08337">
        <ele>109.6</ele>
        <time>2024-04-07T04:42:17Z</time>
      </trkpt>
      <trkpt lat="49.29935" lon="-0.08346">
        <ele>109.6</ele>
        <time>2024-04-07T04:42:18Z</time>
      </trkpt>
      <trkpt lat="49.2994" lon="-0.08355">
        <ele>109.4</ele>
        <time>2024-04-07T04:42:19Z</time>
      </trkpt>
      <trkpt lat="49.29946" lon="-0.08364">
        <ele>109</ele>
        <time>2024-04-07T04:42:20Z</time>
      </trkpt>
      <trkpt lat="49.29951" lon="-0.08371">
        <ele>108.4</ele>
        <time>2024-04-07T04:42:21Z</time>
      </trkpt>
      <trkpt lat="49.29956" lon="-0.08377">
        <ele>107.8</ele>
        <time>2024-04-07T04:42:22Z</time>
      </trkpt>
      <trkpt lat="49.29959" lon="-0.08383">
        <ele>107.6</ele>
        <time>2024-04-07T04:42:23Z</time>
      </trkpt>
      <trkpt lat="49.29961" lon="-0.0839">
        <ele>107.4</ele>
        <time>2024-04-07T04:42:24Z</time>
      </trkpt>
      <trkpt lat="49.2996" lon="-0.08397">
        <ele>107.4</ele>
        <time>2024-04-07T04:42:25Z</time>
      </trkpt>
      <trkpt lat="49.2996" lon="-0.08405">
        <ele>107.2</ele>
        <time>2024-04-07T04:42:26Z</time>
      </trkpt>
      <trkpt lat="49.29955" lon="-0.08418">
        <ele>107</ele>
        <time>2024-04-07T04:42:27Z</time>
      </trkpt>
      <trkpt lat="49.29951" lon="-0.08424">
        <ele>106.6</ele>
        <time>2024-04-07T04:42:28Z</time>
      </trkpt>
      <trkpt lat="49.29949" lon="-0.08426">
        <ele>106.2</ele>
        <time>2024-04-07T04:42:29Z</time>
      </trkpt>
      <trkpt lat="49.29947" lon="-0.08429">
        <ele>106</ele>
        <time>2024-04-07T04:42:30Z</time>
      </trkpt>
      <trkpt lat="49.29937" lon="-0.08439">
        <ele>105.8</ele>
        <time>2024-04-07T04:42:31Z</time>
      </trkpt>
      <trkpt lat="49.29934" lon="-0.08442">
        <ele>105.6</ele>
        <time>2024-04-07T04:42:32Z</time>
      </trkpt>
      <trkpt lat="49.29932" lon="-0.08446">
        <ele>105.6</ele>
        <time>2024-04-07T04:42:33Z</time>
      </trkpt>
      <trkpt lat="49.29927" lon="-0.08452">
        <ele>105.6</ele>
        <time>2024-04-07T04:42:34Z</time>
      </trkpt>
      <trkpt lat="49.29918" lon="-0.08467">
        <ele>105.6</ele>
        <time>2024-04-07T04:42:35Z</time>
      </trkpt>
      <trkpt lat="49.29913" lon="-0.08474">
        <ele>105.6</ele>
        <time>2024-04-07T04:42:36Z</time>
      </trkpt>
      <trkpt lat="49.2991" lon="-0.08477">
        <ele>105.6</ele>
        <time>2024-04-07T04:42:37Z</time>
      </trkpt>
      <trkpt lat="49.29908" lon="-0.0848">
        <ele>105.6</ele>
        <time>2024-04-07T04:42:38Z</time>
      </trkpt>
      <trkpt lat="49.29896" lon="-0.08491">
        <ele>105.6</ele>
        <time>2024-04-07T04:42:39Z</time>
      </trkpt>
      <trkpt lat="49.2989" lon="-0.08497">
        <ele>105.6</ele>
        <time>2024-04-07T04:42:40Z</time>
      </trkpt>
      <trkpt lat="49.29884" lon="-0.08503">
        <ele>105.6</ele>
        <time>2024-04-07T04:42:41Z</time>
      </trkpt>
      <trkpt lat="49.29879" lon="-0.08508">
        <ele>105.6</ele>
        <time>2024-04-07T04:42:42Z</time>
      </trkpt>
      <trkpt lat="49.29873" lon="-0.08514">
        <ele>105.4</ele>
        <time>2024-04-07T04:42:43Z</time>
      </trkpt>
      <trkpt lat="49.29867" lon="-0.0852">
        <ele>105.4</ele>
        <time>2024-04-07T04:42:44Z</time>
      </trkpt>
      <trkpt lat="49.29864" lon="-0.08523">
        <ele>105.4</ele>
        <time>2024-04-07T04:42:45Z</time>
      </trkpt>
      <trkpt lat="49.29861" lon="-0.08526">
        <ele>105.2</ele>
        <time>2024-04-07T04:42:46Z</time>
      </trkpt>
      <trkpt lat="49.29855" lon="-0.08531">
        <ele>105.2</ele>
        <time>2024-04-07T04:42:47Z</time>
      </trkpt>
      <trkpt lat="49.29846" lon="-0.08541">
        <ele>105.2</ele>
        <time>2024-04-07T04:42:48Z</time>
      </trkpt>
      <trkpt lat="49.29843" lon="-0.08544">
        <ele>105.2</ele>
        <time>2024-04-07T04:42:49Z</time>
      </trkpt>
      <trkpt lat="49.29837" lon="-0.0855">
        <ele>105.2</ele>
        <time>2024-04-07T04:42:50Z</time>
      </trkpt>
      <trkpt lat="49.29825" lon="-0.08561">
        <ele>105</ele>
        <time>2024-04-07T04:42:51Z</time>
      </trkpt>
      <trkpt lat="49.29819" lon="-0.08566">
        <ele>105</ele>
        <time>2024-04-07T04:42:52Z</time>
      </trkpt>
      <trkpt lat="49.29813" lon="-0.08572">
        <ele>105</ele>
        <time>2024-04-07T04:42:53Z</time>
      </trkpt>
      <trkpt lat="49.29807" lon="-0.08578">
        <ele>104.8</ele>
        <time>2024-04-07T04:42:54Z</time>
      </trkpt>
      <trkpt lat="49.29801" lon="-0.08583">
        <ele>104.8</ele>
        <time>2024-04-07T04:42:55Z</time>
      </trkpt>
      <trkpt lat="49.29796" lon="-0.08587">
        <ele>104.8</ele>
        <time>2024-04-07T04:42:56Z</time>
      </trkpt>
      <trkpt lat="49.29792" lon="-0.08592">
        <ele>104.8</ele>
        <time>2024-04-07T04:42:57Z</time>
      </trkpt>
      <trkpt lat="49.29783" lon="-0.086">
        <ele>104.8</ele>
        <time>2024-04-07T04:42:58Z</time>
      </trkpt>
      <trkpt lat="49.29783" lon="-0.086">
        <ele>104.8</ele>
        <time>2024-04-07T04:42:59Z</time>
      </trkpt>
      <trkpt lat="49.29771" lon="-0.08612">
        <ele>104.8</ele>
        <time>2024-04-07T04:43:00Z</time>
      </trkpt>
      <trkpt lat="49.29766" lon="-0.08617">
        <ele>104.8</ele>
        <time>2024-04-07T04:43:01Z</time>
      </trkpt>
      <trkpt lat="49.2976" lon="-0.08623">
        <ele>104.8</ele>
        <time>2024-04-07T04:43:02Z</time>
      </trkpt>
      <trkpt lat="49.29754" lon="-0.08628">
        <ele>104.8</ele>
        <time>2024-04-07T04:43:03Z</time>
      </trkpt>
      <trkpt lat="49.29748" lon="-0.08634">
        <ele>104.8</ele>
        <time>2024-04-07T04:43:04Z</time>
      </trkpt>
      <trkpt lat="49.29743" lon="-0.08639">
        <ele>104.8</ele>
        <time>2024-04-07T04:43:05Z</time>
      </trkpt>
      <trkpt lat="49.29737" lon="-0.08645">
        <ele>104.6</ele>
        <time>2024-04-07T04:43:06Z</time>
      </trkpt>
      <trkpt lat="49.29732" lon="-0.08649">
        <ele>104.6</ele>
        <time>2024-04-07T04:43:07Z</time>
      </trkpt>
      <trkpt lat="49.29728" lon="-0.08654">
        <ele>104.8</ele>
        <time>2024-04-07T04:43:08Z</time>
      </trkpt>
      <trkpt lat="49.29719" lon="-0.08663">
        <ele>104.8</ele>
        <time>2024-04-07T04:43:09Z</time>
      </trkpt>
      <trkpt lat="49.29713" lon="-0.08668">
        <ele>104.8</ele>
        <time>2024-04-07T04:43:10Z</time>
      </trkpt>
      <trkpt lat="49.29708" lon="-0.08672">
        <ele>104.8</ele>
        <time>2024-04-07T04:43:11Z</time>
      </trkpt>
      <trkpt lat="49.29704" lon="-0.08676">
        <ele>104.8</ele>
        <time>2024-04-07T04:43:12Z</time>
      </trkpt>
      <trkpt lat="49.29694" lon="-0.08684">
        <ele>105</ele>
        <time>2024-04-07T04:43:13Z</time>
      </trkpt>
      <trkpt lat="49.29688" lon="-0.08689">
        <ele>105</ele>
        <time>2024-04-07T04:43:14Z</time>
      </trkpt>
      <trkpt lat="49.29682" lon="-0.08694">
        <ele>105</ele>
        <time>2024-04-07T04:43:15Z</time>
      </trkpt>
      <trkpt lat="49.29676" lon="-0.08699">
        <ele>105</ele>
        <time>2024-04-07T04:43:16Z</time>
      </trkpt>
      <trkpt lat="49.29669" lon="-0.08704">
        <ele>105</ele>
        <time>2024-04-07T04:43:17Z</time>
      </trkpt>
      <trkpt lat="49.29664" lon="-0.08708">
        <ele>105</ele>
        <time>2024-04-07T04:43:18Z</time>
      </trkpt>
      <trkpt lat="49.2966" lon="-0.08711">
        <ele>104.8</ele>
        <time>2024-04-07T04:43:19Z</time>
      </trkpt>
      <trkpt lat="49.2965" lon="-0.08718">
        <ele>104.8</ele>
        <time>2024-04-07T04:43:20Z</time>
      </trkpt>
      <trkpt lat="49.29644" lon="-0.08723">
        <ele>104.8</ele>
        <time>2024-04-07T04:43:21Z</time>
      </trkpt>
      <trkpt lat="49.29638" lon="-0.08728">
        <ele>104.8</ele>
        <time>2024-04-07T04:43:22Z</time>
      </trkpt>
      <trkpt lat="49.29632" lon="-0.08733">
        <ele>104.8</ele>
        <time>2024-04-07T04:43:23Z</time>
      </trkpt>
      <trkpt lat="49.29626" lon="-0.08738">
        <ele>104.8</ele>
        <time>2024-04-07T04:43:24Z</time>
      </trkpt>
      <trkpt lat="49.2962" lon="-0.08742">
        <ele>104.8</ele>
        <time>2024-04-07T04:43:25Z</time>
      </trkpt>
      <trkpt lat="49.29613" lon="-0.08747">
        <ele>105</ele>
        <time>2024-04-07T04:43:26Z</time>
      </trkpt>
      <trkpt lat="49.29607" lon="-0.08752">
        <ele>105</ele>
        <time>2024-04-07T04:43:27Z</time>
      </trkpt>
      <trkpt lat="49.29607" lon="-0.08752">
        <ele>105</ele>
        <time>2024-04-07T04:43:28Z</time>
      </trkpt>
      <trkpt lat="49.29597" lon="-0.08761">
        <ele>105</ele>
        <time>2024-04-07T04:43:29Z</time>
      </trkpt>
      <trkpt lat="49.29592" lon="-0.08765">
        <ele>105</ele>
        <time>2024-04-07T04:43:30Z</time>
      </trkpt>
      <trkpt lat="49.29584" lon="-0.08773">
        <ele>105</ele>
        <time>2024-04-07T04:43:31Z</time>
      </trkpt>
      <trkpt lat="49.29578" lon="-0.0878">
        <ele>105</ele>
        <time>2024-04-07T04:43:32Z</time>
      </trkpt>
      <trkpt lat="49.29572" lon="-0.08786">
        <ele>105</ele>
        <time>2024-04-07T04:43:33Z</time>
      </trkpt>
      <trkpt lat="49.29566" lon="-0.08793">
        <ele>105.2</ele>
        <time>2024-04-07T04:43:34Z</time>
      </trkpt>
      <trkpt lat="49.29561" lon="-0.08799">
        <ele>105.2</ele>
        <time>2024-04-07T04:43:35Z</time>
      </trkpt>
      <trkpt lat="49.29555" lon="-0.08806">
        <ele>105.4</ele>
        <time>2024-04-07T04:43:36Z</time>
      </trkpt>
      <trkpt lat="49.2955" lon="-0.08814">
        <ele>105.4</ele>
        <time>2024-04-07T04:43:37Z</time>
      </trkpt>
      <trkpt lat="49.29545" lon="-0.08821">
        <ele>105.6</ele>
        <time>2024-04-07T04:43:38Z</time>
      </trkpt>
      <trkpt lat="49.29539" lon="-0.08829">
        <ele>105.6</ele>
        <time>2024-04-07T04:43:39Z</time>
      </trkpt>
      <trkpt lat="49.29537" lon="-0.08833">
        <ele>105.6</ele>
        <time>2024-04-07T04:43:40Z</time>
      </trkpt>
      <trkpt lat="49.29535" lon="-0.08836">
        <ele>105.8</ele>
        <time>2024-04-07T04:43:41Z</time>
      </trkpt>
      <trkpt lat="49.2953" lon="-0.08845">
        <ele>105.8</ele>
        <time>2024-04-07T04:43:42Z</time>
      </trkpt>
      <trkpt lat="49.29521" lon="-0.08862">
        <ele>105.8</ele>
        <time>2024-04-07T04:43:43Z</time>
      </trkpt>
      <trkpt lat="49.29516" lon="-0.0887">
        <ele>105.8</ele>
        <time>2024-04-07T04:43:44Z</time>
      </trkpt>
      <trkpt lat="49.29512" lon="-0.08879">
        <ele>106</ele>
        <time>2024-04-07T04:43:45Z</time>
      </trkpt>
      <trkpt lat="49.29509" lon="-0.08888">
        <ele>106</ele>
        <time>2024-04-07T04:43:46Z</time>
      </trkpt>
      <trkpt lat="49.29505" lon="-0.08897">
        <ele>106</ele>
        <time>2024-04-07T04:43:47Z</time>
      </trkpt>
      <trkpt lat="49.29501" lon="-0.08907">
        <ele>106</ele>
        <time>2024-04-07T04:43:48Z</time>
      </trkpt>
      <trkpt lat="49.29501" lon="-0.08907">
        <ele>106</ele>
        <time>2024-04-07T04:43:49Z</time>
      </trkpt>
      <trkpt lat="49.29498" lon="-0.08917">
        <ele>106</ele>
        <time>2024-04-07T04:43:50Z</time>
      </trkpt>
      <trkpt lat="49.29493" lon="-0.08931">
        <ele>106</ele>
        <time>2024-04-07T04:43:51Z</time>
      </trkpt>
      <trkpt lat="49.29492" lon="-0.08936">
        <ele>105.8</ele>
        <time>2024-04-07T04:43:52Z</time>
      </trkpt>
      <trkpt lat="49.29485" lon="-0.08956">
        <ele>105.8</ele>
        <time>2024-04-07T04:43:53Z</time>
      </trkpt>
      <trkpt lat="49.29483" lon="-0.08966">
        <ele>105.8</ele>
        <time>2024-04-07T04:43:54Z</time>
      </trkpt>
      <trkpt lat="49.2948" lon="-0.08975">
        <ele>105.8</ele>
        <time>2024-04-07T04:43:55Z</time>
      </trkpt>
      <trkpt lat="49.29476" lon="-0.08984">
        <ele>106</ele>
        <time>2024-04-07T04:43:56Z</time>
      </trkpt>
      <trkpt lat="49.29473" lon="-0.08992">
        <ele>106</ele>
        <time>2024-04-07T04:43:57Z</time>
      </trkpt>
      <trkpt lat="49.29473" lon="-0.08992">
        <ele>106</ele>
        <time>2024-04-07T04:43:58Z</time>
      </trkpt>
      <trkpt lat="49.29467" lon="-0.09004">
        <ele>106.2</ele>
        <time>2024-04-07T04:43:59Z</time>
      </trkpt>
      <trkpt lat="49.29466" lon="-0.09008">
        <ele>106.4</ele>
        <time>2024-04-07T04:44:00Z</time>
      </trkpt>
      <trkpt lat="49.29461" lon="-0.09024">
        <ele>106.6</ele>
        <time>2024-04-07T04:44:01Z</time>
      </trkpt>
      <trkpt lat="49.2946" lon="-0.09028">
        <ele>106.8</ele>
        <time>2024-04-07T04:44:02Z</time>
      </trkpt>
      <trkpt lat="49.29459" lon="-0.09032">
        <ele>106.8</ele>
        <time>2024-04-07T04:44:03Z</time>
      </trkpt>
      <trkpt lat="49.29456" lon="-0.09044">
        <ele>106.8</ele>
        <time>2024-04-07T04:44:04Z</time>
      </trkpt>
      <trkpt lat="49.29455" lon="-0.09047">
        <ele>106.8</ele>
        <time>2024-04-07T04:44:05Z</time>
      </trkpt>
      <trkpt lat="49.29455" lon="-0.0905">
        <ele>107</ele>
        <time>2024-04-07T04:44:06Z</time>
      </trkpt>
      <trkpt lat="49.29454" lon="-0.09055">
        <ele>107</ele>
        <time>2024-04-07T04:44:07Z</time>
      </trkpt>
      <trkpt lat="49.29454" lon="-0.09058">
        <ele>107</ele>
        <time>2024-04-07T04:44:08Z</time>
      </trkpt>
      <trkpt lat="49.29455" lon="-0.09061">
        <ele>107.2</ele>
        <time>2024-04-07T04:44:09Z</time>
      </trkpt>
      <trkpt lat="49.29457" lon="-0.09063">
        <ele>107.4</ele>
        <time>2024-04-07T04:44:10Z</time>
      </trkpt>
      <trkpt lat="49.29459" lon="-0.09063">
        <ele>107.4</ele>
        <time>2024-04-07T04:44:11Z</time>
      </trkpt>
      <trkpt lat="49.29462" lon="-0.09062">
        <ele>107.8</ele>
        <time>2024-04-07T04:44:12Z</time>
      </trkpt>
      <trkpt lat="49.29465" lon="-0.09063">
        <ele>108</ele>
        <time>2024-04-07T04:44:13Z</time>
      </trkpt>
      <trkpt lat="49.29468" lon="-0.09066">
        <ele>108</ele>
        <time>2024-04-07T04:44:14Z</time>
      </trkpt>
      <trkpt lat="49.2947" lon="-0.09071">
        <ele>108</ele>
        <time>2024-04-07T04:44:15Z</time>
      </trkpt>
      <trkpt lat="49.2947" lon="-0.09077">
        <ele>108</ele>
        <time>2024-04-07T04:44:16Z</time>
      </trkpt>
      <trkpt lat="49.29469" lon="-0.09084">
        <ele>107.8</ele>
        <time>2024-04-07T04:44:17Z</time>
      </trkpt>
      <trkpt lat="49.29467" lon="-0.09091">
        <ele>107.6</ele>
        <time>2024-04-07T04:44:18Z</time>
      </trkpt>
      <trkpt lat="49.29464" lon="-0.09098">
        <ele>107.2</ele>
        <time>2024-04-07T04:44:19Z</time>
      </trkpt>
      <trkpt lat="49.29462" lon="-0.09105">
        <ele>106.6</ele>
        <time>2024-04-07T04:44:20Z</time>
      </trkpt>
      <trkpt lat="49.29459" lon="-0.09112">
        <ele>106.4</ele>
        <time>2024-04-07T04:44:21Z</time>
      </trkpt>
      <trkpt lat="49.29457" lon="-0.0912">
        <ele>106.2</ele>
        <time>2024-04-07T04:44:22Z</time>
      </trkpt>
      <trkpt lat="49.29454" lon="-0.09128">
        <ele>106</ele>
        <time>2024-04-07T04:44:23Z</time>
      </trkpt>
      <trkpt lat="49.29451" lon="-0.09136">
        <ele>105.8</ele>
        <time>2024-04-07T04:44:24Z</time>
      </trkpt>
      <trkpt lat="49.29448" lon="-0.09145">
        <ele>105.8</ele>
        <time>2024-04-07T04:44:25Z</time>
      </trkpt>
      <trkpt lat="49.29445" lon="-0.09153">
        <ele>105.6</ele>
        <time>2024-04-07T04:44:26Z</time>
      </trkpt>
      <trkpt lat="49.29442" lon="-0.09161">
        <ele>105.4</ele>
        <time>2024-04-07T04:44:27Z</time>
      </trkpt>
      <trkpt lat="49.29439" lon="-0.0917">
        <ele>105.2</ele>
        <time>2024-04-07T04:44:28Z</time>
      </trkpt>
      <trkpt lat="49.29436" lon="-0.09179">
        <ele>104.8</ele>
        <time>2024-04-07T04:44:29Z</time>
      </trkpt>
      <trkpt lat="49.29434" lon="-0.09188">
        <ele>104.4</ele>
        <time>2024-04-07T04:44:30Z</time>
      </trkpt>
      <trkpt lat="49.29432" lon="-0.09197">
        <ele>104.2</ele>
        <time>2024-04-07T04:44:31Z</time>
      </trkpt>
      <trkpt lat="49.29429" lon="-0.09206">
        <ele>104</ele>
        <time>2024-04-07T04:44:32Z</time>
      </trkpt>
      <trkpt lat="49.29427" lon="-0.09215">
        <ele>104</ele>
        <time>2024-04-07T04:44:33Z</time>
      </trkpt>
      <trkpt lat="49.29424" lon="-0.09224">
        <ele>104</ele>
        <time>2024-04-07T04:44:34Z</time>
      </trkpt>
      <trkpt lat="49.29422" lon="-0.09233">
        <ele>104</ele>
        <time>2024-04-07T04:44:35Z</time>
      </trkpt>
      <trkpt lat="49.2942" lon="-0.09241">
        <ele>104.2</ele>
        <time>2024-04-07T04:44:36Z</time>
      </trkpt>
      <trkpt lat="49.29419" lon="-0.09251">
        <ele>104.4</ele>
        <time>2024-04-07T04:44:37Z</time>
      </trkpt>
      <trkpt lat="49.29418" lon="-0.09261">
        <ele>104.4</ele>
        <time>2024-04-07T04:44:38Z</time>
      </trkpt>
      <trkpt lat="49.29417" lon="-0.09271">
        <ele>104.6</ele>
        <time>2024-04-07T04:44:39Z</time>
      </trkpt>
      <trkpt lat="49.29415" lon="-0.09281">
        <ele>104.6</ele>
        <time>2024-04-07T04:44:40Z</time>
      </trkpt>
      <trkpt lat="49.29413" lon="-0.0929">
        <ele>104.6</ele>
        <time>2024-04-07T04:44:41Z</time>
      </trkpt>
      <trkpt lat="49.29411" lon="-0.093">
        <ele>104.6</ele>
        <time>2024-04-07T04:44:42Z</time>
      </trkpt>
      <trkpt lat="49.29408" lon="-0.09309">
        <ele>104.4</ele>
        <time>2024-04-07T04:44:43Z</time>
      </trkpt>
      <trkpt lat="49.29405" lon="-0.09318">
        <ele>104.4</ele>
        <time>2024-04-07T04:44:44Z</time>
      </trkpt>
      <trkpt lat="49.29402" lon="-0.09327">
        <ele>104.4</ele>
        <time>2024-04-07T04:44:45Z</time>
      </trkpt>
      <trkpt lat="49.29398" lon="-0.09336">
        <ele>104.4</ele>
        <time>2024-04-07T04:44:46Z</time>
      </trkpt>
      <trkpt lat="49.29395" lon="-0.09346">
        <ele>104.4</ele>
        <time>2024-04-07T04:44:47Z</time>
      </trkpt>
      <trkpt lat="49.29393" lon="-0.09355">
        <ele>104.2</ele>
        <time>2024-04-07T04:44:48Z</time>
      </trkpt>
      <trkpt lat="49.2939" lon="-0.09364">
        <ele>103.8</ele>
        <time>2024-04-07T04:44:49Z</time>
      </trkpt>
      <trkpt lat="49.29387" lon="-0.09374">
        <ele>103.4</ele>
        <time>2024-04-07T04:44:50Z</time>
      </trkpt>
      <trkpt lat="49.29384" lon="-0.09383">
        <ele>103.2</ele>
        <time>2024-04-07T04:44:51Z</time>
      </trkpt>
      <trkpt lat="49.29381" lon="-0.09393">
        <ele>103</ele>
        <time>2024-04-07T04:44:52Z</time>
      </trkpt>
      <trkpt lat="49.29379" lon="-0.09402">
        <ele>103</ele>
        <time>2024-04-07T04:44:53Z</time>
      </trkpt>
      <trkpt lat="49.29376" lon="-0.09411">
        <ele>103.2</ele>
        <time>2024-04-07T04:44:54Z</time>
      </trkpt>
      <trkpt lat="49.29373" lon="-0.0942">
        <ele>103.4</ele>
        <time>2024-04-07T04:44:55Z</time>
      </trkpt>
      <trkpt lat="49.2937" lon="-0.09429">
        <ele>103.6</ele>
        <time>2024-04-07T04:44:56Z</time>
      </trkpt>
      <trkpt lat="49.29367" lon="-0.09438">
        <ele>103.8</ele>
        <time>2024-04-07T04:44:57Z</time>
      </trkpt>
      <trkpt lat="49.29365" lon="-0.09447">
        <ele>104.2</ele>
        <time>2024-04-07T04:44:58Z</time>
      </trkpt>
      <trkpt lat="49.29362" lon="-0.09456">
        <ele>104.2</ele>
        <time>2024-04-07T04:44:59Z</time>
      </trkpt>
      <trkpt lat="49.29359" lon="-0.09465">
        <ele>104.4</ele>
        <time>2024-04-07T04:45:00Z</time>
      </trkpt>
      <trkpt lat="49.29357" lon="-0.09473">
        <ele>104.4</ele>
        <time>2024-04-07T04:45:01Z</time>
      </trkpt>
      <trkpt lat="49.29354" lon="-0.09481">
        <ele>104.6</ele>
        <time>2024-04-07T04:45:02Z</time>
      </trkpt>
      <trkpt lat="49.29352" lon="-0.09489">
        <ele>104.8</ele>
        <time>2024-04-07T04:45:03Z</time>
      </trkpt>
      <trkpt lat="49.2935" lon="-0.09498">
        <ele>104.8</ele>
        <time>2024-04-07T04:45:04Z</time>
      </trkpt>
      <trkpt lat="49.29348" lon="-0.09506">
        <ele>105</ele>
        <time>2024-04-07T04:45:05Z</time>
      </trkpt>
      <trkpt lat="49.29345" lon="-0.09514">
        <ele>105</ele>
        <time>2024-04-07T04:45:06Z</time>
      </trkpt>
      <trkpt lat="49.29342" lon="-0.09523">
        <ele>105</ele>
        <time>2024-04-07T04:45:07Z</time>
      </trkpt>
      <trkpt lat="49.2934" lon="-0.09531">
        <ele>104.8</ele>
        <time>2024-04-07T04:45:08Z</time>
      </trkpt>
      <trkpt lat="49.29337" lon="-0.09539">
        <ele>104.6</ele>
        <time>2024-04-07T04:45:09Z</time>
      </trkpt>
      <trkpt lat="49.29335" lon="-0.09547">
        <ele>104.4</ele>
        <time>2024-04-07T04:45:10Z</time>
      </trkpt>
      <trkpt lat="49.29333" lon="-0.09556">
        <ele>104.4</ele>
        <time>2024-04-07T04:45:11Z</time>
      </trkpt>
      <trkpt lat="49.2933" lon="-0.09564">
        <ele>104.2</ele>
        <time>2024-04-07T04:45:12Z</time>
      </trkpt>
      <trkpt lat="49.29328" lon="-0.09573">
        <ele>104.2</ele>
        <time>2024-04-07T04:45:13Z</time>
      </trkpt>
      <trkpt lat="49.29325" lon="-0.09581">
        <ele>104.4</ele>
        <time>2024-04-07T04:45:14Z</time>
      </trkpt>
      <trkpt lat="49.29322" lon="-0.09589">
        <ele>104.6</ele>
        <time>2024-04-07T04:45:15Z</time>
      </trkpt>
      <trkpt lat="49.29319" lon="-0.09598">
        <ele>104.6</ele>
        <time>2024-04-07T04:45:16Z</time>
      </trkpt>
      <trkpt lat="49.29317" lon="-0.09606">
        <ele>104.8</ele>
        <time>2024-04-07T04:45:17Z</time>
      </trkpt>
      <trkpt lat="49.29315" lon="-0.09616">
        <ele>105</ele>
        <time>2024-04-07T04:45:18Z</time>
      </trkpt>
      <trkpt lat="49.29312" lon="-0.09625">
        <ele>105</ele>
        <time>2024-04-07T04:45:19Z</time>
      </trkpt>
      <trkpt lat="49.2931" lon="-0.09634">
        <ele>105</ele>
        <time>2024-04-07T04:45:20Z</time>
      </trkpt>
      <trkpt lat="49.29307" lon="-0.09642">
        <ele>105</ele>
        <time>2024-04-07T04:45:21Z</time>
      </trkpt>
      <trkpt lat="49.29304" lon="-0.09651">
        <ele>105</ele>
        <time>2024-04-07T04:45:22Z</time>
      </trkpt>
      <trkpt lat="49.29302" lon="-0.0966">
        <ele>105</ele>
        <time>2024-04-07T04:45:23Z</time>
      </trkpt>
      <trkpt lat="49.29299" lon="-0.09669">
        <ele>105</ele>
        <time>2024-04-07T04:45:24Z</time>
      </trkpt>
      <trkpt lat="49.29297" lon="-0.09678">
        <ele>104.8</ele>
        <time>2024-04-07T04:45:25Z</time>
      </trkpt>
      <trkpt lat="49.29294" lon="-0.09687">
        <ele>104.4</ele>
        <time>2024-04-07T04:45:26Z</time>
      </trkpt>
      <trkpt lat="49.29291" lon="-0.09695">
        <ele>104.2</ele>
        <time>2024-04-07T04:45:27Z</time>
      </trkpt>
      <trkpt lat="49.29289" lon="-0.09704">
        <ele>104</ele>
        <time>2024-04-07T04:45:28Z</time>
      </trkpt>
      <trkpt lat="49.29287" lon="-0.09713">
        <ele>104</ele>
        <time>2024-04-07T04:45:29Z</time>
      </trkpt>
      <trkpt lat="49.29284" lon="-0.09721">
        <ele>104</ele>
        <time>2024-04-07T04:45:30Z</time>
      </trkpt>
      <trkpt lat="49.29282" lon="-0.09729">
        <ele>104.2</ele>
        <time>2024-04-07T04:45:31Z</time>
      </trkpt>
      <trkpt lat="49.2928" lon="-0.09737">
        <ele>104.2</ele>
        <time>2024-04-07T04:45:32Z</time>
      </trkpt>
      <trkpt lat="49.29276" lon="-0.09752">
        <ele>104.4</ele>
        <time>2024-04-07T04:45:33Z</time>
      </trkpt>
      <trkpt lat="49.29275" lon="-0.09756">
        <ele>104.6</ele>
        <time>2024-04-07T04:45:34Z</time>
      </trkpt>
      <trkpt lat="49.29274" lon="-0.09759">
        <ele>104.8</ele>
        <time>2024-04-07T04:45:35Z</time>
      </trkpt>
      <trkpt lat="49.29272" lon="-0.09767">
        <ele>105</ele>
        <time>2024-04-07T04:45:36Z</time>
      </trkpt>
      <trkpt lat="49.29269" lon="-0.09775">
        <ele>105.2</ele>
        <time>2024-04-07T04:45:37Z</time>
      </trkpt>
      <trkpt lat="49.29267" lon="-0.09784">
        <ele>105.4</ele>
        <time>2024-04-07T04:45:38Z</time>
      </trkpt>
      <trkpt lat="49.29265" lon="-0.09793">
        <ele>105.4</ele>
        <time>2024-04-07T04:45:39Z</time>
      </trkpt>
      <trkpt lat="49.29262" lon="-0.09802">
        <ele>105.4</ele>
        <time>2024-04-07T04:45:40Z</time>
      </trkpt>
      <trkpt lat="49.2926" lon="-0.0981">
        <ele>105.2</ele>
        <time>2024-04-07T04:45:41Z</time>
      </trkpt>
      <trkpt lat="49.29257" lon="-0.09819">
        <ele>104.8</ele>
        <time>2024-04-07T04:45:42Z</time>
      </trkpt>
      <trkpt lat="49.29255" lon="-0.09827">
        <ele>104.6</ele>
        <time>2024-04-07T04:45:43Z</time>
      </trkpt>
      <trkpt lat="49.29252" lon="-0.09835">
        <ele>104.4</ele>
        <time>2024-04-07T04:45:44Z</time>
      </trkpt>
      <trkpt lat="49.2925" lon="-0.09844">
        <ele>104.4</ele>
        <time>2024-04-07T04:45:45Z</time>
      </trkpt>
      <trkpt lat="49.29247" lon="-0.09852">
        <ele>104.2</ele>
        <time>2024-04-07T04:45:46Z</time>
      </trkpt>
      <trkpt lat="49.29244" lon="-0.0986">
        <ele>104.2</ele>
        <time>2024-04-07T04:45:47Z</time>
      </trkpt>
      <trkpt lat="49.29241" lon="-0.09868">
        <ele>104.2</ele>
        <time>2024-04-07T04:45:48Z</time>
      </trkpt>
      <trkpt lat="49.29238" lon="-0.09876">
        <ele>104.2</ele>
        <time>2024-04-07T04:45:49Z</time>
      </trkpt>
      <trkpt lat="49.29234" lon="-0.09885">
        <ele>104</ele>
        <time>2024-04-07T04:45:50Z</time>
      </trkpt>
      <trkpt lat="49.29231" lon="-0.09893">
        <ele>103.8</ele>
        <time>2024-04-07T04:45:51Z</time>
      </trkpt>
      <trkpt lat="49.29226" lon="-0.09905">
        <ele>103.8</ele>
        <time>2024-04-07T04:45:52Z</time>
      </trkpt>
      <trkpt lat="49.29224" lon="-0.09909">
        <ele>103.6</ele>
        <time>2024-04-07T04:45:53Z</time>
      </trkpt>
      <trkpt lat="49.29221" lon="-0.09917">
        <ele>103.4</ele>
        <time>2024-04-07T04:45:54Z</time>
      </trkpt>
      <trkpt lat="49.29217" lon="-0.09925">
        <ele>103.2</ele>
        <time>2024-04-07T04:45:55Z</time>
      </trkpt>
      <trkpt lat="49.29213" lon="-0.09933">
        <ele>103.2</ele>
        <time>2024-04-07T04:45:56Z</time>
      </trkpt>
      <trkpt lat="49.29209" lon="-0.09941">
        <ele>103.2</ele>
        <time>2024-04-07T04:45:57Z</time>
      </trkpt>
      <trkpt lat="49.29205" lon="-0.09949">
        <ele>103.2</ele>
        <time>2024-04-07T04:45:58Z</time>
      </trkpt>
      <trkpt lat="49.29202" lon="-0.09956">
        <ele>103.2</ele>
        <time>2024-04-07T04:45:59Z</time>
      </trkpt>
      <trkpt lat="49.29198" lon="-0.09963">
        <ele>103.2</ele>
        <time>2024-04-07T04:46:00Z</time>
      </trkpt>
      <trkpt lat="49.29194" lon="-0.09969">
        <ele>103.4</ele>
        <time>2024-04-07T04:46:01Z</time>
      </trkpt>
      <trkpt lat="49.29191" lon="-0.09976">
        <ele>103.4</ele>
        <time>2024-04-07T04:46:02Z</time>
      </trkpt>
      <trkpt lat="49.29187" lon="-0.09981">
        <ele>103.6</ele>
        <time>2024-04-07T04:46:03Z</time>
      </trkpt>
      <trkpt lat="49.29183" lon="-0.09987">
        <ele>103.6</ele>
        <time>2024-04-07T04:46:04Z</time>
      </trkpt>
      <trkpt lat="49.2918" lon="-0.09993">
        <ele>103.6</ele>
        <time>2024-04-07T04:46:05Z</time>
      </trkpt>
      <trkpt lat="49.29175" lon="-0.10003">
        <ele>103.6</ele>
        <time>2024-04-07T04:46:06Z</time>
      </trkpt>
      <trkpt lat="49.29174" lon="-0.10006">
        <ele>103.6</ele>
        <time>2024-04-07T04:46:07Z</time>
      </trkpt>
      <trkpt lat="49.29171" lon="-0.10012">
        <ele>103.6</ele>
        <time>2024-04-07T04:46:08Z</time>
      </trkpt>
      <trkpt lat="49.29167" lon="-0.10017">
        <ele>103.4</ele>
        <time>2024-04-07T04:46:09Z</time>
      </trkpt>
      <trkpt lat="49.29163" lon="-0.1002">
        <ele>103.2</ele>
        <time>2024-04-07T04:46:10Z</time>
      </trkpt>
      <trkpt lat="49.29158" lon="-0.10021">
        <ele>103.2</ele>
        <time>2024-04-07T04:46:11Z</time>
      </trkpt>
      <trkpt lat="49.29154" lon="-0.10019">
        <ele>103.4</ele>
        <time>2024-04-07T04:46:12Z</time>
      </trkpt>
      <trkpt lat="49.29151" lon="-0.10017">
        <ele>103.6</ele>
        <time>2024-04-07T04:46:13Z</time>
      </trkpt>
      <trkpt lat="49.29147" lon="-0.10014">
        <ele>104</ele>
        <time>2024-04-07T04:46:14Z</time>
      </trkpt>
      <trkpt lat="49.29144" lon="-0.10011">
        <ele>104.2</ele>
        <time>2024-04-07T04:46:15Z</time>
      </trkpt>
      <trkpt lat="49.2914" lon="-0.1001">
        <ele>104.4</ele>
        <time>2024-04-07T04:46:16Z</time>
      </trkpt>
      <trkpt lat="49.29137" lon="-0.10012">
        <ele>104.4</ele>
        <time>2024-04-07T04:46:17Z</time>
      </trkpt>
      <trkpt lat="49.29133" lon="-0.10015">
        <ele>104.4</ele>
        <time>2024-04-07T04:46:18Z</time>
      </trkpt>
      <trkpt lat="49.2913" lon="-0.10021">
        <ele>104.4</ele>
        <time>2024-04-07T04:46:19Z</time>
      </trkpt>
      <trkpt lat="49.29127" lon="-0.10027">
        <ele>104.2</ele>
        <time>2024-04-07T04:46:20Z</time>
      </trkpt>
      <trkpt lat="49.29123" lon="-0.10034">
        <ele>104</ele>
        <time>2024-04-07T04:46:21Z</time>
      </trkpt>
      <trkpt lat="49.29118" lon="-0.10043">
        <ele>104</ele>
        <time>2024-04-07T04:46:22Z</time>
      </trkpt>
      <trkpt lat="49.29116" lon="-0.10046">
        <ele>103.8</ele>
        <time>2024-04-07T04:46:23Z</time>
      </trkpt>
      <trkpt lat="49.2911" lon="-0.10056">
        <ele>103.8</ele>
        <time>2024-04-07T04:46:24Z</time>
      </trkpt>
      <trkpt lat="49.29108" lon="-0.10059">
        <ele>103.8</ele>
        <time>2024-04-07T04:46:25Z</time>
      </trkpt>
      <trkpt lat="49.29104" lon="-0.10066">
        <ele>103.8</ele>
        <time>2024-04-07T04:46:26Z</time>
      </trkpt>
      <trkpt lat="49.291" lon="-0.10072">
        <ele>103.8</ele>
        <time>2024-04-07T04:46:27Z</time>
      </trkpt>
      <trkpt lat="49.29096" lon="-0.10079">
        <ele>104</ele>
        <time>2024-04-07T04:46:28Z</time>
      </trkpt>
      <trkpt lat="49.29092" lon="-0.10085">
        <ele>104</ele>
        <time>2024-04-07T04:46:29Z</time>
      </trkpt>
      <trkpt lat="49.29088" lon="-0.10092">
        <ele>104</ele>
        <time>2024-04-07T04:46:30Z</time>
      </trkpt>
      <trkpt lat="49.29084" lon="-0.10099">
        <ele>104</ele>
        <time>2024-04-07T04:46:31Z</time>
      </trkpt>
      <trkpt lat="49.2908" lon="-0.10106">
        <ele>103.8</ele>
        <time>2024-04-07T04:46:32Z</time>
      </trkpt>
      <trkpt lat="49.29076" lon="-0.10113">
        <ele>103.8</ele>
        <time>2024-04-07T04:46:33Z</time>
      </trkpt>
      <trkpt lat="49.29071" lon="-0.10119">
        <ele>103.8</ele>
        <time>2024-04-07T04:46:34Z</time>
      </trkpt>
      <trkpt lat="49.29067" lon="-0.10125">
        <ele>103.6</ele>
        <time>2024-04-07T04:46:35Z</time>
      </trkpt>
      <trkpt lat="49.29063" lon="-0.10131">
        <ele>103.6</ele>
        <time>2024-04-07T04:46:36Z</time>
      </trkpt>
      <trkpt lat="49.29059" lon="-0.10137">
        <ele>103.6</ele>
        <time>2024-04-07T04:46:37Z</time>
      </trkpt>
      <trkpt lat="49.29054" lon="-0.10142">
        <ele>103.6</ele>
        <time>2024-04-07T04:46:38Z</time>
      </trkpt>
      <trkpt lat="49.29049" lon="-0.10146">
        <ele>103.6</ele>
        <time>2024-04-07T04:46:39Z</time>
      </trkpt>
      <trkpt lat="49.29044" lon="-0.10152">
        <ele>103.4</ele>
        <time>2024-04-07T04:46:40Z</time>
      </trkpt>
      <trkpt lat="49.29037" lon="-0.1016">
        <ele>103.4</ele>
        <time>2024-04-07T04:46:41Z</time>
      </trkpt>
      <trkpt lat="49.29034" lon="-0.10163">
        <ele>103.4</ele>
        <time>2024-04-07T04:46:42Z</time>
      </trkpt>
      <trkpt lat="49.2903" lon="-0.10169">
        <ele>103.2</ele>
        <time>2024-04-07T04:46:43Z</time>
      </trkpt>
      <trkpt lat="49.29025" lon="-0.10175">
        <ele>103</ele>
        <time>2024-04-07T04:46:44Z</time>
      </trkpt>
      <trkpt lat="49.29021" lon="-0.10181">
        <ele>103</ele>
        <time>2024-04-07T04:46:45Z</time>
      </trkpt>
      <trkpt lat="49.29016" lon="-0.10187">
        <ele>102.8</ele>
        <time>2024-04-07T04:46:46Z</time>
      </trkpt>
      <trkpt lat="49.29011" lon="-0.10192">
        <ele>102.8</ele>
        <time>2024-04-07T04:46:47Z</time>
      </trkpt>
      <trkpt lat="49.29007" lon="-0.10198">
        <ele>102.8</ele>
        <time>2024-04-07T04:46:48Z</time>
      </trkpt>
      <trkpt lat="49.29002" lon="-0.10205">
        <ele>102.6</ele>
        <time>2024-04-07T04:46:49Z</time>
      </trkpt>
      <trkpt lat="49.28997" lon="-0.10212">
        <ele>102.6</ele>
        <time>2024-04-07T04:46:50Z</time>
      </trkpt>
      <trkpt lat="49.28992" lon="-0.10219">
        <ele>102.6</ele>
        <time>2024-04-07T04:46:51Z</time>
      </trkpt>
      <trkpt lat="49.28984" lon="-0.1023">
        <ele>102.4</ele>
        <time>2024-04-07T04:46:52Z</time>
      </trkpt>
      <trkpt lat="49.28982" lon="-0.10234">
        <ele>102.4</ele>
        <time>2024-04-07T04:46:53Z</time>
      </trkpt>
      <trkpt lat="49.28977" lon="-0.10242">
        <ele>102.4</ele>
        <time>2024-04-07T04:46:54Z</time>
      </trkpt>
      <trkpt lat="49.28973" lon="-0.1025">
        <ele>102.4</ele>
        <time>2024-04-07T04:46:55Z</time>
      </trkpt>
      <trkpt lat="49.28969" lon="-0.10258">
        <ele>102.4</ele>
        <time>2024-04-07T04:46:56Z</time>
      </trkpt>
      <trkpt lat="49.28965" lon="-0.10266">
        <ele>102.6</ele>
        <time>2024-04-07T04:46:57Z</time>
      </trkpt>
      <trkpt lat="49.28962" lon="-0.10274">
        <ele>102.6</ele>
        <time>2024-04-07T04:46:58Z</time>
      </trkpt>
      <trkpt lat="49.28957" lon="-0.10282">
        <ele>102.6</ele>
        <time>2024-04-07T04:46:59Z</time>
      </trkpt>
      <trkpt lat="49.28951" lon="-0.10293">
        <ele>102.8</ele>
        <time>2024-04-07T04:47:00Z</time>
      </trkpt>
      <trkpt lat="49.28948" lon="-0.10297">
        <ele>102.8</ele>
        <time>2024-04-07T04:47:01Z</time>
      </trkpt>
      <trkpt lat="49.28943" lon="-0.10304">
        <ele>102.8</ele>
        <time>2024-04-07T04:47:02Z</time>
      </trkpt>
      <trkpt lat="49.28938" lon="-0.1031">
        <ele>102.8</ele>
        <time>2024-04-07T04:47:03Z</time>
      </trkpt>
      <trkpt lat="49.28934" lon="-0.10316">
        <ele>103</ele>
        <time>2024-04-07T04:47:04Z</time>
      </trkpt>
      <trkpt lat="49.28929" lon="-0.10322">
        <ele>103</ele>
        <time>2024-04-07T04:47:05Z</time>
      </trkpt>
      <trkpt lat="49.28925" lon="-0.10327">
        <ele>103</ele>
        <time>2024-04-07T04:47:06Z</time>
      </trkpt>
      <trkpt lat="49.28921" lon="-0.10333">
        <ele>103</ele>
        <time>2024-04-07T04:47:07Z</time>
      </trkpt>
      <trkpt lat="49.28916" lon="-0.10338">
        <ele>102.8</ele>
        <time>2024-04-07T04:47:08Z</time>
      </trkpt>
      <trkpt lat="49.28909" lon="-0.10346">
        <ele>102.8</ele>
        <time>2024-04-07T04:47:09Z</time>
      </trkpt>
      <trkpt lat="49.28907" lon="-0.10348">
        <ele>102.8</ele>
        <time>2024-04-07T04:47:10Z</time>
      </trkpt>
      <trkpt lat="49.28902" lon="-0.10353">
        <ele>102.8</ele>
        <time>2024-04-07T04:47:11Z</time>
      </trkpt>
      <trkpt lat="49.28897" lon="-0.10358">
        <ele>102.8</ele>
        <time>2024-04-07T04:47:12Z</time>
      </trkpt>
      <trkpt lat="49.2889" lon="-0.10365">
        <ele>103</ele>
        <time>2024-04-07T04:47:13Z</time>
      </trkpt>
      <trkpt lat="49.28887" lon="-0.10367">
        <ele>103</ele>
        <time>2024-04-07T04:47:14Z</time>
      </trkpt>
      <trkpt lat="49.28882" lon="-0.10371">
        <ele>103</ele>
        <time>2024-04-07T04:47:15Z</time>
      </trkpt>
      <trkpt lat="49.28874" lon="-0.10379">
        <ele>103</ele>
        <time>2024-04-07T04:47:16Z</time>
      </trkpt>
      <trkpt lat="49.28872" lon="-0.10381">
        <ele>103</ele>
        <time>2024-04-07T04:47:17Z</time>
      </trkpt>
      <trkpt lat="49.28867" lon="-0.10387">
        <ele>102.8</ele>
        <time>2024-04-07T04:47:18Z</time>
      </trkpt>
      <trkpt lat="49.28862" lon="-0.10392">
        <ele>102.8</ele>
        <time>2024-04-07T04:47:19Z</time>
      </trkpt>
      <trkpt lat="49.28857" lon="-0.10398">
        <ele>102.6</ele>
        <time>2024-04-07T04:47:20Z</time>
      </trkpt>
      <trkpt lat="49.28853" lon="-0.10404">
        <ele>102.6</ele>
        <time>2024-04-07T04:47:21Z</time>
      </trkpt>
      <trkpt lat="49.28846" lon="-0.10414">
        <ele>102.6</ele>
        <time>2024-04-07T04:47:22Z</time>
      </trkpt>
      <trkpt lat="49.28844" lon="-0.10417">
        <ele>102.4</ele>
        <time>2024-04-07T04:47:23Z</time>
      </trkpt>
      <trkpt lat="49.28839" lon="-0.10423">
        <ele>102.4</ele>
        <time>2024-04-07T04:47:24Z</time>
      </trkpt>
      <trkpt lat="49.28835" lon="-0.10429">
        <ele>102.2</ele>
        <time>2024-04-07T04:47:25Z</time>
      </trkpt>
      <trkpt lat="49.28831" lon="-0.10436">
        <ele>102</ele>
        <time>2024-04-07T04:47:26Z</time>
      </trkpt>
      <trkpt lat="49.28823" lon="-0.10449">
        <ele>101.6</ele>
        <time>2024-04-07T04:47:27Z</time>
      </trkpt>
      <trkpt lat="49.28823" lon="-0.10449">
        <ele>101.6</ele>
        <time>2024-04-07T04:47:28Z</time>
      </trkpt>
      <trkpt lat="49.28817" lon="-0.1046">
        <ele>101.4</ele>
        <time>2024-04-07T04:47:29Z</time>
      </trkpt>
      <trkpt lat="49.28815" lon="-0.10463">
        <ele>101.6</ele>
        <time>2024-04-07T04:47:30Z</time>
      </trkpt>
      <trkpt lat="49.2881" lon="-0.1047">
        <ele>101.6</ele>
        <time>2024-04-07T04:47:31Z</time>
      </trkpt>
      <trkpt lat="49.28806" lon="-0.10476">
        <ele>101.6</ele>
        <time>2024-04-07T04:47:32Z</time>
      </trkpt>
      <trkpt lat="49.288" lon="-0.10487">
        <ele>101.8</ele>
        <time>2024-04-07T04:47:33Z</time>
      </trkpt>
      <trkpt lat="49.28798" lon="-0.1049">
        <ele>101.8</ele>
        <time>2024-04-07T04:47:34Z</time>
      </trkpt>
      <trkpt lat="49.28794" lon="-0.10497">
        <ele>102</ele>
        <time>2024-04-07T04:47:35Z</time>
      </trkpt>
      <trkpt lat="49.2879" lon="-0.10505">
        <ele>102.4</ele>
        <time>2024-04-07T04:47:36Z</time>
      </trkpt>
      <trkpt lat="49.28785" lon="-0.10515">
        <ele>102.4</ele>
        <time>2024-04-07T04:47:37Z</time>
      </trkpt>
      <trkpt lat="49.28783" lon="-0.10518">
        <ele>102.6</ele>
        <time>2024-04-07T04:47:38Z</time>
      </trkpt>
      <trkpt lat="49.2878" lon="-0.10525">
        <ele>102.8</ele>
        <time>2024-04-07T04:47:39Z</time>
      </trkpt>
      <trkpt lat="49.28776" lon="-0.10534">
        <ele>103</ele>
        <time>2024-04-07T04:47:40Z</time>
      </trkpt>
      <trkpt lat="49.28775" lon="-0.10538">
        <ele>103</ele>
        <time>2024-04-07T04:47:41Z</time>
      </trkpt>
      <trkpt lat="49.28772" lon="-0.10544">
        <ele>103</ele>
        <time>2024-04-07T04:47:42Z</time>
      </trkpt>
      <trkpt lat="49.28769" lon="-0.10551">
        <ele>103</ele>
        <time>2024-04-07T04:47:43Z</time>
      </trkpt>
      <trkpt lat="49.28767" lon="-0.10559">
        <ele>103</ele>
        <time>2024-04-07T04:47:44Z</time>
      </trkpt>
      <trkpt lat="49.28762" lon="-0.10574">
        <ele>103</ele>
        <time>2024-04-07T04:47:45Z</time>
      </trkpt>
      <trkpt lat="49.28761" lon="-0.10577">
        <ele>103</ele>
        <time>2024-04-07T04:47:46Z</time>
      </trkpt>
      <trkpt lat="49.2876" lon="-0.10581">
        <ele>103.2</ele>
        <time>2024-04-07T04:47:47Z</time>
      </trkpt>
      <trkpt lat="49.28758" lon="-0.10588">
        <ele>103</ele>
        <time>2024-04-07T04:47:48Z</time>
      </trkpt>
      <trkpt lat="49.28755" lon="-0.10595">
        <ele>103.2</ele>
        <time>2024-04-07T04:47:49Z</time>
      </trkpt>
      <trkpt lat="49.28752" lon="-0.10601">
        <ele>103.2</ele>
        <time>2024-04-07T04:47:50Z</time>
      </trkpt>
      <trkpt lat="49.28749" lon="-0.10608">
        <ele>103.2</ele>
        <time>2024-04-07T04:47:51Z</time>
      </trkpt>
      <trkpt lat="49.28746" lon="-0.10614">
        <ele>103.2</ele>
        <time>2024-04-07T04:47:52Z</time>
      </trkpt>
      <trkpt lat="49.28742" lon="-0.10623">
        <ele>103.2</ele>
        <time>2024-04-07T04:47:53Z</time>
      </trkpt>
      <trkpt lat="49.2874" lon="-0.10626">
        <ele>103.4</ele>
        <time>2024-04-07T04:47:54Z</time>
      </trkpt>
      <trkpt lat="49.28737" lon="-0.10632">
        <ele>103.4</ele>
        <time>2024-04-07T04:47:55Z</time>
      </trkpt>
      <trkpt lat="49.28734" lon="-0.10639">
        <ele>103.4</ele>
        <time>2024-04-07T04:47:56Z</time>
      </trkpt>
      <trkpt lat="49.28731" lon="-0.10645">
        <ele>103.2</ele>
        <time>2024-04-07T04:47:57Z</time>
      </trkpt>
      <trkpt lat="49.28725" lon="-0.10655">
        <ele>103.2</ele>
        <time>2024-04-07T04:47:58Z</time>
      </trkpt>
      <trkpt lat="49.28724" lon="-0.10658">
        <ele>103.2</ele>
        <time>2024-04-07T04:47:59Z</time>
      </trkpt>
      <trkpt lat="49.2872" lon="-0.10665">
        <ele>103</ele>
        <time>2024-04-07T04:48:00Z</time>
      </trkpt>
      <trkpt lat="49.28715" lon="-0.10675">
        <ele>103</ele>
        <time>2024-04-07T04:48:01Z</time>
      </trkpt>
      <trkpt lat="49.28713" lon="-0.10678">
        <ele>103</ele>
        <time>2024-04-07T04:48:02Z</time>
      </trkpt>
      <trkpt lat="49.28709" lon="-0.10685">
        <ele>103</ele>
        <time>2024-04-07T04:48:03Z</time>
      </trkpt>
      <trkpt lat="49.28705" lon="-0.10691">
        <ele>103</ele>
        <time>2024-04-07T04:48:04Z</time>
      </trkpt>
      <trkpt lat="49.28701" lon="-0.10697">
        <ele>102.8</ele>
        <time>2024-04-07T04:48:05Z</time>
      </trkpt>
      <trkpt lat="49.28696" lon="-0.10702">
        <ele>102.8</ele>
        <time>2024-04-07T04:48:06Z</time>
      </trkpt>
      <trkpt lat="49.28692" lon="-0.10707">
        <ele>103</ele>
        <time>2024-04-07T04:48:07Z</time>
      </trkpt>
      <trkpt lat="49.28687" lon="-0.10712">
        <ele>103</ele>
        <time>2024-04-07T04:48:08Z</time>
      </trkpt>
      <trkpt lat="49.28682" lon="-0.10717">
        <ele>102.8</ele>
        <time>2024-04-07T04:48:09Z</time>
      </trkpt>
      <trkpt lat="49.28677" lon="-0.10721">
        <ele>102.8</ele>
        <time>2024-04-07T04:48:10Z</time>
      </trkpt>
      <trkpt lat="49.28672" lon="-0.10725">
        <ele>102.8</ele>
        <time>2024-04-07T04:48:11Z</time>
      </trkpt>
      <trkpt lat="49.28667" lon="-0.10729">
        <ele>102.8</ele>
        <time>2024-04-07T04:48:12Z</time>
      </trkpt>
      <trkpt lat="49.28662" lon="-0.10732">
        <ele>103</ele>
        <time>2024-04-07T04:48:13Z</time>
      </trkpt>
      <trkpt lat="49.28656" lon="-0.10734">
        <ele>103</ele>
        <time>2024-04-07T04:48:14Z</time>
      </trkpt>
      <trkpt lat="49.28651" lon="-0.10737">
        <ele>103</ele>
        <time>2024-04-07T04:48:15Z</time>
      </trkpt>
      <trkpt lat="49.28645" lon="-0.1074">
        <ele>103</ele>
        <time>2024-04-07T04:48:16Z</time>
      </trkpt>
      <trkpt lat="49.2864" lon="-0.10744">
        <ele>103</ele>
        <time>2024-04-07T04:48:17Z</time>
      </trkpt>
      <trkpt lat="49.28636" lon="-0.10748">
        <ele>103</ele>
        <time>2024-04-07T04:48:18Z</time>
      </trkpt>
      <trkpt lat="49.28631" lon="-0.10753">
        <ele>103</ele>
        <time>2024-04-07T04:48:19Z</time>
      </trkpt>
      <trkpt lat="49.28626" lon="-0.10759">
        <ele>103</ele>
        <time>2024-04-07T04:48:20Z</time>
      </trkpt>
      <trkpt lat="49.28622" lon="-0.10765">
        <ele>103</ele>
        <time>2024-04-07T04:48:21Z</time>
      </trkpt>
      <trkpt lat="49.28619" lon="-0.10771">
        <ele>103</ele>
        <time>2024-04-07T04:48:22Z</time>
      </trkpt>
      <trkpt lat="49.28616" lon="-0.10778">
        <ele>102.8</ele>
        <time>2024-04-07T04:48:23Z</time>
      </trkpt>
      <trkpt lat="49.28614" lon="-0.10786">
        <ele>103</ele>
        <time>2024-04-07T04:48:24Z</time>
      </trkpt>
      <trkpt lat="49.28611" lon="-0.10793">
        <ele>103</ele>
        <time>2024-04-07T04:48:25Z</time>
      </trkpt>
      <trkpt lat="49.28609" lon="-0.108">
        <ele>103</ele>
        <time>2024-04-07T04:48:26Z</time>
      </trkpt>
      <trkpt lat="49.28606" lon="-0.10807">
        <ele>103</ele>
        <time>2024-04-07T04:48:27Z</time>
      </trkpt>
      <trkpt lat="49.28602" lon="-0.10813">
        <ele>102.8</ele>
        <time>2024-04-07T04:48:28Z</time>
      </trkpt>
      <trkpt lat="49.28597" lon="-0.10816">
        <ele>102.8</ele>
        <time>2024-04-07T04:48:29Z</time>
      </trkpt>
      <trkpt lat="49.28592" lon="-0.10819">
        <ele>102.6</ele>
        <time>2024-04-07T04:48:30Z</time>
      </trkpt>
      <trkpt lat="49.28586" lon="-0.1082">
        <ele>102.4</ele>
        <time>2024-04-07T04:48:31Z</time>
      </trkpt>
      <trkpt lat="49.28581" lon="-0.10823">
        <ele>102.4</ele>
        <time>2024-04-07T04:48:32Z</time>
      </trkpt>
      <trkpt lat="49.28575" lon="-0.10825">
        <ele>102.4</ele>
        <time>2024-04-07T04:48:33Z</time>
      </trkpt>
      <trkpt lat="49.2857" lon="-0.10828">
        <ele>102.2</ele>
        <time>2024-04-07T04:48:34Z</time>
      </trkpt>
      <trkpt lat="49.28565" lon="-0.10831">
        <ele>102.4</ele>
        <time>2024-04-07T04:48:35Z</time>
      </trkpt>
      <trkpt lat="49.28559" lon="-0.10834">
        <ele>102.4</ele>
        <time>2024-04-07T04:48:36Z</time>
      </trkpt>
      <trkpt lat="49.28553" lon="-0.10837">
        <ele>102.4</ele>
        <time>2024-04-07T04:48:37Z</time>
      </trkpt>
      <trkpt lat="49.28548" lon="-0.1084">
        <ele>102.4</ele>
        <time>2024-04-07T04:48:38Z</time>
      </trkpt>
      <trkpt lat="49.28544" lon="-0.10845">
        <ele>102.4</ele>
        <time>2024-04-07T04:48:39Z</time>
      </trkpt>
      <trkpt lat="49.28542" lon="-0.10852">
        <ele>102.4</ele>
        <time>2024-04-07T04:48:40Z</time>
      </trkpt>
      <trkpt lat="49.2854" lon="-0.1086">
        <ele>102.4</ele>
        <time>2024-04-07T04:48:41Z</time>
      </trkpt>
      <trkpt lat="49.2854" lon="-0.10869">
        <ele>102.6</ele>
        <time>2024-04-07T04:48:42Z</time>
      </trkpt>
      <trkpt lat="49.28539" lon="-0.10877">
        <ele>103</ele>
        <time>2024-04-07T04:48:43Z</time>
      </trkpt>
      <trkpt lat="49.28538" lon="-0.10885">
        <ele>103.4</ele>
        <time>2024-04-07T04:48:44Z</time>
      </trkpt>
      <trkpt lat="49.28535" lon="-0.10891">
        <ele>103.8</ele>
        <time>2024-04-07T04:48:45Z</time>
      </trkpt>
      <trkpt lat="49.2853" lon="-0.10895">
        <ele>104</ele>
        <time>2024-04-07T04:48:46Z</time>
      </trkpt>
      <trkpt lat="49.28525" lon="-0.10895">
        <ele>104</ele>
        <time>2024-04-07T04:48:47Z</time>
      </trkpt>
      <trkpt lat="49.28521" lon="-0.10892">
        <ele>104.2</ele>
        <time>2024-04-07T04:48:48Z</time>
      </trkpt>
      <trkpt lat="49.28519" lon="-0.10886">
        <ele>104.2</ele>
        <time>2024-04-07T04:48:49Z</time>
      </trkpt>
      <trkpt lat="49.28519" lon="-0.10879">
        <ele>104.2</ele>
        <time>2024-04-07T04:48:50Z</time>
      </trkpt>
      <trkpt lat="49.28519" lon="-0.10871">
        <ele>104.2</ele>
        <time>2024-04-07T04:48:51Z</time>
      </trkpt>
      <trkpt lat="49.28519" lon="-0.10863">
        <ele>104.2</ele>
        <time>2024-04-07T04:48:52Z</time>
      </trkpt>
      <trkpt lat="49.2852" lon="-0.10854">
        <ele>104.2</ele>
        <time>2024-04-07T04:48:53Z</time>
      </trkpt>
      <trkpt lat="49.2852" lon="-0.10846">
        <ele>104.2</ele>
        <time>2024-04-07T04:48:54Z</time>
      </trkpt>
      <trkpt lat="49.2852" lon="-0.10837">
        <ele>104.2</ele>
        <time>2024-04-07T04:48:55Z</time>
      </trkpt>
      <trkpt lat="49.2852" lon="-0.10828">
        <ele>104</ele>
        <time>2024-04-07T04:48:56Z</time>
      </trkpt>
      <trkpt lat="49.28519" lon="-0.10819">
        <ele>104</ele>
        <time>2024-04-07T04:48:57Z</time>
      </trkpt>
      <trkpt lat="49.28519" lon="-0.1081">
        <ele>103.6</ele>
        <time>2024-04-07T04:48:58Z</time>
      </trkpt>
      <trkpt lat="49.28518" lon="-0.10801">
        <ele>103.6</ele>
        <time>2024-04-07T04:48:59Z</time>
      </trkpt>
      <trkpt lat="49.28517" lon="-0.10792">
        <ele>103.4</ele>
        <time>2024-04-07T04:49:00Z</time>
      </trkpt>
      <trkpt lat="49.28516" lon="-0.10783">
        <ele>103.4</ele>
        <time>2024-04-07T04:49:01Z</time>
      </trkpt>
      <trkpt lat="49.28516" lon="-0.10774">
        <ele>103.4</ele>
        <time>2024-04-07T04:49:02Z</time>
      </trkpt>
      <trkpt lat="49.28515" lon="-0.10765">
        <ele>103.4</ele>
        <time>2024-04-07T04:49:03Z</time>
      </trkpt>
      <trkpt lat="49.28515" lon="-0.10757">
        <ele>103.4</ele>
        <time>2024-04-07T04:49:04Z</time>
      </trkpt>
      <trkpt lat="49.28515" lon="-0.10749">
        <ele>103.4</ele>
        <time>2024-04-07T04:49:05Z</time>
      </trkpt>
      <trkpt lat="49.28514" lon="-0.10741">
        <ele>103.4</ele>
        <time>2024-04-07T04:49:06Z</time>
      </trkpt>
      <trkpt lat="49.28513" lon="-0.10736">
        <ele>103.6</ele>
        <time>2024-04-07T04:49:07Z</time>
      </trkpt>
      <trkpt lat="49.28512" lon="-0.10732">
        <ele>103.8</ele>
        <time>2024-04-07T04:49:08Z</time>
      </trkpt>
      <trkpt lat="49.2851" lon="-0.10729">
        <ele>104</ele>
        <time>2024-04-07T04:49:09Z</time>
      </trkpt>
      <trkpt lat="49.28507" lon="-0.10727">
        <ele>104</ele>
        <time>2024-04-07T04:49:10Z</time>
      </trkpt>
      <trkpt lat="49.28504" lon="-0.10727">
        <ele>104.2</ele>
        <time>2024-04-07T04:49:11Z</time>
      </trkpt>
      <trkpt lat="49.285" lon="-0.10727">
        <ele>104</ele>
        <time>2024-04-07T04:49:12Z</time>
      </trkpt>
      <trkpt lat="49.28496" lon="-0.10729">
        <ele>104</ele>
        <time>2024-04-07T04:49:13Z</time>
      </trkpt>
      <trkpt lat="49.28492" lon="-0.1073">
        <ele>103.8</ele>
        <time>2024-04-07T04:49:14Z</time>
      </trkpt>
      <trkpt lat="49.28487" lon="-0.10732">
        <ele>103.6</ele>
        <time>2024-04-07T04:49:15Z</time>
      </trkpt>
      <trkpt lat="49.28483" lon="-0.10734">
        <ele>103.6</ele>
        <time>2024-04-07T04:49:16Z</time>
      </trkpt>
      <trkpt lat="49.28478" lon="-0.10736">
        <ele>103.4</ele>
        <time>2024-04-07T04:49:17Z</time>
      </trkpt>
      <trkpt lat="49.28474" lon="-0.10738">
        <ele>103.2</ele>
        <time>2024-04-07T04:49:18Z</time>
      </trkpt>
      <trkpt lat="49.28469" lon="-0.10739">
        <ele>103.2</ele>
        <time>2024-04-07T04:49:19Z</time>
      </trkpt>
      <trkpt lat="49.28465" lon="-0.10741">
        <ele>103.2</ele>
        <time>2024-04-07T04:49:20Z</time>
      </trkpt>
      <trkpt lat="49.28461" lon="-0.10743">
        <ele>103</ele>
        <time>2024-04-07T04:49:21Z</time>
      </trkpt>
      <trkpt lat="49.28457" lon="-0.10745">
        <ele>103</ele>
        <time>2024-04-07T04:49:22Z</time>
      </trkpt>
      <trkpt lat="49.28453" lon="-0.10747">
        <ele>103</ele>
        <time>2024-04-07T04:49:23Z</time>
      </trkpt>
      <trkpt lat="49.28449" lon="-0.10746">
        <ele>103</ele>
        <time>2024-04-07T04:49:24Z</time>
      </trkpt>
      <trkpt lat="49.28447" lon="-0.10743">
        <ele>103.2</ele>
        <time>2024-04-07T04:49:25Z</time>
      </trkpt>
      <trkpt lat="49.28445" lon="-0.10739">
        <ele>103.2</ele>
        <time>2024-04-07T04:49:26Z</time>
      </trkpt>
      <trkpt lat="49.28445" lon="-0.10734">
        <ele>103.2</ele>
        <time>2024-04-07T04:49:27Z</time>
      </trkpt>
      <trkpt lat="49.28444" lon="-0.10729">
        <ele>103.4</ele>
        <time>2024-04-07T04:49:28Z</time>
      </trkpt>
      <trkpt lat="49.28444" lon="-0.10724">
        <ele>103.6</ele>
        <time>2024-04-07T04:49:29Z</time>
      </trkpt>
      <trkpt lat="49.28443" lon="-0.10719">
        <ele>103.6</ele>
        <time>2024-04-07T04:49:30Z</time>
      </trkpt>
      <trkpt lat="49.28443" lon="-0.10714">
        <ele>103.8</ele>
        <time>2024-04-07T04:49:31Z</time>
      </trkpt>
      <trkpt lat="49.28443" lon="-0.1071">
        <ele>104</ele>
        <time>2024-04-07T04:49:32Z</time>
      </trkpt>
      <trkpt lat="49.28443" lon="-0.10705">
        <ele>104</ele>
        <time>2024-04-07T04:49:33Z</time>
      </trkpt>
      <trkpt lat="49.28442" lon="-0.10701">
        <ele>104.2</ele>
        <time>2024-04-07T04:49:34Z</time>
      </trkpt>
      <trkpt lat="49.28442" lon="-0.10698">
        <ele>104.4</ele>
        <time>2024-04-07T04:49:35Z</time>
      </trkpt>
      <trkpt lat="49.28442" lon="-0.10696">
        <ele>104.4</ele>
        <time>2024-04-07T04:49:36Z</time>
      </trkpt>
      <trkpt lat="49.28443" lon="-0.10694">
        <ele>104.4</ele>
        <time>2024-04-07T04:49:37Z</time>
      </trkpt>
      <trkpt lat="49.28444" lon="-0.10695">
        <ele>104.4</ele>
        <time>2024-04-07T04:49:38Z</time>
      </trkpt>
      <trkpt lat="49.28445" lon="-0.10697">
        <ele>104.6</ele>
        <time>2024-04-07T04:49:39Z</time>
      </trkpt>
      <trkpt lat="49.28445" lon="-0.10698">
        <ele>104.6</ele>
        <time>2024-04-07T04:49:40Z</time>
      </trkpt>
      <trkpt lat="49.28445" lon="-0.10698">
        <ele>104.6</ele>
        <time>2024-04-07T04:49:41Z</time>
      </trkpt>
      <trkpt lat="49.28445" lon="-0.10705">
        <ele>104.6</ele>
        <time>2024-04-07T04:50:17Z</time>
      </trkpt>
      <trkpt lat="49.28445" lon="-0.10708">
        <ele>104.4</ele>
        <time>2024-04-07T04:50:18Z</time>
      </trkpt>
      <trkpt lat="49.28445" lon="-0.1071">
        <ele>104.4</ele>
        <time>2024-04-07T04:50:19Z</time>
      </trkpt>
      <trkpt lat="49.28444" lon="-0.10714">
        <ele>104.4</ele>
        <time>2024-04-07T04:50:20Z</time>
      </trkpt>
      <trkpt lat="49.28444" lon="-0.10717">
        <ele>104.2</ele>
        <time>2024-04-07T04:50:21Z</time>
      </trkpt>
      <trkpt lat="49.28444" lon="-0.10721">
        <ele>104.2</ele>
        <time>2024-04-07T04:50:22Z</time>
      </trkpt>
      <trkpt lat="49.28445" lon="-0.10726">
        <ele>104</ele>
        <time>2024-04-07T04:50:23Z</time>
      </trkpt>
      <trkpt lat="49.28446" lon="-0.1073">
        <ele>104</ele>
        <time>2024-04-07T04:50:24Z</time>
      </trkpt>
      <trkpt lat="49.28446" lon="-0.10734">
        <ele>104</ele>
        <time>2024-04-07T04:50:25Z</time>
      </trkpt>
      <trkpt lat="49.28445" lon="-0.10739">
        <ele>104</ele>
        <time>2024-04-07T04:50:26Z</time>
      </trkpt>
      <trkpt lat="49.28445" lon="-0.10743">
        <ele>103.8</ele>
        <time>2024-04-07T04:50:27Z</time>
      </trkpt>
      <trkpt lat="49.28443" lon="-0.10746">
        <ele>103.8</ele>
        <time>2024-04-07T04:50:28Z</time>
      </trkpt>
      <trkpt lat="49.28441" lon="-0.10749">
        <ele>103.6</ele>
        <time>2024-04-07T04:50:29Z</time>
      </trkpt>
      <trkpt lat="49.28438" lon="-0.1075">
        <ele>103.4</ele>
        <time>2024-04-07T04:50:30Z</time>
      </trkpt>
      <trkpt lat="49.28435" lon="-0.10751">
        <ele>103.2</ele>
        <time>2024-04-07T04:50:31Z</time>
      </trkpt>
      <trkpt lat="49.28432" lon="-0.10753">
        <ele>103.2</ele>
        <time>2024-04-07T04:50:32Z</time>
      </trkpt>
      <trkpt lat="49.2843" lon="-0.10754">
        <ele>103.2</ele>
        <time>2024-04-07T04:50:33Z</time>
      </trkpt>
      <trkpt lat="49.28427" lon="-0.10756">
        <ele>103.2</ele>
        <time>2024-04-07T04:50:34Z</time>
      </trkpt>
      <trkpt lat="49.28426" lon="-0.10759">
        <ele>103.2</ele>
        <time>2024-04-07T04:50:35Z</time>
      </trkpt>
      <trkpt lat="49.28424" lon="-0.10763">
        <ele>103.4</ele>
        <time>2024-04-07T04:50:36Z</time>
      </trkpt>
      <trkpt lat="49.28424" lon="-0.10768">
        <ele>103.4</ele>
        <time>2024-04-07T04:50:37Z</time>
      </trkpt>
      <trkpt lat="49.28424" lon="-0.10772">
        <ele>103.4</ele>
        <time>2024-04-07T04:50:38Z</time>
      </trkpt>
      <trkpt lat="49.28425" lon="-0.10777">
        <ele>103.6</ele>
        <time>2024-04-07T04:50:39Z</time>
      </trkpt>
      <trkpt lat="49.28426" lon="-0.10782">
        <ele>103.8</ele>
        <time>2024-04-07T04:50:40Z</time>
      </trkpt>
      <trkpt lat="49.28427" lon="-0.10788">
        <ele>103.8</ele>
        <time>2024-04-07T04:50:41Z</time>
      </trkpt>
      <trkpt lat="49.28427" lon="-0.10794">
        <ele>103.8</ele>
        <time>2024-04-07T04:50:42Z</time>
      </trkpt>
      <trkpt lat="49.28427" lon="-0.108">
        <ele>103.8</ele>
        <time>2024-04-07T04:50:43Z</time>
      </trkpt>
      <trkpt lat="49.28427" lon="-0.10806">
        <ele>103.8</ele>
        <time>2024-04-07T04:50:44Z</time>
      </trkpt>
      <trkpt lat="49.28427" lon="-0.10812">
        <ele>103.8</ele>
        <time>2024-04-07T04:50:45Z</time>
      </trkpt>
      <trkpt lat="49.28428" lon="-0.10818">
        <ele>103.8</ele>
        <time>2024-04-07T04:50:46Z</time>
      </trkpt>
      <trkpt lat="49.28429" lon="-0.10825">
        <ele>103.8</ele>
        <time>2024-04-07T04:50:47Z</time>
      </trkpt>
      <trkpt lat="49.2843" lon="-0.10831">
        <ele>103.8</ele>
        <time>2024-04-07T04:50:48Z</time>
      </trkpt>
      <trkpt lat="49.28431" lon="-0.10837">
        <ele>103.8</ele>
        <time>2024-04-07T04:50:49Z</time>
      </trkpt>
      <trkpt lat="49.28432" lon="-0.10844">
        <ele>103.8</ele>
        <time>2024-04-07T04:50:50Z</time>
      </trkpt>
      <trkpt lat="49.28433" lon="-0.1085">
        <ele>103.8</ele>
        <time>2024-04-07T04:50:51Z</time>
      </trkpt>
      <trkpt lat="49.28433" lon="-0.10857">
        <ele>103.8</ele>
        <time>2024-04-07T04:50:52Z</time>
      </trkpt>
      <trkpt lat="49.28434" lon="-0.10863">
        <ele>103.8</ele>
        <time>2024-04-07T04:50:53Z</time>
      </trkpt>
      <trkpt lat="49.28435" lon="-0.10869">
        <ele>103.8</ele>
        <time>2024-04-07T04:50:54Z</time>
      </trkpt>
      <trkpt lat="49.28436" lon="-0.10875">
        <ele>103.8</ele>
        <time>2024-04-07T04:50:55Z</time>
      </trkpt>
      <trkpt lat="49.28437" lon="-0.10881">
        <ele>103.8</ele>
        <time>2024-04-07T04:50:56Z</time>
      </trkpt>
      <trkpt lat="49.28439" lon="-0.10885">
        <ele>103.8</ele>
        <time>2024-04-07T04:50:57Z</time>
      </trkpt>
      <trkpt lat="49.28442" lon="-0.10887">
        <ele>103.8</ele>
        <time>2024-04-07T04:50:58Z</time>
      </trkpt>
      <trkpt lat="49.28445" lon="-0.10887">
        <ele>104</ele>
        <time>2024-04-07T04:50:59Z</time>
      </trkpt>
      <trkpt lat="49.28449" lon="-0.10885">
        <ele>104</ele>
        <time>2024-04-07T04:51:00Z</time>
      </trkpt>
      <trkpt lat="49.28453" lon="-0.10883">
        <ele>104.2</ele>
        <time>2024-04-07T04:51:01Z</time>
      </trkpt>
      <trkpt lat="49.28457" lon="-0.10881">
        <ele>104.4</ele>
        <time>2024-04-07T04:51:02Z</time>
      </trkpt>
      <trkpt lat="49.28461" lon="-0.10879">
        <ele>104.4</ele>
        <time>2024-04-07T04:51:03Z</time>
      </trkpt>
      <trkpt lat="49.28466" lon="-0.10876">
        <ele>104.4</ele>
        <time>2024-04-07T04:51:04Z</time>
      </trkpt>
      <trkpt lat="49.2847" lon="-0.10874">
        <ele>104.4</ele>
        <time>2024-04-07T04:51:05Z</time>
      </trkpt>
      <trkpt lat="49.28474" lon="-0.10871">
        <ele>104.6</ele>
        <time>2024-04-07T04:51:06Z</time>
      </trkpt>
      <trkpt lat="49.28478" lon="-0.10869">
        <ele>104.6</ele>
        <time>2024-04-07T04:51:07Z</time>
      </trkpt>
      <trkpt lat="49.28483" lon="-0.10867">
        <ele>104.8</ele>
        <time>2024-04-07T04:51:08Z</time>
      </trkpt>
      <trkpt lat="49.28487" lon="-0.10864">
        <ele>104.8</ele>
        <time>2024-04-07T04:51:09Z</time>
      </trkpt>
      <trkpt lat="49.28491" lon="-0.10862">
        <ele>104.8</ele>
        <time>2024-04-07T04:51:10Z</time>
      </trkpt>
      <trkpt lat="49.28495" lon="-0.1086">
        <ele>105</ele>
        <time>2024-04-07T04:51:11Z</time>
      </trkpt>
      <trkpt lat="49.28499" lon="-0.10858">
        <ele>105</ele>
        <time>2024-04-07T04:51:12Z</time>
      </trkpt>
      <trkpt lat="49.28504" lon="-0.10856">
        <ele>105</ele>
        <time>2024-04-07T04:51:13Z</time>
      </trkpt>
      <trkpt lat="49.28507" lon="-0.10854">
        <ele>105</ele>
        <time>2024-04-07T04:51:14Z</time>
      </trkpt>
      <trkpt lat="49.28511" lon="-0.10852">
        <ele>104.8</ele>
        <time>2024-04-07T04:51:15Z</time>
      </trkpt>
      <trkpt lat="49.28515" lon="-0.10851">
        <ele>104.8</ele>
        <time>2024-04-07T04:51:16Z</time>
      </trkpt>
      <trkpt lat="49.28519" lon="-0.10848">
        <ele>104.8</ele>
        <time>2024-04-07T04:51:17Z</time>
      </trkpt>
      <trkpt lat="49.28523" lon="-0.10846">
        <ele>104.8</ele>
        <time>2024-04-07T04:51:18Z</time>
      </trkpt>
      <trkpt lat="49.28527" lon="-0.10844">
        <ele>104.6</ele>
        <time>2024-04-07T04:51:19Z</time>
      </trkpt>
      <trkpt lat="49.28531" lon="-0.10844">
        <ele>104.6</ele>
        <time>2024-04-07T04:51:20Z</time>
      </trkpt>
      <trkpt lat="49.28535" lon="-0.10846">
        <ele>104.6</ele>
        <time>2024-04-07T04:51:21Z</time>
      </trkpt>
      <trkpt lat="49.28538" lon="-0.1085">
        <ele>104.4</ele>
        <time>2024-04-07T04:51:22Z</time>
      </trkpt>
      <trkpt lat="49.28539" lon="-0.10857">
        <ele>104.2</ele>
        <time>2024-04-07T04:51:23Z</time>
      </trkpt>
      <trkpt lat="49.28541" lon="-0.10864">
        <ele>104</ele>
        <time>2024-04-07T04:51:24Z</time>
      </trkpt>
      <trkpt lat="49.28541" lon="-0.10872">
        <ele>103.8</ele>
        <time>2024-04-07T04:51:25Z</time>
      </trkpt>
      <trkpt lat="49.28541" lon="-0.10879">
        <ele>103.8</ele>
        <time>2024-04-07T04:51:26Z</time>
      </trkpt>
      <trkpt lat="49.28539" lon="-0.10887">
        <ele>103.8</ele>
        <time>2024-04-07T04:51:27Z</time>
      </trkpt>
      <trkpt lat="49.28537" lon="-0.10894">
        <ele>103.6</ele>
        <time>2024-04-07T04:51:28Z</time>
      </trkpt>
      <trkpt lat="49.28534" lon="-0.109">
        <ele>103.6</ele>
        <time>2024-04-07T04:51:29Z</time>
      </trkpt>
      <trkpt lat="49.28531" lon="-0.10908">
        <ele>103.6</ele>
        <time>2024-04-07T04:51:30Z</time>
      </trkpt>
      <trkpt lat="49.28529" lon="-0.10915">
        <ele>103.4</ele>
        <time>2024-04-07T04:51:31Z</time>
      </trkpt>
      <trkpt lat="49.28529" lon="-0.10923">
        <ele>103.4</ele>
        <time>2024-04-07T04:51:32Z</time>
      </trkpt>
      <trkpt lat="49.28529" lon="-0.10932">
        <ele>103.4</ele>
        <time>2024-04-07T04:51:33Z</time>
      </trkpt>
      <trkpt lat="49.2853" lon="-0.1094">
        <ele>103.4</ele>
        <time>2024-04-07T04:51:34Z</time>
      </trkpt>
      <trkpt lat="49.28531" lon="-0.10948">
        <ele>103.4</ele>
        <time>2024-04-07T04:51:35Z</time>
      </trkpt>
      <trkpt lat="49.28533" lon="-0.10957">
        <ele>103.6</ele>
        <time>2024-04-07T04:51:36Z</time>
      </trkpt>
      <trkpt lat="49.28534" lon="-0.10965">
        <ele>103.6</ele>
        <time>2024-04-07T04:51:37Z</time>
      </trkpt>
      <trkpt lat="49.28535" lon="-0.10973">
        <ele>103.8</ele>
        <time>2024-04-07T04:51:38Z</time>
      </trkpt>
      <trkpt lat="49.28537" lon="-0.10982">
        <ele>103.8</ele>
        <time>2024-04-07T04:51:39Z</time>
      </trkpt>
      <trkpt lat="49.28538" lon="-0.1099">
        <ele>104</ele>
        <time>2024-04-07T04:51:40Z</time>
      </trkpt>
      <trkpt lat="49.2854" lon="-0.10998">
        <ele>104.2</ele>
        <time>2024-04-07T04:51:41Z</time>
      </trkpt>
      <trkpt lat="49.28541" lon="-0.11007">
        <ele>104.2</ele>
        <time>2024-04-07T04:51:42Z</time>
      </trkpt>
      <trkpt lat="49.28543" lon="-0.11015">
        <ele>104.4</ele>
        <time>2024-04-07T04:51:43Z</time>
      </trkpt>
      <trkpt lat="49.28545" lon="-0.11023">
        <ele>104.6</ele>
        <time>2024-04-07T04:51:44Z</time>
      </trkpt>
      <trkpt lat="49.28547" lon="-0.11031">
        <ele>104.6</ele>
        <time>2024-04-07T04:51:45Z</time>
      </trkpt>
      <trkpt lat="49.28549" lon="-0.11039">
        <ele>104.8</ele>
        <time>2024-04-07T04:51:46Z</time>
      </trkpt>
      <trkpt lat="49.28551" lon="-0.11047">
        <ele>104.8</ele>
        <time>2024-04-07T04:51:47Z</time>
      </trkpt>
      <trkpt lat="49.28553" lon="-0.11055">
        <ele>104.8</ele>
        <time>2024-04-07T04:51:48Z</time>
      </trkpt>
      <trkpt lat="49.28555" lon="-0.11063">
        <ele>104.8</ele>
        <time>2024-04-07T04:51:49Z</time>
      </trkpt>
      <trkpt lat="49.28557" lon="-0.1107">
        <ele>104.8</ele>
        <time>2024-04-07T04:51:50Z</time>
      </trkpt>
      <trkpt lat="49.28559" lon="-0.11078">
        <ele>105</ele>
        <time>2024-04-07T04:51:51Z</time>
      </trkpt>
      <trkpt lat="49.28561" lon="-0.11086">
        <ele>105</ele>
        <time>2024-04-07T04:51:52Z</time>
      </trkpt>
      <trkpt lat="49.28563" lon="-0.11093">
        <ele>105</ele>
        <time>2024-04-07T04:51:53Z</time>
      </trkpt>
      <trkpt lat="49.28565" lon="-0.11101">
        <ele>105</ele>
        <time>2024-04-07T04:51:54Z</time>
      </trkpt>
      <trkpt lat="49.28567" lon="-0.11109">
        <ele>105</ele>
        <time>2024-04-07T04:51:55Z</time>
      </trkpt>
      <trkpt lat="49.28569" lon="-0.11117">
        <ele>105</ele>
        <time>2024-04-07T04:51:56Z</time>
      </trkpt>
      <trkpt lat="49.28571" lon="-0.11125">
        <ele>105.2</ele>
        <time>2024-04-07T04:51:57Z</time>
      </trkpt>
      <trkpt lat="49.28573" lon="-0.11132">
        <ele>105.4</ele>
        <time>2024-04-07T04:51:58Z</time>
      </trkpt>
      <trkpt lat="49.28575" lon="-0.1114">
        <ele>105.6</ele>
        <time>2024-04-07T04:51:59Z</time>
      </trkpt>
      <trkpt lat="49.28577" lon="-0.11148">
        <ele>105.8</ele>
        <time>2024-04-07T04:52:00Z</time>
      </trkpt>
      <trkpt lat="49.28579" lon="-0.11155">
        <ele>106</ele>
        <time>2024-04-07T04:52:01Z</time>
      </trkpt>
      <trkpt lat="49.28581" lon="-0.11163">
        <ele>106</ele>
        <time>2024-04-07T04:52:02Z</time>
      </trkpt>
      <trkpt lat="49.28583" lon="-0.11171">
        <ele>106.2</ele>
        <time>2024-04-07T04:52:03Z</time>
      </trkpt>
      <trkpt lat="49.28585" lon="-0.11179">
        <ele>106.2</ele>
        <time>2024-04-07T04:52:04Z</time>
      </trkpt>
      <trkpt lat="49.28587" lon="-0.11187">
        <ele>106.4</ele>
        <time>2024-04-07T04:52:05Z</time>
      </trkpt>
      <trkpt lat="49.2859" lon="-0.11195">
        <ele>106.4</ele>
        <time>2024-04-07T04:52:06Z</time>
      </trkpt>
      <trkpt lat="49.28592" lon="-0.11203">
        <ele>106.2</ele>
        <time>2024-04-07T04:52:07Z</time>
      </trkpt>
      <trkpt lat="49.28594" lon="-0.11211">
        <ele>106.2</ele>
        <time>2024-04-07T04:52:08Z</time>
      </trkpt>
      <trkpt lat="49.28597" lon="-0.1122">
        <ele>106.2</ele>
        <time>2024-04-07T04:52:09Z</time>
      </trkpt>
      <trkpt lat="49.28599" lon="-0.11227">
        <ele>106</ele>
        <time>2024-04-07T04:52:10Z</time>
      </trkpt>
      <trkpt lat="49.28602" lon="-0.11235">
        <ele>106</ele>
        <time>2024-04-07T04:52:11Z</time>
      </trkpt>
      <trkpt lat="49.28605" lon="-0.11243">
        <ele>105.6</ele>
        <time>2024-04-07T04:52:12Z</time>
      </trkpt>
      <trkpt lat="49.28606" lon="-0.11252">
        <ele>105.4</ele>
        <time>2024-04-07T04:52:13Z</time>
      </trkpt>
      <trkpt lat="49.28608" lon="-0.11261">
        <ele>105.2</ele>
        <time>2024-04-07T04:52:14Z</time>
      </trkpt>
      <trkpt lat="49.2861" lon="-0.1127">
        <ele>105.2</ele>
        <time>2024-04-07T04:52:15Z</time>
      </trkpt>
      <trkpt lat="49.28612" lon="-0.11279">
        <ele>105</ele>
        <time>2024-04-07T04:52:16Z</time>
      </trkpt>
      <trkpt lat="49.28614" lon="-0.11288">
        <ele>104.8</ele>
        <time>2024-04-07T04:52:17Z</time>
      </trkpt>
      <trkpt lat="49.28616" lon="-0.11297">
        <ele>104.6</ele>
        <time>2024-04-07T04:52:18Z</time>
      </trkpt>
      <trkpt lat="49.28619" lon="-0.11305">
        <ele>104.6</ele>
        <time>2024-04-07T04:52:19Z</time>
      </trkpt>
      <trkpt lat="49.28621" lon="-0.11314">
        <ele>104.6</ele>
        <time>2024-04-07T04:52:20Z</time>
      </trkpt>
      <trkpt lat="49.28624" lon="-0.11323">
        <ele>104.6</ele>
        <time>2024-04-07T04:52:21Z</time>
      </trkpt>
      <trkpt lat="49.28626" lon="-0.11332">
        <ele>104.6</ele>
        <time>2024-04-07T04:52:22Z</time>
      </trkpt>
      <trkpt lat="49.28629" lon="-0.11341">
        <ele>104.6</ele>
        <time>2024-04-07T04:52:23Z</time>
      </trkpt>
      <trkpt lat="49.28631" lon="-0.11349">
        <ele>104.6</ele>
        <time>2024-04-07T04:52:24Z</time>
      </trkpt>
      <trkpt lat="49.28634" lon="-0.11358">
        <ele>104.8</ele>
        <time>2024-04-07T04:52:25Z</time>
      </trkpt>
      <trkpt lat="49.28636" lon="-0.11367">
        <ele>104.8</ele>
        <time>2024-04-07T04:52:26Z</time>
      </trkpt>
      <trkpt lat="49.28639" lon="-0.11376">
        <ele>104.8</ele>
        <time>2024-04-07T04:52:27Z</time>
      </trkpt>
      <trkpt lat="49.28641" lon="-0.11385">
        <ele>104.6</ele>
        <time>2024-04-07T04:52:28Z</time>
      </trkpt>
      <trkpt lat="49.28644" lon="-0.11393">
        <ele>104.6</ele>
        <time>2024-04-07T04:52:29Z</time>
      </trkpt>
      <trkpt lat="49.28646" lon="-0.11402">
        <ele>104.6</ele>
        <time>2024-04-07T04:52:30Z</time>
      </trkpt>
      <trkpt lat="49.28648" lon="-0.11411">
        <ele>104.6</ele>
        <time>2024-04-07T04:52:31Z</time>
      </trkpt>
      <trkpt lat="49.28651" lon="-0.11419">
        <ele>104.6</ele>
        <time>2024-04-07T04:52:32Z</time>
      </trkpt>
      <trkpt lat="49.28653" lon="-0.11428">
        <ele>104.6</ele>
        <time>2024-04-07T04:52:33Z</time>
      </trkpt>
      <trkpt lat="49.28655" lon="-0.11436">
        <ele>104.4</ele>
        <time>2024-04-07T04:52:34Z</time>
      </trkpt>
      <trkpt lat="49.28657" lon="-0.11445">
        <ele>104.6</ele>
        <time>2024-04-07T04:52:35Z</time>
      </trkpt>
      <trkpt lat="49.28658" lon="-0.11452">
        <ele>104.4</ele>
        <time>2024-04-07T04:52:36Z</time>
      </trkpt>
      <trkpt lat="49.2866" lon="-0.1146">
        <ele>104.4</ele>
        <time>2024-04-07T04:52:37Z</time>
      </trkpt>
      <trkpt lat="49.28662" lon="-0.11467">
        <ele>104.6</ele>
        <time>2024-04-07T04:52:38Z</time>
      </trkpt>
      <trkpt lat="49.28664" lon="-0.11474">
        <ele>104.6</ele>
        <time>2024-04-07T04:52:39Z</time>
      </trkpt>
      <trkpt lat="49.28666" lon="-0.11481">
        <ele>104.6</ele>
        <time>2024-04-07T04:52:40Z</time>
      </trkpt>
      <trkpt lat="49.28667" lon="-0.11488">
        <ele>104.6</ele>
        <time>2024-04-07T04:52:41Z</time>
      </trkpt>
      <trkpt lat="49.28669" lon="-0.11495">
        <ele>104.8</ele>
        <time>2024-04-07T04:52:42Z</time>
      </trkpt>
      <trkpt lat="49.2867" lon="-0.11502">
        <ele>104.8</ele>
        <time>2024-04-07T04:52:43Z</time>
      </trkpt>
      <trkpt lat="49.28672" lon="-0.1151">
        <ele>104.8</ele>
        <time>2024-04-07T04:52:44Z</time>
      </trkpt>
      <trkpt lat="49.28673" lon="-0.11517">
        <ele>105</ele>
        <time>2024-04-07T04:52:45Z</time>
      </trkpt>
      <trkpt lat="49.28675" lon="-0.11524">
        <ele>105</ele>
        <time>2024-04-07T04:52:46Z</time>
      </trkpt>
      <trkpt lat="49.28677" lon="-0.11531">
        <ele>105</ele>
        <time>2024-04-07T04:52:47Z</time>
      </trkpt>
      <trkpt lat="49.28678" lon="-0.11538">
        <ele>105</ele>
        <time>2024-04-07T04:52:48Z</time>
      </trkpt>
      <trkpt lat="49.2868" lon="-0.11546">
        <ele>105</ele>
        <time>2024-04-07T04:52:49Z</time>
      </trkpt>
      <trkpt lat="49.28681" lon="-0.11553">
        <ele>105.2</ele>
        <time>2024-04-07T04:52:50Z</time>
      </trkpt>
      <trkpt lat="49.28682" lon="-0.1156">
        <ele>105.2</ele>
        <time>2024-04-07T04:52:51Z</time>
      </trkpt>
      <trkpt lat="49.28683" lon="-0.11567">
        <ele>105.2</ele>
        <time>2024-04-07T04:52:52Z</time>
      </trkpt>
      <trkpt lat="49.28684" lon="-0.11574">
        <ele>105.4</ele>
        <time>2024-04-07T04:52:53Z</time>
      </trkpt>
      <trkpt lat="49.28684" lon="-0.11581">
        <ele>105.4</ele>
        <time>2024-04-07T04:52:54Z</time>
      </trkpt>
      <trkpt lat="49.28686" lon="-0.11587">
        <ele>105.6</ele>
        <time>2024-04-07T04:52:55Z</time>
      </trkpt>
      <trkpt lat="49.28686" lon="-0.11595">
        <ele>105.6</ele>
        <time>2024-04-07T04:52:56Z</time>
      </trkpt>
      <trkpt lat="49.28686" lon="-0.11602">
        <ele>105.6</ele>
        <time>2024-04-07T04:52:57Z</time>
      </trkpt>
      <trkpt lat="49.28687" lon="-0.1161">
        <ele>105.6</ele>
        <time>2024-04-07T04:52:58Z</time>
      </trkpt>
      <trkpt lat="49.28687" lon="-0.11618">
        <ele>105.4</ele>
        <time>2024-04-07T04:52:59Z</time>
      </trkpt>
      <trkpt lat="49.28687" lon="-0.11626">
        <ele>105.4</ele>
        <time>2024-04-07T04:53:00Z</time>
      </trkpt>
      <trkpt lat="49.28687" lon="-0.11635">
        <ele>105.2</ele>
        <time>2024-04-07T04:53:01Z</time>
      </trkpt>
      <trkpt lat="49.28688" lon="-0.11643">
        <ele>105.2</ele>
        <time>2024-04-07T04:53:02Z</time>
      </trkpt>
      <trkpt lat="49.28688" lon="-0.11652">
        <ele>105</ele>
        <time>2024-04-07T04:53:03Z</time>
      </trkpt>
      <trkpt lat="49.28688" lon="-0.1166">
        <ele>104.8</ele>
        <time>2024-04-07T04:53:04Z</time>
      </trkpt>
      <trkpt lat="49.28688" lon="-0.11669">
        <ele>104.6</ele>
        <time>2024-04-07T04:53:05Z</time>
      </trkpt>
      <trkpt lat="49.28688" lon="-0.11678">
        <ele>104.6</ele>
        <time>2024-04-07T04:53:06Z</time>
      </trkpt>
      <trkpt lat="49.28687" lon="-0.11686">
        <ele>104.6</ele>
        <time>2024-04-07T04:53:07Z</time>
      </trkpt>
      <trkpt lat="49.28687" lon="-0.11695">
        <ele>104.4</ele>
        <time>2024-04-07T04:53:08Z</time>
      </trkpt>
      <trkpt lat="49.28687" lon="-0.11703">
        <ele>104.4</ele>
        <time>2024-04-07T04:53:09Z</time>
      </trkpt>
      <trkpt lat="49.28687" lon="-0.11712">
        <ele>104.6</ele>
        <time>2024-04-07T04:53:10Z</time>
      </trkpt>
      <trkpt lat="49.28686" lon="-0.1172">
        <ele>104.6</ele>
        <time>2024-04-07T04:53:11Z</time>
      </trkpt>
      <trkpt lat="49.28686" lon="-0.11729">
        <ele>104.6</ele>
        <time>2024-04-07T04:53:12Z</time>
      </trkpt>
      <trkpt lat="49.28685" lon="-0.11738">
        <ele>104.6</ele>
        <time>2024-04-07T04:53:13Z</time>
      </trkpt>
      <trkpt lat="49.28685" lon="-0.11746">
        <ele>104.6</ele>
        <time>2024-04-07T04:53:14Z</time>
      </trkpt>
      <trkpt lat="49.28685" lon="-0.11755">
        <ele>104.6</ele>
        <time>2024-04-07T04:53:15Z</time>
      </trkpt>
      <trkpt lat="49.28684" lon="-0.11763">
        <ele>104.6</ele>
        <time>2024-04-07T04:53:16Z</time>
      </trkpt>
      <trkpt lat="49.28684" lon="-0.11771">
        <ele>104.6</ele>
        <time>2024-04-07T04:53:17Z</time>
      </trkpt>
      <trkpt lat="49.28684" lon="-0.11779">
        <ele>104.8</ele>
        <time>2024-04-07T04:53:18Z</time>
      </trkpt>
      <trkpt lat="49.28683" lon="-0.11788">
        <ele>104.6</ele>
        <time>2024-04-07T04:53:19Z</time>
      </trkpt>
      <trkpt lat="49.28683" lon="-0.11796">
        <ele>104.6</ele>
        <time>2024-04-07T04:53:20Z</time>
      </trkpt>
      <trkpt lat="49.28682" lon="-0.11804">
        <ele>104.6</ele>
        <time>2024-04-07T04:53:21Z</time>
      </trkpt>
      <trkpt lat="49.28681" lon="-0.11813">
        <ele>104.6</ele>
        <time>2024-04-07T04:53:22Z</time>
      </trkpt>
      <trkpt lat="49.2868" lon="-0.11821">
        <ele>104.6</ele>
        <time>2024-04-07T04:53:23Z</time>
      </trkpt>
      <trkpt lat="49.28679" lon="-0.11828">
        <ele>104.6</ele>
        <time>2024-04-07T04:53:24Z</time>
      </trkpt>
      <trkpt lat="49.28678" lon="-0.11835">
        <ele>104.6</ele>
        <time>2024-04-07T04:53:25Z</time>
      </trkpt>
      <trkpt lat="49.28677" lon="-0.11842">
        <ele>104.6</ele>
        <time>2024-04-07T04:53:26Z</time>
      </trkpt>
      <trkpt lat="49.28676" lon="-0.11849">
        <ele>104.4</ele>
        <time>2024-04-07T04:53:27Z</time>
      </trkpt>
      <trkpt lat="49.28674" lon="-0.11855">
        <ele>104.4</ele>
        <time>2024-04-07T04:53:28Z</time>
      </trkpt>
      <trkpt lat="49.28672" lon="-0.11862">
        <ele>104.4</ele>
        <time>2024-04-07T04:53:29Z</time>
      </trkpt>
      <trkpt lat="49.2867" lon="-0.11868">
        <ele>104.2</ele>
        <time>2024-04-07T04:53:30Z</time>
      </trkpt>
      <trkpt lat="49.28667" lon="-0.11873">
        <ele>104.2</ele>
        <time>2024-04-07T04:53:31Z</time>
      </trkpt>
      <trkpt lat="49.28664" lon="-0.11877">
        <ele>104.2</ele>
        <time>2024-04-07T04:53:32Z</time>
      </trkpt>
      <trkpt lat="49.2866" lon="-0.1188">
        <ele>104</ele>
        <time>2024-04-07T04:53:33Z</time>
      </trkpt>
      <trkpt lat="49.28656" lon="-0.11882">
        <ele>104</ele>
        <time>2024-04-07T04:53:34Z</time>
      </trkpt>
      <trkpt lat="49.28652" lon="-0.11885">
        <ele>103.8</ele>
        <time>2024-04-07T04:53:35Z</time>
      </trkpt>
      <trkpt lat="49.28649" lon="-0.11888">
        <ele>103.8</ele>
        <time>2024-04-07T04:53:36Z</time>
      </trkpt>
      <trkpt lat="49.28646" lon="-0.11892">
        <ele>104</ele>
        <time>2024-04-07T04:53:37Z</time>
      </trkpt>
      <trkpt lat="49.28644" lon="-0.11895">
        <ele>104.2</ele>
        <time>2024-04-07T04:53:38Z</time>
      </trkpt>
      <trkpt lat="49.28642" lon="-0.11898">
        <ele>104.4</ele>
        <time>2024-04-07T04:53:39Z</time>
      </trkpt>
      <trkpt lat="49.28641" lon="-0.11902">
        <ele>104.6</ele>
        <time>2024-04-07T04:53:40Z</time>
      </trkpt>
      <trkpt lat="49.2864" lon="-0.11905">
        <ele>104.6</ele>
        <time>2024-04-07T04:53:41Z</time>
      </trkpt>
      <trkpt lat="49.2864" lon="-0.11908">
        <ele>104.8</ele>
        <time>2024-04-07T04:53:42Z</time>
      </trkpt>
      <trkpt lat="49.2864" lon="-0.11911">
        <ele>105</ele>
        <time>2024-04-07T04:53:43Z</time>
      </trkpt>
      <trkpt lat="49.28641" lon="-0.11914">
        <ele>105</ele>
        <time>2024-04-07T04:53:44Z</time>
      </trkpt>
      <trkpt lat="49.28642" lon="-0.11916">
        <ele>105.2</ele>
        <time>2024-04-07T04:53:45Z</time>
      </trkpt>
      <trkpt lat="49.28643" lon="-0.11918">
        <ele>105.2</ele>
        <time>2024-04-07T04:53:46Z</time>
      </trkpt>
      <trkpt lat="49.28644" lon="-0.11919">
        <ele>105.2</ele>
        <time>2024-04-07T04:53:47Z</time>
      </trkpt>
      <trkpt lat="49.28644" lon="-0.11921">
        <ele>105.2</ele>
        <time>2024-04-07T04:53:48Z</time>
      </trkpt>
      <trkpt lat="49.28644" lon="-0.11922">
        <ele>105.2</ele>
        <time>2024-04-07T04:53:49Z</time>
      </trkpt>
      <trkpt lat="49.28644" lon="-0.11924">
        <ele>105.4</ele>
        <time>2024-04-07T04:53:50Z</time>
      </trkpt>
      <trkpt lat="49.28644" lon="-0.11926">
        <ele>105.4</ele>
        <time>2024-04-07T04:53:51Z</time>
      </trkpt>
      <trkpt lat="49.28643" lon="-0.11927">
        <ele>105.4</ele>
        <time>2024-04-07T04:53:52Z</time>
      </trkpt>
      <trkpt lat="49.28642" lon="-0.11928">
        <ele>105.4</ele>
        <time>2024-04-07T04:53:53Z</time>
      </trkpt>
      <trkpt lat="49.28641" lon="-0.11929">
        <ele>105.6</ele>
        <time>2024-04-07T04:53:54Z</time>
      </trkpt>
      <trkpt lat="49.28641" lon="-0.11928">
        <ele>105.6</ele>
        <time>2024-04-07T04:53:55Z</time>
      </trkpt>
      <trkpt lat="49.28641" lon="-0.11927">
        <ele>105.6</ele>
        <time>2024-04-07T04:53:56Z</time>
      </trkpt>
      <trkpt lat="49.28641" lon="-0.11927">
        <ele>105.6</ele>
        <time>2024-04-07T04:53:57Z</time>
      </trkpt>
      <trkpt lat="49.28642" lon="-0.11926">
        <ele>105.6</ele>
        <time>2024-04-07T04:53:58Z</time>
      </trkpt>
      <trkpt lat="49.28642" lon="-0.11926">
        <ele>105.8</ele>
        <time>2024-04-07T04:53:59Z</time>
      </trkpt>
      <trkpt lat="49.28643" lon="-0.11918">
        <ele>105.6</ele>
        <time>2024-04-07T05:00:04Z</time>
      </trkpt>
      <trkpt lat="49.28645" lon="-0.11916">
        <ele>105.6</ele>
        <time>2024-04-07T05:00:05Z</time>
      </trkpt>
      <trkpt lat="49.28646" lon="-0.11913">
        <ele>105.6</ele>
        <time>2024-04-07T05:00:06Z</time>
      </trkpt>
      <trkpt lat="49.28648" lon="-0.11911">
        <ele>105.6</ele>
        <time>2024-04-07T05:00:07Z</time>
      </trkpt>
      <trkpt lat="49.28651" lon="-0.11911">
        <ele>105.6</ele>
        <time>2024-04-07T05:00:08Z</time>
      </trkpt>
      <trkpt lat="49.28653" lon="-0.11911">
        <ele>105.6</ele>
        <time>2024-04-07T05:00:09Z</time>
      </trkpt>
      <trkpt lat="49.28655" lon="-0.11912">
        <ele>105.6</ele>
        <time>2024-04-07T05:00:10Z</time>
      </trkpt>
      <trkpt lat="49.28657" lon="-0.11914">
        <ele>105.4</ele>
        <time>2024-04-07T05:00:11Z</time>
      </trkpt>
      <trkpt lat="49.28658" lon="-0.11917">
        <ele>105.4</ele>
        <time>2024-04-07T05:00:12Z</time>
      </trkpt>
      <trkpt lat="49.28658" lon="-0.11921">
        <ele>105.4</ele>
        <time>2024-04-07T05:00:13Z</time>
      </trkpt>
      <trkpt lat="49.28658" lon="-0.11925">
        <ele>105.2</ele>
        <time>2024-04-07T05:00:14Z</time>
      </trkpt>
      <trkpt lat="49.28657" lon="-0.1193">
        <ele>105.2</ele>
        <time>2024-04-07T05:00:15Z</time>
      </trkpt>
      <trkpt lat="49.28657" lon="-0.11936">
        <ele>105</ele>
        <time>2024-04-07T05:00:16Z</time>
      </trkpt>
      <trkpt lat="49.28656" lon="-0.11941">
        <ele>104.8</ele>
        <time>2024-04-07T05:00:17Z</time>
      </trkpt>
      <trkpt lat="49.28656" lon="-0.11947">
        <ele>104.6</ele>
        <time>2024-04-07T05:00:18Z</time>
      </trkpt>
      <trkpt lat="49.28655" lon="-0.11954">
        <ele>104.4</ele>
        <time>2024-04-07T05:00:19Z</time>
      </trkpt>
      <trkpt lat="49.28654" lon="-0.11961">
        <ele>104.2</ele>
        <time>2024-04-07T05:00:20Z</time>
      </trkpt>
      <trkpt lat="49.28652" lon="-0.11968">
        <ele>104.2</ele>
        <time>2024-04-07T05:00:21Z</time>
      </trkpt>
      <trkpt lat="49.28651" lon="-0.11974">
        <ele>104</ele>
        <time>2024-04-07T05:00:22Z</time>
      </trkpt>
      <trkpt lat="49.28649" lon="-0.11981">
        <ele>104</ele>
        <time>2024-04-07T05:00:23Z</time>
      </trkpt>
      <trkpt lat="49.28648" lon="-0.11989">
        <ele>104</ele>
        <time>2024-04-07T05:00:24Z</time>
      </trkpt>
      <trkpt lat="49.28646" lon="-0.11996">
        <ele>103.8</ele>
        <time>2024-04-07T05:00:25Z</time>
      </trkpt>
      <trkpt lat="49.28645" lon="-0.12004">
        <ele>104</ele>
        <time>2024-04-07T05:00:26Z</time>
      </trkpt>
      <trkpt lat="49.28644" lon="-0.12012">
        <ele>104</ele>
        <time>2024-04-07T05:00:27Z</time>
      </trkpt>
      <trkpt lat="49.28642" lon="-0.12019">
        <ele>104</ele>
        <time>2024-04-07T05:00:28Z</time>
      </trkpt>
      <trkpt lat="49.2864" lon="-0.12027">
        <ele>104</ele>
        <time>2024-04-07T05:00:29Z</time>
      </trkpt>
      <trkpt lat="49.28639" lon="-0.12035">
        <ele>104.2</ele>
        <time>2024-04-07T05:00:30Z</time>
      </trkpt>
      <trkpt lat="49.28637" lon="-0.12043">
        <ele>104.2</ele>
        <time>2024-04-07T05:00:31Z</time>
      </trkpt>
      <trkpt lat="49.28636" lon="-0.12051">
        <ele>104.2</ele>
        <time>2024-04-07T05:00:32Z</time>
      </trkpt>
      <trkpt lat="49.28634" lon="-0.12059">
        <ele>104.2</ele>
        <time>2024-04-07T05:00:33Z</time>
      </trkpt>
      <trkpt lat="49.28632" lon="-0.12067">
        <ele>104.4</ele>
        <time>2024-04-07T05:00:34Z</time>
      </trkpt>
      <trkpt lat="49.2863" lon="-0.12076">
        <ele>104.4</ele>
        <time>2024-04-07T05:00:35Z</time>
      </trkpt>
      <trkpt lat="49.28629" lon="-0.12084">
        <ele>104.4</ele>
        <time>2024-04-07T05:00:36Z</time>
      </trkpt>
      <trkpt lat="49.28627" lon="-0.12093">
        <ele>104.4</ele>
        <time>2024-04-07T05:00:37Z</time>
      </trkpt>
      <trkpt lat="49.28625" lon="-0.12102">
        <ele>104.4</ele>
        <time>2024-04-07T05:00:38Z</time>
      </trkpt>
      <trkpt lat="49.28624" lon="-0.1211">
        <ele>104.4</ele>
        <time>2024-04-07T05:00:39Z</time>
      </trkpt>
      <trkpt lat="49.28622" lon="-0.12119">
        <ele>104.4</ele>
        <time>2024-04-07T05:00:40Z</time>
      </trkpt>
      <trkpt lat="49.2862" lon="-0.12128">
        <ele>104.2</ele>
        <time>2024-04-07T05:00:41Z</time>
      </trkpt>
      <trkpt lat="49.28619" lon="-0.12136">
        <ele>104</ele>
        <time>2024-04-07T05:00:42Z</time>
      </trkpt>
      <trkpt lat="49.28617" lon="-0.12145">
        <ele>103.8</ele>
        <time>2024-04-07T05:00:43Z</time>
      </trkpt>
      <trkpt lat="49.28615" lon="-0.12153">
        <ele>103.6</ele>
        <time>2024-04-07T05:00:44Z</time>
      </trkpt>
      <trkpt lat="49.28613" lon="-0.12162">
        <ele>103.6</ele>
        <time>2024-04-07T05:00:45Z</time>
      </trkpt>
      <trkpt lat="49.28612" lon="-0.12171">
        <ele>103.4</ele>
        <time>2024-04-07T05:00:46Z</time>
      </trkpt>
      <trkpt lat="49.2861" lon="-0.1218">
        <ele>103.6</ele>
        <time>2024-04-07T05:00:47Z</time>
      </trkpt>
      <trkpt lat="49.28608" lon="-0.12188">
        <ele>103.6</ele>
        <time>2024-04-07T05:00:48Z</time>
      </trkpt>
      <trkpt lat="49.28607" lon="-0.12197">
        <ele>103.6</ele>
        <time>2024-04-07T05:00:49Z</time>
      </trkpt>
      <trkpt lat="49.28605" lon="-0.12205">
        <ele>103.8</ele>
        <time>2024-04-07T05:00:50Z</time>
      </trkpt>
      <trkpt lat="49.28603" lon="-0.12214">
        <ele>103.8</ele>
        <time>2024-04-07T05:00:51Z</time>
      </trkpt>
      <trkpt lat="49.28602" lon="-0.12223">
        <ele>103.8</ele>
        <time>2024-04-07T05:00:52Z</time>
      </trkpt>
      <trkpt lat="49.286" lon="-0.12232">
        <ele>103.8</ele>
        <time>2024-04-07T05:00:53Z</time>
      </trkpt>
      <trkpt lat="49.28598" lon="-0.1224">
        <ele>103.8</ele>
        <time>2024-04-07T05:00:54Z</time>
      </trkpt>
      <trkpt lat="49.28597" lon="-0.12249">
        <ele>103.8</ele>
        <time>2024-04-07T05:00:55Z</time>
      </trkpt>
      <trkpt lat="49.28595" lon="-0.12258">
        <ele>103.6</ele>
        <time>2024-04-07T05:00:56Z</time>
      </trkpt>
      <trkpt lat="49.28593" lon="-0.12267">
        <ele>103.4</ele>
        <time>2024-04-07T05:00:57Z</time>
      </trkpt>
      <trkpt lat="49.28591" lon="-0.12275">
        <ele>103</ele>
        <time>2024-04-07T05:00:58Z</time>
      </trkpt>
      <trkpt lat="49.28589" lon="-0.12284">
        <ele>102.8</ele>
        <time>2024-04-07T05:00:59Z</time>
      </trkpt>
      <trkpt lat="49.28588" lon="-0.12292">
        <ele>102.6</ele>
        <time>2024-04-07T05:01:00Z</time>
      </trkpt>
      <trkpt lat="49.28586" lon="-0.12301">
        <ele>102.6</ele>
        <time>2024-04-07T05:01:01Z</time>
      </trkpt>
      <trkpt lat="49.28585" lon="-0.1231">
        <ele>102.4</ele>
        <time>2024-04-07T05:01:02Z</time>
      </trkpt>
      <trkpt lat="49.28583" lon="-0.12319">
        <ele>102.4</ele>
        <time>2024-04-07T05:01:03Z</time>
      </trkpt>
      <trkpt lat="49.28581" lon="-0.12328">
        <ele>102.4</ele>
        <time>2024-04-07T05:01:04Z</time>
      </trkpt>
      <trkpt lat="49.2858" lon="-0.12337">
        <ele>102.4</ele>
        <time>2024-04-07T05:01:05Z</time>
      </trkpt>
      <trkpt lat="49.28578" lon="-0.12346">
        <ele>102.2</ele>
        <time>2024-04-07T05:01:06Z</time>
      </trkpt>
      <trkpt lat="49.28576" lon="-0.12354">
        <ele>102.2</ele>
        <time>2024-04-07T05:01:07Z</time>
      </trkpt>
      <trkpt lat="49.28575" lon="-0.12363">
        <ele>102.2</ele>
        <time>2024-04-07T05:01:08Z</time>
      </trkpt>
      <trkpt lat="49.28573" lon="-0.12372">
        <ele>102.4</ele>
        <time>2024-04-07T05:01:09Z</time>
      </trkpt>
      <trkpt lat="49.28572" lon="-0.1238">
        <ele>102.4</ele>
        <time>2024-04-07T05:01:10Z</time>
      </trkpt>
      <trkpt lat="49.2857" lon="-0.12389">
        <ele>102.4</ele>
        <time>2024-04-07T05:01:11Z</time>
      </trkpt>
      <trkpt lat="49.28568" lon="-0.12398">
        <ele>102.6</ele>
        <time>2024-04-07T05:01:12Z</time>
      </trkpt>
      <trkpt lat="49.28566" lon="-0.12407">
        <ele>102.8</ele>
        <time>2024-04-07T05:01:13Z</time>
      </trkpt>
      <trkpt lat="49.28564" lon="-0.12415">
        <ele>102.8</ele>
        <time>2024-04-07T05:01:14Z</time>
      </trkpt>
      <trkpt lat="49.28563" lon="-0.12424">
        <ele>103</ele>
        <time>2024-04-07T05:01:15Z</time>
      </trkpt>
      <trkpt lat="49.28561" lon="-0.12433">
        <ele>103</ele>
        <time>2024-04-07T05:01:16Z</time>
      </trkpt>
      <trkpt lat="49.28559" lon="-0.12441">
        <ele>103</ele>
        <time>2024-04-07T05:01:17Z</time>
      </trkpt>
      <trkpt lat="49.28557" lon="-0.1245">
        <ele>103</ele>
        <time>2024-04-07T05:01:18Z</time>
      </trkpt>
      <trkpt lat="49.28555" lon="-0.12459">
        <ele>103</ele>
        <time>2024-04-07T05:01:19Z</time>
      </trkpt>
      <trkpt lat="49.28554" lon="-0.12467">
        <ele>102.8</ele>
        <time>2024-04-07T05:01:20Z</time>
      </trkpt>
      <trkpt lat="49.28552" lon="-0.12476">
        <ele>102.8</ele>
        <time>2024-04-07T05:01:21Z</time>
      </trkpt>
      <trkpt lat="49.2855" lon="-0.12485">
        <ele>102.8</ele>
        <time>2024-04-07T05:01:22Z</time>
      </trkpt>
      <trkpt lat="49.28548" lon="-0.12493">
        <ele>103</ele>
        <time>2024-04-07T05:01:23Z</time>
      </trkpt>
      <trkpt lat="49.28546" lon="-0.12502">
        <ele>103</ele>
        <time>2024-04-07T05:01:24Z</time>
      </trkpt>
      <trkpt lat="49.28545" lon="-0.12511">
        <ele>103</ele>
        <time>2024-04-07T05:01:25Z</time>
      </trkpt>
      <trkpt lat="49.28544" lon="-0.12519">
        <ele>103.2</ele>
        <time>2024-04-07T05:01:26Z</time>
      </trkpt>
      <trkpt lat="49.28544" lon="-0.12528">
        <ele>103.2</ele>
        <time>2024-04-07T05:01:27Z</time>
      </trkpt>
      <trkpt lat="49.28546" lon="-0.12536">
        <ele>103.2</ele>
        <time>2024-04-07T05:01:28Z</time>
      </trkpt>
      <trkpt lat="49.28549" lon="-0.12543">
        <ele>103.4</ele>
        <time>2024-04-07T05:01:29Z</time>
      </trkpt>
      <trkpt lat="49.28553" lon="-0.1255">
        <ele>103.6</ele>
        <time>2024-04-07T05:01:30Z</time>
      </trkpt>
      <trkpt lat="49.28557" lon="-0.12555">
        <ele>104</ele>
        <time>2024-04-07T05:01:31Z</time>
      </trkpt>
      <trkpt lat="49.28563" lon="-0.12559">
        <ele>104.4</ele>
        <time>2024-04-07T05:01:32Z</time>
      </trkpt>
      <trkpt lat="49.28568" lon="-0.12561">
        <ele>104.6</ele>
        <time>2024-04-07T05:01:33Z</time>
      </trkpt>
      <trkpt lat="49.28574" lon="-0.12563">
        <ele>104.6</ele>
        <time>2024-04-07T05:01:34Z</time>
      </trkpt>
      <trkpt lat="49.2858" lon="-0.12564">
        <ele>104.6</ele>
        <time>2024-04-07T05:01:35Z</time>
      </trkpt>
      <trkpt lat="49.28586" lon="-0.12565">
        <ele>104.6</ele>
        <time>2024-04-07T05:01:36Z</time>
      </trkpt>
      <trkpt lat="49.28592" lon="-0.12566">
        <ele>104.6</ele>
        <time>2024-04-07T05:01:37Z</time>
      </trkpt>
      <trkpt lat="49.28599" lon="-0.12568">
        <ele>104.6</ele>
        <time>2024-04-07T05:01:38Z</time>
      </trkpt>
      <trkpt lat="49.28605" lon="-0.1257">
        <ele>104.6</ele>
        <time>2024-04-07T05:01:39Z</time>
      </trkpt>
      <trkpt lat="49.28611" lon="-0.12571">
        <ele>104.6</ele>
        <time>2024-04-07T05:01:40Z</time>
      </trkpt>
      <trkpt lat="49.28617" lon="-0.12573">
        <ele>104.6</ele>
        <time>2024-04-07T05:01:41Z</time>
      </trkpt>
      <trkpt lat="49.28623" lon="-0.12575">
        <ele>104.6</ele>
        <time>2024-04-07T05:01:42Z</time>
      </trkpt>
      <trkpt lat="49.28629" lon="-0.12576">
        <ele>104.6</ele>
        <time>2024-04-07T05:01:43Z</time>
      </trkpt>
      <trkpt lat="49.28635" lon="-0.12578">
        <ele>104.4</ele>
        <time>2024-04-07T05:01:44Z</time>
      </trkpt>
      <trkpt lat="49.28641" lon="-0.12579">
        <ele>104.4</ele>
        <time>2024-04-07T05:01:45Z</time>
      </trkpt>
      <trkpt lat="49.28647" lon="-0.1258">
        <ele>104.4</ele>
        <time>2024-04-07T05:01:46Z</time>
      </trkpt>
      <trkpt lat="49.28653" lon="-0.12581">
        <ele>104.4</ele>
        <time>2024-04-07T05:01:47Z</time>
      </trkpt>
      <trkpt lat="49.28659" lon="-0.12583">
        <ele>104.4</ele>
        <time>2024-04-07T05:01:48Z</time>
      </trkpt>
      <trkpt lat="49.28665" lon="-0.12584">
        <ele>104.4</ele>
        <time>2024-04-07T05:01:49Z</time>
      </trkpt>
      <trkpt lat="49.28671" lon="-0.12586">
        <ele>104.4</ele>
        <time>2024-04-07T05:01:50Z</time>
      </trkpt>
      <trkpt lat="49.28677" lon="-0.12588">
        <ele>104.6</ele>
        <time>2024-04-07T05:01:51Z</time>
      </trkpt>
      <trkpt lat="49.28684" lon="-0.1259">
        <ele>104.6</ele>
        <time>2024-04-07T05:01:52Z</time>
      </trkpt>
      <trkpt lat="49.2869" lon="-0.12592">
        <ele>104.6</ele>
        <time>2024-04-07T05:01:53Z</time>
      </trkpt>
      <trkpt lat="49.28696" lon="-0.12593">
        <ele>104.8</ele>
        <time>2024-04-07T05:01:54Z</time>
      </trkpt>
      <trkpt lat="49.28701" lon="-0.12595">
        <ele>104.8</ele>
        <time>2024-04-07T05:01:55Z</time>
      </trkpt>
      <trkpt lat="49.28706" lon="-0.12596">
        <ele>104.8</ele>
        <time>2024-04-07T05:01:56Z</time>
      </trkpt>
      <trkpt lat="49.2871" lon="-0.12598">
        <ele>104.8</ele>
        <time>2024-04-07T05:01:57Z</time>
      </trkpt>
      <trkpt lat="49.28713" lon="-0.12599">
        <ele>105</ele>
        <time>2024-04-07T05:01:58Z</time>
      </trkpt>
      <trkpt lat="49.28717" lon="-0.12601">
        <ele>105.2</ele>
        <time>2024-04-07T05:01:59Z</time>
      </trkpt>
      <trkpt lat="49.2872" lon="-0.12605">
        <ele>105.4</ele>
        <time>2024-04-07T05:02:00Z</time>
      </trkpt>
      <trkpt lat="49.28722" lon="-0.1261">
        <ele>105.4</ele>
        <time>2024-04-07T05:02:01Z</time>
      </trkpt>
      <trkpt lat="49.28724" lon="-0.12616">
        <ele>105.4</ele>
        <time>2024-04-07T05:02:02Z</time>
      </trkpt>
      <trkpt lat="49.28723" lon="-0.12623">
        <ele>105.4</ele>
        <time>2024-04-07T05:02:03Z</time>
      </trkpt>
      <trkpt lat="49.28722" lon="-0.1263">
        <ele>105.4</ele>
        <time>2024-04-07T05:02:04Z</time>
      </trkpt>
      <trkpt lat="49.2872" lon="-0.12638">
        <ele>105.4</ele>
        <time>2024-04-07T05:02:05Z</time>
      </trkpt>
      <trkpt lat="49.28718" lon="-0.12645">
        <ele>105.4</ele>
        <time>2024-04-07T05:02:06Z</time>
      </trkpt>
      <trkpt lat="49.28717" lon="-0.12653">
        <ele>105.4</ele>
        <time>2024-04-07T05:02:07Z</time>
      </trkpt>
      <trkpt lat="49.28716" lon="-0.12662">
        <ele>105.4</ele>
        <time>2024-04-07T05:02:08Z</time>
      </trkpt>
      <trkpt lat="49.28715" lon="-0.1267">
        <ele>105.4</ele>
        <time>2024-04-07T05:02:09Z</time>
      </trkpt>
      <trkpt lat="49.28714" lon="-0.12678">
        <ele>105.4</ele>
        <time>2024-04-07T05:02:10Z</time>
      </trkpt>
      <trkpt lat="49.28713" lon="-0.12687">
        <ele>105.6</ele>
        <time>2024-04-07T05:02:11Z</time>
      </trkpt>
      <trkpt lat="49.28712" lon="-0.12696">
        <ele>105.6</ele>
        <time>2024-04-07T05:02:12Z</time>
      </trkpt>
      <trkpt lat="49.2871" lon="-0.12705">
        <ele>105.4</ele>
        <time>2024-04-07T05:02:13Z</time>
      </trkpt>
      <trkpt lat="49.28709" lon="-0.12714">
        <ele>105.2</ele>
        <time>2024-04-07T05:02:14Z</time>
      </trkpt>
      <trkpt lat="49.28707" lon="-0.12724">
        <ele>105</ele>
        <time>2024-04-07T05:02:15Z</time>
      </trkpt>
      <trkpt lat="49.28706" lon="-0.12733">
        <ele>104.8</ele>
        <time>2024-04-07T05:02:16Z</time>
      </trkpt>
      <trkpt lat="49.28705" lon="-0.12742">
        <ele>104.6</ele>
        <time>2024-04-07T05:02:17Z</time>
      </trkpt>
      <trkpt lat="49.28704" lon="-0.12751">
        <ele>104.4</ele>
        <time>2024-04-07T05:02:18Z</time>
      </trkpt>
      <trkpt lat="49.28702" lon="-0.1276">
        <ele>104.4</ele>
        <time>2024-04-07T05:02:19Z</time>
      </trkpt>
      <trkpt lat="49.28701" lon="-0.1277">
        <ele>104.4</ele>
        <time>2024-04-07T05:02:20Z</time>
      </trkpt>
      <trkpt lat="49.287" lon="-0.12779">
        <ele>104.4</ele>
        <time>2024-04-07T05:02:21Z</time>
      </trkpt>
      <trkpt lat="49.28699" lon="-0.12789">
        <ele>104.4</ele>
        <time>2024-04-07T05:02:22Z</time>
      </trkpt>
      <trkpt lat="49.28698" lon="-0.12798">
        <ele>104.2</ele>
        <time>2024-04-07T05:02:23Z</time>
      </trkpt>
      <trkpt lat="49.28696" lon="-0.12807">
        <ele>104.2</ele>
        <time>2024-04-07T05:02:24Z</time>
      </trkpt>
      <trkpt lat="49.28695" lon="-0.12817">
        <ele>104</ele>
        <time>2024-04-07T05:02:25Z</time>
      </trkpt>
      <trkpt lat="49.28694" lon="-0.12827">
        <ele>104</ele>
        <time>2024-04-07T05:02:26Z</time>
      </trkpt>
      <trkpt lat="49.28692" lon="-0.12837">
        <ele>104</ele>
        <time>2024-04-07T05:02:27Z</time>
      </trkpt>
      <trkpt lat="49.28691" lon="-0.12847">
        <ele>104</ele>
        <time>2024-04-07T05:02:28Z</time>
      </trkpt>
      <trkpt lat="49.2869" lon="-0.12857">
        <ele>104</ele>
        <time>2024-04-07T05:02:29Z</time>
      </trkpt>
      <trkpt lat="49.28688" lon="-0.12867">
        <ele>104.2</ele>
        <time>2024-04-07T05:02:30Z</time>
      </trkpt>
      <trkpt lat="49.28687" lon="-0.12876">
        <ele>104.2</ele>
        <time>2024-04-07T05:02:31Z</time>
      </trkpt>
      <trkpt lat="49.28685" lon="-0.12886">
        <ele>104.2</ele>
        <time>2024-04-07T05:02:32Z</time>
      </trkpt>
      <trkpt lat="49.28684" lon="-0.12896">
        <ele>104.2</ele>
        <time>2024-04-07T05:02:33Z</time>
      </trkpt>
      <trkpt lat="49.28683" lon="-0.12906">
        <ele>104.2</ele>
        <time>2024-04-07T05:02:34Z</time>
      </trkpt>
      <trkpt lat="49.28681" lon="-0.12916">
        <ele>104.2</ele>
        <time>2024-04-07T05:02:35Z</time>
      </trkpt>
      <trkpt lat="49.2868" lon="-0.12925">
        <ele>104.2</ele>
        <time>2024-04-07T05:02:36Z</time>
      </trkpt>
      <trkpt lat="49.28679" lon="-0.12935">
        <ele>104.2</ele>
        <time>2024-04-07T05:02:37Z</time>
      </trkpt>
      <trkpt lat="49.28677" lon="-0.12945">
        <ele>104</ele>
        <time>2024-04-07T05:02:38Z</time>
      </trkpt>
      <trkpt lat="49.28676" lon="-0.12955">
        <ele>103.8</ele>
        <time>2024-04-07T05:02:39Z</time>
      </trkpt>
      <trkpt lat="49.28675" lon="-0.12964">
        <ele>103.8</ele>
        <time>2024-04-07T05:02:40Z</time>
      </trkpt>
      <trkpt lat="49.28673" lon="-0.12974">
        <ele>103.6</ele>
        <time>2024-04-07T05:02:41Z</time>
      </trkpt>
      <trkpt lat="49.28672" lon="-0.12984">
        <ele>103.4</ele>
        <time>2024-04-07T05:02:42Z</time>
      </trkpt>
      <trkpt lat="49.28671" lon="-0.12993">
        <ele>103.4</ele>
        <time>2024-04-07T05:02:43Z</time>
      </trkpt>
      <trkpt lat="49.28669" lon="-0.13003">
        <ele>103.4</ele>
        <time>2024-04-07T05:02:44Z</time>
      </trkpt>
      <trkpt lat="49.28668" lon="-0.13013">
        <ele>103.4</ele>
        <time>2024-04-07T05:02:45Z</time>
      </trkpt>
      <trkpt lat="49.28667" lon="-0.13022">
        <ele>103.4</ele>
        <time>2024-04-07T05:02:46Z</time>
      </trkpt>
      <trkpt lat="49.28666" lon="-0.13032">
        <ele>103.6</ele>
        <time>2024-04-07T05:02:47Z</time>
      </trkpt>
      <trkpt lat="49.28665" lon="-0.13042">
        <ele>103.6</ele>
        <time>2024-04-07T05:02:48Z</time>
      </trkpt>
      <trkpt lat="49.28663" lon="-0.13052">
        <ele>103.6</ele>
        <time>2024-04-07T05:02:49Z</time>
      </trkpt>
      <trkpt lat="49.28662" lon="-0.13061">
        <ele>103.6</ele>
        <time>2024-04-07T05:02:50Z</time>
      </trkpt>
      <trkpt lat="49.28661" lon="-0.13071">
        <ele>103.4</ele>
        <time>2024-04-07T05:02:51Z</time>
      </trkpt>
      <trkpt lat="49.28659" lon="-0.1308">
        <ele>103.4</ele>
        <time>2024-04-07T05:02:52Z</time>
      </trkpt>
      <trkpt lat="49.28658" lon="-0.1309">
        <ele>103.2</ele>
        <time>2024-04-07T05:02:53Z</time>
      </trkpt>
      <trkpt lat="49.28657" lon="-0.13099">
        <ele>103.2</ele>
        <time>2024-04-07T05:02:54Z</time>
      </trkpt>
      <trkpt lat="49.28656" lon="-0.13109">
        <ele>103.4</ele>
        <time>2024-04-07T05:02:55Z</time>
      </trkpt>
      <trkpt lat="49.28654" lon="-0.13119">
        <ele>103.4</ele>
        <time>2024-04-07T05:02:56Z</time>
      </trkpt>
      <trkpt lat="49.28653" lon="-0.13128">
        <ele>103.6</ele>
        <time>2024-04-07T05:02:57Z</time>
      </trkpt>
      <trkpt lat="49.28652" lon="-0.13138">
        <ele>103.8</ele>
        <time>2024-04-07T05:02:58Z</time>
      </trkpt>
      <trkpt lat="49.2865" lon="-0.13147">
        <ele>103.8</ele>
        <time>2024-04-07T05:02:59Z</time>
      </trkpt>
      <trkpt lat="49.28649" lon="-0.13157">
        <ele>103.8</ele>
        <time>2024-04-07T05:03:00Z</time>
      </trkpt>
      <trkpt lat="49.28648" lon="-0.13166">
        <ele>103.8</ele>
        <time>2024-04-07T05:03:01Z</time>
      </trkpt>
      <trkpt lat="49.28647" lon="-0.13176">
        <ele>103.8</ele>
        <time>2024-04-07T05:03:02Z</time>
      </trkpt>
      <trkpt lat="49.28646" lon="-0.13185">
        <ele>103.8</ele>
        <time>2024-04-07T05:03:03Z</time>
      </trkpt>
      <trkpt lat="49.28645" lon="-0.13195">
        <ele>103.8</ele>
        <time>2024-04-07T05:03:04Z</time>
      </trkpt>
      <trkpt lat="49.28644" lon="-0.13204">
        <ele>103.8</ele>
        <time>2024-04-07T05:03:05Z</time>
      </trkpt>
      <trkpt lat="49.28643" lon="-0.13214">
        <ele>103.6</ele>
        <time>2024-04-07T05:03:06Z</time>
      </trkpt>
      <trkpt lat="49.28641" lon="-0.13223">
        <ele>103.6</ele>
        <time>2024-04-07T05:03:07Z</time>
      </trkpt>
      <trkpt lat="49.2864" lon="-0.13232">
        <ele>103.6</ele>
        <time>2024-04-07T05:03:08Z</time>
      </trkpt>
      <trkpt lat="49.28638" lon="-0.13241">
        <ele>103.6</ele>
        <time>2024-04-07T05:03:09Z</time>
      </trkpt>
      <trkpt lat="49.28637" lon="-0.13251">
        <ele>103.6</ele>
        <time>2024-04-07T05:03:10Z</time>
      </trkpt>
      <trkpt lat="49.28636" lon="-0.1326">
        <ele>103.6</ele>
        <time>2024-04-07T05:03:11Z</time>
      </trkpt>
      <trkpt lat="49.28634" lon="-0.13269">
        <ele>103.6</ele>
        <time>2024-04-07T05:03:12Z</time>
      </trkpt>
      <trkpt lat="49.28633" lon="-0.13278">
        <ele>103.8</ele>
        <time>2024-04-07T05:03:13Z</time>
      </trkpt>
      <trkpt lat="49.28632" lon="-0.13288">
        <ele>103.8</ele>
        <time>2024-04-07T05:03:14Z</time>
      </trkpt>
      <trkpt lat="49.28631" lon="-0.13297">
        <ele>103.8</ele>
        <time>2024-04-07T05:03:15Z</time>
      </trkpt>
      <trkpt lat="49.28629" lon="-0.13307">
        <ele>103.8</ele>
        <time>2024-04-07T05:03:16Z</time>
      </trkpt>
      <trkpt lat="49.28628" lon="-0.13316">
        <ele>103.8</ele>
        <time>2024-04-07T05:03:17Z</time>
      </trkpt>
      <trkpt lat="49.28627" lon="-0.13326">
        <ele>104</ele>
        <time>2024-04-07T05:03:18Z</time>
      </trkpt>
      <trkpt lat="49.28626" lon="-0.13335">
        <ele>103.8</ele>
        <time>2024-04-07T05:03:19Z</time>
      </trkpt>
      <trkpt lat="49.28624" lon="-0.13344">
        <ele>103.8</ele>
        <time>2024-04-07T05:03:20Z</time>
      </trkpt>
      <trkpt lat="49.28623" lon="-0.13354">
        <ele>103.8</ele>
        <time>2024-04-07T05:03:21Z</time>
      </trkpt>
      <trkpt lat="49.28622" lon="-0.13363">
        <ele>104</ele>
        <time>2024-04-07T05:03:22Z</time>
      </trkpt>
      <trkpt lat="49.28621" lon="-0.13372">
        <ele>104</ele>
        <time>2024-04-07T05:03:23Z</time>
      </trkpt>
      <trkpt lat="49.2862" lon="-0.13382">
        <ele>104</ele>
        <time>2024-04-07T05:03:24Z</time>
      </trkpt>
      <trkpt lat="49.28618" lon="-0.13391">
        <ele>104</ele>
        <time>2024-04-07T05:03:25Z</time>
      </trkpt>
      <trkpt lat="49.28617" lon="-0.134">
        <ele>104</ele>
        <time>2024-04-07T05:03:26Z</time>
      </trkpt>
      <trkpt lat="49.28616" lon="-0.1341">
        <ele>104</ele>
        <time>2024-04-07T05:03:27Z</time>
      </trkpt>
      <trkpt lat="49.28615" lon="-0.13419">
        <ele>104.2</ele>
        <time>2024-04-07T05:03:28Z</time>
      </trkpt>
      <trkpt lat="49.28613" lon="-0.13429">
        <ele>104.2</ele>
        <time>2024-04-07T05:03:29Z</time>
      </trkpt>
      <trkpt lat="49.28612" lon="-0.13438">
        <ele>104.2</ele>
        <time>2024-04-07T05:03:30Z</time>
      </trkpt>
      <trkpt lat="49.28611" lon="-0.13448">
        <ele>104.2</ele>
        <time>2024-04-07T05:03:31Z</time>
      </trkpt>
      <trkpt lat="49.28609" lon="-0.13458">
        <ele>104.2</ele>
        <time>2024-04-07T05:03:32Z</time>
      </trkpt>
      <trkpt lat="49.28608" lon="-0.13467">
        <ele>104.2</ele>
        <time>2024-04-07T05:03:33Z</time>
      </trkpt>
      <trkpt lat="49.28607" lon="-0.13477">
        <ele>104.4</ele>
        <time>2024-04-07T05:03:34Z</time>
      </trkpt>
      <trkpt lat="49.28606" lon="-0.13486">
        <ele>104.4</ele>
        <time>2024-04-07T05:03:35Z</time>
      </trkpt>
      <trkpt lat="49.28605" lon="-0.13496">
        <ele>104.4</ele>
        <time>2024-04-07T05:03:36Z</time>
      </trkpt>
      <trkpt lat="49.28604" lon="-0.13506">
        <ele>104.4</ele>
        <time>2024-04-07T05:03:37Z</time>
      </trkpt>
      <trkpt lat="49.28602" lon="-0.13515">
        <ele>104.4</ele>
        <time>2024-04-07T05:03:38Z</time>
      </trkpt>
      <trkpt lat="49.28601" lon="-0.13525">
        <ele>104.6</ele>
        <time>2024-04-07T05:03:39Z</time>
      </trkpt>
      <trkpt lat="49.286" lon="-0.13534">
        <ele>104.6</ele>
        <time>2024-04-07T05:03:40Z</time>
      </trkpt>
      <trkpt lat="49.28599" lon="-0.13544">
        <ele>104.4</ele>
        <time>2024-04-07T05:03:41Z</time>
      </trkpt>
      <trkpt lat="49.28597" lon="-0.13553">
        <ele>104.4</ele>
        <time>2024-04-07T05:03:42Z</time>
      </trkpt>
      <trkpt lat="49.28596" lon="-0.13562">
        <ele>104.2</ele>
        <time>2024-04-07T05:03:43Z</time>
      </trkpt>
      <trkpt lat="49.28595" lon="-0.13572">
        <ele>104.2</ele>
        <time>2024-04-07T05:03:44Z</time>
      </trkpt>
      <trkpt lat="49.28593" lon="-0.13581">
        <ele>104.2</ele>
        <time>2024-04-07T05:03:45Z</time>
      </trkpt>
      <trkpt lat="49.28592" lon="-0.13591">
        <ele>104.2</ele>
        <time>2024-04-07T05:03:46Z</time>
      </trkpt>
      <trkpt lat="49.28591" lon="-0.136">
        <ele>104</ele>
        <time>2024-04-07T05:03:47Z</time>
      </trkpt>
      <trkpt lat="49.2859" lon="-0.1361">
        <ele>104.2</ele>
        <time>2024-04-07T05:03:48Z</time>
      </trkpt>
      <trkpt lat="49.28588" lon="-0.13619">
        <ele>104.2</ele>
        <time>2024-04-07T05:03:49Z</time>
      </trkpt>
      <trkpt lat="49.28587" lon="-0.13629">
        <ele>104.2</ele>
        <time>2024-04-07T05:03:50Z</time>
      </trkpt>
      <trkpt lat="49.28586" lon="-0.13638">
        <ele>104.4</ele>
        <time>2024-04-07T05:03:51Z</time>
      </trkpt>
      <trkpt lat="49.28585" lon="-0.13648">
        <ele>104.4</ele>
        <time>2024-04-07T05:03:52Z</time>
      </trkpt>
      <trkpt lat="49.28584" lon="-0.13658">
        <ele>104.2</ele>
        <time>2024-04-07T05:03:53Z</time>
      </trkpt>
      <trkpt lat="49.28582" lon="-0.13667">
        <ele>104.2</ele>
        <time>2024-04-07T05:03:54Z</time>
      </trkpt>
      <trkpt lat="49.28581" lon="-0.13677">
        <ele>104</ele>
        <time>2024-04-07T05:03:55Z</time>
      </trkpt>
      <trkpt lat="49.2858" lon="-0.13686">
        <ele>104</ele>
        <time>2024-04-07T05:03:56Z</time>
      </trkpt>
      <trkpt lat="49.28579" lon="-0.13696">
        <ele>104</ele>
        <time>2024-04-07T05:03:57Z</time>
      </trkpt>
      <trkpt lat="49.28577" lon="-0.13705">
        <ele>103.8</ele>
        <time>2024-04-07T05:03:58Z</time>
      </trkpt>
      <trkpt lat="49.28576" lon="-0.13715">
        <ele>104</ele>
        <time>2024-04-07T05:03:59Z</time>
      </trkpt>
      <trkpt lat="49.28575" lon="-0.13724">
        <ele>104</ele>
        <time>2024-04-07T05:04:00Z</time>
      </trkpt>
      <trkpt lat="49.28574" lon="-0.13734">
        <ele>104</ele>
        <time>2024-04-07T05:04:01Z</time>
      </trkpt>
      <trkpt lat="49.28573" lon="-0.13743">
        <ele>104</ele>
        <time>2024-04-07T05:04:02Z</time>
      </trkpt>
      <trkpt lat="49.28571" lon="-0.13753">
        <ele>104</ele>
        <time>2024-04-07T05:04:03Z</time>
      </trkpt>
      <trkpt lat="49.2857" lon="-0.13762">
        <ele>104</ele>
        <time>2024-04-07T05:04:04Z</time>
      </trkpt>
      <trkpt lat="49.28569" lon="-0.13772">
        <ele>104</ele>
        <time>2024-04-07T05:04:05Z</time>
      </trkpt>
      <trkpt lat="49.28567" lon="-0.13781">
        <ele>104</ele>
        <time>2024-04-07T05:04:06Z</time>
      </trkpt>
      <trkpt lat="49.28566" lon="-0.13791">
        <ele>104</ele>
        <time>2024-04-07T05:04:07Z</time>
      </trkpt>
      <trkpt lat="49.28565" lon="-0.138">
        <ele>104.2</ele>
        <time>2024-04-07T05:04:08Z</time>
      </trkpt>
      <trkpt lat="49.28564" lon="-0.1381">
        <ele>104.2</ele>
        <time>2024-04-07T05:04:09Z</time>
      </trkpt>
      <trkpt lat="49.28562" lon="-0.13819">
        <ele>104.2</ele>
        <time>2024-04-07T05:04:10Z</time>
      </trkpt>
      <trkpt lat="49.28561" lon="-0.13829">
        <ele>104</ele>
        <time>2024-04-07T05:04:11Z</time>
      </trkpt>
      <trkpt lat="49.2856" lon="-0.13838">
        <ele>104</ele>
        <time>2024-04-07T05:04:12Z</time>
      </trkpt>
      <trkpt lat="49.28559" lon="-0.13847">
        <ele>104</ele>
        <time>2024-04-07T05:04:13Z</time>
      </trkpt>
      <trkpt lat="49.28558" lon="-0.13857">
        <ele>103.8</ele>
        <time>2024-04-07T05:04:14Z</time>
      </trkpt>
      <trkpt lat="49.28555" lon="-0.13876">
        <ele>103.8</ele>
        <time>2024-04-07T05:04:15Z</time>
      </trkpt>
      <trkpt lat="49.28555" lon="-0.13881">
        <ele>103.8</ele>
        <time>2024-04-07T05:04:16Z</time>
      </trkpt>
      <trkpt lat="49.28554" lon="-0.13886">
        <ele>103.8</ele>
        <time>2024-04-07T05:04:17Z</time>
      </trkpt>
      <trkpt lat="49.28553" lon="-0.13895">
        <ele>103.8</ele>
        <time>2024-04-07T05:04:18Z</time>
      </trkpt>
      <trkpt lat="49.28552" lon="-0.13904">
        <ele>103.8</ele>
        <time>2024-04-07T05:04:19Z</time>
      </trkpt>
      <trkpt lat="49.28551" lon="-0.13914">
        <ele>103.8</ele>
        <time>2024-04-07T05:04:20Z</time>
      </trkpt>
      <trkpt lat="49.28549" lon="-0.13923">
        <ele>103.8</ele>
        <time>2024-04-07T05:04:21Z</time>
      </trkpt>
      <trkpt lat="49.28548" lon="-0.13932">
        <ele>103.8</ele>
        <time>2024-04-07T05:04:22Z</time>
      </trkpt>
      <trkpt lat="49.28548" lon="-0.1394">
        <ele>103.8</ele>
        <time>2024-04-07T05:04:23Z</time>
      </trkpt>
      <trkpt lat="49.28547" lon="-0.13949">
        <ele>103.8</ele>
        <time>2024-04-07T05:04:24Z</time>
      </trkpt>
      <trkpt lat="49.28547" lon="-0.13958">
        <ele>104</ele>
        <time>2024-04-07T05:04:25Z</time>
      </trkpt>
      <trkpt lat="49.28546" lon="-0.13967">
        <ele>104</ele>
        <time>2024-04-07T05:04:26Z</time>
      </trkpt>
      <trkpt lat="49.28546" lon="-0.13976">
        <ele>104</ele>
        <time>2024-04-07T05:04:27Z</time>
      </trkpt>
      <trkpt lat="49.28546" lon="-0.13986">
        <ele>103.8</ele>
        <time>2024-04-07T05:04:28Z</time>
      </trkpt>
      <trkpt lat="49.28546" lon="-0.13995">
        <ele>103.8</ele>
        <time>2024-04-07T05:04:29Z</time>
      </trkpt>
      <trkpt lat="49.28546" lon="-0.14004">
        <ele>103.8</ele>
        <time>2024-04-07T05:04:30Z</time>
      </trkpt>
      <trkpt lat="49.28546" lon="-0.14014">
        <ele>103.8</ele>
        <time>2024-04-07T05:04:31Z</time>
      </trkpt>
      <trkpt lat="49.28546" lon="-0.14023">
        <ele>103.8</ele>
        <time>2024-04-07T05:04:32Z</time>
      </trkpt>
      <trkpt lat="49.28546" lon="-0.14032">
        <ele>103.6</ele>
        <time>2024-04-07T05:04:33Z</time>
      </trkpt>
      <trkpt lat="49.28546" lon="-0.14041">
        <ele>103.8</ele>
        <time>2024-04-07T05:04:34Z</time>
      </trkpt>
      <trkpt lat="49.28546" lon="-0.14051">
        <ele>103.8</ele>
        <time>2024-04-07T05:04:35Z</time>
      </trkpt>
      <trkpt lat="49.28545" lon="-0.1406">
        <ele>103.8</ele>
        <time>2024-04-07T05:04:36Z</time>
      </trkpt>
      <trkpt lat="49.28544" lon="-0.14069">
        <ele>103.8</ele>
        <time>2024-04-07T05:04:37Z</time>
      </trkpt>
      <trkpt lat="49.28543" lon="-0.14078">
        <ele>104</ele>
        <time>2024-04-07T05:04:38Z</time>
      </trkpt>
      <trkpt lat="49.28543" lon="-0.14088">
        <ele>104</ele>
        <time>2024-04-07T05:04:39Z</time>
      </trkpt>
      <trkpt lat="49.28542" lon="-0.14097">
        <ele>104</ele>
        <time>2024-04-07T05:04:40Z</time>
      </trkpt>
      <trkpt lat="49.28541" lon="-0.14107">
        <ele>104.2</ele>
        <time>2024-04-07T05:04:41Z</time>
      </trkpt>
      <trkpt lat="49.2854" lon="-0.14116">
        <ele>104.2</ele>
        <time>2024-04-07T05:04:42Z</time>
      </trkpt>
      <trkpt lat="49.2854" lon="-0.14125">
        <ele>104.2</ele>
        <time>2024-04-07T05:04:43Z</time>
      </trkpt>
      <trkpt lat="49.28539" lon="-0.14133">
        <ele>104.2</ele>
        <time>2024-04-07T05:04:44Z</time>
      </trkpt>
      <trkpt lat="49.28538" lon="-0.14143">
        <ele>104.2</ele>
        <time>2024-04-07T05:04:45Z</time>
      </trkpt>
      <trkpt lat="49.28536" lon="-0.14153">
        <ele>104</ele>
        <time>2024-04-07T05:04:46Z</time>
      </trkpt>
      <trkpt lat="49.28535" lon="-0.14162">
        <ele>104.2</ele>
        <time>2024-04-07T05:04:47Z</time>
      </trkpt>
      <trkpt lat="49.28534" lon="-0.14172">
        <ele>104.2</ele>
        <time>2024-04-07T05:04:48Z</time>
      </trkpt>
      <trkpt lat="49.28532" lon="-0.14182">
        <ele>104.2</ele>
        <time>2024-04-07T05:04:49Z</time>
      </trkpt>
      <trkpt lat="49.28531" lon="-0.14192">
        <ele>104.2</ele>
        <time>2024-04-07T05:04:50Z</time>
      </trkpt>
      <trkpt lat="49.28529" lon="-0.14202">
        <ele>104.2</ele>
        <time>2024-04-07T05:04:51Z</time>
      </trkpt>
      <trkpt lat="49.28528" lon="-0.14212">
        <ele>104.2</ele>
        <time>2024-04-07T05:04:52Z</time>
      </trkpt>
      <trkpt lat="49.28526" lon="-0.14222">
        <ele>104.2</ele>
        <time>2024-04-07T05:04:53Z</time>
      </trkpt>
      <trkpt lat="49.28525" lon="-0.14232">
        <ele>104.4</ele>
        <time>2024-04-07T05:04:54Z</time>
      </trkpt>
      <trkpt lat="49.28524" lon="-0.14241">
        <ele>104.4</ele>
        <time>2024-04-07T05:04:55Z</time>
      </trkpt>
      <trkpt lat="49.28523" lon="-0.14251">
        <ele>104.4</ele>
        <time>2024-04-07T05:04:56Z</time>
      </trkpt>
      <trkpt lat="49.28522" lon="-0.14261">
        <ele>104.2</ele>
        <time>2024-04-07T05:04:57Z</time>
      </trkpt>
      <trkpt lat="49.2852" lon="-0.1427">
        <ele>104.2</ele>
        <time>2024-04-07T05:04:58Z</time>
      </trkpt>
      <trkpt lat="49.28519" lon="-0.1428">
        <ele>104.2</ele>
        <time>2024-04-07T05:04:59Z</time>
      </trkpt>
      <trkpt lat="49.28518" lon="-0.14289">
        <ele>104.2</ele>
        <time>2024-04-07T05:05:00Z</time>
      </trkpt>
      <trkpt lat="49.28517" lon="-0.14299">
        <ele>104</ele>
        <time>2024-04-07T05:05:01Z</time>
      </trkpt>
      <trkpt lat="49.28515" lon="-0.14309">
        <ele>104</ele>
        <time>2024-04-07T05:05:02Z</time>
      </trkpt>
      <trkpt lat="49.28514" lon="-0.14318">
        <ele>104</ele>
        <time>2024-04-07T05:05:03Z</time>
      </trkpt>
      <trkpt lat="49.28512" lon="-0.14328">
        <ele>104</ele>
        <time>2024-04-07T05:05:04Z</time>
      </trkpt>
      <trkpt lat="49.28511" lon="-0.14338">
        <ele>104</ele>
        <time>2024-04-07T05:05:05Z</time>
      </trkpt>
      <trkpt lat="49.2851" lon="-0.14348">
        <ele>104</ele>
        <time>2024-04-07T05:05:06Z</time>
      </trkpt>
      <trkpt lat="49.28508" lon="-0.14357">
        <ele>104</ele>
        <time>2024-04-07T05:05:07Z</time>
      </trkpt>
      <trkpt lat="49.28507" lon="-0.14367">
        <ele>104</ele>
        <time>2024-04-07T05:05:08Z</time>
      </trkpt>
      <trkpt lat="49.28505" lon="-0.14377">
        <ele>103.8</ele>
        <time>2024-04-07T05:05:09Z</time>
      </trkpt>
      <trkpt lat="49.28503" lon="-0.14386">
        <ele>103.8</ele>
        <time>2024-04-07T05:05:10Z</time>
      </trkpt>
      <trkpt lat="49.28501" lon="-0.14396">
        <ele>103.6</ele>
        <time>2024-04-07T05:05:11Z</time>
      </trkpt>
      <trkpt lat="49.28499" lon="-0.14405">
        <ele>103.6</ele>
        <time>2024-04-07T05:05:12Z</time>
      </trkpt>
      <trkpt lat="49.28497" lon="-0.14414">
        <ele>103.6</ele>
        <time>2024-04-07T05:05:13Z</time>
      </trkpt>
      <trkpt lat="49.28495" lon="-0.14423">
        <ele>103.6</ele>
        <time>2024-04-07T05:05:14Z</time>
      </trkpt>
      <trkpt lat="49.28493" lon="-0.14433">
        <ele>103.6</ele>
        <time>2024-04-07T05:05:15Z</time>
      </trkpt>
      <trkpt lat="49.28491" lon="-0.14442">
        <ele>103.6</ele>
        <time>2024-04-07T05:05:16Z</time>
      </trkpt>
      <trkpt lat="49.28489" lon="-0.14451">
        <ele>103.6</ele>
        <time>2024-04-07T05:05:17Z</time>
      </trkpt>
      <trkpt lat="49.28487" lon="-0.1446">
        <ele>103.6</ele>
        <time>2024-04-07T05:05:18Z</time>
      </trkpt>
      <trkpt lat="49.28484" lon="-0.14469">
        <ele>103.6</ele>
        <time>2024-04-07T05:05:19Z</time>
      </trkpt>
      <trkpt lat="49.28482" lon="-0.14478">
        <ele>103.4</ele>
        <time>2024-04-07T05:05:20Z</time>
      </trkpt>
      <trkpt lat="49.2848" lon="-0.14488">
        <ele>103.4</ele>
        <time>2024-04-07T05:05:21Z</time>
      </trkpt>
      <trkpt lat="49.28478" lon="-0.14497">
        <ele>103.4</ele>
        <time>2024-04-07T05:05:22Z</time>
      </trkpt>
      <trkpt lat="49.28476" lon="-0.14507">
        <ele>103.4</ele>
        <time>2024-04-07T05:05:23Z</time>
      </trkpt>
      <trkpt lat="49.28474" lon="-0.14517">
        <ele>103.4</ele>
        <time>2024-04-07T05:05:24Z</time>
      </trkpt>
      <trkpt lat="49.28472" lon="-0.14526">
        <ele>103.4</ele>
        <time>2024-04-07T05:05:25Z</time>
      </trkpt>
      <trkpt lat="49.28471" lon="-0.14536">
        <ele>103.2</ele>
        <time>2024-04-07T05:05:26Z</time>
      </trkpt>
      <trkpt lat="49.28469" lon="-0.14546">
        <ele>103.2</ele>
        <time>2024-04-07T05:05:27Z</time>
      </trkpt>
      <trkpt lat="49.28468" lon="-0.14556">
        <ele>103.2</ele>
        <time>2024-04-07T05:05:28Z</time>
      </trkpt>
      <trkpt lat="49.28467" lon="-0.14566">
        <ele>103</ele>
        <time>2024-04-07T05:05:29Z</time>
      </trkpt>
      <trkpt lat="49.28466" lon="-0.14576">
        <ele>103</ele>
        <time>2024-04-07T05:05:30Z</time>
      </trkpt>
      <trkpt lat="49.28465" lon="-0.14586">
        <ele>103</ele>
        <time>2024-04-07T05:05:31Z</time>
      </trkpt>
      <trkpt lat="49.28464" lon="-0.14596">
        <ele>103.2</ele>
        <time>2024-04-07T05:05:32Z</time>
      </trkpt>
      <trkpt lat="49.28464" lon="-0.14606">
        <ele>103.4</ele>
        <time>2024-04-07T05:05:33Z</time>
      </trkpt>
      <trkpt lat="49.28463" lon="-0.14616">
        <ele>103.4</ele>
        <time>2024-04-07T05:05:34Z</time>
      </trkpt>
      <trkpt lat="49.28463" lon="-0.14626">
        <ele>103.6</ele>
        <time>2024-04-07T05:05:35Z</time>
      </trkpt>
      <trkpt lat="49.28462" lon="-0.14636">
        <ele>103.6</ele>
        <time>2024-04-07T05:05:36Z</time>
      </trkpt>
      <trkpt lat="49.28461" lon="-0.14646">
        <ele>103.8</ele>
        <time>2024-04-07T05:05:37Z</time>
      </trkpt>
      <trkpt lat="49.28461" lon="-0.14656">
        <ele>103.6</ele>
        <time>2024-04-07T05:05:38Z</time>
      </trkpt>
      <trkpt lat="49.2846" lon="-0.14666">
        <ele>103.6</ele>
        <time>2024-04-07T05:05:39Z</time>
      </trkpt>
      <trkpt lat="49.2846" lon="-0.14676">
        <ele>103.6</ele>
        <time>2024-04-07T05:05:40Z</time>
      </trkpt>
      <trkpt lat="49.28459" lon="-0.14686">
        <ele>103.6</ele>
        <time>2024-04-07T05:05:41Z</time>
      </trkpt>
      <trkpt lat="49.28459" lon="-0.14696">
        <ele>103.4</ele>
        <time>2024-04-07T05:05:42Z</time>
      </trkpt>
      <trkpt lat="49.28458" lon="-0.14705">
        <ele>103.4</ele>
        <time>2024-04-07T05:05:43Z</time>
      </trkpt>
      <trkpt lat="49.28457" lon="-0.14715">
        <ele>103.6</ele>
        <time>2024-04-07T05:05:44Z</time>
      </trkpt>
      <trkpt lat="49.28457" lon="-0.14723">
        <ele>103.6</ele>
        <time>2024-04-07T05:05:45Z</time>
      </trkpt>
      <trkpt lat="49.28456" lon="-0.14732">
        <ele>103.8</ele>
        <time>2024-04-07T05:05:46Z</time>
      </trkpt>
      <trkpt lat="49.28456" lon="-0.14741">
        <ele>103.8</ele>
        <time>2024-04-07T05:05:47Z</time>
      </trkpt>
      <trkpt lat="49.28455" lon="-0.14751">
        <ele>103.8</ele>
        <time>2024-04-07T05:05:48Z</time>
      </trkpt>
      <trkpt lat="49.28454" lon="-0.14761">
        <ele>104</ele>
        <time>2024-04-07T05:05:49Z</time>
      </trkpt>
      <trkpt lat="49.28454" lon="-0.14771">
        <ele>103.8</ele>
        <time>2024-04-07T05:05:50Z</time>
      </trkpt>
      <trkpt lat="49.28453" lon="-0.1478">
        <ele>103.8</ele>
        <time>2024-04-07T05:05:51Z</time>
      </trkpt>
      <trkpt lat="49.28453" lon="-0.1479">
        <ele>103.8</ele>
        <time>2024-04-07T05:05:52Z</time>
      </trkpt>
      <trkpt lat="49.28452" lon="-0.14799">
        <ele>103.8</ele>
        <time>2024-04-07T05:05:53Z</time>
      </trkpt>
      <trkpt lat="49.28452" lon="-0.14809">
        <ele>103.8</ele>
        <time>2024-04-07T05:05:54Z</time>
      </trkpt>
      <trkpt lat="49.28451" lon="-0.14818">
        <ele>103.8</ele>
        <time>2024-04-07T05:05:55Z</time>
      </trkpt>
      <trkpt lat="49.28451" lon="-0.14828">
        <ele>103.8</ele>
        <time>2024-04-07T05:05:56Z</time>
      </trkpt>
      <trkpt lat="49.2845" lon="-0.14837">
        <ele>103.6</ele>
        <time>2024-04-07T05:05:57Z</time>
      </trkpt>
      <trkpt lat="49.2845" lon="-0.14846">
        <ele>103.6</ele>
        <time>2024-04-07T05:05:58Z</time>
      </trkpt>
      <trkpt lat="49.28449" lon="-0.14856">
        <ele>103.6</ele>
        <time>2024-04-07T05:05:59Z</time>
      </trkpt>
      <trkpt lat="49.28448" lon="-0.14866">
        <ele>103.6</ele>
        <time>2024-04-07T05:06:00Z</time>
      </trkpt>
      <trkpt lat="49.28448" lon="-0.14875">
        <ele>103.8</ele>
        <time>2024-04-07T05:06:01Z</time>
      </trkpt>
      <trkpt lat="49.28447" lon="-0.14884">
        <ele>103.8</ele>
        <time>2024-04-07T05:06:02Z</time>
      </trkpt>
      <trkpt lat="49.28446" lon="-0.14894">
        <ele>103.8</ele>
        <time>2024-04-07T05:06:03Z</time>
      </trkpt>
      <trkpt lat="49.28445" lon="-0.14903">
        <ele>103.8</ele>
        <time>2024-04-07T05:06:04Z</time>
      </trkpt>
      <trkpt lat="49.28445" lon="-0.14913">
        <ele>103.8</ele>
        <time>2024-04-07T05:06:05Z</time>
      </trkpt>
      <trkpt lat="49.28444" lon="-0.14922">
        <ele>103.8</ele>
        <time>2024-04-07T05:06:06Z</time>
      </trkpt>
      <trkpt lat="49.28443" lon="-0.14932">
        <ele>103.8</ele>
        <time>2024-04-07T05:06:07Z</time>
      </trkpt>
      <trkpt lat="49.28443" lon="-0.14942">
        <ele>103.8</ele>
        <time>2024-04-07T05:06:08Z</time>
      </trkpt>
      <trkpt lat="49.28442" lon="-0.14952">
        <ele>103.8</ele>
        <time>2024-04-07T05:06:09Z</time>
      </trkpt>
      <trkpt lat="49.28442" lon="-0.14962">
        <ele>103.8</ele>
        <time>2024-04-07T05:06:10Z</time>
      </trkpt>
      <trkpt lat="49.28441" lon="-0.14972">
        <ele>103.8</ele>
        <time>2024-04-07T05:06:11Z</time>
      </trkpt>
      <trkpt lat="49.28441" lon="-0.14981">
        <ele>103.8</ele>
        <time>2024-04-07T05:06:12Z</time>
      </trkpt>
      <trkpt lat="49.2844" lon="-0.14991">
        <ele>103.8</ele>
        <time>2024-04-07T05:06:13Z</time>
      </trkpt>
      <trkpt lat="49.2844" lon="-0.15001">
        <ele>103.8</ele>
        <time>2024-04-07T05:06:14Z</time>
      </trkpt>
      <trkpt lat="49.28439" lon="-0.15011">
        <ele>103.6</ele>
        <time>2024-04-07T05:06:15Z</time>
      </trkpt>
      <trkpt lat="49.28438" lon="-0.15021">
        <ele>103.6</ele>
        <time>2024-04-07T05:06:16Z</time>
      </trkpt>
      <trkpt lat="49.28437" lon="-0.15031">
        <ele>103.6</ele>
        <time>2024-04-07T05:06:17Z</time>
      </trkpt>
      <trkpt lat="49.28437" lon="-0.15041">
        <ele>103.6</ele>
        <time>2024-04-07T05:06:18Z</time>
      </trkpt>
      <trkpt lat="49.28436" lon="-0.1505">
        <ele>103.6</ele>
        <time>2024-04-07T05:06:19Z</time>
      </trkpt>
      <trkpt lat="49.28436" lon="-0.1506">
        <ele>103.6</ele>
        <time>2024-04-07T05:06:20Z</time>
      </trkpt>
      <trkpt lat="49.28435" lon="-0.1507">
        <ele>103.6</ele>
        <time>2024-04-07T05:06:21Z</time>
      </trkpt>
      <trkpt lat="49.28434" lon="-0.1508">
        <ele>103.6</ele>
        <time>2024-04-07T05:06:22Z</time>
      </trkpt>
      <trkpt lat="49.28434" lon="-0.1509">
        <ele>103.6</ele>
        <time>2024-04-07T05:06:23Z</time>
      </trkpt>
      <trkpt lat="49.28434" lon="-0.151">
        <ele>103.6</ele>
        <time>2024-04-07T05:06:24Z</time>
      </trkpt>
      <trkpt lat="49.28433" lon="-0.1511">
        <ele>103.6</ele>
        <time>2024-04-07T05:06:25Z</time>
      </trkpt>
      <trkpt lat="49.28433" lon="-0.15119">
        <ele>103.6</ele>
        <time>2024-04-07T05:06:26Z</time>
      </trkpt>
      <trkpt lat="49.28432" lon="-0.15129">
        <ele>103.6</ele>
        <time>2024-04-07T05:06:27Z</time>
      </trkpt>
      <trkpt lat="49.28432" lon="-0.15139">
        <ele>103.6</ele>
        <time>2024-04-07T05:06:28Z</time>
      </trkpt>
      <trkpt lat="49.28432" lon="-0.15149">
        <ele>103.6</ele>
        <time>2024-04-07T05:06:29Z</time>
      </trkpt>
      <trkpt lat="49.28432" lon="-0.15159">
        <ele>103.8</ele>
        <time>2024-04-07T05:06:30Z</time>
      </trkpt>
      <trkpt lat="49.28432" lon="-0.15169">
        <ele>103.8</ele>
        <time>2024-04-07T05:06:31Z</time>
      </trkpt>
      <trkpt lat="49.28431" lon="-0.15178">
        <ele>104</ele>
        <time>2024-04-07T05:06:32Z</time>
      </trkpt>
      <trkpt lat="49.28431" lon="-0.15188">
        <ele>103.8</ele>
        <time>2024-04-07T05:06:33Z</time>
      </trkpt>
      <trkpt lat="49.28432" lon="-0.15197">
        <ele>104</ele>
        <time>2024-04-07T05:06:34Z</time>
      </trkpt>
      <trkpt lat="49.28432" lon="-0.15207">
        <ele>104</ele>
        <time>2024-04-07T05:06:35Z</time>
      </trkpt>
      <trkpt lat="49.28433" lon="-0.15217">
        <ele>104</ele>
        <time>2024-04-07T05:06:36Z</time>
      </trkpt>
      <trkpt lat="49.28433" lon="-0.15227">
        <ele>104</ele>
        <time>2024-04-07T05:06:37Z</time>
      </trkpt>
      <trkpt lat="49.28434" lon="-0.15236">
        <ele>103.8</ele>
        <time>2024-04-07T05:06:38Z</time>
      </trkpt>
      <trkpt lat="49.28435" lon="-0.15246">
        <ele>103.8</ele>
        <time>2024-04-07T05:06:39Z</time>
      </trkpt>
      <trkpt lat="49.28435" lon="-0.15257">
        <ele>103.8</ele>
        <time>2024-04-07T05:06:40Z</time>
      </trkpt>
      <trkpt lat="49.28436" lon="-0.15267">
        <ele>103.8</ele>
        <time>2024-04-07T05:06:41Z</time>
      </trkpt>
      <trkpt lat="49.28437" lon="-0.15277">
        <ele>103.8</ele>
        <time>2024-04-07T05:06:42Z</time>
      </trkpt>
      <trkpt lat="49.28437" lon="-0.15287">
        <ele>103.6</ele>
        <time>2024-04-07T05:06:43Z</time>
      </trkpt>
      <trkpt lat="49.28438" lon="-0.15297">
        <ele>103.6</ele>
        <time>2024-04-07T05:06:44Z</time>
      </trkpt>
      <trkpt lat="49.28439" lon="-0.15307">
        <ele>103.6</ele>
        <time>2024-04-07T05:06:45Z</time>
      </trkpt>
      <trkpt lat="49.28439" lon="-0.15317">
        <ele>103.6</ele>
        <time>2024-04-07T05:06:46Z</time>
      </trkpt>
      <trkpt lat="49.2844" lon="-0.15327">
        <ele>103.6</ele>
        <time>2024-04-07T05:06:47Z</time>
      </trkpt>
      <trkpt lat="49.28439" lon="-0.15338">
        <ele>103.6</ele>
        <time>2024-04-07T05:06:48Z</time>
      </trkpt>
      <trkpt lat="49.2844" lon="-0.15349">
        <ele>103.4</ele>
        <time>2024-04-07T05:06:49Z</time>
      </trkpt>
      <trkpt lat="49.2844" lon="-0.1536">
        <ele>103.4</ele>
        <time>2024-04-07T05:06:50Z</time>
      </trkpt>
      <trkpt lat="49.28441" lon="-0.15371">
        <ele>103.4</ele>
        <time>2024-04-07T05:06:51Z</time>
      </trkpt>
      <trkpt lat="49.28441" lon="-0.15381">
        <ele>103.4</ele>
        <time>2024-04-07T05:06:52Z</time>
      </trkpt>
      <trkpt lat="49.28441" lon="-0.15392">
        <ele>103.2</ele>
        <time>2024-04-07T05:06:53Z</time>
      </trkpt>
      <trkpt lat="49.28441" lon="-0.15402">
        <ele>103.2</ele>
        <time>2024-04-07T05:06:54Z</time>
      </trkpt>
      <trkpt lat="49.28442" lon="-0.15412">
        <ele>103.4</ele>
        <time>2024-04-07T05:06:55Z</time>
      </trkpt>
      <trkpt lat="49.28442" lon="-0.15422">
        <ele>103.4</ele>
        <time>2024-04-07T05:06:56Z</time>
      </trkpt>
      <trkpt lat="49.28443" lon="-0.15432">
        <ele>103.6</ele>
        <time>2024-04-07T05:06:57Z</time>
      </trkpt>
      <trkpt lat="49.28443" lon="-0.15442">
        <ele>103.8</ele>
        <time>2024-04-07T05:06:58Z</time>
      </trkpt>
      <trkpt lat="49.28443" lon="-0.15452">
        <ele>103.8</ele>
        <time>2024-04-07T05:06:59Z</time>
      </trkpt>
      <trkpt lat="49.28444" lon="-0.15461">
        <ele>104</ele>
        <time>2024-04-07T05:07:00Z</time>
      </trkpt>
      <trkpt lat="49.28444" lon="-0.15469">
        <ele>104</ele>
        <time>2024-04-07T05:07:01Z</time>
      </trkpt>
      <trkpt lat="49.28444" lon="-0.15478">
        <ele>104</ele>
        <time>2024-04-07T05:07:02Z</time>
      </trkpt>
      <trkpt lat="49.28444" lon="-0.15487">
        <ele>104</ele>
        <time>2024-04-07T05:07:03Z</time>
      </trkpt>
      <trkpt lat="49.28444" lon="-0.15496">
        <ele>104</ele>
        <time>2024-04-07T05:07:04Z</time>
      </trkpt>
      <trkpt lat="49.28445" lon="-0.15505">
        <ele>104</ele>
        <time>2024-04-07T05:07:05Z</time>
      </trkpt>
      <trkpt lat="49.28445" lon="-0.15514">
        <ele>104</ele>
        <time>2024-04-07T05:07:06Z</time>
      </trkpt>
      <trkpt lat="49.28445" lon="-0.15523">
        <ele>104</ele>
        <time>2024-04-07T05:07:07Z</time>
      </trkpt>
      <trkpt lat="49.28445" lon="-0.15533">
        <ele>103.8</ele>
        <time>2024-04-07T05:07:08Z</time>
      </trkpt>
      <trkpt lat="49.28445" lon="-0.15542">
        <ele>103.8</ele>
        <time>2024-04-07T05:07:09Z</time>
      </trkpt>
      <trkpt lat="49.28446" lon="-0.15551">
        <ele>103.8</ele>
        <time>2024-04-07T05:07:10Z</time>
      </trkpt>
      <trkpt lat="49.28447" lon="-0.1556">
        <ele>104</ele>
        <time>2024-04-07T05:07:11Z</time>
      </trkpt>
      <trkpt lat="49.28447" lon="-0.1557">
        <ele>104</ele>
        <time>2024-04-07T05:07:12Z</time>
      </trkpt>
      <trkpt lat="49.28448" lon="-0.15579">
        <ele>104.2</ele>
        <time>2024-04-07T05:07:13Z</time>
      </trkpt>
      <trkpt lat="49.28448" lon="-0.15589">
        <ele>104.2</ele>
        <time>2024-04-07T05:07:14Z</time>
      </trkpt>
      <trkpt lat="49.28449" lon="-0.15599">
        <ele>104.2</ele>
        <time>2024-04-07T05:07:15Z</time>
      </trkpt>
      <trkpt lat="49.28449" lon="-0.15609">
        <ele>104.2</ele>
        <time>2024-04-07T05:07:16Z</time>
      </trkpt>
      <trkpt lat="49.2845" lon="-0.15619">
        <ele>104.2</ele>
        <time>2024-04-07T05:07:17Z</time>
      </trkpt>
      <trkpt lat="49.2845" lon="-0.15629">
        <ele>104.2</ele>
        <time>2024-04-07T05:07:18Z</time>
      </trkpt>
      <trkpt lat="49.2845" lon="-0.15639">
        <ele>104.2</ele>
        <time>2024-04-07T05:07:19Z</time>
      </trkpt>
      <trkpt lat="49.2845" lon="-0.15649">
        <ele>104.2</ele>
        <time>2024-04-07T05:07:20Z</time>
      </trkpt>
      <trkpt lat="49.28451" lon="-0.15659">
        <ele>104.2</ele>
        <time>2024-04-07T05:07:21Z</time>
      </trkpt>
      <trkpt lat="49.28451" lon="-0.15669">
        <ele>104.2</ele>
        <time>2024-04-07T05:07:22Z</time>
      </trkpt>
      <trkpt lat="49.28451" lon="-0.15679">
        <ele>104.2</ele>
        <time>2024-04-07T05:07:23Z</time>
      </trkpt>
      <trkpt lat="49.28452" lon="-0.15689">
        <ele>104.4</ele>
        <time>2024-04-07T05:07:24Z</time>
      </trkpt>
      <trkpt lat="49.28452" lon="-0.15699">
        <ele>104.4</ele>
        <time>2024-04-07T05:07:25Z</time>
      </trkpt>
      <trkpt lat="49.28452" lon="-0.15708">
        <ele>104.4</ele>
        <time>2024-04-07T05:07:26Z</time>
      </trkpt>
      <trkpt lat="49.28453" lon="-0.15718">
        <ele>104.2</ele>
        <time>2024-04-07T05:07:27Z</time>
      </trkpt>
      <trkpt lat="49.28453" lon="-0.15728">
        <ele>104.2</ele>
        <time>2024-04-07T05:07:28Z</time>
      </trkpt>
      <trkpt lat="49.28453" lon="-0.15738">
        <ele>104.2</ele>
        <time>2024-04-07T05:07:29Z</time>
      </trkpt>
      <trkpt lat="49.28454" lon="-0.15748">
        <ele>104.2</ele>
        <time>2024-04-07T05:07:30Z</time>
      </trkpt>
      <trkpt lat="49.28454" lon="-0.15758">
        <ele>104</ele>
        <time>2024-04-07T05:07:31Z</time>
      </trkpt>
      <trkpt lat="49.28454" lon="-0.15768">
        <ele>103.8</ele>
        <time>2024-04-07T05:07:32Z</time>
      </trkpt>
      <trkpt lat="49.28455" lon="-0.15778">
        <ele>103.8</ele>
        <time>2024-04-07T05:07:33Z</time>
      </trkpt>
      <trkpt lat="49.28455" lon="-0.15788">
        <ele>103.8</ele>
        <time>2024-04-07T05:07:34Z</time>
      </trkpt>
      <trkpt lat="49.28455" lon="-0.15798">
        <ele>103.8</ele>
        <time>2024-04-07T05:07:35Z</time>
      </trkpt>
      <trkpt lat="49.28456" lon="-0.15809">
        <ele>103.6</ele>
        <time>2024-04-07T05:07:36Z</time>
      </trkpt>
      <trkpt lat="49.28456" lon="-0.15819">
        <ele>103.6</ele>
        <time>2024-04-07T05:07:37Z</time>
      </trkpt>
      <trkpt lat="49.28457" lon="-0.15829">
        <ele>103.6</ele>
        <time>2024-04-07T05:07:38Z</time>
      </trkpt>
      <trkpt lat="49.28457" lon="-0.15839">
        <ele>103.6</ele>
        <time>2024-04-07T05:07:39Z</time>
      </trkpt>
      <trkpt lat="49.28458" lon="-0.15849">
        <ele>103.8</ele>
        <time>2024-04-07T05:07:40Z</time>
      </trkpt>
      <trkpt lat="49.28458" lon="-0.15859">
        <ele>103.8</ele>
        <time>2024-04-07T05:07:41Z</time>
      </trkpt>
      <trkpt lat="49.28458" lon="-0.15869">
        <ele>104</ele>
        <time>2024-04-07T05:07:42Z</time>
      </trkpt>
      <trkpt lat="49.28459" lon="-0.1588">
        <ele>104.2</ele>
        <time>2024-04-07T05:07:43Z</time>
      </trkpt>
      <trkpt lat="49.28459" lon="-0.1589">
        <ele>104.4</ele>
        <time>2024-04-07T05:07:44Z</time>
      </trkpt>
      <trkpt lat="49.2846" lon="-0.159">
        <ele>104.4</ele>
        <time>2024-04-07T05:07:45Z</time>
      </trkpt>
      <trkpt lat="49.2846" lon="-0.15909">
        <ele>104.4</ele>
        <time>2024-04-07T05:07:46Z</time>
      </trkpt>
      <trkpt lat="49.28461" lon="-0.15919">
        <ele>104.4</ele>
        <time>2024-04-07T05:07:47Z</time>
      </trkpt>
      <trkpt lat="49.28461" lon="-0.15929">
        <ele>104.4</ele>
        <time>2024-04-07T05:07:48Z</time>
      </trkpt>
      <trkpt lat="49.28461" lon="-0.15939">
        <ele>104.4</ele>
        <time>2024-04-07T05:07:49Z</time>
      </trkpt>
      <trkpt lat="49.28462" lon="-0.15949">
        <ele>104.4</ele>
        <time>2024-04-07T05:07:50Z</time>
      </trkpt>
      <trkpt lat="49.28462" lon="-0.1596">
        <ele>104.4</ele>
        <time>2024-04-07T05:07:51Z</time>
      </trkpt>
      <trkpt lat="49.28463" lon="-0.1597">
        <ele>104.4</ele>
        <time>2024-04-07T05:07:52Z</time>
      </trkpt>
      <trkpt lat="49.28464" lon="-0.1598">
        <ele>104.4</ele>
        <time>2024-04-07T05:07:53Z</time>
      </trkpt>
      <trkpt lat="49.28465" lon="-0.1599">
        <ele>104.2</ele>
        <time>2024-04-07T05:07:54Z</time>
      </trkpt>
      <trkpt lat="49.28465" lon="-0.16">
        <ele>104.2</ele>
        <time>2024-04-07T05:07:55Z</time>
      </trkpt>
      <trkpt lat="49.28466" lon="-0.1601">
        <ele>104</ele>
        <time>2024-04-07T05:07:56Z</time>
      </trkpt>
      <trkpt lat="49.28467" lon="-0.1602">
        <ele>104</ele>
        <time>2024-04-07T05:07:57Z</time>
      </trkpt>
      <trkpt lat="49.28467" lon="-0.16031">
        <ele>104</ele>
        <time>2024-04-07T05:07:58Z</time>
      </trkpt>
      <trkpt lat="49.28468" lon="-0.16041">
        <ele>104</ele>
        <time>2024-04-07T05:07:59Z</time>
      </trkpt>
      <trkpt lat="49.28469" lon="-0.16051">
        <ele>104</ele>
        <time>2024-04-07T05:08:00Z</time>
      </trkpt>
      <trkpt lat="49.2847" lon="-0.1606">
        <ele>104.2</ele>
        <time>2024-04-07T05:08:01Z</time>
      </trkpt>
      <trkpt lat="49.28471" lon="-0.1607">
        <ele>104.2</ele>
        <time>2024-04-07T05:08:02Z</time>
      </trkpt>
      <trkpt lat="49.28471" lon="-0.1608">
        <ele>104.2</ele>
        <time>2024-04-07T05:08:03Z</time>
      </trkpt>
      <trkpt lat="49.28472" lon="-0.16089">
        <ele>104.2</ele>
        <time>2024-04-07T05:08:04Z</time>
      </trkpt>
      <trkpt lat="49.28474" lon="-0.16099">
        <ele>104.2</ele>
        <time>2024-04-07T05:08:05Z</time>
      </trkpt>
      <trkpt lat="49.28475" lon="-0.16108">
        <ele>104.2</ele>
        <time>2024-04-07T05:08:06Z</time>
      </trkpt>
      <trkpt lat="49.28475" lon="-0.16117">
        <ele>104.2</ele>
        <time>2024-04-07T05:08:07Z</time>
      </trkpt>
      <trkpt lat="49.28476" lon="-0.16127">
        <ele>104.4</ele>
        <time>2024-04-07T05:08:08Z</time>
      </trkpt>
      <trkpt lat="49.28476" lon="-0.16136">
        <ele>104.4</ele>
        <time>2024-04-07T05:08:09Z</time>
      </trkpt>
      <trkpt lat="49.28476" lon="-0.16145">
        <ele>104.4</ele>
        <time>2024-04-07T05:08:10Z</time>
      </trkpt>
      <trkpt lat="49.28477" lon="-0.16155">
        <ele>104.6</ele>
        <time>2024-04-07T05:08:11Z</time>
      </trkpt>
      <trkpt lat="49.28477" lon="-0.16164">
        <ele>104.6</ele>
        <time>2024-04-07T05:08:12Z</time>
      </trkpt>
      <trkpt lat="49.28478" lon="-0.16174">
        <ele>104.6</ele>
        <time>2024-04-07T05:08:13Z</time>
      </trkpt>
      <trkpt lat="49.28478" lon="-0.16183">
        <ele>104.6</ele>
        <time>2024-04-07T05:08:14Z</time>
      </trkpt>
      <trkpt lat="49.28478" lon="-0.16193">
        <ele>104.6</ele>
        <time>2024-04-07T05:08:15Z</time>
      </trkpt>
      <trkpt lat="49.28479" lon="-0.16203">
        <ele>104.6</ele>
        <time>2024-04-07T05:08:16Z</time>
      </trkpt>
      <trkpt lat="49.28479" lon="-0.16213">
        <ele>104.4</ele>
        <time>2024-04-07T05:08:17Z</time>
      </trkpt>
      <trkpt lat="49.28479" lon="-0.16223">
        <ele>104.4</ele>
        <time>2024-04-07T05:08:18Z</time>
      </trkpt>
      <trkpt lat="49.28478" lon="-0.16233">
        <ele>104.4</ele>
        <time>2024-04-07T05:08:19Z</time>
      </trkpt>
      <trkpt lat="49.28477" lon="-0.16243">
        <ele>104.4</ele>
        <time>2024-04-07T05:08:20Z</time>
      </trkpt>
      <trkpt lat="49.28476" lon="-0.16253">
        <ele>104.4</ele>
        <time>2024-04-07T05:08:21Z</time>
      </trkpt>
      <trkpt lat="49.28476" lon="-0.16263">
        <ele>104.4</ele>
        <time>2024-04-07T05:08:22Z</time>
      </trkpt>
      <trkpt lat="49.28475" lon="-0.16273">
        <ele>104.4</ele>
        <time>2024-04-07T05:08:23Z</time>
      </trkpt>
      <trkpt lat="49.28474" lon="-0.16283">
        <ele>104.2</ele>
        <time>2024-04-07T05:08:24Z</time>
      </trkpt>
      <trkpt lat="49.28472" lon="-0.16293">
        <ele>104.2</ele>
        <time>2024-04-07T05:08:25Z</time>
      </trkpt>
      <trkpt lat="49.28471" lon="-0.16302">
        <ele>104.2</ele>
        <time>2024-04-07T05:08:26Z</time>
      </trkpt>
      <trkpt lat="49.28469" lon="-0.16312">
        <ele>104.2</ele>
        <time>2024-04-07T05:08:27Z</time>
      </trkpt>
      <trkpt lat="49.28468" lon="-0.16321">
        <ele>104.2</ele>
        <time>2024-04-07T05:08:28Z</time>
      </trkpt>
      <trkpt lat="49.28466" lon="-0.16331">
        <ele>104.2</ele>
        <time>2024-04-07T05:08:29Z</time>
      </trkpt>
      <trkpt lat="49.28465" lon="-0.16341">
        <ele>104.2</ele>
        <time>2024-04-07T05:08:30Z</time>
      </trkpt>
      <trkpt lat="49.28464" lon="-0.1635">
        <ele>104.2</ele>
        <time>2024-04-07T05:08:31Z</time>
      </trkpt>
      <trkpt lat="49.28462" lon="-0.1636">
        <ele>104.2</ele>
        <time>2024-04-07T05:08:32Z</time>
      </trkpt>
      <trkpt lat="49.28461" lon="-0.1637">
        <ele>104.2</ele>
        <time>2024-04-07T05:08:33Z</time>
      </trkpt>
      <trkpt lat="49.28459" lon="-0.1638">
        <ele>104.2</ele>
        <time>2024-04-07T05:08:34Z</time>
      </trkpt>
      <trkpt lat="49.28458" lon="-0.1639">
        <ele>104.2</ele>
        <time>2024-04-07T05:08:35Z</time>
      </trkpt>
      <trkpt lat="49.28457" lon="-0.164">
        <ele>104.2</ele>
        <time>2024-04-07T05:08:36Z</time>
      </trkpt>
      <trkpt lat="49.28456" lon="-0.1641">
        <ele>104.2</ele>
        <time>2024-04-07T05:08:37Z</time>
      </trkpt>
      <trkpt lat="49.28456" lon="-0.16419">
        <ele>104.2</ele>
        <time>2024-04-07T05:08:38Z</time>
      </trkpt>
      <trkpt lat="49.28455" lon="-0.16428">
        <ele>104.2</ele>
        <time>2024-04-07T05:08:39Z</time>
      </trkpt>
      <trkpt lat="49.28455" lon="-0.16438">
        <ele>104.2</ele>
        <time>2024-04-07T05:08:40Z</time>
      </trkpt>
      <trkpt lat="49.28454" lon="-0.16448">
        <ele>104.4</ele>
        <time>2024-04-07T05:08:41Z</time>
      </trkpt>
      <trkpt lat="49.28454" lon="-0.16458">
        <ele>104.4</ele>
        <time>2024-04-07T05:08:42Z</time>
      </trkpt>
      <trkpt lat="49.28453" lon="-0.16469">
        <ele>104.4</ele>
        <time>2024-04-07T05:08:43Z</time>
      </trkpt>
      <trkpt lat="49.28452" lon="-0.16479">
        <ele>104.4</ele>
        <time>2024-04-07T05:08:44Z</time>
      </trkpt>
      <trkpt lat="49.28451" lon="-0.1649">
        <ele>104.4</ele>
        <time>2024-04-07T05:08:45Z</time>
      </trkpt>
      <trkpt lat="49.28451" lon="-0.165">
        <ele>104.4</ele>
        <time>2024-04-07T05:08:46Z</time>
      </trkpt>
      <trkpt lat="49.2845" lon="-0.1651">
        <ele>104.4</ele>
        <time>2024-04-07T05:08:47Z</time>
      </trkpt>
      <trkpt lat="49.28449" lon="-0.1652">
        <ele>104.4</ele>
        <time>2024-04-07T05:08:48Z</time>
      </trkpt>
      <trkpt lat="49.28449" lon="-0.1653">
        <ele>104.4</ele>
        <time>2024-04-07T05:08:49Z</time>
      </trkpt>
      <trkpt lat="49.28448" lon="-0.1654">
        <ele>104.2</ele>
        <time>2024-04-07T05:08:50Z</time>
      </trkpt>
      <trkpt lat="49.28448" lon="-0.1655">
        <ele>104.2</ele>
        <time>2024-04-07T05:08:51Z</time>
      </trkpt>
      <trkpt lat="49.28448" lon="-0.1656">
        <ele>104.2</ele>
        <time>2024-04-07T05:08:52Z</time>
      </trkpt>
      <trkpt lat="49.28447" lon="-0.16569">
        <ele>104.2</ele>
        <time>2024-04-07T05:08:53Z</time>
      </trkpt>
      <trkpt lat="49.28447" lon="-0.16579">
        <ele>104.2</ele>
        <time>2024-04-07T05:08:54Z</time>
      </trkpt>
      <trkpt lat="49.28447" lon="-0.16588">
        <ele>104.2</ele>
        <time>2024-04-07T05:08:55Z</time>
      </trkpt>
      <trkpt lat="49.28447" lon="-0.16597">
        <ele>104.2</ele>
        <time>2024-04-07T05:08:56Z</time>
      </trkpt>
      <trkpt lat="49.28448" lon="-0.16606">
        <ele>104.2</ele>
        <time>2024-04-07T05:08:57Z</time>
      </trkpt>
      <trkpt lat="49.28448" lon="-0.16615">
        <ele>104.2</ele>
        <time>2024-04-07T05:08:58Z</time>
      </trkpt>
      <trkpt lat="49.28448" lon="-0.16624">
        <ele>104.4</ele>
        <time>2024-04-07T05:08:59Z</time>
      </trkpt>
      <trkpt lat="49.28447" lon="-0.16634">
        <ele>104.4</ele>
        <time>2024-04-07T05:09:00Z</time>
      </trkpt>
      <trkpt lat="49.28448" lon="-0.16643">
        <ele>104.4</ele>
        <time>2024-04-07T05:09:01Z</time>
      </trkpt>
      <trkpt lat="49.28449" lon="-0.16653">
        <ele>104.6</ele>
        <time>2024-04-07T05:09:02Z</time>
      </trkpt>
      <trkpt lat="49.28449" lon="-0.16663">
        <ele>104.6</ele>
        <time>2024-04-07T05:09:03Z</time>
      </trkpt>
      <trkpt lat="49.2845" lon="-0.16672">
        <ele>104.6</ele>
        <time>2024-04-07T05:09:04Z</time>
      </trkpt>
      <trkpt lat="49.2845" lon="-0.16683">
        <ele>104.6</ele>
        <time>2024-04-07T05:09:05Z</time>
      </trkpt>
      <trkpt lat="49.28451" lon="-0.16693">
        <ele>104.6</ele>
        <time>2024-04-07T05:09:06Z</time>
      </trkpt>
      <trkpt lat="49.28451" lon="-0.16704">
        <ele>104.6</ele>
        <time>2024-04-07T05:09:07Z</time>
      </trkpt>
      <trkpt lat="49.28451" lon="-0.16715">
        <ele>104.6</ele>
        <time>2024-04-07T05:09:08Z</time>
      </trkpt>
      <trkpt lat="49.28452" lon="-0.16725">
        <ele>104.4</ele>
        <time>2024-04-07T05:09:09Z</time>
      </trkpt>
      <trkpt lat="49.28452" lon="-0.16736">
        <ele>104.4</ele>
        <time>2024-04-07T05:09:10Z</time>
      </trkpt>
      <trkpt lat="49.28452" lon="-0.16747">
        <ele>104.2</ele>
        <time>2024-04-07T05:09:11Z</time>
      </trkpt>
      <trkpt lat="49.28451" lon="-0.16758">
        <ele>104.2</ele>
        <time>2024-04-07T05:09:12Z</time>
      </trkpt>
      <trkpt lat="49.28451" lon="-0.16769">
        <ele>104.2</ele>
        <time>2024-04-07T05:09:13Z</time>
      </trkpt>
      <trkpt lat="49.2845" lon="-0.16779">
        <ele>104.2</ele>
        <time>2024-04-07T05:09:14Z</time>
      </trkpt>
      <trkpt lat="49.2845" lon="-0.1679">
        <ele>104.2</ele>
        <time>2024-04-07T05:09:15Z</time>
      </trkpt>
      <trkpt lat="49.28449" lon="-0.16801">
        <ele>104.2</ele>
        <time>2024-04-07T05:09:16Z</time>
      </trkpt>
      <trkpt lat="49.28448" lon="-0.16811">
        <ele>104.2</ele>
        <time>2024-04-07T05:09:17Z</time>
      </trkpt>
      <trkpt lat="49.28447" lon="-0.16822">
        <ele>104.2</ele>
        <time>2024-04-07T05:09:18Z</time>
      </trkpt>
      <trkpt lat="49.28445" lon="-0.16832">
        <ele>104.4</ele>
        <time>2024-04-07T05:09:19Z</time>
      </trkpt>
      <trkpt lat="49.28444" lon="-0.16842">
        <ele>104.4</ele>
        <time>2024-04-07T05:09:20Z</time>
      </trkpt>
      <trkpt lat="49.28442" lon="-0.16853">
        <ele>104.4</ele>
        <time>2024-04-07T05:09:21Z</time>
      </trkpt>
      <trkpt lat="49.28441" lon="-0.16863">
        <ele>104.4</ele>
        <time>2024-04-07T05:09:22Z</time>
      </trkpt>
      <trkpt lat="49.2844" lon="-0.16873">
        <ele>104.4</ele>
        <time>2024-04-07T05:09:23Z</time>
      </trkpt>
      <trkpt lat="49.28439" lon="-0.16882">
        <ele>104.4</ele>
        <time>2024-04-07T05:09:24Z</time>
      </trkpt>
      <trkpt lat="49.28438" lon="-0.16892">
        <ele>104.2</ele>
        <time>2024-04-07T05:09:25Z</time>
      </trkpt>
      <trkpt lat="49.28437" lon="-0.16901">
        <ele>104</ele>
        <time>2024-04-07T05:09:26Z</time>
      </trkpt>
      <trkpt lat="49.28437" lon="-0.1691">
        <ele>104</ele>
        <time>2024-04-07T05:09:27Z</time>
      </trkpt>
      <trkpt lat="49.28436" lon="-0.16918">
        <ele>103.8</ele>
        <time>2024-04-07T05:09:28Z</time>
      </trkpt>
      <trkpt lat="49.28436" lon="-0.16928">
        <ele>103.8</ele>
        <time>2024-04-07T05:09:29Z</time>
      </trkpt>
      <trkpt lat="49.28436" lon="-0.16937">
        <ele>103.8</ele>
        <time>2024-04-07T05:09:30Z</time>
      </trkpt>
      <trkpt lat="49.28435" lon="-0.16947">
        <ele>103.8</ele>
        <time>2024-04-07T05:09:31Z</time>
      </trkpt>
      <trkpt lat="49.28433" lon="-0.16957">
        <ele>103.8</ele>
        <time>2024-04-07T05:09:32Z</time>
      </trkpt>
      <trkpt lat="49.28433" lon="-0.16967">
        <ele>103.8</ele>
        <time>2024-04-07T05:09:33Z</time>
      </trkpt>
      <trkpt lat="49.28432" lon="-0.16977">
        <ele>103.8</ele>
        <time>2024-04-07T05:09:34Z</time>
      </trkpt>
      <trkpt lat="49.28432" lon="-0.16987">
        <ele>103.8</ele>
        <time>2024-04-07T05:09:35Z</time>
      </trkpt>
      <trkpt lat="49.28432" lon="-0.16997">
        <ele>103.8</ele>
        <time>2024-04-07T05:09:36Z</time>
      </trkpt>
      <trkpt lat="49.28432" lon="-0.17008">
        <ele>103.8</ele>
        <time>2024-04-07T05:09:37Z</time>
      </trkpt>
      <trkpt lat="49.28432" lon="-0.17018">
        <ele>103.8</ele>
        <time>2024-04-07T05:09:38Z</time>
      </trkpt>
      <trkpt lat="49.28433" lon="-0.17028">
        <ele>103.6</ele>
        <time>2024-04-07T05:09:39Z</time>
      </trkpt>
      <trkpt lat="49.28434" lon="-0.17038">
        <ele>103.6</ele>
        <time>2024-04-07T05:09:40Z</time>
      </trkpt>
      <trkpt lat="49.28435" lon="-0.17048">
        <ele>103.4</ele>
        <time>2024-04-07T05:09:41Z</time>
      </trkpt>
      <trkpt lat="49.28436" lon="-0.17058">
        <ele>103.2</ele>
        <time>2024-04-07T05:09:42Z</time>
      </trkpt>
      <trkpt lat="49.28437" lon="-0.17068">
        <ele>103.2</ele>
        <time>2024-04-07T05:09:43Z</time>
      </trkpt>
      <trkpt lat="49.28439" lon="-0.17078">
        <ele>103.2</ele>
        <time>2024-04-07T05:09:44Z</time>
      </trkpt>
      <trkpt lat="49.2844" lon="-0.17087">
        <ele>103</ele>
        <time>2024-04-07T05:09:45Z</time>
      </trkpt>
      <trkpt lat="49.28441" lon="-0.17097">
        <ele>103</ele>
        <time>2024-04-07T05:09:46Z</time>
      </trkpt>
      <trkpt lat="49.28442" lon="-0.17107">
        <ele>103</ele>
        <time>2024-04-07T05:09:47Z</time>
      </trkpt>
      <trkpt lat="49.28443" lon="-0.17117">
        <ele>103</ele>
        <time>2024-04-07T05:09:48Z</time>
      </trkpt>
      <trkpt lat="49.28445" lon="-0.17127">
        <ele>103</ele>
        <time>2024-04-07T05:09:49Z</time>
      </trkpt>
      <trkpt lat="49.28446" lon="-0.17136">
        <ele>103</ele>
        <time>2024-04-07T05:09:50Z</time>
      </trkpt>
      <trkpt lat="49.28447" lon="-0.17146">
        <ele>103.2</ele>
        <time>2024-04-07T05:09:51Z</time>
      </trkpt>
      <trkpt lat="49.28449" lon="-0.17156">
        <ele>103.2</ele>
        <time>2024-04-07T05:09:52Z</time>
      </trkpt>
      <trkpt lat="49.2845" lon="-0.17166">
        <ele>103.2</ele>
        <time>2024-04-07T05:09:53Z</time>
      </trkpt>
      <trkpt lat="49.28451" lon="-0.17176">
        <ele>103.2</ele>
        <time>2024-04-07T05:09:54Z</time>
      </trkpt>
      <trkpt lat="49.28452" lon="-0.17186">
        <ele>103.4</ele>
        <time>2024-04-07T05:09:55Z</time>
      </trkpt>
      <trkpt lat="49.28454" lon="-0.17196">
        <ele>103.4</ele>
        <time>2024-04-07T05:09:56Z</time>
      </trkpt>
      <trkpt lat="49.28455" lon="-0.17207">
        <ele>103.4</ele>
        <time>2024-04-07T05:09:57Z</time>
      </trkpt>
      <trkpt lat="49.28456" lon="-0.17217">
        <ele>103.6</ele>
        <time>2024-04-07T05:09:58Z</time>
      </trkpt>
      <trkpt lat="49.28457" lon="-0.17227">
        <ele>103.6</ele>
        <time>2024-04-07T05:09:59Z</time>
      </trkpt>
      <trkpt lat="49.28459" lon="-0.17237">
        <ele>103.8</ele>
        <time>2024-04-07T05:10:00Z</time>
      </trkpt>
      <trkpt lat="49.2846" lon="-0.17246">
        <ele>103.8</ele>
        <time>2024-04-07T05:10:01Z</time>
      </trkpt>
      <trkpt lat="49.28461" lon="-0.17256">
        <ele>104</ele>
        <time>2024-04-07T05:10:02Z</time>
      </trkpt>
      <trkpt lat="49.28462" lon="-0.17265">
        <ele>104</ele>
        <time>2024-04-07T05:10:03Z</time>
      </trkpt>
      <trkpt lat="49.28463" lon="-0.17275">
        <ele>104.2</ele>
        <time>2024-04-07T05:10:04Z</time>
      </trkpt>
      <trkpt lat="49.28464" lon="-0.17286">
        <ele>104.2</ele>
        <time>2024-04-07T05:10:05Z</time>
      </trkpt>
      <trkpt lat="49.28464" lon="-0.17297">
        <ele>104.4</ele>
        <time>2024-04-07T05:10:06Z</time>
      </trkpt>
      <trkpt lat="49.28466" lon="-0.17306">
        <ele>104.4</ele>
        <time>2024-04-07T05:10:07Z</time>
      </trkpt>
      <trkpt lat="49.28467" lon="-0.17316">
        <ele>104.4</ele>
        <time>2024-04-07T05:10:08Z</time>
      </trkpt>
      <trkpt lat="49.28468" lon="-0.17325">
        <ele>104.4</ele>
        <time>2024-04-07T05:10:09Z</time>
      </trkpt>
      <trkpt lat="49.2847" lon="-0.17335">
        <ele>104.4</ele>
        <time>2024-04-07T05:10:10Z</time>
      </trkpt>
      <trkpt lat="49.28471" lon="-0.17344">
        <ele>104.6</ele>
        <time>2024-04-07T05:10:11Z</time>
      </trkpt>
      <trkpt lat="49.28472" lon="-0.17355">
        <ele>104.8</ele>
        <time>2024-04-07T05:10:12Z</time>
      </trkpt>
      <trkpt lat="49.28473" lon="-0.17365">
        <ele>105</ele>
        <time>2024-04-07T05:10:13Z</time>
      </trkpt>
      <trkpt lat="49.28475" lon="-0.17376">
        <ele>105</ele>
        <time>2024-04-07T05:10:14Z</time>
      </trkpt>
      <trkpt lat="49.28476" lon="-0.17385">
        <ele>105</ele>
        <time>2024-04-07T05:10:15Z</time>
      </trkpt>
      <trkpt lat="49.28477" lon="-0.17394">
        <ele>105</ele>
        <time>2024-04-07T05:10:16Z</time>
      </trkpt>
      <trkpt lat="49.28479" lon="-0.17404">
        <ele>104.8</ele>
        <time>2024-04-07T05:10:17Z</time>
      </trkpt>
      <trkpt lat="49.2848" lon="-0.17414">
        <ele>104.6</ele>
        <time>2024-04-07T05:10:18Z</time>
      </trkpt>
      <trkpt lat="49.28483" lon="-0.17434">
        <ele>104.6</ele>
        <time>2024-04-07T05:10:19Z</time>
      </trkpt>
      <trkpt lat="49.28483" lon="-0.17439">
        <ele>104.4</ele>
        <time>2024-04-07T05:10:20Z</time>
      </trkpt>
      <trkpt lat="49.28484" lon="-0.17444">
        <ele>104.2</ele>
        <time>2024-04-07T05:10:21Z</time>
      </trkpt>
      <trkpt lat="49.28485" lon="-0.17454">
        <ele>104.2</ele>
        <time>2024-04-07T05:10:22Z</time>
      </trkpt>
      <trkpt lat="49.28486" lon="-0.17463">
        <ele>104.2</ele>
        <time>2024-04-07T05:10:23Z</time>
      </trkpt>
      <trkpt lat="49.28488" lon="-0.17472">
        <ele>104.2</ele>
        <time>2024-04-07T05:10:24Z</time>
      </trkpt>
      <trkpt lat="49.28489" lon="-0.17482">
        <ele>104.4</ele>
        <time>2024-04-07T05:10:25Z</time>
      </trkpt>
      <trkpt lat="49.2849" lon="-0.17491">
        <ele>104.6</ele>
        <time>2024-04-07T05:10:26Z</time>
      </trkpt>
      <trkpt lat="49.28492" lon="-0.17501">
        <ele>104.6</ele>
        <time>2024-04-07T05:10:27Z</time>
      </trkpt>
      <trkpt lat="49.28493" lon="-0.17511">
        <ele>104.6</ele>
        <time>2024-04-07T05:10:28Z</time>
      </trkpt>
      <trkpt lat="49.28494" lon="-0.17521">
        <ele>104.6</ele>
        <time>2024-04-07T05:10:29Z</time>
      </trkpt>
      <trkpt lat="49.28495" lon="-0.1753">
        <ele>104.8</ele>
        <time>2024-04-07T05:10:30Z</time>
      </trkpt>
      <trkpt lat="49.28496" lon="-0.1754">
        <ele>105</ele>
        <time>2024-04-07T05:10:31Z</time>
      </trkpt>
      <trkpt lat="49.28497" lon="-0.17549">
        <ele>105.2</ele>
        <time>2024-04-07T05:10:32Z</time>
      </trkpt>
      <trkpt lat="49.28498" lon="-0.17559">
        <ele>105.2</ele>
        <time>2024-04-07T05:10:33Z</time>
      </trkpt>
      <trkpt lat="49.28499" lon="-0.1757">
        <ele>105.2</ele>
        <time>2024-04-07T05:10:34Z</time>
      </trkpt>
      <trkpt lat="49.285" lon="-0.17581">
        <ele>105.2</ele>
        <time>2024-04-07T05:10:35Z</time>
      </trkpt>
      <trkpt lat="49.28501" lon="-0.17592">
        <ele>105.2</ele>
        <time>2024-04-07T05:10:36Z</time>
      </trkpt>
      <trkpt lat="49.28501" lon="-0.17602">
        <ele>105</ele>
        <time>2024-04-07T05:10:37Z</time>
      </trkpt>
      <trkpt lat="49.28502" lon="-0.17613">
        <ele>104.8</ele>
        <time>2024-04-07T05:10:38Z</time>
      </trkpt>
      <trkpt lat="49.28502" lon="-0.17623">
        <ele>104.8</ele>
        <time>2024-04-07T05:10:39Z</time>
      </trkpt>
      <trkpt lat="49.28502" lon="-0.17634">
        <ele>104.8</ele>
        <time>2024-04-07T05:10:40Z</time>
      </trkpt>
      <trkpt lat="49.28501" lon="-0.17644">
        <ele>104.6</ele>
        <time>2024-04-07T05:10:41Z</time>
      </trkpt>
      <trkpt lat="49.28501" lon="-0.17654">
        <ele>104.6</ele>
        <time>2024-04-07T05:10:42Z</time>
      </trkpt>
      <trkpt lat="49.285" lon="-0.17665">
        <ele>104.6</ele>
        <time>2024-04-07T05:10:43Z</time>
      </trkpt>
      <trkpt lat="49.28499" lon="-0.17675">
        <ele>104.6</ele>
        <time>2024-04-07T05:10:44Z</time>
      </trkpt>
      <trkpt lat="49.28498" lon="-0.17684">
        <ele>104.6</ele>
        <time>2024-04-07T05:10:45Z</time>
      </trkpt>
      <trkpt lat="49.28496" lon="-0.17693">
        <ele>104.6</ele>
        <time>2024-04-07T05:10:46Z</time>
      </trkpt>
      <trkpt lat="49.28495" lon="-0.17703">
        <ele>104.6</ele>
        <time>2024-04-07T05:10:47Z</time>
      </trkpt>
      <trkpt lat="49.28493" lon="-0.17713">
        <ele>104.6</ele>
        <time>2024-04-07T05:10:48Z</time>
      </trkpt>
      <trkpt lat="49.28492" lon="-0.17722">
        <ele>104.6</ele>
        <time>2024-04-07T05:10:49Z</time>
      </trkpt>
      <trkpt lat="49.2849" lon="-0.17732">
        <ele>104.4</ele>
        <time>2024-04-07T05:10:50Z</time>
      </trkpt>
      <trkpt lat="49.28489" lon="-0.17741">
        <ele>104.4</ele>
        <time>2024-04-07T05:10:51Z</time>
      </trkpt>
      <trkpt lat="49.28488" lon="-0.1775">
        <ele>104.2</ele>
        <time>2024-04-07T05:10:52Z</time>
      </trkpt>
      <trkpt lat="49.28486" lon="-0.17759">
        <ele>104.2</ele>
        <time>2024-04-07T05:10:53Z</time>
      </trkpt>
      <trkpt lat="49.28486" lon="-0.17768">
        <ele>104.2</ele>
        <time>2024-04-07T05:10:54Z</time>
      </trkpt>
      <trkpt lat="49.28485" lon="-0.17776">
        <ele>104.2</ele>
        <time>2024-04-07T05:10:55Z</time>
      </trkpt>
      <trkpt lat="49.28484" lon="-0.17783">
        <ele>104.2</ele>
        <time>2024-04-07T05:10:56Z</time>
      </trkpt>
      <trkpt lat="49.28482" lon="-0.1779">
        <ele>104.2</ele>
        <time>2024-04-07T05:10:57Z</time>
      </trkpt>
      <trkpt lat="49.28478" lon="-0.17796">
        <ele>104.4</ele>
        <time>2024-04-07T05:10:58Z</time>
      </trkpt>
      <trkpt lat="49.28473" lon="-0.178">
        <ele>104.4</ele>
        <time>2024-04-07T05:10:59Z</time>
      </trkpt>
      <trkpt lat="49.28469" lon="-0.178">
        <ele>104.4</ele>
        <time>2024-04-07T05:11:00Z</time>
      </trkpt>
      <trkpt lat="49.28463" lon="-0.178">
        <ele>104.4</ele>
        <time>2024-04-07T05:11:01Z</time>
      </trkpt>
      <trkpt lat="49.28458" lon="-0.17802">
        <ele>104.4</ele>
        <time>2024-04-07T05:11:02Z</time>
      </trkpt>
      <trkpt lat="49.28453" lon="-0.17805">
        <ele>104.4</ele>
        <time>2024-04-07T05:11:03Z</time>
      </trkpt>
      <trkpt lat="49.28448" lon="-0.17809">
        <ele>104.4</ele>
        <time>2024-04-07T05:11:04Z</time>
      </trkpt>
      <trkpt lat="49.28443" lon="-0.17814">
        <ele>104.4</ele>
        <time>2024-04-07T05:11:05Z</time>
      </trkpt>
      <trkpt lat="49.28438" lon="-0.1782">
        <ele>104.4</ele>
        <time>2024-04-07T05:11:06Z</time>
      </trkpt>
      <trkpt lat="49.28433" lon="-0.17825">
        <ele>104.2</ele>
        <time>2024-04-07T05:11:07Z</time>
      </trkpt>
      <trkpt lat="49.28427" lon="-0.1783">
        <ele>104.2</ele>
        <time>2024-04-07T05:11:08Z</time>
      </trkpt>
      <trkpt lat="49.28422" lon="-0.17835">
        <ele>104.2</ele>
        <time>2024-04-07T05:11:09Z</time>
      </trkpt>
      <trkpt lat="49.28416" lon="-0.1784">
        <ele>104</ele>
        <time>2024-04-07T05:11:10Z</time>
      </trkpt>
      <trkpt lat="49.28411" lon="-0.17845">
        <ele>103.8</ele>
        <time>2024-04-07T05:11:11Z</time>
      </trkpt>
      <trkpt lat="49.28406" lon="-0.1785">
        <ele>103.8</ele>
        <time>2024-04-07T05:11:12Z</time>
      </trkpt>
      <trkpt lat="49.28401" lon="-0.17855">
        <ele>103.6</ele>
        <time>2024-04-07T05:11:13Z</time>
      </trkpt>
      <trkpt lat="49.28396" lon="-0.17861">
        <ele>103.6</ele>
        <time>2024-04-07T05:11:14Z</time>
      </trkpt>
      <trkpt lat="49.28391" lon="-0.17866">
        <ele>103.6</ele>
        <time>2024-04-07T05:11:15Z</time>
      </trkpt>
      <trkpt lat="49.28385" lon="-0.17871">
        <ele>103.6</ele>
        <time>2024-04-07T05:11:16Z</time>
      </trkpt>
      <trkpt lat="49.2838" lon="-0.17876">
        <ele>103.6</ele>
        <time>2024-04-07T05:11:17Z</time>
      </trkpt>
      <trkpt lat="49.28374" lon="-0.17881">
        <ele>103.6</ele>
        <time>2024-04-07T05:11:18Z</time>
      </trkpt>
      <trkpt lat="49.28369" lon="-0.17886">
        <ele>103.6</ele>
        <time>2024-04-07T05:11:19Z</time>
      </trkpt>
      <trkpt lat="49.28363" lon="-0.17891">
        <ele>103.6</ele>
        <time>2024-04-07T05:11:20Z</time>
      </trkpt>
      <trkpt lat="49.28358" lon="-0.17896">
        <ele>103.6</ele>
        <time>2024-04-07T05:11:21Z</time>
      </trkpt>
      <trkpt lat="49.28353" lon="-0.17901">
        <ele>103.6</ele>
        <time>2024-04-07T05:11:22Z</time>
      </trkpt>
      <trkpt lat="49.28348" lon="-0.17906">
        <ele>103.6</ele>
        <time>2024-04-07T05:11:23Z</time>
      </trkpt>
      <trkpt lat="49.28342" lon="-0.17911">
        <ele>103.6</ele>
        <time>2024-04-07T05:11:24Z</time>
      </trkpt>
      <trkpt lat="49.28337" lon="-0.17916">
        <ele>103.6</ele>
        <time>2024-04-07T05:11:25Z</time>
      </trkpt>
      <trkpt lat="49.28332" lon="-0.17921">
        <ele>103.6</ele>
        <time>2024-04-07T05:11:26Z</time>
      </trkpt>
      <trkpt lat="49.28327" lon="-0.17926">
        <ele>103.6</ele>
        <time>2024-04-07T05:11:27Z</time>
      </trkpt>
      <trkpt lat="49.28322" lon="-0.17932">
        <ele>103.6</ele>
        <time>2024-04-07T05:11:28Z</time>
      </trkpt>
      <trkpt lat="49.28317" lon="-0.17937">
        <ele>103.6</ele>
        <time>2024-04-07T05:11:29Z</time>
      </trkpt>
      <trkpt lat="49.28312" lon="-0.17942">
        <ele>103.6</ele>
        <time>2024-04-07T05:11:30Z</time>
      </trkpt>
      <trkpt lat="49.28307" lon="-0.17947">
        <ele>103.6</ele>
        <time>2024-04-07T05:11:31Z</time>
      </trkpt>
      <trkpt lat="49.28301" lon="-0.17952">
        <ele>103.6</ele>
        <time>2024-04-07T05:11:32Z</time>
      </trkpt>
      <trkpt lat="49.28296" lon="-0.17956">
        <ele>103.6</ele>
        <time>2024-04-07T05:11:33Z</time>
      </trkpt>
      <trkpt lat="49.28291" lon="-0.17961">
        <ele>103.6</ele>
        <time>2024-04-07T05:11:34Z</time>
      </trkpt>
      <trkpt lat="49.28285" lon="-0.17967">
        <ele>103.4</ele>
        <time>2024-04-07T05:11:35Z</time>
      </trkpt>
      <trkpt lat="49.28279" lon="-0.17972">
        <ele>103.6</ele>
        <time>2024-04-07T05:11:36Z</time>
      </trkpt>
      <trkpt lat="49.28274" lon="-0.17977">
        <ele>103.6</ele>
        <time>2024-04-07T05:11:37Z</time>
      </trkpt>
      <trkpt lat="49.28269" lon="-0.17982">
        <ele>103.6</ele>
        <time>2024-04-07T05:11:38Z</time>
      </trkpt>
      <trkpt lat="49.28263" lon="-0.17988">
        <ele>103.6</ele>
        <time>2024-04-07T05:11:39Z</time>
      </trkpt>
      <trkpt lat="49.28258" lon="-0.17993">
        <ele>103.6</ele>
        <time>2024-04-07T05:11:40Z</time>
      </trkpt>
      <trkpt lat="49.28252" lon="-0.17998">
        <ele>103.6</ele>
        <time>2024-04-07T05:11:41Z</time>
      </trkpt>
      <trkpt lat="49.28247" lon="-0.18003">
        <ele>103.6</ele>
        <time>2024-04-07T05:11:42Z</time>
      </trkpt>
      <trkpt lat="49.28242" lon="-0.18008">
        <ele>103.6</ele>
        <time>2024-04-07T05:11:43Z</time>
      </trkpt>
      <trkpt lat="49.28237" lon="-0.18013">
        <ele>103.8</ele>
        <time>2024-04-07T05:11:44Z</time>
      </trkpt>
      <trkpt lat="49.28231" lon="-0.18018">
        <ele>103.8</ele>
        <time>2024-04-07T05:11:45Z</time>
      </trkpt>
      <trkpt lat="49.28226" lon="-0.18023">
        <ele>103.8</ele>
        <time>2024-04-07T05:11:46Z</time>
      </trkpt>
      <trkpt lat="49.28221" lon="-0.18028">
        <ele>103.8</ele>
        <time>2024-04-07T05:11:47Z</time>
      </trkpt>
      <trkpt lat="49.28215" lon="-0.18033">
        <ele>104</ele>
        <time>2024-04-07T05:11:48Z</time>
      </trkpt>
      <trkpt lat="49.2821" lon="-0.18039">
        <ele>104</ele>
        <time>2024-04-07T05:11:49Z</time>
      </trkpt>
      <trkpt lat="49.28205" lon="-0.18044">
        <ele>104</ele>
        <time>2024-04-07T05:11:50Z</time>
      </trkpt>
      <trkpt lat="49.282" lon="-0.18049">
        <ele>104</ele>
        <time>2024-04-07T05:11:51Z</time>
      </trkpt>
      <trkpt lat="49.28194" lon="-0.18054">
        <ele>104</ele>
        <time>2024-04-07T05:11:52Z</time>
      </trkpt>
      <trkpt lat="49.28189" lon="-0.18059">
        <ele>104</ele>
        <time>2024-04-07T05:11:53Z</time>
      </trkpt>
      <trkpt lat="49.28184" lon="-0.18064">
        <ele>104</ele>
        <time>2024-04-07T05:11:54Z</time>
      </trkpt>
      <trkpt lat="49.28178" lon="-0.18069">
        <ele>104</ele>
        <time>2024-04-07T05:11:55Z</time>
      </trkpt>
      <trkpt lat="49.28173" lon="-0.18075">
        <ele>104</ele>
        <time>2024-04-07T05:11:56Z</time>
      </trkpt>
      <trkpt lat="49.28168" lon="-0.1808">
        <ele>104</ele>
        <time>2024-04-07T05:11:57Z</time>
      </trkpt>
      <trkpt lat="49.28162" lon="-0.18085">
        <ele>104</ele>
        <time>2024-04-07T05:11:58Z</time>
      </trkpt>
      <trkpt lat="49.28157" lon="-0.1809">
        <ele>104</ele>
        <time>2024-04-07T05:11:59Z</time>
      </trkpt>
      <trkpt lat="49.28151" lon="-0.18095">
        <ele>104</ele>
        <time>2024-04-07T05:12:00Z</time>
      </trkpt>
      <trkpt lat="49.28146" lon="-0.181">
        <ele>104</ele>
        <time>2024-04-07T05:12:01Z</time>
      </trkpt>
      <trkpt lat="49.2814" lon="-0.18106">
        <ele>104</ele>
        <time>2024-04-07T05:12:02Z</time>
      </trkpt>
      <trkpt lat="49.28135" lon="-0.18111">
        <ele>104</ele>
        <time>2024-04-07T05:12:03Z</time>
      </trkpt>
      <trkpt lat="49.2813" lon="-0.18116">
        <ele>104</ele>
        <time>2024-04-07T05:12:04Z</time>
      </trkpt>
      <trkpt lat="49.28124" lon="-0.18122">
        <ele>104</ele>
        <time>2024-04-07T05:12:05Z</time>
      </trkpt>
      <trkpt lat="49.28119" lon="-0.18127">
        <ele>104</ele>
        <time>2024-04-07T05:12:06Z</time>
      </trkpt>
      <trkpt lat="49.28113" lon="-0.18132">
        <ele>104.2</ele>
        <time>2024-04-07T05:12:07Z</time>
      </trkpt>
      <trkpt lat="49.28108" lon="-0.18138">
        <ele>104.2</ele>
        <time>2024-04-07T05:12:08Z</time>
      </trkpt>
      <trkpt lat="49.28102" lon="-0.18143">
        <ele>104.2</ele>
        <time>2024-04-07T05:12:09Z</time>
      </trkpt>
      <trkpt lat="49.28097" lon="-0.18149">
        <ele>104.2</ele>
        <time>2024-04-07T05:12:10Z</time>
      </trkpt>
      <trkpt lat="49.28091" lon="-0.18154">
        <ele>104.2</ele>
        <time>2024-04-07T05:12:11Z</time>
      </trkpt>
      <trkpt lat="49.28086" lon="-0.1816">
        <ele>104.2</ele>
        <time>2024-04-07T05:12:12Z</time>
      </trkpt>
      <trkpt lat="49.28081" lon="-0.18165">
        <ele>104.2</ele>
        <time>2024-04-07T05:12:13Z</time>
      </trkpt>
      <trkpt lat="49.28075" lon="-0.1817">
        <ele>104.2</ele>
        <time>2024-04-07T05:12:14Z</time>
      </trkpt>
      <trkpt lat="49.28069" lon="-0.18175">
        <ele>104.2</ele>
        <time>2024-04-07T05:12:15Z</time>
      </trkpt>
      <trkpt lat="49.28064" lon="-0.18181">
        <ele>104.2</ele>
        <time>2024-04-07T05:12:16Z</time>
      </trkpt>
      <trkpt lat="49.28058" lon="-0.18186">
        <ele>104.2</ele>
        <time>2024-04-07T05:12:17Z</time>
      </trkpt>
      <trkpt lat="49.28053" lon="-0.18191">
        <ele>104.2</ele>
        <time>2024-04-07T05:12:18Z</time>
      </trkpt>
      <trkpt lat="49.28047" lon="-0.18196">
        <ele>104.2</ele>
        <time>2024-04-07T05:12:19Z</time>
      </trkpt>
      <trkpt lat="49.28042" lon="-0.18202">
        <ele>104.2</ele>
        <time>2024-04-07T05:12:20Z</time>
      </trkpt>
      <trkpt lat="49.28036" lon="-0.18207">
        <ele>104.2</ele>
        <time>2024-04-07T05:12:21Z</time>
      </trkpt>
      <trkpt lat="49.28031" lon="-0.18212">
        <ele>104.2</ele>
        <time>2024-04-07T05:12:22Z</time>
      </trkpt>
      <trkpt lat="49.28025" lon="-0.18217">
        <ele>104.2</ele>
        <time>2024-04-07T05:12:23Z</time>
      </trkpt>
      <trkpt lat="49.2802" lon="-0.18222">
        <ele>104</ele>
        <time>2024-04-07T05:12:24Z</time>
      </trkpt>
      <trkpt lat="49.28014" lon="-0.18228">
        <ele>104</ele>
        <time>2024-04-07T05:12:25Z</time>
      </trkpt>
      <trkpt lat="49.28009" lon="-0.18233">
        <ele>104</ele>
        <time>2024-04-07T05:12:26Z</time>
      </trkpt>
      <trkpt lat="49.28003" lon="-0.18238">
        <ele>104</ele>
        <time>2024-04-07T05:12:27Z</time>
      </trkpt>
      <trkpt lat="49.27998" lon="-0.18243">
        <ele>103.8</ele>
        <time>2024-04-07T05:12:28Z</time>
      </trkpt>
      <trkpt lat="49.27992" lon="-0.18249">
        <ele>103.8</ele>
        <time>2024-04-07T05:12:29Z</time>
      </trkpt>
      <trkpt lat="49.27987" lon="-0.18254">
        <ele>103.8</ele>
        <time>2024-04-07T05:12:30Z</time>
      </trkpt>
      <trkpt lat="49.27981" lon="-0.18259">
        <ele>103.8</ele>
        <time>2024-04-07T05:12:31Z</time>
      </trkpt>
      <trkpt lat="49.27976" lon="-0.18264">
        <ele>103.8</ele>
        <time>2024-04-07T05:12:32Z</time>
      </trkpt>
      <trkpt lat="49.2797" lon="-0.1827">
        <ele>103.8</ele>
        <time>2024-04-07T05:12:33Z</time>
      </trkpt>
      <trkpt lat="49.27965" lon="-0.18275">
        <ele>103.8</ele>
        <time>2024-04-07T05:12:34Z</time>
      </trkpt>
      <trkpt lat="49.27959" lon="-0.18281">
        <ele>103.8</ele>
        <time>2024-04-07T05:12:35Z</time>
      </trkpt>
      <trkpt lat="49.27953" lon="-0.18286">
        <ele>103.8</ele>
        <time>2024-04-07T05:12:36Z</time>
      </trkpt>
      <trkpt lat="49.27948" lon="-0.18291">
        <ele>103.8</ele>
        <time>2024-04-07T05:12:37Z</time>
      </trkpt>
      <trkpt lat="49.27942" lon="-0.18297">
        <ele>104</ele>
        <time>2024-04-07T05:12:38Z</time>
      </trkpt>
      <trkpt lat="49.27937" lon="-0.18302">
        <ele>104</ele>
        <time>2024-04-07T05:12:39Z</time>
      </trkpt>
      <trkpt lat="49.27931" lon="-0.18308">
        <ele>104</ele>
        <time>2024-04-07T05:12:40Z</time>
      </trkpt>
      <trkpt lat="49.27925" lon="-0.18313">
        <ele>103.8</ele>
        <time>2024-04-07T05:12:41Z</time>
      </trkpt>
      <trkpt lat="49.2792" lon="-0.18318">
        <ele>103.8</ele>
        <time>2024-04-07T05:12:42Z</time>
      </trkpt>
      <trkpt lat="49.27914" lon="-0.18323">
        <ele>103.8</ele>
        <time>2024-04-07T05:12:43Z</time>
      </trkpt>
      <trkpt lat="49.27909" lon="-0.18329">
        <ele>103.6</ele>
        <time>2024-04-07T05:12:44Z</time>
      </trkpt>
      <trkpt lat="49.27903" lon="-0.18334">
        <ele>103.6</ele>
        <time>2024-04-07T05:12:45Z</time>
      </trkpt>
      <trkpt lat="49.27898" lon="-0.18339">
        <ele>103.4</ele>
        <time>2024-04-07T05:12:46Z</time>
      </trkpt>
      <trkpt lat="49.27892" lon="-0.18345">
        <ele>103.4</ele>
        <time>2024-04-07T05:12:47Z</time>
      </trkpt>
      <trkpt lat="49.27887" lon="-0.1835">
        <ele>103.4</ele>
        <time>2024-04-07T05:12:48Z</time>
      </trkpt>
      <trkpt lat="49.27881" lon="-0.18356">
        <ele>103.4</ele>
        <time>2024-04-07T05:12:49Z</time>
      </trkpt>
      <trkpt lat="49.27875" lon="-0.18361">
        <ele>103.4</ele>
        <time>2024-04-07T05:12:50Z</time>
      </trkpt>
      <trkpt lat="49.2787" lon="-0.18367">
        <ele>103.4</ele>
        <time>2024-04-07T05:12:51Z</time>
      </trkpt>
      <trkpt lat="49.27864" lon="-0.18372">
        <ele>103.4</ele>
        <time>2024-04-07T05:12:52Z</time>
      </trkpt>
      <trkpt lat="49.27859" lon="-0.18377">
        <ele>103.4</ele>
        <time>2024-04-07T05:12:53Z</time>
      </trkpt>
      <trkpt lat="49.27853" lon="-0.18382">
        <ele>103.2</ele>
        <time>2024-04-07T05:12:54Z</time>
      </trkpt>
      <trkpt lat="49.27848" lon="-0.18387">
        <ele>103</ele>
        <time>2024-04-07T05:12:55Z</time>
      </trkpt>
      <trkpt lat="49.27842" lon="-0.18392">
        <ele>102.8</ele>
        <time>2024-04-07T05:12:56Z</time>
      </trkpt>
      <trkpt lat="49.27837" lon="-0.18397">
        <ele>102.8</ele>
        <time>2024-04-07T05:12:57Z</time>
      </trkpt>
      <trkpt lat="49.27831" lon="-0.18403">
        <ele>102.8</ele>
        <time>2024-04-07T05:12:58Z</time>
      </trkpt>
      <trkpt lat="49.27826" lon="-0.18408">
        <ele>102.8</ele>
        <time>2024-04-07T05:12:59Z</time>
      </trkpt>
      <trkpt lat="49.2782" lon="-0.18413">
        <ele>103.2</ele>
        <time>2024-04-07T05:13:00Z</time>
      </trkpt>
      <trkpt lat="49.27815" lon="-0.18418">
        <ele>103.4</ele>
        <time>2024-04-07T05:13:01Z</time>
      </trkpt>
      <trkpt lat="49.27809" lon="-0.18424">
        <ele>103.6</ele>
        <time>2024-04-07T05:13:02Z</time>
      </trkpt>
      <trkpt lat="49.27804" lon="-0.18429">
        <ele>103.6</ele>
        <time>2024-04-07T05:13:03Z</time>
      </trkpt>
      <trkpt lat="49.27798" lon="-0.18435">
        <ele>103.6</ele>
        <time>2024-04-07T05:13:04Z</time>
      </trkpt>
      <trkpt lat="49.27793" lon="-0.1844">
        <ele>103.6</ele>
        <time>2024-04-07T05:13:05Z</time>
      </trkpt>
      <trkpt lat="49.27787" lon="-0.18446">
        <ele>103.6</ele>
        <time>2024-04-07T05:13:06Z</time>
      </trkpt>
      <trkpt lat="49.27782" lon="-0.18451">
        <ele>103.4</ele>
        <time>2024-04-07T05:13:07Z</time>
      </trkpt>
      <trkpt lat="49.27776" lon="-0.18456">
        <ele>103.4</ele>
        <time>2024-04-07T05:13:08Z</time>
      </trkpt>
      <trkpt lat="49.27771" lon="-0.18462">
        <ele>103.4</ele>
        <time>2024-04-07T05:13:09Z</time>
      </trkpt>
      <trkpt lat="49.27765" lon="-0.18467">
        <ele>103.6</ele>
        <time>2024-04-07T05:13:10Z</time>
      </trkpt>
      <trkpt lat="49.2776" lon="-0.18472">
        <ele>103.6</ele>
        <time>2024-04-07T05:13:11Z</time>
      </trkpt>
      <trkpt lat="49.27755" lon="-0.18478">
        <ele>103.6</ele>
        <time>2024-04-07T05:13:12Z</time>
      </trkpt>
      <trkpt lat="49.2775" lon="-0.18483">
        <ele>103.8</ele>
        <time>2024-04-07T05:13:13Z</time>
      </trkpt>
      <trkpt lat="49.27744" lon="-0.18488">
        <ele>103.8</ele>
        <time>2024-04-07T05:13:14Z</time>
      </trkpt>
      <trkpt lat="49.27733" lon="-0.18499">
        <ele>103.6</ele>
        <time>2024-04-07T05:13:15Z</time>
      </trkpt>
      <trkpt lat="49.2773" lon="-0.18502">
        <ele>103.6</ele>
        <time>2024-04-07T05:13:16Z</time>
      </trkpt>
      <trkpt lat="49.27728" lon="-0.18504">
        <ele>103.4</ele>
        <time>2024-04-07T05:13:17Z</time>
      </trkpt>
      <trkpt lat="49.27722" lon="-0.1851">
        <ele>103.4</ele>
        <time>2024-04-07T05:13:18Z</time>
      </trkpt>
      <trkpt lat="49.27716" lon="-0.18515">
        <ele>103.4</ele>
        <time>2024-04-07T05:13:19Z</time>
      </trkpt>
      <trkpt lat="49.27711" lon="-0.18521">
        <ele>103.2</ele>
        <time>2024-04-07T05:13:20Z</time>
      </trkpt>
      <trkpt lat="49.27705" lon="-0.18526">
        <ele>103.2</ele>
        <time>2024-04-07T05:13:21Z</time>
      </trkpt>
      <trkpt lat="49.27699" lon="-0.18532">
        <ele>103</ele>
        <time>2024-04-07T05:13:22Z</time>
      </trkpt>
      <trkpt lat="49.27694" lon="-0.18537">
        <ele>103</ele>
        <time>2024-04-07T05:13:23Z</time>
      </trkpt>
      <trkpt lat="49.27688" lon="-0.18543">
        <ele>103</ele>
        <time>2024-04-07T05:13:24Z</time>
      </trkpt>
      <trkpt lat="49.27682" lon="-0.18548">
        <ele>103</ele>
        <time>2024-04-07T05:13:25Z</time>
      </trkpt>
      <trkpt lat="49.27677" lon="-0.18554">
        <ele>103.2</ele>
        <time>2024-04-07T05:13:26Z</time>
      </trkpt>
      <trkpt lat="49.27671" lon="-0.1856">
        <ele>103.2</ele>
        <time>2024-04-07T05:13:27Z</time>
      </trkpt>
      <trkpt lat="49.27665" lon="-0.18566">
        <ele>103.2</ele>
        <time>2024-04-07T05:13:28Z</time>
      </trkpt>
      <trkpt lat="49.27659" lon="-0.18571">
        <ele>103.2</ele>
        <time>2024-04-07T05:13:29Z</time>
      </trkpt>
      <trkpt lat="49.27654" lon="-0.18577">
        <ele>103.2</ele>
        <time>2024-04-07T05:13:30Z</time>
      </trkpt>
      <trkpt lat="49.27648" lon="-0.18583">
        <ele>103.2</ele>
        <time>2024-04-07T05:13:31Z</time>
      </trkpt>
      <trkpt lat="49.27642" lon="-0.18588">
        <ele>103.2</ele>
        <time>2024-04-07T05:13:32Z</time>
      </trkpt>
      <trkpt lat="49.27636" lon="-0.18594">
        <ele>103.2</ele>
        <time>2024-04-07T05:13:33Z</time>
      </trkpt>
      <trkpt lat="49.27631" lon="-0.18599">
        <ele>103.2</ele>
        <time>2024-04-07T05:13:34Z</time>
      </trkpt>
      <trkpt lat="49.27625" lon="-0.18604">
        <ele>103.4</ele>
        <time>2024-04-07T05:13:35Z</time>
      </trkpt>
      <trkpt lat="49.27619" lon="-0.1861">
        <ele>103.4</ele>
        <time>2024-04-07T05:13:36Z</time>
      </trkpt>
      <trkpt lat="49.27614" lon="-0.18615">
        <ele>103.4</ele>
        <time>2024-04-07T05:13:37Z</time>
      </trkpt>
      <trkpt lat="49.27608" lon="-0.18621">
        <ele>103.4</ele>
        <time>2024-04-07T05:13:38Z</time>
      </trkpt>
      <trkpt lat="49.27603" lon="-0.18626">
        <ele>103.2</ele>
        <time>2024-04-07T05:13:39Z</time>
      </trkpt>
      <trkpt lat="49.27597" lon="-0.18631">
        <ele>103</ele>
        <time>2024-04-07T05:13:40Z</time>
      </trkpt>
      <trkpt lat="49.27591" lon="-0.18636">
        <ele>103</ele>
        <time>2024-04-07T05:13:41Z</time>
      </trkpt>
      <trkpt lat="49.27585" lon="-0.18641">
        <ele>103</ele>
        <time>2024-04-07T05:13:42Z</time>
      </trkpt>
      <trkpt lat="49.2758" lon="-0.18647">
        <ele>102.8</ele>
        <time>2024-04-07T05:13:43Z</time>
      </trkpt>
      <trkpt lat="49.27574" lon="-0.18652">
        <ele>102.8</ele>
        <time>2024-04-07T05:13:44Z</time>
      </trkpt>
      <trkpt lat="49.27568" lon="-0.18657">
        <ele>102.8</ele>
        <time>2024-04-07T05:13:45Z</time>
      </trkpt>
      <trkpt lat="49.27563" lon="-0.18662">
        <ele>102.8</ele>
        <time>2024-04-07T05:13:46Z</time>
      </trkpt>
      <trkpt lat="49.27557" lon="-0.18668">
        <ele>102.8</ele>
        <time>2024-04-07T05:13:47Z</time>
      </trkpt>
      <trkpt lat="49.27551" lon="-0.18673">
        <ele>102.8</ele>
        <time>2024-04-07T05:13:48Z</time>
      </trkpt>
      <trkpt lat="49.27545" lon="-0.18678">
        <ele>102.8</ele>
        <time>2024-04-07T05:13:49Z</time>
      </trkpt>
      <trkpt lat="49.2754" lon="-0.18684">
        <ele>102.8</ele>
        <time>2024-04-07T05:13:50Z</time>
      </trkpt>
      <trkpt lat="49.27534" lon="-0.18689">
        <ele>102.6</ele>
        <time>2024-04-07T05:13:51Z</time>
      </trkpt>
      <trkpt lat="49.27528" lon="-0.18694">
        <ele>102.6</ele>
        <time>2024-04-07T05:13:52Z</time>
      </trkpt>
      <trkpt lat="49.27523" lon="-0.187">
        <ele>102.8</ele>
        <time>2024-04-07T05:13:53Z</time>
      </trkpt>
      <trkpt lat="49.27517" lon="-0.18706">
        <ele>102.8</ele>
        <time>2024-04-07T05:13:54Z</time>
      </trkpt>
      <trkpt lat="49.27512" lon="-0.18712">
        <ele>102.8</ele>
        <time>2024-04-07T05:13:55Z</time>
      </trkpt>
      <trkpt lat="49.27506" lon="-0.18717">
        <ele>102.8</ele>
        <time>2024-04-07T05:13:56Z</time>
      </trkpt>
      <trkpt lat="49.275" lon="-0.18722">
        <ele>102.8</ele>
        <time>2024-04-07T05:13:57Z</time>
      </trkpt>
      <trkpt lat="49.27495" lon="-0.18728">
        <ele>103</ele>
        <time>2024-04-07T05:13:58Z</time>
      </trkpt>
      <trkpt lat="49.27489" lon="-0.18734">
        <ele>103.2</ele>
        <time>2024-04-07T05:13:59Z</time>
      </trkpt>
      <trkpt lat="49.27484" lon="-0.18739">
        <ele>103.2</ele>
        <time>2024-04-07T05:14:00Z</time>
      </trkpt>
      <trkpt lat="49.27478" lon="-0.18745">
        <ele>103.2</ele>
        <time>2024-04-07T05:14:01Z</time>
      </trkpt>
      <trkpt lat="49.27473" lon="-0.1875">
        <ele>103.4</ele>
        <time>2024-04-07T05:14:02Z</time>
      </trkpt>
      <trkpt lat="49.27467" lon="-0.18756">
        <ele>103.4</ele>
        <time>2024-04-07T05:14:03Z</time>
      </trkpt>
      <trkpt lat="49.27461" lon="-0.18761">
        <ele>103.4</ele>
        <time>2024-04-07T05:14:04Z</time>
      </trkpt>
      <trkpt lat="49.27456" lon="-0.18766">
        <ele>103.4</ele>
        <time>2024-04-07T05:14:05Z</time>
      </trkpt>
      <trkpt lat="49.2745" lon="-0.18772">
        <ele>103.4</ele>
        <time>2024-04-07T05:14:06Z</time>
      </trkpt>
      <trkpt lat="49.27445" lon="-0.18777">
        <ele>103.6</ele>
        <time>2024-04-07T05:14:07Z</time>
      </trkpt>
      <trkpt lat="49.27439" lon="-0.18783">
        <ele>103.6</ele>
        <time>2024-04-07T05:14:08Z</time>
      </trkpt>
      <trkpt lat="49.27433" lon="-0.18788">
        <ele>103.4</ele>
        <time>2024-04-07T05:14:09Z</time>
      </trkpt>
      <trkpt lat="49.27427" lon="-0.18793">
        <ele>103.4</ele>
        <time>2024-04-07T05:14:10Z</time>
      </trkpt>
      <trkpt lat="49.27422" lon="-0.18799">
        <ele>103.2</ele>
        <time>2024-04-07T05:14:11Z</time>
      </trkpt>
      <trkpt lat="49.27416" lon="-0.18804">
        <ele>103.2</ele>
        <time>2024-04-07T05:14:12Z</time>
      </trkpt>
      <trkpt lat="49.2741" lon="-0.18809">
        <ele>103.2</ele>
        <time>2024-04-07T05:14:13Z</time>
      </trkpt>
      <trkpt lat="49.27405" lon="-0.18815">
        <ele>103.2</ele>
        <time>2024-04-07T05:14:14Z</time>
      </trkpt>
      <trkpt lat="49.27399" lon="-0.1882">
        <ele>103.2</ele>
        <time>2024-04-07T05:14:15Z</time>
      </trkpt>
      <trkpt lat="49.27394" lon="-0.18826">
        <ele>103.2</ele>
        <time>2024-04-07T05:14:16Z</time>
      </trkpt>
      <trkpt lat="49.27388" lon="-0.18831">
        <ele>103.4</ele>
        <time>2024-04-07T05:14:17Z</time>
      </trkpt>
      <trkpt lat="49.27383" lon="-0.18836">
        <ele>103.4</ele>
        <time>2024-04-07T05:14:18Z</time>
      </trkpt>
      <trkpt lat="49.27377" lon="-0.18842">
        <ele>103.6</ele>
        <time>2024-04-07T05:14:19Z</time>
      </trkpt>
      <trkpt lat="49.27372" lon="-0.18847">
        <ele>103.6</ele>
        <time>2024-04-07T05:14:20Z</time>
      </trkpt>
      <trkpt lat="49.27366" lon="-0.18852">
        <ele>103.8</ele>
        <time>2024-04-07T05:14:21Z</time>
      </trkpt>
      <trkpt lat="49.27361" lon="-0.18857">
        <ele>103.8</ele>
        <time>2024-04-07T05:14:22Z</time>
      </trkpt>
      <trkpt lat="49.27356" lon="-0.18862">
        <ele>103.8</ele>
        <time>2024-04-07T05:14:23Z</time>
      </trkpt>
      <trkpt lat="49.2735" lon="-0.18867">
        <ele>103.8</ele>
        <time>2024-04-07T05:14:24Z</time>
      </trkpt>
      <trkpt lat="49.27345" lon="-0.18872">
        <ele>104</ele>
        <time>2024-04-07T05:14:25Z</time>
      </trkpt>
      <trkpt lat="49.2734" lon="-0.18877">
        <ele>104</ele>
        <time>2024-04-07T05:14:26Z</time>
      </trkpt>
      <trkpt lat="49.27335" lon="-0.18882">
        <ele>104.2</ele>
        <time>2024-04-07T05:14:27Z</time>
      </trkpt>
      <trkpt lat="49.2733" lon="-0.18887">
        <ele>104.4</ele>
        <time>2024-04-07T05:14:28Z</time>
      </trkpt>
      <trkpt lat="49.27325" lon="-0.18892">
        <ele>104.6</ele>
        <time>2024-04-07T05:14:29Z</time>
      </trkpt>
      <trkpt lat="49.27319" lon="-0.18897">
        <ele>104.6</ele>
        <time>2024-04-07T05:14:30Z</time>
      </trkpt>
      <trkpt lat="49.27315" lon="-0.18902">
        <ele>104.8</ele>
        <time>2024-04-07T05:14:31Z</time>
      </trkpt>
      <trkpt lat="49.2731" lon="-0.18907">
        <ele>104.8</ele>
        <time>2024-04-07T05:14:32Z</time>
      </trkpt>
      <trkpt lat="49.27305" lon="-0.18911">
        <ele>105</ele>
        <time>2024-04-07T05:14:33Z</time>
      </trkpt>
      <trkpt lat="49.273" lon="-0.18916">
        <ele>105.2</ele>
        <time>2024-04-07T05:14:34Z</time>
      </trkpt>
      <trkpt lat="49.27296" lon="-0.1892">
        <ele>105.2</ele>
        <time>2024-04-07T05:14:35Z</time>
      </trkpt>
      <trkpt lat="49.27291" lon="-0.18924">
        <ele>105.4</ele>
        <time>2024-04-07T05:14:36Z</time>
      </trkpt>
      <trkpt lat="49.27286" lon="-0.18928">
        <ele>105.4</ele>
        <time>2024-04-07T05:14:37Z</time>
      </trkpt>
      <trkpt lat="49.27282" lon="-0.18933">
        <ele>105.4</ele>
        <time>2024-04-07T05:14:38Z</time>
      </trkpt>
      <trkpt lat="49.27278" lon="-0.18937">
        <ele>105.6</ele>
        <time>2024-04-07T05:14:39Z</time>
      </trkpt>
      <trkpt lat="49.27273" lon="-0.18941">
        <ele>105.8</ele>
        <time>2024-04-07T05:14:40Z</time>
      </trkpt>
      <trkpt lat="49.27269" lon="-0.18946">
        <ele>105.8</ele>
        <time>2024-04-07T05:14:41Z</time>
      </trkpt>
      <trkpt lat="49.27264" lon="-0.18951">
        <ele>106</ele>
        <time>2024-04-07T05:14:42Z</time>
      </trkpt>
      <trkpt lat="49.27259" lon="-0.18955">
        <ele>106.2</ele>
        <time>2024-04-07T05:14:43Z</time>
      </trkpt>
      <trkpt lat="49.27255" lon="-0.18959">
        <ele>106.2</ele>
        <time>2024-04-07T05:14:44Z</time>
      </trkpt>
      <trkpt lat="49.27251" lon="-0.18963">
        <ele>106.4</ele>
        <time>2024-04-07T05:14:45Z</time>
      </trkpt>
      <trkpt lat="49.27246" lon="-0.18967">
        <ele>106.6</ele>
        <time>2024-04-07T05:14:46Z</time>
      </trkpt>
      <trkpt lat="49.27242" lon="-0.18971">
        <ele>106.8</ele>
        <time>2024-04-07T05:14:47Z</time>
      </trkpt>
      <trkpt lat="49.27238" lon="-0.18974">
        <ele>106.8</ele>
        <time>2024-04-07T05:14:48Z</time>
      </trkpt>
      <trkpt lat="49.27234" lon="-0.18978">
        <ele>107</ele>
        <time>2024-04-07T05:14:49Z</time>
      </trkpt>
      <trkpt lat="49.2723" lon="-0.18983">
        <ele>107</ele>
        <time>2024-04-07T05:14:50Z</time>
      </trkpt>
      <trkpt lat="49.27225" lon="-0.18987">
        <ele>107</ele>
        <time>2024-04-07T05:14:51Z</time>
      </trkpt>
      <trkpt lat="49.27221" lon="-0.18991">
        <ele>107.2</ele>
        <time>2024-04-07T05:14:52Z</time>
      </trkpt>
      <trkpt lat="49.27217" lon="-0.18994">
        <ele>107.4</ele>
        <time>2024-04-07T05:14:53Z</time>
      </trkpt>
      <trkpt lat="49.27212" lon="-0.18998">
        <ele>107.4</ele>
        <time>2024-04-07T05:14:54Z</time>
      </trkpt>
      <trkpt lat="49.27208" lon="-0.19002">
        <ele>107.8</ele>
        <time>2024-04-07T05:14:55Z</time>
      </trkpt>
      <trkpt lat="49.27204" lon="-0.19005">
        <ele>108</ele>
        <time>2024-04-07T05:14:56Z</time>
      </trkpt>
      <trkpt lat="49.272" lon="-0.19009">
        <ele>108.2</ele>
        <time>2024-04-07T05:14:57Z</time>
      </trkpt>
      <trkpt lat="49.27196" lon="-0.19013">
        <ele>108.6</ele>
        <time>2024-04-07T05:14:58Z</time>
      </trkpt>
      <trkpt lat="49.27192" lon="-0.19017">
        <ele>108.8</ele>
        <time>2024-04-07T05:14:59Z</time>
      </trkpt>
      <trkpt lat="49.27188" lon="-0.19021">
        <ele>109</ele>
        <time>2024-04-07T05:15:00Z</time>
      </trkpt>
      <trkpt lat="49.27184" lon="-0.19025">
        <ele>109</ele>
        <time>2024-04-07T05:15:01Z</time>
      </trkpt>
      <trkpt lat="49.2718" lon="-0.19029">
        <ele>109.2</ele>
        <time>2024-04-07T05:15:02Z</time>
      </trkpt>
      <trkpt lat="49.27173" lon="-0.19035">
        <ele>109.2</ele>
        <time>2024-04-07T05:15:03Z</time>
      </trkpt>
      <trkpt lat="49.2717" lon="-0.19038">
        <ele>109.2</ele>
        <time>2024-04-07T05:15:04Z</time>
      </trkpt>
      <trkpt lat="49.2717" lon="-0.19038">
        <ele>109.4</ele>
        <time>2024-04-07T05:15:05Z</time>
      </trkpt>
      <trkpt lat="49.27168" lon="-0.1904">
        <ele>109.6</ele>
        <time>2024-04-07T05:15:06Z</time>
      </trkpt>
      <trkpt lat="49.27164" lon="-0.19045">
        <ele>110</ele>
        <time>2024-04-07T05:15:07Z</time>
      </trkpt>
      <trkpt lat="49.27163" lon="-0.19047">
        <ele>110.4</ele>
        <time>2024-04-07T05:15:08Z</time>
      </trkpt>
      <trkpt lat="49.27162" lon="-0.19048">
        <ele>110.6</ele>
        <time>2024-04-07T05:15:09Z</time>
      </trkpt>
      <trkpt lat="49.27162" lon="-0.19048">
        <ele>110.8</ele>
        <time>2024-04-07T05:15:10Z</time>
      </trkpt>
      <trkpt lat="49.27161" lon="-0.19049">
        <ele>111</ele>
        <time>2024-04-07T05:15:11Z</time>
      </trkpt>
      <trkpt lat="49.27161" lon="-0.1905">
        <ele>111.2</ele>
        <time>2024-04-07T05:15:12Z</time>
      </trkpt>
      <trkpt lat="49.27161" lon="-0.1905">
        <ele>111.6</ele>
        <time>2024-04-07T05:15:13Z</time>
      </trkpt>
      <trkpt lat="49.27161" lon="-0.1905">
        <ele>111.6</ele>
        <time>2024-04-07T05:15:14Z</time>
      </trkpt>
      <trkpt lat="49.27161" lon="-0.1905">
        <ele>111.8</ele>
        <time>2024-04-07T05:15:15Z</time>
      </trkpt>
      <trkpt lat="49.27161" lon="-0.1905">
        <ele>112</ele>
        <time>2024-04-07T05:15:16Z</time>
      </trkpt>
      <trkpt lat="49.27161" lon="-0.1905">
        <ele>112</ele>
        <time>2024-04-07T05:15:17Z</time>
      </trkpt>
      <trkpt lat="49.27154" lon="-0.19053">
        <ele>111.4</ele>
        <time>2024-04-07T05:17:34Z</time>
      </trkpt>
      <trkpt lat="49.27152" lon="-0.19054">
        <ele>111.4</ele>
        <time>2024-04-07T05:17:35Z</time>
      </trkpt>
      <trkpt lat="49.2715" lon="-0.19056">
        <ele>111.4</ele>
        <time>2024-04-07T05:17:36Z</time>
      </trkpt>
      <trkpt lat="49.27148" lon="-0.19058">
        <ele>111.4</ele>
        <time>2024-04-07T05:17:37Z</time>
      </trkpt>
      <trkpt lat="49.27146" lon="-0.19059">
        <ele>111.2</ele>
        <time>2024-04-07T05:17:38Z</time>
      </trkpt>
      <trkpt lat="49.27143" lon="-0.19062">
        <ele>111.2</ele>
        <time>2024-04-07T05:17:39Z</time>
      </trkpt>
      <trkpt lat="49.2714" lon="-0.19064">
        <ele>111</ele>
        <time>2024-04-07T05:17:40Z</time>
      </trkpt>
      <trkpt lat="49.27137" lon="-0.19066">
        <ele>111</ele>
        <time>2024-04-07T05:17:41Z</time>
      </trkpt>
      <trkpt lat="49.27133" lon="-0.19068">
        <ele>110.8</ele>
        <time>2024-04-07T05:17:42Z</time>
      </trkpt>
      <trkpt lat="49.2713" lon="-0.1907">
        <ele>110.8</ele>
        <time>2024-04-07T05:17:43Z</time>
      </trkpt>
      <trkpt lat="49.27126" lon="-0.19072">
        <ele>110.8</ele>
        <time>2024-04-07T05:17:44Z</time>
      </trkpt>
      <trkpt lat="49.27122" lon="-0.19074">
        <ele>110.8</ele>
        <time>2024-04-07T05:17:45Z</time>
      </trkpt>
      <trkpt lat="49.27118" lon="-0.19076">
        <ele>111</ele>
        <time>2024-04-07T05:17:46Z</time>
      </trkpt>
      <trkpt lat="49.27114" lon="-0.19079">
        <ele>111</ele>
        <time>2024-04-07T05:17:47Z</time>
      </trkpt>
      <trkpt lat="49.27109" lon="-0.19082">
        <ele>111</ele>
        <time>2024-04-07T05:17:48Z</time>
      </trkpt>
      <trkpt lat="49.27105" lon="-0.19086">
        <ele>111.2</ele>
        <time>2024-04-07T05:17:49Z</time>
      </trkpt>
      <trkpt lat="49.27101" lon="-0.19089">
        <ele>111.2</ele>
        <time>2024-04-07T05:17:50Z</time>
      </trkpt>
      <trkpt lat="49.27096" lon="-0.19092">
        <ele>111.2</ele>
        <time>2024-04-07T05:17:51Z</time>
      </trkpt>
      <trkpt lat="49.27092" lon="-0.19096">
        <ele>111.2</ele>
        <time>2024-04-07T05:17:52Z</time>
      </trkpt>
      <trkpt lat="49.27088" lon="-0.19099">
        <ele>111.2</ele>
        <time>2024-04-07T05:17:53Z</time>
      </trkpt>
      <trkpt lat="49.27083" lon="-0.19103">
        <ele>111.4</ele>
        <time>2024-04-07T05:17:54Z</time>
      </trkpt>
      <trkpt lat="49.27079" lon="-0.19106">
        <ele>111.4</ele>
        <time>2024-04-07T05:17:55Z</time>
      </trkpt>
      <trkpt lat="49.27074" lon="-0.19109">
        <ele>111.4</ele>
        <time>2024-04-07T05:17:56Z</time>
      </trkpt>
      <trkpt lat="49.2707" lon="-0.19112">
        <ele>111.4</ele>
        <time>2024-04-07T05:17:57Z</time>
      </trkpt>
      <trkpt lat="49.27065" lon="-0.19116">
        <ele>111.4</ele>
        <time>2024-04-07T05:17:58Z</time>
      </trkpt>
      <trkpt lat="49.27061" lon="-0.19119">
        <ele>111.4</ele>
        <time>2024-04-07T05:17:59Z</time>
      </trkpt>
      <trkpt lat="49.27057" lon="-0.19122">
        <ele>111.4</ele>
        <time>2024-04-07T05:18:00Z</time>
      </trkpt>
      <trkpt lat="49.27052" lon="-0.19126">
        <ele>111.4</ele>
        <time>2024-04-07T05:18:01Z</time>
      </trkpt>
      <trkpt lat="49.27048" lon="-0.19129">
        <ele>111.6</ele>
        <time>2024-04-07T05:18:02Z</time>
      </trkpt>
      <trkpt lat="49.27043" lon="-0.19133">
        <ele>111.6</ele>
        <time>2024-04-07T05:18:03Z</time>
      </trkpt>
      <trkpt lat="49.27038" lon="-0.19136">
        <ele>111.6</ele>
        <time>2024-04-07T05:18:04Z</time>
      </trkpt>
      <trkpt lat="49.27033" lon="-0.1914">
        <ele>111.8</ele>
        <time>2024-04-07T05:18:05Z</time>
      </trkpt>
      <trkpt lat="49.27029" lon="-0.19144">
        <ele>111.8</ele>
        <time>2024-04-07T05:18:06Z</time>
      </trkpt>
      <trkpt lat="49.27024" lon="-0.19148">
        <ele>111.8</ele>
        <time>2024-04-07T05:18:07Z</time>
      </trkpt>
      <trkpt lat="49.27019" lon="-0.19152">
        <ele>112</ele>
        <time>2024-04-07T05:18:08Z</time>
      </trkpt>
      <trkpt lat="49.27015" lon="-0.19156">
        <ele>112</ele>
        <time>2024-04-07T05:18:09Z</time>
      </trkpt>
      <trkpt lat="49.2701" lon="-0.1916">
        <ele>112.2</ele>
        <time>2024-04-07T05:18:10Z</time>
      </trkpt>
      <trkpt lat="49.27005" lon="-0.19163">
        <ele>112.2</ele>
        <time>2024-04-07T05:18:11Z</time>
      </trkpt>
      <trkpt lat="49.27" lon="-0.19167">
        <ele>112.4</ele>
        <time>2024-04-07T05:18:12Z</time>
      </trkpt>
      <trkpt lat="49.26995" lon="-0.19171">
        <ele>112.4</ele>
        <time>2024-04-07T05:18:13Z</time>
      </trkpt>
      <trkpt lat="49.26991" lon="-0.19175">
        <ele>112.6</ele>
        <time>2024-04-07T05:18:14Z</time>
      </trkpt>
      <trkpt lat="49.26986" lon="-0.19179">
        <ele>112.6</ele>
        <time>2024-04-07T05:18:15Z</time>
      </trkpt>
      <trkpt lat="49.26981" lon="-0.19183">
        <ele>112.6</ele>
        <time>2024-04-07T05:18:16Z</time>
      </trkpt>
      <trkpt lat="49.26976" lon="-0.19187">
        <ele>112.6</ele>
        <time>2024-04-07T05:18:17Z</time>
      </trkpt>
      <trkpt lat="49.26971" lon="-0.19191">
        <ele>112.6</ele>
        <time>2024-04-07T05:18:18Z</time>
      </trkpt>
      <trkpt lat="49.26966" lon="-0.19195">
        <ele>112.6</ele>
        <time>2024-04-07T05:18:19Z</time>
      </trkpt>
      <trkpt lat="49.26961" lon="-0.19199">
        <ele>112.6</ele>
        <time>2024-04-07T05:18:20Z</time>
      </trkpt>
      <trkpt lat="49.26956" lon="-0.19203">
        <ele>112.6</ele>
        <time>2024-04-07T05:18:21Z</time>
      </trkpt>
      <trkpt lat="49.26951" lon="-0.19207">
        <ele>112.6</ele>
        <time>2024-04-07T05:18:22Z</time>
      </trkpt>
      <trkpt lat="49.26946" lon="-0.19211">
        <ele>112.6</ele>
        <time>2024-04-07T05:18:23Z</time>
      </trkpt>
      <trkpt lat="49.26941" lon="-0.19215">
        <ele>112.6</ele>
        <time>2024-04-07T05:18:24Z</time>
      </trkpt>
      <trkpt lat="49.26936" lon="-0.19219">
        <ele>112.6</ele>
        <time>2024-04-07T05:18:25Z</time>
      </trkpt>
      <trkpt lat="49.26932" lon="-0.19224">
        <ele>112.6</ele>
        <time>2024-04-07T05:18:26Z</time>
      </trkpt>
      <trkpt lat="49.26927" lon="-0.19229">
        <ele>112.6</ele>
        <time>2024-04-07T05:18:27Z</time>
      </trkpt>
      <trkpt lat="49.26922" lon="-0.19233">
        <ele>112.6</ele>
        <time>2024-04-07T05:18:28Z</time>
      </trkpt>
      <trkpt lat="49.26917" lon="-0.19237">
        <ele>112.6</ele>
        <time>2024-04-07T05:18:29Z</time>
      </trkpt>
      <trkpt lat="49.26912" lon="-0.19241">
        <ele>112.6</ele>
        <time>2024-04-07T05:18:30Z</time>
      </trkpt>
      <trkpt lat="49.26908" lon="-0.19245">
        <ele>112.8</ele>
        <time>2024-04-07T05:18:31Z</time>
      </trkpt>
      <trkpt lat="49.26903" lon="-0.19249">
        <ele>112.8</ele>
        <time>2024-04-07T05:18:32Z</time>
      </trkpt>
      <trkpt lat="49.26898" lon="-0.19253">
        <ele>112.8</ele>
        <time>2024-04-07T05:18:33Z</time>
      </trkpt>
      <trkpt lat="49.26893" lon="-0.19257">
        <ele>113</ele>
        <time>2024-04-07T05:18:34Z</time>
      </trkpt>
      <trkpt lat="49.26888" lon="-0.19261">
        <ele>113</ele>
        <time>2024-04-07T05:18:35Z</time>
      </trkpt>
      <trkpt lat="49.26883" lon="-0.19265">
        <ele>113.2</ele>
        <time>2024-04-07T05:18:36Z</time>
      </trkpt>
      <trkpt lat="49.26878" lon="-0.1927">
        <ele>113.4</ele>
        <time>2024-04-07T05:18:37Z</time>
      </trkpt>
      <trkpt lat="49.26872" lon="-0.19274">
        <ele>113.6</ele>
        <time>2024-04-07T05:18:38Z</time>
      </trkpt>
      <trkpt lat="49.26867" lon="-0.19278">
        <ele>113.6</ele>
        <time>2024-04-07T05:18:39Z</time>
      </trkpt>
      <trkpt lat="49.26862" lon="-0.19282">
        <ele>113.6</ele>
        <time>2024-04-07T05:18:40Z</time>
      </trkpt>
      <trkpt lat="49.26857" lon="-0.19286">
        <ele>113.6</ele>
        <time>2024-04-07T05:18:41Z</time>
      </trkpt>
      <trkpt lat="49.26851" lon="-0.1929">
        <ele>113.6</ele>
        <time>2024-04-07T05:18:42Z</time>
      </trkpt>
      <trkpt lat="49.26846" lon="-0.19294">
        <ele>113.6</ele>
        <time>2024-04-07T05:18:43Z</time>
      </trkpt>
      <trkpt lat="49.26841" lon="-0.19298">
        <ele>113.6</ele>
        <time>2024-04-07T05:18:44Z</time>
      </trkpt>
      <trkpt lat="49.26835" lon="-0.19302">
        <ele>113.6</ele>
        <time>2024-04-07T05:18:45Z</time>
      </trkpt>
      <trkpt lat="49.2683" lon="-0.19306">
        <ele>113.6</ele>
        <time>2024-04-07T05:18:46Z</time>
      </trkpt>
      <trkpt lat="49.26825" lon="-0.1931">
        <ele>113.6</ele>
        <time>2024-04-07T05:18:47Z</time>
      </trkpt>
      <trkpt lat="49.2682" lon="-0.19314">
        <ele>113.6</ele>
        <time>2024-04-07T05:18:48Z</time>
      </trkpt>
      <trkpt lat="49.26814" lon="-0.19318">
        <ele>113.6</ele>
        <time>2024-04-07T05:18:49Z</time>
      </trkpt>
      <trkpt lat="49.26809" lon="-0.19322">
        <ele>113.8</ele>
        <time>2024-04-07T05:18:50Z</time>
      </trkpt>
      <trkpt lat="49.26804" lon="-0.19326">
        <ele>113.8</ele>
        <time>2024-04-07T05:18:51Z</time>
      </trkpt>
      <trkpt lat="49.26799" lon="-0.19329">
        <ele>113.8</ele>
        <time>2024-04-07T05:18:52Z</time>
      </trkpt>
      <trkpt lat="49.26793" lon="-0.19333">
        <ele>113.8</ele>
        <time>2024-04-07T05:18:53Z</time>
      </trkpt>
      <trkpt lat="49.26788" lon="-0.19338">
        <ele>113.8</ele>
        <time>2024-04-07T05:18:54Z</time>
      </trkpt>
      <trkpt lat="49.26783" lon="-0.19342">
        <ele>113.8</ele>
        <time>2024-04-07T05:18:55Z</time>
      </trkpt>
      <trkpt lat="49.26777" lon="-0.19346">
        <ele>114</ele>
        <time>2024-04-07T05:18:56Z</time>
      </trkpt>
      <trkpt lat="49.26772" lon="-0.19349">
        <ele>114</ele>
        <time>2024-04-07T05:18:57Z</time>
      </trkpt>
      <trkpt lat="49.26767" lon="-0.19353">
        <ele>114</ele>
        <time>2024-04-07T05:18:58Z</time>
      </trkpt>
      <trkpt lat="49.26762" lon="-0.19357">
        <ele>114</ele>
        <time>2024-04-07T05:18:59Z</time>
      </trkpt>
      <trkpt lat="49.26756" lon="-0.19361">
        <ele>114</ele>
        <time>2024-04-07T05:19:00Z</time>
      </trkpt>
      <trkpt lat="49.26751" lon="-0.19365">
        <ele>113.8</ele>
        <time>2024-04-07T05:19:01Z</time>
      </trkpt>
      <trkpt lat="49.26746" lon="-0.19369">
        <ele>113.8</ele>
        <time>2024-04-07T05:19:02Z</time>
      </trkpt>
      <trkpt lat="49.2674" lon="-0.19372">
        <ele>113.6</ele>
        <time>2024-04-07T05:19:03Z</time>
      </trkpt>
      <trkpt lat="49.26735" lon="-0.19377">
        <ele>113.6</ele>
        <time>2024-04-07T05:19:04Z</time>
      </trkpt>
      <trkpt lat="49.2673" lon="-0.19381">
        <ele>113.4</ele>
        <time>2024-04-07T05:19:05Z</time>
      </trkpt>
      <trkpt lat="49.26724" lon="-0.19385">
        <ele>113.2</ele>
        <time>2024-04-07T05:19:06Z</time>
      </trkpt>
      <trkpt lat="49.26719" lon="-0.19389">
        <ele>112.8</ele>
        <time>2024-04-07T05:19:07Z</time>
      </trkpt>
      <trkpt lat="49.26714" lon="-0.19394">
        <ele>112.6</ele>
        <time>2024-04-07T05:19:08Z</time>
      </trkpt>
      <trkpt lat="49.26708" lon="-0.19398">
        <ele>112.4</ele>
        <time>2024-04-07T05:19:09Z</time>
      </trkpt>
      <trkpt lat="49.26703" lon="-0.19402">
        <ele>112.4</ele>
        <time>2024-04-07T05:19:10Z</time>
      </trkpt>
      <trkpt lat="49.26698" lon="-0.19406">
        <ele>112.2</ele>
        <time>2024-04-07T05:19:11Z</time>
      </trkpt>
      <trkpt lat="49.26692" lon="-0.1941">
        <ele>112.2</ele>
        <time>2024-04-07T05:19:12Z</time>
      </trkpt>
      <trkpt lat="49.26687" lon="-0.19414">
        <ele>112</ele>
        <time>2024-04-07T05:19:13Z</time>
      </trkpt>
      <trkpt lat="49.26682" lon="-0.19418">
        <ele>111.8</ele>
        <time>2024-04-07T05:19:14Z</time>
      </trkpt>
      <trkpt lat="49.26676" lon="-0.19423">
        <ele>111.4</ele>
        <time>2024-04-07T05:19:15Z</time>
      </trkpt>
      <trkpt lat="49.26671" lon="-0.19427">
        <ele>111.2</ele>
        <time>2024-04-07T05:19:16Z</time>
      </trkpt>
      <trkpt lat="49.26665" lon="-0.19432">
        <ele>111</ele>
        <time>2024-04-07T05:19:17Z</time>
      </trkpt>
      <trkpt lat="49.26659" lon="-0.19436">
        <ele>111</ele>
        <time>2024-04-07T05:19:18Z</time>
      </trkpt>
      <trkpt lat="49.26654" lon="-0.19441">
        <ele>110.8</ele>
        <time>2024-04-07T05:19:19Z</time>
      </trkpt>
      <trkpt lat="49.26648" lon="-0.19445">
        <ele>110.8</ele>
        <time>2024-04-07T05:19:20Z</time>
      </trkpt>
      <trkpt lat="49.26642" lon="-0.1945">
        <ele>111</ele>
        <time>2024-04-07T05:19:21Z</time>
      </trkpt>
      <trkpt lat="49.26636" lon="-0.19455">
        <ele>111.2</ele>
        <time>2024-04-07T05:19:22Z</time>
      </trkpt>
      <trkpt lat="49.26631" lon="-0.1946">
        <ele>111.4</ele>
        <time>2024-04-07T05:19:23Z</time>
      </trkpt>
      <trkpt lat="49.26625" lon="-0.19465">
        <ele>111.4</ele>
        <time>2024-04-07T05:19:24Z</time>
      </trkpt>
      <trkpt lat="49.2662" lon="-0.1947">
        <ele>111.2</ele>
        <time>2024-04-07T05:19:25Z</time>
      </trkpt>
      <trkpt lat="49.26615" lon="-0.19475">
        <ele>111.2</ele>
        <time>2024-04-07T05:19:26Z</time>
      </trkpt>
      <trkpt lat="49.2661" lon="-0.1948">
        <ele>111.2</ele>
        <time>2024-04-07T05:19:27Z</time>
      </trkpt>
      <trkpt lat="49.26605" lon="-0.19485">
        <ele>111.2</ele>
        <time>2024-04-07T05:19:28Z</time>
      </trkpt>
      <trkpt lat="49.266" lon="-0.1949">
        <ele>111.2</ele>
        <time>2024-04-07T05:19:29Z</time>
      </trkpt>
      <trkpt lat="49.26595" lon="-0.19496">
        <ele>111.4</ele>
        <time>2024-04-07T05:19:30Z</time>
      </trkpt>
      <trkpt lat="49.2659" lon="-0.19502">
        <ele>111.6</ele>
        <time>2024-04-07T05:19:31Z</time>
      </trkpt>
      <trkpt lat="49.26585" lon="-0.19508">
        <ele>112</ele>
        <time>2024-04-07T05:19:32Z</time>
      </trkpt>
      <trkpt lat="49.2658" lon="-0.19514">
        <ele>112</ele>
        <time>2024-04-07T05:19:33Z</time>
      </trkpt>
      <trkpt lat="49.26575" lon="-0.1952">
        <ele>112</ele>
        <time>2024-04-07T05:19:34Z</time>
      </trkpt>
      <trkpt lat="49.2657" lon="-0.19526">
        <ele>112.2</ele>
        <time>2024-04-07T05:19:35Z</time>
      </trkpt>
      <trkpt lat="49.26565" lon="-0.19532">
        <ele>112.2</ele>
        <time>2024-04-07T05:19:36Z</time>
      </trkpt>
      <trkpt lat="49.26561" lon="-0.19538">
        <ele>112.4</ele>
        <time>2024-04-07T05:19:37Z</time>
      </trkpt>
      <trkpt lat="49.26556" lon="-0.19543">
        <ele>112.4</ele>
        <time>2024-04-07T05:19:38Z</time>
      </trkpt>
      <trkpt lat="49.26551" lon="-0.19549">
        <ele>112.6</ele>
        <time>2024-04-07T05:19:39Z</time>
      </trkpt>
      <trkpt lat="49.26546" lon="-0.19555">
        <ele>112.6</ele>
        <time>2024-04-07T05:19:40Z</time>
      </trkpt>
      <trkpt lat="49.26541" lon="-0.19561">
        <ele>112.6</ele>
        <time>2024-04-07T05:19:41Z</time>
      </trkpt>
      <trkpt lat="49.26536" lon="-0.19566">
        <ele>112.8</ele>
        <time>2024-04-07T05:19:42Z</time>
      </trkpt>
      <trkpt lat="49.26532" lon="-0.19571">
        <ele>112.8</ele>
        <time>2024-04-07T05:19:43Z</time>
      </trkpt>
      <trkpt lat="49.26526" lon="-0.19576">
        <ele>112.8</ele>
        <time>2024-04-07T05:19:44Z</time>
      </trkpt>
      <trkpt lat="49.26521" lon="-0.19581">
        <ele>112.8</ele>
        <time>2024-04-07T05:19:45Z</time>
      </trkpt>
      <trkpt lat="49.26516" lon="-0.19586">
        <ele>112.8</ele>
        <time>2024-04-07T05:19:46Z</time>
      </trkpt>
      <trkpt lat="49.26511" lon="-0.1959">
        <ele>112.8</ele>
        <time>2024-04-07T05:19:47Z</time>
      </trkpt>
      <trkpt lat="49.26506" lon="-0.19593">
        <ele>113</ele>
        <time>2024-04-07T05:19:48Z</time>
      </trkpt>
      <trkpt lat="49.265" lon="-0.19597">
        <ele>113</ele>
        <time>2024-04-07T05:19:49Z</time>
      </trkpt>
      <trkpt lat="49.26495" lon="-0.196">
        <ele>113.2</ele>
        <time>2024-04-07T05:19:50Z</time>
      </trkpt>
      <trkpt lat="49.26489" lon="-0.19604">
        <ele>113.2</ele>
        <time>2024-04-07T05:19:51Z</time>
      </trkpt>
      <trkpt lat="49.26484" lon="-0.19607">
        <ele>113.2</ele>
        <time>2024-04-07T05:19:52Z</time>
      </trkpt>
      <trkpt lat="49.26478" lon="-0.19611">
        <ele>113.4</ele>
        <time>2024-04-07T05:19:53Z</time>
      </trkpt>
      <trkpt lat="49.26472" lon="-0.19614">
        <ele>113.6</ele>
        <time>2024-04-07T05:19:54Z</time>
      </trkpt>
      <trkpt lat="49.26466" lon="-0.19618">
        <ele>113.8</ele>
        <time>2024-04-07T05:19:55Z</time>
      </trkpt>
      <trkpt lat="49.2646" lon="-0.19621">
        <ele>114</ele>
        <time>2024-04-07T05:19:56Z</time>
      </trkpt>
      <trkpt lat="49.26454" lon="-0.19625">
        <ele>114.2</ele>
        <time>2024-04-07T05:19:57Z</time>
      </trkpt>
      <trkpt lat="49.26449" lon="-0.19628">
        <ele>114.4</ele>
        <time>2024-04-07T05:19:58Z</time>
      </trkpt>
      <trkpt lat="49.26443" lon="-0.19631">
        <ele>114.6</ele>
        <time>2024-04-07T05:19:59Z</time>
      </trkpt>
      <trkpt lat="49.26437" lon="-0.19634">
        <ele>114.8</ele>
        <time>2024-04-07T05:20:00Z</time>
      </trkpt>
      <trkpt lat="49.26431" lon="-0.19638">
        <ele>115</ele>
        <time>2024-04-07T05:20:01Z</time>
      </trkpt>
      <trkpt lat="49.26426" lon="-0.19641">
        <ele>115</ele>
        <time>2024-04-07T05:20:02Z</time>
      </trkpt>
      <trkpt lat="49.2642" lon="-0.19644">
        <ele>115</ele>
        <time>2024-04-07T05:20:03Z</time>
      </trkpt>
      <trkpt lat="49.26414" lon="-0.19648">
        <ele>115</ele>
        <time>2024-04-07T05:20:04Z</time>
      </trkpt>
      <trkpt lat="49.26408" lon="-0.19651">
        <ele>115.2</ele>
        <time>2024-04-07T05:20:05Z</time>
      </trkpt>
      <trkpt lat="49.26402" lon="-0.19654">
        <ele>115</ele>
        <time>2024-04-07T05:20:06Z</time>
      </trkpt>
      <trkpt lat="49.26396" lon="-0.19657">
        <ele>115</ele>
        <time>2024-04-07T05:20:07Z</time>
      </trkpt>
      <trkpt lat="49.2639" lon="-0.1966">
        <ele>115</ele>
        <time>2024-04-07T05:20:08Z</time>
      </trkpt>
      <trkpt lat="49.26384" lon="-0.19663">
        <ele>115</ele>
        <time>2024-04-07T05:20:09Z</time>
      </trkpt>
      <trkpt lat="49.26379" lon="-0.19666">
        <ele>115.2</ele>
        <time>2024-04-07T05:20:10Z</time>
      </trkpt>
      <trkpt lat="49.26373" lon="-0.19669">
        <ele>115.2</ele>
        <time>2024-04-07T05:20:11Z</time>
      </trkpt>
      <trkpt lat="49.26367" lon="-0.19671">
        <ele>115.4</ele>
        <time>2024-04-07T05:20:12Z</time>
      </trkpt>
      <trkpt lat="49.26361" lon="-0.19674">
        <ele>115.6</ele>
        <time>2024-04-07T05:20:13Z</time>
      </trkpt>
      <trkpt lat="49.2635" lon="-0.1968">
        <ele>115.8</ele>
        <time>2024-04-07T05:20:14Z</time>
      </trkpt>
      <trkpt lat="49.26344" lon="-0.19683">
        <ele>115.8</ele>
        <time>2024-04-07T05:20:15Z</time>
      </trkpt>
      <trkpt lat="49.26341" lon="-0.19684">
        <ele>116</ele>
        <time>2024-04-07T05:20:16Z</time>
      </trkpt>
      <trkpt lat="49.26338" lon="-0.19686">
        <ele>116.2</ele>
        <time>2024-04-07T05:20:17Z</time>
      </trkpt>
      <trkpt lat="49.26333" lon="-0.19688">
        <ele>116.4</ele>
        <time>2024-04-07T05:20:18Z</time>
      </trkpt>
      <trkpt lat="49.26327" lon="-0.1969">
        <ele>116.4</ele>
        <time>2024-04-07T05:20:19Z</time>
      </trkpt>
      <trkpt lat="49.26322" lon="-0.19693">
        <ele>116.6</ele>
        <time>2024-04-07T05:20:20Z</time>
      </trkpt>
      <trkpt lat="49.26316" lon="-0.19696">
        <ele>116.8</ele>
        <time>2024-04-07T05:20:21Z</time>
      </trkpt>
      <trkpt lat="49.2631" lon="-0.19699">
        <ele>116.8</ele>
        <time>2024-04-07T05:20:22Z</time>
      </trkpt>
      <trkpt lat="49.26305" lon="-0.19702">
        <ele>117</ele>
        <time>2024-04-07T05:20:23Z</time>
      </trkpt>
      <trkpt lat="49.263" lon="-0.19705">
        <ele>117</ele>
        <time>2024-04-07T05:20:24Z</time>
      </trkpt>
      <trkpt lat="49.26294" lon="-0.19708">
        <ele>117.2</ele>
        <time>2024-04-07T05:20:25Z</time>
      </trkpt>
      <trkpt lat="49.26289" lon="-0.19712">
        <ele>117.4</ele>
        <time>2024-04-07T05:20:26Z</time>
      </trkpt>
      <trkpt lat="49.26283" lon="-0.19715">
        <ele>117.4</ele>
        <time>2024-04-07T05:20:27Z</time>
      </trkpt>
      <trkpt lat="49.26278" lon="-0.19719">
        <ele>117.6</ele>
        <time>2024-04-07T05:20:28Z</time>
      </trkpt>
      <trkpt lat="49.26273" lon="-0.19723">
        <ele>117.6</ele>
        <time>2024-04-07T05:20:29Z</time>
      </trkpt>
      <trkpt lat="49.26267" lon="-0.19728">
        <ele>117.8</ele>
        <time>2024-04-07T05:20:30Z</time>
      </trkpt>
      <trkpt lat="49.26262" lon="-0.19732">
        <ele>117.8</ele>
        <time>2024-04-07T05:20:31Z</time>
      </trkpt>
      <trkpt lat="49.26257" lon="-0.19737">
        <ele>117.8</ele>
        <time>2024-04-07T05:20:32Z</time>
      </trkpt>
      <trkpt lat="49.26252" lon="-0.19741">
        <ele>117.8</ele>
        <time>2024-04-07T05:20:33Z</time>
      </trkpt>
      <trkpt lat="49.26247" lon="-0.19745">
        <ele>117.8</ele>
        <time>2024-04-07T05:20:34Z</time>
      </trkpt>
      <trkpt lat="49.26241" lon="-0.1975">
        <ele>117.8</ele>
        <time>2024-04-07T05:20:35Z</time>
      </trkpt>
      <trkpt lat="49.26236" lon="-0.19754">
        <ele>117.8</ele>
        <time>2024-04-07T05:20:36Z</time>
      </trkpt>
      <trkpt lat="49.26231" lon="-0.19759">
        <ele>117.8</ele>
        <time>2024-04-07T05:20:37Z</time>
      </trkpt>
      <trkpt lat="49.26226" lon="-0.19764">
        <ele>117.8</ele>
        <time>2024-04-07T05:20:38Z</time>
      </trkpt>
      <trkpt lat="49.26221" lon="-0.19768">
        <ele>118</ele>
        <time>2024-04-07T05:20:39Z</time>
      </trkpt>
      <trkpt lat="49.26215" lon="-0.19773">
        <ele>118</ele>
        <time>2024-04-07T05:20:40Z</time>
      </trkpt>
      <trkpt lat="49.2621" lon="-0.19778">
        <ele>118.2</ele>
        <time>2024-04-07T05:20:41Z</time>
      </trkpt>
      <trkpt lat="49.26205" lon="-0.19783">
        <ele>118.2</ele>
        <time>2024-04-07T05:20:42Z</time>
      </trkpt>
      <trkpt lat="49.262" lon="-0.19789">
        <ele>118.2</ele>
        <time>2024-04-07T05:20:43Z</time>
      </trkpt>
      <trkpt lat="49.26194" lon="-0.19795">
        <ele>118.2</ele>
        <time>2024-04-07T05:20:44Z</time>
      </trkpt>
      <trkpt lat="49.2619" lon="-0.19801">
        <ele>118.4</ele>
        <time>2024-04-07T05:20:45Z</time>
      </trkpt>
      <trkpt lat="49.26185" lon="-0.19807">
        <ele>118.4</ele>
        <time>2024-04-07T05:20:46Z</time>
      </trkpt>
      <trkpt lat="49.2618" lon="-0.19814">
        <ele>118.4</ele>
        <time>2024-04-07T05:20:47Z</time>
      </trkpt>
      <trkpt lat="49.26175" lon="-0.1982">
        <ele>118.2</ele>
        <time>2024-04-07T05:20:48Z</time>
      </trkpt>
      <trkpt lat="49.2617" lon="-0.19827">
        <ele>118.2</ele>
        <time>2024-04-07T05:20:49Z</time>
      </trkpt>
      <trkpt lat="49.26166" lon="-0.19833">
        <ele>118</ele>
        <time>2024-04-07T05:20:50Z</time>
      </trkpt>
      <trkpt lat="49.26161" lon="-0.19841">
        <ele>118</ele>
        <time>2024-04-07T05:20:51Z</time>
      </trkpt>
      <trkpt lat="49.26157" lon="-0.19848">
        <ele>117.8</ele>
        <time>2024-04-07T05:20:52Z</time>
      </trkpt>
      <trkpt lat="49.26152" lon="-0.19855">
        <ele>117.8</ele>
        <time>2024-04-07T05:20:53Z</time>
      </trkpt>
      <trkpt lat="49.26148" lon="-0.19862">
        <ele>117.6</ele>
        <time>2024-04-07T05:20:54Z</time>
      </trkpt>
      <trkpt lat="49.26143" lon="-0.19869">
        <ele>117.6</ele>
        <time>2024-04-07T05:20:55Z</time>
      </trkpt>
      <trkpt lat="49.26139" lon="-0.19877">
        <ele>117.4</ele>
        <time>2024-04-07T05:20:56Z</time>
      </trkpt>
      <trkpt lat="49.26134" lon="-0.19884">
        <ele>117.2</ele>
        <time>2024-04-07T05:20:57Z</time>
      </trkpt>
      <trkpt lat="49.26129" lon="-0.19892">
        <ele>117.2</ele>
        <time>2024-04-07T05:20:58Z</time>
      </trkpt>
      <trkpt lat="49.26125" lon="-0.19899">
        <ele>117</ele>
        <time>2024-04-07T05:20:59Z</time>
      </trkpt>
      <trkpt lat="49.2612" lon="-0.19907">
        <ele>116.8</ele>
        <time>2024-04-07T05:21:00Z</time>
      </trkpt>
      <trkpt lat="49.26115" lon="-0.19914">
        <ele>116.8</ele>
        <time>2024-04-07T05:21:01Z</time>
      </trkpt>
      <trkpt lat="49.26111" lon="-0.19922">
        <ele>116.6</ele>
        <time>2024-04-07T05:21:02Z</time>
      </trkpt>
      <trkpt lat="49.26106" lon="-0.19929">
        <ele>116.4</ele>
        <time>2024-04-07T05:21:03Z</time>
      </trkpt>
      <trkpt lat="49.26101" lon="-0.19936">
        <ele>116.2</ele>
        <time>2024-04-07T05:21:04Z</time>
      </trkpt>
      <trkpt lat="49.26097" lon="-0.19943">
        <ele>116</ele>
        <time>2024-04-07T05:21:05Z</time>
      </trkpt>
      <trkpt lat="49.26093" lon="-0.19951">
        <ele>115.8</ele>
        <time>2024-04-07T05:21:06Z</time>
      </trkpt>
      <trkpt lat="49.26088" lon="-0.19958">
        <ele>115.8</ele>
        <time>2024-04-07T05:21:07Z</time>
      </trkpt>
      <trkpt lat="49.26083" lon="-0.19966">
        <ele>115.6</ele>
        <time>2024-04-07T05:21:08Z</time>
      </trkpt>
      <trkpt lat="49.26079" lon="-0.19973">
        <ele>115.6</ele>
        <time>2024-04-07T05:21:09Z</time>
      </trkpt>
      <trkpt lat="49.26074" lon="-0.19981">
        <ele>115.8</ele>
        <time>2024-04-07T05:21:10Z</time>
      </trkpt>
      <trkpt lat="49.2607" lon="-0.19988">
        <ele>115.8</ele>
        <time>2024-04-07T05:21:11Z</time>
      </trkpt>
      <trkpt lat="49.26066" lon="-0.19995">
        <ele>115.8</ele>
        <time>2024-04-07T05:21:12Z</time>
      </trkpt>
      <trkpt lat="49.26062" lon="-0.20001">
        <ele>116</ele>
        <time>2024-04-07T05:21:13Z</time>
      </trkpt>
      <trkpt lat="49.26058" lon="-0.20008">
        <ele>116.2</ele>
        <time>2024-04-07T05:21:14Z</time>
      </trkpt>
      <trkpt lat="49.26054" lon="-0.20015">
        <ele>116.4</ele>
        <time>2024-04-07T05:21:15Z</time>
      </trkpt>
      <trkpt lat="49.26049" lon="-0.20022">
        <ele>116.4</ele>
        <time>2024-04-07T05:21:16Z</time>
      </trkpt>
      <trkpt lat="49.26045" lon="-0.20029">
        <ele>116.6</ele>
        <time>2024-04-07T05:21:17Z</time>
      </trkpt>
      <trkpt lat="49.26041" lon="-0.20035">
        <ele>116.6</ele>
        <time>2024-04-07T05:21:18Z</time>
      </trkpt>
      <trkpt lat="49.26037" lon="-0.20043">
        <ele>116.8</ele>
        <time>2024-04-07T05:21:19Z</time>
      </trkpt>
      <trkpt lat="49.26032" lon="-0.2005">
        <ele>116.8</ele>
        <time>2024-04-07T05:21:20Z</time>
      </trkpt>
      <trkpt lat="49.26028" lon="-0.20057">
        <ele>116.8</ele>
        <time>2024-04-07T05:21:21Z</time>
      </trkpt>
      <trkpt lat="49.26024" lon="-0.20064">
        <ele>116.8</ele>
        <time>2024-04-07T05:21:22Z</time>
      </trkpt>
      <trkpt lat="49.2602" lon="-0.2007">
        <ele>117</ele>
        <time>2024-04-07T05:21:23Z</time>
      </trkpt>
      <trkpt lat="49.26015" lon="-0.20077">
        <ele>117</ele>
        <time>2024-04-07T05:21:24Z</time>
      </trkpt>
      <trkpt lat="49.26011" lon="-0.20083">
        <ele>117</ele>
        <time>2024-04-07T05:21:25Z</time>
      </trkpt>
      <trkpt lat="49.26007" lon="-0.20089">
        <ele>117.2</ele>
        <time>2024-04-07T05:21:26Z</time>
      </trkpt>
      <trkpt lat="49.26002" lon="-0.20095">
        <ele>117.2</ele>
        <time>2024-04-07T05:21:27Z</time>
      </trkpt>
      <trkpt lat="49.25998" lon="-0.201">
        <ele>117.4</ele>
        <time>2024-04-07T05:21:28Z</time>
      </trkpt>
      <trkpt lat="49.25993" lon="-0.20106">
        <ele>117.4</ele>
        <time>2024-04-07T05:21:29Z</time>
      </trkpt>
      <trkpt lat="49.25989" lon="-0.20112">
        <ele>117.6</ele>
        <time>2024-04-07T05:21:30Z</time>
      </trkpt>
      <trkpt lat="49.25985" lon="-0.20118">
        <ele>117.6</ele>
        <time>2024-04-07T05:21:31Z</time>
      </trkpt>
      <trkpt lat="49.25981" lon="-0.20124">
        <ele>117.8</ele>
        <time>2024-04-07T05:21:32Z</time>
      </trkpt>
      <trkpt lat="49.25976" lon="-0.2013">
        <ele>118</ele>
        <time>2024-04-07T05:21:33Z</time>
      </trkpt>
      <trkpt lat="49.25972" lon="-0.20135">
        <ele>118.4</ele>
        <time>2024-04-07T05:21:34Z</time>
      </trkpt>
      <trkpt lat="49.25968" lon="-0.2014">
        <ele>118.6</ele>
        <time>2024-04-07T05:21:35Z</time>
      </trkpt>
      <trkpt lat="49.25964" lon="-0.20146">
        <ele>118.6</ele>
        <time>2024-04-07T05:21:36Z</time>
      </trkpt>
      <trkpt lat="49.2596" lon="-0.20152">
        <ele>118.8</ele>
        <time>2024-04-07T05:21:37Z</time>
      </trkpt>
      <trkpt lat="49.25956" lon="-0.20157">
        <ele>119</ele>
        <time>2024-04-07T05:21:38Z</time>
      </trkpt>
      <trkpt lat="49.25952" lon="-0.20162">
        <ele>119.2</ele>
        <time>2024-04-07T05:21:39Z</time>
      </trkpt>
      <trkpt lat="49.25947" lon="-0.20168">
        <ele>119.4</ele>
        <time>2024-04-07T05:21:40Z</time>
      </trkpt>
      <trkpt lat="49.25943" lon="-0.20173">
        <ele>119.6</ele>
        <time>2024-04-07T05:21:41Z</time>
      </trkpt>
      <trkpt lat="49.25939" lon="-0.20179">
        <ele>119.8</ele>
        <time>2024-04-07T05:21:42Z</time>
      </trkpt>
      <trkpt lat="49.25934" lon="-0.20184">
        <ele>120</ele>
        <time>2024-04-07T05:21:43Z</time>
      </trkpt>
      <trkpt lat="49.25931" lon="-0.2019">
        <ele>120</ele>
        <time>2024-04-07T05:21:44Z</time>
      </trkpt>
      <trkpt lat="49.25927" lon="-0.20195">
        <ele>120.2</ele>
        <time>2024-04-07T05:21:45Z</time>
      </trkpt>
      <trkpt lat="49.25923" lon="-0.202">
        <ele>120.2</ele>
        <time>2024-04-07T05:21:46Z</time>
      </trkpt>
      <trkpt lat="49.25918" lon="-0.20205">
        <ele>120.2</ele>
        <time>2024-04-07T05:21:47Z</time>
      </trkpt>
      <trkpt lat="49.25914" lon="-0.20211">
        <ele>120.2</ele>
        <time>2024-04-07T05:21:48Z</time>
      </trkpt>
      <trkpt lat="49.2591" lon="-0.20216">
        <ele>120.2</ele>
        <time>2024-04-07T05:21:49Z</time>
      </trkpt>
      <trkpt lat="49.25906" lon="-0.20221">
        <ele>120.2</ele>
        <time>2024-04-07T05:21:50Z</time>
      </trkpt>
      <trkpt lat="49.25901" lon="-0.20227">
        <ele>120.4</ele>
        <time>2024-04-07T05:21:51Z</time>
      </trkpt>
      <trkpt lat="49.25897" lon="-0.20232">
        <ele>120.4</ele>
        <time>2024-04-07T05:21:52Z</time>
      </trkpt>
      <trkpt lat="49.25892" lon="-0.20237">
        <ele>120.8</ele>
        <time>2024-04-07T05:21:53Z</time>
      </trkpt>
      <trkpt lat="49.25888" lon="-0.20242">
        <ele>120.8</ele>
        <time>2024-04-07T05:21:54Z</time>
      </trkpt>
      <trkpt lat="49.25883" lon="-0.20247">
        <ele>121</ele>
        <time>2024-04-07T05:21:55Z</time>
      </trkpt>
      <trkpt lat="49.25879" lon="-0.20252">
        <ele>121.2</ele>
        <time>2024-04-07T05:21:56Z</time>
      </trkpt>
      <trkpt lat="49.25874" lon="-0.20257">
        <ele>121.4</ele>
        <time>2024-04-07T05:21:57Z</time>
      </trkpt>
      <trkpt lat="49.25869" lon="-0.20262">
        <ele>121.4</ele>
        <time>2024-04-07T05:21:58Z</time>
      </trkpt>
      <trkpt lat="49.25865" lon="-0.20267">
        <ele>121.4</ele>
        <time>2024-04-07T05:21:59Z</time>
      </trkpt>
      <trkpt lat="49.2586" lon="-0.20273">
        <ele>121.6</ele>
        <time>2024-04-07T05:22:00Z</time>
      </trkpt>
      <trkpt lat="49.25856" lon="-0.20278">
        <ele>121.6</ele>
        <time>2024-04-07T05:22:01Z</time>
      </trkpt>
      <trkpt lat="49.25852" lon="-0.20283">
        <ele>121.8</ele>
        <time>2024-04-07T05:22:02Z</time>
      </trkpt>
      <trkpt lat="49.25847" lon="-0.20288">
        <ele>121.8</ele>
        <time>2024-04-07T05:22:03Z</time>
      </trkpt>
      <trkpt lat="49.25843" lon="-0.20293">
        <ele>121.8</ele>
        <time>2024-04-07T05:22:04Z</time>
      </trkpt>
      <trkpt lat="49.25838" lon="-0.20298">
        <ele>121.8</ele>
        <time>2024-04-07T05:22:05Z</time>
      </trkpt>
      <trkpt lat="49.25834" lon="-0.20303">
        <ele>121.8</ele>
        <time>2024-04-07T05:22:06Z</time>
      </trkpt>
      <trkpt lat="49.2583" lon="-0.20309">
        <ele>122</ele>
        <time>2024-04-07T05:22:07Z</time>
      </trkpt>
      <trkpt lat="49.25826" lon="-0.20314">
        <ele>122</ele>
        <time>2024-04-07T05:22:08Z</time>
      </trkpt>
      <trkpt lat="49.25821" lon="-0.2032">
        <ele>122</ele>
        <time>2024-04-07T05:22:09Z</time>
      </trkpt>
      <trkpt lat="49.25817" lon="-0.20325">
        <ele>122.2</ele>
        <time>2024-04-07T05:22:10Z</time>
      </trkpt>
      <trkpt lat="49.25813" lon="-0.2033">
        <ele>122.2</ele>
        <time>2024-04-07T05:22:11Z</time>
      </trkpt>
      <trkpt lat="49.25809" lon="-0.20336">
        <ele>122.4</ele>
        <time>2024-04-07T05:22:12Z</time>
      </trkpt>
      <trkpt lat="49.25804" lon="-0.20342">
        <ele>122.6</ele>
        <time>2024-04-07T05:22:13Z</time>
      </trkpt>
      <trkpt lat="49.258" lon="-0.20347">
        <ele>123</ele>
        <time>2024-04-07T05:22:14Z</time>
      </trkpt>
      <trkpt lat="49.25796" lon="-0.20353">
        <ele>123</ele>
        <time>2024-04-07T05:22:15Z</time>
      </trkpt>
      <trkpt lat="49.25791" lon="-0.20358">
        <ele>123</ele>
        <time>2024-04-07T05:22:16Z</time>
      </trkpt>
      <trkpt lat="49.25787" lon="-0.20363">
        <ele>123.2</ele>
        <time>2024-04-07T05:22:17Z</time>
      </trkpt>
      <trkpt lat="49.25782" lon="-0.20369">
        <ele>123.2</ele>
        <time>2024-04-07T05:22:18Z</time>
      </trkpt>
      <trkpt lat="49.25778" lon="-0.20374">
        <ele>123.2</ele>
        <time>2024-04-07T05:22:19Z</time>
      </trkpt>
      <trkpt lat="49.25774" lon="-0.2038">
        <ele>123.2</ele>
        <time>2024-04-07T05:22:20Z</time>
      </trkpt>
      <trkpt lat="49.2577" lon="-0.20385">
        <ele>123.2</ele>
        <time>2024-04-07T05:22:21Z</time>
      </trkpt>
      <trkpt lat="49.25765" lon="-0.20391">
        <ele>123.4</ele>
        <time>2024-04-07T05:22:22Z</time>
      </trkpt>
      <trkpt lat="49.25761" lon="-0.20397">
        <ele>123.6</ele>
        <time>2024-04-07T05:22:23Z</time>
      </trkpt>
      <trkpt lat="49.25757" lon="-0.20402">
        <ele>123.8</ele>
        <time>2024-04-07T05:22:24Z</time>
      </trkpt>
      <trkpt lat="49.25752" lon="-0.20407">
        <ele>123.8</ele>
        <time>2024-04-07T05:22:25Z</time>
      </trkpt>
      <trkpt lat="49.25748" lon="-0.20412">
        <ele>124</ele>
        <time>2024-04-07T05:22:26Z</time>
      </trkpt>
      <trkpt lat="49.25743" lon="-0.20417">
        <ele>124</ele>
        <time>2024-04-07T05:22:27Z</time>
      </trkpt>
      <trkpt lat="49.25739" lon="-0.20422">
        <ele>124.2</ele>
        <time>2024-04-07T05:22:28Z</time>
      </trkpt>
      <trkpt lat="49.25734" lon="-0.20428">
        <ele>124.2</ele>
        <time>2024-04-07T05:22:29Z</time>
      </trkpt>
      <trkpt lat="49.2573" lon="-0.20433">
        <ele>124.2</ele>
        <time>2024-04-07T05:22:30Z</time>
      </trkpt>
      <trkpt lat="49.25726" lon="-0.20438">
        <ele>124.4</ele>
        <time>2024-04-07T05:22:31Z</time>
      </trkpt>
      <trkpt lat="49.25721" lon="-0.20444">
        <ele>124.4</ele>
        <time>2024-04-07T05:22:32Z</time>
      </trkpt>
      <trkpt lat="49.25717" lon="-0.20449">
        <ele>124.6</ele>
        <time>2024-04-07T05:22:33Z</time>
      </trkpt>
      <trkpt lat="49.25713" lon="-0.20454">
        <ele>124.6</ele>
        <time>2024-04-07T05:22:34Z</time>
      </trkpt>
      <trkpt lat="49.25708" lon="-0.20459">
        <ele>124.8</ele>
        <time>2024-04-07T05:22:35Z</time>
      </trkpt>
      <trkpt lat="49.25704" lon="-0.20464">
        <ele>125</ele>
        <time>2024-04-07T05:22:36Z</time>
      </trkpt>
      <trkpt lat="49.25699" lon="-0.20469">
        <ele>125.2</ele>
        <time>2024-04-07T05:22:37Z</time>
      </trkpt>
      <trkpt lat="49.25695" lon="-0.20475">
        <ele>125.2</ele>
        <time>2024-04-07T05:22:38Z</time>
      </trkpt>
      <trkpt lat="49.25691" lon="-0.2048">
        <ele>125.4</ele>
        <time>2024-04-07T05:22:39Z</time>
      </trkpt>
      <trkpt lat="49.25686" lon="-0.20486">
        <ele>125.4</ele>
        <time>2024-04-07T05:22:40Z</time>
      </trkpt>
      <trkpt lat="49.25682" lon="-0.20491">
        <ele>125.4</ele>
        <time>2024-04-07T05:22:41Z</time>
      </trkpt>
      <trkpt lat="49.25678" lon="-0.20497">
        <ele>125.4</ele>
        <time>2024-04-07T05:22:42Z</time>
      </trkpt>
      <trkpt lat="49.25674" lon="-0.20501">
        <ele>125.4</ele>
        <time>2024-04-07T05:22:43Z</time>
      </trkpt>
      <trkpt lat="49.2567" lon="-0.20506">
        <ele>125.6</ele>
        <time>2024-04-07T05:22:44Z</time>
      </trkpt>
      <trkpt lat="49.25666" lon="-0.20511">
        <ele>125.8</ele>
        <time>2024-04-07T05:22:45Z</time>
      </trkpt>
      <trkpt lat="49.25662" lon="-0.20515">
        <ele>125.8</ele>
        <time>2024-04-07T05:22:46Z</time>
      </trkpt>
      <trkpt lat="49.25658" lon="-0.20519">
        <ele>126</ele>
        <time>2024-04-07T05:22:47Z</time>
      </trkpt>
      <trkpt lat="49.25654" lon="-0.20523">
        <ele>126.2</ele>
        <time>2024-04-07T05:22:48Z</time>
      </trkpt>
      <trkpt lat="49.2565" lon="-0.20527">
        <ele>126.6</ele>
        <time>2024-04-07T05:22:49Z</time>
      </trkpt>
      <trkpt lat="49.25646" lon="-0.20532">
        <ele>126.8</ele>
        <time>2024-04-07T05:22:50Z</time>
      </trkpt>
      <trkpt lat="49.25641" lon="-0.20536">
        <ele>126.8</ele>
        <time>2024-04-07T05:22:51Z</time>
      </trkpt>
      <trkpt lat="49.25637" lon="-0.2054">
        <ele>127</ele>
        <time>2024-04-07T05:22:52Z</time>
      </trkpt>
      <trkpt lat="49.25633" lon="-0.20544">
        <ele>127</ele>
        <time>2024-04-07T05:22:53Z</time>
      </trkpt>
      <trkpt lat="49.25628" lon="-0.20547">
        <ele>127.2</ele>
        <time>2024-04-07T05:22:54Z</time>
      </trkpt>
      <trkpt lat="49.25624" lon="-0.20551">
        <ele>127.2</ele>
        <time>2024-04-07T05:22:55Z</time>
      </trkpt>
      <trkpt lat="49.2562" lon="-0.20555">
        <ele>127.4</ele>
        <time>2024-04-07T05:22:56Z</time>
      </trkpt>
      <trkpt lat="49.25616" lon="-0.20559">
        <ele>127.6</ele>
        <time>2024-04-07T05:22:57Z</time>
      </trkpt>
      <trkpt lat="49.25612" lon="-0.20563">
        <ele>127.8</ele>
        <time>2024-04-07T05:22:58Z</time>
      </trkpt>
      <trkpt lat="49.25607" lon="-0.20568">
        <ele>128</ele>
        <time>2024-04-07T05:22:59Z</time>
      </trkpt>
      <trkpt lat="49.25603" lon="-0.20572">
        <ele>128</ele>
        <time>2024-04-07T05:23:00Z</time>
      </trkpt>
      <trkpt lat="49.25599" lon="-0.20577">
        <ele>128.2</ele>
        <time>2024-04-07T05:23:01Z</time>
      </trkpt>
      <trkpt lat="49.25594" lon="-0.20582">
        <ele>128.2</ele>
        <time>2024-04-07T05:23:02Z</time>
      </trkpt>
      <trkpt lat="49.2559" lon="-0.20586">
        <ele>128.4</ele>
        <time>2024-04-07T05:23:03Z</time>
      </trkpt>
      <trkpt lat="49.25586" lon="-0.2059">
        <ele>128.4</ele>
        <time>2024-04-07T05:23:04Z</time>
      </trkpt>
      <trkpt lat="49.25581" lon="-0.20595">
        <ele>128.6</ele>
        <time>2024-04-07T05:23:05Z</time>
      </trkpt>
      <trkpt lat="49.25577" lon="-0.206">
        <ele>128.6</ele>
        <time>2024-04-07T05:23:06Z</time>
      </trkpt>
      <trkpt lat="49.25573" lon="-0.20605">
        <ele>128.6</ele>
        <time>2024-04-07T05:23:07Z</time>
      </trkpt>
      <trkpt lat="49.25569" lon="-0.20611">
        <ele>128.8</ele>
        <time>2024-04-07T05:23:08Z</time>
      </trkpt>
      <trkpt lat="49.25564" lon="-0.20616">
        <ele>129</ele>
        <time>2024-04-07T05:23:09Z</time>
      </trkpt>
      <trkpt lat="49.2556" lon="-0.20622">
        <ele>129</ele>
        <time>2024-04-07T05:23:10Z</time>
      </trkpt>
      <trkpt lat="49.25556" lon="-0.20627">
        <ele>129.2</ele>
        <time>2024-04-07T05:23:11Z</time>
      </trkpt>
      <trkpt lat="49.25552" lon="-0.20632">
        <ele>129.4</ele>
        <time>2024-04-07T05:23:12Z</time>
      </trkpt>
      <trkpt lat="49.25548" lon="-0.20638">
        <ele>129.6</ele>
        <time>2024-04-07T05:23:13Z</time>
      </trkpt>
      <trkpt lat="49.25544" lon="-0.20643">
        <ele>129.6</ele>
        <time>2024-04-07T05:23:14Z</time>
      </trkpt>
      <trkpt lat="49.2554" lon="-0.20649">
        <ele>129.6</ele>
        <time>2024-04-07T05:23:15Z</time>
      </trkpt>
      <trkpt lat="49.25536" lon="-0.20654">
        <ele>129.8</ele>
        <time>2024-04-07T05:23:16Z</time>
      </trkpt>
      <trkpt lat="49.25532" lon="-0.2066">
        <ele>130</ele>
        <time>2024-04-07T05:23:17Z</time>
      </trkpt>
      <trkpt lat="49.25528" lon="-0.20665">
        <ele>130.2</ele>
        <time>2024-04-07T05:23:18Z</time>
      </trkpt>
      <trkpt lat="49.25524" lon="-0.2067">
        <ele>130.2</ele>
        <time>2024-04-07T05:23:19Z</time>
      </trkpt>
      <trkpt lat="49.25519" lon="-0.20676">
        <ele>130.2</ele>
        <time>2024-04-07T05:23:20Z</time>
      </trkpt>
      <trkpt lat="49.25515" lon="-0.2068">
        <ele>130.2</ele>
        <time>2024-04-07T05:23:21Z</time>
      </trkpt>
      <trkpt lat="49.25511" lon="-0.20685">
        <ele>130.2</ele>
        <time>2024-04-07T05:23:22Z</time>
      </trkpt>
      <trkpt lat="49.25506" lon="-0.2069">
        <ele>130</ele>
        <time>2024-04-07T05:23:23Z</time>
      </trkpt>
      <trkpt lat="49.25502" lon="-0.20695">
        <ele>130</ele>
        <time>2024-04-07T05:23:24Z</time>
      </trkpt>
      <trkpt lat="49.25497" lon="-0.20699">
        <ele>130</ele>
        <time>2024-04-07T05:23:25Z</time>
      </trkpt>
      <trkpt lat="49.25492" lon="-0.20703">
        <ele>129.6</ele>
        <time>2024-04-07T05:23:26Z</time>
      </trkpt>
      <trkpt lat="49.25487" lon="-0.20706">
        <ele>129.4</ele>
        <time>2024-04-07T05:23:27Z</time>
      </trkpt>
      <trkpt lat="49.25482" lon="-0.2071">
        <ele>129.4</ele>
        <time>2024-04-07T05:23:28Z</time>
      </trkpt>
      <trkpt lat="49.25477" lon="-0.20714">
        <ele>129.6</ele>
        <time>2024-04-07T05:23:29Z</time>
      </trkpt>
      <trkpt lat="49.25472" lon="-0.20717">
        <ele>129.6</ele>
        <time>2024-04-07T05:23:30Z</time>
      </trkpt>
      <trkpt lat="49.25467" lon="-0.20721">
        <ele>129.8</ele>
        <time>2024-04-07T05:23:31Z</time>
      </trkpt>
      <trkpt lat="49.25462" lon="-0.20725">
        <ele>129.8</ele>
        <time>2024-04-07T05:23:32Z</time>
      </trkpt>
      <trkpt lat="49.25457" lon="-0.20728">
        <ele>130</ele>
        <time>2024-04-07T05:23:33Z</time>
      </trkpt>
      <trkpt lat="49.25452" lon="-0.20732">
        <ele>130.2</ele>
        <time>2024-04-07T05:23:34Z</time>
      </trkpt>
      <trkpt lat="49.25447" lon="-0.20735">
        <ele>130.4</ele>
        <time>2024-04-07T05:23:35Z</time>
      </trkpt>
      <trkpt lat="49.25442" lon="-0.20739">
        <ele>130.4</ele>
        <time>2024-04-07T05:23:36Z</time>
      </trkpt>
      <trkpt lat="49.25437" lon="-0.20742">
        <ele>130.6</ele>
        <time>2024-04-07T05:23:37Z</time>
      </trkpt>
      <trkpt lat="49.25432" lon="-0.20746">
        <ele>130.6</ele>
        <time>2024-04-07T05:23:38Z</time>
      </trkpt>
      <trkpt lat="49.25427" lon="-0.20751">
        <ele>130.6</ele>
        <time>2024-04-07T05:23:39Z</time>
      </trkpt>
      <trkpt lat="49.25422" lon="-0.20755">
        <ele>130.4</ele>
        <time>2024-04-07T05:23:40Z</time>
      </trkpt>
      <trkpt lat="49.25417" lon="-0.20759">
        <ele>130.4</ele>
        <time>2024-04-07T05:23:41Z</time>
      </trkpt>
      <trkpt lat="49.25412" lon="-0.20763">
        <ele>130.4</ele>
        <time>2024-04-07T05:23:42Z</time>
      </trkpt>
      <trkpt lat="49.25407" lon="-0.20767">
        <ele>130.4</ele>
        <time>2024-04-07T05:23:43Z</time>
      </trkpt>
      <trkpt lat="49.25402" lon="-0.20771">
        <ele>130.2</ele>
        <time>2024-04-07T05:23:44Z</time>
      </trkpt>
      <trkpt lat="49.25397" lon="-0.20775">
        <ele>130.2</ele>
        <time>2024-04-07T05:23:45Z</time>
      </trkpt>
      <trkpt lat="49.25391" lon="-0.20779">
        <ele>130</ele>
        <time>2024-04-07T05:23:46Z</time>
      </trkpt>
      <trkpt lat="49.25386" lon="-0.20782">
        <ele>130</ele>
        <time>2024-04-07T05:23:47Z</time>
      </trkpt>
      <trkpt lat="49.25381" lon="-0.20786">
        <ele>130</ele>
        <time>2024-04-07T05:23:48Z</time>
      </trkpt>
      <trkpt lat="49.25376" lon="-0.20789">
        <ele>130</ele>
        <time>2024-04-07T05:23:49Z</time>
      </trkpt>
      <trkpt lat="49.2537" lon="-0.20792">
        <ele>130</ele>
        <time>2024-04-07T05:23:50Z</time>
      </trkpt>
      <trkpt lat="49.25365" lon="-0.20795">
        <ele>130.4</ele>
        <time>2024-04-07T05:23:51Z</time>
      </trkpt>
      <trkpt lat="49.2536" lon="-0.20798">
        <ele>130.8</ele>
        <time>2024-04-07T05:23:52Z</time>
      </trkpt>
      <trkpt lat="49.25355" lon="-0.20801">
        <ele>131</ele>
        <time>2024-04-07T05:23:53Z</time>
      </trkpt>
      <trkpt lat="49.25349" lon="-0.20804">
        <ele>131</ele>
        <time>2024-04-07T05:23:54Z</time>
      </trkpt>
      <trkpt lat="49.25344" lon="-0.20807">
        <ele>131.2</ele>
        <time>2024-04-07T05:23:55Z</time>
      </trkpt>
      <trkpt lat="49.25338" lon="-0.2081">
        <ele>131.2</ele>
        <time>2024-04-07T05:23:56Z</time>
      </trkpt>
      <trkpt lat="49.25333" lon="-0.20813">
        <ele>131.2</ele>
        <time>2024-04-07T05:23:57Z</time>
      </trkpt>
      <trkpt lat="49.25327" lon="-0.20816">
        <ele>131.2</ele>
        <time>2024-04-07T05:23:58Z</time>
      </trkpt>
      <trkpt lat="49.25322" lon="-0.2082">
        <ele>131.2</ele>
        <time>2024-04-07T05:23:59Z</time>
      </trkpt>
      <trkpt lat="49.25316" lon="-0.20823">
        <ele>131.2</ele>
        <time>2024-04-07T05:24:00Z</time>
      </trkpt>
      <trkpt lat="49.25305" lon="-0.20829">
        <ele>131</ele>
        <time>2024-04-07T05:24:01Z</time>
      </trkpt>
      <trkpt lat="49.25302" lon="-0.2083">
        <ele>131</ele>
        <time>2024-04-07T05:24:02Z</time>
      </trkpt>
      <trkpt lat="49.25299" lon="-0.20832">
        <ele>130.8</ele>
        <time>2024-04-07T05:24:03Z</time>
      </trkpt>
      <trkpt lat="49.25294" lon="-0.20835">
        <ele>130.8</ele>
        <time>2024-04-07T05:24:04Z</time>
      </trkpt>
      <trkpt lat="49.25288" lon="-0.20837">
        <ele>130.8</ele>
        <time>2024-04-07T05:24:05Z</time>
      </trkpt>
      <trkpt lat="49.25283" lon="-0.2084">
        <ele>131</ele>
        <time>2024-04-07T05:24:06Z</time>
      </trkpt>
      <trkpt lat="49.25277" lon="-0.20843">
        <ele>131.2</ele>
        <time>2024-04-07T05:24:07Z</time>
      </trkpt>
      <trkpt lat="49.25272" lon="-0.20846">
        <ele>131.2</ele>
        <time>2024-04-07T05:24:08Z</time>
      </trkpt>
      <trkpt lat="49.25266" lon="-0.20849">
        <ele>131.4</ele>
        <time>2024-04-07T05:24:09Z</time>
      </trkpt>
      <trkpt lat="49.2526" lon="-0.20852">
        <ele>131.4</ele>
        <time>2024-04-07T05:24:10Z</time>
      </trkpt>
      <trkpt lat="49.25255" lon="-0.20855">
        <ele>131.4</ele>
        <time>2024-04-07T05:24:11Z</time>
      </trkpt>
      <trkpt lat="49.2525" lon="-0.20858">
        <ele>131.6</ele>
        <time>2024-04-07T05:24:12Z</time>
      </trkpt>
      <trkpt lat="49.25244" lon="-0.20861">
        <ele>131.6</ele>
        <time>2024-04-07T05:24:13Z</time>
      </trkpt>
      <trkpt lat="49.25239" lon="-0.20864">
        <ele>131.8</ele>
        <time>2024-04-07T05:24:14Z</time>
      </trkpt>
      <trkpt lat="49.25233" lon="-0.20867">
        <ele>132</ele>
        <time>2024-04-07T05:24:15Z</time>
      </trkpt>
      <trkpt lat="49.25227" lon="-0.2087">
        <ele>132.2</ele>
        <time>2024-04-07T05:24:16Z</time>
      </trkpt>
      <trkpt lat="49.25222" lon="-0.20873">
        <ele>132.4</ele>
        <time>2024-04-07T05:24:17Z</time>
      </trkpt>
      <trkpt lat="49.25217" lon="-0.20876">
        <ele>132.4</ele>
        <time>2024-04-07T05:24:18Z</time>
      </trkpt>
      <trkpt lat="49.25211" lon="-0.2088">
        <ele>132.6</ele>
        <time>2024-04-07T05:24:19Z</time>
      </trkpt>
      <trkpt lat="49.25206" lon="-0.20883">
        <ele>132.6</ele>
        <time>2024-04-07T05:24:20Z</time>
      </trkpt>
      <trkpt lat="49.252" lon="-0.20886">
        <ele>132.6</ele>
        <time>2024-04-07T05:24:21Z</time>
      </trkpt>
      <trkpt lat="49.25195" lon="-0.20889">
        <ele>132.6</ele>
        <time>2024-04-07T05:24:22Z</time>
      </trkpt>
      <trkpt lat="49.25189" lon="-0.20892">
        <ele>132.6</ele>
        <time>2024-04-07T05:24:23Z</time>
      </trkpt>
      <trkpt lat="49.25184" lon="-0.20895">
        <ele>132.8</ele>
        <time>2024-04-07T05:24:24Z</time>
      </trkpt>
      <trkpt lat="49.25178" lon="-0.20898">
        <ele>132.8</ele>
        <time>2024-04-07T05:24:25Z</time>
      </trkpt>
      <trkpt lat="49.25173" lon="-0.20901">
        <ele>132.8</ele>
        <time>2024-04-07T05:24:26Z</time>
      </trkpt>
      <trkpt lat="49.25168" lon="-0.20904">
        <ele>132.8</ele>
        <time>2024-04-07T05:24:27Z</time>
      </trkpt>
      <trkpt lat="49.25162" lon="-0.20908">
        <ele>132.8</ele>
        <time>2024-04-07T05:24:28Z</time>
      </trkpt>
      <trkpt lat="49.25157" lon="-0.20911">
        <ele>132.8</ele>
        <time>2024-04-07T05:24:29Z</time>
      </trkpt>
      <trkpt lat="49.25152" lon="-0.20914">
        <ele>133</ele>
        <time>2024-04-07T05:24:30Z</time>
      </trkpt>
      <trkpt lat="49.25146" lon="-0.20918">
        <ele>133.2</ele>
        <time>2024-04-07T05:24:31Z</time>
      </trkpt>
      <trkpt lat="49.25141" lon="-0.20921">
        <ele>133.4</ele>
        <time>2024-04-07T05:24:32Z</time>
      </trkpt>
      <trkpt lat="49.25136" lon="-0.20925">
        <ele>133.6</ele>
        <time>2024-04-07T05:24:33Z</time>
      </trkpt>
      <trkpt lat="49.2513" lon="-0.20928">
        <ele>133.8</ele>
        <time>2024-04-07T05:24:34Z</time>
      </trkpt>
      <trkpt lat="49.25125" lon="-0.20931">
        <ele>133.8</ele>
        <time>2024-04-07T05:24:35Z</time>
      </trkpt>
      <trkpt lat="49.2512" lon="-0.20935">
        <ele>134</ele>
        <time>2024-04-07T05:24:36Z</time>
      </trkpt>
      <trkpt lat="49.25114" lon="-0.20939">
        <ele>134</ele>
        <time>2024-04-07T05:24:37Z</time>
      </trkpt>
      <trkpt lat="49.25109" lon="-0.20942">
        <ele>134.4</ele>
        <time>2024-04-07T05:24:38Z</time>
      </trkpt>
      <trkpt lat="49.25104" lon="-0.20946">
        <ele>134.6</ele>
        <time>2024-04-07T05:24:39Z</time>
      </trkpt>
      <trkpt lat="49.25099" lon="-0.2095">
        <ele>134.8</ele>
        <time>2024-04-07T05:24:40Z</time>
      </trkpt>
      <trkpt lat="49.25093" lon="-0.20953">
        <ele>135</ele>
        <time>2024-04-07T05:24:41Z</time>
      </trkpt>
      <trkpt lat="49.25088" lon="-0.20957">
        <ele>135</ele>
        <time>2024-04-07T05:24:42Z</time>
      </trkpt>
      <trkpt lat="49.25083" lon="-0.20961">
        <ele>135.2</ele>
        <time>2024-04-07T05:24:43Z</time>
      </trkpt>
      <trkpt lat="49.25078" lon="-0.20965">
        <ele>135.2</ele>
        <time>2024-04-07T05:24:44Z</time>
      </trkpt>
      <trkpt lat="49.25072" lon="-0.20969">
        <ele>135.2</ele>
        <time>2024-04-07T05:24:45Z</time>
      </trkpt>
      <trkpt lat="49.25067" lon="-0.20973">
        <ele>135.4</ele>
        <time>2024-04-07T05:24:46Z</time>
      </trkpt>
      <trkpt lat="49.25062" lon="-0.20977">
        <ele>135.4</ele>
        <time>2024-04-07T05:24:47Z</time>
      </trkpt>
      <trkpt lat="49.25056" lon="-0.20981">
        <ele>135.4</ele>
        <time>2024-04-07T05:24:48Z</time>
      </trkpt>
      <trkpt lat="49.25051" lon="-0.20985">
        <ele>135.4</ele>
        <time>2024-04-07T05:24:49Z</time>
      </trkpt>
      <trkpt lat="49.25046" lon="-0.20989">
        <ele>135.4</ele>
        <time>2024-04-07T05:24:50Z</time>
      </trkpt>
      <trkpt lat="49.25041" lon="-0.20993">
        <ele>135.2</ele>
        <time>2024-04-07T05:24:51Z</time>
      </trkpt>
      <trkpt lat="49.25036" lon="-0.20997">
        <ele>135</ele>
        <time>2024-04-07T05:24:52Z</time>
      </trkpt>
      <trkpt lat="49.25031" lon="-0.21001">
        <ele>135</ele>
        <time>2024-04-07T05:24:53Z</time>
      </trkpt>
      <trkpt lat="49.25026" lon="-0.21006">
        <ele>135</ele>
        <time>2024-04-07T05:24:54Z</time>
      </trkpt>
      <trkpt lat="49.25021" lon="-0.21011">
        <ele>135</ele>
        <time>2024-04-07T05:24:55Z</time>
      </trkpt>
      <trkpt lat="49.25016" lon="-0.21016">
        <ele>135</ele>
        <time>2024-04-07T05:24:56Z</time>
      </trkpt>
      <trkpt lat="49.25011" lon="-0.21021">
        <ele>135</ele>
        <time>2024-04-07T05:24:57Z</time>
      </trkpt>
      <trkpt lat="49.25007" lon="-0.21025">
        <ele>135</ele>
        <time>2024-04-07T05:24:58Z</time>
      </trkpt>
      <trkpt lat="49.25002" lon="-0.2103">
        <ele>135</ele>
        <time>2024-04-07T05:24:59Z</time>
      </trkpt>
      <trkpt lat="49.24997" lon="-0.21035">
        <ele>135.2</ele>
        <time>2024-04-07T05:25:00Z</time>
      </trkpt>
      <trkpt lat="49.24993" lon="-0.2104">
        <ele>135.2</ele>
        <time>2024-04-07T05:25:01Z</time>
      </trkpt>
      <trkpt lat="49.24988" lon="-0.21045">
        <ele>135</ele>
        <time>2024-04-07T05:25:02Z</time>
      </trkpt>
      <trkpt lat="49.24983" lon="-0.2105">
        <ele>135</ele>
        <time>2024-04-07T05:25:03Z</time>
      </trkpt>
      <trkpt lat="49.24978" lon="-0.21055">
        <ele>135</ele>
        <time>2024-04-07T05:25:04Z</time>
      </trkpt>
      <trkpt lat="49.24974" lon="-0.21059">
        <ele>135</ele>
        <time>2024-04-07T05:25:05Z</time>
      </trkpt>
      <trkpt lat="49.24969" lon="-0.21064">
        <ele>135</ele>
        <time>2024-04-07T05:25:06Z</time>
      </trkpt>
      <trkpt lat="49.24964" lon="-0.21068">
        <ele>135</ele>
        <time>2024-04-07T05:25:07Z</time>
      </trkpt>
      <trkpt lat="49.24958" lon="-0.21072">
        <ele>135</ele>
        <time>2024-04-07T05:25:08Z</time>
      </trkpt>
      <trkpt lat="49.24953" lon="-0.21077">
        <ele>135.4</ele>
        <time>2024-04-07T05:25:09Z</time>
      </trkpt>
      <trkpt lat="49.24948" lon="-0.2108">
        <ele>135.6</ele>
        <time>2024-04-07T05:25:10Z</time>
      </trkpt>
      <trkpt lat="49.24942" lon="-0.21084">
        <ele>135.8</ele>
        <time>2024-04-07T05:25:11Z</time>
      </trkpt>
      <trkpt lat="49.24937" lon="-0.21087">
        <ele>136</ele>
        <time>2024-04-07T05:25:12Z</time>
      </trkpt>
      <trkpt lat="49.24931" lon="-0.2109">
        <ele>136</ele>
        <time>2024-04-07T05:25:13Z</time>
      </trkpt>
      <trkpt lat="49.24925" lon="-0.21093">
        <ele>136</ele>
        <time>2024-04-07T05:25:14Z</time>
      </trkpt>
      <trkpt lat="49.2492" lon="-0.21096">
        <ele>136.2</ele>
        <time>2024-04-07T05:25:15Z</time>
      </trkpt>
      <trkpt lat="49.24914" lon="-0.21099">
        <ele>136.2</ele>
        <time>2024-04-07T05:25:16Z</time>
      </trkpt>
      <trkpt lat="49.24909" lon="-0.21102">
        <ele>136.4</ele>
        <time>2024-04-07T05:25:17Z</time>
      </trkpt>
      <trkpt lat="49.24903" lon="-0.21105">
        <ele>136.6</ele>
        <time>2024-04-07T05:25:18Z</time>
      </trkpt>
      <trkpt lat="49.24897" lon="-0.21108">
        <ele>136.8</ele>
        <time>2024-04-07T05:25:19Z</time>
      </trkpt>
      <trkpt lat="49.24892" lon="-0.21111">
        <ele>137.2</ele>
        <time>2024-04-07T05:25:20Z</time>
      </trkpt>
      <trkpt lat="49.24886" lon="-0.21114">
        <ele>137.4</ele>
        <time>2024-04-07T05:25:21Z</time>
      </trkpt>
      <trkpt lat="49.2488" lon="-0.21117">
        <ele>137.6</ele>
        <time>2024-04-07T05:25:22Z</time>
      </trkpt>
      <trkpt lat="49.24875" lon="-0.2112">
        <ele>137.6</ele>
        <time>2024-04-07T05:25:23Z</time>
      </trkpt>
      <trkpt lat="49.24869" lon="-0.21124">
        <ele>137.6</ele>
        <time>2024-04-07T05:25:24Z</time>
      </trkpt>
      <trkpt lat="49.24863" lon="-0.21126">
        <ele>137.6</ele>
        <time>2024-04-07T05:25:25Z</time>
      </trkpt>
      <trkpt lat="49.24857" lon="-0.21129">
        <ele>137.6</ele>
        <time>2024-04-07T05:25:26Z</time>
      </trkpt>
      <trkpt lat="49.24851" lon="-0.21132">
        <ele>137.6</ele>
        <time>2024-04-07T05:25:27Z</time>
      </trkpt>
      <trkpt lat="49.24846" lon="-0.21136">
        <ele>137.6</ele>
        <time>2024-04-07T05:25:28Z</time>
      </trkpt>
      <trkpt lat="49.2484" lon="-0.21139">
        <ele>137.4</ele>
        <time>2024-04-07T05:25:29Z</time>
      </trkpt>
      <trkpt lat="49.24834" lon="-0.21143">
        <ele>137.4</ele>
        <time>2024-04-07T05:25:30Z</time>
      </trkpt>
      <trkpt lat="49.24829" lon="-0.21146">
        <ele>137.4</ele>
        <time>2024-04-07T05:25:31Z</time>
      </trkpt>
      <trkpt lat="49.24823" lon="-0.2115">
        <ele>137.4</ele>
        <time>2024-04-07T05:25:32Z</time>
      </trkpt>
      <trkpt lat="49.24817" lon="-0.21153">
        <ele>137.4</ele>
        <time>2024-04-07T05:25:33Z</time>
      </trkpt>
      <trkpt lat="49.24812" lon="-0.21157">
        <ele>137.2</ele>
        <time>2024-04-07T05:25:34Z</time>
      </trkpt>
      <trkpt lat="49.24806" lon="-0.21161">
        <ele>137.2</ele>
        <time>2024-04-07T05:25:35Z</time>
      </trkpt>
      <trkpt lat="49.24801" lon="-0.21164">
        <ele>137.4</ele>
        <time>2024-04-07T05:25:36Z</time>
      </trkpt>
      <trkpt lat="49.24795" lon="-0.21167">
        <ele>137.4</ele>
        <time>2024-04-07T05:25:37Z</time>
      </trkpt>
      <trkpt lat="49.2479" lon="-0.21171">
        <ele>137.6</ele>
        <time>2024-04-07T05:25:38Z</time>
      </trkpt>
      <trkpt lat="49.24785" lon="-0.21175">
        <ele>137.8</ele>
        <time>2024-04-07T05:25:39Z</time>
      </trkpt>
      <trkpt lat="49.24779" lon="-0.21179">
        <ele>137.8</ele>
        <time>2024-04-07T05:25:40Z</time>
      </trkpt>
      <trkpt lat="49.24774" lon="-0.21183">
        <ele>138</ele>
        <time>2024-04-07T05:25:41Z</time>
      </trkpt>
      <trkpt lat="49.24769" lon="-0.21187">
        <ele>138.2</ele>
        <time>2024-04-07T05:25:42Z</time>
      </trkpt>
      <trkpt lat="49.24764" lon="-0.2119">
        <ele>138.4</ele>
        <time>2024-04-07T05:25:43Z</time>
      </trkpt>
      <trkpt lat="49.24759" lon="-0.21194">
        <ele>138.6</ele>
        <time>2024-04-07T05:25:44Z</time>
      </trkpt>
      <trkpt lat="49.24754" lon="-0.21197">
        <ele>138.8</ele>
        <time>2024-04-07T05:25:45Z</time>
      </trkpt>
      <trkpt lat="49.24749" lon="-0.21201">
        <ele>139</ele>
        <time>2024-04-07T05:25:46Z</time>
      </trkpt>
      <trkpt lat="49.24744" lon="-0.21204">
        <ele>139.4</ele>
        <time>2024-04-07T05:25:47Z</time>
      </trkpt>
      <trkpt lat="49.24739" lon="-0.21208">
        <ele>139.8</ele>
        <time>2024-04-07T05:25:48Z</time>
      </trkpt>
      <trkpt lat="49.24734" lon="-0.21211">
        <ele>140</ele>
        <time>2024-04-07T05:25:49Z</time>
      </trkpt>
      <trkpt lat="49.24729" lon="-0.21215">
        <ele>140</ele>
        <time>2024-04-07T05:25:50Z</time>
      </trkpt>
      <trkpt lat="49.24724" lon="-0.21218">
        <ele>140.2</ele>
        <time>2024-04-07T05:25:51Z</time>
      </trkpt>
      <trkpt lat="49.24719" lon="-0.21222">
        <ele>140</ele>
        <time>2024-04-07T05:25:52Z</time>
      </trkpt>
      <trkpt lat="49.24714" lon="-0.21225">
        <ele>140</ele>
        <time>2024-04-07T05:25:53Z</time>
      </trkpt>
      <trkpt lat="49.2471" lon="-0.21229">
        <ele>140</ele>
        <time>2024-04-07T05:25:54Z</time>
      </trkpt>
      <trkpt lat="49.24705" lon="-0.21232">
        <ele>139.8</ele>
        <time>2024-04-07T05:25:55Z</time>
      </trkpt>
      <trkpt lat="49.247" lon="-0.21235">
        <ele>139.8</ele>
        <time>2024-04-07T05:25:56Z</time>
      </trkpt>
      <trkpt lat="49.24696" lon="-0.21238">
        <ele>139.8</ele>
        <time>2024-04-07T05:25:57Z</time>
      </trkpt>
      <trkpt lat="49.24691" lon="-0.21241">
        <ele>139.6</ele>
        <time>2024-04-07T05:25:58Z</time>
      </trkpt>
      <trkpt lat="49.24687" lon="-0.21245">
        <ele>139.6</ele>
        <time>2024-04-07T05:25:59Z</time>
      </trkpt>
      <trkpt lat="49.24682" lon="-0.21248">
        <ele>139.8</ele>
        <time>2024-04-07T05:26:00Z</time>
      </trkpt>
      <trkpt lat="49.24677" lon="-0.21251">
        <ele>139.8</ele>
        <time>2024-04-07T05:26:01Z</time>
      </trkpt>
      <trkpt lat="49.24672" lon="-0.21255">
        <ele>140</ele>
        <time>2024-04-07T05:26:02Z</time>
      </trkpt>
      <trkpt lat="49.24668" lon="-0.21259">
        <ele>140</ele>
        <time>2024-04-07T05:26:03Z</time>
      </trkpt>
      <trkpt lat="49.24663" lon="-0.21263">
        <ele>140</ele>
        <time>2024-04-07T05:26:04Z</time>
      </trkpt>
      <trkpt lat="49.24658" lon="-0.21267">
        <ele>140</ele>
        <time>2024-04-07T05:26:05Z</time>
      </trkpt>
      <trkpt lat="49.24654" lon="-0.21271">
        <ele>140</ele>
        <time>2024-04-07T05:26:06Z</time>
      </trkpt>
      <trkpt lat="49.24649" lon="-0.21277">
        <ele>140</ele>
        <time>2024-04-07T05:26:07Z</time>
      </trkpt>
      <trkpt lat="49.24645" lon="-0.21282">
        <ele>140</ele>
        <time>2024-04-07T05:26:08Z</time>
      </trkpt>
      <trkpt lat="49.2464" lon="-0.21288">
        <ele>140</ele>
        <time>2024-04-07T05:26:09Z</time>
      </trkpt>
      <trkpt lat="49.24637" lon="-0.21294">
        <ele>140</ele>
        <time>2024-04-07T05:26:10Z</time>
      </trkpt>
      <trkpt lat="49.24633" lon="-0.213">
        <ele>140</ele>
        <time>2024-04-07T05:26:11Z</time>
      </trkpt>
      <trkpt lat="49.24629" lon="-0.21306">
        <ele>140</ele>
        <time>2024-04-07T05:26:12Z</time>
      </trkpt>
      <trkpt lat="49.24626" lon="-0.21313">
        <ele>140.2</ele>
        <time>2024-04-07T05:26:13Z</time>
      </trkpt>
      <trkpt lat="49.24622" lon="-0.21319">
        <ele>140.2</ele>
        <time>2024-04-07T05:26:14Z</time>
      </trkpt>
      <trkpt lat="49.24619" lon="-0.21326">
        <ele>140.4</ele>
        <time>2024-04-07T05:26:15Z</time>
      </trkpt>
      <trkpt lat="49.24616" lon="-0.21333">
        <ele>140.4</ele>
        <time>2024-04-07T05:26:16Z</time>
      </trkpt>
      <trkpt lat="49.24612" lon="-0.2134">
        <ele>140.6</ele>
        <time>2024-04-07T05:26:17Z</time>
      </trkpt>
      <trkpt lat="49.24605" lon="-0.21353">
        <ele>140.6</ele>
        <time>2024-04-07T05:26:18Z</time>
      </trkpt>
      <trkpt lat="49.24604" lon="-0.21356">
        <ele>140.8</ele>
        <time>2024-04-07T05:26:19Z</time>
      </trkpt>
      <trkpt lat="49.24602" lon="-0.21359">
        <ele>140.8</ele>
        <time>2024-04-07T05:26:20Z</time>
      </trkpt>
      <trkpt lat="49.24599" lon="-0.21366">
        <ele>141</ele>
        <time>2024-04-07T05:26:21Z</time>
      </trkpt>
      <trkpt lat="49.24596" lon="-0.21372">
        <ele>141.4</ele>
        <time>2024-04-07T05:26:22Z</time>
      </trkpt>
      <trkpt lat="49.24592" lon="-0.21378">
        <ele>141.6</ele>
        <time>2024-04-07T05:26:23Z</time>
      </trkpt>
      <trkpt lat="49.24589" lon="-0.21385">
        <ele>141.8</ele>
        <time>2024-04-07T05:26:24Z</time>
      </trkpt>
      <trkpt lat="49.24586" lon="-0.21391">
        <ele>142</ele>
        <time>2024-04-07T05:26:25Z</time>
      </trkpt>
      <trkpt lat="49.24583" lon="-0.21398">
        <ele>142.2</ele>
        <time>2024-04-07T05:26:26Z</time>
      </trkpt>
      <trkpt lat="49.2458" lon="-0.21404">
        <ele>142.4</ele>
        <time>2024-04-07T05:26:27Z</time>
      </trkpt>
      <trkpt lat="49.24577" lon="-0.21411">
        <ele>142.6</ele>
        <time>2024-04-07T05:26:28Z</time>
      </trkpt>
      <trkpt lat="49.24573" lon="-0.21417">
        <ele>142.6</ele>
        <time>2024-04-07T05:26:29Z</time>
      </trkpt>
      <trkpt lat="49.2457" lon="-0.21424">
        <ele>142.8</ele>
        <time>2024-04-07T05:26:30Z</time>
      </trkpt>
      <trkpt lat="49.24567" lon="-0.21431">
        <ele>142.8</ele>
        <time>2024-04-07T05:26:31Z</time>
      </trkpt>
      <trkpt lat="49.24564" lon="-0.21437">
        <ele>142.8</ele>
        <time>2024-04-07T05:26:32Z</time>
      </trkpt>
      <trkpt lat="49.24561" lon="-0.21444">
        <ele>142.8</ele>
        <time>2024-04-07T05:26:33Z</time>
      </trkpt>
      <trkpt lat="49.24557" lon="-0.2145">
        <ele>142.8</ele>
        <time>2024-04-07T05:26:34Z</time>
      </trkpt>
      <trkpt lat="49.24554" lon="-0.21456">
        <ele>142.8</ele>
        <time>2024-04-07T05:26:35Z</time>
      </trkpt>
      <trkpt lat="49.24551" lon="-0.21463">
        <ele>142.8</ele>
        <time>2024-04-07T05:26:36Z</time>
      </trkpt>
      <trkpt lat="49.24548" lon="-0.21469">
        <ele>142.6</ele>
        <time>2024-04-07T05:26:37Z</time>
      </trkpt>
      <trkpt lat="49.24544" lon="-0.21476">
        <ele>142.8</ele>
        <time>2024-04-07T05:26:38Z</time>
      </trkpt>
      <trkpt lat="49.24541" lon="-0.21482">
        <ele>142.8</ele>
        <time>2024-04-07T05:26:39Z</time>
      </trkpt>
      <trkpt lat="49.24537" lon="-0.21489">
        <ele>142.8</ele>
        <time>2024-04-07T05:26:40Z</time>
      </trkpt>
      <trkpt lat="49.24534" lon="-0.21496">
        <ele>142.8</ele>
        <time>2024-04-07T05:26:41Z</time>
      </trkpt>
      <trkpt lat="49.2453" lon="-0.21502">
        <ele>143</ele>
        <time>2024-04-07T05:26:42Z</time>
      </trkpt>
      <trkpt lat="49.24527" lon="-0.21509">
        <ele>143.2</ele>
        <time>2024-04-07T05:26:43Z</time>
      </trkpt>
      <trkpt lat="49.24523" lon="-0.21516">
        <ele>143.4</ele>
        <time>2024-04-07T05:26:44Z</time>
      </trkpt>
      <trkpt lat="49.2452" lon="-0.21522">
        <ele>143.6</ele>
        <time>2024-04-07T05:26:45Z</time>
      </trkpt>
      <trkpt lat="49.24516" lon="-0.21529">
        <ele>143.6</ele>
        <time>2024-04-07T05:26:46Z</time>
      </trkpt>
      <trkpt lat="49.24513" lon="-0.21536">
        <ele>143.6</ele>
        <time>2024-04-07T05:26:47Z</time>
      </trkpt>
      <trkpt lat="49.2451" lon="-0.21542">
        <ele>143.4</ele>
        <time>2024-04-07T05:26:48Z</time>
      </trkpt>
      <trkpt lat="49.24506" lon="-0.21549">
        <ele>143.4</ele>
        <time>2024-04-07T05:26:49Z</time>
      </trkpt>
      <trkpt lat="49.24503" lon="-0.21555">
        <ele>143.4</ele>
        <time>2024-04-07T05:26:50Z</time>
      </trkpt>
      <trkpt lat="49.24499" lon="-0.21562">
        <ele>143.4</ele>
        <time>2024-04-07T05:26:51Z</time>
      </trkpt>
      <trkpt lat="49.24496" lon="-0.21569">
        <ele>143.6</ele>
        <time>2024-04-07T05:26:52Z</time>
      </trkpt>
      <trkpt lat="49.24492" lon="-0.21575">
        <ele>143.8</ele>
        <time>2024-04-07T05:26:53Z</time>
      </trkpt>
      <trkpt lat="49.24489" lon="-0.21582">
        <ele>144</ele>
        <time>2024-04-07T05:26:54Z</time>
      </trkpt>
      <trkpt lat="49.24485" lon="-0.21588">
        <ele>144.4</ele>
        <time>2024-04-07T05:26:55Z</time>
      </trkpt>
      <trkpt lat="49.24482" lon="-0.21595">
        <ele>144.6</ele>
        <time>2024-04-07T05:26:56Z</time>
      </trkpt>
      <trkpt lat="49.24478" lon="-0.21601">
        <ele>144.6</ele>
        <time>2024-04-07T05:26:57Z</time>
      </trkpt>
      <trkpt lat="49.24475" lon="-0.21608">
        <ele>144.6</ele>
        <time>2024-04-07T05:26:58Z</time>
      </trkpt>
      <trkpt lat="49.24471" lon="-0.21614">
        <ele>144.8</ele>
        <time>2024-04-07T05:26:59Z</time>
      </trkpt>
      <trkpt lat="49.24468" lon="-0.21621">
        <ele>145</ele>
        <time>2024-04-07T05:27:00Z</time>
      </trkpt>
      <trkpt lat="49.24464" lon="-0.21628">
        <ele>145</ele>
        <time>2024-04-07T05:27:01Z</time>
      </trkpt>
      <trkpt lat="49.24461" lon="-0.21634">
        <ele>145.2</ele>
        <time>2024-04-07T05:27:02Z</time>
      </trkpt>
      <trkpt lat="49.24457" lon="-0.21641">
        <ele>145.2</ele>
        <time>2024-04-07T05:27:03Z</time>
      </trkpt>
      <trkpt lat="49.24454" lon="-0.21648">
        <ele>145.4</ele>
        <time>2024-04-07T05:27:04Z</time>
      </trkpt>
      <trkpt lat="49.24451" lon="-0.21654">
        <ele>145.4</ele>
        <time>2024-04-07T05:27:05Z</time>
      </trkpt>
      <trkpt lat="49.24447" lon="-0.21661">
        <ele>145.4</ele>
        <time>2024-04-07T05:27:06Z</time>
      </trkpt>
      <trkpt lat="49.24444" lon="-0.21667">
        <ele>145.4</ele>
        <time>2024-04-07T05:27:07Z</time>
      </trkpt>
      <trkpt lat="49.24441" lon="-0.21673">
        <ele>145.4</ele>
        <time>2024-04-07T05:27:08Z</time>
      </trkpt>
      <trkpt lat="49.24437" lon="-0.21679">
        <ele>145.4</ele>
        <time>2024-04-07T05:27:09Z</time>
      </trkpt>
      <trkpt lat="49.24434" lon="-0.21686">
        <ele>145.6</ele>
        <time>2024-04-07T05:27:10Z</time>
      </trkpt>
      <trkpt lat="49.24431" lon="-0.21692">
        <ele>145.6</ele>
        <time>2024-04-07T05:27:11Z</time>
      </trkpt>
      <trkpt lat="49.24428" lon="-0.21697">
        <ele>146</ele>
        <time>2024-04-07T05:27:12Z</time>
      </trkpt>
      <trkpt lat="49.24425" lon="-0.21703">
        <ele>146</ele>
        <time>2024-04-07T05:27:13Z</time>
      </trkpt>
      <trkpt lat="49.24422" lon="-0.21709">
        <ele>146.2</ele>
        <time>2024-04-07T05:27:14Z</time>
      </trkpt>
      <trkpt lat="49.24419" lon="-0.21715">
        <ele>146.4</ele>
        <time>2024-04-07T05:27:15Z</time>
      </trkpt>
      <trkpt lat="49.24416" lon="-0.2172">
        <ele>146.6</ele>
        <time>2024-04-07T05:27:16Z</time>
      </trkpt>
      <trkpt lat="49.24413" lon="-0.21726">
        <ele>146.8</ele>
        <time>2024-04-07T05:27:17Z</time>
      </trkpt>
      <trkpt lat="49.2441" lon="-0.21732">
        <ele>147</ele>
        <time>2024-04-07T05:27:18Z</time>
      </trkpt>
      <trkpt lat="49.24407" lon="-0.21737">
        <ele>147</ele>
        <time>2024-04-07T05:27:19Z</time>
      </trkpt>
      <trkpt lat="49.24404" lon="-0.21743">
        <ele>147.2</ele>
        <time>2024-04-07T05:27:20Z</time>
      </trkpt>
      <trkpt lat="49.24401" lon="-0.21749">
        <ele>147.4</ele>
        <time>2024-04-07T05:27:21Z</time>
      </trkpt>
      <trkpt lat="49.24398" lon="-0.21755">
        <ele>147.4</ele>
        <time>2024-04-07T05:27:22Z</time>
      </trkpt>
      <trkpt lat="49.24395" lon="-0.21761">
        <ele>147.6</ele>
        <time>2024-04-07T05:27:23Z</time>
      </trkpt>
      <trkpt lat="49.24392" lon="-0.21767">
        <ele>148.4</ele>
        <time>2024-04-07T05:27:24Z</time>
      </trkpt>
      <trkpt lat="49.24389" lon="-0.21773">
        <ele>149.2</ele>
        <time>2024-04-07T05:27:25Z</time>
      </trkpt>
      <trkpt lat="49.24385" lon="-0.21779">
        <ele>150</ele>
        <time>2024-04-07T05:27:26Z</time>
      </trkpt>
      <trkpt lat="49.24382" lon="-0.21786">
        <ele>150.4</ele>
        <time>2024-04-07T05:27:27Z</time>
      </trkpt>
      <trkpt lat="49.24379" lon="-0.21792">
        <ele>150.8</ele>
        <time>2024-04-07T05:27:28Z</time>
      </trkpt>
      <trkpt lat="49.24375" lon="-0.21799">
        <ele>151.2</ele>
        <time>2024-04-07T05:27:29Z</time>
      </trkpt>
      <trkpt lat="49.24372" lon="-0.21806">
        <ele>151.6</ele>
        <time>2024-04-07T05:27:30Z</time>
      </trkpt>
      <trkpt lat="49.24369" lon="-0.21812">
        <ele>151.8</ele>
        <time>2024-04-07T05:27:31Z</time>
      </trkpt>
      <trkpt lat="49.24365" lon="-0.21819">
        <ele>152</ele>
        <time>2024-04-07T05:27:32Z</time>
      </trkpt>
      <trkpt lat="49.24362" lon="-0.21825">
        <ele>152</ele>
        <time>2024-04-07T05:27:33Z</time>
      </trkpt>
      <trkpt lat="49.24358" lon="-0.21832">
        <ele>152</ele>
        <time>2024-04-07T05:27:34Z</time>
      </trkpt>
      <trkpt lat="49.24355" lon="-0.21838">
        <ele>152</ele>
        <time>2024-04-07T05:27:35Z</time>
      </trkpt>
      <trkpt lat="49.24352" lon="-0.21844">
        <ele>152.2</ele>
        <time>2024-04-07T05:27:36Z</time>
      </trkpt>
      <trkpt lat="49.24348" lon="-0.21851">
        <ele>152.2</ele>
        <time>2024-04-07T05:27:37Z</time>
      </trkpt>
      <trkpt lat="49.24345" lon="-0.21857">
        <ele>152</ele>
        <time>2024-04-07T05:27:38Z</time>
      </trkpt>
      <trkpt lat="49.24341" lon="-0.21864">
        <ele>152</ele>
        <time>2024-04-07T05:27:39Z</time>
      </trkpt>
      <trkpt lat="49.24338" lon="-0.2187">
        <ele>152.2</ele>
        <time>2024-04-07T05:27:40Z</time>
      </trkpt>
      <trkpt lat="49.24334" lon="-0.21876">
        <ele>152.2</ele>
        <time>2024-04-07T05:27:41Z</time>
      </trkpt>
      <trkpt lat="49.24331" lon="-0.21883">
        <ele>152.6</ele>
        <time>2024-04-07T05:27:42Z</time>
      </trkpt>
      <trkpt lat="49.24327" lon="-0.21889">
        <ele>152.8</ele>
        <time>2024-04-07T05:27:43Z</time>
      </trkpt>
      <trkpt lat="49.24323" lon="-0.21896">
        <ele>153</ele>
        <time>2024-04-07T05:27:44Z</time>
      </trkpt>
      <trkpt lat="49.2432" lon="-0.21903">
        <ele>153.2</ele>
        <time>2024-04-07T05:27:45Z</time>
      </trkpt>
      <trkpt lat="49.24317" lon="-0.21909">
        <ele>153.4</ele>
        <time>2024-04-07T05:27:46Z</time>
      </trkpt>
      <trkpt lat="49.24313" lon="-0.21916">
        <ele>153.4</ele>
        <time>2024-04-07T05:27:47Z</time>
      </trkpt>
      <trkpt lat="49.2431" lon="-0.21923">
        <ele>153.6</ele>
        <time>2024-04-07T05:27:48Z</time>
      </trkpt>
      <trkpt lat="49.24306" lon="-0.2193">
        <ele>153.6</ele>
        <time>2024-04-07T05:27:49Z</time>
      </trkpt>
      <trkpt lat="49.24303" lon="-0.21937">
        <ele>153.8</ele>
        <time>2024-04-07T05:27:50Z</time>
      </trkpt>
      <trkpt lat="49.24299" lon="-0.21944">
        <ele>153.8</ele>
        <time>2024-04-07T05:27:51Z</time>
      </trkpt>
      <trkpt lat="49.24296" lon="-0.21951">
        <ele>153.8</ele>
        <time>2024-04-07T05:27:52Z</time>
      </trkpt>
      <trkpt lat="49.24293" lon="-0.21958">
        <ele>153.8</ele>
        <time>2024-04-07T05:27:53Z</time>
      </trkpt>
      <trkpt lat="49.24289" lon="-0.21964">
        <ele>153.8</ele>
        <time>2024-04-07T05:27:54Z</time>
      </trkpt>
      <trkpt lat="49.24286" lon="-0.21971">
        <ele>153.8</ele>
        <time>2024-04-07T05:27:55Z</time>
      </trkpt>
      <trkpt lat="49.24283" lon="-0.21979">
        <ele>153.6</ele>
        <time>2024-04-07T05:27:56Z</time>
      </trkpt>
      <trkpt lat="49.24279" lon="-0.21985">
        <ele>153.6</ele>
        <time>2024-04-07T05:27:57Z</time>
      </trkpt>
      <trkpt lat="49.24276" lon="-0.21992">
        <ele>153.6</ele>
        <time>2024-04-07T05:27:58Z</time>
      </trkpt>
      <trkpt lat="49.24272" lon="-0.22">
        <ele>153.6</ele>
        <time>2024-04-07T05:27:59Z</time>
      </trkpt>
      <trkpt lat="49.24269" lon="-0.22007">
        <ele>153.6</ele>
        <time>2024-04-07T05:28:00Z</time>
      </trkpt>
      <trkpt lat="49.24265" lon="-0.22014">
        <ele>153.4</ele>
        <time>2024-04-07T05:28:01Z</time>
      </trkpt>
      <trkpt lat="49.24261" lon="-0.22021">
        <ele>153.4</ele>
        <time>2024-04-07T05:28:02Z</time>
      </trkpt>
      <trkpt lat="49.24258" lon="-0.22028">
        <ele>153.2</ele>
        <time>2024-04-07T05:28:03Z</time>
      </trkpt>
      <trkpt lat="49.24254" lon="-0.22035">
        <ele>153</ele>
        <time>2024-04-07T05:28:04Z</time>
      </trkpt>
      <trkpt lat="49.2425" lon="-0.22043">
        <ele>153</ele>
        <time>2024-04-07T05:28:05Z</time>
      </trkpt>
      <trkpt lat="49.24246" lon="-0.2205">
        <ele>152.8</ele>
        <time>2024-04-07T05:28:06Z</time>
      </trkpt>
      <trkpt lat="49.24242" lon="-0.22057">
        <ele>152.8</ele>
        <time>2024-04-07T05:28:07Z</time>
      </trkpt>
      <trkpt lat="49.24239" lon="-0.22064">
        <ele>152.8</ele>
        <time>2024-04-07T05:28:08Z</time>
      </trkpt>
      <trkpt lat="49.24235" lon="-0.22071">
        <ele>152.8</ele>
        <time>2024-04-07T05:28:09Z</time>
      </trkpt>
      <trkpt lat="49.24231" lon="-0.22079">
        <ele>152.8</ele>
        <time>2024-04-07T05:28:10Z</time>
      </trkpt>
      <trkpt lat="49.24228" lon="-0.22086">
        <ele>152.8</ele>
        <time>2024-04-07T05:28:11Z</time>
      </trkpt>
      <trkpt lat="49.24224" lon="-0.22093">
        <ele>152.8</ele>
        <time>2024-04-07T05:28:12Z</time>
      </trkpt>
      <trkpt lat="49.24221" lon="-0.22101">
        <ele>152.8</ele>
        <time>2024-04-07T05:28:13Z</time>
      </trkpt>
      <trkpt lat="49.24218" lon="-0.22108">
        <ele>152.4</ele>
        <time>2024-04-07T05:28:14Z</time>
      </trkpt>
      <trkpt lat="49.24216" lon="-0.22116">
        <ele>152.4</ele>
        <time>2024-04-07T05:28:15Z</time>
      </trkpt>
      <trkpt lat="49.24213" lon="-0.22124">
        <ele>152</ele>
        <time>2024-04-07T05:28:16Z</time>
      </trkpt>
      <trkpt lat="49.24211" lon="-0.22132">
        <ele>151.8</ele>
        <time>2024-04-07T05:28:17Z</time>
      </trkpt>
      <trkpt lat="49.24209" lon="-0.2214">
        <ele>151.6</ele>
        <time>2024-04-07T05:28:18Z</time>
      </trkpt>
      <trkpt lat="49.24207" lon="-0.22147">
        <ele>151.6</ele>
        <time>2024-04-07T05:28:19Z</time>
      </trkpt>
      <trkpt lat="49.24205" lon="-0.22155">
        <ele>151.6</ele>
        <time>2024-04-07T05:28:20Z</time>
      </trkpt>
      <trkpt lat="49.24203" lon="-0.22164">
        <ele>151.6</ele>
        <time>2024-04-07T05:28:21Z</time>
      </trkpt>
      <trkpt lat="49.24203" lon="-0.22171">
        <ele>151.6</ele>
        <time>2024-04-07T05:28:22Z</time>
      </trkpt>
      <trkpt lat="49.24201" lon="-0.2218">
        <ele>151.6</ele>
        <time>2024-04-07T05:28:23Z</time>
      </trkpt>
      <trkpt lat="49.242" lon="-0.22188">
        <ele>151.8</ele>
        <time>2024-04-07T05:28:24Z</time>
      </trkpt>
      <trkpt lat="49.24198" lon="-0.22197">
        <ele>152</ele>
        <time>2024-04-07T05:28:25Z</time>
      </trkpt>
      <trkpt lat="49.24196" lon="-0.22207">
        <ele>152.2</ele>
        <time>2024-04-07T05:28:26Z</time>
      </trkpt>
      <trkpt lat="49.24193" lon="-0.22216">
        <ele>152.4</ele>
        <time>2024-04-07T05:28:27Z</time>
      </trkpt>
      <trkpt lat="49.2419" lon="-0.22224">
        <ele>152.6</ele>
        <time>2024-04-07T05:28:28Z</time>
      </trkpt>
      <trkpt lat="49.24187" lon="-0.22233">
        <ele>152.8</ele>
        <time>2024-04-07T05:28:29Z</time>
      </trkpt>
      <trkpt lat="49.24185" lon="-0.22241">
        <ele>152.8</ele>
        <time>2024-04-07T05:28:30Z</time>
      </trkpt>
      <trkpt lat="49.24182" lon="-0.2225">
        <ele>153</ele>
        <time>2024-04-07T05:28:31Z</time>
      </trkpt>
      <trkpt lat="49.24179" lon="-0.22258">
        <ele>153</ele>
        <time>2024-04-07T05:28:32Z</time>
      </trkpt>
      <trkpt lat="49.24176" lon="-0.22266">
        <ele>153</ele>
        <time>2024-04-07T05:28:33Z</time>
      </trkpt>
      <trkpt lat="49.24173" lon="-0.22274">
        <ele>153</ele>
        <time>2024-04-07T05:28:34Z</time>
      </trkpt>
      <trkpt lat="49.2417" lon="-0.22282">
        <ele>153.2</ele>
        <time>2024-04-07T05:28:35Z</time>
      </trkpt>
      <trkpt lat="49.24166" lon="-0.22289">
        <ele>153.2</ele>
        <time>2024-04-07T05:28:36Z</time>
      </trkpt>
      <trkpt lat="49.24163" lon="-0.22297">
        <ele>153.4</ele>
        <time>2024-04-07T05:28:37Z</time>
      </trkpt>
      <trkpt lat="49.2416" lon="-0.22305">
        <ele>153.2</ele>
        <time>2024-04-07T05:28:38Z</time>
      </trkpt>
      <trkpt lat="49.24157" lon="-0.22313">
        <ele>153.2</ele>
        <time>2024-04-07T05:28:39Z</time>
      </trkpt>
      <trkpt lat="49.24154" lon="-0.22321">
        <ele>153.2</ele>
        <time>2024-04-07T05:28:40Z</time>
      </trkpt>
      <trkpt lat="49.2415" lon="-0.22328">
        <ele>153.2</ele>
        <time>2024-04-07T05:28:41Z</time>
      </trkpt>
      <trkpt lat="49.24147" lon="-0.22335">
        <ele>153.2</ele>
        <time>2024-04-07T05:28:42Z</time>
      </trkpt>
      <trkpt lat="49.24144" lon="-0.22343">
        <ele>153.4</ele>
        <time>2024-04-07T05:28:43Z</time>
      </trkpt>
      <trkpt lat="49.24141" lon="-0.2235">
        <ele>153.8</ele>
        <time>2024-04-07T05:28:44Z</time>
      </trkpt>
      <trkpt lat="49.24139" lon="-0.22358">
        <ele>154</ele>
        <time>2024-04-07T05:28:45Z</time>
      </trkpt>
      <trkpt lat="49.24136" lon="-0.22366">
        <ele>154.4</ele>
        <time>2024-04-07T05:28:46Z</time>
      </trkpt>
      <trkpt lat="49.24133" lon="-0.22374">
        <ele>154.4</ele>
        <time>2024-04-07T05:28:47Z</time>
      </trkpt>
      <trkpt lat="49.24131" lon="-0.22383">
        <ele>154.4</ele>
        <time>2024-04-07T05:28:48Z</time>
      </trkpt>
      <trkpt lat="49.24128" lon="-0.22391">
        <ele>154.4</ele>
        <time>2024-04-07T05:28:49Z</time>
      </trkpt>
      <trkpt lat="49.24126" lon="-0.22399">
        <ele>154.4</ele>
        <time>2024-04-07T05:28:50Z</time>
      </trkpt>
      <trkpt lat="49.24124" lon="-0.22407">
        <ele>154.4</ele>
        <time>2024-04-07T05:28:51Z</time>
      </trkpt>
      <trkpt lat="49.24122" lon="-0.22415">
        <ele>154.6</ele>
        <time>2024-04-07T05:28:52Z</time>
      </trkpt>
      <trkpt lat="49.2412" lon="-0.22424">
        <ele>154.6</ele>
        <time>2024-04-07T05:28:53Z</time>
      </trkpt>
      <trkpt lat="49.24117" lon="-0.22432">
        <ele>154.6</ele>
        <time>2024-04-07T05:28:54Z</time>
      </trkpt>
      <trkpt lat="49.24115" lon="-0.2244">
        <ele>154.8</ele>
        <time>2024-04-07T05:28:55Z</time>
      </trkpt>
      <trkpt lat="49.24113" lon="-0.22449">
        <ele>155</ele>
        <time>2024-04-07T05:28:56Z</time>
      </trkpt>
      <trkpt lat="49.24111" lon="-0.22457">
        <ele>155</ele>
        <time>2024-04-07T05:28:57Z</time>
      </trkpt>
      <trkpt lat="49.24108" lon="-0.22465">
        <ele>155.2</ele>
        <time>2024-04-07T05:28:58Z</time>
      </trkpt>
      <trkpt lat="49.24106" lon="-0.22472">
        <ele>155.2</ele>
        <time>2024-04-07T05:28:59Z</time>
      </trkpt>
      <trkpt lat="49.24103" lon="-0.22479">
        <ele>155.2</ele>
        <time>2024-04-07T05:29:00Z</time>
      </trkpt>
      <trkpt lat="49.241" lon="-0.22487">
        <ele>155.2</ele>
        <time>2024-04-07T05:29:01Z</time>
      </trkpt>
      <trkpt lat="49.24097" lon="-0.22494">
        <ele>155.2</ele>
        <time>2024-04-07T05:29:02Z</time>
      </trkpt>
      <trkpt lat="49.24094" lon="-0.22501">
        <ele>155.2</ele>
        <time>2024-04-07T05:29:03Z</time>
      </trkpt>
      <trkpt lat="49.24091" lon="-0.22508">
        <ele>155.2</ele>
        <time>2024-04-07T05:29:04Z</time>
      </trkpt>
      <trkpt lat="49.24087" lon="-0.22515">
        <ele>155.2</ele>
        <time>2024-04-07T05:29:05Z</time>
      </trkpt>
      <trkpt lat="49.24083" lon="-0.22522">
        <ele>155.2</ele>
        <time>2024-04-07T05:29:06Z</time>
      </trkpt>
      <trkpt lat="49.24079" lon="-0.22528">
        <ele>155.2</ele>
        <time>2024-04-07T05:29:07Z</time>
      </trkpt>
      <trkpt lat="49.24074" lon="-0.22535">
        <ele>155</ele>
        <time>2024-04-07T05:29:08Z</time>
      </trkpt>
      <trkpt lat="49.2407" lon="-0.22541">
        <ele>155</ele>
        <time>2024-04-07T05:29:09Z</time>
      </trkpt>
      <trkpt lat="49.24066" lon="-0.22548">
        <ele>154.8</ele>
        <time>2024-04-07T05:29:10Z</time>
      </trkpt>
      <trkpt lat="49.24062" lon="-0.22554">
        <ele>154.4</ele>
        <time>2024-04-07T05:29:11Z</time>
      </trkpt>
      <trkpt lat="49.24057" lon="-0.22561">
        <ele>154.2</ele>
        <time>2024-04-07T05:29:12Z</time>
      </trkpt>
      <trkpt lat="49.24053" lon="-0.22567">
        <ele>154</ele>
        <time>2024-04-07T05:29:13Z</time>
      </trkpt>
      <trkpt lat="49.24049" lon="-0.22573">
        <ele>153.8</ele>
        <time>2024-04-07T05:29:14Z</time>
      </trkpt>
      <trkpt lat="49.24045" lon="-0.22579">
        <ele>153.6</ele>
        <time>2024-04-07T05:29:15Z</time>
      </trkpt>
      <trkpt lat="49.24041" lon="-0.22586">
        <ele>153.6</ele>
        <time>2024-04-07T05:29:16Z</time>
      </trkpt>
      <trkpt lat="49.24037" lon="-0.22591">
        <ele>153.4</ele>
        <time>2024-04-07T05:29:17Z</time>
      </trkpt>
      <trkpt lat="49.24032" lon="-0.22597">
        <ele>153.4</ele>
        <time>2024-04-07T05:29:18Z</time>
      </trkpt>
      <trkpt lat="49.24028" lon="-0.22602">
        <ele>153.4</ele>
        <time>2024-04-07T05:29:19Z</time>
      </trkpt>
      <trkpt lat="49.24023" lon="-0.22608">
        <ele>153.4</ele>
        <time>2024-04-07T05:29:20Z</time>
      </trkpt>
      <trkpt lat="49.24019" lon="-0.22613">
        <ele>153.6</ele>
        <time>2024-04-07T05:29:21Z</time>
      </trkpt>
      <trkpt lat="49.24015" lon="-0.22619">
        <ele>153.6</ele>
        <time>2024-04-07T05:29:22Z</time>
      </trkpt>
      <trkpt lat="49.2401" lon="-0.22625">
        <ele>153.8</ele>
        <time>2024-04-07T05:29:23Z</time>
      </trkpt>
      <trkpt lat="49.24005" lon="-0.22631">
        <ele>153.8</ele>
        <time>2024-04-07T05:29:24Z</time>
      </trkpt>
      <trkpt lat="49.24001" lon="-0.22638">
        <ele>153.8</ele>
        <time>2024-04-07T05:29:25Z</time>
      </trkpt>
      <trkpt lat="49.23996" lon="-0.22645">
        <ele>153.8</ele>
        <time>2024-04-07T05:29:26Z</time>
      </trkpt>
      <trkpt lat="49.23991" lon="-0.22652">
        <ele>153.8</ele>
        <time>2024-04-07T05:29:27Z</time>
      </trkpt>
      <trkpt lat="49.23986" lon="-0.2266">
        <ele>153.8</ele>
        <time>2024-04-07T05:29:28Z</time>
      </trkpt>
      <trkpt lat="49.23982" lon="-0.22668">
        <ele>153.6</ele>
        <time>2024-04-07T05:29:29Z</time>
      </trkpt>
      <trkpt lat="49.23977" lon="-0.22676">
        <ele>153.6</ele>
        <time>2024-04-07T05:29:30Z</time>
      </trkpt>
      <trkpt lat="49.23972" lon="-0.22684">
        <ele>153.4</ele>
        <time>2024-04-07T05:29:31Z</time>
      </trkpt>
      <trkpt lat="49.23967" lon="-0.22692">
        <ele>152.8</ele>
        <time>2024-04-07T05:29:32Z</time>
      </trkpt>
      <trkpt lat="49.23962" lon="-0.22701">
        <ele>152.4</ele>
        <time>2024-04-07T05:29:33Z</time>
      </trkpt>
      <trkpt lat="49.23957" lon="-0.22709">
        <ele>151.8</ele>
        <time>2024-04-07T05:29:34Z</time>
      </trkpt>
      <trkpt lat="49.23951" lon="-0.22718">
        <ele>151.2</ele>
        <time>2024-04-07T05:29:35Z</time>
      </trkpt>
      <trkpt lat="49.23945" lon="-0.22727">
        <ele>150.6</ele>
        <time>2024-04-07T05:29:36Z</time>
      </trkpt>
      <trkpt lat="49.23939" lon="-0.22735">
        <ele>150</ele>
        <time>2024-04-07T05:29:37Z</time>
      </trkpt>
      <trkpt lat="49.23933" lon="-0.22743">
        <ele>149</ele>
        <time>2024-04-07T05:29:38Z</time>
      </trkpt>
      <trkpt lat="49.23926" lon="-0.22751">
        <ele>147.8</ele>
        <time>2024-04-07T05:29:39Z</time>
      </trkpt>
      <trkpt lat="49.23918" lon="-0.22759">
        <ele>146.8</ele>
        <time>2024-04-07T05:29:40Z</time>
      </trkpt>
      <trkpt lat="49.23911" lon="-0.22768">
        <ele>145.8</ele>
        <time>2024-04-07T05:29:41Z</time>
      </trkpt>
      <trkpt lat="49.23902" lon="-0.22778">
        <ele>145.2</ele>
        <time>2024-04-07T05:29:42Z</time>
      </trkpt>
      <trkpt lat="49.23894" lon="-0.22787">
        <ele>144.4</ele>
        <time>2024-04-07T05:29:43Z</time>
      </trkpt>
      <trkpt lat="49.23885" lon="-0.22798">
        <ele>143.2</ele>
        <time>2024-04-07T05:29:44Z</time>
      </trkpt>
      <trkpt lat="49.23877" lon="-0.22809">
        <ele>141.6</ele>
        <time>2024-04-07T05:29:45Z</time>
      </trkpt>
      <trkpt lat="49.23869" lon="-0.22822">
        <ele>140</ele>
        <time>2024-04-07T05:29:46Z</time>
      </trkpt>
      <trkpt lat="49.23862" lon="-0.22835">
        <ele>138.6</ele>
        <time>2024-04-07T05:29:47Z</time>
      </trkpt>
      <trkpt lat="49.23855" lon="-0.2285">
        <ele>137.6</ele>
        <time>2024-04-07T05:29:48Z</time>
      </trkpt>
      <trkpt lat="49.2385" lon="-0.22866">
        <ele>136.8</ele>
        <time>2024-04-07T05:29:49Z</time>
      </trkpt>
      <trkpt lat="49.23845" lon="-0.22881">
        <ele>136.2</ele>
        <time>2024-04-07T05:29:50Z</time>
      </trkpt>
      <trkpt lat="49.2384" lon="-0.22898">
        <ele>135.6</ele>
        <time>2024-04-07T05:29:51Z</time>
      </trkpt>
      <trkpt lat="49.23836" lon="-0.22914">
        <ele>134.4</ele>
        <time>2024-04-07T05:29:52Z</time>
      </trkpt>
      <trkpt lat="49.23833" lon="-0.22931">
        <ele>133</ele>
        <time>2024-04-07T05:29:53Z</time>
      </trkpt>
      <trkpt lat="49.2383" lon="-0.22949">
        <ele>132</ele>
        <time>2024-04-07T05:29:54Z</time>
      </trkpt>
      <trkpt lat="49.23827" lon="-0.22966">
        <ele>131.4</ele>
        <time>2024-04-07T05:29:55Z</time>
      </trkpt>
      <trkpt lat="49.23825" lon="-0.22982">
        <ele>131</ele>
        <time>2024-04-07T05:29:56Z</time>
      </trkpt>
      <trkpt lat="49.23823" lon="-0.22999">
        <ele>130.4</ele>
        <time>2024-04-07T05:29:57Z</time>
      </trkpt>
      <trkpt lat="49.23819" lon="-0.23014">
        <ele>129.4</ele>
        <time>2024-04-07T05:29:58Z</time>
      </trkpt>
      <trkpt lat="49.23815" lon="-0.23029">
        <ele>128.2</ele>
        <time>2024-04-07T05:29:59Z</time>
      </trkpt>
      <trkpt lat="49.23811" lon="-0.23042">
        <ele>127.6</ele>
        <time>2024-04-07T05:30:00Z</time>
      </trkpt>
      <trkpt lat="49.23805" lon="-0.23056">
        <ele>127.4</ele>
        <time>2024-04-07T05:30:01Z</time>
      </trkpt>
      <trkpt lat="49.238" lon="-0.23068">
        <ele>127.2</ele>
        <time>2024-04-07T05:30:02Z</time>
      </trkpt>
      <trkpt lat="49.23795" lon="-0.23081">
        <ele>127.2</ele>
        <time>2024-04-07T05:30:03Z</time>
      </trkpt>
      <trkpt lat="49.23791" lon="-0.23094">
        <ele>127.4</ele>
        <time>2024-04-07T05:30:04Z</time>
      </trkpt>
      <trkpt lat="49.23787" lon="-0.23107">
        <ele>127.6</ele>
        <time>2024-04-07T05:30:05Z</time>
      </trkpt>
      <trkpt lat="49.23783" lon="-0.2312">
        <ele>127.6</ele>
        <time>2024-04-07T05:30:06Z</time>
      </trkpt>
      <trkpt lat="49.2378" lon="-0.23132">
        <ele>127.6</ele>
        <time>2024-04-07T05:30:07Z</time>
      </trkpt>
      <trkpt lat="49.23778" lon="-0.23145">
        <ele>127.6</ele>
        <time>2024-04-07T05:30:08Z</time>
      </trkpt>
      <trkpt lat="49.23776" lon="-0.23159">
        <ele>127.4</ele>
        <time>2024-04-07T05:30:09Z</time>
      </trkpt>
      <trkpt lat="49.23774" lon="-0.23171">
        <ele>127.4</ele>
        <time>2024-04-07T05:30:10Z</time>
      </trkpt>
      <trkpt lat="49.23772" lon="-0.23184">
        <ele>127.4</ele>
        <time>2024-04-07T05:30:11Z</time>
      </trkpt>
      <trkpt lat="49.2377" lon="-0.23196">
        <ele>127.4</ele>
        <time>2024-04-07T05:30:12Z</time>
      </trkpt>
      <trkpt lat="49.23769" lon="-0.23208">
        <ele>127.2</ele>
        <time>2024-04-07T05:30:13Z</time>
      </trkpt>
      <trkpt lat="49.23767" lon="-0.23221">
        <ele>127</ele>
        <time>2024-04-07T05:30:14Z</time>
      </trkpt>
      <trkpt lat="49.23765" lon="-0.23233">
        <ele>126.6</ele>
        <time>2024-04-07T05:30:15Z</time>
      </trkpt>
      <trkpt lat="49.23764" lon="-0.23246">
        <ele>126.2</ele>
        <time>2024-04-07T05:30:16Z</time>
      </trkpt>
      <trkpt lat="49.23763" lon="-0.23259">
        <ele>126</ele>
        <time>2024-04-07T05:30:17Z</time>
      </trkpt>
      <trkpt lat="49.23761" lon="-0.23272">
        <ele>125.8</ele>
        <time>2024-04-07T05:30:18Z</time>
      </trkpt>
      <trkpt lat="49.23759" lon="-0.23284">
        <ele>125.4</ele>
        <time>2024-04-07T05:30:19Z</time>
      </trkpt>
      <trkpt lat="49.23757" lon="-0.23297">
        <ele>125.2</ele>
        <time>2024-04-07T05:30:20Z</time>
      </trkpt>
      <trkpt lat="49.23754" lon="-0.23309">
        <ele>124.8</ele>
        <time>2024-04-07T05:30:21Z</time>
      </trkpt>
      <trkpt lat="49.23751" lon="-0.23321">
        <ele>124.6</ele>
        <time>2024-04-07T05:30:22Z</time>
      </trkpt>
      <trkpt lat="49.23747" lon="-0.23333">
        <ele>124.4</ele>
        <time>2024-04-07T05:30:23Z</time>
      </trkpt>
      <trkpt lat="49.23744" lon="-0.23344">
        <ele>124.4</ele>
        <time>2024-04-07T05:30:24Z</time>
      </trkpt>
      <trkpt lat="49.2374" lon="-0.23356">
        <ele>124.4</ele>
        <time>2024-04-07T05:30:25Z</time>
      </trkpt>
      <trkpt lat="49.23736" lon="-0.23367">
        <ele>124.6</ele>
        <time>2024-04-07T05:30:26Z</time>
      </trkpt>
      <trkpt lat="49.23731" lon="-0.23378">
        <ele>124.8</ele>
        <time>2024-04-07T05:30:27Z</time>
      </trkpt>
      <trkpt lat="49.23727" lon="-0.2339">
        <ele>124.6</ele>
        <time>2024-04-07T05:30:28Z</time>
      </trkpt>
      <trkpt lat="49.23723" lon="-0.23401">
        <ele>124.6</ele>
        <time>2024-04-07T05:30:29Z</time>
      </trkpt>
      <trkpt lat="49.23719" lon="-0.23413">
        <ele>124.4</ele>
        <time>2024-04-07T05:30:30Z</time>
      </trkpt>
      <trkpt lat="49.23715" lon="-0.23424">
        <ele>124.2</ele>
        <time>2024-04-07T05:30:31Z</time>
      </trkpt>
      <trkpt lat="49.23711" lon="-0.23436">
        <ele>123.8</ele>
        <time>2024-04-07T05:30:32Z</time>
      </trkpt>
      <trkpt lat="49.23707" lon="-0.23448">
        <ele>123.6</ele>
        <time>2024-04-07T05:30:33Z</time>
      </trkpt>
      <trkpt lat="49.23704" lon="-0.2346">
        <ele>123.2</ele>
        <time>2024-04-07T05:30:34Z</time>
      </trkpt>
      <trkpt lat="49.237" lon="-0.23471">
        <ele>122.8</ele>
        <time>2024-04-07T05:30:35Z</time>
      </trkpt>
      <trkpt lat="49.23697" lon="-0.23483">
        <ele>122.6</ele>
        <time>2024-04-07T05:30:36Z</time>
      </trkpt>
      <trkpt lat="49.23694" lon="-0.23495">
        <ele>122.4</ele>
        <time>2024-04-07T05:30:37Z</time>
      </trkpt>
      <trkpt lat="49.23691" lon="-0.23507">
        <ele>122.2</ele>
        <time>2024-04-07T05:30:38Z</time>
      </trkpt>
      <trkpt lat="49.23688" lon="-0.23519">
        <ele>122</ele>
        <time>2024-04-07T05:30:39Z</time>
      </trkpt>
      <trkpt lat="49.23685" lon="-0.23532">
        <ele>121.8</ele>
        <time>2024-04-07T05:30:40Z</time>
      </trkpt>
      <trkpt lat="49.23683" lon="-0.23544">
        <ele>121.8</ele>
        <time>2024-04-07T05:30:41Z</time>
      </trkpt>
      <trkpt lat="49.2368" lon="-0.23556">
        <ele>121.6</ele>
        <time>2024-04-07T05:30:42Z</time>
      </trkpt>
      <trkpt lat="49.23678" lon="-0.23568">
        <ele>121.4</ele>
        <time>2024-04-07T05:30:43Z</time>
      </trkpt>
      <trkpt lat="49.23676" lon="-0.2358">
        <ele>121.2</ele>
        <time>2024-04-07T05:30:44Z</time>
      </trkpt>
      <trkpt lat="49.23674" lon="-0.23592">
        <ele>121</ele>
        <time>2024-04-07T05:30:45Z</time>
      </trkpt>
      <trkpt lat="49.23672" lon="-0.23604">
        <ele>120.6</ele>
        <time>2024-04-07T05:30:46Z</time>
      </trkpt>
      <trkpt lat="49.2367" lon="-0.23616">
        <ele>120</ele>
        <time>2024-04-07T05:30:47Z</time>
      </trkpt>
      <trkpt lat="49.23668" lon="-0.23628">
        <ele>119.4</ele>
        <time>2024-04-07T05:30:48Z</time>
      </trkpt>
      <trkpt lat="49.23666" lon="-0.2364">
        <ele>118.8</ele>
        <time>2024-04-07T05:30:49Z</time>
      </trkpt>
      <trkpt lat="49.23664" lon="-0.23652">
        <ele>118.4</ele>
        <time>2024-04-07T05:30:50Z</time>
      </trkpt>
      <trkpt lat="49.23661" lon="-0.23664">
        <ele>118.2</ele>
        <time>2024-04-07T05:30:51Z</time>
      </trkpt>
      <trkpt lat="49.23659" lon="-0.23676">
        <ele>117.8</ele>
        <time>2024-04-07T05:30:52Z</time>
      </trkpt>
      <trkpt lat="49.23657" lon="-0.23687">
        <ele>117.4</ele>
        <time>2024-04-07T05:30:53Z</time>
      </trkpt>
      <trkpt lat="49.23654" lon="-0.23699">
        <ele>117.2</ele>
        <time>2024-04-07T05:30:54Z</time>
      </trkpt>
      <trkpt lat="49.23652" lon="-0.23711">
        <ele>117</ele>
        <time>2024-04-07T05:30:55Z</time>
      </trkpt>
      <trkpt lat="49.23649" lon="-0.23722">
        <ele>116.8</ele>
        <time>2024-04-07T05:30:56Z</time>
      </trkpt>
      <trkpt lat="49.23647" lon="-0.23733">
        <ele>116.6</ele>
        <time>2024-04-07T05:30:57Z</time>
      </trkpt>
      <trkpt lat="49.23644" lon="-0.23744">
        <ele>116.6</ele>
        <time>2024-04-07T05:30:58Z</time>
      </trkpt>
      <trkpt lat="49.23642" lon="-0.23754">
        <ele>116.6</ele>
        <time>2024-04-07T05:30:59Z</time>
      </trkpt>
      <trkpt lat="49.2364" lon="-0.23765">
        <ele>116.6</ele>
        <time>2024-04-07T05:31:00Z</time>
      </trkpt>
      <trkpt lat="49.23637" lon="-0.23774">
        <ele>117</ele>
        <time>2024-04-07T05:31:01Z</time>
      </trkpt>
      <trkpt lat="49.23635" lon="-0.23783">
        <ele>117.6</ele>
        <time>2024-04-07T05:31:02Z</time>
      </trkpt>
      <trkpt lat="49.23633" lon="-0.23792">
        <ele>118</ele>
        <time>2024-04-07T05:31:03Z</time>
      </trkpt>
      <trkpt lat="49.2363" lon="-0.23798">
        <ele>118.2</ele>
        <time>2024-04-07T05:31:04Z</time>
      </trkpt>
      <trkpt lat="49.23625" lon="-0.23803">
        <ele>118.4</ele>
        <time>2024-04-07T05:31:05Z</time>
      </trkpt>
      <trkpt lat="49.2362" lon="-0.23805">
        <ele>118.6</ele>
        <time>2024-04-07T05:31:06Z</time>
      </trkpt>
      <trkpt lat="49.23614" lon="-0.23807">
        <ele>118.6</ele>
        <time>2024-04-07T05:31:07Z</time>
      </trkpt>
      <trkpt lat="49.23608" lon="-0.23809">
        <ele>118.8</ele>
        <time>2024-04-07T05:31:08Z</time>
      </trkpt>
      <trkpt lat="49.23601" lon="-0.23811">
        <ele>118.6</ele>
        <time>2024-04-07T05:31:09Z</time>
      </trkpt>
      <trkpt lat="49.23595" lon="-0.23813">
        <ele>118.2</ele>
        <time>2024-04-07T05:31:10Z</time>
      </trkpt>
      <trkpt lat="49.23588" lon="-0.23816">
        <ele>118.2</ele>
        <time>2024-04-07T05:31:11Z</time>
      </trkpt>
      <trkpt lat="49.23581" lon="-0.23819">
        <ele>118</ele>
        <time>2024-04-07T05:31:12Z</time>
      </trkpt>
      <trkpt lat="49.23574" lon="-0.23822">
        <ele>117.6</ele>
        <time>2024-04-07T05:31:13Z</time>
      </trkpt>
      <trkpt lat="49.23568" lon="-0.23826">
        <ele>117.4</ele>
        <time>2024-04-07T05:31:14Z</time>
      </trkpt>
      <trkpt lat="49.23561" lon="-0.2383">
        <ele>117.2</ele>
        <time>2024-04-07T05:31:15Z</time>
      </trkpt>
      <trkpt lat="49.23554" lon="-0.23834">
        <ele>117.2</ele>
        <time>2024-04-07T05:31:16Z</time>
      </trkpt>
      <trkpt lat="49.23546" lon="-0.23838">
        <ele>116.8</ele>
        <time>2024-04-07T05:31:17Z</time>
      </trkpt>
      <trkpt lat="49.23539" lon="-0.23842">
        <ele>116.6</ele>
        <time>2024-04-07T05:31:18Z</time>
      </trkpt>
      <trkpt lat="49.23531" lon="-0.23846">
        <ele>116.4</ele>
        <time>2024-04-07T05:31:19Z</time>
      </trkpt>
      <trkpt lat="49.23524" lon="-0.2385">
        <ele>116.2</ele>
        <time>2024-04-07T05:31:20Z</time>
      </trkpt>
      <trkpt lat="49.23517" lon="-0.23855">
        <ele>115.6</ele>
        <time>2024-04-07T05:31:21Z</time>
      </trkpt>
      <trkpt lat="49.23509" lon="-0.2386">
        <ele>115</ele>
        <time>2024-04-07T05:31:22Z</time>
      </trkpt>
      <trkpt lat="49.23502" lon="-0.23865">
        <ele>114.6</ele>
        <time>2024-04-07T05:31:23Z</time>
      </trkpt>
      <trkpt lat="49.23495" lon="-0.23871">
        <ele>114</ele>
        <time>2024-04-07T05:31:24Z</time>
      </trkpt>
      <trkpt lat="49.23488" lon="-0.23877">
        <ele>113.6</ele>
        <time>2024-04-07T05:31:25Z</time>
      </trkpt>
      <trkpt lat="49.23482" lon="-0.23883">
        <ele>113.2</ele>
        <time>2024-04-07T05:31:26Z</time>
      </trkpt>
      <trkpt lat="49.23475" lon="-0.23888">
        <ele>113</ele>
        <time>2024-04-07T05:31:27Z</time>
      </trkpt>
      <trkpt lat="49.23468" lon="-0.23894">
        <ele>112.6</ele>
        <time>2024-04-07T05:31:28Z</time>
      </trkpt>
      <trkpt lat="49.23462" lon="-0.239">
        <ele>112.6</ele>
        <time>2024-04-07T05:31:29Z</time>
      </trkpt>
      <trkpt lat="49.23455" lon="-0.23905">
        <ele>112.6</ele>
        <time>2024-04-07T05:31:30Z</time>
      </trkpt>
      <trkpt lat="49.23448" lon="-0.23911">
        <ele>112.6</ele>
        <time>2024-04-07T05:31:31Z</time>
      </trkpt>
      <trkpt lat="49.23442" lon="-0.23916">
        <ele>112.6</ele>
        <time>2024-04-07T05:31:32Z</time>
      </trkpt>
      <trkpt lat="49.23435" lon="-0.23921">
        <ele>112.4</ele>
        <time>2024-04-07T05:31:33Z</time>
      </trkpt>
      <trkpt lat="49.23428" lon="-0.23926">
        <ele>112.2</ele>
        <time>2024-04-07T05:31:34Z</time>
      </trkpt>
      <trkpt lat="49.23421" lon="-0.2393">
        <ele>111.8</ele>
        <time>2024-04-07T05:31:35Z</time>
      </trkpt>
      <trkpt lat="49.23414" lon="-0.23935">
        <ele>111.2</ele>
        <time>2024-04-07T05:31:36Z</time>
      </trkpt>
      <trkpt lat="49.23406" lon="-0.23939">
        <ele>111</ele>
        <time>2024-04-07T05:31:37Z</time>
      </trkpt>
      <trkpt lat="49.23399" lon="-0.23943">
        <ele>110.8</ele>
        <time>2024-04-07T05:31:38Z</time>
      </trkpt>
      <trkpt lat="49.23391" lon="-0.23947">
        <ele>110.6</ele>
        <time>2024-04-07T05:31:39Z</time>
      </trkpt>
      <trkpt lat="49.23384" lon="-0.23951">
        <ele>110.4</ele>
        <time>2024-04-07T05:31:40Z</time>
      </trkpt>
      <trkpt lat="49.23376" lon="-0.23956">
        <ele>110.2</ele>
        <time>2024-04-07T05:31:41Z</time>
      </trkpt>
      <trkpt lat="49.23369" lon="-0.23961">
        <ele>110.2</ele>
        <time>2024-04-07T05:31:42Z</time>
      </trkpt>
      <trkpt lat="49.23362" lon="-0.23966">
        <ele>110</ele>
        <time>2024-04-07T05:31:43Z</time>
      </trkpt>
      <trkpt lat="49.23355" lon="-0.23971">
        <ele>110</ele>
        <time>2024-04-07T05:31:44Z</time>
      </trkpt>
      <trkpt lat="49.23348" lon="-0.23977">
        <ele>109.6</ele>
        <time>2024-04-07T05:31:45Z</time>
      </trkpt>
      <trkpt lat="49.23342" lon="-0.23983">
        <ele>109.2</ele>
        <time>2024-04-07T05:31:46Z</time>
      </trkpt>
      <trkpt lat="49.23335" lon="-0.2399">
        <ele>108.8</ele>
        <time>2024-04-07T05:31:47Z</time>
      </trkpt>
      <trkpt lat="49.23328" lon="-0.23997">
        <ele>108.6</ele>
        <time>2024-04-07T05:31:48Z</time>
      </trkpt>
      <trkpt lat="49.23322" lon="-0.24004">
        <ele>108.4</ele>
        <time>2024-04-07T05:31:49Z</time>
      </trkpt>
      <trkpt lat="49.23315" lon="-0.24011">
        <ele>108.2</ele>
        <time>2024-04-07T05:31:50Z</time>
      </trkpt>
      <trkpt lat="49.23309" lon="-0.24019">
        <ele>107.8</ele>
        <time>2024-04-07T05:31:51Z</time>
      </trkpt>
      <trkpt lat="49.23302" lon="-0.24026">
        <ele>107.6</ele>
        <time>2024-04-07T05:31:52Z</time>
      </trkpt>
      <trkpt lat="49.23296" lon="-0.24034">
        <ele>107.2</ele>
        <time>2024-04-07T05:31:53Z</time>
      </trkpt>
      <trkpt lat="49.2329" lon="-0.24041">
        <ele>107</ele>
        <time>2024-04-07T05:31:54Z</time>
      </trkpt>
      <trkpt lat="49.23283" lon="-0.24049">
        <ele>106.8</ele>
        <time>2024-04-07T05:31:55Z</time>
      </trkpt>
      <trkpt lat="49.23277" lon="-0.24057">
        <ele>106.6</ele>
        <time>2024-04-07T05:31:56Z</time>
      </trkpt>
      <trkpt lat="49.23271" lon="-0.24064">
        <ele>106.4</ele>
        <time>2024-04-07T05:31:57Z</time>
      </trkpt>
      <trkpt lat="49.23265" lon="-0.24072">
        <ele>106.4</ele>
        <time>2024-04-07T05:31:58Z</time>
      </trkpt>
      <trkpt lat="49.23259" lon="-0.24079">
        <ele>106.2</ele>
        <time>2024-04-07T05:31:59Z</time>
      </trkpt>
      <trkpt lat="49.23253" lon="-0.24087">
        <ele>106.2</ele>
        <time>2024-04-07T05:32:00Z</time>
      </trkpt>
      <trkpt lat="49.23247" lon="-0.24094">
        <ele>106</ele>
        <time>2024-04-07T05:32:01Z</time>
      </trkpt>
      <trkpt lat="49.23241" lon="-0.24102">
        <ele>106</ele>
        <time>2024-04-07T05:32:02Z</time>
      </trkpt>
      <trkpt lat="49.23235" lon="-0.2411">
        <ele>105.8</ele>
        <time>2024-04-07T05:32:03Z</time>
      </trkpt>
      <trkpt lat="49.23223" lon="-0.24125">
        <ele>105.6</ele>
        <time>2024-04-07T05:32:04Z</time>
      </trkpt>
      <trkpt lat="49.2322" lon="-0.24129">
        <ele>105.4</ele>
        <time>2024-04-07T05:32:05Z</time>
      </trkpt>
      <trkpt lat="49.23217" lon="-0.24133">
        <ele>105.4</ele>
        <time>2024-04-07T05:32:06Z</time>
      </trkpt>
      <trkpt lat="49.23211" lon="-0.24141">
        <ele>105.4</ele>
        <time>2024-04-07T05:32:07Z</time>
      </trkpt>
      <trkpt lat="49.23205" lon="-0.24148">
        <ele>105.4</ele>
        <time>2024-04-07T05:32:08Z</time>
      </trkpt>
      <trkpt lat="49.23199" lon="-0.24156">
        <ele>105.4</ele>
        <time>2024-04-07T05:32:09Z</time>
      </trkpt>
      <trkpt lat="49.23192" lon="-0.24162">
        <ele>105.4</ele>
        <time>2024-04-07T05:32:10Z</time>
      </trkpt>
      <trkpt lat="49.23186" lon="-0.24169">
        <ele>105.2</ele>
        <time>2024-04-07T05:32:11Z</time>
      </trkpt>
      <trkpt lat="49.23179" lon="-0.24175">
        <ele>105</ele>
        <time>2024-04-07T05:32:12Z</time>
      </trkpt>
      <trkpt lat="49.23172" lon="-0.2418">
        <ele>104.8</ele>
        <time>2024-04-07T05:32:13Z</time>
      </trkpt>
      <trkpt lat="49.23165" lon="-0.24185">
        <ele>104.6</ele>
        <time>2024-04-07T05:32:14Z</time>
      </trkpt>
      <trkpt lat="49.23158" lon="-0.24189">
        <ele>104.6</ele>
        <time>2024-04-07T05:32:15Z</time>
      </trkpt>
      <trkpt lat="49.23151" lon="-0.24193">
        <ele>104.4</ele>
        <time>2024-04-07T05:32:16Z</time>
      </trkpt>
      <trkpt lat="49.23144" lon="-0.24196">
        <ele>104.4</ele>
        <time>2024-04-07T05:32:17Z</time>
      </trkpt>
      <trkpt lat="49.23137" lon="-0.242">
        <ele>104.4</ele>
        <time>2024-04-07T05:32:18Z</time>
      </trkpt>
      <trkpt lat="49.23131" lon="-0.24203">
        <ele>104.2</ele>
        <time>2024-04-07T05:32:19Z</time>
      </trkpt>
      <trkpt lat="49.23124" lon="-0.24206">
        <ele>104.2</ele>
        <time>2024-04-07T05:32:20Z</time>
      </trkpt>
      <trkpt lat="49.23117" lon="-0.2421">
        <ele>104</ele>
        <time>2024-04-07T05:32:21Z</time>
      </trkpt>
      <trkpt lat="49.23111" lon="-0.24213">
        <ele>103.8</ele>
        <time>2024-04-07T05:32:22Z</time>
      </trkpt>
      <trkpt lat="49.23105" lon="-0.24215">
        <ele>103.8</ele>
        <time>2024-04-07T05:32:23Z</time>
      </trkpt>
      <trkpt lat="49.23098" lon="-0.24218">
        <ele>103.8</ele>
        <time>2024-04-07T05:32:24Z</time>
      </trkpt>
      <trkpt lat="49.23092" lon="-0.24221">
        <ele>104</ele>
        <time>2024-04-07T05:32:25Z</time>
      </trkpt>
      <trkpt lat="49.23086" lon="-0.24225">
        <ele>104</ele>
        <time>2024-04-07T05:32:26Z</time>
      </trkpt>
      <trkpt lat="49.2308" lon="-0.24228">
        <ele>104</ele>
        <time>2024-04-07T05:32:27Z</time>
      </trkpt>
      <trkpt lat="49.23073" lon="-0.24231">
        <ele>104.2</ele>
        <time>2024-04-07T05:32:28Z</time>
      </trkpt>
      <trkpt lat="49.23068" lon="-0.24234">
        <ele>104.4</ele>
        <time>2024-04-07T05:32:29Z</time>
      </trkpt>
      <trkpt lat="49.23062" lon="-0.24237">
        <ele>104.4</ele>
        <time>2024-04-07T05:32:30Z</time>
      </trkpt>
      <trkpt lat="49.23056" lon="-0.2424">
        <ele>104.6</ele>
        <time>2024-04-07T05:32:31Z</time>
      </trkpt>
      <trkpt lat="49.2305" lon="-0.24243">
        <ele>104.6</ele>
        <time>2024-04-07T05:32:32Z</time>
      </trkpt>
      <trkpt lat="49.23044" lon="-0.24246">
        <ele>104.8</ele>
        <time>2024-04-07T05:32:33Z</time>
      </trkpt>
      <trkpt lat="49.23039" lon="-0.24249">
        <ele>105</ele>
        <time>2024-04-07T05:32:34Z</time>
      </trkpt>
      <trkpt lat="49.23033" lon="-0.24252">
        <ele>105.8</ele>
        <time>2024-04-07T05:32:35Z</time>
      </trkpt>
      <trkpt lat="49.23027" lon="-0.24255">
        <ele>107</ele>
        <time>2024-04-07T05:32:36Z</time>
      </trkpt>
      <trkpt lat="49.23021" lon="-0.24258">
        <ele>108</ele>
        <time>2024-04-07T05:32:37Z</time>
      </trkpt>
      <trkpt lat="49.23015" lon="-0.24261">
        <ele>108.6</ele>
        <time>2024-04-07T05:32:38Z</time>
      </trkpt>
      <trkpt lat="49.23009" lon="-0.24264">
        <ele>108.8</ele>
        <time>2024-04-07T05:32:39Z</time>
      </trkpt>
      <trkpt lat="49.23003" lon="-0.24267">
        <ele>109</ele>
        <time>2024-04-07T05:32:40Z</time>
      </trkpt>
      <trkpt lat="49.22997" lon="-0.2427">
        <ele>109.2</ele>
        <time>2024-04-07T05:32:41Z</time>
      </trkpt>
      <trkpt lat="49.22991" lon="-0.24273">
        <ele>109.4</ele>
        <time>2024-04-07T05:32:42Z</time>
      </trkpt>
      <trkpt lat="49.22986" lon="-0.24276">
        <ele>109.6</ele>
        <time>2024-04-07T05:32:43Z</time>
      </trkpt>
      <trkpt lat="49.2298" lon="-0.24279">
        <ele>109.6</ele>
        <time>2024-04-07T05:32:44Z</time>
      </trkpt>
      <trkpt lat="49.22974" lon="-0.24281">
        <ele>109.6</ele>
        <time>2024-04-07T05:32:45Z</time>
      </trkpt>
      <trkpt lat="49.22969" lon="-0.24285">
        <ele>109.2</ele>
        <time>2024-04-07T05:32:46Z</time>
      </trkpt>
      <trkpt lat="49.22963" lon="-0.24288">
        <ele>108.8</ele>
        <time>2024-04-07T05:32:47Z</time>
      </trkpt>
      <trkpt lat="49.22958" lon="-0.24292">
        <ele>108.8</ele>
        <time>2024-04-07T05:32:48Z</time>
      </trkpt>
      <trkpt lat="49.22952" lon="-0.24297">
        <ele>108.6</ele>
        <time>2024-04-07T05:32:49Z</time>
      </trkpt>
      <trkpt lat="49.22946" lon="-0.24301">
        <ele>108.6</ele>
        <time>2024-04-07T05:32:50Z</time>
      </trkpt>
      <trkpt lat="49.22941" lon="-0.24307">
        <ele>108.8</ele>
        <time>2024-04-07T05:32:51Z</time>
      </trkpt>
      <trkpt lat="49.22935" lon="-0.24313">
        <ele>109</ele>
        <time>2024-04-07T05:32:52Z</time>
      </trkpt>
      <trkpt lat="49.2293" lon="-0.24319">
        <ele>109.4</ele>
        <time>2024-04-07T05:32:53Z</time>
      </trkpt>
      <trkpt lat="49.22925" lon="-0.24325">
        <ele>109.6</ele>
        <time>2024-04-07T05:32:54Z</time>
      </trkpt>
      <trkpt lat="49.2292" lon="-0.24332">
        <ele>109.8</ele>
        <time>2024-04-07T05:32:55Z</time>
      </trkpt>
      <trkpt lat="49.22915" lon="-0.24339">
        <ele>109.8</ele>
        <time>2024-04-07T05:32:56Z</time>
      </trkpt>
      <trkpt lat="49.2291" lon="-0.24345">
        <ele>109.8</ele>
        <time>2024-04-07T05:32:57Z</time>
      </trkpt>
      <trkpt lat="49.22906" lon="-0.24352">
        <ele>109.8</ele>
        <time>2024-04-07T05:32:58Z</time>
      </trkpt>
      <trkpt lat="49.22901" lon="-0.24359">
        <ele>109.4</ele>
        <time>2024-04-07T05:32:59Z</time>
      </trkpt>
      <trkpt lat="49.22896" lon="-0.24365">
        <ele>109</ele>
        <time>2024-04-07T05:33:00Z</time>
      </trkpt>
      <trkpt lat="49.22891" lon="-0.24372">
        <ele>108.8</ele>
        <time>2024-04-07T05:33:01Z</time>
      </trkpt>
      <trkpt lat="49.22886" lon="-0.24378">
        <ele>108.4</ele>
        <time>2024-04-07T05:33:02Z</time>
      </trkpt>
      <trkpt lat="49.22882" lon="-0.24384">
        <ele>108</ele>
        <time>2024-04-07T05:33:03Z</time>
      </trkpt>
      <trkpt lat="49.22878" lon="-0.2439">
        <ele>107.6</ele>
        <time>2024-04-07T05:33:04Z</time>
      </trkpt>
      <trkpt lat="49.22875" lon="-0.24396">
        <ele>107.2</ele>
        <time>2024-04-07T05:33:05Z</time>
      </trkpt>
      <trkpt lat="49.22871" lon="-0.24401">
        <ele>107</ele>
        <time>2024-04-07T05:33:06Z</time>
      </trkpt>
      <trkpt lat="49.22869" lon="-0.24404">
        <ele>107</ele>
        <time>2024-04-07T05:33:07Z</time>
      </trkpt>
      <trkpt lat="49.22867" lon="-0.24408">
        <ele>107.2</ele>
        <time>2024-04-07T05:33:08Z</time>
      </trkpt>
      <trkpt lat="49.22866" lon="-0.2441">
        <ele>107.4</ele>
        <time>2024-04-07T05:33:09Z</time>
      </trkpt>
      <trkpt lat="49.22865" lon="-0.24411">
        <ele>107.6</ele>
        <time>2024-04-07T05:33:10Z</time>
      </trkpt>
      <trkpt lat="49.22865" lon="-0.24412">
        <ele>108.2</ele>
        <time>2024-04-07T05:33:11Z</time>
      </trkpt>
      <trkpt lat="49.22865" lon="-0.24412">
        <ele>108.6</ele>
        <time>2024-04-07T05:33:12Z</time>
      </trkpt>
      <trkpt lat="49.22865" lon="-0.24412">
        <ele>109</ele>
        <time>2024-04-07T05:33:13Z</time>
      </trkpt>
      <trkpt lat="49.22864" lon="-0.24417">
        <ele>109</ele>
        <time>2024-04-07T05:33:22Z</time>
      </trkpt>
      <trkpt lat="49.22863" lon="-0.2442">
        <ele>108.8</ele>
        <time>2024-04-07T05:33:23Z</time>
      </trkpt>
      <trkpt lat="49.22862" lon="-0.24424">
        <ele>108.6</ele>
        <time>2024-04-07T05:33:24Z</time>
      </trkpt>
      <trkpt lat="49.2286" lon="-0.24427">
        <ele>108.4</ele>
        <time>2024-04-07T05:33:25Z</time>
      </trkpt>
      <trkpt lat="49.22857" lon="-0.24431">
        <ele>108</ele>
        <time>2024-04-07T05:33:26Z</time>
      </trkpt>
      <trkpt lat="49.22853" lon="-0.24433">
        <ele>107.4</ele>
        <time>2024-04-07T05:33:27Z</time>
      </trkpt>
      <trkpt lat="49.22849" lon="-0.24436">
        <ele>106.6</ele>
        <time>2024-04-07T05:33:28Z</time>
      </trkpt>
      <trkpt lat="49.22845" lon="-0.24438">
        <ele>106</ele>
        <time>2024-04-07T05:33:29Z</time>
      </trkpt>
      <trkpt lat="49.22841" lon="-0.24441">
        <ele>105.6</ele>
        <time>2024-04-07T05:33:30Z</time>
      </trkpt>
      <trkpt lat="49.22836" lon="-0.24444">
        <ele>105.4</ele>
        <time>2024-04-07T05:33:31Z</time>
      </trkpt>
      <trkpt lat="49.22832" lon="-0.24447">
        <ele>105.4</ele>
        <time>2024-04-07T05:33:32Z</time>
      </trkpt>
      <trkpt lat="49.22827" lon="-0.24451">
        <ele>105.2</ele>
        <time>2024-04-07T05:33:33Z</time>
      </trkpt>
      <trkpt lat="49.22823" lon="-0.24455">
        <ele>105</ele>
        <time>2024-04-07T05:33:34Z</time>
      </trkpt>
      <trkpt lat="49.22818" lon="-0.24459">
        <ele>104.8</ele>
        <time>2024-04-07T05:33:35Z</time>
      </trkpt>
      <trkpt lat="49.22813" lon="-0.24464">
        <ele>104.8</ele>
        <time>2024-04-07T05:33:36Z</time>
      </trkpt>
      <trkpt lat="49.22808" lon="-0.24469">
        <ele>104.8</ele>
        <time>2024-04-07T05:33:37Z</time>
      </trkpt>
      <trkpt lat="49.22804" lon="-0.24474">
        <ele>105</ele>
        <time>2024-04-07T05:33:38Z</time>
      </trkpt>
      <trkpt lat="49.22799" lon="-0.24479">
        <ele>105.2</ele>
        <time>2024-04-07T05:33:39Z</time>
      </trkpt>
      <trkpt lat="49.22794" lon="-0.24483">
        <ele>105.6</ele>
        <time>2024-04-07T05:33:40Z</time>
      </trkpt>
      <trkpt lat="49.22789" lon="-0.24487">
        <ele>106</ele>
        <time>2024-04-07T05:33:41Z</time>
      </trkpt>
      <trkpt lat="49.22784" lon="-0.24492">
        <ele>106.2</ele>
        <time>2024-04-07T05:33:42Z</time>
      </trkpt>
      <trkpt lat="49.22779" lon="-0.24497">
        <ele>106.4</ele>
        <time>2024-04-07T05:33:43Z</time>
      </trkpt>
      <trkpt lat="49.22774" lon="-0.24502">
        <ele>106.6</ele>
        <time>2024-04-07T05:33:44Z</time>
      </trkpt>
      <trkpt lat="49.22769" lon="-0.24506">
        <ele>106.8</ele>
        <time>2024-04-07T05:33:45Z</time>
      </trkpt>
      <trkpt lat="49.22764" lon="-0.24511">
        <ele>107</ele>
        <time>2024-04-07T05:33:46Z</time>
      </trkpt>
      <trkpt lat="49.22758" lon="-0.24515">
        <ele>107.2</ele>
        <time>2024-04-07T05:33:47Z</time>
      </trkpt>
      <trkpt lat="49.22753" lon="-0.24519">
        <ele>107.4</ele>
        <time>2024-04-07T05:33:48Z</time>
      </trkpt>
      <trkpt lat="49.22747" lon="-0.24523">
        <ele>107.4</ele>
        <time>2024-04-07T05:33:49Z</time>
      </trkpt>
      <trkpt lat="49.22741" lon="-0.24527">
        <ele>107.6</ele>
        <time>2024-04-07T05:33:50Z</time>
      </trkpt>
      <trkpt lat="49.22736" lon="-0.2453">
        <ele>107.4</ele>
        <time>2024-04-07T05:33:51Z</time>
      </trkpt>
      <trkpt lat="49.2273" lon="-0.24533">
        <ele>107.4</ele>
        <time>2024-04-07T05:33:52Z</time>
      </trkpt>
      <trkpt lat="49.22724" lon="-0.24537">
        <ele>107.6</ele>
        <time>2024-04-07T05:33:53Z</time>
      </trkpt>
      <trkpt lat="49.22719" lon="-0.2454">
        <ele>107.6</ele>
        <time>2024-04-07T05:33:54Z</time>
      </trkpt>
      <trkpt lat="49.22713" lon="-0.24544">
        <ele>107.6</ele>
        <time>2024-04-07T05:33:55Z</time>
      </trkpt>
      <trkpt lat="49.22707" lon="-0.24548">
        <ele>107.6</ele>
        <time>2024-04-07T05:33:56Z</time>
      </trkpt>
      <trkpt lat="49.22702" lon="-0.24552">
        <ele>107.6</ele>
        <time>2024-04-07T05:33:57Z</time>
      </trkpt>
      <trkpt lat="49.22696" lon="-0.24556">
        <ele>107.8</ele>
        <time>2024-04-07T05:33:58Z</time>
      </trkpt>
      <trkpt lat="49.2269" lon="-0.2456">
        <ele>107.8</ele>
        <time>2024-04-07T05:33:59Z</time>
      </trkpt>
      <trkpt lat="49.22685" lon="-0.24563">
        <ele>107.8</ele>
        <time>2024-04-07T05:34:00Z</time>
      </trkpt>
      <trkpt lat="49.22679" lon="-0.24566">
        <ele>107.8</ele>
        <time>2024-04-07T05:34:01Z</time>
      </trkpt>
      <trkpt lat="49.22673" lon="-0.24569">
        <ele>107.6</ele>
        <time>2024-04-07T05:34:02Z</time>
      </trkpt>
      <trkpt lat="49.22667" lon="-0.24573">
        <ele>107.4</ele>
        <time>2024-04-07T05:34:03Z</time>
      </trkpt>
      <trkpt lat="49.2266" lon="-0.24575">
        <ele>107.4</ele>
        <time>2024-04-07T05:34:04Z</time>
      </trkpt>
      <trkpt lat="49.22654" lon="-0.24578">
        <ele>107.4</ele>
        <time>2024-04-07T05:34:05Z</time>
      </trkpt>
      <trkpt lat="49.22647" lon="-0.2458">
        <ele>107.4</ele>
        <time>2024-04-07T05:34:06Z</time>
      </trkpt>
      <trkpt lat="49.2264" lon="-0.24581">
        <ele>107.4</ele>
        <time>2024-04-07T05:34:07Z</time>
      </trkpt>
      <trkpt lat="49.22633" lon="-0.24582">
        <ele>107.4</ele>
        <time>2024-04-07T05:34:08Z</time>
      </trkpt>
      <trkpt lat="49.22626" lon="-0.24583">
        <ele>107.2</ele>
        <time>2024-04-07T05:34:09Z</time>
      </trkpt>
      <trkpt lat="49.2262" lon="-0.24583">
        <ele>107.4</ele>
        <time>2024-04-07T05:34:10Z</time>
      </trkpt>
      <trkpt lat="49.22613" lon="-0.24584">
        <ele>107.4</ele>
        <time>2024-04-07T05:34:11Z</time>
      </trkpt>
      <trkpt lat="49.22606" lon="-0.24585">
        <ele>107.4</ele>
        <time>2024-04-07T05:34:12Z</time>
      </trkpt>
      <trkpt lat="49.226" lon="-0.24585">
        <ele>107.6</ele>
        <time>2024-04-07T05:34:13Z</time>
      </trkpt>
      <trkpt lat="49.22593" lon="-0.24586">
        <ele>107.8</ele>
        <time>2024-04-07T05:34:14Z</time>
      </trkpt>
      <trkpt lat="49.22586" lon="-0.24586">
        <ele>108</ele>
        <time>2024-04-07T05:34:15Z</time>
      </trkpt>
      <trkpt lat="49.2258" lon="-0.24586">
        <ele>108.2</ele>
        <time>2024-04-07T05:34:16Z</time>
      </trkpt>
      <trkpt lat="49.22573" lon="-0.24587">
        <ele>108.2</ele>
        <time>2024-04-07T05:34:17Z</time>
      </trkpt>
      <trkpt lat="49.22567" lon="-0.24587">
        <ele>108.4</ele>
        <time>2024-04-07T05:34:18Z</time>
      </trkpt>
      <trkpt lat="49.2256" lon="-0.24587">
        <ele>108.2</ele>
        <time>2024-04-07T05:34:19Z</time>
      </trkpt>
      <trkpt lat="49.22554" lon="-0.24588">
        <ele>108.2</ele>
        <time>2024-04-07T05:34:20Z</time>
      </trkpt>
      <trkpt lat="49.22547" lon="-0.24588">
        <ele>108.2</ele>
        <time>2024-04-07T05:34:21Z</time>
      </trkpt>
      <trkpt lat="49.22541" lon="-0.24587">
        <ele>108.2</ele>
        <time>2024-04-07T05:34:22Z</time>
      </trkpt>
      <trkpt lat="49.22534" lon="-0.24587">
        <ele>108.2</ele>
        <time>2024-04-07T05:34:23Z</time>
      </trkpt>
      <trkpt lat="49.22528" lon="-0.24586">
        <ele>108</ele>
        <time>2024-04-07T05:34:24Z</time>
      </trkpt>
      <trkpt lat="49.22522" lon="-0.24585">
        <ele>108</ele>
        <time>2024-04-07T05:34:25Z</time>
      </trkpt>
      <trkpt lat="49.22515" lon="-0.24583">
        <ele>108</ele>
        <time>2024-04-07T05:34:26Z</time>
      </trkpt>
      <trkpt lat="49.22509" lon="-0.24581">
        <ele>108.2</ele>
        <time>2024-04-07T05:34:27Z</time>
      </trkpt>
      <trkpt lat="49.22502" lon="-0.24578">
        <ele>108.4</ele>
        <time>2024-04-07T05:34:28Z</time>
      </trkpt>
      <trkpt lat="49.22496" lon="-0.24575">
        <ele>108.4</ele>
        <time>2024-04-07T05:34:29Z</time>
      </trkpt>
      <trkpt lat="49.2249" lon="-0.24571">
        <ele>108.4</ele>
        <time>2024-04-07T05:34:30Z</time>
      </trkpt>
      <trkpt lat="49.22484" lon="-0.24568">
        <ele>108.4</ele>
        <time>2024-04-07T05:34:31Z</time>
      </trkpt>
      <trkpt lat="49.22478" lon="-0.24564">
        <ele>108.4</ele>
        <time>2024-04-07T05:34:32Z</time>
      </trkpt>
      <trkpt lat="49.22472" lon="-0.24559">
        <ele>108.2</ele>
        <time>2024-04-07T05:34:33Z</time>
      </trkpt>
      <trkpt lat="49.22467" lon="-0.24553">
        <ele>108.2</ele>
        <time>2024-04-07T05:34:34Z</time>
      </trkpt>
      <trkpt lat="49.22461" lon="-0.24548">
        <ele>108.2</ele>
        <time>2024-04-07T05:34:35Z</time>
      </trkpt>
      <trkpt lat="49.22456" lon="-0.24542">
        <ele>108.2</ele>
        <time>2024-04-07T05:34:36Z</time>
      </trkpt>
      <trkpt lat="49.2245" lon="-0.24537">
        <ele>108.4</ele>
        <time>2024-04-07T05:34:37Z</time>
      </trkpt>
      <trkpt lat="49.22445" lon="-0.24531">
        <ele>108.6</ele>
        <time>2024-04-07T05:34:38Z</time>
      </trkpt>
      <trkpt lat="49.22439" lon="-0.24527">
        <ele>108.6</ele>
        <time>2024-04-07T05:34:39Z</time>
      </trkpt>
      <trkpt lat="49.22433" lon="-0.24522">
        <ele>108.6</ele>
        <time>2024-04-07T05:34:40Z</time>
      </trkpt>
      <trkpt lat="49.22427" lon="-0.24519">
        <ele>108.4</ele>
        <time>2024-04-07T05:34:41Z</time>
      </trkpt>
      <trkpt lat="49.22421" lon="-0.24515">
        <ele>108.4</ele>
        <time>2024-04-07T05:34:42Z</time>
      </trkpt>
      <trkpt lat="49.22415" lon="-0.24511">
        <ele>108.6</ele>
        <time>2024-04-07T05:34:43Z</time>
      </trkpt>
      <trkpt lat="49.22409" lon="-0.24508">
        <ele>108.6</ele>
        <time>2024-04-07T05:34:44Z</time>
      </trkpt>
      <trkpt lat="49.22403" lon="-0.24506">
        <ele>109</ele>
        <time>2024-04-07T05:34:45Z</time>
      </trkpt>
      <trkpt lat="49.22397" lon="-0.24502">
        <ele>109.4</ele>
        <time>2024-04-07T05:34:46Z</time>
      </trkpt>
      <trkpt lat="49.22391" lon="-0.245">
        <ele>109.4</ele>
        <time>2024-04-07T05:34:47Z</time>
      </trkpt>
      <trkpt lat="49.22385" lon="-0.24497">
        <ele>109.6</ele>
        <time>2024-04-07T05:34:48Z</time>
      </trkpt>
      <trkpt lat="49.22379" lon="-0.24495">
        <ele>109.6</ele>
        <time>2024-04-07T05:34:49Z</time>
      </trkpt>
      <trkpt lat="49.22373" lon="-0.24492">
        <ele>109.8</ele>
        <time>2024-04-07T05:34:50Z</time>
      </trkpt>
      <trkpt lat="49.22367" lon="-0.24491">
        <ele>109.8</ele>
        <time>2024-04-07T05:34:51Z</time>
      </trkpt>
      <trkpt lat="49.22361" lon="-0.24489">
        <ele>109.8</ele>
        <time>2024-04-07T05:34:52Z</time>
      </trkpt>
      <trkpt lat="49.22354" lon="-0.24488">
        <ele>109.8</ele>
        <time>2024-04-07T05:34:53Z</time>
      </trkpt>
      <trkpt lat="49.22348" lon="-0.24487">
        <ele>109.8</ele>
        <time>2024-04-07T05:34:54Z</time>
      </trkpt>
      <trkpt lat="49.22341" lon="-0.24486">
        <ele>109.8</ele>
        <time>2024-04-07T05:34:55Z</time>
      </trkpt>
      <trkpt lat="49.22334" lon="-0.24486">
        <ele>109.8</ele>
        <time>2024-04-07T05:34:56Z</time>
      </trkpt>
      <trkpt lat="49.22328" lon="-0.24485">
        <ele>109.8</ele>
        <time>2024-04-07T05:34:57Z</time>
      </trkpt>
      <trkpt lat="49.22321" lon="-0.24484">
        <ele>109.8</ele>
        <time>2024-04-07T05:34:58Z</time>
      </trkpt>
      <trkpt lat="49.22314" lon="-0.24484">
        <ele>109.8</ele>
        <time>2024-04-07T05:34:59Z</time>
      </trkpt>
      <trkpt lat="49.22308" lon="-0.24483">
        <ele>109.6</ele>
        <time>2024-04-07T05:35:00Z</time>
      </trkpt>
      <trkpt lat="49.22301" lon="-0.24483">
        <ele>109.4</ele>
        <time>2024-04-07T05:35:01Z</time>
      </trkpt>
      <trkpt lat="49.22294" lon="-0.24482">
        <ele>109</ele>
        <time>2024-04-07T05:35:02Z</time>
      </trkpt>
      <trkpt lat="49.22288" lon="-0.24482">
        <ele>108.8</ele>
        <time>2024-04-07T05:35:03Z</time>
      </trkpt>
      <trkpt lat="49.22281" lon="-0.24481">
        <ele>108.8</ele>
        <time>2024-04-07T05:35:04Z</time>
      </trkpt>
      <trkpt lat="49.22274" lon="-0.24481">
        <ele>108.6</ele>
        <time>2024-04-07T05:35:05Z</time>
      </trkpt>
      <trkpt lat="49.22268" lon="-0.24482">
        <ele>108.6</ele>
        <time>2024-04-07T05:35:06Z</time>
      </trkpt>
      <trkpt lat="49.22261" lon="-0.24482">
        <ele>108.4</ele>
        <time>2024-04-07T05:35:07Z</time>
      </trkpt>
      <trkpt lat="49.22254" lon="-0.24482">
        <ele>108.4</ele>
        <time>2024-04-07T05:35:08Z</time>
      </trkpt>
      <trkpt lat="49.22248" lon="-0.24483">
        <ele>108.4</ele>
        <time>2024-04-07T05:35:09Z</time>
      </trkpt>
      <trkpt lat="49.22241" lon="-0.24485">
        <ele>108.6</ele>
        <time>2024-04-07T05:35:10Z</time>
      </trkpt>
      <trkpt lat="49.22234" lon="-0.24486">
        <ele>108.6</ele>
        <time>2024-04-07T05:35:11Z</time>
      </trkpt>
      <trkpt lat="49.22228" lon="-0.24488">
        <ele>108.6</ele>
        <time>2024-04-07T05:35:12Z</time>
      </trkpt>
      <trkpt lat="49.22222" lon="-0.2449">
        <ele>108.8</ele>
        <time>2024-04-07T05:35:13Z</time>
      </trkpt>
      <trkpt lat="49.22215" lon="-0.24492">
        <ele>108.8</ele>
        <time>2024-04-07T05:35:14Z</time>
      </trkpt>
      <trkpt lat="49.22209" lon="-0.24494">
        <ele>108.8</ele>
        <time>2024-04-07T05:35:15Z</time>
      </trkpt>
      <trkpt lat="49.22202" lon="-0.24496">
        <ele>108.8</ele>
        <time>2024-04-07T05:35:16Z</time>
      </trkpt>
      <trkpt lat="49.22196" lon="-0.24498">
        <ele>108.8</ele>
        <time>2024-04-07T05:35:17Z</time>
      </trkpt>
      <trkpt lat="49.22189" lon="-0.245">
        <ele>108.8</ele>
        <time>2024-04-07T05:35:18Z</time>
      </trkpt>
      <trkpt lat="49.22182" lon="-0.24502">
        <ele>108.8</ele>
        <time>2024-04-07T05:35:19Z</time>
      </trkpt>
      <trkpt lat="49.22176" lon="-0.24504">
        <ele>108.8</ele>
        <time>2024-04-07T05:35:20Z</time>
      </trkpt>
      <trkpt lat="49.22169" lon="-0.24505">
        <ele>108.8</ele>
        <time>2024-04-07T05:35:21Z</time>
      </trkpt>
      <trkpt lat="49.22163" lon="-0.24506">
        <ele>108.8</ele>
        <time>2024-04-07T05:35:22Z</time>
      </trkpt>
      <trkpt lat="49.22156" lon="-0.24507">
        <ele>108.8</ele>
        <time>2024-04-07T05:35:23Z</time>
      </trkpt>
      <trkpt lat="49.2215" lon="-0.24507">
        <ele>108.8</ele>
        <time>2024-04-07T05:35:24Z</time>
      </trkpt>
      <trkpt lat="49.22143" lon="-0.24507">
        <ele>108.8</ele>
        <time>2024-04-07T05:35:25Z</time>
      </trkpt>
      <trkpt lat="49.22136" lon="-0.24507">
        <ele>108.8</ele>
        <time>2024-04-07T05:35:26Z</time>
      </trkpt>
      <trkpt lat="49.2213" lon="-0.24508">
        <ele>108.8</ele>
        <time>2024-04-07T05:35:27Z</time>
      </trkpt>
      <trkpt lat="49.22123" lon="-0.24508">
        <ele>108.8</ele>
        <time>2024-04-07T05:35:28Z</time>
      </trkpt>
      <trkpt lat="49.22116" lon="-0.24508">
        <ele>109</ele>
        <time>2024-04-07T05:35:29Z</time>
      </trkpt>
      <trkpt lat="49.2211" lon="-0.24508">
        <ele>109</ele>
        <time>2024-04-07T05:35:30Z</time>
      </trkpt>
      <trkpt lat="49.22103" lon="-0.24508">
        <ele>109</ele>
        <time>2024-04-07T05:35:31Z</time>
      </trkpt>
      <trkpt lat="49.22097" lon="-0.24508">
        <ele>109.2</ele>
        <time>2024-04-07T05:35:32Z</time>
      </trkpt>
      <trkpt lat="49.2209" lon="-0.24506">
        <ele>109.2</ele>
        <time>2024-04-07T05:35:33Z</time>
      </trkpt>
      <trkpt lat="49.22085" lon="-0.24504">
        <ele>109.2</ele>
        <time>2024-04-07T05:35:34Z</time>
      </trkpt>
      <trkpt lat="49.22079" lon="-0.245">
        <ele>109.4</ele>
        <time>2024-04-07T05:35:35Z</time>
      </trkpt>
      <trkpt lat="49.22074" lon="-0.24495">
        <ele>109.6</ele>
        <time>2024-04-07T05:35:36Z</time>
      </trkpt>
      <trkpt lat="49.22069" lon="-0.24489">
        <ele>109.8</ele>
        <time>2024-04-07T05:35:37Z</time>
      </trkpt>
      <trkpt lat="49.22064" lon="-0.24483">
        <ele>109.8</ele>
        <time>2024-04-07T05:35:38Z</time>
      </trkpt>
      <trkpt lat="49.2206" lon="-0.24477">
        <ele>110</ele>
        <time>2024-04-07T05:35:39Z</time>
      </trkpt>
      <trkpt lat="49.22056" lon="-0.2447">
        <ele>110</ele>
        <time>2024-04-07T05:35:40Z</time>
      </trkpt>
      <trkpt lat="49.22053" lon="-0.24463">
        <ele>110</ele>
        <time>2024-04-07T05:35:41Z</time>
      </trkpt>
      <trkpt lat="49.2205" lon="-0.24456">
        <ele>110</ele>
        <time>2024-04-07T05:35:42Z</time>
      </trkpt>
      <trkpt lat="49.22046" lon="-0.24449">
        <ele>110</ele>
        <time>2024-04-07T05:35:43Z</time>
      </trkpt>
      <trkpt lat="49.22043" lon="-0.24442">
        <ele>110.2</ele>
        <time>2024-04-07T05:35:44Z</time>
      </trkpt>
      <trkpt lat="49.22039" lon="-0.24435">
        <ele>110.2</ele>
        <time>2024-04-07T05:35:45Z</time>
      </trkpt>
      <trkpt lat="49.22036" lon="-0.24429">
        <ele>110.4</ele>
        <time>2024-04-07T05:35:46Z</time>
      </trkpt>
      <trkpt lat="49.22033" lon="-0.24422">
        <ele>110.8</ele>
        <time>2024-04-07T05:35:47Z</time>
      </trkpt>
      <trkpt lat="49.22029" lon="-0.24416">
        <ele>111.2</ele>
        <time>2024-04-07T05:35:48Z</time>
      </trkpt>
      <trkpt lat="49.22026" lon="-0.2441">
        <ele>111.4</ele>
        <time>2024-04-07T05:35:49Z</time>
      </trkpt>
      <trkpt lat="49.22022" lon="-0.24404">
        <ele>111.6</ele>
        <time>2024-04-07T05:35:50Z</time>
      </trkpt>
      <trkpt lat="49.22019" lon="-0.24399">
        <ele>111.8</ele>
        <time>2024-04-07T05:35:51Z</time>
      </trkpt>
      <trkpt lat="49.22016" lon="-0.24392">
        <ele>111.8</ele>
        <time>2024-04-07T05:35:52Z</time>
      </trkpt>
      <trkpt lat="49.22013" lon="-0.24387">
        <ele>111.8</ele>
        <time>2024-04-07T05:35:53Z</time>
      </trkpt>
      <trkpt lat="49.22009" lon="-0.24383">
        <ele>111.8</ele>
        <time>2024-04-07T05:35:54Z</time>
      </trkpt>
      <trkpt lat="49.22005" lon="-0.2438">
        <ele>111.8</ele>
        <time>2024-04-07T05:35:55Z</time>
      </trkpt>
      <trkpt lat="49.22" lon="-0.24379">
        <ele>111.8</ele>
        <time>2024-04-07T05:35:56Z</time>
      </trkpt>
      <trkpt lat="49.21995" lon="-0.24381">
        <ele>111.8</ele>
        <time>2024-04-07T05:35:57Z</time>
      </trkpt>
      <trkpt lat="49.2199" lon="-0.24384">
        <ele>111.6</ele>
        <time>2024-04-07T05:35:58Z</time>
      </trkpt>
      <trkpt lat="49.21987" lon="-0.24389">
        <ele>111.4</ele>
        <time>2024-04-07T05:35:59Z</time>
      </trkpt>
      <trkpt lat="49.21984" lon="-0.24396">
        <ele>111.2</ele>
        <time>2024-04-07T05:36:00Z</time>
      </trkpt>
      <trkpt lat="49.21982" lon="-0.24404">
        <ele>111.2</ele>
        <time>2024-04-07T05:36:01Z</time>
      </trkpt>
      <trkpt lat="49.2198" lon="-0.24413">
        <ele>110.8</ele>
        <time>2024-04-07T05:36:02Z</time>
      </trkpt>
      <trkpt lat="49.21977" lon="-0.24422">
        <ele>110.4</ele>
        <time>2024-04-07T05:36:03Z</time>
      </trkpt>
      <trkpt lat="49.21975" lon="-0.24431">
        <ele>110</ele>
        <time>2024-04-07T05:36:04Z</time>
      </trkpt>
      <trkpt lat="49.21971" lon="-0.24439">
        <ele>109.8</ele>
        <time>2024-04-07T05:36:05Z</time>
      </trkpt>
      <trkpt lat="49.21968" lon="-0.24448">
        <ele>109.8</ele>
        <time>2024-04-07T05:36:06Z</time>
      </trkpt>
      <trkpt lat="49.21964" lon="-0.24457">
        <ele>109.6</ele>
        <time>2024-04-07T05:36:07Z</time>
      </trkpt>
      <trkpt lat="49.21961" lon="-0.24466">
        <ele>109.6</ele>
        <time>2024-04-07T05:36:08Z</time>
      </trkpt>
      <trkpt lat="49.21958" lon="-0.24475">
        <ele>109.6</ele>
        <time>2024-04-07T05:36:09Z</time>
      </trkpt>
      <trkpt lat="49.21955" lon="-0.24485">
        <ele>109.6</ele>
        <time>2024-04-07T05:36:10Z</time>
      </trkpt>
      <trkpt lat="49.21952" lon="-0.24494">
        <ele>109.6</ele>
        <time>2024-04-07T05:36:11Z</time>
      </trkpt>
      <trkpt lat="49.21949" lon="-0.24502">
        <ele>109.6</ele>
        <time>2024-04-07T05:36:12Z</time>
      </trkpt>
      <trkpt lat="49.21946" lon="-0.24511">
        <ele>109.8</ele>
        <time>2024-04-07T05:36:13Z</time>
      </trkpt>
      <trkpt lat="49.21943" lon="-0.2452">
        <ele>110</ele>
        <time>2024-04-07T05:36:14Z</time>
      </trkpt>
      <trkpt lat="49.2194" lon="-0.24528">
        <ele>110.2</ele>
        <time>2024-04-07T05:36:15Z</time>
      </trkpt>
      <trkpt lat="49.21937" lon="-0.24537">
        <ele>110.4</ele>
        <time>2024-04-07T05:36:16Z</time>
      </trkpt>
      <trkpt lat="49.21933" lon="-0.24545">
        <ele>110.4</ele>
        <time>2024-04-07T05:36:17Z</time>
      </trkpt>
      <trkpt lat="49.21931" lon="-0.24553">
        <ele>110.4</ele>
        <time>2024-04-07T05:36:18Z</time>
      </trkpt>
      <trkpt lat="49.21929" lon="-0.24561">
        <ele>110.4</ele>
        <time>2024-04-07T05:36:19Z</time>
      </trkpt>
      <trkpt lat="49.21926" lon="-0.24569">
        <ele>110.4</ele>
        <time>2024-04-07T05:36:20Z</time>
      </trkpt>
      <trkpt lat="49.21924" lon="-0.24577">
        <ele>110.4</ele>
        <time>2024-04-07T05:36:21Z</time>
      </trkpt>
      <trkpt lat="49.21922" lon="-0.24584">
        <ele>110.6</ele>
        <time>2024-04-07T05:36:22Z</time>
      </trkpt>
      <trkpt lat="49.2192" lon="-0.2459">
        <ele>110.6</ele>
        <time>2024-04-07T05:36:23Z</time>
      </trkpt>
      <trkpt lat="49.21918" lon="-0.24596">
        <ele>110.8</ele>
        <time>2024-04-07T05:36:24Z</time>
      </trkpt>
      <trkpt lat="49.21916" lon="-0.24601">
        <ele>111</ele>
        <time>2024-04-07T05:36:25Z</time>
      </trkpt>
      <trkpt lat="49.21914" lon="-0.24606">
        <ele>111.2</ele>
        <time>2024-04-07T05:36:26Z</time>
      </trkpt>
      <trkpt lat="49.21912" lon="-0.2461">
        <ele>111.2</ele>
        <time>2024-04-07T05:36:27Z</time>
      </trkpt>
      <trkpt lat="49.21911" lon="-0.24612">
        <ele>111.2</ele>
        <time>2024-04-07T05:36:28Z</time>
      </trkpt>
      <trkpt lat="49.2191" lon="-0.24614">
        <ele>111.4</ele>
        <time>2024-04-07T05:36:29Z</time>
      </trkpt>
      <trkpt lat="49.21909" lon="-0.24615">
        <ele>111.4</ele>
        <time>2024-04-07T05:36:30Z</time>
      </trkpt>
      <trkpt lat="49.21907" lon="-0.24615">
        <ele>111.4</ele>
        <time>2024-04-07T05:36:31Z</time>
      </trkpt>
      <trkpt lat="49.21906" lon="-0.24614">
        <ele>111.4</ele>
        <time>2024-04-07T05:36:32Z</time>
      </trkpt>
      <trkpt lat="49.21905" lon="-0.24614">
        <ele>111.4</ele>
        <time>2024-04-07T05:36:33Z</time>
      </trkpt>
      <trkpt lat="49.21905" lon="-0.24614">
        <ele>111.4</ele>
        <time>2024-04-07T05:36:34Z</time>
      </trkpt>
      <trkpt lat="49.21905" lon="-0.24614">
        <ele>111.4</ele>
        <time>2024-04-07T05:36:35Z</time>
      </trkpt>
      <trkpt lat="49.21907" lon="-0.24627">
        <ele>110.8</ele>
        <time>2024-04-07T05:40:54Z</time>
      </trkpt>
      <trkpt lat="49.21906" lon="-0.2463">
        <ele>110.8</ele>
        <time>2024-04-07T05:40:55Z</time>
      </trkpt>
      <trkpt lat="49.21905" lon="-0.24633">
        <ele>110.8</ele>
        <time>2024-04-07T05:40:56Z</time>
      </trkpt>
      <trkpt lat="49.21903" lon="-0.24636">
        <ele>110.8</ele>
        <time>2024-04-07T05:40:57Z</time>
      </trkpt>
      <trkpt lat="49.21902" lon="-0.24639">
        <ele>110.8</ele>
        <time>2024-04-07T05:40:58Z</time>
      </trkpt>
      <trkpt lat="49.219" lon="-0.24643">
        <ele>110.8</ele>
        <time>2024-04-07T05:40:59Z</time>
      </trkpt>
      <trkpt lat="49.21897" lon="-0.24646">
        <ele>110.8</ele>
        <time>2024-04-07T05:41:00Z</time>
      </trkpt>
      <trkpt lat="49.21895" lon="-0.24649">
        <ele>110.6</ele>
        <time>2024-04-07T05:41:01Z</time>
      </trkpt>
      <trkpt lat="49.21892" lon="-0.24653">
        <ele>110.6</ele>
        <time>2024-04-07T05:41:02Z</time>
      </trkpt>
      <trkpt lat="49.21889" lon="-0.24657">
        <ele>110.6</ele>
        <time>2024-04-07T05:41:03Z</time>
      </trkpt>
      <trkpt lat="49.21885" lon="-0.24661">
        <ele>110.6</ele>
        <time>2024-04-07T05:41:04Z</time>
      </trkpt>
      <trkpt lat="49.21882" lon="-0.24665">
        <ele>110.6</ele>
        <time>2024-04-07T05:41:05Z</time>
      </trkpt>
      <trkpt lat="49.21879" lon="-0.24669">
        <ele>110.4</ele>
        <time>2024-04-07T05:41:06Z</time>
      </trkpt>
      <trkpt lat="49.21875" lon="-0.24673">
        <ele>110.2</ele>
        <time>2024-04-07T05:41:07Z</time>
      </trkpt>
      <trkpt lat="49.21872" lon="-0.24677">
        <ele>110</ele>
        <time>2024-04-07T05:41:08Z</time>
      </trkpt>
      <trkpt lat="49.21868" lon="-0.24681">
        <ele>110</ele>
        <time>2024-04-07T05:41:09Z</time>
      </trkpt>
      <trkpt lat="49.21865" lon="-0.24685">
        <ele>110</ele>
        <time>2024-04-07T05:41:10Z</time>
      </trkpt>
      <trkpt lat="49.21861" lon="-0.24688">
        <ele>110</ele>
        <time>2024-04-07T05:41:11Z</time>
      </trkpt>
      <trkpt lat="49.21857" lon="-0.24688">
        <ele>110</ele>
        <time>2024-04-07T05:41:12Z</time>
      </trkpt>
      <trkpt lat="49.21853" lon="-0.24687">
        <ele>110</ele>
        <time>2024-04-07T05:41:13Z</time>
      </trkpt>
      <trkpt lat="49.21849" lon="-0.24684">
        <ele>110</ele>
        <time>2024-04-07T05:41:14Z</time>
      </trkpt>
      <trkpt lat="49.21845" lon="-0.2468">
        <ele>110</ele>
        <time>2024-04-07T05:41:15Z</time>
      </trkpt>
      <trkpt lat="49.21841" lon="-0.24676">
        <ele>110.2</ele>
        <time>2024-04-07T05:41:16Z</time>
      </trkpt>
      <trkpt lat="49.21836" lon="-0.24673">
        <ele>110.2</ele>
        <time>2024-04-07T05:41:17Z</time>
      </trkpt>
      <trkpt lat="49.21832" lon="-0.24669">
        <ele>110.2</ele>
        <time>2024-04-07T05:41:18Z</time>
      </trkpt>
      <trkpt lat="49.21828" lon="-0.24666">
        <ele>110.2</ele>
        <time>2024-04-07T05:41:19Z</time>
      </trkpt>
      <trkpt lat="49.21824" lon="-0.24663">
        <ele>110.2</ele>
        <time>2024-04-07T05:41:20Z</time>
      </trkpt>
      <trkpt lat="49.2182" lon="-0.2466">
        <ele>110.2</ele>
        <time>2024-04-07T05:41:21Z</time>
      </trkpt>
      <trkpt lat="49.21816" lon="-0.24656">
        <ele>110.2</ele>
        <time>2024-04-07T05:41:22Z</time>
      </trkpt>
      <trkpt lat="49.21811" lon="-0.24653">
        <ele>110.2</ele>
        <time>2024-04-07T05:41:23Z</time>
      </trkpt>
      <trkpt lat="49.21807" lon="-0.24649">
        <ele>110.2</ele>
        <time>2024-04-07T05:41:24Z</time>
      </trkpt>
      <trkpt lat="49.21802" lon="-0.24644">
        <ele>110.2</ele>
        <time>2024-04-07T05:41:25Z</time>
      </trkpt>
      <trkpt lat="49.21798" lon="-0.2464">
        <ele>110.2</ele>
        <time>2024-04-07T05:41:26Z</time>
      </trkpt>
      <trkpt lat="49.21793" lon="-0.24636">
        <ele>110.2</ele>
        <time>2024-04-07T05:41:27Z</time>
      </trkpt>
      <trkpt lat="49.21788" lon="-0.24632">
        <ele>110.2</ele>
        <time>2024-04-07T05:41:28Z</time>
      </trkpt>
      <trkpt lat="49.21784" lon="-0.24627">
        <ele>110.2</ele>
        <time>2024-04-07T05:41:29Z</time>
      </trkpt>
      <trkpt lat="49.21779" lon="-0.24623">
        <ele>110.4</ele>
        <time>2024-04-07T05:41:30Z</time>
      </trkpt>
      <trkpt lat="49.21774" lon="-0.24619">
        <ele>110.4</ele>
        <time>2024-04-07T05:41:31Z</time>
      </trkpt>
      <trkpt lat="49.21769" lon="-0.24614">
        <ele>110.4</ele>
        <time>2024-04-07T05:41:32Z</time>
      </trkpt>
      <trkpt lat="49.21763" lon="-0.2461">
        <ele>110.4</ele>
        <time>2024-04-07T05:41:33Z</time>
      </trkpt>
      <trkpt lat="49.21758" lon="-0.24606">
        <ele>110.4</ele>
        <time>2024-04-07T05:41:34Z</time>
      </trkpt>
      <trkpt lat="49.21753" lon="-0.24602">
        <ele>110.4</ele>
        <time>2024-04-07T05:41:35Z</time>
      </trkpt>
      <trkpt lat="49.21747" lon="-0.24597">
        <ele>110.4</ele>
        <time>2024-04-07T05:41:36Z</time>
      </trkpt>
      <trkpt lat="49.21742" lon="-0.24592">
        <ele>110.4</ele>
        <time>2024-04-07T05:41:37Z</time>
      </trkpt>
      <trkpt lat="49.21736" lon="-0.24588">
        <ele>110.6</ele>
        <time>2024-04-07T05:41:38Z</time>
      </trkpt>
      <trkpt lat="49.21731" lon="-0.24584">
        <ele>110.6</ele>
        <time>2024-04-07T05:41:39Z</time>
      </trkpt>
      <trkpt lat="49.21725" lon="-0.2458">
        <ele>110.6</ele>
        <time>2024-04-07T05:41:40Z</time>
      </trkpt>
      <trkpt lat="49.2172" lon="-0.24576">
        <ele>110.8</ele>
        <time>2024-04-07T05:41:41Z</time>
      </trkpt>
      <trkpt lat="49.21714" lon="-0.24572">
        <ele>111</ele>
        <time>2024-04-07T05:41:42Z</time>
      </trkpt>
      <trkpt lat="49.21709" lon="-0.24568">
        <ele>111.2</ele>
        <time>2024-04-07T05:41:43Z</time>
      </trkpt>
      <trkpt lat="49.21704" lon="-0.24565">
        <ele>111.6</ele>
        <time>2024-04-07T05:41:44Z</time>
      </trkpt>
      <trkpt lat="49.21699" lon="-0.24562">
        <ele>112</ele>
        <time>2024-04-07T05:41:45Z</time>
      </trkpt>
      <trkpt lat="49.21694" lon="-0.24559">
        <ele>112.4</ele>
        <time>2024-04-07T05:41:46Z</time>
      </trkpt>
      <trkpt lat="49.2169" lon="-0.24556">
        <ele>112.8</ele>
        <time>2024-04-07T05:41:47Z</time>
      </trkpt>
      <trkpt lat="49.21685" lon="-0.24553">
        <ele>113</ele>
        <time>2024-04-07T05:41:48Z</time>
      </trkpt>
      <trkpt lat="49.2168" lon="-0.2455">
        <ele>113.2</ele>
        <time>2024-04-07T05:41:49Z</time>
      </trkpt>
      <trkpt lat="49.21676" lon="-0.24548">
        <ele>113.4</ele>
        <time>2024-04-07T05:41:50Z</time>
      </trkpt>
      <trkpt lat="49.21671" lon="-0.24546">
        <ele>113.6</ele>
        <time>2024-04-07T05:41:51Z</time>
      </trkpt>
      <trkpt lat="49.21666" lon="-0.24544">
        <ele>114</ele>
        <time>2024-04-07T05:41:52Z</time>
      </trkpt>
      <trkpt lat="49.21662" lon="-0.24541">
        <ele>114.4</ele>
        <time>2024-04-07T05:41:53Z</time>
      </trkpt>
      <trkpt lat="49.21658" lon="-0.24539">
        <ele>114.8</ele>
        <time>2024-04-07T05:41:54Z</time>
      </trkpt>
      <trkpt lat="49.21653" lon="-0.24537">
        <ele>115</ele>
        <time>2024-04-07T05:41:55Z</time>
      </trkpt>
      <trkpt lat="49.21649" lon="-0.24534">
        <ele>115.2</ele>
        <time>2024-04-07T05:41:56Z</time>
      </trkpt>
      <trkpt lat="49.21645" lon="-0.24533">
        <ele>115.2</ele>
        <time>2024-04-07T05:41:57Z</time>
      </trkpt>
      <trkpt lat="49.2164" lon="-0.24531">
        <ele>115.4</ele>
        <time>2024-04-07T05:41:58Z</time>
      </trkpt>
      <trkpt lat="49.21636" lon="-0.24529">
        <ele>115.4</ele>
        <time>2024-04-07T05:41:59Z</time>
      </trkpt>
      <trkpt lat="49.21631" lon="-0.24527">
        <ele>115.6</ele>
        <time>2024-04-07T05:42:00Z</time>
      </trkpt>
      <trkpt lat="49.21626" lon="-0.24525">
        <ele>115.8</ele>
        <time>2024-04-07T05:42:01Z</time>
      </trkpt>
      <trkpt lat="49.21622" lon="-0.24523">
        <ele>116.2</ele>
        <time>2024-04-07T05:42:02Z</time>
      </trkpt>
      <trkpt lat="49.21617" lon="-0.2452">
        <ele>116.4</ele>
        <time>2024-04-07T05:42:03Z</time>
      </trkpt>
      <trkpt lat="49.21612" lon="-0.24518">
        <ele>116.6</ele>
        <time>2024-04-07T05:42:04Z</time>
      </trkpt>
      <trkpt lat="49.21607" lon="-0.24516">
        <ele>116.8</ele>
        <time>2024-04-07T05:42:05Z</time>
      </trkpt>
      <trkpt lat="49.21601" lon="-0.24514">
        <ele>117</ele>
        <time>2024-04-07T05:42:06Z</time>
      </trkpt>
      <trkpt lat="49.21596" lon="-0.24511">
        <ele>117</ele>
        <time>2024-04-07T05:42:07Z</time>
      </trkpt>
      <trkpt lat="49.21591" lon="-0.24508">
        <ele>117</ele>
        <time>2024-04-07T05:42:08Z</time>
      </trkpt>
      <trkpt lat="49.21586" lon="-0.24506">
        <ele>117</ele>
        <time>2024-04-07T05:42:09Z</time>
      </trkpt>
      <trkpt lat="49.2158" lon="-0.24503">
        <ele>117</ele>
        <time>2024-04-07T05:42:10Z</time>
      </trkpt>
      <trkpt lat="49.21575" lon="-0.245">
        <ele>117</ele>
        <time>2024-04-07T05:42:11Z</time>
      </trkpt>
      <trkpt lat="49.21569" lon="-0.24497">
        <ele>117</ele>
        <time>2024-04-07T05:42:12Z</time>
      </trkpt>
      <trkpt lat="49.21563" lon="-0.24494">
        <ele>117</ele>
        <time>2024-04-07T05:42:13Z</time>
      </trkpt>
      <trkpt lat="49.21557" lon="-0.24491">
        <ele>116.6</ele>
        <time>2024-04-07T05:42:14Z</time>
      </trkpt>
      <trkpt lat="49.21551" lon="-0.24488">
        <ele>116.2</ele>
        <time>2024-04-07T05:42:15Z</time>
      </trkpt>
      <trkpt lat="49.21545" lon="-0.24485">
        <ele>115.8</ele>
        <time>2024-04-07T05:42:16Z</time>
      </trkpt>
      <trkpt lat="49.21539" lon="-0.24482">
        <ele>115.2</ele>
        <time>2024-04-07T05:42:17Z</time>
      </trkpt>
      <trkpt lat="49.21533" lon="-0.24478">
        <ele>114.8</ele>
        <time>2024-04-07T05:42:18Z</time>
      </trkpt>
      <trkpt lat="49.21526" lon="-0.24475">
        <ele>114.6</ele>
        <time>2024-04-07T05:42:19Z</time>
      </trkpt>
      <trkpt lat="49.2152" lon="-0.24471">
        <ele>114.2</ele>
        <time>2024-04-07T05:42:20Z</time>
      </trkpt>
      <trkpt lat="49.21514" lon="-0.24468">
        <ele>114</ele>
        <time>2024-04-07T05:42:21Z</time>
      </trkpt>
      <trkpt lat="49.21507" lon="-0.24464">
        <ele>114</ele>
        <time>2024-04-07T05:42:22Z</time>
      </trkpt>
      <trkpt lat="49.21501" lon="-0.24459">
        <ele>113.8</ele>
        <time>2024-04-07T05:42:23Z</time>
      </trkpt>
      <trkpt lat="49.21494" lon="-0.24455">
        <ele>113.6</ele>
        <time>2024-04-07T05:42:24Z</time>
      </trkpt>
      <trkpt lat="49.21488" lon="-0.2445">
        <ele>113.4</ele>
        <time>2024-04-07T05:42:25Z</time>
      </trkpt>
      <trkpt lat="49.21481" lon="-0.24446">
        <ele>113</ele>
        <time>2024-04-07T05:42:26Z</time>
      </trkpt>
      <trkpt lat="49.21475" lon="-0.24441">
        <ele>112.2</ele>
        <time>2024-04-07T05:42:27Z</time>
      </trkpt>
      <trkpt lat="49.21469" lon="-0.24436">
        <ele>111.8</ele>
        <time>2024-04-07T05:42:28Z</time>
      </trkpt>
      <trkpt lat="49.21463" lon="-0.24431">
        <ele>111.6</ele>
        <time>2024-04-07T05:42:29Z</time>
      </trkpt>
      <trkpt lat="49.21456" lon="-0.24427">
        <ele>111.4</ele>
        <time>2024-04-07T05:42:30Z</time>
      </trkpt>
      <trkpt lat="49.2145" lon="-0.24422">
        <ele>111.6</ele>
        <time>2024-04-07T05:42:31Z</time>
      </trkpt>
      <trkpt lat="49.21444" lon="-0.24418">
        <ele>112</ele>
        <time>2024-04-07T05:42:32Z</time>
      </trkpt>
      <trkpt lat="49.21438" lon="-0.24414">
        <ele>112.2</ele>
        <time>2024-04-07T05:42:33Z</time>
      </trkpt>
      <trkpt lat="49.21432" lon="-0.2441">
        <ele>112.4</ele>
        <time>2024-04-07T05:42:34Z</time>
      </trkpt>
      <trkpt lat="49.21426" lon="-0.24406">
        <ele>112.4</ele>
        <time>2024-04-07T05:42:35Z</time>
      </trkpt>
      <trkpt lat="49.2142" lon="-0.24402">
        <ele>112.6</ele>
        <time>2024-04-07T05:42:36Z</time>
      </trkpt>
      <trkpt lat="49.21414" lon="-0.24397">
        <ele>112.6</ele>
        <time>2024-04-07T05:42:37Z</time>
      </trkpt>
      <trkpt lat="49.21409" lon="-0.24393">
        <ele>112.6</ele>
        <time>2024-04-07T05:42:38Z</time>
      </trkpt>
      <trkpt lat="49.21403" lon="-0.2439">
        <ele>112.4</ele>
        <time>2024-04-07T05:42:39Z</time>
      </trkpt>
      <trkpt lat="49.21397" lon="-0.24386">
        <ele>112.4</ele>
        <time>2024-04-07T05:42:40Z</time>
      </trkpt>
      <trkpt lat="49.2139" lon="-0.24383">
        <ele>112.4</ele>
        <time>2024-04-07T05:42:41Z</time>
      </trkpt>
      <trkpt lat="49.21384" lon="-0.2438">
        <ele>112.4</ele>
        <time>2024-04-07T05:42:42Z</time>
      </trkpt>
      <trkpt lat="49.21378" lon="-0.24378">
        <ele>112.4</ele>
        <time>2024-04-07T05:42:43Z</time>
      </trkpt>
      <trkpt lat="49.21372" lon="-0.24376">
        <ele>112.4</ele>
        <time>2024-04-07T05:42:44Z</time>
      </trkpt>
      <trkpt lat="49.21366" lon="-0.24375">
        <ele>112.4</ele>
        <time>2024-04-07T05:42:45Z</time>
      </trkpt>
      <trkpt lat="49.2136" lon="-0.24374">
        <ele>112.6</ele>
        <time>2024-04-07T05:42:46Z</time>
      </trkpt>
      <trkpt lat="49.21354" lon="-0.24374">
        <ele>112.6</ele>
        <time>2024-04-07T05:42:47Z</time>
      </trkpt>
      <trkpt lat="49.21348" lon="-0.24374">
        <ele>112.8</ele>
        <time>2024-04-07T05:42:48Z</time>
      </trkpt>
      <trkpt lat="49.21342" lon="-0.24373">
        <ele>113</ele>
        <time>2024-04-07T05:42:49Z</time>
      </trkpt>
      <trkpt lat="49.21336" lon="-0.24373">
        <ele>113</ele>
        <time>2024-04-07T05:42:50Z</time>
      </trkpt>
      <trkpt lat="49.2133" lon="-0.24373">
        <ele>113.2</ele>
        <time>2024-04-07T05:42:51Z</time>
      </trkpt>
      <trkpt lat="49.21324" lon="-0.24372">
        <ele>113.2</ele>
        <time>2024-04-07T05:42:52Z</time>
      </trkpt>
      <trkpt lat="49.21319" lon="-0.24372">
        <ele>113.4</ele>
        <time>2024-04-07T05:42:53Z</time>
      </trkpt>
      <trkpt lat="49.21313" lon="-0.24372">
        <ele>113.4</ele>
        <time>2024-04-07T05:42:54Z</time>
      </trkpt>
      <trkpt lat="49.21307" lon="-0.24372">
        <ele>113.4</ele>
        <time>2024-04-07T05:42:55Z</time>
      </trkpt>
      <trkpt lat="49.21301" lon="-0.24372">
        <ele>113.6</ele>
        <time>2024-04-07T05:42:56Z</time>
      </trkpt>
      <trkpt lat="49.21295" lon="-0.24371">
        <ele>113.6</ele>
        <time>2024-04-07T05:42:57Z</time>
      </trkpt>
      <trkpt lat="49.2129" lon="-0.24371">
        <ele>113.8</ele>
        <time>2024-04-07T05:42:58Z</time>
      </trkpt>
      <trkpt lat="49.21284" lon="-0.24371">
        <ele>114</ele>
        <time>2024-04-07T05:42:59Z</time>
      </trkpt>
      <trkpt lat="49.21278" lon="-0.24372">
        <ele>114</ele>
        <time>2024-04-07T05:43:00Z</time>
      </trkpt>
      <trkpt lat="49.21273" lon="-0.24372">
        <ele>114.4</ele>
        <time>2024-04-07T05:43:01Z</time>
      </trkpt>
      <trkpt lat="49.21267" lon="-0.24373">
        <ele>114.6</ele>
        <time>2024-04-07T05:43:02Z</time>
      </trkpt>
      <trkpt lat="49.21261" lon="-0.24374">
        <ele>114.8</ele>
        <time>2024-04-07T05:43:03Z</time>
      </trkpt>
      <trkpt lat="49.21256" lon="-0.24374">
        <ele>114.8</ele>
        <time>2024-04-07T05:43:04Z</time>
      </trkpt>
      <trkpt lat="49.2125" lon="-0.24374">
        <ele>115</ele>
        <time>2024-04-07T05:43:05Z</time>
      </trkpt>
      <trkpt lat="49.21245" lon="-0.24374">
        <ele>115.2</ele>
        <time>2024-04-07T05:43:06Z</time>
      </trkpt>
      <trkpt lat="49.21239" lon="-0.24374">
        <ele>115.4</ele>
        <time>2024-04-07T05:43:07Z</time>
      </trkpt>
      <trkpt lat="49.21234" lon="-0.24374">
        <ele>115.6</ele>
        <time>2024-04-07T05:43:08Z</time>
      </trkpt>
      <trkpt lat="49.21228" lon="-0.24373">
        <ele>116.2</ele>
        <time>2024-04-07T05:43:09Z</time>
      </trkpt>
      <trkpt lat="49.21223" lon="-0.24373">
        <ele>116.4</ele>
        <time>2024-04-07T05:43:10Z</time>
      </trkpt>
      <trkpt lat="49.21217" lon="-0.24373">
        <ele>116.6</ele>
        <time>2024-04-07T05:43:11Z</time>
      </trkpt>
      <trkpt lat="49.21212" lon="-0.24372">
        <ele>116.8</ele>
        <time>2024-04-07T05:43:12Z</time>
      </trkpt>
      <trkpt lat="49.21206" lon="-0.24371">
        <ele>116.8</ele>
        <time>2024-04-07T05:43:13Z</time>
      </trkpt>
      <trkpt lat="49.21201" lon="-0.2437">
        <ele>116.8</ele>
        <time>2024-04-07T05:43:14Z</time>
      </trkpt>
      <trkpt lat="49.21195" lon="-0.24368">
        <ele>117</ele>
        <time>2024-04-07T05:43:15Z</time>
      </trkpt>
      <trkpt lat="49.21189" lon="-0.24367">
        <ele>117</ele>
        <time>2024-04-07T05:43:16Z</time>
      </trkpt>
      <trkpt lat="49.21184" lon="-0.24367">
        <ele>117.2</ele>
        <time>2024-04-07T05:43:17Z</time>
      </trkpt>
      <trkpt lat="49.21178" lon="-0.24366">
        <ele>117.2</ele>
        <time>2024-04-07T05:43:18Z</time>
      </trkpt>
      <trkpt lat="49.21172" lon="-0.24366">
        <ele>117</ele>
        <time>2024-04-07T05:43:19Z</time>
      </trkpt>
      <trkpt lat="49.21167" lon="-0.24366">
        <ele>117</ele>
        <time>2024-04-07T05:43:20Z</time>
      </trkpt>
      <trkpt lat="49.21161" lon="-0.24364">
        <ele>117</ele>
        <time>2024-04-07T05:43:21Z</time>
      </trkpt>
      <trkpt lat="49.21155" lon="-0.24362">
        <ele>117</ele>
        <time>2024-04-07T05:43:22Z</time>
      </trkpt>
      <trkpt lat="49.21149" lon="-0.2436">
        <ele>117</ele>
        <time>2024-04-07T05:43:23Z</time>
      </trkpt>
      <trkpt lat="49.21143" lon="-0.24357">
        <ele>116.8</ele>
        <time>2024-04-07T05:43:24Z</time>
      </trkpt>
      <trkpt lat="49.21138" lon="-0.24353">
        <ele>116.8</ele>
        <time>2024-04-07T05:43:25Z</time>
      </trkpt>
      <trkpt lat="49.21133" lon="-0.24347">
        <ele>117</ele>
        <time>2024-04-07T05:43:26Z</time>
      </trkpt>
      <trkpt lat="49.21128" lon="-0.24341">
        <ele>117</ele>
        <time>2024-04-07T05:43:27Z</time>
      </trkpt>
      <trkpt lat="49.21124" lon="-0.24333">
        <ele>117</ele>
        <time>2024-04-07T05:43:28Z</time>
      </trkpt>
      <trkpt lat="49.2112" lon="-0.24325">
        <ele>116.8</ele>
        <time>2024-04-07T05:43:29Z</time>
      </trkpt>
      <trkpt lat="49.21117" lon="-0.24316">
        <ele>116.6</ele>
        <time>2024-04-07T05:43:30Z</time>
      </trkpt>
      <trkpt lat="49.21115" lon="-0.24306">
        <ele>116</ele>
        <time>2024-04-07T05:43:31Z</time>
      </trkpt>
      <trkpt lat="49.21113" lon="-0.24295">
        <ele>115.4</ele>
        <time>2024-04-07T05:43:32Z</time>
      </trkpt>
      <trkpt lat="49.21111" lon="-0.24285">
        <ele>115</ele>
        <time>2024-04-07T05:43:33Z</time>
      </trkpt>
      <trkpt lat="49.21109" lon="-0.24275">
        <ele>114.8</ele>
        <time>2024-04-07T05:43:34Z</time>
      </trkpt>
      <trkpt lat="49.21108" lon="-0.24265">
        <ele>115</ele>
        <time>2024-04-07T05:43:35Z</time>
      </trkpt>
      <trkpt lat="49.21106" lon="-0.24255">
        <ele>115.2</ele>
        <time>2024-04-07T05:43:36Z</time>
      </trkpt>
      <trkpt lat="49.21103" lon="-0.24245">
        <ele>115.2</ele>
        <time>2024-04-07T05:43:37Z</time>
      </trkpt>
      <trkpt lat="49.21101" lon="-0.24236">
        <ele>115.4</ele>
        <time>2024-04-07T05:43:38Z</time>
      </trkpt>
      <trkpt lat="49.21098" lon="-0.24227">
        <ele>115.4</ele>
        <time>2024-04-07T05:43:39Z</time>
      </trkpt>
      <trkpt lat="49.21095" lon="-0.24218">
        <ele>115.4</ele>
        <time>2024-04-07T05:43:40Z</time>
      </trkpt>
      <trkpt lat="49.21092" lon="-0.24209">
        <ele>115.2</ele>
        <time>2024-04-07T05:43:41Z</time>
      </trkpt>
      <trkpt lat="49.21089" lon="-0.242">
        <ele>115</ele>
        <time>2024-04-07T05:43:42Z</time>
      </trkpt>
      <trkpt lat="49.21086" lon="-0.24191">
        <ele>114.8</ele>
        <time>2024-04-07T05:43:43Z</time>
      </trkpt>
      <trkpt lat="49.21083" lon="-0.24182">
        <ele>114.8</ele>
        <time>2024-04-07T05:43:44Z</time>
      </trkpt>
      <trkpt lat="49.2108" lon="-0.24174">
        <ele>114.8</ele>
        <time>2024-04-07T05:43:45Z</time>
      </trkpt>
      <trkpt lat="49.21078" lon="-0.24165">
        <ele>114.6</ele>
        <time>2024-04-07T05:43:46Z</time>
      </trkpt>
      <trkpt lat="49.21075" lon="-0.24155">
        <ele>114.6</ele>
        <time>2024-04-07T05:43:47Z</time>
      </trkpt>
      <trkpt lat="49.21073" lon="-0.24146">
        <ele>114.6</ele>
        <time>2024-04-07T05:43:48Z</time>
      </trkpt>
      <trkpt lat="49.21071" lon="-0.24137">
        <ele>114.8</ele>
        <time>2024-04-07T05:43:49Z</time>
      </trkpt>
      <trkpt lat="49.2107" lon="-0.24127">
        <ele>115</ele>
        <time>2024-04-07T05:43:50Z</time>
      </trkpt>
      <trkpt lat="49.21069" lon="-0.24117">
        <ele>115</ele>
        <time>2024-04-07T05:43:51Z</time>
      </trkpt>
      <trkpt lat="49.21068" lon="-0.24107">
        <ele>115</ele>
        <time>2024-04-07T05:43:52Z</time>
      </trkpt>
      <trkpt lat="49.21068" lon="-0.24097">
        <ele>115</ele>
        <time>2024-04-07T05:43:53Z</time>
      </trkpt>
      <trkpt lat="49.21067" lon="-0.24087">
        <ele>115</ele>
        <time>2024-04-07T05:43:54Z</time>
      </trkpt>
      <trkpt lat="49.21068" lon="-0.24077">
        <ele>115</ele>
        <time>2024-04-07T05:43:55Z</time>
      </trkpt>
      <trkpt lat="49.21068" lon="-0.24067">
        <ele>114.8</ele>
        <time>2024-04-07T05:43:56Z</time>
      </trkpt>
      <trkpt lat="49.2107" lon="-0.24058">
        <ele>114.8</ele>
        <time>2024-04-07T05:43:57Z</time>
      </trkpt>
      <trkpt lat="49.2107" lon="-0.24048">
        <ele>114.8</ele>
        <time>2024-04-07T05:43:58Z</time>
      </trkpt>
      <trkpt lat="49.21071" lon="-0.24039">
        <ele>114.8</ele>
        <time>2024-04-07T05:43:59Z</time>
      </trkpt>
      <trkpt lat="49.21071" lon="-0.24029">
        <ele>115</ele>
        <time>2024-04-07T05:44:00Z</time>
      </trkpt>
      <trkpt lat="49.21072" lon="-0.24019">
        <ele>115</ele>
        <time>2024-04-07T05:44:01Z</time>
      </trkpt>
      <trkpt lat="49.21072" lon="-0.24008">
        <ele>115</ele>
        <time>2024-04-07T05:44:02Z</time>
      </trkpt>
      <trkpt lat="49.21072" lon="-0.23998">
        <ele>115</ele>
        <time>2024-04-07T05:44:03Z</time>
      </trkpt>
      <trkpt lat="49.21072" lon="-0.23987">
        <ele>114.8</ele>
        <time>2024-04-07T05:44:04Z</time>
      </trkpt>
      <trkpt lat="49.21072" lon="-0.23977">
        <ele>114.6</ele>
        <time>2024-04-07T05:44:05Z</time>
      </trkpt>
      <trkpt lat="49.21073" lon="-0.23968">
        <ele>114.4</ele>
        <time>2024-04-07T05:44:06Z</time>
      </trkpt>
      <trkpt lat="49.21073" lon="-0.23958">
        <ele>114.4</ele>
        <time>2024-04-07T05:44:07Z</time>
      </trkpt>
      <trkpt lat="49.21074" lon="-0.23949">
        <ele>114.4</ele>
        <time>2024-04-07T05:44:08Z</time>
      </trkpt>
      <trkpt lat="49.21074" lon="-0.23939">
        <ele>114.4</ele>
        <time>2024-04-07T05:44:09Z</time>
      </trkpt>
      <trkpt lat="49.21075" lon="-0.2393">
        <ele>114.4</ele>
        <time>2024-04-07T05:44:10Z</time>
      </trkpt>
      <trkpt lat="49.21075" lon="-0.2392">
        <ele>114.6</ele>
        <time>2024-04-07T05:44:11Z</time>
      </trkpt>
      <trkpt lat="49.21075" lon="-0.23911">
        <ele>114.8</ele>
        <time>2024-04-07T05:44:12Z</time>
      </trkpt>
      <trkpt lat="49.21076" lon="-0.23901">
        <ele>115</ele>
        <time>2024-04-07T05:44:13Z</time>
      </trkpt>
      <trkpt lat="49.21076" lon="-0.23892">
        <ele>115</ele>
        <time>2024-04-07T05:44:14Z</time>
      </trkpt>
      <trkpt lat="49.21076" lon="-0.23883">
        <ele>115.2</ele>
        <time>2024-04-07T05:44:15Z</time>
      </trkpt>
      <trkpt lat="49.21076" lon="-0.23875">
        <ele>115.2</ele>
        <time>2024-04-07T05:44:16Z</time>
      </trkpt>
      <trkpt lat="49.21076" lon="-0.23868">
        <ele>115.4</ele>
        <time>2024-04-07T05:44:17Z</time>
      </trkpt>
      <trkpt lat="49.21076" lon="-0.2386">
        <ele>115.4</ele>
        <time>2024-04-07T05:44:18Z</time>
      </trkpt>
      <trkpt lat="49.21075" lon="-0.23853">
        <ele>115.6</ele>
        <time>2024-04-07T05:44:19Z</time>
      </trkpt>
      <trkpt lat="49.21074" lon="-0.23848">
        <ele>115.8</ele>
        <time>2024-04-07T05:44:20Z</time>
      </trkpt>
      <trkpt lat="49.2107" lon="-0.23843">
        <ele>115.8</ele>
        <time>2024-04-07T05:44:21Z</time>
      </trkpt>
      <trkpt lat="49.21067" lon="-0.23841">
        <ele>115.8</ele>
        <time>2024-04-07T05:44:22Z</time>
      </trkpt>
      <trkpt lat="49.21062" lon="-0.23841">
        <ele>116</ele>
        <time>2024-04-07T05:44:23Z</time>
      </trkpt>
      <trkpt lat="49.21058" lon="-0.23842">
        <ele>116</ele>
        <time>2024-04-07T05:44:24Z</time>
      </trkpt>
      <trkpt lat="49.21054" lon="-0.23843">
        <ele>116</ele>
        <time>2024-04-07T05:44:25Z</time>
      </trkpt>
      <trkpt lat="49.21049" lon="-0.23845">
        <ele>116</ele>
        <time>2024-04-07T05:44:26Z</time>
      </trkpt>
      <trkpt lat="49.21044" lon="-0.23845">
        <ele>116</ele>
        <time>2024-04-07T05:44:27Z</time>
      </trkpt>
      <trkpt lat="49.21039" lon="-0.23846">
        <ele>116.2</ele>
        <time>2024-04-07T05:44:28Z</time>
      </trkpt>
      <trkpt lat="49.21034" lon="-0.23847">
        <ele>116.2</ele>
        <time>2024-04-07T05:44:29Z</time>
      </trkpt>
      <trkpt lat="49.21029" lon="-0.23847">
        <ele>116.4</ele>
        <time>2024-04-07T05:44:30Z</time>
      </trkpt>
      <trkpt lat="49.21025" lon="-0.23848">
        <ele>116.6</ele>
        <time>2024-04-07T05:44:31Z</time>
      </trkpt>
      <trkpt lat="49.2102" lon="-0.23849">
        <ele>116.8</ele>
        <time>2024-04-07T05:44:32Z</time>
      </trkpt>
      <trkpt lat="49.21015" lon="-0.23849">
        <ele>116.8</ele>
        <time>2024-04-07T05:44:33Z</time>
      </trkpt>
      <trkpt lat="49.2101" lon="-0.23849">
        <ele>116.8</ele>
        <time>2024-04-07T05:44:34Z</time>
      </trkpt>
      <trkpt lat="49.21005" lon="-0.2385">
        <ele>117</ele>
        <time>2024-04-07T05:44:35Z</time>
      </trkpt>
      <trkpt lat="49.21" lon="-0.2385">
        <ele>116.8</ele>
        <time>2024-04-07T05:44:36Z</time>
      </trkpt>
      <trkpt lat="49.20995" lon="-0.23851">
        <ele>116.8</ele>
        <time>2024-04-07T05:44:37Z</time>
      </trkpt>
      <trkpt lat="49.2099" lon="-0.23852">
        <ele>116.8</ele>
        <time>2024-04-07T05:44:38Z</time>
      </trkpt>
      <trkpt lat="49.20985" lon="-0.23852">
        <ele>116.8</ele>
        <time>2024-04-07T05:44:39Z</time>
      </trkpt>
      <trkpt lat="49.2098" lon="-0.23853">
        <ele>116.8</ele>
        <time>2024-04-07T05:44:40Z</time>
      </trkpt>
      <trkpt lat="49.20974" lon="-0.23854">
        <ele>116.8</ele>
        <time>2024-04-07T05:44:41Z</time>
      </trkpt>
      <trkpt lat="49.20969" lon="-0.23855">
        <ele>116.8</ele>
        <time>2024-04-07T05:44:42Z</time>
      </trkpt>
      <trkpt lat="49.20964" lon="-0.23855">
        <ele>117</ele>
        <time>2024-04-07T05:44:43Z</time>
      </trkpt>
      <trkpt lat="49.20959" lon="-0.23856">
        <ele>117.2</ele>
        <time>2024-04-07T05:44:44Z</time>
      </trkpt>
      <trkpt lat="49.20954" lon="-0.23856">
        <ele>117.2</ele>
        <time>2024-04-07T05:44:45Z</time>
      </trkpt>
      <trkpt lat="49.20948" lon="-0.23857">
        <ele>117.4</ele>
        <time>2024-04-07T05:44:46Z</time>
      </trkpt>
      <trkpt lat="49.20943" lon="-0.23858">
        <ele>117.6</ele>
        <time>2024-04-07T05:44:47Z</time>
      </trkpt>
      <trkpt lat="49.20938" lon="-0.23858">
        <ele>117.8</ele>
        <time>2024-04-07T05:44:48Z</time>
      </trkpt>
      <trkpt lat="49.20933" lon="-0.23858">
        <ele>118</ele>
        <time>2024-04-07T05:44:49Z</time>
      </trkpt>
      <trkpt lat="49.20928" lon="-0.23859">
        <ele>118.2</ele>
        <time>2024-04-07T05:44:50Z</time>
      </trkpt>
      <trkpt lat="49.20922" lon="-0.2386">
        <ele>118.4</ele>
        <time>2024-04-07T05:44:51Z</time>
      </trkpt>
      <trkpt lat="49.20917" lon="-0.2386">
        <ele>118.6</ele>
        <time>2024-04-07T05:44:52Z</time>
      </trkpt>
      <trkpt lat="49.20912" lon="-0.23861">
        <ele>118.6</ele>
        <time>2024-04-07T05:44:53Z</time>
      </trkpt>
      <trkpt lat="49.20907" lon="-0.23862">
        <ele>118.8</ele>
        <time>2024-04-07T05:44:54Z</time>
      </trkpt>
      <trkpt lat="49.20901" lon="-0.23862">
        <ele>118.8</ele>
        <time>2024-04-07T05:44:55Z</time>
      </trkpt>
      <trkpt lat="49.20896" lon="-0.23863">
        <ele>119</ele>
        <time>2024-04-07T05:44:56Z</time>
      </trkpt>
      <trkpt lat="49.2089" lon="-0.23863">
        <ele>119</ele>
        <time>2024-04-07T05:44:57Z</time>
      </trkpt>
      <trkpt lat="49.20885" lon="-0.23864">
        <ele>119.2</ele>
        <time>2024-04-07T05:44:58Z</time>
      </trkpt>
      <trkpt lat="49.2088" lon="-0.23864">
        <ele>119.4</ele>
        <time>2024-04-07T05:44:59Z</time>
      </trkpt>
      <trkpt lat="49.20874" lon="-0.23864">
        <ele>119.6</ele>
        <time>2024-04-07T05:45:00Z</time>
      </trkpt>
      <trkpt lat="49.20868" lon="-0.23865">
        <ele>119.8</ele>
        <time>2024-04-07T05:45:01Z</time>
      </trkpt>
      <trkpt lat="49.20863" lon="-0.23865">
        <ele>120</ele>
        <time>2024-04-07T05:45:02Z</time>
      </trkpt>
      <trkpt lat="49.20857" lon="-0.23866">
        <ele>120</ele>
        <time>2024-04-07T05:45:03Z</time>
      </trkpt>
      <trkpt lat="49.20852" lon="-0.23866">
        <ele>120.2</ele>
        <time>2024-04-07T05:45:04Z</time>
      </trkpt>
      <trkpt lat="49.20846" lon="-0.23867">
        <ele>120.2</ele>
        <time>2024-04-07T05:45:05Z</time>
      </trkpt>
      <trkpt lat="49.20841" lon="-0.23868">
        <ele>120</ele>
        <time>2024-04-07T05:45:06Z</time>
      </trkpt>
      <trkpt lat="49.20835" lon="-0.23869">
        <ele>120</ele>
        <time>2024-04-07T05:45:07Z</time>
      </trkpt>
      <trkpt lat="49.20829" lon="-0.2387">
        <ele>119.8</ele>
        <time>2024-04-07T05:45:08Z</time>
      </trkpt>
      <trkpt lat="49.20823" lon="-0.23871">
        <ele>119.8</ele>
        <time>2024-04-07T05:45:09Z</time>
      </trkpt>
      <trkpt lat="49.20818" lon="-0.23872">
        <ele>119.8</ele>
        <time>2024-04-07T05:45:10Z</time>
      </trkpt>
      <trkpt lat="49.20812" lon="-0.23872">
        <ele>119.8</ele>
        <time>2024-04-07T05:45:11Z</time>
      </trkpt>
      <trkpt lat="49.20806" lon="-0.23873">
        <ele>119.8</ele>
        <time>2024-04-07T05:45:12Z</time>
      </trkpt>
      <trkpt lat="49.208" lon="-0.23874">
        <ele>119.8</ele>
        <time>2024-04-07T05:45:13Z</time>
      </trkpt>
      <trkpt lat="49.20795" lon="-0.23874">
        <ele>119.6</ele>
        <time>2024-04-07T05:45:14Z</time>
      </trkpt>
      <trkpt lat="49.20789" lon="-0.23875">
        <ele>119.6</ele>
        <time>2024-04-07T05:45:15Z</time>
      </trkpt>
      <trkpt lat="49.20784" lon="-0.23875">
        <ele>119.6</ele>
        <time>2024-04-07T05:45:16Z</time>
      </trkpt>
      <trkpt lat="49.20778" lon="-0.23876">
        <ele>119.6</ele>
        <time>2024-04-07T05:45:17Z</time>
      </trkpt>
      <trkpt lat="49.20772" lon="-0.23877">
        <ele>119.6</ele>
        <time>2024-04-07T05:45:18Z</time>
      </trkpt>
      <trkpt lat="49.20766" lon="-0.23877">
        <ele>119.6</ele>
        <time>2024-04-07T05:45:19Z</time>
      </trkpt>
      <trkpt lat="49.2076" lon="-0.23878">
        <ele>119.6</ele>
        <time>2024-04-07T05:45:20Z</time>
      </trkpt>
      <trkpt lat="49.20754" lon="-0.23879">
        <ele>119.6</ele>
        <time>2024-04-07T05:45:21Z</time>
      </trkpt>
      <trkpt lat="49.20748" lon="-0.23879">
        <ele>119.6</ele>
        <time>2024-04-07T05:45:22Z</time>
      </trkpt>
      <trkpt lat="49.20742" lon="-0.2388">
        <ele>119.8</ele>
        <time>2024-04-07T05:45:23Z</time>
      </trkpt>
      <trkpt lat="49.20736" lon="-0.23881">
        <ele>119.8</ele>
        <time>2024-04-07T05:45:24Z</time>
      </trkpt>
      <trkpt lat="49.2073" lon="-0.23882">
        <ele>120</ele>
        <time>2024-04-07T05:45:25Z</time>
      </trkpt>
      <trkpt lat="49.20724" lon="-0.23883">
        <ele>120</ele>
        <time>2024-04-07T05:45:26Z</time>
      </trkpt>
      <trkpt lat="49.20718" lon="-0.23884">
        <ele>120.2</ele>
        <time>2024-04-07T05:45:27Z</time>
      </trkpt>
      <trkpt lat="49.20712" lon="-0.23884">
        <ele>120.4</ele>
        <time>2024-04-07T05:45:28Z</time>
      </trkpt>
      <trkpt lat="49.20706" lon="-0.23885">
        <ele>120.4</ele>
        <time>2024-04-07T05:45:29Z</time>
      </trkpt>
      <trkpt lat="49.207" lon="-0.23886">
        <ele>120.4</ele>
        <time>2024-04-07T05:45:30Z</time>
      </trkpt>
      <trkpt lat="49.20694" lon="-0.23886">
        <ele>120.4</ele>
        <time>2024-04-07T05:45:31Z</time>
      </trkpt>
      <trkpt lat="49.20688" lon="-0.23887">
        <ele>120.4</ele>
        <time>2024-04-07T05:45:32Z</time>
      </trkpt>
      <trkpt lat="49.20682" lon="-0.23888">
        <ele>120.4</ele>
        <time>2024-04-07T05:45:33Z</time>
      </trkpt>
      <trkpt lat="49.20676" lon="-0.23888">
        <ele>120.4</ele>
        <time>2024-04-07T05:45:34Z</time>
      </trkpt>
      <trkpt lat="49.2067" lon="-0.23889">
        <ele>120.4</ele>
        <time>2024-04-07T05:45:35Z</time>
      </trkpt>
      <trkpt lat="49.20664" lon="-0.23889">
        <ele>120.4</ele>
        <time>2024-04-07T05:45:36Z</time>
      </trkpt>
      <trkpt lat="49.20658" lon="-0.2389">
        <ele>120.4</ele>
        <time>2024-04-07T05:45:37Z</time>
      </trkpt>
      <trkpt lat="49.20652" lon="-0.23891">
        <ele>120.4</ele>
        <time>2024-04-07T05:45:38Z</time>
      </trkpt>
      <trkpt lat="49.20646" lon="-0.23891">
        <ele>120.4</ele>
        <time>2024-04-07T05:45:39Z</time>
      </trkpt>
      <trkpt lat="49.20641" lon="-0.23892">
        <ele>120.6</ele>
        <time>2024-04-07T05:45:40Z</time>
      </trkpt>
      <trkpt lat="49.20635" lon="-0.23892">
        <ele>120.6</ele>
        <time>2024-04-07T05:45:41Z</time>
      </trkpt>
      <trkpt lat="49.2063" lon="-0.23893">
        <ele>120.6</ele>
        <time>2024-04-07T05:45:42Z</time>
      </trkpt>
      <trkpt lat="49.20624" lon="-0.23893">
        <ele>120.6</ele>
        <time>2024-04-07T05:45:43Z</time>
      </trkpt>
      <trkpt lat="49.20618" lon="-0.23895">
        <ele>120.8</ele>
        <time>2024-04-07T05:45:44Z</time>
      </trkpt>
      <trkpt lat="49.20613" lon="-0.23896">
        <ele>120.8</ele>
        <time>2024-04-07T05:45:45Z</time>
      </trkpt>
      <trkpt lat="49.20607" lon="-0.23897">
        <ele>121</ele>
        <time>2024-04-07T05:45:46Z</time>
      </trkpt>
      <trkpt lat="49.20601" lon="-0.23897">
        <ele>121</ele>
        <time>2024-04-07T05:45:47Z</time>
      </trkpt>
      <trkpt lat="49.20596" lon="-0.23898">
        <ele>121</ele>
        <time>2024-04-07T05:45:48Z</time>
      </trkpt>
      <trkpt lat="49.2059" lon="-0.23899">
        <ele>121.2</ele>
        <time>2024-04-07T05:45:49Z</time>
      </trkpt>
      <trkpt lat="49.20585" lon="-0.239">
        <ele>121.2</ele>
        <time>2024-04-07T05:45:50Z</time>
      </trkpt>
      <trkpt lat="49.2058" lon="-0.23901">
        <ele>121.2</ele>
        <time>2024-04-07T05:45:51Z</time>
      </trkpt>
      <trkpt lat="49.20575" lon="-0.23901">
        <ele>121.2</ele>
        <time>2024-04-07T05:45:52Z</time>
      </trkpt>
      <trkpt lat="49.2057" lon="-0.23902">
        <ele>121.4</ele>
        <time>2024-04-07T05:45:53Z</time>
      </trkpt>
      <trkpt lat="49.20566" lon="-0.23902">
        <ele>122</ele>
        <time>2024-04-07T05:45:54Z</time>
      </trkpt>
      <trkpt lat="49.20562" lon="-0.23901">
        <ele>122.4</ele>
        <time>2024-04-07T05:45:55Z</time>
      </trkpt>
      <trkpt lat="49.20558" lon="-0.23899">
        <ele>122.6</ele>
        <time>2024-04-07T05:45:56Z</time>
      </trkpt>
      <trkpt lat="49.20555" lon="-0.23896">
        <ele>123</ele>
        <time>2024-04-07T05:45:57Z</time>
      </trkpt>
      <trkpt lat="49.20551" lon="-0.23891">
        <ele>123.4</ele>
        <time>2024-04-07T05:45:58Z</time>
      </trkpt>
      <trkpt lat="49.20548" lon="-0.23887">
        <ele>123.6</ele>
        <time>2024-04-07T05:45:59Z</time>
      </trkpt>
      <trkpt lat="49.20544" lon="-0.23882">
        <ele>123.8</ele>
        <time>2024-04-07T05:46:00Z</time>
      </trkpt>
      <trkpt lat="49.20541" lon="-0.23878">
        <ele>123.8</ele>
        <time>2024-04-07T05:46:01Z</time>
      </trkpt>
      <trkpt lat="49.20537" lon="-0.23874">
        <ele>123.8</ele>
        <time>2024-04-07T05:46:02Z</time>
      </trkpt>
      <trkpt lat="49.20533" lon="-0.2387">
        <ele>123.8</ele>
        <time>2024-04-07T05:46:03Z</time>
      </trkpt>
      <trkpt lat="49.20529" lon="-0.23866">
        <ele>123.8</ele>
        <time>2024-04-07T05:46:04Z</time>
      </trkpt>
      <trkpt lat="49.20524" lon="-0.23862">
        <ele>124</ele>
        <time>2024-04-07T05:46:05Z</time>
      </trkpt>
      <trkpt lat="49.2052" lon="-0.23857">
        <ele>124</ele>
        <time>2024-04-07T05:46:06Z</time>
      </trkpt>
      <trkpt lat="49.20516" lon="-0.23853">
        <ele>124.2</ele>
        <time>2024-04-07T05:46:07Z</time>
      </trkpt>
      <trkpt lat="49.20512" lon="-0.23848">
        <ele>124.2</ele>
        <time>2024-04-07T05:46:08Z</time>
      </trkpt>
      <trkpt lat="49.20507" lon="-0.23844">
        <ele>124.6</ele>
        <time>2024-04-07T05:46:09Z</time>
      </trkpt>
      <trkpt lat="49.20503" lon="-0.23839">
        <ele>124.8</ele>
        <time>2024-04-07T05:46:10Z</time>
      </trkpt>
      <trkpt lat="49.20499" lon="-0.23835">
        <ele>125.2</ele>
        <time>2024-04-07T05:46:11Z</time>
      </trkpt>
      <trkpt lat="49.20495" lon="-0.2383">
        <ele>125.4</ele>
        <time>2024-04-07T05:46:12Z</time>
      </trkpt>
      <trkpt lat="49.2049" lon="-0.23826">
        <ele>125.6</ele>
        <time>2024-04-07T05:46:13Z</time>
      </trkpt>
      <trkpt lat="49.20486" lon="-0.23821">
        <ele>125.8</ele>
        <time>2024-04-07T05:46:14Z</time>
      </trkpt>
      <trkpt lat="49.20482" lon="-0.23817">
        <ele>126</ele>
        <time>2024-04-07T05:46:15Z</time>
      </trkpt>
      <trkpt lat="49.20478" lon="-0.23812">
        <ele>126.2</ele>
        <time>2024-04-07T05:46:16Z</time>
      </trkpt>
      <trkpt lat="49.20474" lon="-0.23807">
        <ele>126.4</ele>
        <time>2024-04-07T05:46:17Z</time>
      </trkpt>
      <trkpt lat="49.20469" lon="-0.23802">
        <ele>126.6</ele>
        <time>2024-04-07T05:46:18Z</time>
      </trkpt>
      <trkpt lat="49.20464" lon="-0.23798">
        <ele>126.8</ele>
        <time>2024-04-07T05:46:19Z</time>
      </trkpt>
      <trkpt lat="49.2046" lon="-0.23792">
        <ele>126.8</ele>
        <time>2024-04-07T05:46:20Z</time>
      </trkpt>
      <trkpt lat="49.20456" lon="-0.23787">
        <ele>127</ele>
        <time>2024-04-07T05:46:21Z</time>
      </trkpt>
      <trkpt lat="49.20451" lon="-0.23782">
        <ele>127</ele>
        <time>2024-04-07T05:46:22Z</time>
      </trkpt>
      <trkpt lat="49.20447" lon="-0.23777">
        <ele>127</ele>
        <time>2024-04-07T05:46:23Z</time>
      </trkpt>
      <trkpt lat="49.20442" lon="-0.23772">
        <ele>127.2</ele>
        <time>2024-04-07T05:46:24Z</time>
      </trkpt>
      <trkpt lat="49.20437" lon="-0.23767">
        <ele>127.2</ele>
        <time>2024-04-07T05:46:25Z</time>
      </trkpt>
      <trkpt lat="49.20433" lon="-0.23762">
        <ele>127.2</ele>
        <time>2024-04-07T05:46:26Z</time>
      </trkpt>
      <trkpt lat="49.20428" lon="-0.23757">
        <ele>127.2</ele>
        <time>2024-04-07T05:46:27Z</time>
      </trkpt>
      <trkpt lat="49.20424" lon="-0.23752">
        <ele>127.2</ele>
        <time>2024-04-07T05:46:28Z</time>
      </trkpt>
      <trkpt lat="49.20419" lon="-0.23747">
        <ele>127.2</ele>
        <time>2024-04-07T05:46:29Z</time>
      </trkpt>
      <trkpt lat="49.20415" lon="-0.23742">
        <ele>127.4</ele>
        <time>2024-04-07T05:46:30Z</time>
      </trkpt>
      <trkpt lat="49.2041" lon="-0.23737">
        <ele>127.6</ele>
        <time>2024-04-07T05:46:31Z</time>
      </trkpt>
      <trkpt lat="49.20406" lon="-0.23732">
        <ele>127.6</ele>
        <time>2024-04-07T05:46:32Z</time>
      </trkpt>
      <trkpt lat="49.20401" lon="-0.23727">
        <ele>127.8</ele>
        <time>2024-04-07T05:46:33Z</time>
      </trkpt>
      <trkpt lat="49.20397" lon="-0.23722">
        <ele>127.8</ele>
        <time>2024-04-07T05:46:34Z</time>
      </trkpt>
      <trkpt lat="49.20392" lon="-0.23717">
        <ele>128</ele>
        <time>2024-04-07T05:46:35Z</time>
      </trkpt>
      <trkpt lat="49.20387" lon="-0.23712">
        <ele>128</ele>
        <time>2024-04-07T05:46:36Z</time>
      </trkpt>
      <trkpt lat="49.20383" lon="-0.23707">
        <ele>128.2</ele>
        <time>2024-04-07T05:46:37Z</time>
      </trkpt>
      <trkpt lat="49.20378" lon="-0.23702">
        <ele>128.2</ele>
        <time>2024-04-07T05:46:38Z</time>
      </trkpt>
      <trkpt lat="49.20373" lon="-0.23697">
        <ele>128.4</ele>
        <time>2024-04-07T05:46:39Z</time>
      </trkpt>
      <trkpt lat="49.20369" lon="-0.23692">
        <ele>128.6</ele>
        <time>2024-04-07T05:46:40Z</time>
      </trkpt>
      <trkpt lat="49.20364" lon="-0.23687">
        <ele>128.6</ele>
        <time>2024-04-07T05:46:41Z</time>
      </trkpt>
      <trkpt lat="49.20359" lon="-0.23681">
        <ele>128.6</ele>
        <time>2024-04-07T05:46:42Z</time>
      </trkpt>
      <trkpt lat="49.20354" lon="-0.23676">
        <ele>128.6</ele>
        <time>2024-04-07T05:46:43Z</time>
      </trkpt>
      <trkpt lat="49.20349" lon="-0.23671">
        <ele>128.6</ele>
        <time>2024-04-07T05:46:44Z</time>
      </trkpt>
      <trkpt lat="49.20345" lon="-0.23666">
        <ele>128.8</ele>
        <time>2024-04-07T05:46:45Z</time>
      </trkpt>
      <trkpt lat="49.2034" lon="-0.2366">
        <ele>128.8</ele>
        <time>2024-04-07T05:46:46Z</time>
      </trkpt>
      <trkpt lat="49.20335" lon="-0.23655">
        <ele>128.8</ele>
        <time>2024-04-07T05:46:47Z</time>
      </trkpt>
      <trkpt lat="49.20331" lon="-0.2365">
        <ele>128.8</ele>
        <time>2024-04-07T05:46:48Z</time>
      </trkpt>
      <trkpt lat="49.20326" lon="-0.23645">
        <ele>129</ele>
        <time>2024-04-07T05:46:49Z</time>
      </trkpt>
      <trkpt lat="49.20321" lon="-0.23639">
        <ele>129</ele>
        <time>2024-04-07T05:46:50Z</time>
      </trkpt>
      <trkpt lat="49.20316" lon="-0.23634">
        <ele>129</ele>
        <time>2024-04-07T05:46:51Z</time>
      </trkpt>
      <trkpt lat="49.20312" lon="-0.23629">
        <ele>129</ele>
        <time>2024-04-07T05:46:52Z</time>
      </trkpt>
      <trkpt lat="49.20307" lon="-0.23624">
        <ele>129</ele>
        <time>2024-04-07T05:46:53Z</time>
      </trkpt>
      <trkpt lat="49.20302" lon="-0.23618">
        <ele>129</ele>
        <time>2024-04-07T05:46:54Z</time>
      </trkpt>
      <trkpt lat="49.20297" lon="-0.23613">
        <ele>129</ele>
        <time>2024-04-07T05:46:55Z</time>
      </trkpt>
      <trkpt lat="49.20293" lon="-0.23608">
        <ele>129</ele>
        <time>2024-04-07T05:46:56Z</time>
      </trkpt>
      <trkpt lat="49.20288" lon="-0.23603">
        <ele>129.2</ele>
        <time>2024-04-07T05:46:57Z</time>
      </trkpt>
      <trkpt lat="49.20283" lon="-0.23597">
        <ele>129.2</ele>
        <time>2024-04-07T05:46:58Z</time>
      </trkpt>
      <trkpt lat="49.20278" lon="-0.23592">
        <ele>129.2</ele>
        <time>2024-04-07T05:46:59Z</time>
      </trkpt>
      <trkpt lat="49.20273" lon="-0.23586">
        <ele>129.4</ele>
        <time>2024-04-07T05:47:00Z</time>
      </trkpt>
      <trkpt lat="49.20268" lon="-0.2358">
        <ele>129.4</ele>
        <time>2024-04-07T05:47:01Z</time>
      </trkpt>
      <trkpt lat="49.20263" lon="-0.23575">
        <ele>129.4</ele>
        <time>2024-04-07T05:47:02Z</time>
      </trkpt>
      <trkpt lat="49.20258" lon="-0.23569">
        <ele>129.4</ele>
        <time>2024-04-07T05:47:03Z</time>
      </trkpt>
      <trkpt lat="49.20254" lon="-0.23563">
        <ele>129.4</ele>
        <time>2024-04-07T05:47:04Z</time>
      </trkpt>
      <trkpt lat="49.20249" lon="-0.23557">
        <ele>129.4</ele>
        <time>2024-04-07T05:47:05Z</time>
      </trkpt>
      <trkpt lat="49.20244" lon="-0.23551">
        <ele>129.4</ele>
        <time>2024-04-07T05:47:06Z</time>
      </trkpt>
      <trkpt lat="49.20239" lon="-0.23546">
        <ele>129.4</ele>
        <time>2024-04-07T05:47:07Z</time>
      </trkpt>
      <trkpt lat="49.20234" lon="-0.2354">
        <ele>129.4</ele>
        <time>2024-04-07T05:47:08Z</time>
      </trkpt>
      <trkpt lat="49.20229" lon="-0.23534">
        <ele>129.4</ele>
        <time>2024-04-07T05:47:09Z</time>
      </trkpt>
      <trkpt lat="49.20224" lon="-0.23528">
        <ele>129.4</ele>
        <time>2024-04-07T05:47:10Z</time>
      </trkpt>
      <trkpt lat="49.20219" lon="-0.23523">
        <ele>129.4</ele>
        <time>2024-04-07T05:47:11Z</time>
      </trkpt>
      <trkpt lat="49.20213" lon="-0.23517">
        <ele>129.2</ele>
        <time>2024-04-07T05:47:12Z</time>
      </trkpt>
      <trkpt lat="49.20208" lon="-0.23511">
        <ele>129.2</ele>
        <time>2024-04-07T05:47:13Z</time>
      </trkpt>
      <trkpt lat="49.20203" lon="-0.23506">
        <ele>129.2</ele>
        <time>2024-04-07T05:47:14Z</time>
      </trkpt>
      <trkpt lat="49.20198" lon="-0.235">
        <ele>129</ele>
        <time>2024-04-07T05:47:15Z</time>
      </trkpt>
      <trkpt lat="49.20193" lon="-0.23495">
        <ele>129</ele>
        <time>2024-04-07T05:47:16Z</time>
      </trkpt>
      <trkpt lat="49.20187" lon="-0.23489">
        <ele>129</ele>
        <time>2024-04-07T05:47:17Z</time>
      </trkpt>
      <trkpt lat="49.20182" lon="-0.23484">
        <ele>129</ele>
        <time>2024-04-07T05:47:18Z</time>
      </trkpt>
      <trkpt lat="49.20176" lon="-0.23479">
        <ele>129</ele>
        <time>2024-04-07T05:47:19Z</time>
      </trkpt>
      <trkpt lat="49.20171" lon="-0.23474">
        <ele>129</ele>
        <time>2024-04-07T05:47:20Z</time>
      </trkpt>
      <trkpt lat="49.20165" lon="-0.2347">
        <ele>129</ele>
        <time>2024-04-07T05:47:21Z</time>
      </trkpt>
      <trkpt lat="49.20159" lon="-0.23467">
        <ele>129</ele>
        <time>2024-04-07T05:47:22Z</time>
      </trkpt>
      <trkpt lat="49.20152" lon="-0.23464">
        <ele>128.8</ele>
        <time>2024-04-07T05:47:23Z</time>
      </trkpt>
      <trkpt lat="49.20146" lon="-0.23461">
        <ele>128.8</ele>
        <time>2024-04-07T05:47:24Z</time>
      </trkpt>
      <trkpt lat="49.20139" lon="-0.23459">
        <ele>128.6</ele>
        <time>2024-04-07T05:47:25Z</time>
      </trkpt>
      <trkpt lat="49.20132" lon="-0.23457">
        <ele>128.4</ele>
        <time>2024-04-07T05:47:26Z</time>
      </trkpt>
      <trkpt lat="49.20125" lon="-0.23455">
        <ele>128.4</ele>
        <time>2024-04-07T05:47:27Z</time>
      </trkpt>
      <trkpt lat="49.20118" lon="-0.23453">
        <ele>128.2</ele>
        <time>2024-04-07T05:47:28Z</time>
      </trkpt>
      <trkpt lat="49.20111" lon="-0.23451">
        <ele>128.2</ele>
        <time>2024-04-07T05:47:29Z</time>
      </trkpt>
      <trkpt lat="49.20105" lon="-0.23449">
        <ele>128</ele>
        <time>2024-04-07T05:47:30Z</time>
      </trkpt>
      <trkpt lat="49.20098" lon="-0.23447">
        <ele>127.8</ele>
        <time>2024-04-07T05:47:31Z</time>
      </trkpt>
      <trkpt lat="49.20091" lon="-0.23445">
        <ele>127.8</ele>
        <time>2024-04-07T05:47:32Z</time>
      </trkpt>
      <trkpt lat="49.20084" lon="-0.23443">
        <ele>127.8</ele>
        <time>2024-04-07T05:47:33Z</time>
      </trkpt>
      <trkpt lat="49.20077" lon="-0.23441">
        <ele>127.8</ele>
        <time>2024-04-07T05:47:34Z</time>
      </trkpt>
      <trkpt lat="49.2007" lon="-0.23438">
        <ele>127.8</ele>
        <time>2024-04-07T05:47:35Z</time>
      </trkpt>
      <trkpt lat="49.20063" lon="-0.23436">
        <ele>127.6</ele>
        <time>2024-04-07T05:47:36Z</time>
      </trkpt>
      <trkpt lat="49.20057" lon="-0.23434">
        <ele>127.6</ele>
        <time>2024-04-07T05:47:37Z</time>
      </trkpt>
      <trkpt lat="49.2005" lon="-0.23432">
        <ele>127.4</ele>
        <time>2024-04-07T05:47:38Z</time>
      </trkpt>
      <trkpt lat="49.20043" lon="-0.23429">
        <ele>127.2</ele>
        <time>2024-04-07T05:47:39Z</time>
      </trkpt>
      <trkpt lat="49.20036" lon="-0.23427">
        <ele>127</ele>
        <time>2024-04-07T05:47:40Z</time>
      </trkpt>
      <trkpt lat="49.20029" lon="-0.23424">
        <ele>127</ele>
        <time>2024-04-07T05:47:41Z</time>
      </trkpt>
      <trkpt lat="49.20022" lon="-0.23421">
        <ele>126.8</ele>
        <time>2024-04-07T05:47:42Z</time>
      </trkpt>
      <trkpt lat="49.20015" lon="-0.23419">
        <ele>126.8</ele>
        <time>2024-04-07T05:47:43Z</time>
      </trkpt>
      <trkpt lat="49.20009" lon="-0.23415">
        <ele>126.8</ele>
        <time>2024-04-07T05:47:44Z</time>
      </trkpt>
      <trkpt lat="49.20002" lon="-0.23412">
        <ele>126.8</ele>
        <time>2024-04-07T05:47:45Z</time>
      </trkpt>
      <trkpt lat="49.19995" lon="-0.23409">
        <ele>126.8</ele>
        <time>2024-04-07T05:47:46Z</time>
      </trkpt>
      <trkpt lat="49.19988" lon="-0.23406">
        <ele>126.8</ele>
        <time>2024-04-07T05:47:47Z</time>
      </trkpt>
      <trkpt lat="49.19982" lon="-0.23402">
        <ele>126.8</ele>
        <time>2024-04-07T05:47:48Z</time>
      </trkpt>
      <trkpt lat="49.19975" lon="-0.23398">
        <ele>126.8</ele>
        <time>2024-04-07T05:47:49Z</time>
      </trkpt>
      <trkpt lat="49.19969" lon="-0.23395">
        <ele>126.6</ele>
        <time>2024-04-07T05:47:50Z</time>
      </trkpt>
      <trkpt lat="49.19962" lon="-0.23391">
        <ele>126.6</ele>
        <time>2024-04-07T05:47:51Z</time>
      </trkpt>
      <trkpt lat="49.19956" lon="-0.23387">
        <ele>126.4</ele>
        <time>2024-04-07T05:47:52Z</time>
      </trkpt>
      <trkpt lat="49.19949" lon="-0.23383">
        <ele>126.2</ele>
        <time>2024-04-07T05:47:53Z</time>
      </trkpt>
      <trkpt lat="49.19943" lon="-0.23379">
        <ele>126.2</ele>
        <time>2024-04-07T05:47:54Z</time>
      </trkpt>
      <trkpt lat="49.19937" lon="-0.23374">
        <ele>126.2</ele>
        <time>2024-04-07T05:47:55Z</time>
      </trkpt>
      <trkpt lat="49.19931" lon="-0.2337">
        <ele>126.2</ele>
        <time>2024-04-07T05:47:56Z</time>
      </trkpt>
      <trkpt lat="49.19924" lon="-0.23365">
        <ele>126.2</ele>
        <time>2024-04-07T05:47:57Z</time>
      </trkpt>
      <trkpt lat="49.19918" lon="-0.2336">
        <ele>126.2</ele>
        <time>2024-04-07T05:47:58Z</time>
      </trkpt>
      <trkpt lat="49.19912" lon="-0.23355">
        <ele>126.2</ele>
        <time>2024-04-07T05:47:59Z</time>
      </trkpt>
      <trkpt lat="49.19905" lon="-0.2335">
        <ele>126.2</ele>
        <time>2024-04-07T05:48:00Z</time>
      </trkpt>
      <trkpt lat="49.19899" lon="-0.23344">
        <ele>126</ele>
        <time>2024-04-07T05:48:01Z</time>
      </trkpt>
      <trkpt lat="49.19892" lon="-0.23339">
        <ele>126</ele>
        <time>2024-04-07T05:48:02Z</time>
      </trkpt>
      <trkpt lat="49.19886" lon="-0.23334">
        <ele>126</ele>
        <time>2024-04-07T05:48:03Z</time>
      </trkpt>
      <trkpt lat="49.1988" lon="-0.23329">
        <ele>125.8</ele>
        <time>2024-04-07T05:48:04Z</time>
      </trkpt>
      <trkpt lat="49.19874" lon="-0.23325">
        <ele>125.8</ele>
        <time>2024-04-07T05:48:05Z</time>
      </trkpt>
      <trkpt lat="49.19868" lon="-0.2332">
        <ele>125.6</ele>
        <time>2024-04-07T05:48:06Z</time>
      </trkpt>
      <trkpt lat="49.19861" lon="-0.23315">
        <ele>125.6</ele>
        <time>2024-04-07T05:48:07Z</time>
      </trkpt>
      <trkpt lat="49.19855" lon="-0.2331">
        <ele>125.6</ele>
        <time>2024-04-07T05:48:08Z</time>
      </trkpt>
      <trkpt lat="49.19849" lon="-0.23305">
        <ele>125.4</ele>
        <time>2024-04-07T05:48:09Z</time>
      </trkpt>
      <trkpt lat="49.19843" lon="-0.233">
        <ele>125.2</ele>
        <time>2024-04-07T05:48:10Z</time>
      </trkpt>
      <trkpt lat="49.19836" lon="-0.23295">
        <ele>125</ele>
        <time>2024-04-07T05:48:11Z</time>
      </trkpt>
      <trkpt lat="49.1983" lon="-0.2329">
        <ele>124.8</ele>
        <time>2024-04-07T05:48:12Z</time>
      </trkpt>
      <trkpt lat="49.19823" lon="-0.23285">
        <ele>124.6</ele>
        <time>2024-04-07T05:48:13Z</time>
      </trkpt>
      <trkpt lat="49.19817" lon="-0.2328">
        <ele>124.6</ele>
        <time>2024-04-07T05:48:14Z</time>
      </trkpt>
      <trkpt lat="49.1981" lon="-0.23275">
        <ele>124.6</ele>
        <time>2024-04-07T05:48:15Z</time>
      </trkpt>
      <trkpt lat="49.19804" lon="-0.23271">
        <ele>124.4</ele>
        <time>2024-04-07T05:48:16Z</time>
      </trkpt>
      <trkpt lat="49.19797" lon="-0.23266">
        <ele>124.4</ele>
        <time>2024-04-07T05:48:17Z</time>
      </trkpt>
      <trkpt lat="49.19791" lon="-0.23261">
        <ele>124.2</ele>
        <time>2024-04-07T05:48:18Z</time>
      </trkpt>
      <trkpt lat="49.19784" lon="-0.23257">
        <ele>124.2</ele>
        <time>2024-04-07T05:48:19Z</time>
      </trkpt>
      <trkpt lat="49.19777" lon="-0.23252">
        <ele>124.2</ele>
        <time>2024-04-07T05:48:20Z</time>
      </trkpt>
      <trkpt lat="49.19771" lon="-0.23247">
        <ele>124</ele>
        <time>2024-04-07T05:48:21Z</time>
      </trkpt>
      <trkpt lat="49.19764" lon="-0.23243">
        <ele>124</ele>
        <time>2024-04-07T05:48:22Z</time>
      </trkpt>
      <trkpt lat="49.19757" lon="-0.23239">
        <ele>124</ele>
        <time>2024-04-07T05:48:23Z</time>
      </trkpt>
      <trkpt lat="49.1975" lon="-0.23234">
        <ele>123.8</ele>
        <time>2024-04-07T05:48:24Z</time>
      </trkpt>
      <trkpt lat="49.19744" lon="-0.2323">
        <ele>123.4</ele>
        <time>2024-04-07T05:48:25Z</time>
      </trkpt>
      <trkpt lat="49.19737" lon="-0.23226">
        <ele>123.4</ele>
        <time>2024-04-07T05:48:26Z</time>
      </trkpt>
      <trkpt lat="49.1973" lon="-0.23222">
        <ele>123.2</ele>
        <time>2024-04-07T05:48:27Z</time>
      </trkpt>
      <trkpt lat="49.19723" lon="-0.23218">
        <ele>123.2</ele>
        <time>2024-04-07T05:48:28Z</time>
      </trkpt>
      <trkpt lat="49.19717" lon="-0.23214">
        <ele>123</ele>
        <time>2024-04-07T05:48:29Z</time>
      </trkpt>
      <trkpt lat="49.1971" lon="-0.2321">
        <ele>122.8</ele>
        <time>2024-04-07T05:48:30Z</time>
      </trkpt>
      <trkpt lat="49.19703" lon="-0.23207">
        <ele>122.6</ele>
        <time>2024-04-07T05:48:31Z</time>
      </trkpt>
      <trkpt lat="49.19696" lon="-0.23203">
        <ele>122.6</ele>
        <time>2024-04-07T05:48:32Z</time>
      </trkpt>
      <trkpt lat="49.19689" lon="-0.23199">
        <ele>122.6</ele>
        <time>2024-04-07T05:48:33Z</time>
      </trkpt>
      <trkpt lat="49.19682" lon="-0.23196">
        <ele>122.4</ele>
        <time>2024-04-07T05:48:34Z</time>
      </trkpt>
      <trkpt lat="49.19675" lon="-0.23192">
        <ele>122.4</ele>
        <time>2024-04-07T05:48:35Z</time>
      </trkpt>
      <trkpt lat="49.19668" lon="-0.23188">
        <ele>122.4</ele>
        <time>2024-04-07T05:48:36Z</time>
      </trkpt>
      <trkpt lat="49.19662" lon="-0.23185">
        <ele>122.2</ele>
        <time>2024-04-07T05:48:37Z</time>
      </trkpt>
      <trkpt lat="49.19655" lon="-0.23181">
        <ele>122.2</ele>
        <time>2024-04-07T05:48:38Z</time>
      </trkpt>
      <trkpt lat="49.19648" lon="-0.23177">
        <ele>122.2</ele>
        <time>2024-04-07T05:48:39Z</time>
      </trkpt>
      <trkpt lat="49.19641" lon="-0.23173">
        <ele>122.2</ele>
        <time>2024-04-07T05:48:40Z</time>
      </trkpt>
      <trkpt lat="49.19635" lon="-0.23169">
        <ele>122.2</ele>
        <time>2024-04-07T05:48:41Z</time>
      </trkpt>
      <trkpt lat="49.19628" lon="-0.23166">
        <ele>122.2</ele>
        <time>2024-04-07T05:48:42Z</time>
      </trkpt>
      <trkpt lat="49.19621" lon="-0.23162">
        <ele>122.2</ele>
        <time>2024-04-07T05:48:43Z</time>
      </trkpt>
      <trkpt lat="49.19615" lon="-0.23158">
        <ele>122.2</ele>
        <time>2024-04-07T05:48:44Z</time>
      </trkpt>
      <trkpt lat="49.19608" lon="-0.23154">
        <ele>122.2</ele>
        <time>2024-04-07T05:48:45Z</time>
      </trkpt>
      <trkpt lat="49.19601" lon="-0.23149">
        <ele>122</ele>
        <time>2024-04-07T05:48:46Z</time>
      </trkpt>
      <trkpt lat="49.19595" lon="-0.23145">
        <ele>122</ele>
        <time>2024-04-07T05:48:47Z</time>
      </trkpt>
      <trkpt lat="49.19588" lon="-0.2314">
        <ele>122</ele>
        <time>2024-04-07T05:48:48Z</time>
      </trkpt>
      <trkpt lat="49.19582" lon="-0.23135">
        <ele>122</ele>
        <time>2024-04-07T05:48:49Z</time>
      </trkpt>
      <trkpt lat="49.19576" lon="-0.2313">
        <ele>122</ele>
        <time>2024-04-07T05:48:50Z</time>
      </trkpt>
      <trkpt lat="49.1957" lon="-0.23125">
        <ele>122</ele>
        <time>2024-04-07T05:48:51Z</time>
      </trkpt>
      <trkpt lat="49.19557" lon="-0.23115">
        <ele>122</ele>
        <time>2024-04-07T05:48:52Z</time>
      </trkpt>
      <trkpt lat="49.19554" lon="-0.23112">
        <ele>122.2</ele>
        <time>2024-04-07T05:48:53Z</time>
      </trkpt>
      <trkpt lat="49.19551" lon="-0.23109">
        <ele>122.2</ele>
        <time>2024-04-07T05:48:54Z</time>
      </trkpt>
      <trkpt lat="49.19545" lon="-0.23104">
        <ele>122.4</ele>
        <time>2024-04-07T05:48:55Z</time>
      </trkpt>
      <trkpt lat="49.19539" lon="-0.23098">
        <ele>122.4</ele>
        <time>2024-04-07T05:48:56Z</time>
      </trkpt>
      <trkpt lat="49.19533" lon="-0.23093">
        <ele>122.4</ele>
        <time>2024-04-07T05:48:57Z</time>
      </trkpt>
      <trkpt lat="49.19527" lon="-0.23088">
        <ele>122.4</ele>
        <time>2024-04-07T05:48:58Z</time>
      </trkpt>
      <trkpt lat="49.19521" lon="-0.23082">
        <ele>122.4</ele>
        <time>2024-04-07T05:48:59Z</time>
      </trkpt>
      <trkpt lat="49.19515" lon="-0.23077">
        <ele>122.4</ele>
        <time>2024-04-07T05:49:00Z</time>
      </trkpt>
      <trkpt lat="49.19509" lon="-0.23072">
        <ele>122.4</ele>
        <time>2024-04-07T05:49:01Z</time>
      </trkpt>
      <trkpt lat="49.19503" lon="-0.23066">
        <ele>122.2</ele>
        <time>2024-04-07T05:49:02Z</time>
      </trkpt>
      <trkpt lat="49.19497" lon="-0.23061">
        <ele>122.2</ele>
        <time>2024-04-07T05:49:03Z</time>
      </trkpt>
      <trkpt lat="49.19491" lon="-0.23055">
        <ele>122</ele>
        <time>2024-04-07T05:49:04Z</time>
      </trkpt>
      <trkpt lat="49.19485" lon="-0.23049">
        <ele>121.8</ele>
        <time>2024-04-07T05:49:05Z</time>
      </trkpt>
      <trkpt lat="49.19479" lon="-0.23044">
        <ele>121.8</ele>
        <time>2024-04-07T05:49:06Z</time>
      </trkpt>
      <trkpt lat="49.19473" lon="-0.23038">
        <ele>121.8</ele>
        <time>2024-04-07T05:49:07Z</time>
      </trkpt>
      <trkpt lat="49.19467" lon="-0.23032">
        <ele>121.8</ele>
        <time>2024-04-07T05:49:08Z</time>
      </trkpt>
      <trkpt lat="49.19461" lon="-0.23026">
        <ele>121.8</ele>
        <time>2024-04-07T05:49:09Z</time>
      </trkpt>
      <trkpt lat="49.19455" lon="-0.23021">
        <ele>121.6</ele>
        <time>2024-04-07T05:49:10Z</time>
      </trkpt>
      <trkpt lat="49.19449" lon="-0.23015">
        <ele>121.4</ele>
        <time>2024-04-07T05:49:11Z</time>
      </trkpt>
      <trkpt lat="49.19442" lon="-0.23009">
        <ele>121.4</ele>
        <time>2024-04-07T05:49:12Z</time>
      </trkpt>
      <trkpt lat="49.19436" lon="-0.23003">
        <ele>121.2</ele>
        <time>2024-04-07T05:49:13Z</time>
      </trkpt>
      <trkpt lat="49.1943" lon="-0.22997">
        <ele>121.2</ele>
        <time>2024-04-07T05:49:14Z</time>
      </trkpt>
      <trkpt lat="49.19424" lon="-0.22991">
        <ele>121</ele>
        <time>2024-04-07T05:49:15Z</time>
      </trkpt>
      <trkpt lat="49.19418" lon="-0.22985">
        <ele>120.8</ele>
        <time>2024-04-07T05:49:16Z</time>
      </trkpt>
      <trkpt lat="49.19412" lon="-0.22978">
        <ele>120.4</ele>
        <time>2024-04-07T05:49:17Z</time>
      </trkpt>
      <trkpt lat="49.19406" lon="-0.22972">
        <ele>120.2</ele>
        <time>2024-04-07T05:49:18Z</time>
      </trkpt>
      <trkpt lat="49.19399" lon="-0.22965">
        <ele>120.2</ele>
        <time>2024-04-07T05:49:19Z</time>
      </trkpt>
      <trkpt lat="49.19393" lon="-0.22958">
        <ele>120</ele>
        <time>2024-04-07T05:49:20Z</time>
      </trkpt>
      <trkpt lat="49.19387" lon="-0.22952">
        <ele>119.6</ele>
        <time>2024-04-07T05:49:21Z</time>
      </trkpt>
      <trkpt lat="49.19381" lon="-0.22945">
        <ele>119.4</ele>
        <time>2024-04-07T05:49:22Z</time>
      </trkpt>
      <trkpt lat="49.19374" lon="-0.22938">
        <ele>119.2</ele>
        <time>2024-04-07T05:49:23Z</time>
      </trkpt>
      <trkpt lat="49.19368" lon="-0.22931">
        <ele>118.8</ele>
        <time>2024-04-07T05:49:24Z</time>
      </trkpt>
      <trkpt lat="49.19362" lon="-0.22924">
        <ele>118.6</ele>
        <time>2024-04-07T05:49:25Z</time>
      </trkpt>
      <trkpt lat="49.19356" lon="-0.22917">
        <ele>118.4</ele>
        <time>2024-04-07T05:49:26Z</time>
      </trkpt>
      <trkpt lat="49.1935" lon="-0.2291">
        <ele>118.2</ele>
        <time>2024-04-07T05:49:27Z</time>
      </trkpt>
      <trkpt lat="49.19344" lon="-0.22903">
        <ele>118.2</ele>
        <time>2024-04-07T05:49:28Z</time>
      </trkpt>
      <trkpt lat="49.19338" lon="-0.22896">
        <ele>118</ele>
        <time>2024-04-07T05:49:29Z</time>
      </trkpt>
      <trkpt lat="49.19332" lon="-0.22889">
        <ele>118</ele>
        <time>2024-04-07T05:49:30Z</time>
      </trkpt>
      <trkpt lat="49.19326" lon="-0.22882">
        <ele>117.8</ele>
        <time>2024-04-07T05:49:31Z</time>
      </trkpt>
      <trkpt lat="49.1932" lon="-0.22875">
        <ele>117.6</ele>
        <time>2024-04-07T05:49:32Z</time>
      </trkpt>
      <trkpt lat="49.19314" lon="-0.22869">
        <ele>117.6</ele>
        <time>2024-04-07T05:49:33Z</time>
      </trkpt>
      <trkpt lat="49.19308" lon="-0.22862">
        <ele>117.4</ele>
        <time>2024-04-07T05:49:34Z</time>
      </trkpt>
      <trkpt lat="49.19301" lon="-0.22855">
        <ele>117.4</ele>
        <time>2024-04-07T05:49:35Z</time>
      </trkpt>
      <trkpt lat="49.19295" lon="-0.22848">
        <ele>117.2</ele>
        <time>2024-04-07T05:49:36Z</time>
      </trkpt>
      <trkpt lat="49.19289" lon="-0.22842">
        <ele>117.2</ele>
        <time>2024-04-07T05:49:37Z</time>
      </trkpt>
      <trkpt lat="49.19283" lon="-0.22835">
        <ele>117</ele>
        <time>2024-04-07T05:49:38Z</time>
      </trkpt>
      <trkpt lat="49.19277" lon="-0.22828">
        <ele>117</ele>
        <time>2024-04-07T05:49:39Z</time>
      </trkpt>
      <trkpt lat="49.19271" lon="-0.22822">
        <ele>116.8</ele>
        <time>2024-04-07T05:49:40Z</time>
      </trkpt>
      <trkpt lat="49.19264" lon="-0.22815">
        <ele>116.4</ele>
        <time>2024-04-07T05:49:41Z</time>
      </trkpt>
      <trkpt lat="49.19258" lon="-0.22808">
        <ele>116.2</ele>
        <time>2024-04-07T05:49:42Z</time>
      </trkpt>
      <trkpt lat="49.19251" lon="-0.22801">
        <ele>115.8</ele>
        <time>2024-04-07T05:49:43Z</time>
      </trkpt>
      <trkpt lat="49.19245" lon="-0.22795">
        <ele>115.4</ele>
        <time>2024-04-07T05:49:44Z</time>
      </trkpt>
      <trkpt lat="49.19238" lon="-0.22789">
        <ele>115.2</ele>
        <time>2024-04-07T05:49:45Z</time>
      </trkpt>
      <trkpt lat="49.19231" lon="-0.22783">
        <ele>114.8</ele>
        <time>2024-04-07T05:49:46Z</time>
      </trkpt>
      <trkpt lat="49.19224" lon="-0.22777">
        <ele>114.4</ele>
        <time>2024-04-07T05:49:47Z</time>
      </trkpt>
      <trkpt lat="49.19217" lon="-0.22771">
        <ele>114.2</ele>
        <time>2024-04-07T05:49:48Z</time>
      </trkpt>
      <trkpt lat="49.19211" lon="-0.22765">
        <ele>113.8</ele>
        <time>2024-04-07T05:49:49Z</time>
      </trkpt>
      <trkpt lat="49.19204" lon="-0.2276">
        <ele>113.6</ele>
        <time>2024-04-07T05:49:50Z</time>
      </trkpt>
      <trkpt lat="49.19197" lon="-0.22755">
        <ele>113.4</ele>
        <time>2024-04-07T05:49:51Z</time>
      </trkpt>
      <trkpt lat="49.1919" lon="-0.22749">
        <ele>113.2</ele>
        <time>2024-04-07T05:49:52Z</time>
      </trkpt>
      <trkpt lat="49.19183" lon="-0.22744">
        <ele>113.2</ele>
        <time>2024-04-07T05:49:53Z</time>
      </trkpt>
      <trkpt lat="49.19176" lon="-0.22738">
        <ele>113.2</ele>
        <time>2024-04-07T05:49:54Z</time>
      </trkpt>
      <trkpt lat="49.1917" lon="-0.22731">
        <ele>113</ele>
        <time>2024-04-07T05:49:55Z</time>
      </trkpt>
      <trkpt lat="49.19164" lon="-0.22723">
        <ele>112.8</ele>
        <time>2024-04-07T05:49:56Z</time>
      </trkpt>
      <trkpt lat="49.19158" lon="-0.22715">
        <ele>112.8</ele>
        <time>2024-04-07T05:49:57Z</time>
      </trkpt>
      <trkpt lat="49.19153" lon="-0.22706">
        <ele>112.4</ele>
        <time>2024-04-07T05:49:58Z</time>
      </trkpt>
      <trkpt lat="49.19149" lon="-0.22696">
        <ele>112.2</ele>
        <time>2024-04-07T05:49:59Z</time>
      </trkpt>
      <trkpt lat="49.19144" lon="-0.22686">
        <ele>111.8</ele>
        <time>2024-04-07T05:50:00Z</time>
      </trkpt>
      <trkpt lat="49.19141" lon="-0.22676">
        <ele>111.4</ele>
        <time>2024-04-07T05:50:01Z</time>
      </trkpt>
      <trkpt lat="49.19137" lon="-0.22665">
        <ele>111</ele>
        <time>2024-04-07T05:50:02Z</time>
      </trkpt>
      <trkpt lat="49.19134" lon="-0.22655">
        <ele>110.6</ele>
        <time>2024-04-07T05:50:03Z</time>
      </trkpt>
      <trkpt lat="49.19131" lon="-0.22644">
        <ele>110.4</ele>
        <time>2024-04-07T05:50:04Z</time>
      </trkpt>
      <trkpt lat="49.19128" lon="-0.22634">
        <ele>110.2</ele>
        <time>2024-04-07T05:50:05Z</time>
      </trkpt>
      <trkpt lat="49.19125" lon="-0.22623">
        <ele>110.2</ele>
        <time>2024-04-07T05:50:06Z</time>
      </trkpt>
      <trkpt lat="49.19122" lon="-0.22613">
        <ele>110</ele>
        <time>2024-04-07T05:50:07Z</time>
      </trkpt>
      <trkpt lat="49.19119" lon="-0.22603">
        <ele>110</ele>
        <time>2024-04-07T05:50:08Z</time>
      </trkpt>
      <trkpt lat="49.19117" lon="-0.22594">
        <ele>110</ele>
        <time>2024-04-07T05:50:09Z</time>
      </trkpt>
      <trkpt lat="49.19114" lon="-0.22585">
        <ele>110</ele>
        <time>2024-04-07T05:50:10Z</time>
      </trkpt>
      <trkpt lat="49.19111" lon="-0.22576">
        <ele>109.8</ele>
        <time>2024-04-07T05:50:11Z</time>
      </trkpt>
      <trkpt lat="49.19108" lon="-0.22568">
        <ele>109.6</ele>
        <time>2024-04-07T05:50:12Z</time>
      </trkpt>
      <trkpt lat="49.19103" lon="-0.2256">
        <ele>109.6</ele>
        <time>2024-04-07T05:50:13Z</time>
      </trkpt>
      <trkpt lat="49.19098" lon="-0.22554">
        <ele>109.4</ele>
        <time>2024-04-07T05:50:14Z</time>
      </trkpt>
      <trkpt lat="49.19092" lon="-0.2255">
        <ele>109.4</ele>
        <time>2024-04-07T05:50:15Z</time>
      </trkpt>
      <trkpt lat="49.19087" lon="-0.22547">
        <ele>109.2</ele>
        <time>2024-04-07T05:50:16Z</time>
      </trkpt>
      <trkpt lat="49.1908" lon="-0.22545">
        <ele>109.2</ele>
        <time>2024-04-07T05:50:17Z</time>
      </trkpt>
      <trkpt lat="49.19073" lon="-0.22544">
        <ele>109.2</ele>
        <time>2024-04-07T05:50:18Z</time>
      </trkpt>
      <trkpt lat="49.19067" lon="-0.22545">
        <ele>109</ele>
        <time>2024-04-07T05:50:19Z</time>
      </trkpt>
      <trkpt lat="49.1906" lon="-0.22547">
        <ele>109</ele>
        <time>2024-04-07T05:50:20Z</time>
      </trkpt>
      <trkpt lat="49.19054" lon="-0.22549">
        <ele>109</ele>
        <time>2024-04-07T05:50:21Z</time>
      </trkpt>
      <trkpt lat="49.19047" lon="-0.22551">
        <ele>109</ele>
        <time>2024-04-07T05:50:22Z</time>
      </trkpt>
      <trkpt lat="49.19041" lon="-0.22552">
        <ele>109</ele>
        <time>2024-04-07T05:50:23Z</time>
      </trkpt>
      <trkpt lat="49.19035" lon="-0.22554">
        <ele>109.2</ele>
        <time>2024-04-07T05:50:24Z</time>
      </trkpt>
      <trkpt lat="49.19028" lon="-0.22557">
        <ele>109.2</ele>
        <time>2024-04-07T05:50:25Z</time>
      </trkpt>
      <trkpt lat="49.19021" lon="-0.22558">
        <ele>109.6</ele>
        <time>2024-04-07T05:50:26Z</time>
      </trkpt>
      <trkpt lat="49.19015" lon="-0.2256">
        <ele>109.8</ele>
        <time>2024-04-07T05:50:27Z</time>
      </trkpt>
      <trkpt lat="49.19008" lon="-0.22563">
        <ele>110</ele>
        <time>2024-04-07T05:50:28Z</time>
      </trkpt>
      <trkpt lat="49.19001" lon="-0.22565">
        <ele>110</ele>
        <time>2024-04-07T05:50:29Z</time>
      </trkpt>
      <trkpt lat="49.18995" lon="-0.22566">
        <ele>110.2</ele>
        <time>2024-04-07T05:50:30Z</time>
      </trkpt>
      <trkpt lat="49.18988" lon="-0.22569">
        <ele>110.2</ele>
        <time>2024-04-07T05:50:31Z</time>
      </trkpt>
      <trkpt lat="49.18981" lon="-0.22571">
        <ele>110.2</ele>
        <time>2024-04-07T05:50:32Z</time>
      </trkpt>
      <trkpt lat="49.18974" lon="-0.22573">
        <ele>110.2</ele>
        <time>2024-04-07T05:50:33Z</time>
      </trkpt>
      <trkpt lat="49.18968" lon="-0.22575">
        <ele>110</ele>
        <time>2024-04-07T05:50:34Z</time>
      </trkpt>
      <trkpt lat="49.18961" lon="-0.22578">
        <ele>110</ele>
        <time>2024-04-07T05:50:35Z</time>
      </trkpt>
      <trkpt lat="49.18954" lon="-0.2258">
        <ele>110</ele>
        <time>2024-04-07T05:50:36Z</time>
      </trkpt>
      <trkpt lat="49.18948" lon="-0.22582">
        <ele>109.8</ele>
        <time>2024-04-07T05:50:37Z</time>
      </trkpt>
      <trkpt lat="49.18941" lon="-0.22583">
        <ele>109.6</ele>
        <time>2024-04-07T05:50:38Z</time>
      </trkpt>
      <trkpt lat="49.18934" lon="-0.22585">
        <ele>109.4</ele>
        <time>2024-04-07T05:50:39Z</time>
      </trkpt>
      <trkpt lat="49.18928" lon="-0.22587">
        <ele>109.4</ele>
        <time>2024-04-07T05:50:40Z</time>
      </trkpt>
      <trkpt lat="49.18921" lon="-0.22588">
        <ele>109.4</ele>
        <time>2024-04-07T05:50:41Z</time>
      </trkpt>
      <trkpt lat="49.18914" lon="-0.22588">
        <ele>109.4</ele>
        <time>2024-04-07T05:50:42Z</time>
      </trkpt>
      <trkpt lat="49.18907" lon="-0.22588">
        <ele>109.4</ele>
        <time>2024-04-07T05:50:43Z</time>
      </trkpt>
      <trkpt lat="49.189" lon="-0.22586">
        <ele>109.4</ele>
        <time>2024-04-07T05:50:44Z</time>
      </trkpt>
      <trkpt lat="49.18892" lon="-0.22584">
        <ele>109.4</ele>
        <time>2024-04-07T05:50:45Z</time>
      </trkpt>
      <trkpt lat="49.18885" lon="-0.2258">
        <ele>109.2</ele>
        <time>2024-04-07T05:50:46Z</time>
      </trkpt>
      <trkpt lat="49.18878" lon="-0.22576">
        <ele>109</ele>
        <time>2024-04-07T05:50:47Z</time>
      </trkpt>
      <trkpt lat="49.18871" lon="-0.22572">
        <ele>109</ele>
        <time>2024-04-07T05:50:48Z</time>
      </trkpt>
      <trkpt lat="49.18864" lon="-0.22568">
        <ele>108.8</ele>
        <time>2024-04-07T05:50:49Z</time>
      </trkpt>
      <trkpt lat="49.18857" lon="-0.22564">
        <ele>108.8</ele>
        <time>2024-04-07T05:50:50Z</time>
      </trkpt>
      <trkpt lat="49.1885" lon="-0.2256">
        <ele>108.6</ele>
        <time>2024-04-07T05:50:51Z</time>
      </trkpt>
      <trkpt lat="49.18843" lon="-0.22555">
        <ele>108.6</ele>
        <time>2024-04-07T05:50:52Z</time>
      </trkpt>
      <trkpt lat="49.18837" lon="-0.22551">
        <ele>108.4</ele>
        <time>2024-04-07T05:50:53Z</time>
      </trkpt>
      <trkpt lat="49.1883" lon="-0.22547">
        <ele>108.4</ele>
        <time>2024-04-07T05:50:54Z</time>
      </trkpt>
      <trkpt lat="49.18823" lon="-0.22543">
        <ele>108.4</ele>
        <time>2024-04-07T05:50:55Z</time>
      </trkpt>
      <trkpt lat="49.18816" lon="-0.22538">
        <ele>108.4</ele>
        <time>2024-04-07T05:50:56Z</time>
      </trkpt>
      <trkpt lat="49.18809" lon="-0.22534">
        <ele>108.4</ele>
        <time>2024-04-07T05:50:57Z</time>
      </trkpt>
      <trkpt lat="49.18803" lon="-0.22529">
        <ele>108.4</ele>
        <time>2024-04-07T05:50:58Z</time>
      </trkpt>
      <trkpt lat="49.18796" lon="-0.22525">
        <ele>108.4</ele>
        <time>2024-04-07T05:50:59Z</time>
      </trkpt>
      <trkpt lat="49.18789" lon="-0.2252">
        <ele>108.2</ele>
        <time>2024-04-07T05:51:00Z</time>
      </trkpt>
      <trkpt lat="49.18782" lon="-0.22516">
        <ele>108.2</ele>
        <time>2024-04-07T05:51:01Z</time>
      </trkpt>
      <trkpt lat="49.18775" lon="-0.22512">
        <ele>107.8</ele>
        <time>2024-04-07T05:51:02Z</time>
      </trkpt>
      <trkpt lat="49.18768" lon="-0.22507">
        <ele>107.6</ele>
        <time>2024-04-07T05:51:03Z</time>
      </trkpt>
      <trkpt lat="49.1876" lon="-0.22503">
        <ele>107.4</ele>
        <time>2024-04-07T05:51:04Z</time>
      </trkpt>
      <trkpt lat="49.18753" lon="-0.22499">
        <ele>107.4</ele>
        <time>2024-04-07T05:51:05Z</time>
      </trkpt>
      <trkpt lat="49.18747" lon="-0.22494">
        <ele>107.2</ele>
        <time>2024-04-07T05:51:06Z</time>
      </trkpt>
      <trkpt lat="49.1874" lon="-0.2249">
        <ele>107.2</ele>
        <time>2024-04-07T05:51:07Z</time>
      </trkpt>
      <trkpt lat="49.18733" lon="-0.22486">
        <ele>107</ele>
        <time>2024-04-07T05:51:08Z</time>
      </trkpt>
      <trkpt lat="49.18726" lon="-0.22482">
        <ele>107</ele>
        <time>2024-04-07T05:51:09Z</time>
      </trkpt>
      <trkpt lat="49.18719" lon="-0.22478">
        <ele>106.8</ele>
        <time>2024-04-07T05:51:10Z</time>
      </trkpt>
      <trkpt lat="49.18713" lon="-0.22474">
        <ele>106.8</ele>
        <time>2024-04-07T05:51:11Z</time>
      </trkpt>
      <trkpt lat="49.18706" lon="-0.2247">
        <ele>107</ele>
        <time>2024-04-07T05:51:12Z</time>
      </trkpt>
      <trkpt lat="49.18699" lon="-0.22466">
        <ele>107</ele>
        <time>2024-04-07T05:51:13Z</time>
      </trkpt>
      <trkpt lat="49.18693" lon="-0.22462">
        <ele>107.2</ele>
        <time>2024-04-07T05:51:14Z</time>
      </trkpt>
      <trkpt lat="49.18686" lon="-0.22457">
        <ele>107.2</ele>
        <time>2024-04-07T05:51:15Z</time>
      </trkpt>
      <trkpt lat="49.18679" lon="-0.22454">
        <ele>107.2</ele>
        <time>2024-04-07T05:51:16Z</time>
      </trkpt>
      <trkpt lat="49.18673" lon="-0.2245">
        <ele>107.2</ele>
        <time>2024-04-07T05:51:17Z</time>
      </trkpt>
      <trkpt lat="49.18666" lon="-0.22447">
        <ele>107.2</ele>
        <time>2024-04-07T05:51:18Z</time>
      </trkpt>
      <trkpt lat="49.18659" lon="-0.22444">
        <ele>107</ele>
        <time>2024-04-07T05:51:19Z</time>
      </trkpt>
      <trkpt lat="49.18652" lon="-0.22441">
        <ele>107</ele>
        <time>2024-04-07T05:51:20Z</time>
      </trkpt>
      <trkpt lat="49.18645" lon="-0.22438">
        <ele>107</ele>
        <time>2024-04-07T05:51:21Z</time>
      </trkpt>
      <trkpt lat="49.18638" lon="-0.22435">
        <ele>107</ele>
        <time>2024-04-07T05:51:22Z</time>
      </trkpt>
      <trkpt lat="49.18631" lon="-0.22432">
        <ele>107</ele>
        <time>2024-04-07T05:51:23Z</time>
      </trkpt>
      <trkpt lat="49.18624" lon="-0.2243">
        <ele>107</ele>
        <time>2024-04-07T05:51:24Z</time>
      </trkpt>
      <trkpt lat="49.18618" lon="-0.22427">
        <ele>107</ele>
        <time>2024-04-07T05:51:25Z</time>
      </trkpt>
      <trkpt lat="49.18611" lon="-0.22425">
        <ele>107</ele>
        <time>2024-04-07T05:51:26Z</time>
      </trkpt>
      <trkpt lat="49.18604" lon="-0.22423">
        <ele>107</ele>
        <time>2024-04-07T05:51:27Z</time>
      </trkpt>
      <trkpt lat="49.18597" lon="-0.2242">
        <ele>107.2</ele>
        <time>2024-04-07T05:51:28Z</time>
      </trkpt>
      <trkpt lat="49.18591" lon="-0.22417">
        <ele>107.2</ele>
        <time>2024-04-07T05:51:29Z</time>
      </trkpt>
      <trkpt lat="49.18584" lon="-0.22414">
        <ele>107.2</ele>
        <time>2024-04-07T05:51:30Z</time>
      </trkpt>
      <trkpt lat="49.18577" lon="-0.22411">
        <ele>107.2</ele>
        <time>2024-04-07T05:51:31Z</time>
      </trkpt>
      <trkpt lat="49.18571" lon="-0.22408">
        <ele>107.2</ele>
        <time>2024-04-07T05:51:32Z</time>
      </trkpt>
      <trkpt lat="49.18565" lon="-0.22405">
        <ele>107.2</ele>
        <time>2024-04-07T05:51:33Z</time>
      </trkpt>
      <trkpt lat="49.18558" lon="-0.22401">
        <ele>107.4</ele>
        <time>2024-04-07T05:51:34Z</time>
      </trkpt>
      <trkpt lat="49.18552" lon="-0.22398">
        <ele>107.4</ele>
        <time>2024-04-07T05:51:35Z</time>
      </trkpt>
      <trkpt lat="49.18546" lon="-0.22394">
        <ele>107.4</ele>
        <time>2024-04-07T05:51:36Z</time>
      </trkpt>
      <trkpt lat="49.1854" lon="-0.22391">
        <ele>107.4</ele>
        <time>2024-04-07T05:51:37Z</time>
      </trkpt>
      <trkpt lat="49.18533" lon="-0.22387">
        <ele>107.6</ele>
        <time>2024-04-07T05:51:38Z</time>
      </trkpt>
      <trkpt lat="49.18527" lon="-0.22384">
        <ele>107.6</ele>
        <time>2024-04-07T05:51:39Z</time>
      </trkpt>
      <trkpt lat="49.18521" lon="-0.2238">
        <ele>107.8</ele>
        <time>2024-04-07T05:51:40Z</time>
      </trkpt>
      <trkpt lat="49.18515" lon="-0.22377">
        <ele>107.8</ele>
        <time>2024-04-07T05:51:41Z</time>
      </trkpt>
      <trkpt lat="49.18508" lon="-0.22374">
        <ele>107.8</ele>
        <time>2024-04-07T05:51:42Z</time>
      </trkpt>
      <trkpt lat="49.18502" lon="-0.22372">
        <ele>107.8</ele>
        <time>2024-04-07T05:51:43Z</time>
      </trkpt>
      <trkpt lat="49.18495" lon="-0.2237">
        <ele>107.8</ele>
        <time>2024-04-07T05:51:44Z</time>
      </trkpt>
      <trkpt lat="49.18488" lon="-0.22368">
        <ele>107.8</ele>
        <time>2024-04-07T05:51:45Z</time>
      </trkpt>
      <trkpt lat="49.18481" lon="-0.22367">
        <ele>107.8</ele>
        <time>2024-04-07T05:51:46Z</time>
      </trkpt>
      <trkpt lat="49.18474" lon="-0.22367">
        <ele>108</ele>
        <time>2024-04-07T05:51:47Z</time>
      </trkpt>
      <trkpt lat="49.18467" lon="-0.22367">
        <ele>108.2</ele>
        <time>2024-04-07T05:51:48Z</time>
      </trkpt>
      <trkpt lat="49.18461" lon="-0.22367">
        <ele>108.2</ele>
        <time>2024-04-07T05:51:49Z</time>
      </trkpt>
      <trkpt lat="49.18454" lon="-0.22367">
        <ele>108.4</ele>
        <time>2024-04-07T05:51:50Z</time>
      </trkpt>
      <trkpt lat="49.18447" lon="-0.22367">
        <ele>108.4</ele>
        <time>2024-04-07T05:51:51Z</time>
      </trkpt>
      <trkpt lat="49.1844" lon="-0.22368">
        <ele>108.4</ele>
        <time>2024-04-07T05:51:52Z</time>
      </trkpt>
      <trkpt lat="49.18433" lon="-0.22368">
        <ele>108.6</ele>
        <time>2024-04-07T05:51:53Z</time>
      </trkpt>
      <trkpt lat="49.18426" lon="-0.22368">
        <ele>108.6</ele>
        <time>2024-04-07T05:51:54Z</time>
      </trkpt>
      <trkpt lat="49.18419" lon="-0.22368">
        <ele>108.4</ele>
        <time>2024-04-07T05:51:55Z</time>
      </trkpt>
      <trkpt lat="49.18413" lon="-0.22367">
        <ele>108</ele>
        <time>2024-04-07T05:51:56Z</time>
      </trkpt>
      <trkpt lat="49.18406" lon="-0.22367">
        <ele>107.6</ele>
        <time>2024-04-07T05:51:57Z</time>
      </trkpt>
      <trkpt lat="49.18399" lon="-0.22367">
        <ele>107.4</ele>
        <time>2024-04-07T05:51:58Z</time>
      </trkpt>
      <trkpt lat="49.18392" lon="-0.22367">
        <ele>107.4</ele>
        <time>2024-04-07T05:51:59Z</time>
      </trkpt>
      <trkpt lat="49.18385" lon="-0.22367">
        <ele>107.2</ele>
        <time>2024-04-07T05:52:00Z</time>
      </trkpt>
      <trkpt lat="49.18371" lon="-0.22367">
        <ele>107.2</ele>
        <time>2024-04-07T05:52:01Z</time>
      </trkpt>
      <trkpt lat="49.18368" lon="-0.22368">
        <ele>107.2</ele>
        <time>2024-04-07T05:52:02Z</time>
      </trkpt>
      <trkpt lat="49.18364" lon="-0.22368">
        <ele>107.2</ele>
        <time>2024-04-07T05:52:03Z</time>
      </trkpt>
      <trkpt lat="49.18358" lon="-0.22368">
        <ele>107.2</ele>
        <time>2024-04-07T05:52:04Z</time>
      </trkpt>
      <trkpt lat="49.18351" lon="-0.22367">
        <ele>107.4</ele>
        <time>2024-04-07T05:52:05Z</time>
      </trkpt>
      <trkpt lat="49.18345" lon="-0.22367">
        <ele>108.4</ele>
        <time>2024-04-07T05:52:06Z</time>
      </trkpt>
      <trkpt lat="49.18339" lon="-0.22367">
        <ele>108.8</ele>
        <time>2024-04-07T05:52:07Z</time>
      </trkpt>
      <trkpt lat="49.18333" lon="-0.22366">
        <ele>109.4</ele>
        <time>2024-04-07T05:52:08Z</time>
      </trkpt>
      <trkpt lat="49.18326" lon="-0.22365">
        <ele>109.4</ele>
        <time>2024-04-07T05:52:09Z</time>
      </trkpt>
      <trkpt lat="49.1832" lon="-0.22363">
        <ele>109.4</ele>
        <time>2024-04-07T05:52:10Z</time>
      </trkpt>
      <trkpt lat="49.18314" lon="-0.22362">
        <ele>109.4</ele>
        <time>2024-04-07T05:52:11Z</time>
      </trkpt>
      <trkpt lat="49.18308" lon="-0.2236">
        <ele>109.4</ele>
        <time>2024-04-07T05:52:12Z</time>
      </trkpt>
      <trkpt lat="49.18303" lon="-0.2236">
        <ele>109.2</ele>
        <time>2024-04-07T05:52:13Z</time>
      </trkpt>
      <trkpt lat="49.18297" lon="-0.2236">
        <ele>109.2</ele>
        <time>2024-04-07T05:52:14Z</time>
      </trkpt>
      <trkpt lat="49.18291" lon="-0.2236">
        <ele>109</ele>
        <time>2024-04-07T05:52:15Z</time>
      </trkpt>
      <trkpt lat="49.18286" lon="-0.22359">
        <ele>109</ele>
        <time>2024-04-07T05:52:16Z</time>
      </trkpt>
      <trkpt lat="49.18281" lon="-0.22355">
        <ele>109</ele>
        <time>2024-04-07T05:52:17Z</time>
      </trkpt>
      <trkpt lat="49.18277" lon="-0.22349">
        <ele>109.2</ele>
        <time>2024-04-07T05:52:18Z</time>
      </trkpt>
      <trkpt lat="49.18274" lon="-0.22341">
        <ele>109.4</ele>
        <time>2024-04-07T05:52:19Z</time>
      </trkpt>
      <trkpt lat="49.18271" lon="-0.22331">
        <ele>109.4</ele>
        <time>2024-04-07T05:52:20Z</time>
      </trkpt>
      <trkpt lat="49.18269" lon="-0.22322">
        <ele>109.6</ele>
        <time>2024-04-07T05:52:21Z</time>
      </trkpt>
      <trkpt lat="49.18265" lon="-0.22314">
        <ele>109.8</ele>
        <time>2024-04-07T05:52:22Z</time>
      </trkpt>
      <trkpt lat="49.18261" lon="-0.22307">
        <ele>110</ele>
        <time>2024-04-07T05:52:23Z</time>
      </trkpt>
      <trkpt lat="49.18257" lon="-0.223">
        <ele>110</ele>
        <time>2024-04-07T05:52:24Z</time>
      </trkpt>
      <trkpt lat="49.18251" lon="-0.22294">
        <ele>110</ele>
        <time>2024-04-07T05:52:25Z</time>
      </trkpt>
      <trkpt lat="49.18246" lon="-0.22288">
        <ele>109.8</ele>
        <time>2024-04-07T05:52:26Z</time>
      </trkpt>
      <trkpt lat="49.1824" lon="-0.22284">
        <ele>110</ele>
        <time>2024-04-07T05:52:27Z</time>
      </trkpt>
      <trkpt lat="49.18235" lon="-0.22279">
        <ele>110</ele>
        <time>2024-04-07T05:52:28Z</time>
      </trkpt>
      <trkpt lat="49.18229" lon="-0.22274">
        <ele>110.2</ele>
        <time>2024-04-07T05:52:29Z</time>
      </trkpt>
      <trkpt lat="49.18224" lon="-0.22269">
        <ele>110.4</ele>
        <time>2024-04-07T05:52:30Z</time>
      </trkpt>
      <trkpt lat="49.18218" lon="-0.22265">
        <ele>110.4</ele>
        <time>2024-04-07T05:52:31Z</time>
      </trkpt>
      <trkpt lat="49.18213" lon="-0.2226">
        <ele>110.4</ele>
        <time>2024-04-07T05:52:32Z</time>
      </trkpt>
      <trkpt lat="49.18207" lon="-0.22255">
        <ele>110.4</ele>
        <time>2024-04-07T05:52:33Z</time>
      </trkpt>
      <trkpt lat="49.18201" lon="-0.22251">
        <ele>110.2</ele>
        <time>2024-04-07T05:52:34Z</time>
      </trkpt>
      <trkpt lat="49.18195" lon="-0.22246">
        <ele>110</ele>
        <time>2024-04-07T05:52:35Z</time>
      </trkpt>
      <trkpt lat="49.18189" lon="-0.22242">
        <ele>110</ele>
        <time>2024-04-07T05:52:36Z</time>
      </trkpt>
      <trkpt lat="49.18183" lon="-0.22238">
        <ele>109.8</ele>
        <time>2024-04-07T05:52:37Z</time>
      </trkpt>
      <trkpt lat="49.18177" lon="-0.22234">
        <ele>109.8</ele>
        <time>2024-04-07T05:52:38Z</time>
      </trkpt>
      <trkpt lat="49.18171" lon="-0.22231">
        <ele>109.8</ele>
        <time>2024-04-07T05:52:39Z</time>
      </trkpt>
      <trkpt lat="49.18164" lon="-0.22227">
        <ele>109.8</ele>
        <time>2024-04-07T05:52:40Z</time>
      </trkpt>
      <trkpt lat="49.18158" lon="-0.22224">
        <ele>109.8</ele>
        <time>2024-04-07T05:52:41Z</time>
      </trkpt>
      <trkpt lat="49.18151" lon="-0.22221">
        <ele>109.8</ele>
        <time>2024-04-07T05:52:42Z</time>
      </trkpt>
      <trkpt lat="49.18145" lon="-0.22218">
        <ele>109.8</ele>
        <time>2024-04-07T05:52:43Z</time>
      </trkpt>
      <trkpt lat="49.18139" lon="-0.22215">
        <ele>110</ele>
        <time>2024-04-07T05:52:44Z</time>
      </trkpt>
      <trkpt lat="49.18132" lon="-0.22213">
        <ele>110</ele>
        <time>2024-04-07T05:52:45Z</time>
      </trkpt>
      <trkpt lat="49.18125" lon="-0.22211">
        <ele>110.2</ele>
        <time>2024-04-07T05:52:46Z</time>
      </trkpt>
      <trkpt lat="49.18119" lon="-0.2221">
        <ele>110.2</ele>
        <time>2024-04-07T05:52:47Z</time>
      </trkpt>
      <trkpt lat="49.18112" lon="-0.22209">
        <ele>110.2</ele>
        <time>2024-04-07T05:52:48Z</time>
      </trkpt>
      <trkpt lat="49.18106" lon="-0.22208">
        <ele>110.4</ele>
        <time>2024-04-07T05:52:49Z</time>
      </trkpt>
      <trkpt lat="49.18099" lon="-0.22208">
        <ele>110.4</ele>
        <time>2024-04-07T05:52:50Z</time>
      </trkpt>
      <trkpt lat="49.18093" lon="-0.22207">
        <ele>110.2</ele>
        <time>2024-04-07T05:52:51Z</time>
      </trkpt>
      <trkpt lat="49.18086" lon="-0.22207">
        <ele>110.4</ele>
        <time>2024-04-07T05:52:52Z</time>
      </trkpt>
      <trkpt lat="49.1808" lon="-0.22208">
        <ele>110.4</ele>
        <time>2024-04-07T05:52:53Z</time>
      </trkpt>
      <trkpt lat="49.18073" lon="-0.22208">
        <ele>110.4</ele>
        <time>2024-04-07T05:52:54Z</time>
      </trkpt>
      <trkpt lat="49.18067" lon="-0.22209">
        <ele>110.4</ele>
        <time>2024-04-07T05:52:55Z</time>
      </trkpt>
      <trkpt lat="49.1806" lon="-0.22209">
        <ele>110.2</ele>
        <time>2024-04-07T05:52:56Z</time>
      </trkpt>
      <trkpt lat="49.18054" lon="-0.2221">
        <ele>110.2</ele>
        <time>2024-04-07T05:52:57Z</time>
      </trkpt>
      <trkpt lat="49.18047" lon="-0.2221">
        <ele>110.2</ele>
        <time>2024-04-07T05:52:58Z</time>
      </trkpt>
      <trkpt lat="49.18041" lon="-0.22209">
        <ele>110</ele>
        <time>2024-04-07T05:52:59Z</time>
      </trkpt>
      <trkpt lat="49.18035" lon="-0.2221">
        <ele>110</ele>
        <time>2024-04-07T05:53:00Z</time>
      </trkpt>
      <trkpt lat="49.18029" lon="-0.2221">
        <ele>110</ele>
        <time>2024-04-07T05:53:01Z</time>
      </trkpt>
      <trkpt lat="49.18023" lon="-0.2221">
        <ele>110</ele>
        <time>2024-04-07T05:53:02Z</time>
      </trkpt>
      <trkpt lat="49.18016" lon="-0.2221">
        <ele>110.4</ele>
        <time>2024-04-07T05:53:03Z</time>
      </trkpt>
      <trkpt lat="49.1801" lon="-0.22211">
        <ele>110.4</ele>
        <time>2024-04-07T05:53:04Z</time>
      </trkpt>
      <trkpt lat="49.18004" lon="-0.22211">
        <ele>110.6</ele>
        <time>2024-04-07T05:53:05Z</time>
      </trkpt>
      <trkpt lat="49.17997" lon="-0.22211">
        <ele>110.8</ele>
        <time>2024-04-07T05:53:06Z</time>
      </trkpt>
      <trkpt lat="49.1799" lon="-0.22211">
        <ele>110.8</ele>
        <time>2024-04-07T05:53:07Z</time>
      </trkpt>
      <trkpt lat="49.17984" lon="-0.22212">
        <ele>110.6</ele>
        <time>2024-04-07T05:53:08Z</time>
      </trkpt>
      <trkpt lat="49.17977" lon="-0.22212">
        <ele>110.4</ele>
        <time>2024-04-07T05:53:09Z</time>
      </trkpt>
      <trkpt lat="49.1797" lon="-0.22213">
        <ele>110.2</ele>
        <time>2024-04-07T05:53:10Z</time>
      </trkpt>
      <trkpt lat="49.17963" lon="-0.22214">
        <ele>109.8</ele>
        <time>2024-04-07T05:53:11Z</time>
      </trkpt>
      <trkpt lat="49.17957" lon="-0.22214">
        <ele>109.6</ele>
        <time>2024-04-07T05:53:12Z</time>
      </trkpt>
      <trkpt lat="49.1795" lon="-0.22214">
        <ele>109.4</ele>
        <time>2024-04-07T05:53:13Z</time>
      </trkpt>
      <trkpt lat="49.17944" lon="-0.22215">
        <ele>109.2</ele>
        <time>2024-04-07T05:53:14Z</time>
      </trkpt>
      <trkpt lat="49.17938" lon="-0.22214">
        <ele>109</ele>
        <time>2024-04-07T05:53:15Z</time>
      </trkpt>
      <trkpt lat="49.17931" lon="-0.22215">
        <ele>109</ele>
        <time>2024-04-07T05:53:16Z</time>
      </trkpt>
      <trkpt lat="49.17925" lon="-0.22215">
        <ele>109.2</ele>
        <time>2024-04-07T05:53:17Z</time>
      </trkpt>
      <trkpt lat="49.17918" lon="-0.22215">
        <ele>109.2</ele>
        <time>2024-04-07T05:53:18Z</time>
      </trkpt>
      <trkpt lat="49.17912" lon="-0.22215">
        <ele>109.4</ele>
        <time>2024-04-07T05:53:19Z</time>
      </trkpt>
      <trkpt lat="49.17906" lon="-0.22216">
        <ele>109.4</ele>
        <time>2024-04-07T05:53:20Z</time>
      </trkpt>
      <trkpt lat="49.17899" lon="-0.22216">
        <ele>109.4</ele>
        <time>2024-04-07T05:53:21Z</time>
      </trkpt>
      <trkpt lat="49.17892" lon="-0.22217">
        <ele>109.4</ele>
        <time>2024-04-07T05:53:22Z</time>
      </trkpt>
      <trkpt lat="49.17885" lon="-0.22217">
        <ele>109.2</ele>
        <time>2024-04-07T05:53:23Z</time>
      </trkpt>
      <trkpt lat="49.17878" lon="-0.22218">
        <ele>109</ele>
        <time>2024-04-07T05:53:24Z</time>
      </trkpt>
      <trkpt lat="49.17872" lon="-0.22218">
        <ele>109</ele>
        <time>2024-04-07T05:53:25Z</time>
      </trkpt>
      <trkpt lat="49.17865" lon="-0.22218">
        <ele>109</ele>
        <time>2024-04-07T05:53:26Z</time>
      </trkpt>
      <trkpt lat="49.17858" lon="-0.22217">
        <ele>108.8</ele>
        <time>2024-04-07T05:53:27Z</time>
      </trkpt>
      <trkpt lat="49.17852" lon="-0.22217">
        <ele>108.8</ele>
        <time>2024-04-07T05:53:28Z</time>
      </trkpt>
      <trkpt lat="49.17845" lon="-0.22216">
        <ele>108.8</ele>
        <time>2024-04-07T05:53:29Z</time>
      </trkpt>
      <trkpt lat="49.17838" lon="-0.22215">
        <ele>108.6</ele>
        <time>2024-04-07T05:53:30Z</time>
      </trkpt>
      <trkpt lat="49.17832" lon="-0.22214">
        <ele>108.4</ele>
        <time>2024-04-07T05:53:31Z</time>
      </trkpt>
      <trkpt lat="49.17825" lon="-0.22213">
        <ele>108</ele>
        <time>2024-04-07T05:53:32Z</time>
      </trkpt>
      <trkpt lat="49.17819" lon="-0.22212">
        <ele>107.6</ele>
        <time>2024-04-07T05:53:33Z</time>
      </trkpt>
      <trkpt lat="49.17813" lon="-0.2221">
        <ele>107.4</ele>
        <time>2024-04-07T05:53:34Z</time>
      </trkpt>
      <trkpt lat="49.17806" lon="-0.22208">
        <ele>107.2</ele>
        <time>2024-04-07T05:53:35Z</time>
      </trkpt>
      <trkpt lat="49.178" lon="-0.22207">
        <ele>107.2</ele>
        <time>2024-04-07T05:53:36Z</time>
      </trkpt>
      <trkpt lat="49.17794" lon="-0.22207">
        <ele>107</ele>
        <time>2024-04-07T05:53:37Z</time>
      </trkpt>
      <trkpt lat="49.17788" lon="-0.22207">
        <ele>106.6</ele>
        <time>2024-04-07T05:53:38Z</time>
      </trkpt>
      <trkpt lat="49.17783" lon="-0.22209">
        <ele>106.6</ele>
        <time>2024-04-07T05:53:39Z</time>
      </trkpt>
      <trkpt lat="49.17777" lon="-0.2221">
        <ele>106.6</ele>
        <time>2024-04-07T05:53:40Z</time>
      </trkpt>
      <trkpt lat="49.17771" lon="-0.2221">
        <ele>106.6</ele>
        <time>2024-04-07T05:53:41Z</time>
      </trkpt>
      <trkpt lat="49.17766" lon="-0.22207">
        <ele>106.6</ele>
        <time>2024-04-07T05:53:42Z</time>
      </trkpt>
      <trkpt lat="49.17764" lon="-0.22201">
        <ele>106.8</ele>
        <time>2024-04-07T05:53:43Z</time>
      </trkpt>
      <trkpt lat="49.17764" lon="-0.22193">
        <ele>107</ele>
        <time>2024-04-07T05:53:44Z</time>
      </trkpt>
      <trkpt lat="49.17767" lon="-0.22185">
        <ele>107</ele>
        <time>2024-04-07T05:53:45Z</time>
      </trkpt>
      <trkpt lat="49.1777" lon="-0.22177">
        <ele>107.2</ele>
        <time>2024-04-07T05:53:46Z</time>
      </trkpt>
      <trkpt lat="49.17773" lon="-0.22168">
        <ele>107.2</ele>
        <time>2024-04-07T05:53:47Z</time>
      </trkpt>
      <trkpt lat="49.17776" lon="-0.22159">
        <ele>107</ele>
        <time>2024-04-07T05:53:48Z</time>
      </trkpt>
      <trkpt lat="49.17778" lon="-0.22149">
        <ele>107</ele>
        <time>2024-04-07T05:53:49Z</time>
      </trkpt>
      <trkpt lat="49.1778" lon="-0.22139">
        <ele>106.8</ele>
        <time>2024-04-07T05:53:50Z</time>
      </trkpt>
      <trkpt lat="49.17781" lon="-0.22129">
        <ele>106.6</ele>
        <time>2024-04-07T05:53:51Z</time>
      </trkpt>
      <trkpt lat="49.17783" lon="-0.22119">
        <ele>106.6</ele>
        <time>2024-04-07T05:53:52Z</time>
      </trkpt>
      <trkpt lat="49.17784" lon="-0.22109">
        <ele>106.6</ele>
        <time>2024-04-07T05:53:53Z</time>
      </trkpt>
      <trkpt lat="49.17785" lon="-0.221">
        <ele>106.6</ele>
        <time>2024-04-07T05:53:54Z</time>
      </trkpt>
      <trkpt lat="49.17786" lon="-0.2209">
        <ele>106.6</ele>
        <time>2024-04-07T05:53:55Z</time>
      </trkpt>
      <trkpt lat="49.17786" lon="-0.22081">
        <ele>106.6</ele>
        <time>2024-04-07T05:53:56Z</time>
      </trkpt>
      <trkpt lat="49.17783" lon="-0.22073">
        <ele>106.4</ele>
        <time>2024-04-07T05:53:57Z</time>
      </trkpt>
      <trkpt lat="49.17779" lon="-0.22067">
        <ele>106.4</ele>
        <time>2024-04-07T05:53:58Z</time>
      </trkpt>
      <trkpt lat="49.17772" lon="-0.22064">
        <ele>106</ele>
        <time>2024-04-07T05:53:59Z</time>
      </trkpt>
      <trkpt lat="49.17765" lon="-0.22063">
        <ele>105.8</ele>
        <time>2024-04-07T05:54:00Z</time>
      </trkpt>
      <trkpt lat="49.17758" lon="-0.22064">
        <ele>105.4</ele>
        <time>2024-04-07T05:54:01Z</time>
      </trkpt>
      <trkpt lat="49.17751" lon="-0.22064">
        <ele>105</ele>
        <time>2024-04-07T05:54:02Z</time>
      </trkpt>
      <trkpt lat="49.17744" lon="-0.22065">
        <ele>104.8</ele>
        <time>2024-04-07T05:54:03Z</time>
      </trkpt>
      <trkpt lat="49.17736" lon="-0.22065">
        <ele>104.8</ele>
        <time>2024-04-07T05:54:04Z</time>
      </trkpt>
      <trkpt lat="49.17729" lon="-0.22065">
        <ele>104.8</ele>
        <time>2024-04-07T05:54:05Z</time>
      </trkpt>
      <trkpt lat="49.17722" lon="-0.22065">
        <ele>104.8</ele>
        <time>2024-04-07T05:54:06Z</time>
      </trkpt>
      <trkpt lat="49.17715" lon="-0.22065">
        <ele>104.8</ele>
        <time>2024-04-07T05:54:07Z</time>
      </trkpt>
      <trkpt lat="49.17708" lon="-0.22065">
        <ele>104.8</ele>
        <time>2024-04-07T05:54:08Z</time>
      </trkpt>
      <trkpt lat="49.17701" lon="-0.22066">
        <ele>105</ele>
        <time>2024-04-07T05:54:09Z</time>
      </trkpt>
      <trkpt lat="49.17694" lon="-0.22068">
        <ele>105</ele>
        <time>2024-04-07T05:54:10Z</time>
      </trkpt>
      <trkpt lat="49.17688" lon="-0.22069">
        <ele>105.2</ele>
        <time>2024-04-07T05:54:11Z</time>
      </trkpt>
      <trkpt lat="49.17681" lon="-0.22071">
        <ele>105.4</ele>
        <time>2024-04-07T05:54:12Z</time>
      </trkpt>
      <trkpt lat="49.17675" lon="-0.22073">
        <ele>105.6</ele>
        <time>2024-04-07T05:54:13Z</time>
      </trkpt>
      <trkpt lat="49.17668" lon="-0.22075">
        <ele>105.8</ele>
        <time>2024-04-07T05:54:14Z</time>
      </trkpt>
      <trkpt lat="49.17662" lon="-0.22077">
        <ele>105.8</ele>
        <time>2024-04-07T05:54:15Z</time>
      </trkpt>
      <trkpt lat="49.17655" lon="-0.22078">
        <ele>106</ele>
        <time>2024-04-07T05:54:16Z</time>
      </trkpt>
      <trkpt lat="49.17648" lon="-0.2208">
        <ele>106</ele>
        <time>2024-04-07T05:54:17Z</time>
      </trkpt>
      <trkpt lat="49.17641" lon="-0.2208">
        <ele>105.8</ele>
        <time>2024-04-07T05:54:18Z</time>
      </trkpt>
      <trkpt lat="49.17635" lon="-0.2208">
        <ele>105.8</ele>
        <time>2024-04-07T05:54:19Z</time>
      </trkpt>
      <trkpt lat="49.17628" lon="-0.2208">
        <ele>106</ele>
        <time>2024-04-07T05:54:20Z</time>
      </trkpt>
      <trkpt lat="49.17621" lon="-0.22079">
        <ele>106</ele>
        <time>2024-04-07T05:54:21Z</time>
      </trkpt>
      <trkpt lat="49.17615" lon="-0.22077">
        <ele>106</ele>
        <time>2024-04-07T05:54:22Z</time>
      </trkpt>
      <trkpt lat="49.17608" lon="-0.22075">
        <ele>106</ele>
        <time>2024-04-07T05:54:23Z</time>
      </trkpt>
      <trkpt lat="49.17602" lon="-0.22072">
        <ele>106</ele>
        <time>2024-04-07T05:54:24Z</time>
      </trkpt>
      <trkpt lat="49.17595" lon="-0.22069">
        <ele>106</ele>
        <time>2024-04-07T05:54:25Z</time>
      </trkpt>
      <trkpt lat="49.17589" lon="-0.22066">
        <ele>106</ele>
        <time>2024-04-07T05:54:26Z</time>
      </trkpt>
      <trkpt lat="49.17582" lon="-0.22064">
        <ele>106</ele>
        <time>2024-04-07T05:54:27Z</time>
      </trkpt>
      <trkpt lat="49.17576" lon="-0.22061">
        <ele>106</ele>
        <time>2024-04-07T05:54:28Z</time>
      </trkpt>
      <trkpt lat="49.17569" lon="-0.22058">
        <ele>105.8</ele>
        <time>2024-04-07T05:54:29Z</time>
      </trkpt>
      <trkpt lat="49.17563" lon="-0.22054">
        <ele>105.6</ele>
        <time>2024-04-07T05:54:30Z</time>
      </trkpt>
      <trkpt lat="49.17556" lon="-0.22051">
        <ele>105.4</ele>
        <time>2024-04-07T05:54:31Z</time>
      </trkpt>
      <trkpt lat="49.1755" lon="-0.22049">
        <ele>105.2</ele>
        <time>2024-04-07T05:54:32Z</time>
      </trkpt>
      <trkpt lat="49.17543" lon="-0.22048">
        <ele>105.2</ele>
        <time>2024-04-07T05:54:33Z</time>
      </trkpt>
      <trkpt lat="49.17538" lon="-0.22048">
        <ele>105</ele>
        <time>2024-04-07T05:54:34Z</time>
      </trkpt>
      <trkpt lat="49.17533" lon="-0.22051">
        <ele>104.8</ele>
        <time>2024-04-07T05:54:35Z</time>
      </trkpt>
      <trkpt lat="49.17529" lon="-0.22056">
        <ele>104.6</ele>
        <time>2024-04-07T05:54:36Z</time>
      </trkpt>
      <trkpt lat="49.17527" lon="-0.22065">
        <ele>104.6</ele>
        <time>2024-04-07T05:54:37Z</time>
      </trkpt>
      <trkpt lat="49.17526" lon="-0.22074">
        <ele>104.6</ele>
        <time>2024-04-07T05:54:38Z</time>
      </trkpt>
      <trkpt lat="49.17525" lon="-0.22084">
        <ele>104.6</ele>
        <time>2024-04-07T05:54:39Z</time>
      </trkpt>
      <trkpt lat="49.17524" lon="-0.22093">
        <ele>105</ele>
        <time>2024-04-07T05:54:40Z</time>
      </trkpt>
      <trkpt lat="49.17523" lon="-0.22102">
        <ele>105.2</ele>
        <time>2024-04-07T05:54:41Z</time>
      </trkpt>
      <trkpt lat="49.17522" lon="-0.22111">
        <ele>105.6</ele>
        <time>2024-04-07T05:54:42Z</time>
      </trkpt>
      <trkpt lat="49.1752" lon="-0.2212">
        <ele>105.8</ele>
        <time>2024-04-07T05:54:43Z</time>
      </trkpt>
      <trkpt lat="49.17517" lon="-0.22128">
        <ele>106</ele>
        <time>2024-04-07T05:54:44Z</time>
      </trkpt>
      <trkpt lat="49.17513" lon="-0.22135">
        <ele>106</ele>
        <time>2024-04-07T05:54:45Z</time>
      </trkpt>
      <trkpt lat="49.17509" lon="-0.22142">
        <ele>106.2</ele>
        <time>2024-04-07T05:54:46Z</time>
      </trkpt>
      <trkpt lat="49.17505" lon="-0.22147">
        <ele>106.2</ele>
        <time>2024-04-07T05:54:47Z</time>
      </trkpt>
      <trkpt lat="49.175" lon="-0.22151">
        <ele>106.4</ele>
        <time>2024-04-07T05:54:48Z</time>
      </trkpt>
      <trkpt lat="49.17494" lon="-0.22154">
        <ele>106.4</ele>
        <time>2024-04-07T05:54:49Z</time>
      </trkpt>
      <trkpt lat="49.17488" lon="-0.22157">
        <ele>106.6</ele>
        <time>2024-04-07T05:54:50Z</time>
      </trkpt>
      <trkpt lat="49.17482" lon="-0.22158">
        <ele>106.8</ele>
        <time>2024-04-07T05:54:51Z</time>
      </trkpt>
      <trkpt lat="49.17475" lon="-0.22158">
        <ele>107</ele>
        <time>2024-04-07T05:54:52Z</time>
      </trkpt>
      <trkpt lat="49.17468" lon="-0.22156">
        <ele>107.2</ele>
        <time>2024-04-07T05:54:53Z</time>
      </trkpt>
      <trkpt lat="49.17461" lon="-0.22154">
        <ele>107.2</ele>
        <time>2024-04-07T05:54:54Z</time>
      </trkpt>
      <trkpt lat="49.17454" lon="-0.22151">
        <ele>107.2</ele>
        <time>2024-04-07T05:54:55Z</time>
      </trkpt>
      <trkpt lat="49.17447" lon="-0.22149">
        <ele>107.2</ele>
        <time>2024-04-07T05:54:56Z</time>
      </trkpt>
      <trkpt lat="49.1744" lon="-0.22147">
        <ele>107.2</ele>
        <time>2024-04-07T05:54:57Z</time>
      </trkpt>
      <trkpt lat="49.17432" lon="-0.22144">
        <ele>107.4</ele>
        <time>2024-04-07T05:54:58Z</time>
      </trkpt>
      <trkpt lat="49.17425" lon="-0.22141">
        <ele>107.4</ele>
        <time>2024-04-07T05:54:59Z</time>
      </trkpt>
      <trkpt lat="49.17418" lon="-0.22139">
        <ele>107.6</ele>
        <time>2024-04-07T05:55:00Z</time>
      </trkpt>
      <trkpt lat="49.17411" lon="-0.22136">
        <ele>107.8</ele>
        <time>2024-04-07T05:55:01Z</time>
      </trkpt>
      <trkpt lat="49.17404" lon="-0.22134">
        <ele>108</ele>
        <time>2024-04-07T05:55:02Z</time>
      </trkpt>
      <trkpt lat="49.17397" lon="-0.22132">
        <ele>108.2</ele>
        <time>2024-04-07T05:55:03Z</time>
      </trkpt>
      <trkpt lat="49.1739" lon="-0.22131">
        <ele>108.2</ele>
        <time>2024-04-07T05:55:04Z</time>
      </trkpt>
      <trkpt lat="49.17382" lon="-0.22129">
        <ele>108.2</ele>
        <time>2024-04-07T05:55:05Z</time>
      </trkpt>
      <trkpt lat="49.17375" lon="-0.22127">
        <ele>108.2</ele>
        <time>2024-04-07T05:55:06Z</time>
      </trkpt>
      <trkpt lat="49.17369" lon="-0.22125">
        <ele>108.2</ele>
        <time>2024-04-07T05:55:07Z</time>
      </trkpt>
      <trkpt lat="49.17362" lon="-0.22122">
        <ele>108.2</ele>
        <time>2024-04-07T05:55:08Z</time>
      </trkpt>
      <trkpt lat="49.17355" lon="-0.22119">
        <ele>108.2</ele>
        <time>2024-04-07T05:55:09Z</time>
      </trkpt>
      <trkpt lat="49.17347" lon="-0.22117">
        <ele>108.2</ele>
        <time>2024-04-07T05:55:10Z</time>
      </trkpt>
      <trkpt lat="49.17341" lon="-0.22115">
        <ele>108.4</ele>
        <time>2024-04-07T05:55:11Z</time>
      </trkpt>
      <trkpt lat="49.17335" lon="-0.22113">
        <ele>108.4</ele>
        <time>2024-04-07T05:55:12Z</time>
      </trkpt>
      <trkpt lat="49.17329" lon="-0.22111">
        <ele>108.4</ele>
        <time>2024-04-07T05:55:13Z</time>
      </trkpt>
      <trkpt lat="49.17323" lon="-0.22109">
        <ele>108.4</ele>
        <time>2024-04-07T05:55:14Z</time>
      </trkpt>
      <trkpt lat="49.17316" lon="-0.22107">
        <ele>108.4</ele>
        <time>2024-04-07T05:55:15Z</time>
      </trkpt>
      <trkpt lat="49.17309" lon="-0.22105">
        <ele>108.4</ele>
        <time>2024-04-07T05:55:16Z</time>
      </trkpt>
      <trkpt lat="49.17302" lon="-0.22103">
        <ele>108.4</ele>
        <time>2024-04-07T05:55:17Z</time>
      </trkpt>
      <trkpt lat="49.17295" lon="-0.221">
        <ele>108.4</ele>
        <time>2024-04-07T05:55:18Z</time>
      </trkpt>
      <trkpt lat="49.17289" lon="-0.22098">
        <ele>108.4</ele>
        <time>2024-04-07T05:55:19Z</time>
      </trkpt>
      <trkpt lat="49.17282" lon="-0.22096">
        <ele>108.4</ele>
        <time>2024-04-07T05:55:20Z</time>
      </trkpt>
      <trkpt lat="49.17275" lon="-0.22094">
        <ele>108.4</ele>
        <time>2024-04-07T05:55:21Z</time>
      </trkpt>
      <trkpt lat="49.17268" lon="-0.22091">
        <ele>108.4</ele>
        <time>2024-04-07T05:55:22Z</time>
      </trkpt>
      <trkpt lat="49.17261" lon="-0.22088">
        <ele>108.4</ele>
        <time>2024-04-07T05:55:23Z</time>
      </trkpt>
      <trkpt lat="49.17254" lon="-0.22085">
        <ele>108.4</ele>
        <time>2024-04-07T05:55:24Z</time>
      </trkpt>
      <trkpt lat="49.17247" lon="-0.22083">
        <ele>108.4</ele>
        <time>2024-04-07T05:55:25Z</time>
      </trkpt>
      <trkpt lat="49.1724" lon="-0.2208">
        <ele>108.4</ele>
        <time>2024-04-07T05:55:26Z</time>
      </trkpt>
      <trkpt lat="49.17232" lon="-0.22077">
        <ele>108.2</ele>
        <time>2024-04-07T05:55:27Z</time>
      </trkpt>
      <trkpt lat="49.17226" lon="-0.22075">
        <ele>108.2</ele>
        <time>2024-04-07T05:55:28Z</time>
      </trkpt>
      <trkpt lat="49.17219" lon="-0.22073">
        <ele>108</ele>
        <time>2024-04-07T05:55:29Z</time>
      </trkpt>
      <trkpt lat="49.17212" lon="-0.2207">
        <ele>108</ele>
        <time>2024-04-07T05:55:30Z</time>
      </trkpt>
      <trkpt lat="49.17205" lon="-0.22068">
        <ele>108</ele>
        <time>2024-04-07T05:55:31Z</time>
      </trkpt>
      <trkpt lat="49.17199" lon="-0.22065">
        <ele>108</ele>
        <time>2024-04-07T05:55:32Z</time>
      </trkpt>
      <trkpt lat="49.17191" lon="-0.22062">
        <ele>108</ele>
        <time>2024-04-07T05:55:33Z</time>
      </trkpt>
      <trkpt lat="49.17184" lon="-0.22059">
        <ele>108.2</ele>
        <time>2024-04-07T05:55:34Z</time>
      </trkpt>
      <trkpt lat="49.17177" lon="-0.22056">
        <ele>108.2</ele>
        <time>2024-04-07T05:55:35Z</time>
      </trkpt>
      <trkpt lat="49.1717" lon="-0.22054">
        <ele>108.2</ele>
        <time>2024-04-07T05:55:36Z</time>
      </trkpt>
      <trkpt lat="49.17162" lon="-0.22051">
        <ele>108.2</ele>
        <time>2024-04-07T05:55:37Z</time>
      </trkpt>
      <trkpt lat="49.17155" lon="-0.22049">
        <ele>108.2</ele>
        <time>2024-04-07T05:55:38Z</time>
      </trkpt>
      <trkpt lat="49.17149" lon="-0.22047">
        <ele>108</ele>
        <time>2024-04-07T05:55:39Z</time>
      </trkpt>
      <trkpt lat="49.17142" lon="-0.22045">
        <ele>108</ele>
        <time>2024-04-07T05:55:40Z</time>
      </trkpt>
      <trkpt lat="49.17135" lon="-0.22043">
        <ele>108</ele>
        <time>2024-04-07T05:55:41Z</time>
      </trkpt>
      <trkpt lat="49.17128" lon="-0.22041">
        <ele>108</ele>
        <time>2024-04-07T05:55:42Z</time>
      </trkpt>
      <trkpt lat="49.17122" lon="-0.2204">
        <ele>108</ele>
        <time>2024-04-07T05:55:43Z</time>
      </trkpt>
      <trkpt lat="49.17115" lon="-0.22039">
        <ele>108</ele>
        <time>2024-04-07T05:55:44Z</time>
      </trkpt>
      <trkpt lat="49.17108" lon="-0.22038">
        <ele>108</ele>
        <time>2024-04-07T05:55:45Z</time>
      </trkpt>
      <trkpt lat="49.17101" lon="-0.22037">
        <ele>108</ele>
        <time>2024-04-07T05:55:46Z</time>
      </trkpt>
      <trkpt lat="49.17095" lon="-0.22038">
        <ele>108</ele>
        <time>2024-04-07T05:55:47Z</time>
      </trkpt>
      <trkpt lat="49.17088" lon="-0.22038">
        <ele>108</ele>
        <time>2024-04-07T05:55:48Z</time>
      </trkpt>
      <trkpt lat="49.17081" lon="-0.22039">
        <ele>108</ele>
        <time>2024-04-07T05:55:49Z</time>
      </trkpt>
      <trkpt lat="49.17075" lon="-0.22041">
        <ele>108</ele>
        <time>2024-04-07T05:55:50Z</time>
      </trkpt>
      <trkpt lat="49.17068" lon="-0.22042">
        <ele>108.2</ele>
        <time>2024-04-07T05:55:51Z</time>
      </trkpt>
      <trkpt lat="49.17062" lon="-0.22044">
        <ele>108.6</ele>
        <time>2024-04-07T05:55:52Z</time>
      </trkpt>
      <trkpt lat="49.17056" lon="-0.22047">
        <ele>108.6</ele>
        <time>2024-04-07T05:55:53Z</time>
      </trkpt>
      <trkpt lat="49.17051" lon="-0.22048">
        <ele>108.8</ele>
        <time>2024-04-07T05:55:54Z</time>
      </trkpt>
      <trkpt lat="49.17044" lon="-0.2205">
        <ele>109</ele>
        <time>2024-04-07T05:55:55Z</time>
      </trkpt>
      <trkpt lat="49.17038" lon="-0.2205">
        <ele>109</ele>
        <time>2024-04-07T05:55:56Z</time>
      </trkpt>
      <trkpt lat="49.17032" lon="-0.22051">
        <ele>109</ele>
        <time>2024-04-07T05:55:57Z</time>
      </trkpt>
      <trkpt lat="49.17026" lon="-0.22052">
        <ele>109</ele>
        <time>2024-04-07T05:55:58Z</time>
      </trkpt>
      <trkpt lat="49.1702" lon="-0.22053">
        <ele>109</ele>
        <time>2024-04-07T05:55:59Z</time>
      </trkpt>
      <trkpt lat="49.17014" lon="-0.22054">
        <ele>109</ele>
        <time>2024-04-07T05:56:00Z</time>
      </trkpt>
      <trkpt lat="49.17008" lon="-0.22054">
        <ele>109</ele>
        <time>2024-04-07T05:56:01Z</time>
      </trkpt>
      <trkpt lat="49.17002" lon="-0.22055">
        <ele>109</ele>
        <time>2024-04-07T05:56:02Z</time>
      </trkpt>
      <trkpt lat="49.16996" lon="-0.22054">
        <ele>109.2</ele>
        <time>2024-04-07T05:56:03Z</time>
      </trkpt>
      <trkpt lat="49.16991" lon="-0.22054">
        <ele>109.2</ele>
        <time>2024-04-07T05:56:04Z</time>
      </trkpt>
      <trkpt lat="49.16985" lon="-0.22053">
        <ele>109.4</ele>
        <time>2024-04-07T05:56:05Z</time>
      </trkpt>
      <trkpt lat="49.16979" lon="-0.22052">
        <ele>109.6</ele>
        <time>2024-04-07T05:56:06Z</time>
      </trkpt>
      <trkpt lat="49.16973" lon="-0.2205">
        <ele>110</ele>
        <time>2024-04-07T05:56:07Z</time>
      </trkpt>
      <trkpt lat="49.16967" lon="-0.22049">
        <ele>110.4</ele>
        <time>2024-04-07T05:56:08Z</time>
      </trkpt>
      <trkpt lat="49.16961" lon="-0.22047">
        <ele>110.8</ele>
        <time>2024-04-07T05:56:09Z</time>
      </trkpt>
      <trkpt lat="49.16955" lon="-0.22044">
        <ele>111.2</ele>
        <time>2024-04-07T05:56:10Z</time>
      </trkpt>
      <trkpt lat="49.16948" lon="-0.22042">
        <ele>111.4</ele>
        <time>2024-04-07T05:56:11Z</time>
      </trkpt>
      <trkpt lat="49.16942" lon="-0.22039">
        <ele>111.6</ele>
        <time>2024-04-07T05:56:12Z</time>
      </trkpt>
      <trkpt lat="49.16935" lon="-0.22036">
        <ele>111.6</ele>
        <time>2024-04-07T05:56:13Z</time>
      </trkpt>
      <trkpt lat="49.16929" lon="-0.22033">
        <ele>111.6</ele>
        <time>2024-04-07T05:56:14Z</time>
      </trkpt>
      <trkpt lat="49.16922" lon="-0.2203">
        <ele>111.6</ele>
        <time>2024-04-07T05:56:15Z</time>
      </trkpt>
      <trkpt lat="49.16916" lon="-0.22027">
        <ele>111.6</ele>
        <time>2024-04-07T05:56:16Z</time>
      </trkpt>
      <trkpt lat="49.1691" lon="-0.22024">
        <ele>111.6</ele>
        <time>2024-04-07T05:56:17Z</time>
      </trkpt>
      <trkpt lat="49.16903" lon="-0.22021">
        <ele>111.6</ele>
        <time>2024-04-07T05:56:18Z</time>
      </trkpt>
      <trkpt lat="49.16896" lon="-0.22018">
        <ele>111.6</ele>
        <time>2024-04-07T05:56:19Z</time>
      </trkpt>
      <trkpt lat="49.1689" lon="-0.22015">
        <ele>111.4</ele>
        <time>2024-04-07T05:56:20Z</time>
      </trkpt>
      <trkpt lat="49.16883" lon="-0.22011">
        <ele>111.4</ele>
        <time>2024-04-07T05:56:21Z</time>
      </trkpt>
      <trkpt lat="49.16876" lon="-0.22008">
        <ele>111.4</ele>
        <time>2024-04-07T05:56:22Z</time>
      </trkpt>
      <trkpt lat="49.16869" lon="-0.22005">
        <ele>111.2</ele>
        <time>2024-04-07T05:56:23Z</time>
      </trkpt>
      <trkpt lat="49.16862" lon="-0.22002">
        <ele>111</ele>
        <time>2024-04-07T05:56:24Z</time>
      </trkpt>
      <trkpt lat="49.16855" lon="-0.21998">
        <ele>110.8</ele>
        <time>2024-04-07T05:56:25Z</time>
      </trkpt>
      <trkpt lat="49.16848" lon="-0.21995">
        <ele>110.6</ele>
        <time>2024-04-07T05:56:26Z</time>
      </trkpt>
      <trkpt lat="49.16841" lon="-0.21991">
        <ele>110.2</ele>
        <time>2024-04-07T05:56:27Z</time>
      </trkpt>
      <trkpt lat="49.16834" lon="-0.21987">
        <ele>110</ele>
        <time>2024-04-07T05:56:28Z</time>
      </trkpt>
      <trkpt lat="49.16826" lon="-0.21983">
        <ele>109.6</ele>
        <time>2024-04-07T05:56:29Z</time>
      </trkpt>
      <trkpt lat="49.16819" lon="-0.21979">
        <ele>109.2</ele>
        <time>2024-04-07T05:56:30Z</time>
      </trkpt>
      <trkpt lat="49.16811" lon="-0.21975">
        <ele>108.6</ele>
        <time>2024-04-07T05:56:31Z</time>
      </trkpt>
      <trkpt lat="49.16804" lon="-0.21971">
        <ele>108</ele>
        <time>2024-04-07T05:56:32Z</time>
      </trkpt>
      <trkpt lat="49.16796" lon="-0.21967">
        <ele>107.6</ele>
        <time>2024-04-07T05:56:33Z</time>
      </trkpt>
      <trkpt lat="49.16789" lon="-0.21963">
        <ele>107.2</ele>
        <time>2024-04-07T05:56:34Z</time>
      </trkpt>
      <trkpt lat="49.16782" lon="-0.21958">
        <ele>106.8</ele>
        <time>2024-04-07T05:56:35Z</time>
      </trkpt>
      <trkpt lat="49.16775" lon="-0.21952">
        <ele>106.4</ele>
        <time>2024-04-07T05:56:36Z</time>
      </trkpt>
      <trkpt lat="49.16769" lon="-0.21946">
        <ele>106.4</ele>
        <time>2024-04-07T05:56:37Z</time>
      </trkpt>
      <trkpt lat="49.16763" lon="-0.21939">
        <ele>106.2</ele>
        <time>2024-04-07T05:56:38Z</time>
      </trkpt>
      <trkpt lat="49.16757" lon="-0.21932">
        <ele>106</ele>
        <time>2024-04-07T05:56:39Z</time>
      </trkpt>
      <trkpt lat="49.16751" lon="-0.21926">
        <ele>105.8</ele>
        <time>2024-04-07T05:56:40Z</time>
      </trkpt>
      <trkpt lat="49.16744" lon="-0.2192">
        <ele>105.8</ele>
        <time>2024-04-07T05:56:41Z</time>
      </trkpt>
      <trkpt lat="49.16738" lon="-0.21915">
        <ele>105.8</ele>
        <time>2024-04-07T05:56:42Z</time>
      </trkpt>
      <trkpt lat="49.16731" lon="-0.2191">
        <ele>105.8</ele>
        <time>2024-04-07T05:56:43Z</time>
      </trkpt>
      <trkpt lat="49.16725" lon="-0.21906">
        <ele>105.8</ele>
        <time>2024-04-07T05:56:44Z</time>
      </trkpt>
      <trkpt lat="49.16718" lon="-0.21903">
        <ele>105.8</ele>
        <time>2024-04-07T05:56:45Z</time>
      </trkpt>
      <trkpt lat="49.16712" lon="-0.21901">
        <ele>105.8</ele>
        <time>2024-04-07T05:56:46Z</time>
      </trkpt>
      <trkpt lat="49.16705" lon="-0.21899">
        <ele>105.8</ele>
        <time>2024-04-07T05:56:47Z</time>
      </trkpt>
      <trkpt lat="49.16699" lon="-0.21897">
        <ele>106</ele>
        <time>2024-04-07T05:56:48Z</time>
      </trkpt>
      <trkpt lat="49.16692" lon="-0.21896">
        <ele>106</ele>
        <time>2024-04-07T05:56:49Z</time>
      </trkpt>
      <trkpt lat="49.16686" lon="-0.21895">
        <ele>106</ele>
        <time>2024-04-07T05:56:50Z</time>
      </trkpt>
      <trkpt lat="49.16672" lon="-0.21894">
        <ele>106</ele>
        <time>2024-04-07T05:56:51Z</time>
      </trkpt>
      <trkpt lat="49.16669" lon="-0.21893">
        <ele>106</ele>
        <time>2024-04-07T05:56:52Z</time>
      </trkpt>
      <trkpt lat="49.16665" lon="-0.21892">
        <ele>105.8</ele>
        <time>2024-04-07T05:56:53Z</time>
      </trkpt>
      <trkpt lat="49.16658" lon="-0.21891">
        <ele>105.8</ele>
        <time>2024-04-07T05:56:54Z</time>
      </trkpt>
      <trkpt lat="49.16651" lon="-0.2189">
        <ele>105.6</ele>
        <time>2024-04-07T05:56:55Z</time>
      </trkpt>
      <trkpt lat="49.16644" lon="-0.21889">
        <ele>105.6</ele>
        <time>2024-04-07T05:56:56Z</time>
      </trkpt>
      <trkpt lat="49.16637" lon="-0.21888">
        <ele>105.6</ele>
        <time>2024-04-07T05:56:57Z</time>
      </trkpt>
      <trkpt lat="49.16631" lon="-0.21887">
        <ele>105.6</ele>
        <time>2024-04-07T05:56:58Z</time>
      </trkpt>
      <trkpt lat="49.16624" lon="-0.21886">
        <ele>105.4</ele>
        <time>2024-04-07T05:56:59Z</time>
      </trkpt>
      <trkpt lat="49.16617" lon="-0.21885">
        <ele>105.4</ele>
        <time>2024-04-07T05:57:00Z</time>
      </trkpt>
      <trkpt lat="49.1661" lon="-0.21884">
        <ele>105.4</ele>
        <time>2024-04-07T05:57:01Z</time>
      </trkpt>
      <trkpt lat="49.16603" lon="-0.21883">
        <ele>105.4</ele>
        <time>2024-04-07T05:57:02Z</time>
      </trkpt>
      <trkpt lat="49.16596" lon="-0.21882">
        <ele>105.2</ele>
        <time>2024-04-07T05:57:03Z</time>
      </trkpt>
      <trkpt lat="49.16588" lon="-0.21881">
        <ele>105.2</ele>
        <time>2024-04-07T05:57:04Z</time>
      </trkpt>
      <trkpt lat="49.16581" lon="-0.2188">
        <ele>105</ele>
        <time>2024-04-07T05:57:05Z</time>
      </trkpt>
      <trkpt lat="49.16573" lon="-0.21879">
        <ele>104.8</ele>
        <time>2024-04-07T05:57:06Z</time>
      </trkpt>
      <trkpt lat="49.16566" lon="-0.21878">
        <ele>104.6</ele>
        <time>2024-04-07T05:57:07Z</time>
      </trkpt>
      <trkpt lat="49.16559" lon="-0.21877">
        <ele>104.4</ele>
        <time>2024-04-07T05:57:08Z</time>
      </trkpt>
      <trkpt lat="49.16552" lon="-0.21875">
        <ele>104.2</ele>
        <time>2024-04-07T05:57:09Z</time>
      </trkpt>
      <trkpt lat="49.16545" lon="-0.21874">
        <ele>104</ele>
        <time>2024-04-07T05:57:10Z</time>
      </trkpt>
      <trkpt lat="49.16537" lon="-0.21873">
        <ele>103.8</ele>
        <time>2024-04-07T05:57:11Z</time>
      </trkpt>
      <trkpt lat="49.1653" lon="-0.21872">
        <ele>103.8</ele>
        <time>2024-04-07T05:57:12Z</time>
      </trkpt>
      <trkpt lat="49.16524" lon="-0.2187">
        <ele>103.6</ele>
        <time>2024-04-07T05:57:13Z</time>
      </trkpt>
      <trkpt lat="49.16517" lon="-0.21869">
        <ele>103.6</ele>
        <time>2024-04-07T05:57:14Z</time>
      </trkpt>
      <trkpt lat="49.1651" lon="-0.21868">
        <ele>103.4</ele>
        <time>2024-04-07T05:57:15Z</time>
      </trkpt>
      <trkpt lat="49.16503" lon="-0.21867">
        <ele>103.2</ele>
        <time>2024-04-07T05:57:16Z</time>
      </trkpt>
      <trkpt lat="49.16496" lon="-0.21866">
        <ele>103</ele>
        <time>2024-04-07T05:57:17Z</time>
      </trkpt>
      <trkpt lat="49.16489" lon="-0.21865">
        <ele>103</ele>
        <time>2024-04-07T05:57:18Z</time>
      </trkpt>
      <trkpt lat="49.16482" lon="-0.21864">
        <ele>103</ele>
        <time>2024-04-07T05:57:19Z</time>
      </trkpt>
      <trkpt lat="49.16475" lon="-0.21863">
        <ele>103</ele>
        <time>2024-04-07T05:57:20Z</time>
      </trkpt>
      <trkpt lat="49.16468" lon="-0.21862">
        <ele>103</ele>
        <time>2024-04-07T05:57:21Z</time>
      </trkpt>
      <trkpt lat="49.16461" lon="-0.21861">
        <ele>103</ele>
        <time>2024-04-07T05:57:22Z</time>
      </trkpt>
      <trkpt lat="49.16455" lon="-0.2186">
        <ele>103.2</ele>
        <time>2024-04-07T05:57:23Z</time>
      </trkpt>
      <trkpt lat="49.16448" lon="-0.21859">
        <ele>103.2</ele>
        <time>2024-04-07T05:57:24Z</time>
      </trkpt>
      <trkpt lat="49.16441" lon="-0.21858">
        <ele>103.4</ele>
        <time>2024-04-07T05:57:25Z</time>
      </trkpt>
      <trkpt lat="49.16434" lon="-0.21857">
        <ele>103.4</ele>
        <time>2024-04-07T05:57:26Z</time>
      </trkpt>
      <trkpt lat="49.16427" lon="-0.21856">
        <ele>103.4</ele>
        <time>2024-04-07T05:57:27Z</time>
      </trkpt>
      <trkpt lat="49.1642" lon="-0.21855">
        <ele>103.4</ele>
        <time>2024-04-07T05:57:28Z</time>
      </trkpt>
      <trkpt lat="49.16414" lon="-0.21854">
        <ele>103.6</ele>
        <time>2024-04-07T05:57:29Z</time>
      </trkpt>
      <trkpt lat="49.16407" lon="-0.21853">
        <ele>103.6</ele>
        <time>2024-04-07T05:57:30Z</time>
      </trkpt>
      <trkpt lat="49.164" lon="-0.21852">
        <ele>103.6</ele>
        <time>2024-04-07T05:57:31Z</time>
      </trkpt>
      <trkpt lat="49.16393" lon="-0.21851">
        <ele>103.6</ele>
        <time>2024-04-07T05:57:32Z</time>
      </trkpt>
      <trkpt lat="49.16386" lon="-0.2185">
        <ele>103.6</ele>
        <time>2024-04-07T05:57:33Z</time>
      </trkpt>
      <trkpt lat="49.16379" lon="-0.21849">
        <ele>103.4</ele>
        <time>2024-04-07T05:57:34Z</time>
      </trkpt>
      <trkpt lat="49.16372" lon="-0.21848">
        <ele>103.4</ele>
        <time>2024-04-07T05:57:35Z</time>
      </trkpt>
      <trkpt lat="49.16366" lon="-0.21846">
        <ele>103.4</ele>
        <time>2024-04-07T05:57:36Z</time>
      </trkpt>
      <trkpt lat="49.16359" lon="-0.21845">
        <ele>103.6</ele>
        <time>2024-04-07T05:57:37Z</time>
      </trkpt>
      <trkpt lat="49.16352" lon="-0.21844">
        <ele>103.8</ele>
        <time>2024-04-07T05:57:38Z</time>
      </trkpt>
      <trkpt lat="49.16345" lon="-0.21843">
        <ele>104</ele>
        <time>2024-04-07T05:57:39Z</time>
      </trkpt>
      <trkpt lat="49.16338" lon="-0.21842">
        <ele>104</ele>
        <time>2024-04-07T05:57:40Z</time>
      </trkpt>
      <trkpt lat="49.16332" lon="-0.21841">
        <ele>104</ele>
        <time>2024-04-07T05:57:41Z</time>
      </trkpt>
      <trkpt lat="49.16325" lon="-0.2184">
        <ele>104</ele>
        <time>2024-04-07T05:57:42Z</time>
      </trkpt>
      <trkpt lat="49.16318" lon="-0.21839">
        <ele>104</ele>
        <time>2024-04-07T05:57:43Z</time>
      </trkpt>
      <trkpt lat="49.16312" lon="-0.21839">
        <ele>103.8</ele>
        <time>2024-04-07T05:57:44Z</time>
      </trkpt>
      <trkpt lat="49.16305" lon="-0.21838">
        <ele>103.8</ele>
        <time>2024-04-07T05:57:45Z</time>
      </trkpt>
      <trkpt lat="49.16299" lon="-0.21837">
        <ele>103.8</ele>
        <time>2024-04-07T05:57:46Z</time>
      </trkpt>
      <trkpt lat="49.16292" lon="-0.21836">
        <ele>103.8</ele>
        <time>2024-04-07T05:57:47Z</time>
      </trkpt>
      <trkpt lat="49.16285" lon="-0.21834">
        <ele>103.6</ele>
        <time>2024-04-07T05:57:48Z</time>
      </trkpt>
      <trkpt lat="49.16278" lon="-0.21833">
        <ele>103.4</ele>
        <time>2024-04-07T05:57:49Z</time>
      </trkpt>
      <trkpt lat="49.16272" lon="-0.21833">
        <ele>103.2</ele>
        <time>2024-04-07T05:57:50Z</time>
      </trkpt>
      <trkpt lat="49.16265" lon="-0.21831">
        <ele>103</ele>
        <time>2024-04-07T05:57:51Z</time>
      </trkpt>
      <trkpt lat="49.16258" lon="-0.2183">
        <ele>102.8</ele>
        <time>2024-04-07T05:57:52Z</time>
      </trkpt>
      <trkpt lat="49.16251" lon="-0.21829">
        <ele>102.8</ele>
        <time>2024-04-07T05:57:53Z</time>
      </trkpt>
      <trkpt lat="49.16245" lon="-0.21828">
        <ele>102.8</ele>
        <time>2024-04-07T05:57:54Z</time>
      </trkpt>
      <trkpt lat="49.16238" lon="-0.21827">
        <ele>102.6</ele>
        <time>2024-04-07T05:57:55Z</time>
      </trkpt>
      <trkpt lat="49.16231" lon="-0.21826">
        <ele>102.6</ele>
        <time>2024-04-07T05:57:56Z</time>
      </trkpt>
      <trkpt lat="49.16225" lon="-0.21825">
        <ele>102.8</ele>
        <time>2024-04-07T05:57:57Z</time>
      </trkpt>
      <trkpt lat="49.16218" lon="-0.21824">
        <ele>102.6</ele>
        <time>2024-04-07T05:57:58Z</time>
      </trkpt>
      <trkpt lat="49.16211" lon="-0.21823">
        <ele>102.6</ele>
        <time>2024-04-07T05:57:59Z</time>
      </trkpt>
      <trkpt lat="49.16205" lon="-0.21822">
        <ele>102.4</ele>
        <time>2024-04-07T05:58:00Z</time>
      </trkpt>
      <trkpt lat="49.16199" lon="-0.2182">
        <ele>102.4</ele>
        <time>2024-04-07T05:58:01Z</time>
      </trkpt>
      <trkpt lat="49.16192" lon="-0.21819">
        <ele>102.2</ele>
        <time>2024-04-07T05:58:02Z</time>
      </trkpt>
      <trkpt lat="49.16187" lon="-0.21818">
        <ele>102</ele>
        <time>2024-04-07T05:58:03Z</time>
      </trkpt>
      <trkpt lat="49.16181" lon="-0.21819">
        <ele>102</ele>
        <time>2024-04-07T05:58:04Z</time>
      </trkpt>
      <trkpt lat="49.16175" lon="-0.21822">
        <ele>101.8</ele>
        <time>2024-04-07T05:58:05Z</time>
      </trkpt>
      <trkpt lat="49.16171" lon="-0.21827">
        <ele>101.6</ele>
        <time>2024-04-07T05:58:06Z</time>
      </trkpt>
      <trkpt lat="49.16168" lon="-0.21834">
        <ele>101.4</ele>
        <time>2024-04-07T05:58:07Z</time>
      </trkpt>
      <trkpt lat="49.16166" lon="-0.21843">
        <ele>101.4</ele>
        <time>2024-04-07T05:58:08Z</time>
      </trkpt>
      <trkpt lat="49.16166" lon="-0.21852">
        <ele>101.2</ele>
        <time>2024-04-07T05:58:09Z</time>
      </trkpt>
      <trkpt lat="49.16166" lon="-0.21863">
        <ele>101.2</ele>
        <time>2024-04-07T05:58:10Z</time>
      </trkpt>
      <trkpt lat="49.16166" lon="-0.21872">
        <ele>101.2</ele>
        <time>2024-04-07T05:58:11Z</time>
      </trkpt>
      <trkpt lat="49.16166" lon="-0.21882">
        <ele>101.4</ele>
        <time>2024-04-07T05:58:12Z</time>
      </trkpt>
      <trkpt lat="49.16165" lon="-0.21892">
        <ele>101.4</ele>
        <time>2024-04-07T05:58:13Z</time>
      </trkpt>
      <trkpt lat="49.16164" lon="-0.21903">
        <ele>101.4</ele>
        <time>2024-04-07T05:58:14Z</time>
      </trkpt>
      <trkpt lat="49.16162" lon="-0.21913">
        <ele>101.2</ele>
        <time>2024-04-07T05:58:15Z</time>
      </trkpt>
      <trkpt lat="49.1616" lon="-0.21922">
        <ele>101.2</ele>
        <time>2024-04-07T05:58:16Z</time>
      </trkpt>
      <trkpt lat="49.16158" lon="-0.21932">
        <ele>101</ele>
        <time>2024-04-07T05:58:17Z</time>
      </trkpt>
      <trkpt lat="49.16155" lon="-0.21941">
        <ele>100.8</ele>
        <time>2024-04-07T05:58:18Z</time>
      </trkpt>
      <trkpt lat="49.16151" lon="-0.2195">
        <ele>100.8</ele>
        <time>2024-04-07T05:58:19Z</time>
      </trkpt>
      <trkpt lat="49.16146" lon="-0.21957">
        <ele>100.8</ele>
        <time>2024-04-07T05:58:20Z</time>
      </trkpt>
      <trkpt lat="49.1614" lon="-0.21964">
        <ele>100.6</ele>
        <time>2024-04-07T05:58:21Z</time>
      </trkpt>
      <trkpt lat="49.16134" lon="-0.21969">
        <ele>100.8</ele>
        <time>2024-04-07T05:58:22Z</time>
      </trkpt>
      <trkpt lat="49.16127" lon="-0.21973">
        <ele>100.8</ele>
        <time>2024-04-07T05:58:23Z</time>
      </trkpt>
      <trkpt lat="49.16121" lon="-0.21976">
        <ele>101</ele>
        <time>2024-04-07T05:58:24Z</time>
      </trkpt>
      <trkpt lat="49.16114" lon="-0.2198">
        <ele>101.2</ele>
        <time>2024-04-07T05:58:25Z</time>
      </trkpt>
      <trkpt lat="49.16107" lon="-0.21983">
        <ele>101.4</ele>
        <time>2024-04-07T05:58:26Z</time>
      </trkpt>
      <trkpt lat="49.161" lon="-0.21986">
        <ele>101.4</ele>
        <time>2024-04-07T05:58:27Z</time>
      </trkpt>
      <trkpt lat="49.16094" lon="-0.21989">
        <ele>101.6</ele>
        <time>2024-04-07T05:58:28Z</time>
      </trkpt>
      <trkpt lat="49.16087" lon="-0.21993">
        <ele>101.6</ele>
        <time>2024-04-07T05:58:29Z</time>
      </trkpt>
      <trkpt lat="49.16081" lon="-0.21997">
        <ele>101.6</ele>
        <time>2024-04-07T05:58:30Z</time>
      </trkpt>
      <trkpt lat="49.16075" lon="-0.22002">
        <ele>101.4</ele>
        <time>2024-04-07T05:58:31Z</time>
      </trkpt>
      <trkpt lat="49.16068" lon="-0.22007">
        <ele>101.2</ele>
        <time>2024-04-07T05:58:32Z</time>
      </trkpt>
      <trkpt lat="49.16062" lon="-0.22011">
        <ele>100.8</ele>
        <time>2024-04-07T05:58:33Z</time>
      </trkpt>
      <trkpt lat="49.16056" lon="-0.22015">
        <ele>100.4</ele>
        <time>2024-04-07T05:58:34Z</time>
      </trkpt>
      <trkpt lat="49.1605" lon="-0.2202">
        <ele>100.2</ele>
        <time>2024-04-07T05:58:35Z</time>
      </trkpt>
      <trkpt lat="49.16044" lon="-0.22025">
        <ele>100</ele>
        <time>2024-04-07T05:58:36Z</time>
      </trkpt>
      <trkpt lat="49.16038" lon="-0.22029">
        <ele>100</ele>
        <time>2024-04-07T05:58:37Z</time>
      </trkpt>
      <trkpt lat="49.16033" lon="-0.22034">
        <ele>99.8</ele>
        <time>2024-04-07T05:58:38Z</time>
      </trkpt>
      <trkpt lat="49.16027" lon="-0.22038">
        <ele>99.8</ele>
        <time>2024-04-07T05:58:39Z</time>
      </trkpt>
      <trkpt lat="49.16021" lon="-0.22043">
        <ele>99.8</ele>
        <time>2024-04-07T05:58:40Z</time>
      </trkpt>
      <trkpt lat="49.16015" lon="-0.22048">
        <ele>99.8</ele>
        <time>2024-04-07T05:58:41Z</time>
      </trkpt>
      <trkpt lat="49.16009" lon="-0.22053">
        <ele>100</ele>
        <time>2024-04-07T05:58:42Z</time>
      </trkpt>
      <trkpt lat="49.16003" lon="-0.22057">
        <ele>100.4</ele>
        <time>2024-04-07T05:58:43Z</time>
      </trkpt>
      <trkpt lat="49.15997" lon="-0.22062">
        <ele>100.8</ele>
        <time>2024-04-07T05:58:44Z</time>
      </trkpt>
      <trkpt lat="49.15991" lon="-0.22067">
        <ele>101</ele>
        <time>2024-04-07T05:58:45Z</time>
      </trkpt>
      <trkpt lat="49.15985" lon="-0.22072">
        <ele>101.4</ele>
        <time>2024-04-07T05:58:46Z</time>
      </trkpt>
      <trkpt lat="49.15979" lon="-0.22077">
        <ele>101.6</ele>
        <time>2024-04-07T05:58:47Z</time>
      </trkpt>
      <trkpt lat="49.15973" lon="-0.22082">
        <ele>101.8</ele>
        <time>2024-04-07T05:58:48Z</time>
      </trkpt>
      <trkpt lat="49.15967" lon="-0.22087">
        <ele>101.8</ele>
        <time>2024-04-07T05:58:49Z</time>
      </trkpt>
      <trkpt lat="49.15961" lon="-0.22091">
        <ele>102</ele>
        <time>2024-04-07T05:58:50Z</time>
      </trkpt>
      <trkpt lat="49.15955" lon="-0.22096">
        <ele>102.2</ele>
        <time>2024-04-07T05:58:51Z</time>
      </trkpt>
      <trkpt lat="49.15949" lon="-0.22101">
        <ele>102.2</ele>
        <time>2024-04-07T05:58:52Z</time>
      </trkpt>
      <trkpt lat="49.15943" lon="-0.22106">
        <ele>102.2</ele>
        <time>2024-04-07T05:58:53Z</time>
      </trkpt>
      <trkpt lat="49.15937" lon="-0.2211">
        <ele>102.4</ele>
        <time>2024-04-07T05:58:54Z</time>
      </trkpt>
      <trkpt lat="49.1593" lon="-0.22113">
        <ele>102.6</ele>
        <time>2024-04-07T05:58:55Z</time>
      </trkpt>
      <trkpt lat="49.15924" lon="-0.22116">
        <ele>102.6</ele>
        <time>2024-04-07T05:58:56Z</time>
      </trkpt>
      <trkpt lat="49.15917" lon="-0.22118">
        <ele>102.6</ele>
        <time>2024-04-07T05:58:57Z</time>
      </trkpt>
      <trkpt lat="49.1591" lon="-0.2212">
        <ele>102.4</ele>
        <time>2024-04-07T05:58:58Z</time>
      </trkpt>
      <trkpt lat="49.15904" lon="-0.22122">
        <ele>102.4</ele>
        <time>2024-04-07T05:58:59Z</time>
      </trkpt>
      <trkpt lat="49.15897" lon="-0.22124">
        <ele>102.2</ele>
        <time>2024-04-07T05:59:00Z</time>
      </trkpt>
      <trkpt lat="49.15891" lon="-0.22126">
        <ele>102.2</ele>
        <time>2024-04-07T05:59:01Z</time>
      </trkpt>
      <trkpt lat="49.15884" lon="-0.22128">
        <ele>102.2</ele>
        <time>2024-04-07T05:59:02Z</time>
      </trkpt>
      <trkpt lat="49.15878" lon="-0.2213">
        <ele>102.2</ele>
        <time>2024-04-07T05:59:03Z</time>
      </trkpt>
      <trkpt lat="49.15871" lon="-0.22132">
        <ele>102.6</ele>
        <time>2024-04-07T05:59:04Z</time>
      </trkpt>
      <trkpt lat="49.15864" lon="-0.22133">
        <ele>102.8</ele>
        <time>2024-04-07T05:59:05Z</time>
      </trkpt>
      <trkpt lat="49.15858" lon="-0.22135">
        <ele>103</ele>
        <time>2024-04-07T05:59:06Z</time>
      </trkpt>
      <trkpt lat="49.15851" lon="-0.22136">
        <ele>103</ele>
        <time>2024-04-07T05:59:07Z</time>
      </trkpt>
      <trkpt lat="49.15844" lon="-0.22138">
        <ele>103</ele>
        <time>2024-04-07T05:59:08Z</time>
      </trkpt>
      <trkpt lat="49.15837" lon="-0.22139">
        <ele>102.8</ele>
        <time>2024-04-07T05:59:09Z</time>
      </trkpt>
      <trkpt lat="49.15831" lon="-0.2214">
        <ele>102.4</ele>
        <time>2024-04-07T05:59:10Z</time>
      </trkpt>
      <trkpt lat="49.15824" lon="-0.22143">
        <ele>102.2</ele>
        <time>2024-04-07T05:59:11Z</time>
      </trkpt>
      <trkpt lat="49.15817" lon="-0.22145">
        <ele>102.2</ele>
        <time>2024-04-07T05:59:12Z</time>
      </trkpt>
      <trkpt lat="49.1581" lon="-0.22147">
        <ele>102</ele>
        <time>2024-04-07T05:59:13Z</time>
      </trkpt>
      <trkpt lat="49.15804" lon="-0.2215">
        <ele>101.8</ele>
        <time>2024-04-07T05:59:14Z</time>
      </trkpt>
      <trkpt lat="49.15797" lon="-0.22152">
        <ele>101.6</ele>
        <time>2024-04-07T05:59:15Z</time>
      </trkpt>
      <trkpt lat="49.1579" lon="-0.22155">
        <ele>101.6</ele>
        <time>2024-04-07T05:59:16Z</time>
      </trkpt>
      <trkpt lat="49.15784" lon="-0.22157">
        <ele>101.4</ele>
        <time>2024-04-07T05:59:17Z</time>
      </trkpt>
      <trkpt lat="49.15777" lon="-0.22159">
        <ele>101.2</ele>
        <time>2024-04-07T05:59:18Z</time>
      </trkpt>
      <trkpt lat="49.1577" lon="-0.22161">
        <ele>101</ele>
        <time>2024-04-07T05:59:19Z</time>
      </trkpt>
      <trkpt lat="49.15764" lon="-0.22163">
        <ele>100.8</ele>
        <time>2024-04-07T05:59:20Z</time>
      </trkpt>
      <trkpt lat="49.15757" lon="-0.22165">
        <ele>100.6</ele>
        <time>2024-04-07T05:59:21Z</time>
      </trkpt>
      <trkpt lat="49.1575" lon="-0.22167">
        <ele>100.4</ele>
        <time>2024-04-07T05:59:22Z</time>
      </trkpt>
      <trkpt lat="49.15743" lon="-0.22169">
        <ele>100.2</ele>
        <time>2024-04-07T05:59:23Z</time>
      </trkpt>
      <trkpt lat="49.15735" lon="-0.2217">
        <ele>100</ele>
        <time>2024-04-07T05:59:24Z</time>
      </trkpt>
      <trkpt lat="49.15728" lon="-0.2217">
        <ele>100</ele>
        <time>2024-04-07T05:59:25Z</time>
      </trkpt>
      <trkpt lat="49.15722" lon="-0.22171">
        <ele>100</ele>
        <time>2024-04-07T05:59:26Z</time>
      </trkpt>
      <trkpt lat="49.15715" lon="-0.22172">
        <ele>99.8</ele>
        <time>2024-04-07T05:59:27Z</time>
      </trkpt>
      <trkpt lat="49.15708" lon="-0.22172">
        <ele>99.8</ele>
        <time>2024-04-07T05:59:28Z</time>
      </trkpt>
      <trkpt lat="49.157" lon="-0.22171">
        <ele>99.8</ele>
        <time>2024-04-07T05:59:29Z</time>
      </trkpt>
      <trkpt lat="49.15694" lon="-0.2217">
        <ele>99.8</ele>
        <time>2024-04-07T05:59:30Z</time>
      </trkpt>
      <trkpt lat="49.15687" lon="-0.22168">
        <ele>99.8</ele>
        <time>2024-04-07T05:59:31Z</time>
      </trkpt>
      <trkpt lat="49.1568" lon="-0.22167">
        <ele>99.8</ele>
        <time>2024-04-07T05:59:32Z</time>
      </trkpt>
      <trkpt lat="49.15673" lon="-0.22165">
        <ele>100</ele>
        <time>2024-04-07T05:59:33Z</time>
      </trkpt>
      <trkpt lat="49.15666" lon="-0.22163">
        <ele>100</ele>
        <time>2024-04-07T05:59:34Z</time>
      </trkpt>
      <trkpt lat="49.15659" lon="-0.22162">
        <ele>100</ele>
        <time>2024-04-07T05:59:35Z</time>
      </trkpt>
      <trkpt lat="49.15652" lon="-0.22161">
        <ele>100</ele>
        <time>2024-04-07T05:59:36Z</time>
      </trkpt>
      <trkpt lat="49.15645" lon="-0.22159">
        <ele>100</ele>
        <time>2024-04-07T05:59:37Z</time>
      </trkpt>
      <trkpt lat="49.15638" lon="-0.22158">
        <ele>100.2</ele>
        <time>2024-04-07T05:59:38Z</time>
      </trkpt>
      <trkpt lat="49.15631" lon="-0.22156">
        <ele>100.2</ele>
        <time>2024-04-07T05:59:39Z</time>
      </trkpt>
      <trkpt lat="49.15624" lon="-0.22155">
        <ele>100.2</ele>
        <time>2024-04-07T05:59:40Z</time>
      </trkpt>
      <trkpt lat="49.15617" lon="-0.22153">
        <ele>100.2</ele>
        <time>2024-04-07T05:59:41Z</time>
      </trkpt>
      <trkpt lat="49.1561" lon="-0.22152">
        <ele>100</ele>
        <time>2024-04-07T05:59:42Z</time>
      </trkpt>
      <trkpt lat="49.15603" lon="-0.2215">
        <ele>100</ele>
        <time>2024-04-07T05:59:43Z</time>
      </trkpt>
      <trkpt lat="49.15596" lon="-0.22149">
        <ele>99.8</ele>
        <time>2024-04-07T05:59:44Z</time>
      </trkpt>
      <trkpt lat="49.15589" lon="-0.22147">
        <ele>99.6</ele>
        <time>2024-04-07T05:59:45Z</time>
      </trkpt>
      <trkpt lat="49.15582" lon="-0.22146">
        <ele>99.6</ele>
        <time>2024-04-07T05:59:46Z</time>
      </trkpt>
      <trkpt lat="49.15575" lon="-0.22145">
        <ele>99.6</ele>
        <time>2024-04-07T05:59:47Z</time>
      </trkpt>
      <trkpt lat="49.15567" lon="-0.22144">
        <ele>99.6</ele>
        <time>2024-04-07T05:59:48Z</time>
      </trkpt>
      <trkpt lat="49.1556" lon="-0.22143">
        <ele>99.8</ele>
        <time>2024-04-07T05:59:49Z</time>
      </trkpt>
      <trkpt lat="49.15553" lon="-0.22142">
        <ele>99.8</ele>
        <time>2024-04-07T05:59:50Z</time>
      </trkpt>
      <trkpt lat="49.15546" lon="-0.22141">
        <ele>99.6</ele>
        <time>2024-04-07T05:59:51Z</time>
      </trkpt>
      <trkpt lat="49.15539" lon="-0.2214">
        <ele>99.6</ele>
        <time>2024-04-07T05:59:52Z</time>
      </trkpt>
      <trkpt lat="49.15532" lon="-0.22139">
        <ele>99.6</ele>
        <time>2024-04-07T05:59:53Z</time>
      </trkpt>
      <trkpt lat="49.15525" lon="-0.22138">
        <ele>99.4</ele>
        <time>2024-04-07T05:59:54Z</time>
      </trkpt>
      <trkpt lat="49.15518" lon="-0.22137">
        <ele>99.4</ele>
        <time>2024-04-07T05:59:55Z</time>
      </trkpt>
      <trkpt lat="49.15511" lon="-0.22136">
        <ele>99.2</ele>
        <time>2024-04-07T05:59:56Z</time>
      </trkpt>
      <trkpt lat="49.15505" lon="-0.22136">
        <ele>99.4</ele>
        <time>2024-04-07T05:59:57Z</time>
      </trkpt>
      <trkpt lat="49.15498" lon="-0.22136">
        <ele>99.6</ele>
        <time>2024-04-07T05:59:58Z</time>
      </trkpt>
      <trkpt lat="49.15491" lon="-0.22136">
        <ele>99.6</ele>
        <time>2024-04-07T05:59:59Z</time>
      </trkpt>
      <trkpt lat="49.15484" lon="-0.22136">
        <ele>99.6</ele>
        <time>2024-04-07T06:00:00Z</time>
      </trkpt>
      <trkpt lat="49.15477" lon="-0.22136">
        <ele>99.6</ele>
        <time>2024-04-07T06:00:01Z</time>
      </trkpt>
      <trkpt lat="49.1547" lon="-0.22135">
        <ele>99.6</ele>
        <time>2024-04-07T06:00:02Z</time>
      </trkpt>
      <trkpt lat="49.15463" lon="-0.22134">
        <ele>99.4</ele>
        <time>2024-04-07T06:00:03Z</time>
      </trkpt>
      <trkpt lat="49.15456" lon="-0.22134">
        <ele>99</ele>
        <time>2024-04-07T06:00:04Z</time>
      </trkpt>
      <trkpt lat="49.15448" lon="-0.22133">
        <ele>98.6</ele>
        <time>2024-04-07T06:00:05Z</time>
      </trkpt>
      <trkpt lat="49.15441" lon="-0.22133">
        <ele>98.2</ele>
        <time>2024-04-07T06:00:06Z</time>
      </trkpt>
      <trkpt lat="49.15433" lon="-0.22132">
        <ele>97.8</ele>
        <time>2024-04-07T06:00:07Z</time>
      </trkpt>
      <trkpt lat="49.15425" lon="-0.22133">
        <ele>97.6</ele>
        <time>2024-04-07T06:00:08Z</time>
      </trkpt>
      <trkpt lat="49.15418" lon="-0.22133">
        <ele>97.4</ele>
        <time>2024-04-07T06:00:09Z</time>
      </trkpt>
      <trkpt lat="49.15411" lon="-0.22134">
        <ele>97.4</ele>
        <time>2024-04-07T06:00:10Z</time>
      </trkpt>
      <trkpt lat="49.15404" lon="-0.22136">
        <ele>97.6</ele>
        <time>2024-04-07T06:00:11Z</time>
      </trkpt>
      <trkpt lat="49.15397" lon="-0.2214">
        <ele>97.6</ele>
        <time>2024-04-07T06:00:12Z</time>
      </trkpt>
      <trkpt lat="49.15391" lon="-0.22145">
        <ele>97.8</ele>
        <time>2024-04-07T06:00:13Z</time>
      </trkpt>
      <trkpt lat="49.15386" lon="-0.22151">
        <ele>98</ele>
        <time>2024-04-07T06:00:14Z</time>
      </trkpt>
      <trkpt lat="49.1538" lon="-0.22158">
        <ele>98</ele>
        <time>2024-04-07T06:00:15Z</time>
      </trkpt>
      <trkpt lat="49.15376" lon="-0.22165">
        <ele>98.2</ele>
        <time>2024-04-07T06:00:16Z</time>
      </trkpt>
      <trkpt lat="49.15371" lon="-0.22173">
        <ele>98.2</ele>
        <time>2024-04-07T06:00:17Z</time>
      </trkpt>
      <trkpt lat="49.15366" lon="-0.2218">
        <ele>98</ele>
        <time>2024-04-07T06:00:18Z</time>
      </trkpt>
      <trkpt lat="49.15361" lon="-0.22188">
        <ele>98</ele>
        <time>2024-04-07T06:00:19Z</time>
      </trkpt>
      <trkpt lat="49.15356" lon="-0.22195">
        <ele>98</ele>
        <time>2024-04-07T06:00:20Z</time>
      </trkpt>
      <trkpt lat="49.15352" lon="-0.22203">
        <ele>98</ele>
        <time>2024-04-07T06:00:21Z</time>
      </trkpt>
      <trkpt lat="49.15347" lon="-0.2221">
        <ele>98.2</ele>
        <time>2024-04-07T06:00:22Z</time>
      </trkpt>
      <trkpt lat="49.15343" lon="-0.22218">
        <ele>98.4</ele>
        <time>2024-04-07T06:00:23Z</time>
      </trkpt>
      <trkpt lat="49.15338" lon="-0.22225">
        <ele>98.6</ele>
        <time>2024-04-07T06:00:24Z</time>
      </trkpt>
      <trkpt lat="49.15333" lon="-0.22233">
        <ele>98.8</ele>
        <time>2024-04-07T06:00:25Z</time>
      </trkpt>
      <trkpt lat="49.15329" lon="-0.2224">
        <ele>99</ele>
        <time>2024-04-07T06:00:26Z</time>
      </trkpt>
      <trkpt lat="49.15325" lon="-0.22248">
        <ele>99</ele>
        <time>2024-04-07T06:00:27Z</time>
      </trkpt>
      <trkpt lat="49.15321" lon="-0.22256">
        <ele>99.2</ele>
        <time>2024-04-07T06:00:28Z</time>
      </trkpt>
      <trkpt lat="49.15317" lon="-0.22265">
        <ele>99.2</ele>
        <time>2024-04-07T06:00:29Z</time>
      </trkpt>
      <trkpt lat="49.15314" lon="-0.22274">
        <ele>99.4</ele>
        <time>2024-04-07T06:00:30Z</time>
      </trkpt>
      <trkpt lat="49.15311" lon="-0.22283">
        <ele>99.4</ele>
        <time>2024-04-07T06:00:31Z</time>
      </trkpt>
      <trkpt lat="49.15308" lon="-0.22292">
        <ele>99.4</ele>
        <time>2024-04-07T06:00:32Z</time>
      </trkpt>
      <trkpt lat="49.15305" lon="-0.22301">
        <ele>99.6</ele>
        <time>2024-04-07T06:00:33Z</time>
      </trkpt>
      <trkpt lat="49.15303" lon="-0.22311">
        <ele>99.6</ele>
        <time>2024-04-07T06:00:34Z</time>
      </trkpt>
      <trkpt lat="49.153" lon="-0.2232">
        <ele>99.8</ele>
        <time>2024-04-07T06:00:35Z</time>
      </trkpt>
      <trkpt lat="49.15297" lon="-0.2233">
        <ele>99.8</ele>
        <time>2024-04-07T06:00:36Z</time>
      </trkpt>
      <trkpt lat="49.15294" lon="-0.22339">
        <ele>99.8</ele>
        <time>2024-04-07T06:00:37Z</time>
      </trkpt>
      <trkpt lat="49.1529" lon="-0.22347">
        <ele>99.8</ele>
        <time>2024-04-07T06:00:38Z</time>
      </trkpt>
      <trkpt lat="49.15287" lon="-0.22355">
        <ele>99.8</ele>
        <time>2024-04-07T06:00:39Z</time>
      </trkpt>
      <trkpt lat="49.15282" lon="-0.22363">
        <ele>100</ele>
        <time>2024-04-07T06:00:40Z</time>
      </trkpt>
      <trkpt lat="49.15276" lon="-0.22369">
        <ele>99.8</ele>
        <time>2024-04-07T06:00:41Z</time>
      </trkpt>
      <trkpt lat="49.1527" lon="-0.22375">
        <ele>100</ele>
        <time>2024-04-07T06:00:42Z</time>
      </trkpt>
      <trkpt lat="49.15264" lon="-0.22381">
        <ele>100</ele>
        <time>2024-04-07T06:00:43Z</time>
      </trkpt>
      <trkpt lat="49.15258" lon="-0.22388">
        <ele>99.8</ele>
        <time>2024-04-07T06:00:44Z</time>
      </trkpt>
      <trkpt lat="49.15252" lon="-0.22394">
        <ele>99.6</ele>
        <time>2024-04-07T06:00:45Z</time>
      </trkpt>
      <trkpt lat="49.15247" lon="-0.224">
        <ele>99.4</ele>
        <time>2024-04-07T06:00:46Z</time>
      </trkpt>
      <trkpt lat="49.15241" lon="-0.22407">
        <ele>99.4</ele>
        <time>2024-04-07T06:00:47Z</time>
      </trkpt>
      <trkpt lat="49.15236" lon="-0.22414">
        <ele>99.2</ele>
        <time>2024-04-07T06:00:48Z</time>
      </trkpt>
      <trkpt lat="49.15231" lon="-0.22421">
        <ele>99.2</ele>
        <time>2024-04-07T06:00:49Z</time>
      </trkpt>
      <trkpt lat="49.15226" lon="-0.22428">
        <ele>99.2</ele>
        <time>2024-04-07T06:00:50Z</time>
      </trkpt>
      <trkpt lat="49.15221" lon="-0.22436">
        <ele>99.2</ele>
        <time>2024-04-07T06:00:51Z</time>
      </trkpt>
      <trkpt lat="49.15216" lon="-0.22443">
        <ele>99.4</ele>
        <time>2024-04-07T06:00:52Z</time>
      </trkpt>
      <trkpt lat="49.15212" lon="-0.2245">
        <ele>99.4</ele>
        <time>2024-04-07T06:00:53Z</time>
      </trkpt>
      <trkpt lat="49.15207" lon="-0.22457">
        <ele>99.6</ele>
        <time>2024-04-07T06:00:54Z</time>
      </trkpt>
      <trkpt lat="49.15203" lon="-0.22465">
        <ele>99.6</ele>
        <time>2024-04-07T06:00:55Z</time>
      </trkpt>
      <trkpt lat="49.15202" lon="-0.22474">
        <ele>99.8</ele>
        <time>2024-04-07T06:00:56Z</time>
      </trkpt>
      <trkpt lat="49.15203" lon="-0.22483">
        <ele>100</ele>
        <time>2024-04-07T06:00:57Z</time>
      </trkpt>
      <trkpt lat="49.15205" lon="-0.22491">
        <ele>100</ele>
        <time>2024-04-07T06:00:58Z</time>
      </trkpt>
      <trkpt lat="49.15208" lon="-0.225">
        <ele>100.4</ele>
        <time>2024-04-07T06:00:59Z</time>
      </trkpt>
      <trkpt lat="49.15212" lon="-0.22507">
        <ele>100.6</ele>
        <time>2024-04-07T06:01:00Z</time>
      </trkpt>
      <trkpt lat="49.15216" lon="-0.22515">
        <ele>100.8</ele>
        <time>2024-04-07T06:01:01Z</time>
      </trkpt>
      <trkpt lat="49.15219" lon="-0.22523">
        <ele>101</ele>
        <time>2024-04-07T06:01:02Z</time>
      </trkpt>
      <trkpt lat="49.15223" lon="-0.22531">
        <ele>101.2</ele>
        <time>2024-04-07T06:01:03Z</time>
      </trkpt>
      <trkpt lat="49.15226" lon="-0.22538">
        <ele>101.4</ele>
        <time>2024-04-07T06:01:04Z</time>
      </trkpt>
      <trkpt lat="49.1523" lon="-0.22545">
        <ele>101.8</ele>
        <time>2024-04-07T06:01:05Z</time>
      </trkpt>
      <trkpt lat="49.15234" lon="-0.22553">
        <ele>102</ele>
        <time>2024-04-07T06:01:06Z</time>
      </trkpt>
      <trkpt lat="49.15237" lon="-0.2256">
        <ele>102</ele>
        <time>2024-04-07T06:01:07Z</time>
      </trkpt>
      <trkpt lat="49.15241" lon="-0.22568">
        <ele>102.2</ele>
        <time>2024-04-07T06:01:08Z</time>
      </trkpt>
      <trkpt lat="49.15245" lon="-0.22576">
        <ele>102.2</ele>
        <time>2024-04-07T06:01:09Z</time>
      </trkpt>
      <trkpt lat="49.15248" lon="-0.22583">
        <ele>102.2</ele>
        <time>2024-04-07T06:01:10Z</time>
      </trkpt>
      <trkpt lat="49.15252" lon="-0.22591">
        <ele>102.2</ele>
        <time>2024-04-07T06:01:11Z</time>
      </trkpt>
      <trkpt lat="49.15256" lon="-0.22599">
        <ele>102</ele>
        <time>2024-04-07T06:01:12Z</time>
      </trkpt>
      <trkpt lat="49.15259" lon="-0.22606">
        <ele>102</ele>
        <time>2024-04-07T06:01:13Z</time>
      </trkpt>
      <trkpt lat="49.15263" lon="-0.22614">
        <ele>102.2</ele>
        <time>2024-04-07T06:01:14Z</time>
      </trkpt>
      <trkpt lat="49.15267" lon="-0.22622">
        <ele>102.2</ele>
        <time>2024-04-07T06:01:15Z</time>
      </trkpt>
      <trkpt lat="49.15271" lon="-0.2263">
        <ele>102.2</ele>
        <time>2024-04-07T06:01:16Z</time>
      </trkpt>
      <trkpt lat="49.15274" lon="-0.22637">
        <ele>102.2</ele>
        <time>2024-04-07T06:01:17Z</time>
      </trkpt>
      <trkpt lat="49.15277" lon="-0.22645">
        <ele>102.4</ele>
        <time>2024-04-07T06:01:18Z</time>
      </trkpt>
      <trkpt lat="49.15281" lon="-0.22653">
        <ele>102.6</ele>
        <time>2024-04-07T06:01:19Z</time>
      </trkpt>
      <trkpt lat="49.15284" lon="-0.22661">
        <ele>102.6</ele>
        <time>2024-04-07T06:01:20Z</time>
      </trkpt>
      <trkpt lat="49.15288" lon="-0.22669">
        <ele>102.8</ele>
        <time>2024-04-07T06:01:21Z</time>
      </trkpt>
      <trkpt lat="49.15291" lon="-0.22677">
        <ele>102.8</ele>
        <time>2024-04-07T06:01:22Z</time>
      </trkpt>
      <trkpt lat="49.15294" lon="-0.22684">
        <ele>103</ele>
        <time>2024-04-07T06:01:23Z</time>
      </trkpt>
      <trkpt lat="49.15296" lon="-0.22693">
        <ele>103.2</ele>
        <time>2024-04-07T06:01:24Z</time>
      </trkpt>
      <trkpt lat="49.15298" lon="-0.22702">
        <ele>103.4</ele>
        <time>2024-04-07T06:01:25Z</time>
      </trkpt>
      <trkpt lat="49.15299" lon="-0.22711">
        <ele>103.8</ele>
        <time>2024-04-07T06:01:26Z</time>
      </trkpt>
      <trkpt lat="49.15299" lon="-0.2272">
        <ele>104.2</ele>
        <time>2024-04-07T06:01:27Z</time>
      </trkpt>
      <trkpt lat="49.15298" lon="-0.22728">
        <ele>104.4</ele>
        <time>2024-04-07T06:01:28Z</time>
      </trkpt>
      <trkpt lat="49.15297" lon="-0.22737">
        <ele>104.6</ele>
        <time>2024-04-07T06:01:29Z</time>
      </trkpt>
      <trkpt lat="49.15295" lon="-0.22746">
        <ele>104.8</ele>
        <time>2024-04-07T06:01:30Z</time>
      </trkpt>
      <trkpt lat="49.15293" lon="-0.22755">
        <ele>105</ele>
        <time>2024-04-07T06:01:31Z</time>
      </trkpt>
      <trkpt lat="49.15291" lon="-0.22764">
        <ele>105</ele>
        <time>2024-04-07T06:01:32Z</time>
      </trkpt>
      <trkpt lat="49.1529" lon="-0.22773">
        <ele>105</ele>
        <time>2024-04-07T06:01:33Z</time>
      </trkpt>
      <trkpt lat="49.15288" lon="-0.22782">
        <ele>105</ele>
        <time>2024-04-07T06:01:34Z</time>
      </trkpt>
      <trkpt lat="49.15286" lon="-0.22792">
        <ele>105</ele>
        <time>2024-04-07T06:01:35Z</time>
      </trkpt>
      <trkpt lat="49.15284" lon="-0.22801">
        <ele>105</ele>
        <time>2024-04-07T06:01:36Z</time>
      </trkpt>
      <trkpt lat="49.15282" lon="-0.2281">
        <ele>105</ele>
        <time>2024-04-07T06:01:37Z</time>
      </trkpt>
      <trkpt lat="49.1528" lon="-0.22819">
        <ele>105</ele>
        <time>2024-04-07T06:01:38Z</time>
      </trkpt>
      <trkpt lat="49.15278" lon="-0.22828">
        <ele>105</ele>
        <time>2024-04-07T06:01:39Z</time>
      </trkpt>
      <trkpt lat="49.15276" lon="-0.22837">
        <ele>105.4</ele>
        <time>2024-04-07T06:01:40Z</time>
      </trkpt>
      <trkpt lat="49.15274" lon="-0.22846">
        <ele>105.8</ele>
        <time>2024-04-07T06:01:41Z</time>
      </trkpt>
      <trkpt lat="49.15272" lon="-0.22855">
        <ele>106</ele>
        <time>2024-04-07T06:01:42Z</time>
      </trkpt>
      <trkpt lat="49.1527" lon="-0.22864">
        <ele>106.4</ele>
        <time>2024-04-07T06:01:43Z</time>
      </trkpt>
      <trkpt lat="49.15268" lon="-0.22873">
        <ele>106.6</ele>
        <time>2024-04-07T06:01:44Z</time>
      </trkpt>
      <trkpt lat="49.15266" lon="-0.22883">
        <ele>106.8</ele>
        <time>2024-04-07T06:01:45Z</time>
      </trkpt>
      <trkpt lat="49.15265" lon="-0.22892">
        <ele>107</ele>
        <time>2024-04-07T06:01:46Z</time>
      </trkpt>
      <trkpt lat="49.15263" lon="-0.22902">
        <ele>107</ele>
        <time>2024-04-07T06:01:47Z</time>
      </trkpt>
      <trkpt lat="49.15261" lon="-0.22911">
        <ele>106.8</ele>
        <time>2024-04-07T06:01:48Z</time>
      </trkpt>
      <trkpt lat="49.15259" lon="-0.2292">
        <ele>106.6</ele>
        <time>2024-04-07T06:01:49Z</time>
      </trkpt>
      <trkpt lat="49.15257" lon="-0.2293">
        <ele>106.6</ele>
        <time>2024-04-07T06:01:50Z</time>
      </trkpt>
      <trkpt lat="49.15255" lon="-0.2294">
        <ele>106.4</ele>
        <time>2024-04-07T06:01:51Z</time>
      </trkpt>
      <trkpt lat="49.15253" lon="-0.22949">
        <ele>106.4</ele>
        <time>2024-04-07T06:01:52Z</time>
      </trkpt>
      <trkpt lat="49.15251" lon="-0.22959">
        <ele>106.6</ele>
        <time>2024-04-07T06:01:53Z</time>
      </trkpt>
      <trkpt lat="49.15249" lon="-0.22968">
        <ele>107</ele>
        <time>2024-04-07T06:01:54Z</time>
      </trkpt>
      <trkpt lat="49.15247" lon="-0.22978">
        <ele>107.4</ele>
        <time>2024-04-07T06:01:55Z</time>
      </trkpt>
      <trkpt lat="49.15245" lon="-0.22987">
        <ele>107.6</ele>
        <time>2024-04-07T06:01:56Z</time>
      </trkpt>
      <trkpt lat="49.15243" lon="-0.22997">
        <ele>107.6</ele>
        <time>2024-04-07T06:01:57Z</time>
      </trkpt>
      <trkpt lat="49.15241" lon="-0.23007">
        <ele>107.8</ele>
        <time>2024-04-07T06:01:58Z</time>
      </trkpt>
      <trkpt lat="49.15239" lon="-0.23016">
        <ele>107.8</ele>
        <time>2024-04-07T06:01:59Z</time>
      </trkpt>
      <trkpt lat="49.15237" lon="-0.23025">
        <ele>107.8</ele>
        <time>2024-04-07T06:02:00Z</time>
      </trkpt>
      <trkpt lat="49.15235" lon="-0.23034">
        <ele>107.6</ele>
        <time>2024-04-07T06:02:01Z</time>
      </trkpt>
      <trkpt lat="49.15233" lon="-0.23043">
        <ele>107.4</ele>
        <time>2024-04-07T06:02:02Z</time>
      </trkpt>
      <trkpt lat="49.15231" lon="-0.23052">
        <ele>107.2</ele>
        <time>2024-04-07T06:02:03Z</time>
      </trkpt>
      <trkpt lat="49.15229" lon="-0.23061">
        <ele>106.8</ele>
        <time>2024-04-07T06:02:04Z</time>
      </trkpt>
      <trkpt lat="49.15227" lon="-0.23071">
        <ele>106.8</ele>
        <time>2024-04-07T06:02:05Z</time>
      </trkpt>
      <trkpt lat="49.15225" lon="-0.2308">
        <ele>106.6</ele>
        <time>2024-04-07T06:02:06Z</time>
      </trkpt>
      <trkpt lat="49.15223" lon="-0.23089">
        <ele>106.6</ele>
        <time>2024-04-07T06:02:07Z</time>
      </trkpt>
      <trkpt lat="49.15221" lon="-0.23099">
        <ele>106.4</ele>
        <time>2024-04-07T06:02:08Z</time>
      </trkpt>
      <trkpt lat="49.15219" lon="-0.23108">
        <ele>106.4</ele>
        <time>2024-04-07T06:02:09Z</time>
      </trkpt>
      <trkpt lat="49.15217" lon="-0.23117">
        <ele>106.4</ele>
        <time>2024-04-07T06:02:10Z</time>
      </trkpt>
      <trkpt lat="49.15215" lon="-0.23127">
        <ele>106.6</ele>
        <time>2024-04-07T06:02:11Z</time>
      </trkpt>
      <trkpt lat="49.15213" lon="-0.23136">
        <ele>106.6</ele>
        <time>2024-04-07T06:02:12Z</time>
      </trkpt>
      <trkpt lat="49.15211" lon="-0.23146">
        <ele>106.6</ele>
        <time>2024-04-07T06:02:13Z</time>
      </trkpt>
      <trkpt lat="49.15209" lon="-0.23155">
        <ele>106.6</ele>
        <time>2024-04-07T06:02:14Z</time>
      </trkpt>
      <trkpt lat="49.15207" lon="-0.23164">
        <ele>106.6</ele>
        <time>2024-04-07T06:02:15Z</time>
      </trkpt>
      <trkpt lat="49.15206" lon="-0.23174">
        <ele>106.8</ele>
        <time>2024-04-07T06:02:16Z</time>
      </trkpt>
      <trkpt lat="49.15204" lon="-0.23183">
        <ele>106.8</ele>
        <time>2024-04-07T06:02:17Z</time>
      </trkpt>
      <trkpt lat="49.15202" lon="-0.23193">
        <ele>106.8</ele>
        <time>2024-04-07T06:02:18Z</time>
      </trkpt>
      <trkpt lat="49.152" lon="-0.23202">
        <ele>107</ele>
        <time>2024-04-07T06:02:19Z</time>
      </trkpt>
      <trkpt lat="49.15198" lon="-0.23212">
        <ele>107</ele>
        <time>2024-04-07T06:02:20Z</time>
      </trkpt>
      <trkpt lat="49.15196" lon="-0.23222">
        <ele>107</ele>
        <time>2024-04-07T06:02:21Z</time>
      </trkpt>
      <trkpt lat="49.15194" lon="-0.23231">
        <ele>107</ele>
        <time>2024-04-07T06:02:22Z</time>
      </trkpt>
      <trkpt lat="49.15193" lon="-0.23241">
        <ele>107</ele>
        <time>2024-04-07T06:02:23Z</time>
      </trkpt>
      <trkpt lat="49.15191" lon="-0.23251">
        <ele>107</ele>
        <time>2024-04-07T06:02:24Z</time>
      </trkpt>
      <trkpt lat="49.15189" lon="-0.2326">
        <ele>107</ele>
        <time>2024-04-07T06:02:25Z</time>
      </trkpt>
      <trkpt lat="49.15187" lon="-0.2327">
        <ele>107</ele>
        <time>2024-04-07T06:02:26Z</time>
      </trkpt>
      <trkpt lat="49.15185" lon="-0.23279">
        <ele>107</ele>
        <time>2024-04-07T06:02:27Z</time>
      </trkpt>
      <trkpt lat="49.15183" lon="-0.23288">
        <ele>107</ele>
        <time>2024-04-07T06:02:28Z</time>
      </trkpt>
      <trkpt lat="49.15181" lon="-0.23298">
        <ele>107</ele>
        <time>2024-04-07T06:02:29Z</time>
      </trkpt>
      <trkpt lat="49.15179" lon="-0.23307">
        <ele>107.2</ele>
        <time>2024-04-07T06:02:30Z</time>
      </trkpt>
      <trkpt lat="49.15177" lon="-0.23316">
        <ele>107.2</ele>
        <time>2024-04-07T06:02:31Z</time>
      </trkpt>
      <trkpt lat="49.15175" lon="-0.23325">
        <ele>107.4</ele>
        <time>2024-04-07T06:02:32Z</time>
      </trkpt>
      <trkpt lat="49.15173" lon="-0.23335">
        <ele>107.4</ele>
        <time>2024-04-07T06:02:33Z</time>
      </trkpt>
      <trkpt lat="49.15171" lon="-0.23344">
        <ele>107.4</ele>
        <time>2024-04-07T06:02:34Z</time>
      </trkpt>
      <trkpt lat="49.15169" lon="-0.23353">
        <ele>107.6</ele>
        <time>2024-04-07T06:02:35Z</time>
      </trkpt>
      <trkpt lat="49.15167" lon="-0.23363">
        <ele>107.6</ele>
        <time>2024-04-07T06:02:36Z</time>
      </trkpt>
      <trkpt lat="49.15166" lon="-0.23372">
        <ele>107.8</ele>
        <time>2024-04-07T06:02:37Z</time>
      </trkpt>
      <trkpt lat="49.15164" lon="-0.23381">
        <ele>107.8</ele>
        <time>2024-04-07T06:02:38Z</time>
      </trkpt>
      <trkpt lat="49.15162" lon="-0.23391">
        <ele>107.8</ele>
        <time>2024-04-07T06:02:39Z</time>
      </trkpt>
      <trkpt lat="49.1516" lon="-0.234">
        <ele>107.8</ele>
        <time>2024-04-07T06:02:40Z</time>
      </trkpt>
      <trkpt lat="49.15158" lon="-0.23409">
        <ele>107.8</ele>
        <time>2024-04-07T06:02:41Z</time>
      </trkpt>
      <trkpt lat="49.15156" lon="-0.23418">
        <ele>108</ele>
        <time>2024-04-07T06:02:42Z</time>
      </trkpt>
      <trkpt lat="49.15154" lon="-0.23428">
        <ele>108</ele>
        <time>2024-04-07T06:02:43Z</time>
      </trkpt>
      <trkpt lat="49.1515" lon="-0.23447">
        <ele>108</ele>
        <time>2024-04-07T06:02:44Z</time>
      </trkpt>
      <trkpt lat="49.15149" lon="-0.23451">
        <ele>108</ele>
        <time>2024-04-07T06:02:45Z</time>
      </trkpt>
      <trkpt lat="49.15148" lon="-0.23456">
        <ele>108</ele>
        <time>2024-04-07T06:02:46Z</time>
      </trkpt>
      <trkpt lat="49.15147" lon="-0.23466">
        <ele>108</ele>
        <time>2024-04-07T06:02:47Z</time>
      </trkpt>
      <trkpt lat="49.15145" lon="-0.23475">
        <ele>108.2</ele>
        <time>2024-04-07T06:02:48Z</time>
      </trkpt>
      <trkpt lat="49.15143" lon="-0.23485">
        <ele>108.4</ele>
        <time>2024-04-07T06:02:49Z</time>
      </trkpt>
      <trkpt lat="49.15141" lon="-0.23494">
        <ele>108.6</ele>
        <time>2024-04-07T06:02:50Z</time>
      </trkpt>
      <trkpt lat="49.15139" lon="-0.23503">
        <ele>108.6</ele>
        <time>2024-04-07T06:02:51Z</time>
      </trkpt>
      <trkpt lat="49.15138" lon="-0.23512">
        <ele>108.8</ele>
        <time>2024-04-07T06:02:52Z</time>
      </trkpt>
      <trkpt lat="49.15136" lon="-0.23521">
        <ele>108.8</ele>
        <time>2024-04-07T06:02:53Z</time>
      </trkpt>
      <trkpt lat="49.15134" lon="-0.2353">
        <ele>109</ele>
        <time>2024-04-07T06:02:54Z</time>
      </trkpt>
      <trkpt lat="49.15132" lon="-0.23538">
        <ele>109.2</ele>
        <time>2024-04-07T06:02:55Z</time>
      </trkpt>
      <trkpt lat="49.1513" lon="-0.23547">
        <ele>109.4</ele>
        <time>2024-04-07T06:02:56Z</time>
      </trkpt>
      <trkpt lat="49.15127" lon="-0.23555">
        <ele>109.8</ele>
        <time>2024-04-07T06:02:57Z</time>
      </trkpt>
      <trkpt lat="49.15125" lon="-0.23563">
        <ele>110.4</ele>
        <time>2024-04-07T06:02:58Z</time>
      </trkpt>
      <trkpt lat="49.15123" lon="-0.23572">
        <ele>110.8</ele>
        <time>2024-04-07T06:02:59Z</time>
      </trkpt>
      <trkpt lat="49.15121" lon="-0.2358">
        <ele>111</ele>
        <time>2024-04-07T06:03:00Z</time>
      </trkpt>
      <trkpt lat="49.15119" lon="-0.23589">
        <ele>111.4</ele>
        <time>2024-04-07T06:03:01Z</time>
      </trkpt>
      <trkpt lat="49.15117" lon="-0.23597">
        <ele>111.6</ele>
        <time>2024-04-07T06:03:02Z</time>
      </trkpt>
      <trkpt lat="49.15115" lon="-0.23606">
        <ele>111.8</ele>
        <time>2024-04-07T06:03:03Z</time>
      </trkpt>
      <trkpt lat="49.15112" lon="-0.23615">
        <ele>112.2</ele>
        <time>2024-04-07T06:03:04Z</time>
      </trkpt>
      <trkpt lat="49.1511" lon="-0.23623">
        <ele>112.4</ele>
        <time>2024-04-07T06:03:05Z</time>
      </trkpt>
      <trkpt lat="49.15108" lon="-0.23631">
        <ele>112.6</ele>
        <time>2024-04-07T06:03:06Z</time>
      </trkpt>
      <trkpt lat="49.15106" lon="-0.2364">
        <ele>113</ele>
        <time>2024-04-07T06:03:07Z</time>
      </trkpt>
      <trkpt lat="49.15104" lon="-0.23648">
        <ele>113.2</ele>
        <time>2024-04-07T06:03:08Z</time>
      </trkpt>
      <trkpt lat="49.15101" lon="-0.23656">
        <ele>113.4</ele>
        <time>2024-04-07T06:03:09Z</time>
      </trkpt>
      <trkpt lat="49.15099" lon="-0.23665">
        <ele>113.6</ele>
        <time>2024-04-07T06:03:10Z</time>
      </trkpt>
      <trkpt lat="49.15097" lon="-0.23673">
        <ele>113.6</ele>
        <time>2024-04-07T06:03:11Z</time>
      </trkpt>
      <trkpt lat="49.15095" lon="-0.23681">
        <ele>113.8</ele>
        <time>2024-04-07T06:03:12Z</time>
      </trkpt>
      <trkpt lat="49.15092" lon="-0.23689">
        <ele>114</ele>
        <time>2024-04-07T06:03:13Z</time>
      </trkpt>
      <trkpt lat="49.1509" lon="-0.23698">
        <ele>114.2</ele>
        <time>2024-04-07T06:03:14Z</time>
      </trkpt>
      <trkpt lat="49.15088" lon="-0.23706">
        <ele>114.4</ele>
        <time>2024-04-07T06:03:15Z</time>
      </trkpt>
      <trkpt lat="49.15085" lon="-0.23714">
        <ele>114.4</ele>
        <time>2024-04-07T06:03:16Z</time>
      </trkpt>
      <trkpt lat="49.15083" lon="-0.23723">
        <ele>114.6</ele>
        <time>2024-04-07T06:03:17Z</time>
      </trkpt>
      <trkpt lat="49.1508" lon="-0.23731">
        <ele>114.6</ele>
        <time>2024-04-07T06:03:18Z</time>
      </trkpt>
      <trkpt lat="49.15078" lon="-0.2374">
        <ele>114.6</ele>
        <time>2024-04-07T06:03:19Z</time>
      </trkpt>
      <trkpt lat="49.15075" lon="-0.23748">
        <ele>114.6</ele>
        <time>2024-04-07T06:03:20Z</time>
      </trkpt>
      <trkpt lat="49.15073" lon="-0.23756">
        <ele>114.6</ele>
        <time>2024-04-07T06:03:21Z</time>
      </trkpt>
      <trkpt lat="49.1507" lon="-0.23765">
        <ele>114.6</ele>
        <time>2024-04-07T06:03:22Z</time>
      </trkpt>
      <trkpt lat="49.15068" lon="-0.23773">
        <ele>114.6</ele>
        <time>2024-04-07T06:03:23Z</time>
      </trkpt>
      <trkpt lat="49.15065" lon="-0.23781">
        <ele>114.6</ele>
        <time>2024-04-07T06:03:24Z</time>
      </trkpt>
      <trkpt lat="49.15063" lon="-0.2379">
        <ele>114.8</ele>
        <time>2024-04-07T06:03:25Z</time>
      </trkpt>
      <trkpt lat="49.1506" lon="-0.23798">
        <ele>114.8</ele>
        <time>2024-04-07T06:03:26Z</time>
      </trkpt>
      <trkpt lat="49.15057" lon="-0.23807">
        <ele>115</ele>
        <time>2024-04-07T06:03:27Z</time>
      </trkpt>
      <trkpt lat="49.15055" lon="-0.23815">
        <ele>115.2</ele>
        <time>2024-04-07T06:03:28Z</time>
      </trkpt>
      <trkpt lat="49.15052" lon="-0.23823">
        <ele>115.4</ele>
        <time>2024-04-07T06:03:29Z</time>
      </trkpt>
      <trkpt lat="49.1505" lon="-0.23832">
        <ele>115.6</ele>
        <time>2024-04-07T06:03:30Z</time>
      </trkpt>
      <trkpt lat="49.15048" lon="-0.2384">
        <ele>115.6</ele>
        <time>2024-04-07T06:03:31Z</time>
      </trkpt>
      <trkpt lat="49.15045" lon="-0.23849">
        <ele>115.6</ele>
        <time>2024-04-07T06:03:32Z</time>
      </trkpt>
      <trkpt lat="49.15043" lon="-0.23858">
        <ele>115.8</ele>
        <time>2024-04-07T06:03:33Z</time>
      </trkpt>
      <trkpt lat="49.15041" lon="-0.23867">
        <ele>115.6</ele>
        <time>2024-04-07T06:03:34Z</time>
      </trkpt>
      <trkpt lat="49.15039" lon="-0.23876">
        <ele>115.6</ele>
        <time>2024-04-07T06:03:35Z</time>
      </trkpt>
      <trkpt lat="49.15037" lon="-0.23885">
        <ele>115.6</ele>
        <time>2024-04-07T06:03:36Z</time>
      </trkpt>
      <trkpt lat="49.15036" lon="-0.23894">
        <ele>115.4</ele>
        <time>2024-04-07T06:03:37Z</time>
      </trkpt>
      <trkpt lat="49.15034" lon="-0.23904">
        <ele>115.4</ele>
        <time>2024-04-07T06:03:38Z</time>
      </trkpt>
      <trkpt lat="49.15033" lon="-0.23913">
        <ele>115.2</ele>
        <time>2024-04-07T06:03:39Z</time>
      </trkpt>
      <trkpt lat="49.15032" lon="-0.23923">
        <ele>115</ele>
        <time>2024-04-07T06:03:40Z</time>
      </trkpt>
      <trkpt lat="49.15031" lon="-0.23933">
        <ele>114.8</ele>
        <time>2024-04-07T06:03:41Z</time>
      </trkpt>
      <trkpt lat="49.1503" lon="-0.23942">
        <ele>114.6</ele>
        <time>2024-04-07T06:03:42Z</time>
      </trkpt>
      <trkpt lat="49.15029" lon="-0.23952">
        <ele>114.2</ele>
        <time>2024-04-07T06:03:43Z</time>
      </trkpt>
      <trkpt lat="49.15029" lon="-0.23962">
        <ele>114</ele>
        <time>2024-04-07T06:03:44Z</time>
      </trkpt>
      <trkpt lat="49.15028" lon="-0.23972">
        <ele>113.8</ele>
        <time>2024-04-07T06:03:45Z</time>
      </trkpt>
      <trkpt lat="49.15027" lon="-0.23982">
        <ele>113.6</ele>
        <time>2024-04-07T06:03:46Z</time>
      </trkpt>
      <trkpt lat="49.15027" lon="-0.23992">
        <ele>113.4</ele>
        <time>2024-04-07T06:03:47Z</time>
      </trkpt>
      <trkpt lat="49.15026" lon="-0.24002">
        <ele>113.2</ele>
        <time>2024-04-07T06:03:48Z</time>
      </trkpt>
      <trkpt lat="49.15026" lon="-0.24013">
        <ele>113</ele>
        <time>2024-04-07T06:03:49Z</time>
      </trkpt>
      <trkpt lat="49.15025" lon="-0.24023">
        <ele>113</ele>
        <time>2024-04-07T06:03:50Z</time>
      </trkpt>
      <trkpt lat="49.15024" lon="-0.24033">
        <ele>112.8</ele>
        <time>2024-04-07T06:03:51Z</time>
      </trkpt>
      <trkpt lat="49.15023" lon="-0.24043">
        <ele>112.8</ele>
        <time>2024-04-07T06:03:52Z</time>
      </trkpt>
      <trkpt lat="49.15022" lon="-0.24053">
        <ele>112.8</ele>
        <time>2024-04-07T06:03:53Z</time>
      </trkpt>
      <trkpt lat="49.15021" lon="-0.24063">
        <ele>112.8</ele>
        <time>2024-04-07T06:03:54Z</time>
      </trkpt>
      <trkpt lat="49.1502" lon="-0.24073">
        <ele>112.8</ele>
        <time>2024-04-07T06:03:55Z</time>
      </trkpt>
      <trkpt lat="49.15019" lon="-0.24083">
        <ele>112.8</ele>
        <time>2024-04-07T06:03:56Z</time>
      </trkpt>
      <trkpt lat="49.15018" lon="-0.24094">
        <ele>112.8</ele>
        <time>2024-04-07T06:03:57Z</time>
      </trkpt>
      <trkpt lat="49.15017" lon="-0.24104">
        <ele>113</ele>
        <time>2024-04-07T06:03:58Z</time>
      </trkpt>
      <trkpt lat="49.15015" lon="-0.24113">
        <ele>113</ele>
        <time>2024-04-07T06:03:59Z</time>
      </trkpt>
      <trkpt lat="49.15013" lon="-0.24123">
        <ele>113</ele>
        <time>2024-04-07T06:04:00Z</time>
      </trkpt>
      <trkpt lat="49.15012" lon="-0.24132">
        <ele>113</ele>
        <time>2024-04-07T06:04:01Z</time>
      </trkpt>
      <trkpt lat="49.1501" lon="-0.24142">
        <ele>113</ele>
        <time>2024-04-07T06:04:02Z</time>
      </trkpt>
      <trkpt lat="49.15008" lon="-0.24151">
        <ele>113</ele>
        <time>2024-04-07T06:04:03Z</time>
      </trkpt>
      <trkpt lat="49.15006" lon="-0.24161">
        <ele>113</ele>
        <time>2024-04-07T06:04:04Z</time>
      </trkpt>
      <trkpt lat="49.15004" lon="-0.2417">
        <ele>112.8</ele>
        <time>2024-04-07T06:04:05Z</time>
      </trkpt>
      <trkpt lat="49.15002" lon="-0.2418">
        <ele>112.8</ele>
        <time>2024-04-07T06:04:06Z</time>
      </trkpt>
      <trkpt lat="49.15001" lon="-0.24189">
        <ele>112.8</ele>
        <time>2024-04-07T06:04:07Z</time>
      </trkpt>
      <trkpt lat="49.14999" lon="-0.24199">
        <ele>112.8</ele>
        <time>2024-04-07T06:04:08Z</time>
      </trkpt>
      <trkpt lat="49.14996" lon="-0.24208">
        <ele>112.8</ele>
        <time>2024-04-07T06:04:09Z</time>
      </trkpt>
      <trkpt lat="49.14994" lon="-0.24218">
        <ele>112.8</ele>
        <time>2024-04-07T06:04:10Z</time>
      </trkpt>
      <trkpt lat="49.14992" lon="-0.24228">
        <ele>113</ele>
        <time>2024-04-07T06:04:11Z</time>
      </trkpt>
      <trkpt lat="49.1499" lon="-0.24238">
        <ele>113</ele>
        <time>2024-04-07T06:04:12Z</time>
      </trkpt>
      <trkpt lat="49.14988" lon="-0.24247">
        <ele>113.2</ele>
        <time>2024-04-07T06:04:13Z</time>
      </trkpt>
      <trkpt lat="49.14986" lon="-0.24257">
        <ele>113.2</ele>
        <time>2024-04-07T06:04:14Z</time>
      </trkpt>
      <trkpt lat="49.14984" lon="-0.24267">
        <ele>113.4</ele>
        <time>2024-04-07T06:04:15Z</time>
      </trkpt>
      <trkpt lat="49.14982" lon="-0.24276">
        <ele>113.4</ele>
        <time>2024-04-07T06:04:16Z</time>
      </trkpt>
      <trkpt lat="49.1498" lon="-0.24286">
        <ele>113.4</ele>
        <time>2024-04-07T06:04:17Z</time>
      </trkpt>
      <trkpt lat="49.14978" lon="-0.24296">
        <ele>113.4</ele>
        <time>2024-04-07T06:04:18Z</time>
      </trkpt>
      <trkpt lat="49.14976" lon="-0.24306">
        <ele>113.4</ele>
        <time>2024-04-07T06:04:19Z</time>
      </trkpt>
      <trkpt lat="49.14974" lon="-0.24316">
        <ele>113.4</ele>
        <time>2024-04-07T06:04:20Z</time>
      </trkpt>
      <trkpt lat="49.14972" lon="-0.24326">
        <ele>113.4</ele>
        <time>2024-04-07T06:04:21Z</time>
      </trkpt>
      <trkpt lat="49.14969" lon="-0.24336">
        <ele>113.2</ele>
        <time>2024-04-07T06:04:22Z</time>
      </trkpt>
      <trkpt lat="49.14967" lon="-0.24345">
        <ele>113.2</ele>
        <time>2024-04-07T06:04:23Z</time>
      </trkpt>
      <trkpt lat="49.14965" lon="-0.24355">
        <ele>113.2</ele>
        <time>2024-04-07T06:04:24Z</time>
      </trkpt>
      <trkpt lat="49.14963" lon="-0.24365">
        <ele>113.2</ele>
        <time>2024-04-07T06:04:25Z</time>
      </trkpt>
      <trkpt lat="49.14961" lon="-0.24375">
        <ele>113.2</ele>
        <time>2024-04-07T06:04:26Z</time>
      </trkpt>
      <trkpt lat="49.14959" lon="-0.24385">
        <ele>113</ele>
        <time>2024-04-07T06:04:27Z</time>
      </trkpt>
      <trkpt lat="49.14956" lon="-0.24394">
        <ele>113</ele>
        <time>2024-04-07T06:04:28Z</time>
      </trkpt>
      <trkpt lat="49.14954" lon="-0.24404">
        <ele>113</ele>
        <time>2024-04-07T06:04:29Z</time>
      </trkpt>
      <trkpt lat="49.14951" lon="-0.24414">
        <ele>113</ele>
        <time>2024-04-07T06:04:30Z</time>
      </trkpt>
      <trkpt lat="49.14949" lon="-0.24424">
        <ele>113</ele>
        <time>2024-04-07T06:04:31Z</time>
      </trkpt>
      <trkpt lat="49.14947" lon="-0.24434">
        <ele>113</ele>
        <time>2024-04-07T06:04:32Z</time>
      </trkpt>
      <trkpt lat="49.14944" lon="-0.24444">
        <ele>112.8</ele>
        <time>2024-04-07T06:04:33Z</time>
      </trkpt>
      <trkpt lat="49.14942" lon="-0.24454">
        <ele>112.8</ele>
        <time>2024-04-07T06:04:34Z</time>
      </trkpt>
      <trkpt lat="49.1494" lon="-0.24463">
        <ele>113</ele>
        <time>2024-04-07T06:04:35Z</time>
      </trkpt>
      <trkpt lat="49.14937" lon="-0.24473">
        <ele>113</ele>
        <time>2024-04-07T06:04:36Z</time>
      </trkpt>
      <trkpt lat="49.14935" lon="-0.24483">
        <ele>113</ele>
        <time>2024-04-07T06:04:37Z</time>
      </trkpt>
      <trkpt lat="49.14933" lon="-0.24493">
        <ele>113.2</ele>
        <time>2024-04-07T06:04:38Z</time>
      </trkpt>
      <trkpt lat="49.1493" lon="-0.24502">
        <ele>113.2</ele>
        <time>2024-04-07T06:04:39Z</time>
      </trkpt>
      <trkpt lat="49.14928" lon="-0.24512">
        <ele>113.2</ele>
        <time>2024-04-07T06:04:40Z</time>
      </trkpt>
      <trkpt lat="49.14926" lon="-0.24521">
        <ele>113.2</ele>
        <time>2024-04-07T06:04:41Z</time>
      </trkpt>
      <trkpt lat="49.14924" lon="-0.24531">
        <ele>113.2</ele>
        <time>2024-04-07T06:04:42Z</time>
      </trkpt>
      <trkpt lat="49.14922" lon="-0.24541">
        <ele>113</ele>
        <time>2024-04-07T06:04:43Z</time>
      </trkpt>
      <trkpt lat="49.1492" lon="-0.2455">
        <ele>113</ele>
        <time>2024-04-07T06:04:44Z</time>
      </trkpt>
      <trkpt lat="49.14918" lon="-0.2456">
        <ele>112.8</ele>
        <time>2024-04-07T06:04:45Z</time>
      </trkpt>
      <trkpt lat="49.14915" lon="-0.24569">
        <ele>112.8</ele>
        <time>2024-04-07T06:04:46Z</time>
      </trkpt>
      <trkpt lat="49.14911" lon="-0.24589">
        <ele>112.8</ele>
        <time>2024-04-07T06:04:47Z</time>
      </trkpt>
      <trkpt lat="49.1491" lon="-0.24593">
        <ele>112.6</ele>
        <time>2024-04-07T06:04:48Z</time>
      </trkpt>
      <trkpt lat="49.14909" lon="-0.24598">
        <ele>112.4</ele>
        <time>2024-04-07T06:04:49Z</time>
      </trkpt>
      <trkpt lat="49.14907" lon="-0.24608">
        <ele>112.2</ele>
        <time>2024-04-07T06:04:50Z</time>
      </trkpt>
      <trkpt lat="49.14905" lon="-0.24618">
        <ele>112.2</ele>
        <time>2024-04-07T06:04:51Z</time>
      </trkpt>
      <trkpt lat="49.14903" lon="-0.24628">
        <ele>112</ele>
        <time>2024-04-07T06:04:52Z</time>
      </trkpt>
      <trkpt lat="49.149" lon="-0.24637">
        <ele>112</ele>
        <time>2024-04-07T06:04:53Z</time>
      </trkpt>
      <trkpt lat="49.14898" lon="-0.24647">
        <ele>112</ele>
        <time>2024-04-07T06:04:54Z</time>
      </trkpt>
      <trkpt lat="49.14896" lon="-0.24657">
        <ele>111.8</ele>
        <time>2024-04-07T06:04:55Z</time>
      </trkpt>
      <trkpt lat="49.14894" lon="-0.24667">
        <ele>111.6</ele>
        <time>2024-04-07T06:04:56Z</time>
      </trkpt>
      <trkpt lat="49.14891" lon="-0.24676">
        <ele>111.6</ele>
        <time>2024-04-07T06:04:57Z</time>
      </trkpt>
      <trkpt lat="49.14889" lon="-0.24686">
        <ele>111.6</ele>
        <time>2024-04-07T06:04:58Z</time>
      </trkpt>
      <trkpt lat="49.14887" lon="-0.24696">
        <ele>111.6</ele>
        <time>2024-04-07T06:04:59Z</time>
      </trkpt>
      <trkpt lat="49.14885" lon="-0.24705">
        <ele>111.6</ele>
        <time>2024-04-07T06:05:00Z</time>
      </trkpt>
      <trkpt lat="49.14883" lon="-0.24715">
        <ele>111.6</ele>
        <time>2024-04-07T06:05:01Z</time>
      </trkpt>
      <trkpt lat="49.14881" lon="-0.24725">
        <ele>111.6</ele>
        <time>2024-04-07T06:05:02Z</time>
      </trkpt>
      <trkpt lat="49.14878" lon="-0.24734">
        <ele>111.6</ele>
        <time>2024-04-07T06:05:03Z</time>
      </trkpt>
      <trkpt lat="49.14876" lon="-0.24744">
        <ele>111.4</ele>
        <time>2024-04-07T06:05:04Z</time>
      </trkpt>
      <trkpt lat="49.14874" lon="-0.24754">
        <ele>111.4</ele>
        <time>2024-04-07T06:05:05Z</time>
      </trkpt>
      <trkpt lat="49.14872" lon="-0.24763">
        <ele>111.4</ele>
        <time>2024-04-07T06:05:06Z</time>
      </trkpt>
      <trkpt lat="49.1487" lon="-0.24773">
        <ele>111.4</ele>
        <time>2024-04-07T06:05:07Z</time>
      </trkpt>
      <trkpt lat="49.14868" lon="-0.24782">
        <ele>111.4</ele>
        <time>2024-04-07T06:05:08Z</time>
      </trkpt>
      <trkpt lat="49.14866" lon="-0.24792">
        <ele>111.4</ele>
        <time>2024-04-07T06:05:09Z</time>
      </trkpt>
      <trkpt lat="49.14864" lon="-0.24801">
        <ele>111.6</ele>
        <time>2024-04-07T06:05:10Z</time>
      </trkpt>
      <trkpt lat="49.14862" lon="-0.24811">
        <ele>111.6</ele>
        <time>2024-04-07T06:05:11Z</time>
      </trkpt>
      <trkpt lat="49.1486" lon="-0.24821">
        <ele>111.6</ele>
        <time>2024-04-07T06:05:12Z</time>
      </trkpt>
      <trkpt lat="49.14857" lon="-0.2483">
        <ele>111.8</ele>
        <time>2024-04-07T06:05:13Z</time>
      </trkpt>
      <trkpt lat="49.14855" lon="-0.2484">
        <ele>111.8</ele>
        <time>2024-04-07T06:05:14Z</time>
      </trkpt>
      <trkpt lat="49.14853" lon="-0.24849">
        <ele>112</ele>
        <time>2024-04-07T06:05:15Z</time>
      </trkpt>
      <trkpt lat="49.14851" lon="-0.24859">
        <ele>112</ele>
        <time>2024-04-07T06:05:16Z</time>
      </trkpt>
      <trkpt lat="49.14849" lon="-0.24869">
        <ele>112</ele>
        <time>2024-04-07T06:05:17Z</time>
      </trkpt>
      <trkpt lat="49.14847" lon="-0.24878">
        <ele>112.2</ele>
        <time>2024-04-07T06:05:18Z</time>
      </trkpt>
      <trkpt lat="49.14845" lon="-0.24888">
        <ele>112.2</ele>
        <time>2024-04-07T06:05:19Z</time>
      </trkpt>
      <trkpt lat="49.14843" lon="-0.24897">
        <ele>112.2</ele>
        <time>2024-04-07T06:05:20Z</time>
      </trkpt>
      <trkpt lat="49.1484" lon="-0.24906">
        <ele>112.4</ele>
        <time>2024-04-07T06:05:21Z</time>
      </trkpt>
      <trkpt lat="49.14838" lon="-0.24915">
        <ele>112.6</ele>
        <time>2024-04-07T06:05:22Z</time>
      </trkpt>
      <trkpt lat="49.14834" lon="-0.24924">
        <ele>112.6</ele>
        <time>2024-04-07T06:05:23Z</time>
      </trkpt>
      <trkpt lat="49.14831" lon="-0.24932">
        <ele>112.6</ele>
        <time>2024-04-07T06:05:24Z</time>
      </trkpt>
      <trkpt lat="49.14827" lon="-0.2494">
        <ele>112.6</ele>
        <time>2024-04-07T06:05:25Z</time>
      </trkpt>
      <trkpt lat="49.14823" lon="-0.24948">
        <ele>112.6</ele>
        <time>2024-04-07T06:05:26Z</time>
      </trkpt>
      <trkpt lat="49.14818" lon="-0.24954">
        <ele>112.6</ele>
        <time>2024-04-07T06:05:27Z</time>
      </trkpt>
      <trkpt lat="49.14813" lon="-0.24961">
        <ele>112.4</ele>
        <time>2024-04-07T06:05:28Z</time>
      </trkpt>
      <trkpt lat="49.14808" lon="-0.24967">
        <ele>112.4</ele>
        <time>2024-04-07T06:05:29Z</time>
      </trkpt>
      <trkpt lat="49.14803" lon="-0.24973">
        <ele>112.4</ele>
        <time>2024-04-07T06:05:30Z</time>
      </trkpt>
      <trkpt lat="49.14798" lon="-0.24979">
        <ele>112.4</ele>
        <time>2024-04-07T06:05:31Z</time>
      </trkpt>
      <trkpt lat="49.14793" lon="-0.24985">
        <ele>112.4</ele>
        <time>2024-04-07T06:05:32Z</time>
      </trkpt>
      <trkpt lat="49.14787" lon="-0.24991">
        <ele>112.4</ele>
        <time>2024-04-07T06:05:33Z</time>
      </trkpt>
      <trkpt lat="49.14782" lon="-0.24997">
        <ele>112.6</ele>
        <time>2024-04-07T06:05:34Z</time>
      </trkpt>
      <trkpt lat="49.14777" lon="-0.25003">
        <ele>112.6</ele>
        <time>2024-04-07T06:05:35Z</time>
      </trkpt>
      <trkpt lat="49.14772" lon="-0.25009">
        <ele>112.8</ele>
        <time>2024-04-07T06:05:36Z</time>
      </trkpt>
      <trkpt lat="49.14766" lon="-0.25015">
        <ele>113</ele>
        <time>2024-04-07T06:05:37Z</time>
      </trkpt>
      <trkpt lat="49.14761" lon="-0.25021">
        <ele>113.4</ele>
        <time>2024-04-07T06:05:38Z</time>
      </trkpt>
      <trkpt lat="49.14756" lon="-0.25027">
        <ele>113.8</ele>
        <time>2024-04-07T06:05:39Z</time>
      </trkpt>
      <trkpt lat="49.14751" lon="-0.25032">
        <ele>114</ele>
        <time>2024-04-07T06:05:40Z</time>
      </trkpt>
      <trkpt lat="49.14746" lon="-0.25038">
        <ele>114.2</ele>
        <time>2024-04-07T06:05:41Z</time>
      </trkpt>
      <trkpt lat="49.14741" lon="-0.25043">
        <ele>114.2</ele>
        <time>2024-04-07T06:05:42Z</time>
      </trkpt>
      <trkpt lat="49.14736" lon="-0.25048">
        <ele>114.4</ele>
        <time>2024-04-07T06:05:43Z</time>
      </trkpt>
      <trkpt lat="49.14731" lon="-0.25054">
        <ele>114.2</ele>
        <time>2024-04-07T06:05:44Z</time>
      </trkpt>
      <trkpt lat="49.14726" lon="-0.2506">
        <ele>114</ele>
        <time>2024-04-07T06:05:45Z</time>
      </trkpt>
      <trkpt lat="49.14721" lon="-0.25065">
        <ele>114</ele>
        <time>2024-04-07T06:05:46Z</time>
      </trkpt>
      <trkpt lat="49.14716" lon="-0.25071">
        <ele>114</ele>
        <time>2024-04-07T06:05:47Z</time>
      </trkpt>
      <trkpt lat="49.14711" lon="-0.25077">
        <ele>113.8</ele>
        <time>2024-04-07T06:05:48Z</time>
      </trkpt>
      <trkpt lat="49.14706" lon="-0.25083">
        <ele>113.8</ele>
        <time>2024-04-07T06:05:49Z</time>
      </trkpt>
      <trkpt lat="49.14701" lon="-0.25088">
        <ele>114</ele>
        <time>2024-04-07T06:05:50Z</time>
      </trkpt>
      <trkpt lat="49.14696" lon="-0.25094">
        <ele>114.2</ele>
        <time>2024-04-07T06:05:51Z</time>
      </trkpt>
      <trkpt lat="49.14691" lon="-0.251">
        <ele>114.4</ele>
        <time>2024-04-07T06:05:52Z</time>
      </trkpt>
      <trkpt lat="49.14686" lon="-0.25106">
        <ele>114.4</ele>
        <time>2024-04-07T06:05:53Z</time>
      </trkpt>
      <trkpt lat="49.14681" lon="-0.25112">
        <ele>114.6</ele>
        <time>2024-04-07T06:05:54Z</time>
      </trkpt>
      <trkpt lat="49.14676" lon="-0.25118">
        <ele>114.6</ele>
        <time>2024-04-07T06:05:55Z</time>
      </trkpt>
      <trkpt lat="49.14671" lon="-0.25124">
        <ele>114.6</ele>
        <time>2024-04-07T06:05:56Z</time>
      </trkpt>
      <trkpt lat="49.14666" lon="-0.25129">
        <ele>114.4</ele>
        <time>2024-04-07T06:05:57Z</time>
      </trkpt>
      <trkpt lat="49.14661" lon="-0.25135">
        <ele>114.4</ele>
        <time>2024-04-07T06:05:58Z</time>
      </trkpt>
      <trkpt lat="49.14655" lon="-0.25141">
        <ele>114.4</ele>
        <time>2024-04-07T06:05:59Z</time>
      </trkpt>
      <trkpt lat="49.1465" lon="-0.25147">
        <ele>114.2</ele>
        <time>2024-04-07T06:06:00Z</time>
      </trkpt>
      <trkpt lat="49.14645" lon="-0.25153">
        <ele>114.2</ele>
        <time>2024-04-07T06:06:01Z</time>
      </trkpt>
      <trkpt lat="49.14639" lon="-0.25159">
        <ele>114</ele>
        <time>2024-04-07T06:06:02Z</time>
      </trkpt>
      <trkpt lat="49.14634" lon="-0.25164">
        <ele>114</ele>
        <time>2024-04-07T06:06:03Z</time>
      </trkpt>
      <trkpt lat="49.14629" lon="-0.2517">
        <ele>114</ele>
        <time>2024-04-07T06:06:04Z</time>
      </trkpt>
      <trkpt lat="49.14624" lon="-0.25176">
        <ele>114</ele>
        <time>2024-04-07T06:06:05Z</time>
      </trkpt>
      <trkpt lat="49.14619" lon="-0.25181">
        <ele>114</ele>
        <time>2024-04-07T06:06:06Z</time>
      </trkpt>
      <trkpt lat="49.14614" lon="-0.25186">
        <ele>114</ele>
        <time>2024-04-07T06:06:07Z</time>
      </trkpt>
      <trkpt lat="49.14609" lon="-0.25193">
        <ele>114</ele>
        <time>2024-04-07T06:06:08Z</time>
      </trkpt>
      <trkpt lat="49.14604" lon="-0.25199">
        <ele>114.2</ele>
        <time>2024-04-07T06:06:09Z</time>
      </trkpt>
      <trkpt lat="49.14599" lon="-0.25204">
        <ele>114.2</ele>
        <time>2024-04-07T06:06:10Z</time>
      </trkpt>
      <trkpt lat="49.14593" lon="-0.2521">
        <ele>114.2</ele>
        <time>2024-04-07T06:06:11Z</time>
      </trkpt>
      <trkpt lat="49.14589" lon="-0.25215">
        <ele>114.2</ele>
        <time>2024-04-07T06:06:12Z</time>
      </trkpt>
      <trkpt lat="49.14584" lon="-0.25221">
        <ele>114.2</ele>
        <time>2024-04-07T06:06:13Z</time>
      </trkpt>
      <trkpt lat="49.14579" lon="-0.25226">
        <ele>114.2</ele>
        <time>2024-04-07T06:06:14Z</time>
      </trkpt>
      <trkpt lat="49.14574" lon="-0.25231">
        <ele>114.4</ele>
        <time>2024-04-07T06:06:15Z</time>
      </trkpt>
      <trkpt lat="49.1457" lon="-0.25235">
        <ele>114.4</ele>
        <time>2024-04-07T06:06:16Z</time>
      </trkpt>
      <trkpt lat="49.14566" lon="-0.2524">
        <ele>114.6</ele>
        <time>2024-04-07T06:06:17Z</time>
      </trkpt>
      <trkpt lat="49.14561" lon="-0.25245">
        <ele>114.8</ele>
        <time>2024-04-07T06:06:18Z</time>
      </trkpt>
      <trkpt lat="49.14558" lon="-0.25249">
        <ele>114.8</ele>
        <time>2024-04-07T06:06:19Z</time>
      </trkpt>
      <trkpt lat="49.14554" lon="-0.25253">
        <ele>115</ele>
        <time>2024-04-07T06:06:20Z</time>
      </trkpt>
      <trkpt lat="49.1455" lon="-0.25257">
        <ele>115</ele>
        <time>2024-04-07T06:06:21Z</time>
      </trkpt>
      <trkpt lat="49.14548" lon="-0.25261">
        <ele>115</ele>
        <time>2024-04-07T06:06:22Z</time>
      </trkpt>
      <trkpt lat="49.14545" lon="-0.25264">
        <ele>115.2</ele>
        <time>2024-04-07T06:06:23Z</time>
      </trkpt>
      <trkpt lat="49.14543" lon="-0.25266">
        <ele>115.2</ele>
        <time>2024-04-07T06:06:24Z</time>
      </trkpt>
      <trkpt lat="49.14542" lon="-0.25268">
        <ele>115.4</ele>
        <time>2024-04-07T06:06:25Z</time>
      </trkpt>
      <trkpt lat="49.14541" lon="-0.2527">
        <ele>115.6</ele>
        <time>2024-04-07T06:06:26Z</time>
      </trkpt>
      <trkpt lat="49.1454" lon="-0.2527">
        <ele>115.8</ele>
        <time>2024-04-07T06:06:27Z</time>
      </trkpt>
      <trkpt lat="49.14541" lon="-0.2527">
        <ele>116</ele>
        <time>2024-04-07T06:06:28Z</time>
      </trkpt>
      <trkpt lat="49.14539" lon="-0.25275">
        <ele>115.6</ele>
        <time>2024-04-07T06:08:29Z</time>
      </trkpt>
      <trkpt lat="49.14537" lon="-0.25277">
        <ele>115.4</ele>
        <time>2024-04-07T06:08:30Z</time>
      </trkpt>
      <trkpt lat="49.14534" lon="-0.25277">
        <ele>115.4</ele>
        <time>2024-04-07T06:08:31Z</time>
      </trkpt>
      <trkpt lat="49.14531" lon="-0.25277">
        <ele>115.4</ele>
        <time>2024-04-07T06:08:32Z</time>
      </trkpt>
      <trkpt lat="49.14527" lon="-0.25274">
        <ele>115.2</ele>
        <time>2024-04-07T06:08:33Z</time>
      </trkpt>
      <trkpt lat="49.14524" lon="-0.25271">
        <ele>115.2</ele>
        <time>2024-04-07T06:08:34Z</time>
      </trkpt>
      <trkpt lat="49.14521" lon="-0.25267">
        <ele>115.2</ele>
        <time>2024-04-07T06:08:35Z</time>
      </trkpt>
      <trkpt lat="49.14518" lon="-0.25263">
        <ele>115</ele>
        <time>2024-04-07T06:08:36Z</time>
      </trkpt>
      <trkpt lat="49.14515" lon="-0.25257">
        <ele>115</ele>
        <time>2024-04-07T06:08:37Z</time>
      </trkpt>
      <trkpt lat="49.14512" lon="-0.25251">
        <ele>114.8</ele>
        <time>2024-04-07T06:08:38Z</time>
      </trkpt>
      <trkpt lat="49.14509" lon="-0.25244">
        <ele>114.8</ele>
        <time>2024-04-07T06:08:39Z</time>
      </trkpt>
      <trkpt lat="49.14506" lon="-0.25237">
        <ele>114.6</ele>
        <time>2024-04-07T06:08:40Z</time>
      </trkpt>
      <trkpt lat="49.14502" lon="-0.2523">
        <ele>114.6</ele>
        <time>2024-04-07T06:08:41Z</time>
      </trkpt>
      <trkpt lat="49.14499" lon="-0.25223">
        <ele>114.4</ele>
        <time>2024-04-07T06:08:42Z</time>
      </trkpt>
      <trkpt lat="49.14496" lon="-0.25215">
        <ele>114.4</ele>
        <time>2024-04-07T06:08:43Z</time>
      </trkpt>
      <trkpt lat="49.14492" lon="-0.25207">
        <ele>114.4</ele>
        <time>2024-04-07T06:08:44Z</time>
      </trkpt>
      <trkpt lat="49.14489" lon="-0.252">
        <ele>114.4</ele>
        <time>2024-04-07T06:08:45Z</time>
      </trkpt>
      <trkpt lat="49.14486" lon="-0.25193">
        <ele>114.4</ele>
        <time>2024-04-07T06:08:46Z</time>
      </trkpt>
      <trkpt lat="49.14482" lon="-0.25185">
        <ele>114.4</ele>
        <time>2024-04-07T06:08:47Z</time>
      </trkpt>
      <trkpt lat="49.14478" lon="-0.25177">
        <ele>114.4</ele>
        <time>2024-04-07T06:08:48Z</time>
      </trkpt>
      <trkpt lat="49.1447" lon="-0.25162">
        <ele>114.4</ele>
        <time>2024-04-07T06:08:49Z</time>
      </trkpt>
      <trkpt lat="49.14468" lon="-0.25157">
        <ele>114.4</ele>
        <time>2024-04-07T06:08:50Z</time>
      </trkpt>
      <trkpt lat="49.14466" lon="-0.25153">
        <ele>114.4</ele>
        <time>2024-04-07T06:08:51Z</time>
      </trkpt>
      <trkpt lat="49.14462" lon="-0.25145">
        <ele>114.4</ele>
        <time>2024-04-07T06:08:52Z</time>
      </trkpt>
      <trkpt lat="49.14459" lon="-0.25136">
        <ele>114.6</ele>
        <time>2024-04-07T06:08:53Z</time>
      </trkpt>
      <trkpt lat="49.14455" lon="-0.25128">
        <ele>114.6</ele>
        <time>2024-04-07T06:08:54Z</time>
      </trkpt>
      <trkpt lat="49.14451" lon="-0.25119">
        <ele>114.4</ele>
        <time>2024-04-07T06:08:55Z</time>
      </trkpt>
      <trkpt lat="49.14447" lon="-0.25111">
        <ele>114.4</ele>
        <time>2024-04-07T06:08:56Z</time>
      </trkpt>
      <trkpt lat="49.14443" lon="-0.25102">
        <ele>114.4</ele>
        <time>2024-04-07T06:08:57Z</time>
      </trkpt>
      <trkpt lat="49.14439" lon="-0.25094">
        <ele>114.6</ele>
        <time>2024-04-07T06:08:58Z</time>
      </trkpt>
      <trkpt lat="49.14435" lon="-0.25086">
        <ele>114.4</ele>
        <time>2024-04-07T06:08:59Z</time>
      </trkpt>
      <trkpt lat="49.14431" lon="-0.25078">
        <ele>114.4</ele>
        <time>2024-04-07T06:09:00Z</time>
      </trkpt>
      <trkpt lat="49.14428" lon="-0.2507">
        <ele>114.4</ele>
        <time>2024-04-07T06:09:01Z</time>
      </trkpt>
      <trkpt lat="49.14424" lon="-0.25063">
        <ele>114.6</ele>
        <time>2024-04-07T06:09:02Z</time>
      </trkpt>
      <trkpt lat="49.1442" lon="-0.25055">
        <ele>114.6</ele>
        <time>2024-04-07T06:09:03Z</time>
      </trkpt>
      <trkpt lat="49.14416" lon="-0.25047">
        <ele>114.6</ele>
        <time>2024-04-07T06:09:04Z</time>
      </trkpt>
      <trkpt lat="49.14413" lon="-0.25038">
        <ele>114.6</ele>
        <time>2024-04-07T06:09:05Z</time>
      </trkpt>
      <trkpt lat="49.14409" lon="-0.2503">
        <ele>114.8</ele>
        <time>2024-04-07T06:09:06Z</time>
      </trkpt>
      <trkpt lat="49.14405" lon="-0.25022">
        <ele>114.8</ele>
        <time>2024-04-07T06:09:07Z</time>
      </trkpt>
      <trkpt lat="49.14401" lon="-0.25013">
        <ele>114.8</ele>
        <time>2024-04-07T06:09:08Z</time>
      </trkpt>
      <trkpt lat="49.14398" lon="-0.25005">
        <ele>115</ele>
        <time>2024-04-07T06:09:09Z</time>
      </trkpt>
      <trkpt lat="49.14394" lon="-0.24997">
        <ele>115.2</ele>
        <time>2024-04-07T06:09:10Z</time>
      </trkpt>
      <trkpt lat="49.1439" lon="-0.24988">
        <ele>115.4</ele>
        <time>2024-04-07T06:09:11Z</time>
      </trkpt>
      <trkpt lat="49.14387" lon="-0.2498">
        <ele>115.6</ele>
        <time>2024-04-07T06:09:12Z</time>
      </trkpt>
      <trkpt lat="49.14383" lon="-0.24971">
        <ele>115.6</ele>
        <time>2024-04-07T06:09:13Z</time>
      </trkpt>
      <trkpt lat="49.14379" lon="-0.24963">
        <ele>115.8</ele>
        <time>2024-04-07T06:09:14Z</time>
      </trkpt>
      <trkpt lat="49.14375" lon="-0.24954">
        <ele>115.8</ele>
        <time>2024-04-07T06:09:15Z</time>
      </trkpt>
      <trkpt lat="49.14371" lon="-0.24946">
        <ele>116</ele>
        <time>2024-04-07T06:09:16Z</time>
      </trkpt>
      <trkpt lat="49.14368" lon="-0.24938">
        <ele>116</ele>
        <time>2024-04-07T06:09:17Z</time>
      </trkpt>
      <trkpt lat="49.14364" lon="-0.24929">
        <ele>116.2</ele>
        <time>2024-04-07T06:09:18Z</time>
      </trkpt>
      <trkpt lat="49.1436" lon="-0.2492">
        <ele>116.2</ele>
        <time>2024-04-07T06:09:19Z</time>
      </trkpt>
      <trkpt lat="49.14356" lon="-0.24912">
        <ele>116.2</ele>
        <time>2024-04-07T06:09:20Z</time>
      </trkpt>
      <trkpt lat="49.14352" lon="-0.24903">
        <ele>116.2</ele>
        <time>2024-04-07T06:09:21Z</time>
      </trkpt>
      <trkpt lat="49.14348" lon="-0.24895">
        <ele>116.2</ele>
        <time>2024-04-07T06:09:22Z</time>
      </trkpt>
      <trkpt lat="49.14344" lon="-0.24886">
        <ele>116.2</ele>
        <time>2024-04-07T06:09:23Z</time>
      </trkpt>
      <trkpt lat="49.1434" lon="-0.24877">
        <ele>116.4</ele>
        <time>2024-04-07T06:09:24Z</time>
      </trkpt>
      <trkpt lat="49.14337" lon="-0.24869">
        <ele>116.4</ele>
        <time>2024-04-07T06:09:25Z</time>
      </trkpt>
      <trkpt lat="49.14333" lon="-0.2486">
        <ele>116.4</ele>
        <time>2024-04-07T06:09:26Z</time>
      </trkpt>
      <trkpt lat="49.14329" lon="-0.24851">
        <ele>116.4</ele>
        <time>2024-04-07T06:09:27Z</time>
      </trkpt>
      <trkpt lat="49.14325" lon="-0.24843">
        <ele>116.6</ele>
        <time>2024-04-07T06:09:28Z</time>
      </trkpt>
      <trkpt lat="49.14322" lon="-0.24834">
        <ele>116.6</ele>
        <time>2024-04-07T06:09:29Z</time>
      </trkpt>
      <trkpt lat="49.14318" lon="-0.24825">
        <ele>116.6</ele>
        <time>2024-04-07T06:09:30Z</time>
      </trkpt>
      <trkpt lat="49.14314" lon="-0.24817">
        <ele>116.6</ele>
        <time>2024-04-07T06:09:31Z</time>
      </trkpt>
      <trkpt lat="49.1431" lon="-0.24808">
        <ele>116.6</ele>
        <time>2024-04-07T06:09:32Z</time>
      </trkpt>
      <trkpt lat="49.14306" lon="-0.24799">
        <ele>116.6</ele>
        <time>2024-04-07T06:09:33Z</time>
      </trkpt>
      <trkpt lat="49.14302" lon="-0.2479">
        <ele>116.6</ele>
        <time>2024-04-07T06:09:34Z</time>
      </trkpt>
      <trkpt lat="49.14298" lon="-0.24781">
        <ele>116.6</ele>
        <time>2024-04-07T06:09:35Z</time>
      </trkpt>
      <trkpt lat="49.14294" lon="-0.24772">
        <ele>116.4</ele>
        <time>2024-04-07T06:09:36Z</time>
      </trkpt>
      <trkpt lat="49.1429" lon="-0.24763">
        <ele>116.4</ele>
        <time>2024-04-07T06:09:37Z</time>
      </trkpt>
      <trkpt lat="49.14286" lon="-0.24755">
        <ele>116.4</ele>
        <time>2024-04-07T06:09:38Z</time>
      </trkpt>
      <trkpt lat="49.14282" lon="-0.24746">
        <ele>116.4</ele>
        <time>2024-04-07T06:09:39Z</time>
      </trkpt>
      <trkpt lat="49.14278" lon="-0.24737">
        <ele>116.2</ele>
        <time>2024-04-07T06:09:40Z</time>
      </trkpt>
      <trkpt lat="49.14274" lon="-0.24728">
        <ele>116.2</ele>
        <time>2024-04-07T06:09:41Z</time>
      </trkpt>
      <trkpt lat="49.1427" lon="-0.24719">
        <ele>116.2</ele>
        <time>2024-04-07T06:09:42Z</time>
      </trkpt>
      <trkpt lat="49.14267" lon="-0.2471">
        <ele>116.2</ele>
        <time>2024-04-07T06:09:43Z</time>
      </trkpt>
      <trkpt lat="49.14263" lon="-0.24701">
        <ele>116.2</ele>
        <time>2024-04-07T06:09:44Z</time>
      </trkpt>
      <trkpt lat="49.14259" lon="-0.24692">
        <ele>116.2</ele>
        <time>2024-04-07T06:09:45Z</time>
      </trkpt>
      <trkpt lat="49.14255" lon="-0.24682">
        <ele>116.2</ele>
        <time>2024-04-07T06:09:46Z</time>
      </trkpt>
      <trkpt lat="49.14251" lon="-0.24673">
        <ele>116.2</ele>
        <time>2024-04-07T06:09:47Z</time>
      </trkpt>
      <trkpt lat="49.14247" lon="-0.24664">
        <ele>116</ele>
        <time>2024-04-07T06:09:48Z</time>
      </trkpt>
      <trkpt lat="49.14243" lon="-0.24655">
        <ele>116</ele>
        <time>2024-04-07T06:09:49Z</time>
      </trkpt>
      <trkpt lat="49.1424" lon="-0.24646">
        <ele>115.8</ele>
        <time>2024-04-07T06:09:50Z</time>
      </trkpt>
      <trkpt lat="49.14235" lon="-0.24637">
        <ele>115.8</ele>
        <time>2024-04-07T06:09:51Z</time>
      </trkpt>
      <trkpt lat="49.14231" lon="-0.24628">
        <ele>115.8</ele>
        <time>2024-04-07T06:09:52Z</time>
      </trkpt>
      <trkpt lat="49.14227" lon="-0.24619">
        <ele>115.8</ele>
        <time>2024-04-07T06:09:53Z</time>
      </trkpt>
      <trkpt lat="49.14223" lon="-0.24611">
        <ele>115.8</ele>
        <time>2024-04-07T06:09:54Z</time>
      </trkpt>
      <trkpt lat="49.14218" lon="-0.24602">
        <ele>115.6</ele>
        <time>2024-04-07T06:09:55Z</time>
      </trkpt>
      <trkpt lat="49.14213" lon="-0.24594">
        <ele>115.6</ele>
        <time>2024-04-07T06:09:56Z</time>
      </trkpt>
      <trkpt lat="49.14208" lon="-0.24587">
        <ele>115.6</ele>
        <time>2024-04-07T06:09:57Z</time>
      </trkpt>
      <trkpt lat="49.14203" lon="-0.24581">
        <ele>115.4</ele>
        <time>2024-04-07T06:09:58Z</time>
      </trkpt>
      <trkpt lat="49.14197" lon="-0.24576">
        <ele>115.4</ele>
        <time>2024-04-07T06:09:59Z</time>
      </trkpt>
      <trkpt lat="49.1419" lon="-0.24573">
        <ele>115.2</ele>
        <time>2024-04-07T06:10:00Z</time>
      </trkpt>
      <trkpt lat="49.14184" lon="-0.24571">
        <ele>115</ele>
        <time>2024-04-07T06:10:01Z</time>
      </trkpt>
      <trkpt lat="49.14177" lon="-0.24568">
        <ele>114.6</ele>
        <time>2024-04-07T06:10:02Z</time>
      </trkpt>
      <trkpt lat="49.14171" lon="-0.24563">
        <ele>114.6</ele>
        <time>2024-04-07T06:10:03Z</time>
      </trkpt>
      <trkpt lat="49.14166" lon="-0.24557">
        <ele>114.4</ele>
        <time>2024-04-07T06:10:04Z</time>
      </trkpt>
      <trkpt lat="49.14161" lon="-0.2455">
        <ele>114.4</ele>
        <time>2024-04-07T06:10:05Z</time>
      </trkpt>
      <trkpt lat="49.14156" lon="-0.24542">
        <ele>114.4</ele>
        <time>2024-04-07T06:10:06Z</time>
      </trkpt>
      <trkpt lat="49.14151" lon="-0.24535">
        <ele>114.4</ele>
        <time>2024-04-07T06:10:07Z</time>
      </trkpt>
      <trkpt lat="49.14145" lon="-0.24528">
        <ele>114.4</ele>
        <time>2024-04-07T06:10:08Z</time>
      </trkpt>
      <trkpt lat="49.14139" lon="-0.24523">
        <ele>114.4</ele>
        <time>2024-04-07T06:10:09Z</time>
      </trkpt>
      <trkpt lat="49.14134" lon="-0.24516">
        <ele>114.2</ele>
        <time>2024-04-07T06:10:10Z</time>
      </trkpt>
      <trkpt lat="49.1413" lon="-0.24506">
        <ele>114</ele>
        <time>2024-04-07T06:10:11Z</time>
      </trkpt>
      <trkpt lat="49.14128" lon="-0.24496">
        <ele>114</ele>
        <time>2024-04-07T06:10:12Z</time>
      </trkpt>
      <trkpt lat="49.14127" lon="-0.24486">
        <ele>114</ele>
        <time>2024-04-07T06:10:13Z</time>
      </trkpt>
      <trkpt lat="49.14126" lon="-0.24476">
        <ele>114</ele>
        <time>2024-04-07T06:10:14Z</time>
      </trkpt>
      <trkpt lat="49.14126" lon="-0.24468">
        <ele>114.2</ele>
        <time>2024-04-07T06:10:15Z</time>
      </trkpt>
      <trkpt lat="49.14124" lon="-0.24462">
        <ele>114.2</ele>
        <time>2024-04-07T06:10:16Z</time>
      </trkpt>
      <trkpt lat="49.1412" lon="-0.24457">
        <ele>114.4</ele>
        <time>2024-04-07T06:10:17Z</time>
      </trkpt>
      <trkpt lat="49.14115" lon="-0.24454">
        <ele>114.4</ele>
        <time>2024-04-07T06:10:18Z</time>
      </trkpt>
      <trkpt lat="49.1411" lon="-0.24453">
        <ele>114.4</ele>
        <time>2024-04-07T06:10:19Z</time>
      </trkpt>
      <trkpt lat="49.14105" lon="-0.24453">
        <ele>114.4</ele>
        <time>2024-04-07T06:10:20Z</time>
      </trkpt>
      <trkpt lat="49.141" lon="-0.24453">
        <ele>114.4</ele>
        <time>2024-04-07T06:10:21Z</time>
      </trkpt>
      <trkpt lat="49.14094" lon="-0.24455">
        <ele>114.2</ele>
        <time>2024-04-07T06:10:22Z</time>
      </trkpt>
      <trkpt lat="49.14089" lon="-0.24459">
        <ele>114.2</ele>
        <time>2024-04-07T06:10:23Z</time>
      </trkpt>
      <trkpt lat="49.14084" lon="-0.24464">
        <ele>114.2</ele>
        <time>2024-04-07T06:10:24Z</time>
      </trkpt>
      <trkpt lat="49.14073" lon="-0.24474">
        <ele>114.2</ele>
        <time>2024-04-07T06:10:25Z</time>
      </trkpt>
      <trkpt lat="49.14071" lon="-0.24476">
        <ele>114.2</ele>
        <time>2024-04-07T06:10:26Z</time>
      </trkpt>
      <trkpt lat="49.14068" lon="-0.24479">
        <ele>114.4</ele>
        <time>2024-04-07T06:10:27Z</time>
      </trkpt>
      <trkpt lat="49.14062" lon="-0.24484">
        <ele>114.4</ele>
        <time>2024-04-07T06:10:28Z</time>
      </trkpt>
      <trkpt lat="49.14057" lon="-0.24489">
        <ele>114.6</ele>
        <time>2024-04-07T06:10:29Z</time>
      </trkpt>
      <trkpt lat="49.14052" lon="-0.24494">
        <ele>114.8</ele>
        <time>2024-04-07T06:10:30Z</time>
      </trkpt>
      <trkpt lat="49.14048" lon="-0.24499">
        <ele>115</ele>
        <time>2024-04-07T06:10:31Z</time>
      </trkpt>
      <trkpt lat="49.14043" lon="-0.24503">
        <ele>115.2</ele>
        <time>2024-04-07T06:10:32Z</time>
      </trkpt>
      <trkpt lat="49.14039" lon="-0.24505">
        <ele>115.4</ele>
        <time>2024-04-07T06:10:33Z</time>
      </trkpt>
      <trkpt lat="49.14035" lon="-0.24503">
        <ele>115.6</ele>
        <time>2024-04-07T06:10:34Z</time>
      </trkpt>
      <trkpt lat="49.14032" lon="-0.24497">
        <ele>115.6</ele>
        <time>2024-04-07T06:10:35Z</time>
      </trkpt>
      <trkpt lat="49.1403" lon="-0.24489">
        <ele>115.8</ele>
        <time>2024-04-07T06:10:36Z</time>
      </trkpt>
      <trkpt lat="49.14029" lon="-0.24481">
        <ele>115.8</ele>
        <time>2024-04-07T06:10:37Z</time>
      </trkpt>
      <trkpt lat="49.14027" lon="-0.24472">
        <ele>115.6</ele>
        <time>2024-04-07T06:10:38Z</time>
      </trkpt>
      <trkpt lat="49.14025" lon="-0.24463">
        <ele>115.4</ele>
        <time>2024-04-07T06:10:39Z</time>
      </trkpt>
      <trkpt lat="49.14021" lon="-0.24455">
        <ele>115.2</ele>
        <time>2024-04-07T06:10:40Z</time>
      </trkpt>
      <trkpt lat="49.14017" lon="-0.24447">
        <ele>115</ele>
        <time>2024-04-07T06:10:41Z</time>
      </trkpt>
      <trkpt lat="49.14013" lon="-0.24438">
        <ele>114.8</ele>
        <time>2024-04-07T06:10:42Z</time>
      </trkpt>
      <trkpt lat="49.14008" lon="-0.2443">
        <ele>114.6</ele>
        <time>2024-04-07T06:10:43Z</time>
      </trkpt>
      <trkpt lat="49.14004" lon="-0.24421">
        <ele>114.4</ele>
        <time>2024-04-07T06:10:44Z</time>
      </trkpt>
      <trkpt lat="49.14" lon="-0.24412">
        <ele>114.2</ele>
        <time>2024-04-07T06:10:45Z</time>
      </trkpt>
      <trkpt lat="49.13996" lon="-0.24404">
        <ele>114</ele>
        <time>2024-04-07T06:10:46Z</time>
      </trkpt>
      <trkpt lat="49.13993" lon="-0.24395">
        <ele>113.8</ele>
        <time>2024-04-07T06:10:47Z</time>
      </trkpt>
      <trkpt lat="49.1399" lon="-0.24386">
        <ele>113.4</ele>
        <time>2024-04-07T06:10:48Z</time>
      </trkpt>
      <trkpt lat="49.13986" lon="-0.24377">
        <ele>113.2</ele>
        <time>2024-04-07T06:10:49Z</time>
      </trkpt>
      <trkpt lat="49.1398" lon="-0.24359">
        <ele>113.2</ele>
        <time>2024-04-07T06:10:50Z</time>
      </trkpt>
      <trkpt lat="49.13977" lon="-0.24349">
        <ele>113</ele>
        <time>2024-04-07T06:10:51Z</time>
      </trkpt>
      <trkpt lat="49.13976" lon="-0.24344">
        <ele>113</ele>
        <time>2024-04-07T06:10:52Z</time>
      </trkpt>
      <trkpt lat="49.13974" lon="-0.24339">
        <ele>112.8</ele>
        <time>2024-04-07T06:10:53Z</time>
      </trkpt>
      <trkpt lat="49.13971" lon="-0.24329">
        <ele>112.8</ele>
        <time>2024-04-07T06:10:54Z</time>
      </trkpt>
      <trkpt lat="49.13968" lon="-0.24318">
        <ele>112.4</ele>
        <time>2024-04-07T06:10:55Z</time>
      </trkpt>
      <trkpt lat="49.13965" lon="-0.24309">
        <ele>112</ele>
        <time>2024-04-07T06:10:56Z</time>
      </trkpt>
      <trkpt lat="49.13962" lon="-0.24299">
        <ele>111.6</ele>
        <time>2024-04-07T06:10:57Z</time>
      </trkpt>
      <trkpt lat="49.1396" lon="-0.2429">
        <ele>111.4</ele>
        <time>2024-04-07T06:10:58Z</time>
      </trkpt>
      <trkpt lat="49.13958" lon="-0.24281">
        <ele>111.2</ele>
        <time>2024-04-07T06:10:59Z</time>
      </trkpt>
      <trkpt lat="49.13956" lon="-0.24271">
        <ele>111.2</ele>
        <time>2024-04-07T06:11:00Z</time>
      </trkpt>
      <trkpt lat="49.13953" lon="-0.24262">
        <ele>110.8</ele>
        <time>2024-04-07T06:11:01Z</time>
      </trkpt>
      <trkpt lat="49.13949" lon="-0.24253">
        <ele>110.6</ele>
        <time>2024-04-07T06:11:02Z</time>
      </trkpt>
      <trkpt lat="49.13944" lon="-0.24245">
        <ele>110.4</ele>
        <time>2024-04-07T06:11:03Z</time>
      </trkpt>
      <trkpt lat="49.1394" lon="-0.24237">
        <ele>110.2</ele>
        <time>2024-04-07T06:11:04Z</time>
      </trkpt>
      <trkpt lat="49.13935" lon="-0.24229">
        <ele>110</ele>
        <time>2024-04-07T06:11:05Z</time>
      </trkpt>
      <trkpt lat="49.1393" lon="-0.24221">
        <ele>109.8</ele>
        <time>2024-04-07T06:11:06Z</time>
      </trkpt>
      <trkpt lat="49.13925" lon="-0.24213">
        <ele>109.6</ele>
        <time>2024-04-07T06:11:07Z</time>
      </trkpt>
      <trkpt lat="49.1392" lon="-0.24205">
        <ele>109.6</ele>
        <time>2024-04-07T06:11:08Z</time>
      </trkpt>
      <trkpt lat="49.13914" lon="-0.24197">
        <ele>109.6</ele>
        <time>2024-04-07T06:11:09Z</time>
      </trkpt>
      <trkpt lat="49.13909" lon="-0.24189">
        <ele>109.4</ele>
        <time>2024-04-07T06:11:10Z</time>
      </trkpt>
      <trkpt lat="49.13903" lon="-0.24182">
        <ele>109.2</ele>
        <time>2024-04-07T06:11:11Z</time>
      </trkpt>
      <trkpt lat="49.13898" lon="-0.24174">
        <ele>109.2</ele>
        <time>2024-04-07T06:11:12Z</time>
      </trkpt>
      <trkpt lat="49.13893" lon="-0.24166">
        <ele>109</ele>
        <time>2024-04-07T06:11:13Z</time>
      </trkpt>
      <trkpt lat="49.13888" lon="-0.24158">
        <ele>108.8</ele>
        <time>2024-04-07T06:11:14Z</time>
      </trkpt>
      <trkpt lat="49.13883" lon="-0.24151">
        <ele>108.4</ele>
        <time>2024-04-07T06:11:15Z</time>
      </trkpt>
      <trkpt lat="49.13878" lon="-0.24144">
        <ele>108.2</ele>
        <time>2024-04-07T06:11:16Z</time>
      </trkpt>
      <trkpt lat="49.13874" lon="-0.24138">
        <ele>108</ele>
        <time>2024-04-07T06:11:17Z</time>
      </trkpt>
      <trkpt lat="49.13869" lon="-0.24135">
        <ele>108.2</ele>
        <time>2024-04-07T06:11:18Z</time>
      </trkpt>
      <trkpt lat="49.13865" lon="-0.24133">
        <ele>108.2</ele>
        <time>2024-04-07T06:11:19Z</time>
      </trkpt>
      <trkpt lat="49.13861" lon="-0.24134">
        <ele>108.4</ele>
        <time>2024-04-07T06:11:20Z</time>
      </trkpt>
      <trkpt lat="49.13856" lon="-0.24137">
        <ele>108.6</ele>
        <time>2024-04-07T06:11:21Z</time>
      </trkpt>
      <trkpt lat="49.13852" lon="-0.24141">
        <ele>108.6</ele>
        <time>2024-04-07T06:11:22Z</time>
      </trkpt>
      <trkpt lat="49.13847" lon="-0.24147">
        <ele>108.6</ele>
        <time>2024-04-07T06:11:23Z</time>
      </trkpt>
      <trkpt lat="49.13843" lon="-0.24152">
        <ele>108.8</ele>
        <time>2024-04-07T06:11:24Z</time>
      </trkpt>
      <trkpt lat="49.13838" lon="-0.24158">
        <ele>108.6</ele>
        <time>2024-04-07T06:11:25Z</time>
      </trkpt>
      <trkpt lat="49.13833" lon="-0.24163">
        <ele>108.6</ele>
        <time>2024-04-07T06:11:26Z</time>
      </trkpt>
      <trkpt lat="49.13827" lon="-0.24169">
        <ele>108.4</ele>
        <time>2024-04-07T06:11:27Z</time>
      </trkpt>
      <trkpt lat="49.13822" lon="-0.24175">
        <ele>108.2</ele>
        <time>2024-04-07T06:11:28Z</time>
      </trkpt>
      <trkpt lat="49.13816" lon="-0.24181">
        <ele>108</ele>
        <time>2024-04-07T06:11:29Z</time>
      </trkpt>
      <trkpt lat="49.13811" lon="-0.24187">
        <ele>108</ele>
        <time>2024-04-07T06:11:30Z</time>
      </trkpt>
      <trkpt lat="49.13805" lon="-0.24193">
        <ele>108</ele>
        <time>2024-04-07T06:11:31Z</time>
      </trkpt>
      <trkpt lat="49.138" lon="-0.24199">
        <ele>107.8</ele>
        <time>2024-04-07T06:11:32Z</time>
      </trkpt>
      <trkpt lat="49.13794" lon="-0.24204">
        <ele>107.8</ele>
        <time>2024-04-07T06:11:33Z</time>
      </trkpt>
      <trkpt lat="49.13789" lon="-0.2421">
        <ele>107.8</ele>
        <time>2024-04-07T06:11:34Z</time>
      </trkpt>
      <trkpt lat="49.13783" lon="-0.24216">
        <ele>107.8</ele>
        <time>2024-04-07T06:11:35Z</time>
      </trkpt>
      <trkpt lat="49.13778" lon="-0.24222">
        <ele>107.8</ele>
        <time>2024-04-07T06:11:36Z</time>
      </trkpt>
      <trkpt lat="49.13772" lon="-0.24228">
        <ele>107.8</ele>
        <time>2024-04-07T06:11:37Z</time>
      </trkpt>
      <trkpt lat="49.13767" lon="-0.24234">
        <ele>107.8</ele>
        <time>2024-04-07T06:11:38Z</time>
      </trkpt>
      <trkpt lat="49.13761" lon="-0.2424">
        <ele>108</ele>
        <time>2024-04-07T06:11:39Z</time>
      </trkpt>
      <trkpt lat="49.13756" lon="-0.24246">
        <ele>108</ele>
        <time>2024-04-07T06:11:40Z</time>
      </trkpt>
      <trkpt lat="49.1375" lon="-0.24252">
        <ele>108</ele>
        <time>2024-04-07T06:11:41Z</time>
      </trkpt>
      <trkpt lat="49.13745" lon="-0.24259">
        <ele>108</ele>
        <time>2024-04-07T06:11:42Z</time>
      </trkpt>
      <trkpt lat="49.1374" lon="-0.24265">
        <ele>108.2</ele>
        <time>2024-04-07T06:11:43Z</time>
      </trkpt>
      <trkpt lat="49.13735" lon="-0.24272">
        <ele>108.2</ele>
        <time>2024-04-07T06:11:44Z</time>
      </trkpt>
      <trkpt lat="49.1373" lon="-0.24278">
        <ele>108.2</ele>
        <time>2024-04-07T06:11:45Z</time>
      </trkpt>
      <trkpt lat="49.13725" lon="-0.24285">
        <ele>108.2</ele>
        <time>2024-04-07T06:11:46Z</time>
      </trkpt>
      <trkpt lat="49.1372" lon="-0.24292">
        <ele>108.4</ele>
        <time>2024-04-07T06:11:47Z</time>
      </trkpt>
      <trkpt lat="49.13715" lon="-0.24298">
        <ele>108.4</ele>
        <time>2024-04-07T06:11:48Z</time>
      </trkpt>
      <trkpt lat="49.13711" lon="-0.24306">
        <ele>108.6</ele>
        <time>2024-04-07T06:11:49Z</time>
      </trkpt>
      <trkpt lat="49.13706" lon="-0.24313">
        <ele>108.6</ele>
        <time>2024-04-07T06:11:50Z</time>
      </trkpt>
      <trkpt lat="49.13702" lon="-0.24322">
        <ele>108.8</ele>
        <time>2024-04-07T06:11:51Z</time>
      </trkpt>
      <trkpt lat="49.13699" lon="-0.2433">
        <ele>108.8</ele>
        <time>2024-04-07T06:11:52Z</time>
      </trkpt>
      <trkpt lat="49.13696" lon="-0.24339">
        <ele>108.8</ele>
        <time>2024-04-07T06:11:53Z</time>
      </trkpt>
      <trkpt lat="49.13693" lon="-0.24348">
        <ele>108.8</ele>
        <time>2024-04-07T06:11:54Z</time>
      </trkpt>
      <trkpt lat="49.13691" lon="-0.24357">
        <ele>108.8</ele>
        <time>2024-04-07T06:11:55Z</time>
      </trkpt>
      <trkpt lat="49.13688" lon="-0.24366">
        <ele>109</ele>
        <time>2024-04-07T06:11:56Z</time>
      </trkpt>
      <trkpt lat="49.13685" lon="-0.24375">
        <ele>109</ele>
        <time>2024-04-07T06:11:57Z</time>
      </trkpt>
      <trkpt lat="49.13683" lon="-0.24384">
        <ele>109.2</ele>
        <time>2024-04-07T06:11:58Z</time>
      </trkpt>
      <trkpt lat="49.13681" lon="-0.24393">
        <ele>109.2</ele>
        <time>2024-04-07T06:11:59Z</time>
      </trkpt>
      <trkpt lat="49.13679" lon="-0.24403">
        <ele>109.4</ele>
        <time>2024-04-07T06:12:00Z</time>
      </trkpt>
      <trkpt lat="49.13678" lon="-0.24412">
        <ele>109.6</ele>
        <time>2024-04-07T06:12:01Z</time>
      </trkpt>
      <trkpt lat="49.13677" lon="-0.24421">
        <ele>109.8</ele>
        <time>2024-04-07T06:12:02Z</time>
      </trkpt>
      <trkpt lat="49.13676" lon="-0.24431">
        <ele>109.8</ele>
        <time>2024-04-07T06:12:03Z</time>
      </trkpt>
      <trkpt lat="49.13676" lon="-0.24441">
        <ele>110</ele>
        <time>2024-04-07T06:12:04Z</time>
      </trkpt>
      <trkpt lat="49.13674" lon="-0.2445">
        <ele>110.2</ele>
        <time>2024-04-07T06:12:05Z</time>
      </trkpt>
      <trkpt lat="49.13672" lon="-0.24459">
        <ele>110.4</ele>
        <time>2024-04-07T06:12:06Z</time>
      </trkpt>
      <trkpt lat="49.13668" lon="-0.24467">
        <ele>110.4</ele>
        <time>2024-04-07T06:12:07Z</time>
      </trkpt>
      <trkpt lat="49.13665" lon="-0.24474">
        <ele>110.6</ele>
        <time>2024-04-07T06:12:08Z</time>
      </trkpt>
      <trkpt lat="49.13661" lon="-0.24482">
        <ele>110.6</ele>
        <time>2024-04-07T06:12:09Z</time>
      </trkpt>
      <trkpt lat="49.13656" lon="-0.24489">
        <ele>110.6</ele>
        <time>2024-04-07T06:12:10Z</time>
      </trkpt>
      <trkpt lat="49.13653" lon="-0.24498">
        <ele>110.6</ele>
        <time>2024-04-07T06:12:11Z</time>
      </trkpt>
      <trkpt lat="49.1365" lon="-0.24506">
        <ele>110.6</ele>
        <time>2024-04-07T06:12:12Z</time>
      </trkpt>
      <trkpt lat="49.13646" lon="-0.24514">
        <ele>110.6</ele>
        <time>2024-04-07T06:12:13Z</time>
      </trkpt>
      <trkpt lat="49.13642" lon="-0.24521">
        <ele>111</ele>
        <time>2024-04-07T06:12:14Z</time>
      </trkpt>
      <trkpt lat="49.13637" lon="-0.24529">
        <ele>111.2</ele>
        <time>2024-04-07T06:12:15Z</time>
      </trkpt>
      <trkpt lat="49.13633" lon="-0.24537">
        <ele>111.2</ele>
        <time>2024-04-07T06:12:16Z</time>
      </trkpt>
      <trkpt lat="49.13628" lon="-0.24544">
        <ele>111.4</ele>
        <time>2024-04-07T06:12:17Z</time>
      </trkpt>
      <trkpt lat="49.13624" lon="-0.24552">
        <ele>111.4</ele>
        <time>2024-04-07T06:12:18Z</time>
      </trkpt>
      <trkpt lat="49.13619" lon="-0.24559">
        <ele>111.6</ele>
        <time>2024-04-07T06:12:19Z</time>
      </trkpt>
      <trkpt lat="49.13615" lon="-0.24567">
        <ele>111.6</ele>
        <time>2024-04-07T06:12:20Z</time>
      </trkpt>
      <trkpt lat="49.1361" lon="-0.24574">
        <ele>111.6</ele>
        <time>2024-04-07T06:12:21Z</time>
      </trkpt>
      <trkpt lat="49.13606" lon="-0.24581">
        <ele>111.6</ele>
        <time>2024-04-07T06:12:22Z</time>
      </trkpt>
      <trkpt lat="49.13601" lon="-0.24588">
        <ele>111.6</ele>
        <time>2024-04-07T06:12:23Z</time>
      </trkpt>
      <trkpt lat="49.13596" lon="-0.24594">
        <ele>111.8</ele>
        <time>2024-04-07T06:12:24Z</time>
      </trkpt>
      <trkpt lat="49.13585" lon="-0.24607">
        <ele>111.8</ele>
        <time>2024-04-07T06:12:25Z</time>
      </trkpt>
      <trkpt lat="49.1358" lon="-0.24613">
        <ele>111.8</ele>
        <time>2024-04-07T06:12:26Z</time>
      </trkpt>
      <trkpt lat="49.13577" lon="-0.24616">
        <ele>111.8</ele>
        <time>2024-04-07T06:12:27Z</time>
      </trkpt>
      <trkpt lat="49.13575" lon="-0.24619">
        <ele>112</ele>
        <time>2024-04-07T06:12:28Z</time>
      </trkpt>
      <trkpt lat="49.13566" lon="-0.24627">
        <ele>112</ele>
        <time>2024-04-07T06:12:29Z</time>
      </trkpt>
      <trkpt lat="49.13563" lon="-0.2463">
        <ele>112</ele>
        <time>2024-04-07T06:12:30Z</time>
      </trkpt>
      <trkpt lat="49.13554" lon="-0.24639">
        <ele>112</ele>
        <time>2024-04-07T06:12:31Z</time>
      </trkpt>
      <trkpt lat="49.13551" lon="-0.24642">
        <ele>111.8</ele>
        <time>2024-04-07T06:12:32Z</time>
      </trkpt>
      <trkpt lat="49.13546" lon="-0.24648">
        <ele>111.6</ele>
        <time>2024-04-07T06:12:33Z</time>
      </trkpt>
      <trkpt lat="49.1354" lon="-0.24654">
        <ele>111.4</ele>
        <time>2024-04-07T06:12:34Z</time>
      </trkpt>
      <trkpt lat="49.13535" lon="-0.2466">
        <ele>111.2</ele>
        <time>2024-04-07T06:12:35Z</time>
      </trkpt>
      <trkpt lat="49.13529" lon="-0.24666">
        <ele>111.2</ele>
        <time>2024-04-07T06:12:36Z</time>
      </trkpt>
      <trkpt lat="49.13524" lon="-0.24672">
        <ele>111.2</ele>
        <time>2024-04-07T06:12:37Z</time>
      </trkpt>
      <trkpt lat="49.13519" lon="-0.24678">
        <ele>111.2</ele>
        <time>2024-04-07T06:12:38Z</time>
      </trkpt>
      <trkpt lat="49.13514" lon="-0.24683">
        <ele>111.4</ele>
        <time>2024-04-07T06:12:39Z</time>
      </trkpt>
      <trkpt lat="49.13509" lon="-0.24689">
        <ele>111.8</ele>
        <time>2024-04-07T06:12:40Z</time>
      </trkpt>
      <trkpt lat="49.13505" lon="-0.24695">
        <ele>112</ele>
        <time>2024-04-07T06:12:41Z</time>
      </trkpt>
      <trkpt lat="49.135" lon="-0.247">
        <ele>112.2</ele>
        <time>2024-04-07T06:12:42Z</time>
      </trkpt>
      <trkpt lat="49.13495" lon="-0.24706">
        <ele>112.2</ele>
        <time>2024-04-07T06:12:43Z</time>
      </trkpt>
      <trkpt lat="49.13491" lon="-0.24712">
        <ele>112.2</ele>
        <time>2024-04-07T06:12:44Z</time>
      </trkpt>
      <trkpt lat="49.13481" lon="-0.24723">
        <ele>112.2</ele>
        <time>2024-04-07T06:12:45Z</time>
      </trkpt>
      <trkpt lat="49.13479" lon="-0.24726">
        <ele>112.2</ele>
        <time>2024-04-07T06:12:46Z</time>
      </trkpt>
      <trkpt lat="49.13476" lon="-0.24729">
        <ele>112.2</ele>
        <time>2024-04-07T06:12:47Z</time>
      </trkpt>
      <trkpt lat="49.13471" lon="-0.24735">
        <ele>112.4</ele>
        <time>2024-04-07T06:12:48Z</time>
      </trkpt>
      <trkpt lat="49.13466" lon="-0.24742">
        <ele>112.6</ele>
        <time>2024-04-07T06:12:49Z</time>
      </trkpt>
      <trkpt lat="49.13462" lon="-0.24749">
        <ele>112.8</ele>
        <time>2024-04-07T06:12:50Z</time>
      </trkpt>
      <trkpt lat="49.13457" lon="-0.24755">
        <ele>112.8</ele>
        <time>2024-04-07T06:12:51Z</time>
      </trkpt>
      <trkpt lat="49.13452" lon="-0.24761">
        <ele>112.8</ele>
        <time>2024-04-07T06:12:52Z</time>
      </trkpt>
      <trkpt lat="49.13443" lon="-0.24773">
        <ele>112.8</ele>
        <time>2024-04-07T06:12:53Z</time>
      </trkpt>
      <trkpt lat="49.1344" lon="-0.24776">
        <ele>113</ele>
        <time>2024-04-07T06:12:54Z</time>
      </trkpt>
      <trkpt lat="49.13438" lon="-0.24778">
        <ele>113</ele>
        <time>2024-04-07T06:12:55Z</time>
      </trkpt>
      <trkpt lat="49.13434" lon="-0.24784">
        <ele>113</ele>
        <time>2024-04-07T06:12:56Z</time>
      </trkpt>
      <trkpt lat="49.13431" lon="-0.24792">
        <ele>113</ele>
        <time>2024-04-07T06:12:57Z</time>
      </trkpt>
      <trkpt lat="49.13428" lon="-0.24799">
        <ele>113.2</ele>
        <time>2024-04-07T06:12:58Z</time>
      </trkpt>
      <trkpt lat="49.13425" lon="-0.24807">
        <ele>113.2</ele>
        <time>2024-04-07T06:12:59Z</time>
      </trkpt>
      <trkpt lat="49.13421" lon="-0.24813">
        <ele>113.2</ele>
        <time>2024-04-07T06:13:00Z</time>
      </trkpt>
      <trkpt lat="49.13418" lon="-0.24821">
        <ele>113.2</ele>
        <time>2024-04-07T06:13:01Z</time>
      </trkpt>
      <trkpt lat="49.13415" lon="-0.2483">
        <ele>113.4</ele>
        <time>2024-04-07T06:13:02Z</time>
      </trkpt>
      <trkpt lat="49.13412" lon="-0.24839">
        <ele>113.4</ele>
        <time>2024-04-07T06:13:03Z</time>
      </trkpt>
      <trkpt lat="49.1341" lon="-0.24847">
        <ele>113.6</ele>
        <time>2024-04-07T06:13:04Z</time>
      </trkpt>
      <trkpt lat="49.13407" lon="-0.24856">
        <ele>113.8</ele>
        <time>2024-04-07T06:13:05Z</time>
      </trkpt>
      <trkpt lat="49.13403" lon="-0.24863">
        <ele>113.8</ele>
        <time>2024-04-07T06:13:06Z</time>
      </trkpt>
      <trkpt lat="49.13399" lon="-0.24871">
        <ele>114</ele>
        <time>2024-04-07T06:13:07Z</time>
      </trkpt>
      <trkpt lat="49.13395" lon="-0.24878">
        <ele>114</ele>
        <time>2024-04-07T06:13:08Z</time>
      </trkpt>
      <trkpt lat="49.13391" lon="-0.24885">
        <ele>114.2</ele>
        <time>2024-04-07T06:13:09Z</time>
      </trkpt>
      <trkpt lat="49.13386" lon="-0.24892">
        <ele>114.2</ele>
        <time>2024-04-07T06:13:10Z</time>
      </trkpt>
      <trkpt lat="49.13382" lon="-0.24898">
        <ele>114.4</ele>
        <time>2024-04-07T06:13:11Z</time>
      </trkpt>
      <trkpt lat="49.13377" lon="-0.24904">
        <ele>114.4</ele>
        <time>2024-04-07T06:13:12Z</time>
      </trkpt>
      <trkpt lat="49.13372" lon="-0.24911">
        <ele>114.4</ele>
        <time>2024-04-07T06:13:13Z</time>
      </trkpt>
      <trkpt lat="49.13367" lon="-0.24917">
        <ele>114.4</ele>
        <time>2024-04-07T06:13:14Z</time>
      </trkpt>
      <trkpt lat="49.13363" lon="-0.24923">
        <ele>114.4</ele>
        <time>2024-04-07T06:13:15Z</time>
      </trkpt>
      <trkpt lat="49.13358" lon="-0.2493">
        <ele>114.6</ele>
        <time>2024-04-07T06:13:16Z</time>
      </trkpt>
      <trkpt lat="49.13353" lon="-0.24937">
        <ele>114.6</ele>
        <time>2024-04-07T06:13:17Z</time>
      </trkpt>
      <trkpt lat="49.13348" lon="-0.24943">
        <ele>114.6</ele>
        <time>2024-04-07T06:13:18Z</time>
      </trkpt>
      <trkpt lat="49.13344" lon="-0.24949">
        <ele>114.6</ele>
        <time>2024-04-07T06:13:19Z</time>
      </trkpt>
      <trkpt lat="49.13339" lon="-0.24955">
        <ele>114.8</ele>
        <time>2024-04-07T06:13:20Z</time>
      </trkpt>
      <trkpt lat="49.13334" lon="-0.2496">
        <ele>114.8</ele>
        <time>2024-04-07T06:13:21Z</time>
      </trkpt>
      <trkpt lat="49.13329" lon="-0.24966">
        <ele>114.8</ele>
        <time>2024-04-07T06:13:22Z</time>
      </trkpt>
      <trkpt lat="49.13324" lon="-0.24971">
        <ele>115</ele>
        <time>2024-04-07T06:13:23Z</time>
      </trkpt>
      <trkpt lat="49.13318" lon="-0.24976">
        <ele>115.2</ele>
        <time>2024-04-07T06:13:24Z</time>
      </trkpt>
      <trkpt lat="49.13313" lon="-0.24981">
        <ele>115.2</ele>
        <time>2024-04-07T06:13:25Z</time>
      </trkpt>
      <trkpt lat="49.13308" lon="-0.24985">
        <ele>115.2</ele>
        <time>2024-04-07T06:13:26Z</time>
      </trkpt>
      <trkpt lat="49.13302" lon="-0.2499">
        <ele>115.2</ele>
        <time>2024-04-07T06:13:27Z</time>
      </trkpt>
      <trkpt lat="49.13296" lon="-0.24995">
        <ele>115.2</ele>
        <time>2024-04-07T06:13:28Z</time>
      </trkpt>
      <trkpt lat="49.13291" lon="-0.24999">
        <ele>115.4</ele>
        <time>2024-04-07T06:13:29Z</time>
      </trkpt>
      <trkpt lat="49.13285" lon="-0.25004">
        <ele>115.4</ele>
        <time>2024-04-07T06:13:30Z</time>
      </trkpt>
      <trkpt lat="49.1328" lon="-0.25009">
        <ele>115.4</ele>
        <time>2024-04-07T06:13:31Z</time>
      </trkpt>
      <trkpt lat="49.13274" lon="-0.25013">
        <ele>115.6</ele>
        <time>2024-04-07T06:13:32Z</time>
      </trkpt>
      <trkpt lat="49.13268" lon="-0.25018">
        <ele>115.8</ele>
        <time>2024-04-07T06:13:33Z</time>
      </trkpt>
      <trkpt lat="49.13263" lon="-0.25023">
        <ele>115.8</ele>
        <time>2024-04-07T06:13:34Z</time>
      </trkpt>
      <trkpt lat="49.13257" lon="-0.25028">
        <ele>115.8</ele>
        <time>2024-04-07T06:13:35Z</time>
      </trkpt>
      <trkpt lat="49.13252" lon="-0.25033">
        <ele>115.8</ele>
        <time>2024-04-07T06:13:36Z</time>
      </trkpt>
      <trkpt lat="49.13246" lon="-0.25038">
        <ele>115.8</ele>
        <time>2024-04-07T06:13:37Z</time>
      </trkpt>
      <trkpt lat="49.1324" lon="-0.25043">
        <ele>115.6</ele>
        <time>2024-04-07T06:13:38Z</time>
      </trkpt>
      <trkpt lat="49.13235" lon="-0.25049">
        <ele>115.6</ele>
        <time>2024-04-07T06:13:39Z</time>
      </trkpt>
      <trkpt lat="49.13229" lon="-0.25055">
        <ele>115.6</ele>
        <time>2024-04-07T06:13:40Z</time>
      </trkpt>
      <trkpt lat="49.13224" lon="-0.2506">
        <ele>115.8</ele>
        <time>2024-04-07T06:13:41Z</time>
      </trkpt>
      <trkpt lat="49.13219" lon="-0.25066">
        <ele>115.8</ele>
        <time>2024-04-07T06:13:42Z</time>
      </trkpt>
      <trkpt lat="49.13213" lon="-0.25071">
        <ele>116</ele>
        <time>2024-04-07T06:13:43Z</time>
      </trkpt>
      <trkpt lat="49.13207" lon="-0.25076">
        <ele>116.2</ele>
        <time>2024-04-07T06:13:44Z</time>
      </trkpt>
      <trkpt lat="49.13202" lon="-0.25081">
        <ele>116.2</ele>
        <time>2024-04-07T06:13:45Z</time>
      </trkpt>
      <trkpt lat="49.13196" lon="-0.25085">
        <ele>116.4</ele>
        <time>2024-04-07T06:13:46Z</time>
      </trkpt>
      <trkpt lat="49.13189" lon="-0.25089">
        <ele>116.4</ele>
        <time>2024-04-07T06:13:47Z</time>
      </trkpt>
      <trkpt lat="49.13183" lon="-0.25092">
        <ele>116.4</ele>
        <time>2024-04-07T06:13:48Z</time>
      </trkpt>
      <trkpt lat="49.13177" lon="-0.25095">
        <ele>116.4</ele>
        <time>2024-04-07T06:13:49Z</time>
      </trkpt>
      <trkpt lat="49.1317" lon="-0.25098">
        <ele>116.4</ele>
        <time>2024-04-07T06:13:50Z</time>
      </trkpt>
      <trkpt lat="49.13164" lon="-0.25102">
        <ele>116.4</ele>
        <time>2024-04-07T06:13:51Z</time>
      </trkpt>
      <trkpt lat="49.13158" lon="-0.25106">
        <ele>116.2</ele>
        <time>2024-04-07T06:13:52Z</time>
      </trkpt>
      <trkpt lat="49.13152" lon="-0.2511">
        <ele>116.2</ele>
        <time>2024-04-07T06:13:53Z</time>
      </trkpt>
      <trkpt lat="49.13146" lon="-0.25114">
        <ele>116.2</ele>
        <time>2024-04-07T06:13:54Z</time>
      </trkpt>
      <trkpt lat="49.1314" lon="-0.25118">
        <ele>116</ele>
        <time>2024-04-07T06:13:55Z</time>
      </trkpt>
      <trkpt lat="49.13134" lon="-0.25124">
        <ele>116</ele>
        <time>2024-04-07T06:13:56Z</time>
      </trkpt>
      <trkpt lat="49.13129" lon="-0.25129">
        <ele>116</ele>
        <time>2024-04-07T06:13:57Z</time>
      </trkpt>
      <trkpt lat="49.13123" lon="-0.25134">
        <ele>116</ele>
        <time>2024-04-07T06:13:58Z</time>
      </trkpt>
      <trkpt lat="49.13117" lon="-0.25139">
        <ele>116.2</ele>
        <time>2024-04-07T06:13:59Z</time>
      </trkpt>
      <trkpt lat="49.13112" lon="-0.25144">
        <ele>116.2</ele>
        <time>2024-04-07T06:14:00Z</time>
      </trkpt>
      <trkpt lat="49.13106" lon="-0.25149">
        <ele>116.2</ele>
        <time>2024-04-07T06:14:01Z</time>
      </trkpt>
      <trkpt lat="49.13101" lon="-0.25154">
        <ele>116.2</ele>
        <time>2024-04-07T06:14:02Z</time>
      </trkpt>
      <trkpt lat="49.13096" lon="-0.25159">
        <ele>116.2</ele>
        <time>2024-04-07T06:14:03Z</time>
      </trkpt>
      <trkpt lat="49.1309" lon="-0.25165">
        <ele>116.4</ele>
        <time>2024-04-07T06:14:04Z</time>
      </trkpt>
      <trkpt lat="49.13085" lon="-0.2517">
        <ele>116.4</ele>
        <time>2024-04-07T06:14:05Z</time>
      </trkpt>
      <trkpt lat="49.13079" lon="-0.25175">
        <ele>116.6</ele>
        <time>2024-04-07T06:14:06Z</time>
      </trkpt>
      <trkpt lat="49.13074" lon="-0.2518">
        <ele>116.8</ele>
        <time>2024-04-07T06:14:07Z</time>
      </trkpt>
      <trkpt lat="49.13069" lon="-0.25185">
        <ele>117</ele>
        <time>2024-04-07T06:14:08Z</time>
      </trkpt>
      <trkpt lat="49.13063" lon="-0.2519">
        <ele>117.2</ele>
        <time>2024-04-07T06:14:09Z</time>
      </trkpt>
      <trkpt lat="49.13058" lon="-0.25195">
        <ele>117.4</ele>
        <time>2024-04-07T06:14:10Z</time>
      </trkpt>
      <trkpt lat="49.13053" lon="-0.252">
        <ele>117.6</ele>
        <time>2024-04-07T06:14:11Z</time>
      </trkpt>
      <trkpt lat="49.13048" lon="-0.25205">
        <ele>117.8</ele>
        <time>2024-04-07T06:14:12Z</time>
      </trkpt>
      <trkpt lat="49.13042" lon="-0.2521">
        <ele>117.8</ele>
        <time>2024-04-07T06:14:13Z</time>
      </trkpt>
      <trkpt lat="49.13037" lon="-0.25216">
        <ele>118</ele>
        <time>2024-04-07T06:14:14Z</time>
      </trkpt>
      <trkpt lat="49.13033" lon="-0.25221">
        <ele>118</ele>
        <time>2024-04-07T06:14:15Z</time>
      </trkpt>
      <trkpt lat="49.13028" lon="-0.25228">
        <ele>118</ele>
        <time>2024-04-07T06:14:16Z</time>
      </trkpt>
      <trkpt lat="49.13024" lon="-0.25234">
        <ele>118.2</ele>
        <time>2024-04-07T06:14:17Z</time>
      </trkpt>
      <trkpt lat="49.1302" lon="-0.25242">
        <ele>118.4</ele>
        <time>2024-04-07T06:14:18Z</time>
      </trkpt>
      <trkpt lat="49.13017" lon="-0.2525">
        <ele>118.8</ele>
        <time>2024-04-07T06:14:19Z</time>
      </trkpt>
      <trkpt lat="49.13014" lon="-0.25258">
        <ele>119.4</ele>
        <time>2024-04-07T06:14:20Z</time>
      </trkpt>
      <trkpt lat="49.13011" lon="-0.25267">
        <ele>119.8</ele>
        <time>2024-04-07T06:14:21Z</time>
      </trkpt>
      <trkpt lat="49.13008" lon="-0.25276">
        <ele>120.2</ele>
        <time>2024-04-07T06:14:22Z</time>
      </trkpt>
      <trkpt lat="49.13006" lon="-0.25285">
        <ele>120.4</ele>
        <time>2024-04-07T06:14:23Z</time>
      </trkpt>
      <trkpt lat="49.13003" lon="-0.25294">
        <ele>120.8</ele>
        <time>2024-04-07T06:14:24Z</time>
      </trkpt>
      <trkpt lat="49.13001" lon="-0.25304">
        <ele>121.2</ele>
        <time>2024-04-07T06:14:25Z</time>
      </trkpt>
      <trkpt lat="49.12998" lon="-0.25313">
        <ele>121.4</ele>
        <time>2024-04-07T06:14:26Z</time>
      </trkpt>
      <trkpt lat="49.12995" lon="-0.25322">
        <ele>121.4</ele>
        <time>2024-04-07T06:14:27Z</time>
      </trkpt>
      <trkpt lat="49.12992" lon="-0.25331">
        <ele>121.6</ele>
        <time>2024-04-07T06:14:28Z</time>
      </trkpt>
      <trkpt lat="49.1299" lon="-0.2534">
        <ele>121.6</ele>
        <time>2024-04-07T06:14:29Z</time>
      </trkpt>
      <trkpt lat="49.12987" lon="-0.25349">
        <ele>121.6</ele>
        <time>2024-04-07T06:14:30Z</time>
      </trkpt>
      <trkpt lat="49.12983" lon="-0.25357">
        <ele>121.6</ele>
        <time>2024-04-07T06:14:31Z</time>
      </trkpt>
      <trkpt lat="49.1298" lon="-0.25366">
        <ele>121.6</ele>
        <time>2024-04-07T06:14:32Z</time>
      </trkpt>
      <trkpt lat="49.12977" lon="-0.25374">
        <ele>121.4</ele>
        <time>2024-04-07T06:14:33Z</time>
      </trkpt>
      <trkpt lat="49.12974" lon="-0.25382">
        <ele>121.4</ele>
        <time>2024-04-07T06:14:34Z</time>
      </trkpt>
      <trkpt lat="49.1297" lon="-0.25391">
        <ele>121.6</ele>
        <time>2024-04-07T06:14:35Z</time>
      </trkpt>
      <trkpt lat="49.12967" lon="-0.25399">
        <ele>121.6</ele>
        <time>2024-04-07T06:14:36Z</time>
      </trkpt>
      <trkpt lat="49.12964" lon="-0.25407">
        <ele>122</ele>
        <time>2024-04-07T06:14:37Z</time>
      </trkpt>
      <trkpt lat="49.1296" lon="-0.25416">
        <ele>122.6</ele>
        <time>2024-04-07T06:14:38Z</time>
      </trkpt>
      <trkpt lat="49.12957" lon="-0.25424">
        <ele>122.8</ele>
        <time>2024-04-07T06:14:39Z</time>
      </trkpt>
      <trkpt lat="49.12953" lon="-0.25432">
        <ele>123</ele>
        <time>2024-04-07T06:14:40Z</time>
      </trkpt>
      <trkpt lat="49.1295" lon="-0.2544">
        <ele>123</ele>
        <time>2024-04-07T06:14:41Z</time>
      </trkpt>
      <trkpt lat="49.12946" lon="-0.25448">
        <ele>123.2</ele>
        <time>2024-04-07T06:14:42Z</time>
      </trkpt>
      <trkpt lat="49.12943" lon="-0.25456">
        <ele>123.4</ele>
        <time>2024-04-07T06:14:43Z</time>
      </trkpt>
      <trkpt lat="49.12939" lon="-0.25464">
        <ele>123.4</ele>
        <time>2024-04-07T06:14:44Z</time>
      </trkpt>
      <trkpt lat="49.12935" lon="-0.25472">
        <ele>123.6</ele>
        <time>2024-04-07T06:14:45Z</time>
      </trkpt>
      <trkpt lat="49.12931" lon="-0.2548">
        <ele>123.8</ele>
        <time>2024-04-07T06:14:46Z</time>
      </trkpt>
      <trkpt lat="49.12928" lon="-0.25488">
        <ele>124</ele>
        <time>2024-04-07T06:14:47Z</time>
      </trkpt>
      <trkpt lat="49.12924" lon="-0.25496">
        <ele>124.2</ele>
        <time>2024-04-07T06:14:48Z</time>
      </trkpt>
      <trkpt lat="49.1292" lon="-0.25505">
        <ele>124.2</ele>
        <time>2024-04-07T06:14:49Z</time>
      </trkpt>
      <trkpt lat="49.12916" lon="-0.25513">
        <ele>124.2</ele>
        <time>2024-04-07T06:14:50Z</time>
      </trkpt>
      <trkpt lat="49.12912" lon="-0.25521">
        <ele>124.4</ele>
        <time>2024-04-07T06:14:51Z</time>
      </trkpt>
      <trkpt lat="49.12908" lon="-0.25529">
        <ele>124.4</ele>
        <time>2024-04-07T06:14:52Z</time>
      </trkpt>
      <trkpt lat="49.12904" lon="-0.25536">
        <ele>124.2</ele>
        <time>2024-04-07T06:14:53Z</time>
      </trkpt>
      <trkpt lat="49.12896" lon="-0.25552">
        <ele>124</ele>
        <time>2024-04-07T06:14:54Z</time>
      </trkpt>
      <trkpt lat="49.12894" lon="-0.25556">
        <ele>123.8</ele>
        <time>2024-04-07T06:14:55Z</time>
      </trkpt>
      <trkpt lat="49.12892" lon="-0.2556">
        <ele>123.8</ele>
        <time>2024-04-07T06:14:56Z</time>
      </trkpt>
      <trkpt lat="49.12888" lon="-0.25568">
        <ele>123.8</ele>
        <time>2024-04-07T06:14:57Z</time>
      </trkpt>
      <trkpt lat="49.12884" lon="-0.25576">
        <ele>123.8</ele>
        <time>2024-04-07T06:14:58Z</time>
      </trkpt>
      <trkpt lat="49.1288" lon="-0.25584">
        <ele>123.8</ele>
        <time>2024-04-07T06:14:59Z</time>
      </trkpt>
      <trkpt lat="49.12876" lon="-0.25592">
        <ele>123.8</ele>
        <time>2024-04-07T06:15:00Z</time>
      </trkpt>
      <trkpt lat="49.12872" lon="-0.256">
        <ele>123.8</ele>
        <time>2024-04-07T06:15:01Z</time>
      </trkpt>
      <trkpt lat="49.12868" lon="-0.25608">
        <ele>124</ele>
        <time>2024-04-07T06:15:02Z</time>
      </trkpt>
      <trkpt lat="49.12863" lon="-0.25616">
        <ele>124</ele>
        <time>2024-04-07T06:15:03Z</time>
      </trkpt>
      <trkpt lat="49.12859" lon="-0.25624">
        <ele>124</ele>
        <time>2024-04-07T06:15:04Z</time>
      </trkpt>
      <trkpt lat="49.12855" lon="-0.25632">
        <ele>123.8</ele>
        <time>2024-04-07T06:15:05Z</time>
      </trkpt>
      <trkpt lat="49.12851" lon="-0.2564">
        <ele>123.8</ele>
        <time>2024-04-07T06:15:06Z</time>
      </trkpt>
      <trkpt lat="49.12847" lon="-0.25648">
        <ele>123.6</ele>
        <time>2024-04-07T06:15:07Z</time>
      </trkpt>
      <trkpt lat="49.12843" lon="-0.25656">
        <ele>123.6</ele>
        <time>2024-04-07T06:15:08Z</time>
      </trkpt>
      <trkpt lat="49.12839" lon="-0.25663">
        <ele>123.4</ele>
        <time>2024-04-07T06:15:09Z</time>
      </trkpt>
      <trkpt lat="49.12835" lon="-0.25671">
        <ele>123.4</ele>
        <time>2024-04-07T06:15:10Z</time>
      </trkpt>
      <trkpt lat="49.12831" lon="-0.25679">
        <ele>123.4</ele>
        <time>2024-04-07T06:15:11Z</time>
      </trkpt>
      <trkpt lat="49.12827" lon="-0.25687">
        <ele>123.6</ele>
        <time>2024-04-07T06:15:12Z</time>
      </trkpt>
      <trkpt lat="49.12822" lon="-0.25694">
        <ele>123.8</ele>
        <time>2024-04-07T06:15:13Z</time>
      </trkpt>
      <trkpt lat="49.12818" lon="-0.25702">
        <ele>124</ele>
        <time>2024-04-07T06:15:14Z</time>
      </trkpt>
      <trkpt lat="49.12814" lon="-0.25709">
        <ele>124.2</ele>
        <time>2024-04-07T06:15:15Z</time>
      </trkpt>
      <trkpt lat="49.1281" lon="-0.25717">
        <ele>124.2</ele>
        <time>2024-04-07T06:15:16Z</time>
      </trkpt>
      <trkpt lat="49.12806" lon="-0.25724">
        <ele>124.4</ele>
        <time>2024-04-07T06:15:17Z</time>
      </trkpt>
      <trkpt lat="49.12801" lon="-0.25732">
        <ele>124.6</ele>
        <time>2024-04-07T06:15:18Z</time>
      </trkpt>
      <trkpt lat="49.12797" lon="-0.25739">
        <ele>124.8</ele>
        <time>2024-04-07T06:15:19Z</time>
      </trkpt>
      <trkpt lat="49.12793" lon="-0.25746">
        <ele>124.8</ele>
        <time>2024-04-07T06:15:20Z</time>
      </trkpt>
      <trkpt lat="49.12788" lon="-0.25753">
        <ele>124.8</ele>
        <time>2024-04-07T06:15:21Z</time>
      </trkpt>
      <trkpt lat="49.12784" lon="-0.25761">
        <ele>124.8</ele>
        <time>2024-04-07T06:15:22Z</time>
      </trkpt>
      <trkpt lat="49.1278" lon="-0.25768">
        <ele>125</ele>
        <time>2024-04-07T06:15:23Z</time>
      </trkpt>
      <trkpt lat="49.12775" lon="-0.25775">
        <ele>125.2</ele>
        <time>2024-04-07T06:15:24Z</time>
      </trkpt>
      <trkpt lat="49.12771" lon="-0.25782">
        <ele>125.6</ele>
        <time>2024-04-07T06:15:25Z</time>
      </trkpt>
      <trkpt lat="49.12766" lon="-0.25789">
        <ele>125.8</ele>
        <time>2024-04-07T06:15:26Z</time>
      </trkpt>
      <trkpt lat="49.12762" lon="-0.25796">
        <ele>126</ele>
        <time>2024-04-07T06:15:27Z</time>
      </trkpt>
      <trkpt lat="49.12758" lon="-0.25803">
        <ele>126.2</ele>
        <time>2024-04-07T06:15:28Z</time>
      </trkpt>
      <trkpt lat="49.12753" lon="-0.2581">
        <ele>126.4</ele>
        <time>2024-04-07T06:15:29Z</time>
      </trkpt>
      <trkpt lat="49.12749" lon="-0.25817">
        <ele>126.6</ele>
        <time>2024-04-07T06:15:30Z</time>
      </trkpt>
      <trkpt lat="49.12745" lon="-0.25823">
        <ele>126.8</ele>
        <time>2024-04-07T06:15:31Z</time>
      </trkpt>
      <trkpt lat="49.1274" lon="-0.2583">
        <ele>127</ele>
        <time>2024-04-07T06:15:32Z</time>
      </trkpt>
      <trkpt lat="49.12735" lon="-0.25836">
        <ele>127.2</ele>
        <time>2024-04-07T06:15:33Z</time>
      </trkpt>
      <trkpt lat="49.12731" lon="-0.25843">
        <ele>127.4</ele>
        <time>2024-04-07T06:15:34Z</time>
      </trkpt>
      <trkpt lat="49.12726" lon="-0.25849">
        <ele>127.6</ele>
        <time>2024-04-07T06:15:35Z</time>
      </trkpt>
      <trkpt lat="49.12721" lon="-0.25854">
        <ele>127.6</ele>
        <time>2024-04-07T06:15:36Z</time>
      </trkpt>
      <trkpt lat="49.12716" lon="-0.2586">
        <ele>127.4</ele>
        <time>2024-04-07T06:15:37Z</time>
      </trkpt>
      <trkpt lat="49.1271" lon="-0.25866">
        <ele>127</ele>
        <time>2024-04-07T06:15:38Z</time>
      </trkpt>
      <trkpt lat="49.12705" lon="-0.25872">
        <ele>126.8</ele>
        <time>2024-04-07T06:15:39Z</time>
      </trkpt>
      <trkpt lat="49.127" lon="-0.25878">
        <ele>126.8</ele>
        <time>2024-04-07T06:15:40Z</time>
      </trkpt>
      <trkpt lat="49.12695" lon="-0.25884">
        <ele>126.8</ele>
        <time>2024-04-07T06:15:41Z</time>
      </trkpt>
      <trkpt lat="49.1269" lon="-0.25889">
        <ele>127.2</ele>
        <time>2024-04-07T06:15:42Z</time>
      </trkpt>
      <trkpt lat="49.12685" lon="-0.25895">
        <ele>127.8</ele>
        <time>2024-04-07T06:15:43Z</time>
      </trkpt>
      <trkpt lat="49.12679" lon="-0.259">
        <ele>128.2</ele>
        <time>2024-04-07T06:15:44Z</time>
      </trkpt>
      <trkpt lat="49.12674" lon="-0.25906">
        <ele>128.6</ele>
        <time>2024-04-07T06:15:45Z</time>
      </trkpt>
      <trkpt lat="49.12669" lon="-0.25911">
        <ele>128.8</ele>
        <time>2024-04-07T06:15:46Z</time>
      </trkpt>
      <trkpt lat="49.12664" lon="-0.25917">
        <ele>129</ele>
        <time>2024-04-07T06:15:47Z</time>
      </trkpt>
      <trkpt lat="49.12658" lon="-0.25922">
        <ele>129</ele>
        <time>2024-04-07T06:15:48Z</time>
      </trkpt>
      <trkpt lat="49.12653" lon="-0.25927">
        <ele>129.2</ele>
        <time>2024-04-07T06:15:49Z</time>
      </trkpt>
      <trkpt lat="49.12648" lon="-0.25932">
        <ele>129</ele>
        <time>2024-04-07T06:15:50Z</time>
      </trkpt>
      <trkpt lat="49.12642" lon="-0.25937">
        <ele>129</ele>
        <time>2024-04-07T06:15:51Z</time>
      </trkpt>
      <trkpt lat="49.12637" lon="-0.25942">
        <ele>128.8</ele>
        <time>2024-04-07T06:15:52Z</time>
      </trkpt>
      <trkpt lat="49.12631" lon="-0.25947">
        <ele>128.4</ele>
        <time>2024-04-07T06:15:53Z</time>
      </trkpt>
      <trkpt lat="49.12625" lon="-0.25952">
        <ele>128.2</ele>
        <time>2024-04-07T06:15:54Z</time>
      </trkpt>
      <trkpt lat="49.1262" lon="-0.25958">
        <ele>127.8</ele>
        <time>2024-04-07T06:15:55Z</time>
      </trkpt>
      <trkpt lat="49.12614" lon="-0.25964">
        <ele>127.8</ele>
        <time>2024-04-07T06:15:56Z</time>
      </trkpt>
      <trkpt lat="49.12608" lon="-0.25969">
        <ele>127.8</ele>
        <time>2024-04-07T06:15:57Z</time>
      </trkpt>
      <trkpt lat="49.12602" lon="-0.25974">
        <ele>127.8</ele>
        <time>2024-04-07T06:15:58Z</time>
      </trkpt>
      <trkpt lat="49.12597" lon="-0.2598">
        <ele>127.8</ele>
        <time>2024-04-07T06:15:59Z</time>
      </trkpt>
      <trkpt lat="49.12591" lon="-0.25985">
        <ele>127.8</ele>
        <time>2024-04-07T06:16:00Z</time>
      </trkpt>
      <trkpt lat="49.12579" lon="-0.25996">
        <ele>127.8</ele>
        <time>2024-04-07T06:16:01Z</time>
      </trkpt>
      <trkpt lat="49.12576" lon="-0.25999">
        <ele>127.8</ele>
        <time>2024-04-07T06:16:02Z</time>
      </trkpt>
      <trkpt lat="49.12574" lon="-0.26002">
        <ele>127.8</ele>
        <time>2024-04-07T06:16:03Z</time>
      </trkpt>
      <trkpt lat="49.12568" lon="-0.26007">
        <ele>128</ele>
        <time>2024-04-07T06:16:04Z</time>
      </trkpt>
      <trkpt lat="49.12562" lon="-0.26012">
        <ele>128</ele>
        <time>2024-04-07T06:16:05Z</time>
      </trkpt>
      <trkpt lat="49.12556" lon="-0.26017">
        <ele>127.8</ele>
        <time>2024-04-07T06:16:06Z</time>
      </trkpt>
      <trkpt lat="49.12551" lon="-0.26021">
        <ele>127.8</ele>
        <time>2024-04-07T06:16:07Z</time>
      </trkpt>
      <trkpt lat="49.12545" lon="-0.26026">
        <ele>127.8</ele>
        <time>2024-04-07T06:16:08Z</time>
      </trkpt>
      <trkpt lat="49.12539" lon="-0.26031">
        <ele>127.8</ele>
        <time>2024-04-07T06:16:09Z</time>
      </trkpt>
      <trkpt lat="49.12534" lon="-0.26036">
        <ele>128</ele>
        <time>2024-04-07T06:16:10Z</time>
      </trkpt>
      <trkpt lat="49.12528" lon="-0.26041">
        <ele>128</ele>
        <time>2024-04-07T06:16:11Z</time>
      </trkpt>
      <trkpt lat="49.12522" lon="-0.26046">
        <ele>128.2</ele>
        <time>2024-04-07T06:16:12Z</time>
      </trkpt>
      <trkpt lat="49.12516" lon="-0.2605">
        <ele>128.4</ele>
        <time>2024-04-07T06:16:13Z</time>
      </trkpt>
      <trkpt lat="49.12511" lon="-0.26055">
        <ele>128.6</ele>
        <time>2024-04-07T06:16:14Z</time>
      </trkpt>
      <trkpt lat="49.12505" lon="-0.2606">
        <ele>128.6</ele>
        <time>2024-04-07T06:16:15Z</time>
      </trkpt>
      <trkpt lat="49.12499" lon="-0.26065">
        <ele>128.8</ele>
        <time>2024-04-07T06:16:16Z</time>
      </trkpt>
      <trkpt lat="49.12493" lon="-0.2607">
        <ele>128.8</ele>
        <time>2024-04-07T06:16:17Z</time>
      </trkpt>
      <trkpt lat="49.12488" lon="-0.26074">
        <ele>128.6</ele>
        <time>2024-04-07T06:16:18Z</time>
      </trkpt>
      <trkpt lat="49.12482" lon="-0.26079">
        <ele>128.6</ele>
        <time>2024-04-07T06:16:19Z</time>
      </trkpt>
      <trkpt lat="49.12476" lon="-0.26084">
        <ele>128.6</ele>
        <time>2024-04-07T06:16:20Z</time>
      </trkpt>
      <trkpt lat="49.12471" lon="-0.26089">
        <ele>128.4</ele>
        <time>2024-04-07T06:16:21Z</time>
      </trkpt>
      <trkpt lat="49.12465" lon="-0.26093">
        <ele>128.4</ele>
        <time>2024-04-07T06:16:22Z</time>
      </trkpt>
      <trkpt lat="49.12459" lon="-0.26098">
        <ele>128.4</ele>
        <time>2024-04-07T06:16:23Z</time>
      </trkpt>
      <trkpt lat="49.12454" lon="-0.26104">
        <ele>128.2</ele>
        <time>2024-04-07T06:16:24Z</time>
      </trkpt>
      <trkpt lat="49.12448" lon="-0.26109">
        <ele>128.2</ele>
        <time>2024-04-07T06:16:25Z</time>
      </trkpt>
      <trkpt lat="49.12443" lon="-0.26114">
        <ele>128.2</ele>
        <time>2024-04-07T06:16:26Z</time>
      </trkpt>
      <trkpt lat="49.12437" lon="-0.26119">
        <ele>128.2</ele>
        <time>2024-04-07T06:16:27Z</time>
      </trkpt>
      <trkpt lat="49.12432" lon="-0.26124">
        <ele>128</ele>
        <time>2024-04-07T06:16:28Z</time>
      </trkpt>
      <trkpt lat="49.12426" lon="-0.26129">
        <ele>128</ele>
        <time>2024-04-07T06:16:29Z</time>
      </trkpt>
      <trkpt lat="49.12421" lon="-0.26135">
        <ele>128.2</ele>
        <time>2024-04-07T06:16:30Z</time>
      </trkpt>
      <trkpt lat="49.12415" lon="-0.2614">
        <ele>128.4</ele>
        <time>2024-04-07T06:16:31Z</time>
      </trkpt>
      <trkpt lat="49.1241" lon="-0.26146">
        <ele>128.4</ele>
        <time>2024-04-07T06:16:32Z</time>
      </trkpt>
      <trkpt lat="49.12404" lon="-0.26151">
        <ele>128.6</ele>
        <time>2024-04-07T06:16:33Z</time>
      </trkpt>
      <trkpt lat="49.12399" lon="-0.26157">
        <ele>128.6</ele>
        <time>2024-04-07T06:16:34Z</time>
      </trkpt>
      <trkpt lat="49.12394" lon="-0.26163">
        <ele>128.8</ele>
        <time>2024-04-07T06:16:35Z</time>
      </trkpt>
      <trkpt lat="49.12388" lon="-0.26169">
        <ele>128.6</ele>
        <time>2024-04-07T06:16:36Z</time>
      </trkpt>
      <trkpt lat="49.12383" lon="-0.26175">
        <ele>128.6</ele>
        <time>2024-04-07T06:16:37Z</time>
      </trkpt>
      <trkpt lat="49.12378" lon="-0.26181">
        <ele>128.4</ele>
        <time>2024-04-07T06:16:38Z</time>
      </trkpt>
      <trkpt lat="49.12373" lon="-0.26188">
        <ele>128.4</ele>
        <time>2024-04-07T06:16:39Z</time>
      </trkpt>
      <trkpt lat="49.12369" lon="-0.26194">
        <ele>128.4</ele>
        <time>2024-04-07T06:16:40Z</time>
      </trkpt>
      <trkpt lat="49.12364" lon="-0.26201">
        <ele>128.6</ele>
        <time>2024-04-07T06:16:41Z</time>
      </trkpt>
      <trkpt lat="49.12359" lon="-0.26209">
        <ele>128.4</ele>
        <time>2024-04-07T06:16:42Z</time>
      </trkpt>
      <trkpt lat="49.12355" lon="-0.26216">
        <ele>128.6</ele>
        <time>2024-04-07T06:16:43Z</time>
      </trkpt>
      <trkpt lat="49.12351" lon="-0.26224">
        <ele>128.6</ele>
        <time>2024-04-07T06:16:44Z</time>
      </trkpt>
      <trkpt lat="49.12347" lon="-0.26232">
        <ele>128.8</ele>
        <time>2024-04-07T06:16:45Z</time>
      </trkpt>
      <trkpt lat="49.12343" lon="-0.2624">
        <ele>128.8</ele>
        <time>2024-04-07T06:16:46Z</time>
      </trkpt>
      <trkpt lat="49.12339" lon="-0.26248">
        <ele>129</ele>
        <time>2024-04-07T06:16:47Z</time>
      </trkpt>
      <trkpt lat="49.12335" lon="-0.26256">
        <ele>129.2</ele>
        <time>2024-04-07T06:16:48Z</time>
      </trkpt>
      <trkpt lat="49.12332" lon="-0.26263">
        <ele>129.4</ele>
        <time>2024-04-07T06:16:49Z</time>
      </trkpt>
      <trkpt lat="49.12328" lon="-0.26271">
        <ele>129.4</ele>
        <time>2024-04-07T06:16:50Z</time>
      </trkpt>
      <trkpt lat="49.12324" lon="-0.26279">
        <ele>129.6</ele>
        <time>2024-04-07T06:16:51Z</time>
      </trkpt>
      <trkpt lat="49.1232" lon="-0.26288">
        <ele>129.6</ele>
        <time>2024-04-07T06:16:52Z</time>
      </trkpt>
      <trkpt lat="49.12317" lon="-0.26296">
        <ele>129.6</ele>
        <time>2024-04-07T06:16:53Z</time>
      </trkpt>
      <trkpt lat="49.12313" lon="-0.26304">
        <ele>129.6</ele>
        <time>2024-04-07T06:16:54Z</time>
      </trkpt>
      <trkpt lat="49.12309" lon="-0.26312">
        <ele>129.4</ele>
        <time>2024-04-07T06:16:55Z</time>
      </trkpt>
      <trkpt lat="49.12306" lon="-0.2632">
        <ele>129.4</ele>
        <time>2024-04-07T06:16:56Z</time>
      </trkpt>
      <trkpt lat="49.12302" lon="-0.26329">
        <ele>129.2</ele>
        <time>2024-04-07T06:16:57Z</time>
      </trkpt>
      <trkpt lat="49.12295" lon="-0.26346">
        <ele>129.2</ele>
        <time>2024-04-07T06:16:58Z</time>
      </trkpt>
      <trkpt lat="49.12293" lon="-0.2635">
        <ele>129.4</ele>
        <time>2024-04-07T06:16:59Z</time>
      </trkpt>
      <trkpt lat="49.12291" lon="-0.26354">
        <ele>129.8</ele>
        <time>2024-04-07T06:17:00Z</time>
      </trkpt>
      <trkpt lat="49.12287" lon="-0.26363">
        <ele>130.2</ele>
        <time>2024-04-07T06:17:01Z</time>
      </trkpt>
      <trkpt lat="49.12283" lon="-0.26371">
        <ele>130.2</ele>
        <time>2024-04-07T06:17:02Z</time>
      </trkpt>
      <trkpt lat="49.12279" lon="-0.26379">
        <ele>130.6</ele>
        <time>2024-04-07T06:17:03Z</time>
      </trkpt>
      <trkpt lat="49.12276" lon="-0.26387">
        <ele>130.8</ele>
        <time>2024-04-07T06:17:04Z</time>
      </trkpt>
      <trkpt lat="49.12272" lon="-0.26396">
        <ele>130.6</ele>
        <time>2024-04-07T06:17:05Z</time>
      </trkpt>
      <trkpt lat="49.12268" lon="-0.26404">
        <ele>130.4</ele>
        <time>2024-04-07T06:17:06Z</time>
      </trkpt>
      <trkpt lat="49.12264" lon="-0.26412">
        <ele>130.4</ele>
        <time>2024-04-07T06:17:07Z</time>
      </trkpt>
      <trkpt lat="49.1226" lon="-0.2642">
        <ele>130.8</ele>
        <time>2024-04-07T06:17:08Z</time>
      </trkpt>
      <trkpt lat="49.12256" lon="-0.26428">
        <ele>131</ele>
        <time>2024-04-07T06:17:09Z</time>
      </trkpt>
      <trkpt lat="49.12253" lon="-0.26436">
        <ele>131.4</ele>
        <time>2024-04-07T06:17:10Z</time>
      </trkpt>
      <trkpt lat="49.12249" lon="-0.26444">
        <ele>131.8</ele>
        <time>2024-04-07T06:17:11Z</time>
      </trkpt>
      <trkpt lat="49.12245" lon="-0.26452">
        <ele>132.4</ele>
        <time>2024-04-07T06:17:12Z</time>
      </trkpt>
      <trkpt lat="49.12241" lon="-0.26459">
        <ele>132.8</ele>
        <time>2024-04-07T06:17:13Z</time>
      </trkpt>
      <trkpt lat="49.12237" lon="-0.26467">
        <ele>133</ele>
        <time>2024-04-07T06:17:14Z</time>
      </trkpt>
      <trkpt lat="49.12233" lon="-0.26475">
        <ele>133.2</ele>
        <time>2024-04-07T06:17:15Z</time>
      </trkpt>
      <trkpt lat="49.12229" lon="-0.26482">
        <ele>133.4</ele>
        <time>2024-04-07T06:17:16Z</time>
      </trkpt>
      <trkpt lat="49.12225" lon="-0.2649">
        <ele>133.4</ele>
        <time>2024-04-07T06:17:17Z</time>
      </trkpt>
      <trkpt lat="49.1222" lon="-0.26498">
        <ele>133.4</ele>
        <time>2024-04-07T06:17:18Z</time>
      </trkpt>
      <trkpt lat="49.12216" lon="-0.26505">
        <ele>133.4</ele>
        <time>2024-04-07T06:17:19Z</time>
      </trkpt>
      <trkpt lat="49.12212" lon="-0.26513">
        <ele>133.6</ele>
        <time>2024-04-07T06:17:20Z</time>
      </trkpt>
      <trkpt lat="49.12208" lon="-0.2652">
        <ele>133.6</ele>
        <time>2024-04-07T06:17:21Z</time>
      </trkpt>
      <trkpt lat="49.12203" lon="-0.26528">
        <ele>133.6</ele>
        <time>2024-04-07T06:17:22Z</time>
      </trkpt>
      <trkpt lat="49.12199" lon="-0.26535">
        <ele>133.6</ele>
        <time>2024-04-07T06:17:23Z</time>
      </trkpt>
      <trkpt lat="49.12195" lon="-0.26542">
        <ele>133.6</ele>
        <time>2024-04-07T06:17:24Z</time>
      </trkpt>
      <trkpt lat="49.1219" lon="-0.2655">
        <ele>133.6</ele>
        <time>2024-04-07T06:17:25Z</time>
      </trkpt>
      <trkpt lat="49.12186" lon="-0.26557">
        <ele>133.6</ele>
        <time>2024-04-07T06:17:26Z</time>
      </trkpt>
      <trkpt lat="49.12181" lon="-0.26564">
        <ele>133.4</ele>
        <time>2024-04-07T06:17:27Z</time>
      </trkpt>
      <trkpt lat="49.12177" lon="-0.26571">
        <ele>133.4</ele>
        <time>2024-04-07T06:17:28Z</time>
      </trkpt>
      <trkpt lat="49.12172" lon="-0.26579">
        <ele>133.4</ele>
        <time>2024-04-07T06:17:29Z</time>
      </trkpt>
      <trkpt lat="49.12167" lon="-0.26586">
        <ele>133.6</ele>
        <time>2024-04-07T06:17:30Z</time>
      </trkpt>
      <trkpt lat="49.12163" lon="-0.26593">
        <ele>133.6</ele>
        <time>2024-04-07T06:17:31Z</time>
      </trkpt>
      <trkpt lat="49.12158" lon="-0.266">
        <ele>133.8</ele>
        <time>2024-04-07T06:17:32Z</time>
      </trkpt>
      <trkpt lat="49.12154" lon="-0.26608">
        <ele>133.8</ele>
        <time>2024-04-07T06:17:33Z</time>
      </trkpt>
      <trkpt lat="49.12149" lon="-0.26615">
        <ele>134</ele>
        <time>2024-04-07T06:17:34Z</time>
      </trkpt>
      <trkpt lat="49.12145" lon="-0.26622">
        <ele>134.2</ele>
        <time>2024-04-07T06:17:35Z</time>
      </trkpt>
      <trkpt lat="49.1214" lon="-0.2663">
        <ele>134.2</ele>
        <time>2024-04-07T06:17:36Z</time>
      </trkpt>
      <trkpt lat="49.12135" lon="-0.26637">
        <ele>134.2</ele>
        <time>2024-04-07T06:17:37Z</time>
      </trkpt>
      <trkpt lat="49.12131" lon="-0.26644">
        <ele>134.4</ele>
        <time>2024-04-07T06:17:38Z</time>
      </trkpt>
      <trkpt lat="49.12126" lon="-0.26652">
        <ele>134.4</ele>
        <time>2024-04-07T06:17:39Z</time>
      </trkpt>
      <trkpt lat="49.12122" lon="-0.26659">
        <ele>134.6</ele>
        <time>2024-04-07T06:17:40Z</time>
      </trkpt>
      <trkpt lat="49.12118" lon="-0.26666">
        <ele>134.6</ele>
        <time>2024-04-07T06:17:41Z</time>
      </trkpt>
      <trkpt lat="49.12113" lon="-0.26673">
        <ele>134.8</ele>
        <time>2024-04-07T06:17:42Z</time>
      </trkpt>
      <trkpt lat="49.12109" lon="-0.26681">
        <ele>135</ele>
        <time>2024-04-07T06:17:43Z</time>
      </trkpt>
      <trkpt lat="49.12104" lon="-0.26688">
        <ele>135.2</ele>
        <time>2024-04-07T06:17:44Z</time>
      </trkpt>
      <trkpt lat="49.121" lon="-0.26695">
        <ele>135.2</ele>
        <time>2024-04-07T06:17:45Z</time>
      </trkpt>
      <trkpt lat="49.12095" lon="-0.26702">
        <ele>135.4</ele>
        <time>2024-04-07T06:17:46Z</time>
      </trkpt>
      <trkpt lat="49.12091" lon="-0.26709">
        <ele>135.4</ele>
        <time>2024-04-07T06:17:47Z</time>
      </trkpt>
      <trkpt lat="49.12086" lon="-0.26717">
        <ele>135.4</ele>
        <time>2024-04-07T06:17:48Z</time>
      </trkpt>
      <trkpt lat="49.12082" lon="-0.26724">
        <ele>135.4</ele>
        <time>2024-04-07T06:17:49Z</time>
      </trkpt>
      <trkpt lat="49.12077" lon="-0.26731">
        <ele>135.6</ele>
        <time>2024-04-07T06:17:50Z</time>
      </trkpt>
      <trkpt lat="49.12073" lon="-0.26738">
        <ele>135.6</ele>
        <time>2024-04-07T06:17:51Z</time>
      </trkpt>
      <trkpt lat="49.12068" lon="-0.26745">
        <ele>135.6</ele>
        <time>2024-04-07T06:17:52Z</time>
      </trkpt>
      <trkpt lat="49.12064" lon="-0.26752">
        <ele>135.6</ele>
        <time>2024-04-07T06:17:53Z</time>
      </trkpt>
      <trkpt lat="49.12059" lon="-0.2676">
        <ele>135.6</ele>
        <time>2024-04-07T06:17:54Z</time>
      </trkpt>
      <trkpt lat="49.12055" lon="-0.26767">
        <ele>135.8</ele>
        <time>2024-04-07T06:17:55Z</time>
      </trkpt>
      <trkpt lat="49.1205" lon="-0.26774">
        <ele>135.8</ele>
        <time>2024-04-07T06:17:56Z</time>
      </trkpt>
      <trkpt lat="49.12046" lon="-0.26782">
        <ele>135.8</ele>
        <time>2024-04-07T06:17:57Z</time>
      </trkpt>
      <trkpt lat="49.12041" lon="-0.26789">
        <ele>135.8</ele>
        <time>2024-04-07T06:17:58Z</time>
      </trkpt>
      <trkpt lat="49.12037" lon="-0.26796">
        <ele>135.8</ele>
        <time>2024-04-07T06:17:59Z</time>
      </trkpt>
      <trkpt lat="49.12032" lon="-0.26804">
        <ele>135.8</ele>
        <time>2024-04-07T06:18:00Z</time>
      </trkpt>
      <trkpt lat="49.12027" lon="-0.26811">
        <ele>135.8</ele>
        <time>2024-04-07T06:18:01Z</time>
      </trkpt>
      <trkpt lat="49.12023" lon="-0.26818">
        <ele>135.8</ele>
        <time>2024-04-07T06:18:02Z</time>
      </trkpt>
      <trkpt lat="49.12018" lon="-0.26825">
        <ele>135.8</ele>
        <time>2024-04-07T06:18:03Z</time>
      </trkpt>
      <trkpt lat="49.12013" lon="-0.26833">
        <ele>136</ele>
        <time>2024-04-07T06:18:04Z</time>
      </trkpt>
      <trkpt lat="49.12008" lon="-0.2684">
        <ele>136</ele>
        <time>2024-04-07T06:18:05Z</time>
      </trkpt>
      <trkpt lat="49.12003" lon="-0.26846">
        <ele>136.2</ele>
        <time>2024-04-07T06:18:06Z</time>
      </trkpt>
      <trkpt lat="49.11998" lon="-0.26853">
        <ele>136.2</ele>
        <time>2024-04-07T06:18:07Z</time>
      </trkpt>
      <trkpt lat="49.11993" lon="-0.26859">
        <ele>136.2</ele>
        <time>2024-04-07T06:18:08Z</time>
      </trkpt>
      <trkpt lat="49.11987" lon="-0.26864">
        <ele>136.2</ele>
        <time>2024-04-07T06:18:09Z</time>
      </trkpt>
      <trkpt lat="49.11981" lon="-0.2687">
        <ele>136.4</ele>
        <time>2024-04-07T06:18:10Z</time>
      </trkpt>
      <trkpt lat="49.11976" lon="-0.26875">
        <ele>136.4</ele>
        <time>2024-04-07T06:18:11Z</time>
      </trkpt>
      <trkpt lat="49.1197" lon="-0.2688">
        <ele>136.4</ele>
        <time>2024-04-07T06:18:12Z</time>
      </trkpt>
      <trkpt lat="49.11964" lon="-0.26885">
        <ele>136.6</ele>
        <time>2024-04-07T06:18:13Z</time>
      </trkpt>
      <trkpt lat="49.11958" lon="-0.26889">
        <ele>136.8</ele>
        <time>2024-04-07T06:18:14Z</time>
      </trkpt>
      <trkpt lat="49.11953" lon="-0.26894">
        <ele>136.8</ele>
        <time>2024-04-07T06:18:15Z</time>
      </trkpt>
      <trkpt lat="49.11947" lon="-0.26898">
        <ele>137</ele>
        <time>2024-04-07T06:18:16Z</time>
      </trkpt>
      <trkpt lat="49.11941" lon="-0.26903">
        <ele>137.2</ele>
        <time>2024-04-07T06:18:17Z</time>
      </trkpt>
      <trkpt lat="49.11935" lon="-0.26907">
        <ele>137.2</ele>
        <time>2024-04-07T06:18:18Z</time>
      </trkpt>
      <trkpt lat="49.1193" lon="-0.26911">
        <ele>137.4</ele>
        <time>2024-04-07T06:18:19Z</time>
      </trkpt>
      <trkpt lat="49.11924" lon="-0.26916">
        <ele>137.4</ele>
        <time>2024-04-07T06:18:20Z</time>
      </trkpt>
      <trkpt lat="49.11918" lon="-0.2692">
        <ele>137.4</ele>
        <time>2024-04-07T06:18:21Z</time>
      </trkpt>
      <trkpt lat="49.11912" lon="-0.26925">
        <ele>137.2</ele>
        <time>2024-04-07T06:18:22Z</time>
      </trkpt>
      <trkpt lat="49.11906" lon="-0.26929">
        <ele>137</ele>
        <time>2024-04-07T06:18:23Z</time>
      </trkpt>
      <trkpt lat="49.119" lon="-0.26933">
        <ele>137</ele>
        <time>2024-04-07T06:18:24Z</time>
      </trkpt>
      <trkpt lat="49.11894" lon="-0.26938">
        <ele>136.8</ele>
        <time>2024-04-07T06:18:25Z</time>
      </trkpt>
      <trkpt lat="49.11888" lon="-0.26942">
        <ele>136.8</ele>
        <time>2024-04-07T06:18:26Z</time>
      </trkpt>
      <trkpt lat="49.11883" lon="-0.26946">
        <ele>136.8</ele>
        <time>2024-04-07T06:18:27Z</time>
      </trkpt>
      <trkpt lat="49.11877" lon="-0.26951">
        <ele>136.8</ele>
        <time>2024-04-07T06:18:28Z</time>
      </trkpt>
      <trkpt lat="49.11871" lon="-0.26955">
        <ele>137.2</ele>
        <time>2024-04-07T06:18:29Z</time>
      </trkpt>
      <trkpt lat="49.11865" lon="-0.2696">
        <ele>137.4</ele>
        <time>2024-04-07T06:18:30Z</time>
      </trkpt>
      <trkpt lat="49.1186" lon="-0.26964">
        <ele>137.6</ele>
        <time>2024-04-07T06:18:31Z</time>
      </trkpt>
      <trkpt lat="49.11854" lon="-0.26969">
        <ele>137.6</ele>
        <time>2024-04-07T06:18:32Z</time>
      </trkpt>
      <trkpt lat="49.11848" lon="-0.26974">
        <ele>137.8</ele>
        <time>2024-04-07T06:18:33Z</time>
      </trkpt>
      <trkpt lat="49.11843" lon="-0.26979">
        <ele>137.8</ele>
        <time>2024-04-07T06:18:34Z</time>
      </trkpt>
      <trkpt lat="49.11838" lon="-0.26984">
        <ele>138</ele>
        <time>2024-04-07T06:18:35Z</time>
      </trkpt>
      <trkpt lat="49.11832" lon="-0.2699">
        <ele>138.2</ele>
        <time>2024-04-07T06:18:36Z</time>
      </trkpt>
      <trkpt lat="49.11827" lon="-0.26996">
        <ele>138.2</ele>
        <time>2024-04-07T06:18:37Z</time>
      </trkpt>
      <trkpt lat="49.11823" lon="-0.27001">
        <ele>138.2</ele>
        <time>2024-04-07T06:18:38Z</time>
      </trkpt>
      <trkpt lat="49.11818" lon="-0.27007">
        <ele>138.2</ele>
        <time>2024-04-07T06:18:39Z</time>
      </trkpt>
      <trkpt lat="49.11813" lon="-0.27014">
        <ele>138.2</ele>
        <time>2024-04-07T06:18:40Z</time>
      </trkpt>
      <trkpt lat="49.11809" lon="-0.2702">
        <ele>138.4</ele>
        <time>2024-04-07T06:18:41Z</time>
      </trkpt>
      <trkpt lat="49.11805" lon="-0.27027">
        <ele>138.4</ele>
        <time>2024-04-07T06:18:42Z</time>
      </trkpt>
      <trkpt lat="49.118" lon="-0.27033">
        <ele>138.6</ele>
        <time>2024-04-07T06:18:43Z</time>
      </trkpt>
      <trkpt lat="49.11796" lon="-0.27039">
        <ele>138.8</ele>
        <time>2024-04-07T06:18:44Z</time>
      </trkpt>
      <trkpt lat="49.11791" lon="-0.27046">
        <ele>138.8</ele>
        <time>2024-04-07T06:18:45Z</time>
      </trkpt>
      <trkpt lat="49.11787" lon="-0.27052">
        <ele>139</ele>
        <time>2024-04-07T06:18:46Z</time>
      </trkpt>
      <trkpt lat="49.11782" lon="-0.27058">
        <ele>139.2</ele>
        <time>2024-04-07T06:18:47Z</time>
      </trkpt>
      <trkpt lat="49.11778" lon="-0.27065">
        <ele>139.4</ele>
        <time>2024-04-07T06:18:48Z</time>
      </trkpt>
      <trkpt lat="49.11773" lon="-0.27071">
        <ele>139.8</ele>
        <time>2024-04-07T06:18:49Z</time>
      </trkpt>
      <trkpt lat="49.11769" lon="-0.27077">
        <ele>140</ele>
        <time>2024-04-07T06:18:50Z</time>
      </trkpt>
      <trkpt lat="49.11764" lon="-0.27083">
        <ele>140.2</ele>
        <time>2024-04-07T06:18:51Z</time>
      </trkpt>
      <trkpt lat="49.1176" lon="-0.27089">
        <ele>140.4</ele>
        <time>2024-04-07T06:18:52Z</time>
      </trkpt>
      <trkpt lat="49.11755" lon="-0.27095">
        <ele>140.6</ele>
        <time>2024-04-07T06:18:53Z</time>
      </trkpt>
      <trkpt lat="49.11751" lon="-0.27102">
        <ele>140.8</ele>
        <time>2024-04-07T06:18:54Z</time>
      </trkpt>
      <trkpt lat="49.11746" lon="-0.27109">
        <ele>141</ele>
        <time>2024-04-07T06:18:55Z</time>
      </trkpt>
      <trkpt lat="49.11742" lon="-0.27115">
        <ele>141.2</ele>
        <time>2024-04-07T06:18:56Z</time>
      </trkpt>
      <trkpt lat="49.11737" lon="-0.27122">
        <ele>141.4</ele>
        <time>2024-04-07T06:18:57Z</time>
      </trkpt>
      <trkpt lat="49.11733" lon="-0.27129">
        <ele>141.4</ele>
        <time>2024-04-07T06:18:58Z</time>
      </trkpt>
      <trkpt lat="49.11728" lon="-0.27135">
        <ele>141.4</ele>
        <time>2024-04-07T06:18:59Z</time>
      </trkpt>
      <trkpt lat="49.11724" lon="-0.27141">
        <ele>141.4</ele>
        <time>2024-04-07T06:19:00Z</time>
      </trkpt>
      <trkpt lat="49.1172" lon="-0.27147">
        <ele>141.2</ele>
        <time>2024-04-07T06:19:01Z</time>
      </trkpt>
      <trkpt lat="49.11715" lon="-0.27153">
        <ele>140.8</ele>
        <time>2024-04-07T06:19:02Z</time>
      </trkpt>
      <trkpt lat="49.11711" lon="-0.27158">
        <ele>140.6</ele>
        <time>2024-04-07T06:19:03Z</time>
      </trkpt>
      <trkpt lat="49.11707" lon="-0.27163">
        <ele>140.6</ele>
        <time>2024-04-07T06:19:04Z</time>
      </trkpt>
      <trkpt lat="49.11702" lon="-0.27168">
        <ele>140.6</ele>
        <time>2024-04-07T06:19:05Z</time>
      </trkpt>
      <trkpt lat="49.11698" lon="-0.27172">
        <ele>140.8</ele>
        <time>2024-04-07T06:19:06Z</time>
      </trkpt>
      <trkpt lat="49.11694" lon="-0.27175">
        <ele>141.2</ele>
        <time>2024-04-07T06:19:07Z</time>
      </trkpt>
      <trkpt lat="49.1169" lon="-0.27178">
        <ele>141.8</ele>
        <time>2024-04-07T06:19:08Z</time>
      </trkpt>
      <trkpt lat="49.11687" lon="-0.2718">
        <ele>142</ele>
        <time>2024-04-07T06:19:09Z</time>
      </trkpt>
      <trkpt lat="49.11684" lon="-0.27182">
        <ele>142.4</ele>
        <time>2024-04-07T06:19:10Z</time>
      </trkpt>
      <trkpt lat="49.11682" lon="-0.27186">
        <ele>142.6</ele>
        <time>2024-04-07T06:19:11Z</time>
      </trkpt>
      <trkpt lat="49.11679" lon="-0.2719">
        <ele>142.8</ele>
        <time>2024-04-07T06:19:12Z</time>
      </trkpt>
      <trkpt lat="49.11677" lon="-0.27196">
        <ele>142.8</ele>
        <time>2024-04-07T06:19:13Z</time>
      </trkpt>
      <trkpt lat="49.11675" lon="-0.27203">
        <ele>142.8</ele>
        <time>2024-04-07T06:19:14Z</time>
      </trkpt>
      <trkpt lat="49.11673" lon="-0.27211">
        <ele>142.8</ele>
        <time>2024-04-07T06:19:15Z</time>
      </trkpt>
      <trkpt lat="49.11671" lon="-0.2722">
        <ele>142.8</ele>
        <time>2024-04-07T06:19:16Z</time>
      </trkpt>
      <trkpt lat="49.11668" lon="-0.27228">
        <ele>142.6</ele>
        <time>2024-04-07T06:19:17Z</time>
      </trkpt>
      <trkpt lat="49.11665" lon="-0.27236">
        <ele>142.4</ele>
        <time>2024-04-07T06:19:18Z</time>
      </trkpt>
      <trkpt lat="49.11662" lon="-0.27244">
        <ele>142.2</ele>
        <time>2024-04-07T06:19:19Z</time>
      </trkpt>
      <trkpt lat="49.11658" lon="-0.27253">
        <ele>141.8</ele>
        <time>2024-04-07T06:19:20Z</time>
      </trkpt>
      <trkpt lat="49.11655" lon="-0.27261">
        <ele>141.6</ele>
        <time>2024-04-07T06:19:21Z</time>
      </trkpt>
      <trkpt lat="49.11651" lon="-0.27269">
        <ele>141.2</ele>
        <time>2024-04-07T06:19:22Z</time>
      </trkpt>
      <trkpt lat="49.11647" lon="-0.27278">
        <ele>141</ele>
        <time>2024-04-07T06:19:23Z</time>
      </trkpt>
      <trkpt lat="49.11644" lon="-0.27286">
        <ele>141</ele>
        <time>2024-04-07T06:19:24Z</time>
      </trkpt>
      <trkpt lat="49.1164" lon="-0.27294">
        <ele>140.8</ele>
        <time>2024-04-07T06:19:25Z</time>
      </trkpt>
      <trkpt lat="49.11636" lon="-0.27302">
        <ele>140.8</ele>
        <time>2024-04-07T06:19:26Z</time>
      </trkpt>
      <trkpt lat="49.11632" lon="-0.27311">
        <ele>141</ele>
        <time>2024-04-07T06:19:27Z</time>
      </trkpt>
      <trkpt lat="49.11629" lon="-0.2732">
        <ele>141.2</ele>
        <time>2024-04-07T06:19:28Z</time>
      </trkpt>
      <trkpt lat="49.11627" lon="-0.27329">
        <ele>141.2</ele>
        <time>2024-04-07T06:19:29Z</time>
      </trkpt>
      <trkpt lat="49.11624" lon="-0.27338">
        <ele>141.4</ele>
        <time>2024-04-07T06:19:30Z</time>
      </trkpt>
      <trkpt lat="49.11622" lon="-0.27347">
        <ele>141.4</ele>
        <time>2024-04-07T06:19:31Z</time>
      </trkpt>
      <trkpt lat="49.11619" lon="-0.27354">
        <ele>141.6</ele>
        <time>2024-04-07T06:19:32Z</time>
      </trkpt>
      <trkpt lat="49.11615" lon="-0.27359">
        <ele>142</ele>
        <time>2024-04-07T06:19:33Z</time>
      </trkpt>
      <trkpt lat="49.1161" lon="-0.27361">
        <ele>142</ele>
        <time>2024-04-07T06:19:34Z</time>
      </trkpt>
      <trkpt lat="49.11604" lon="-0.27361">
        <ele>142</ele>
        <time>2024-04-07T06:19:35Z</time>
      </trkpt>
      <trkpt lat="49.11598" lon="-0.27361">
        <ele>141.8</ele>
        <time>2024-04-07T06:19:36Z</time>
      </trkpt>
      <trkpt lat="49.11592" lon="-0.27362">
        <ele>141.8</ele>
        <time>2024-04-07T06:19:37Z</time>
      </trkpt>
      <trkpt lat="49.11586" lon="-0.27364">
        <ele>141.8</ele>
        <time>2024-04-07T06:19:38Z</time>
      </trkpt>
      <trkpt lat="49.1158" lon="-0.27366">
        <ele>141.8</ele>
        <time>2024-04-07T06:19:39Z</time>
      </trkpt>
      <trkpt lat="49.11575" lon="-0.27368">
        <ele>141.8</ele>
        <time>2024-04-07T06:19:40Z</time>
      </trkpt>
      <trkpt lat="49.11569" lon="-0.2737">
        <ele>141.8</ele>
        <time>2024-04-07T06:19:41Z</time>
      </trkpt>
      <trkpt lat="49.11563" lon="-0.27372">
        <ele>141.8</ele>
        <time>2024-04-07T06:19:42Z</time>
      </trkpt>
      <trkpt lat="49.11557" lon="-0.27374">
        <ele>141.8</ele>
        <time>2024-04-07T06:19:43Z</time>
      </trkpt>
      <trkpt lat="49.11551" lon="-0.27376">
        <ele>141.8</ele>
        <time>2024-04-07T06:19:44Z</time>
      </trkpt>
      <trkpt lat="49.11546" lon="-0.27378">
        <ele>141.8</ele>
        <time>2024-04-07T06:19:45Z</time>
      </trkpt>
      <trkpt lat="49.1154" lon="-0.2738">
        <ele>141.8</ele>
        <time>2024-04-07T06:19:46Z</time>
      </trkpt>
      <trkpt lat="49.11534" lon="-0.27382">
        <ele>142</ele>
        <time>2024-04-07T06:19:47Z</time>
      </trkpt>
      <trkpt lat="49.11528" lon="-0.27384">
        <ele>142.2</ele>
        <time>2024-04-07T06:19:48Z</time>
      </trkpt>
      <trkpt lat="49.11522" lon="-0.27385">
        <ele>142.4</ele>
        <time>2024-04-07T06:19:49Z</time>
      </trkpt>
      <trkpt lat="49.11516" lon="-0.27386">
        <ele>142.6</ele>
        <time>2024-04-07T06:19:50Z</time>
      </trkpt>
      <trkpt lat="49.1151" lon="-0.27387">
        <ele>142.8</ele>
        <time>2024-04-07T06:19:51Z</time>
      </trkpt>
      <trkpt lat="49.11504" lon="-0.27388">
        <ele>142.8</ele>
        <time>2024-04-07T06:19:52Z</time>
      </trkpt>
      <trkpt lat="49.11498" lon="-0.27388">
        <ele>143</ele>
        <time>2024-04-07T06:19:53Z</time>
      </trkpt>
      <trkpt lat="49.11492" lon="-0.27387">
        <ele>143</ele>
        <time>2024-04-07T06:19:54Z</time>
      </trkpt>
      <trkpt lat="49.11486" lon="-0.27387">
        <ele>143.2</ele>
        <time>2024-04-07T06:19:55Z</time>
      </trkpt>
      <trkpt lat="49.11481" lon="-0.27385">
        <ele>143.6</ele>
        <time>2024-04-07T06:19:56Z</time>
      </trkpt>
      <trkpt lat="49.11475" lon="-0.27384">
        <ele>143.8</ele>
        <time>2024-04-07T06:19:57Z</time>
      </trkpt>
      <trkpt lat="49.11469" lon="-0.27382">
        <ele>144.2</ele>
        <time>2024-04-07T06:19:58Z</time>
      </trkpt>
      <trkpt lat="49.11463" lon="-0.2738">
        <ele>144.4</ele>
        <time>2024-04-07T06:19:59Z</time>
      </trkpt>
      <trkpt lat="49.11457" lon="-0.27377">
        <ele>144.6</ele>
        <time>2024-04-07T06:20:00Z</time>
      </trkpt>
      <trkpt lat="49.11451" lon="-0.27375">
        <ele>144.8</ele>
        <time>2024-04-07T06:20:01Z</time>
      </trkpt>
      <trkpt lat="49.11445" lon="-0.27373">
        <ele>144.8</ele>
        <time>2024-04-07T06:20:02Z</time>
      </trkpt>
      <trkpt lat="49.11439" lon="-0.27371">
        <ele>145</ele>
        <time>2024-04-07T06:20:03Z</time>
      </trkpt>
      <trkpt lat="49.11433" lon="-0.27368">
        <ele>145.2</ele>
        <time>2024-04-07T06:20:04Z</time>
      </trkpt>
      <trkpt lat="49.11427" lon="-0.27366">
        <ele>145.4</ele>
        <time>2024-04-07T06:20:05Z</time>
      </trkpt>
      <trkpt lat="49.11421" lon="-0.27364">
        <ele>145.6</ele>
        <time>2024-04-07T06:20:06Z</time>
      </trkpt>
      <trkpt lat="49.11414" lon="-0.27362">
        <ele>145.6</ele>
        <time>2024-04-07T06:20:07Z</time>
      </trkpt>
      <trkpt lat="49.11408" lon="-0.27359">
        <ele>145.8</ele>
        <time>2024-04-07T06:20:08Z</time>
      </trkpt>
      <trkpt lat="49.11402" lon="-0.27357">
        <ele>145.8</ele>
        <time>2024-04-07T06:20:09Z</time>
      </trkpt>
      <trkpt lat="49.11396" lon="-0.27354">
        <ele>145.8</ele>
        <time>2024-04-07T06:20:10Z</time>
      </trkpt>
      <trkpt lat="49.1139" lon="-0.27352">
        <ele>145.8</ele>
        <time>2024-04-07T06:20:11Z</time>
      </trkpt>
      <trkpt lat="49.11384" lon="-0.2735">
        <ele>145.8</ele>
        <time>2024-04-07T06:20:12Z</time>
      </trkpt>
      <trkpt lat="49.11378" lon="-0.27348">
        <ele>146</ele>
        <time>2024-04-07T06:20:13Z</time>
      </trkpt>
      <trkpt lat="49.11373" lon="-0.27345">
        <ele>146.2</ele>
        <time>2024-04-07T06:20:14Z</time>
      </trkpt>
      <trkpt lat="49.11367" lon="-0.27343">
        <ele>146.4</ele>
        <time>2024-04-07T06:20:15Z</time>
      </trkpt>
      <trkpt lat="49.11362" lon="-0.2734">
        <ele>146.6</ele>
        <time>2024-04-07T06:20:16Z</time>
      </trkpt>
      <trkpt lat="49.11356" lon="-0.27337">
        <ele>147</ele>
        <time>2024-04-07T06:20:17Z</time>
      </trkpt>
      <trkpt lat="49.11351" lon="-0.27335">
        <ele>147.2</ele>
        <time>2024-04-07T06:20:18Z</time>
      </trkpt>
      <trkpt lat="49.11346" lon="-0.27332">
        <ele>147.6</ele>
        <time>2024-04-07T06:20:19Z</time>
      </trkpt>
      <trkpt lat="49.1134" lon="-0.2733">
        <ele>148</ele>
        <time>2024-04-07T06:20:20Z</time>
      </trkpt>
      <trkpt lat="49.11334" lon="-0.27326">
        <ele>148.2</ele>
        <time>2024-04-07T06:20:21Z</time>
      </trkpt>
      <trkpt lat="49.11329" lon="-0.27323">
        <ele>148.4</ele>
        <time>2024-04-07T06:20:22Z</time>
      </trkpt>
      <trkpt lat="49.11323" lon="-0.2732">
        <ele>148.6</ele>
        <time>2024-04-07T06:20:23Z</time>
      </trkpt>
      <trkpt lat="49.11317" lon="-0.27318">
        <ele>148.8</ele>
        <time>2024-04-07T06:20:24Z</time>
      </trkpt>
      <trkpt lat="49.11311" lon="-0.27315">
        <ele>148.8</ele>
        <time>2024-04-07T06:20:25Z</time>
      </trkpt>
      <trkpt lat="49.11306" lon="-0.27313">
        <ele>149</ele>
        <time>2024-04-07T06:20:26Z</time>
      </trkpt>
      <trkpt lat="49.113" lon="-0.2731">
        <ele>149</ele>
        <time>2024-04-07T06:20:27Z</time>
      </trkpt>
      <trkpt lat="49.11295" lon="-0.27309">
        <ele>149</ele>
        <time>2024-04-07T06:20:28Z</time>
      </trkpt>
      <trkpt lat="49.11289" lon="-0.27307">
        <ele>149</ele>
        <time>2024-04-07T06:20:29Z</time>
      </trkpt>
      <trkpt lat="49.11283" lon="-0.27306">
        <ele>149</ele>
        <time>2024-04-07T06:20:30Z</time>
      </trkpt>
      <trkpt lat="49.11277" lon="-0.27305">
        <ele>148.8</ele>
        <time>2024-04-07T06:20:31Z</time>
      </trkpt>
      <trkpt lat="49.11271" lon="-0.27304">
        <ele>148.8</ele>
        <time>2024-04-07T06:20:32Z</time>
      </trkpt>
      <trkpt lat="49.11265" lon="-0.27303">
        <ele>148.8</ele>
        <time>2024-04-07T06:20:33Z</time>
      </trkpt>
      <trkpt lat="49.11259" lon="-0.27302">
        <ele>148.8</ele>
        <time>2024-04-07T06:20:34Z</time>
      </trkpt>
      <trkpt lat="49.11253" lon="-0.27302">
        <ele>148.8</ele>
        <time>2024-04-07T06:20:35Z</time>
      </trkpt>
      <trkpt lat="49.11246" lon="-0.27301">
        <ele>148.8</ele>
        <time>2024-04-07T06:20:36Z</time>
      </trkpt>
      <trkpt lat="49.1124" lon="-0.273">
        <ele>148.8</ele>
        <time>2024-04-07T06:20:37Z</time>
      </trkpt>
      <trkpt lat="49.11234" lon="-0.27299">
        <ele>149</ele>
        <time>2024-04-07T06:20:38Z</time>
      </trkpt>
      <trkpt lat="49.11228" lon="-0.27299">
        <ele>149.2</ele>
        <time>2024-04-07T06:20:39Z</time>
      </trkpt>
      <trkpt lat="49.11222" lon="-0.27298">
        <ele>149.4</ele>
        <time>2024-04-07T06:20:40Z</time>
      </trkpt>
      <trkpt lat="49.11216" lon="-0.27297">
        <ele>149.4</ele>
        <time>2024-04-07T06:20:41Z</time>
      </trkpt>
      <trkpt lat="49.11209" lon="-0.27297">
        <ele>149.6</ele>
        <time>2024-04-07T06:20:42Z</time>
      </trkpt>
      <trkpt lat="49.11203" lon="-0.27296">
        <ele>150</ele>
        <time>2024-04-07T06:20:43Z</time>
      </trkpt>
      <trkpt lat="49.11196" lon="-0.27296">
        <ele>150.2</ele>
        <time>2024-04-07T06:20:44Z</time>
      </trkpt>
      <trkpt lat="49.1119" lon="-0.27295">
        <ele>150.4</ele>
        <time>2024-04-07T06:20:45Z</time>
      </trkpt>
      <trkpt lat="49.11183" lon="-0.27295">
        <ele>150.8</ele>
        <time>2024-04-07T06:20:46Z</time>
      </trkpt>
      <trkpt lat="49.11177" lon="-0.27295">
        <ele>151</ele>
        <time>2024-04-07T06:20:47Z</time>
      </trkpt>
      <trkpt lat="49.1117" lon="-0.27295">
        <ele>151.2</ele>
        <time>2024-04-07T06:20:48Z</time>
      </trkpt>
      <trkpt lat="49.11164" lon="-0.27295">
        <ele>151.2</ele>
        <time>2024-04-07T06:20:49Z</time>
      </trkpt>
      <trkpt lat="49.11157" lon="-0.27295">
        <ele>151</ele>
        <time>2024-04-07T06:20:50Z</time>
      </trkpt>
      <trkpt lat="49.1115" lon="-0.27295">
        <ele>150.8</ele>
        <time>2024-04-07T06:20:51Z</time>
      </trkpt>
      <trkpt lat="49.11144" lon="-0.27295">
        <ele>150.4</ele>
        <time>2024-04-07T06:20:52Z</time>
      </trkpt>
      <trkpt lat="49.11137" lon="-0.27295">
        <ele>150.2</ele>
        <time>2024-04-07T06:20:53Z</time>
      </trkpt>
      <trkpt lat="49.11131" lon="-0.27295">
        <ele>150.2</ele>
        <time>2024-04-07T06:20:54Z</time>
      </trkpt>
      <trkpt lat="49.11124" lon="-0.27295">
        <ele>150.2</ele>
        <time>2024-04-07T06:20:55Z</time>
      </trkpt>
      <trkpt lat="49.11118" lon="-0.27295">
        <ele>150.6</ele>
        <time>2024-04-07T06:20:56Z</time>
      </trkpt>
      <trkpt lat="49.11111" lon="-0.27295">
        <ele>150.8</ele>
        <time>2024-04-07T06:20:57Z</time>
      </trkpt>
      <trkpt lat="49.11105" lon="-0.27296">
        <ele>151.2</ele>
        <time>2024-04-07T06:20:58Z</time>
      </trkpt>
      <trkpt lat="49.11098" lon="-0.27296">
        <ele>151.2</ele>
        <time>2024-04-07T06:20:59Z</time>
      </trkpt>
      <trkpt lat="49.11091" lon="-0.27296">
        <ele>151.2</ele>
        <time>2024-04-07T06:21:00Z</time>
      </trkpt>
      <trkpt lat="49.11085" lon="-0.27296">
        <ele>151.2</ele>
        <time>2024-04-07T06:21:01Z</time>
      </trkpt>
      <trkpt lat="49.11079" lon="-0.27296">
        <ele>151.2</ele>
        <time>2024-04-07T06:21:02Z</time>
      </trkpt>
      <trkpt lat="49.11072" lon="-0.27297">
        <ele>151</ele>
        <time>2024-04-07T06:21:03Z</time>
      </trkpt>
      <trkpt lat="49.11066" lon="-0.27297">
        <ele>151</ele>
        <time>2024-04-07T06:21:04Z</time>
      </trkpt>
      <trkpt lat="49.11059" lon="-0.27297">
        <ele>150.8</ele>
        <time>2024-04-07T06:21:05Z</time>
      </trkpt>
      <trkpt lat="49.11053" lon="-0.27296">
        <ele>150.8</ele>
        <time>2024-04-07T06:21:06Z</time>
      </trkpt>
      <trkpt lat="49.11046" lon="-0.27296">
        <ele>150.6</ele>
        <time>2024-04-07T06:21:07Z</time>
      </trkpt>
      <trkpt lat="49.11039" lon="-0.27295">
        <ele>150.8</ele>
        <time>2024-04-07T06:21:08Z</time>
      </trkpt>
      <trkpt lat="49.11032" lon="-0.27293">
        <ele>151</ele>
        <time>2024-04-07T06:21:09Z</time>
      </trkpt>
      <trkpt lat="49.11026" lon="-0.27291">
        <ele>151.2</ele>
        <time>2024-04-07T06:21:10Z</time>
      </trkpt>
      <trkpt lat="49.11019" lon="-0.27289">
        <ele>151.2</ele>
        <time>2024-04-07T06:21:11Z</time>
      </trkpt>
      <trkpt lat="49.11012" lon="-0.27286">
        <ele>151</ele>
        <time>2024-04-07T06:21:12Z</time>
      </trkpt>
      <trkpt lat="49.11005" lon="-0.27283">
        <ele>151</ele>
        <time>2024-04-07T06:21:13Z</time>
      </trkpt>
      <trkpt lat="49.10998" lon="-0.2728">
        <ele>151</ele>
        <time>2024-04-07T06:21:14Z</time>
      </trkpt>
      <trkpt lat="49.10991" lon="-0.27277">
        <ele>150.8</ele>
        <time>2024-04-07T06:21:15Z</time>
      </trkpt>
      <trkpt lat="49.10984" lon="-0.27274">
        <ele>150.8</ele>
        <time>2024-04-07T06:21:16Z</time>
      </trkpt>
      <trkpt lat="49.10977" lon="-0.27272">
        <ele>150.6</ele>
        <time>2024-04-07T06:21:17Z</time>
      </trkpt>
      <trkpt lat="49.1097" lon="-0.27269">
        <ele>150.4</ele>
        <time>2024-04-07T06:21:18Z</time>
      </trkpt>
      <trkpt lat="49.10964" lon="-0.27266">
        <ele>150</ele>
        <time>2024-04-07T06:21:19Z</time>
      </trkpt>
      <trkpt lat="49.10957" lon="-0.27263">
        <ele>150</ele>
        <time>2024-04-07T06:21:20Z</time>
      </trkpt>
      <trkpt lat="49.1095" lon="-0.2726">
        <ele>150.2</ele>
        <time>2024-04-07T06:21:21Z</time>
      </trkpt>
      <trkpt lat="49.10944" lon="-0.27258">
        <ele>150.2</ele>
        <time>2024-04-07T06:21:22Z</time>
      </trkpt>
      <trkpt lat="49.10938" lon="-0.27255">
        <ele>150.4</ele>
        <time>2024-04-07T06:21:23Z</time>
      </trkpt>
      <trkpt lat="49.10931" lon="-0.27252">
        <ele>150.6</ele>
        <time>2024-04-07T06:21:24Z</time>
      </trkpt>
      <trkpt lat="49.10925" lon="-0.2725">
        <ele>150.6</ele>
        <time>2024-04-07T06:21:25Z</time>
      </trkpt>
      <trkpt lat="49.10919" lon="-0.27247">
        <ele>150.8</ele>
        <time>2024-04-07T06:21:26Z</time>
      </trkpt>
      <trkpt lat="49.10913" lon="-0.27245">
        <ele>150.8</ele>
        <time>2024-04-07T06:21:27Z</time>
      </trkpt>
      <trkpt lat="49.10906" lon="-0.27242">
        <ele>151</ele>
        <time>2024-04-07T06:21:28Z</time>
      </trkpt>
      <trkpt lat="49.109" lon="-0.2724">
        <ele>151</ele>
        <time>2024-04-07T06:21:29Z</time>
      </trkpt>
      <trkpt lat="49.10894" lon="-0.27237">
        <ele>151</ele>
        <time>2024-04-07T06:21:30Z</time>
      </trkpt>
      <trkpt lat="49.10888" lon="-0.27234">
        <ele>151.2</ele>
        <time>2024-04-07T06:21:31Z</time>
      </trkpt>
      <trkpt lat="49.10882" lon="-0.27231">
        <ele>151.4</ele>
        <time>2024-04-07T06:21:32Z</time>
      </trkpt>
      <trkpt lat="49.10876" lon="-0.27228">
        <ele>151.8</ele>
        <time>2024-04-07T06:21:33Z</time>
      </trkpt>
      <trkpt lat="49.1087" lon="-0.27225">
        <ele>152</ele>
        <time>2024-04-07T06:21:34Z</time>
      </trkpt>
      <trkpt lat="49.10864" lon="-0.27222">
        <ele>152.2</ele>
        <time>2024-04-07T06:21:35Z</time>
      </trkpt>
      <trkpt lat="49.10859" lon="-0.27219">
        <ele>152.2</ele>
        <time>2024-04-07T06:21:36Z</time>
      </trkpt>
      <trkpt lat="49.10853" lon="-0.27216">
        <ele>152.4</ele>
        <time>2024-04-07T06:21:37Z</time>
      </trkpt>
      <trkpt lat="49.10848" lon="-0.27213">
        <ele>152.6</ele>
        <time>2024-04-07T06:21:38Z</time>
      </trkpt>
      <trkpt lat="49.10842" lon="-0.2721">
        <ele>152.8</ele>
        <time>2024-04-07T06:21:39Z</time>
      </trkpt>
      <trkpt lat="49.10836" lon="-0.27207">
        <ele>153.2</ele>
        <time>2024-04-07T06:21:40Z</time>
      </trkpt>
      <trkpt lat="49.10831" lon="-0.27204">
        <ele>153.4</ele>
        <time>2024-04-07T06:21:41Z</time>
      </trkpt>
      <trkpt lat="49.10825" lon="-0.27201">
        <ele>153.8</ele>
        <time>2024-04-07T06:21:42Z</time>
      </trkpt>
      <trkpt lat="49.1082" lon="-0.27197">
        <ele>154</ele>
        <time>2024-04-07T06:21:43Z</time>
      </trkpt>
      <trkpt lat="49.10814" lon="-0.27194">
        <ele>154.2</ele>
        <time>2024-04-07T06:21:44Z</time>
      </trkpt>
      <trkpt lat="49.10809" lon="-0.27191">
        <ele>154.4</ele>
        <time>2024-04-07T06:21:45Z</time>
      </trkpt>
      <trkpt lat="49.10803" lon="-0.27188">
        <ele>154.6</ele>
        <time>2024-04-07T06:21:46Z</time>
      </trkpt>
      <trkpt lat="49.10798" lon="-0.27185">
        <ele>154.6</ele>
        <time>2024-04-07T06:21:47Z</time>
      </trkpt>
      <trkpt lat="49.10793" lon="-0.27182">
        <ele>154.8</ele>
        <time>2024-04-07T06:21:48Z</time>
      </trkpt>
      <trkpt lat="49.10787" lon="-0.27179">
        <ele>155</ele>
        <time>2024-04-07T06:21:49Z</time>
      </trkpt>
      <trkpt lat="49.10782" lon="-0.27176">
        <ele>155.4</ele>
        <time>2024-04-07T06:21:50Z</time>
      </trkpt>
      <trkpt lat="49.10777" lon="-0.27173">
        <ele>155.6</ele>
        <time>2024-04-07T06:21:51Z</time>
      </trkpt>
      <trkpt lat="49.10771" lon="-0.2717">
        <ele>155.8</ele>
        <time>2024-04-07T06:21:52Z</time>
      </trkpt>
      <trkpt lat="49.10766" lon="-0.27167">
        <ele>155.8</ele>
        <time>2024-04-07T06:21:53Z</time>
      </trkpt>
      <trkpt lat="49.10761" lon="-0.27165">
        <ele>155.8</ele>
        <time>2024-04-07T06:21:54Z</time>
      </trkpt>
      <trkpt lat="49.10756" lon="-0.27162">
        <ele>155.8</ele>
        <time>2024-04-07T06:21:55Z</time>
      </trkpt>
      <trkpt lat="49.1075" lon="-0.27159">
        <ele>156</ele>
        <time>2024-04-07T06:21:56Z</time>
      </trkpt>
      <trkpt lat="49.10745" lon="-0.27156">
        <ele>156</ele>
        <time>2024-04-07T06:21:57Z</time>
      </trkpt>
      <trkpt lat="49.1074" lon="-0.27153">
        <ele>156.2</ele>
        <time>2024-04-07T06:21:58Z</time>
      </trkpt>
      <trkpt lat="49.10735" lon="-0.2715">
        <ele>156.4</ele>
        <time>2024-04-07T06:21:59Z</time>
      </trkpt>
      <trkpt lat="49.10729" lon="-0.27147">
        <ele>156.4</ele>
        <time>2024-04-07T06:22:00Z</time>
      </trkpt>
      <trkpt lat="49.10724" lon="-0.27144">
        <ele>156.6</ele>
        <time>2024-04-07T06:22:01Z</time>
      </trkpt>
      <trkpt lat="49.10719" lon="-0.27141">
        <ele>156.8</ele>
        <time>2024-04-07T06:22:02Z</time>
      </trkpt>
      <trkpt lat="49.10713" lon="-0.27138">
        <ele>157</ele>
        <time>2024-04-07T06:22:03Z</time>
      </trkpt>
      <trkpt lat="49.10708" lon="-0.27135">
        <ele>157.2</ele>
        <time>2024-04-07T06:22:04Z</time>
      </trkpt>
      <trkpt lat="49.10703" lon="-0.27132">
        <ele>157.4</ele>
        <time>2024-04-07T06:22:05Z</time>
      </trkpt>
      <trkpt lat="49.10697" lon="-0.27129">
        <ele>157.4</ele>
        <time>2024-04-07T06:22:06Z</time>
      </trkpt>
      <trkpt lat="49.10692" lon="-0.27125">
        <ele>157.6</ele>
        <time>2024-04-07T06:22:07Z</time>
      </trkpt>
      <trkpt lat="49.10686" lon="-0.27122">
        <ele>157.6</ele>
        <time>2024-04-07T06:22:08Z</time>
      </trkpt>
      <trkpt lat="49.10681" lon="-0.27119">
        <ele>157.6</ele>
        <time>2024-04-07T06:22:09Z</time>
      </trkpt>
      <trkpt lat="49.10675" lon="-0.27115">
        <ele>157.4</ele>
        <time>2024-04-07T06:22:10Z</time>
      </trkpt>
      <trkpt lat="49.1067" lon="-0.27112">
        <ele>157.4</ele>
        <time>2024-04-07T06:22:11Z</time>
      </trkpt>
      <trkpt lat="49.10664" lon="-0.27109">
        <ele>157.2</ele>
        <time>2024-04-07T06:22:12Z</time>
      </trkpt>
      <trkpt lat="49.10658" lon="-0.27105">
        <ele>157.2</ele>
        <time>2024-04-07T06:22:13Z</time>
      </trkpt>
      <trkpt lat="49.10652" lon="-0.27102">
        <ele>157.2</ele>
        <time>2024-04-07T06:22:14Z</time>
      </trkpt>
      <trkpt lat="49.10647" lon="-0.27099">
        <ele>157.2</ele>
        <time>2024-04-07T06:22:15Z</time>
      </trkpt>
      <trkpt lat="49.10641" lon="-0.27097">
        <ele>157.2</ele>
        <time>2024-04-07T06:22:16Z</time>
      </trkpt>
      <trkpt lat="49.10635" lon="-0.27094">
        <ele>157.2</ele>
        <time>2024-04-07T06:22:17Z</time>
      </trkpt>
      <trkpt lat="49.1063" lon="-0.27091">
        <ele>157.4</ele>
        <time>2024-04-07T06:22:18Z</time>
      </trkpt>
      <trkpt lat="49.10624" lon="-0.27088">
        <ele>157.6</ele>
        <time>2024-04-07T06:22:19Z</time>
      </trkpt>
      <trkpt lat="49.10618" lon="-0.27085">
        <ele>157.6</ele>
        <time>2024-04-07T06:22:20Z</time>
      </trkpt>
      <trkpt lat="49.10613" lon="-0.27082">
        <ele>157.8</ele>
        <time>2024-04-07T06:22:21Z</time>
      </trkpt>
      <trkpt lat="49.10607" lon="-0.27079">
        <ele>158.2</ele>
        <time>2024-04-07T06:22:22Z</time>
      </trkpt>
      <trkpt lat="49.10602" lon="-0.27076">
        <ele>158.8</ele>
        <time>2024-04-07T06:22:23Z</time>
      </trkpt>
      <trkpt lat="49.10596" lon="-0.27073">
        <ele>159.2</ele>
        <time>2024-04-07T06:22:24Z</time>
      </trkpt>
      <trkpt lat="49.1059" lon="-0.2707">
        <ele>159.6</ele>
        <time>2024-04-07T06:22:25Z</time>
      </trkpt>
      <trkpt lat="49.10585" lon="-0.27067">
        <ele>159.6</ele>
        <time>2024-04-07T06:22:26Z</time>
      </trkpt>
      <trkpt lat="49.10579" lon="-0.27063">
        <ele>159.8</ele>
        <time>2024-04-07T06:22:27Z</time>
      </trkpt>
      <trkpt lat="49.10574" lon="-0.2706">
        <ele>159.8</ele>
        <time>2024-04-07T06:22:28Z</time>
      </trkpt>
      <trkpt lat="49.10568" lon="-0.27057">
        <ele>159.8</ele>
        <time>2024-04-07T06:22:29Z</time>
      </trkpt>
      <trkpt lat="49.10562" lon="-0.27054">
        <ele>159.8</ele>
        <time>2024-04-07T06:22:30Z</time>
      </trkpt>
      <trkpt lat="49.10557" lon="-0.27051">
        <ele>159.8</ele>
        <time>2024-04-07T06:22:31Z</time>
      </trkpt>
      <trkpt lat="49.10551" lon="-0.27047">
        <ele>159.8</ele>
        <time>2024-04-07T06:22:32Z</time>
      </trkpt>
      <trkpt lat="49.10546" lon="-0.27044">
        <ele>159.8</ele>
        <time>2024-04-07T06:22:33Z</time>
      </trkpt>
      <trkpt lat="49.1054" lon="-0.27041">
        <ele>159.8</ele>
        <time>2024-04-07T06:22:34Z</time>
      </trkpt>
      <trkpt lat="49.10534" lon="-0.27038">
        <ele>160</ele>
        <time>2024-04-07T06:22:35Z</time>
      </trkpt>
      <trkpt lat="49.10529" lon="-0.27035">
        <ele>160.2</ele>
        <time>2024-04-07T06:22:36Z</time>
      </trkpt>
      <trkpt lat="49.10523" lon="-0.27032">
        <ele>160.4</ele>
        <time>2024-04-07T06:22:37Z</time>
      </trkpt>
      <trkpt lat="49.10517" lon="-0.27029">
        <ele>160.8</ele>
        <time>2024-04-07T06:22:38Z</time>
      </trkpt>
      <trkpt lat="49.10511" lon="-0.27025">
        <ele>161</ele>
        <time>2024-04-07T06:22:39Z</time>
      </trkpt>
      <trkpt lat="49.10505" lon="-0.27022">
        <ele>161</ele>
        <time>2024-04-07T06:22:40Z</time>
      </trkpt>
      <trkpt lat="49.10499" lon="-0.27019">
        <ele>161</ele>
        <time>2024-04-07T06:22:41Z</time>
      </trkpt>
      <trkpt lat="49.10493" lon="-0.27016">
        <ele>161</ele>
        <time>2024-04-07T06:22:42Z</time>
      </trkpt>
      <trkpt lat="49.10487" lon="-0.27012">
        <ele>160.8</ele>
        <time>2024-04-07T06:22:43Z</time>
      </trkpt>
      <trkpt lat="49.10481" lon="-0.27009">
        <ele>160.8</ele>
        <time>2024-04-07T06:22:44Z</time>
      </trkpt>
      <trkpt lat="49.10475" lon="-0.27005">
        <ele>160.6</ele>
        <time>2024-04-07T06:22:45Z</time>
      </trkpt>
      <trkpt lat="49.10469" lon="-0.27002">
        <ele>160.6</ele>
        <time>2024-04-07T06:22:46Z</time>
      </trkpt>
      <trkpt lat="49.10463" lon="-0.26998">
        <ele>160.6</ele>
        <time>2024-04-07T06:22:47Z</time>
      </trkpt>
      <trkpt lat="49.10457" lon="-0.26995">
        <ele>160.6</ele>
        <time>2024-04-07T06:22:48Z</time>
      </trkpt>
      <trkpt lat="49.10451" lon="-0.26992">
        <ele>160.6</ele>
        <time>2024-04-07T06:22:49Z</time>
      </trkpt>
      <trkpt lat="49.10445" lon="-0.26989">
        <ele>160.6</ele>
        <time>2024-04-07T06:22:50Z</time>
      </trkpt>
      <trkpt lat="49.10439" lon="-0.26986">
        <ele>160.8</ele>
        <time>2024-04-07T06:22:51Z</time>
      </trkpt>
      <trkpt lat="49.10432" lon="-0.26983">
        <ele>161</ele>
        <time>2024-04-07T06:22:52Z</time>
      </trkpt>
      <trkpt lat="49.10426" lon="-0.26981">
        <ele>161.2</ele>
        <time>2024-04-07T06:22:53Z</time>
      </trkpt>
      <trkpt lat="49.10419" lon="-0.2698">
        <ele>161.2</ele>
        <time>2024-04-07T06:22:54Z</time>
      </trkpt>
      <trkpt lat="49.10413" lon="-0.26979">
        <ele>161.4</ele>
        <time>2024-04-07T06:22:55Z</time>
      </trkpt>
      <trkpt lat="49.10406" lon="-0.26979">
        <ele>161.4</ele>
        <time>2024-04-07T06:22:56Z</time>
      </trkpt>
      <trkpt lat="49.10399" lon="-0.2698">
        <ele>161.4</ele>
        <time>2024-04-07T06:22:57Z</time>
      </trkpt>
      <trkpt lat="49.10393" lon="-0.26982">
        <ele>161.4</ele>
        <time>2024-04-07T06:22:58Z</time>
      </trkpt>
      <trkpt lat="49.10386" lon="-0.26984">
        <ele>161.4</ele>
        <time>2024-04-07T06:22:59Z</time>
      </trkpt>
      <trkpt lat="49.1038" lon="-0.26986">
        <ele>161.4</ele>
        <time>2024-04-07T06:23:00Z</time>
      </trkpt>
      <trkpt lat="49.10373" lon="-0.26988">
        <ele>161.2</ele>
        <time>2024-04-07T06:23:01Z</time>
      </trkpt>
      <trkpt lat="49.10367" lon="-0.26989">
        <ele>161.2</ele>
        <time>2024-04-07T06:23:02Z</time>
      </trkpt>
      <trkpt lat="49.1036" lon="-0.26989">
        <ele>161.2</ele>
        <time>2024-04-07T06:23:03Z</time>
      </trkpt>
      <trkpt lat="49.10354" lon="-0.26988">
        <ele>161.4</ele>
        <time>2024-04-07T06:23:04Z</time>
      </trkpt>
      <trkpt lat="49.10348" lon="-0.26986">
        <ele>161.4</ele>
        <time>2024-04-07T06:23:05Z</time>
      </trkpt>
      <trkpt lat="49.10343" lon="-0.26984">
        <ele>161.4</ele>
        <time>2024-04-07T06:23:06Z</time>
      </trkpt>
      <trkpt lat="49.10338" lon="-0.26981">
        <ele>161.6</ele>
        <time>2024-04-07T06:23:07Z</time>
      </trkpt>
      <trkpt lat="49.10335" lon="-0.26978">
        <ele>161.6</ele>
        <time>2024-04-07T06:23:08Z</time>
      </trkpt>
      <trkpt lat="49.10331" lon="-0.26974">
        <ele>161.8</ele>
        <time>2024-04-07T06:23:09Z</time>
      </trkpt>
      <trkpt lat="49.10327" lon="-0.26971">
        <ele>162.2</ele>
        <time>2024-04-07T06:23:10Z</time>
      </trkpt>
      <trkpt lat="49.10324" lon="-0.26966">
        <ele>162.2</ele>
        <time>2024-04-07T06:23:11Z</time>
      </trkpt>
      <trkpt lat="49.1032" lon="-0.26962">
        <ele>162.2</ele>
        <time>2024-04-07T06:23:12Z</time>
      </trkpt>
      <trkpt lat="49.10315" lon="-0.26957">
        <ele>162.2</ele>
        <time>2024-04-07T06:23:13Z</time>
      </trkpt>
      <trkpt lat="49.1031" lon="-0.26953">
        <ele>162</ele>
        <time>2024-04-07T06:23:14Z</time>
      </trkpt>
      <trkpt lat="49.10304" lon="-0.26949">
        <ele>161.6</ele>
        <time>2024-04-07T06:23:15Z</time>
      </trkpt>
      <trkpt lat="49.10298" lon="-0.26945">
        <ele>161.2</ele>
        <time>2024-04-07T06:23:16Z</time>
      </trkpt>
      <trkpt lat="49.10291" lon="-0.26942">
        <ele>160.8</ele>
        <time>2024-04-07T06:23:17Z</time>
      </trkpt>
      <trkpt lat="49.10284" lon="-0.2694">
        <ele>160.4</ele>
        <time>2024-04-07T06:23:18Z</time>
      </trkpt>
      <trkpt lat="49.10277" lon="-0.26939">
        <ele>160</ele>
        <time>2024-04-07T06:23:19Z</time>
      </trkpt>
      <trkpt lat="49.1027" lon="-0.2694">
        <ele>159.6</ele>
        <time>2024-04-07T06:23:20Z</time>
      </trkpt>
      <trkpt lat="49.10263" lon="-0.26941">
        <ele>159.2</ele>
        <time>2024-04-07T06:23:21Z</time>
      </trkpt>
      <trkpt lat="49.10255" lon="-0.26944">
        <ele>159</ele>
        <time>2024-04-07T06:23:22Z</time>
      </trkpt>
      <trkpt lat="49.10249" lon="-0.26947">
        <ele>158.8</ele>
        <time>2024-04-07T06:23:23Z</time>
      </trkpt>
      <trkpt lat="49.10242" lon="-0.26952">
        <ele>158.6</ele>
        <time>2024-04-07T06:23:24Z</time>
      </trkpt>
      <trkpt lat="49.10235" lon="-0.26958">
        <ele>158.2</ele>
        <time>2024-04-07T06:23:25Z</time>
      </trkpt>
      <trkpt lat="49.10229" lon="-0.26965">
        <ele>158</ele>
        <time>2024-04-07T06:23:26Z</time>
      </trkpt>
      <trkpt lat="49.10224" lon="-0.26972">
        <ele>157.6</ele>
        <time>2024-04-07T06:23:27Z</time>
      </trkpt>
      <trkpt lat="49.10218" lon="-0.26979">
        <ele>157.6</ele>
        <time>2024-04-07T06:23:28Z</time>
      </trkpt>
      <trkpt lat="49.10212" lon="-0.26987">
        <ele>157.6</ele>
        <time>2024-04-07T06:23:29Z</time>
      </trkpt>
      <trkpt lat="49.10207" lon="-0.26993">
        <ele>157.4</ele>
        <time>2024-04-07T06:23:30Z</time>
      </trkpt>
      <trkpt lat="49.10201" lon="-0.27001">
        <ele>157.4</ele>
        <time>2024-04-07T06:23:31Z</time>
      </trkpt>
      <trkpt lat="49.10195" lon="-0.27007">
        <ele>157.4</ele>
        <time>2024-04-07T06:23:32Z</time>
      </trkpt>
      <trkpt lat="49.1019" lon="-0.27014">
        <ele>157.4</ele>
        <time>2024-04-07T06:23:33Z</time>
      </trkpt>
      <trkpt lat="49.10184" lon="-0.2702">
        <ele>157.2</ele>
        <time>2024-04-07T06:23:34Z</time>
      </trkpt>
      <trkpt lat="49.10179" lon="-0.27026">
        <ele>157.2</ele>
        <time>2024-04-07T06:23:35Z</time>
      </trkpt>
      <trkpt lat="49.10173" lon="-0.27031">
        <ele>157.2</ele>
        <time>2024-04-07T06:23:36Z</time>
      </trkpt>
      <trkpt lat="49.10166" lon="-0.27036">
        <ele>157.2</ele>
        <time>2024-04-07T06:23:37Z</time>
      </trkpt>
      <trkpt lat="49.10159" lon="-0.27039">
        <ele>157.4</ele>
        <time>2024-04-07T06:23:38Z</time>
      </trkpt>
      <trkpt lat="49.10153" lon="-0.27042">
        <ele>157.6</ele>
        <time>2024-04-07T06:23:39Z</time>
      </trkpt>
      <trkpt lat="49.10146" lon="-0.27043">
        <ele>157.6</ele>
        <time>2024-04-07T06:23:40Z</time>
      </trkpt>
      <trkpt lat="49.10139" lon="-0.27045">
        <ele>157.6</ele>
        <time>2024-04-07T06:23:41Z</time>
      </trkpt>
      <trkpt lat="49.10132" lon="-0.27047">
        <ele>157.8</ele>
        <time>2024-04-07T06:23:42Z</time>
      </trkpt>
      <trkpt lat="49.10126" lon="-0.27048">
        <ele>157.8</ele>
        <time>2024-04-07T06:23:43Z</time>
      </trkpt>
      <trkpt lat="49.10119" lon="-0.27049">
        <ele>157.8</ele>
        <time>2024-04-07T06:23:44Z</time>
      </trkpt>
      <trkpt lat="49.10112" lon="-0.2705">
        <ele>158</ele>
        <time>2024-04-07T06:23:45Z</time>
      </trkpt>
      <trkpt lat="49.10105" lon="-0.27051">
        <ele>158.2</ele>
        <time>2024-04-07T06:23:46Z</time>
      </trkpt>
      <trkpt lat="49.10098" lon="-0.27051">
        <ele>158.2</ele>
        <time>2024-04-07T06:23:47Z</time>
      </trkpt>
      <trkpt lat="49.10091" lon="-0.27052">
        <ele>158.4</ele>
        <time>2024-04-07T06:23:48Z</time>
      </trkpt>
      <trkpt lat="49.10085" lon="-0.27054">
        <ele>158.4</ele>
        <time>2024-04-07T06:23:49Z</time>
      </trkpt>
      <trkpt lat="49.10078" lon="-0.27055">
        <ele>158.8</ele>
        <time>2024-04-07T06:23:50Z</time>
      </trkpt>
      <trkpt lat="49.10071" lon="-0.27057">
        <ele>159</ele>
        <time>2024-04-07T06:23:51Z</time>
      </trkpt>
      <trkpt lat="49.10065" lon="-0.2706">
        <ele>159</ele>
        <time>2024-04-07T06:23:52Z</time>
      </trkpt>
      <trkpt lat="49.10059" lon="-0.27063">
        <ele>159.2</ele>
        <time>2024-04-07T06:23:53Z</time>
      </trkpt>
      <trkpt lat="49.10054" lon="-0.27066">
        <ele>159.2</ele>
        <time>2024-04-07T06:23:54Z</time>
      </trkpt>
      <trkpt lat="49.10048" lon="-0.2707">
        <ele>159.4</ele>
        <time>2024-04-07T06:23:55Z</time>
      </trkpt>
      <trkpt lat="49.10042" lon="-0.27072">
        <ele>159.4</ele>
        <time>2024-04-07T06:23:56Z</time>
      </trkpt>
      <trkpt lat="49.10036" lon="-0.27075">
        <ele>159.6</ele>
        <time>2024-04-07T06:23:57Z</time>
      </trkpt>
      <trkpt lat="49.1003" lon="-0.27078">
        <ele>160.2</ele>
        <time>2024-04-07T06:23:58Z</time>
      </trkpt>
      <trkpt lat="49.10024" lon="-0.27082">
        <ele>160.8</ele>
        <time>2024-04-07T06:23:59Z</time>
      </trkpt>
      <trkpt lat="49.10018" lon="-0.27086">
        <ele>161.4</ele>
        <time>2024-04-07T06:24:00Z</time>
      </trkpt>
      <trkpt lat="49.10012" lon="-0.2709">
        <ele>161.6</ele>
        <time>2024-04-07T06:24:01Z</time>
      </trkpt>
      <trkpt lat="49.10006" lon="-0.27093">
        <ele>161.8</ele>
        <time>2024-04-07T06:24:02Z</time>
      </trkpt>
      <trkpt lat="49.1" lon="-0.27097">
        <ele>161.8</ele>
        <time>2024-04-07T06:24:03Z</time>
      </trkpt>
      <trkpt lat="49.09994" lon="-0.271">
        <ele>161.8</ele>
        <time>2024-04-07T06:24:04Z</time>
      </trkpt>
      <trkpt lat="49.09988" lon="-0.27104">
        <ele>161.8</ele>
        <time>2024-04-07T06:24:05Z</time>
      </trkpt>
      <trkpt lat="49.09982" lon="-0.27108">
        <ele>161.8</ele>
        <time>2024-04-07T06:24:06Z</time>
      </trkpt>
      <trkpt lat="49.09976" lon="-0.27112">
        <ele>161.8</ele>
        <time>2024-04-07T06:24:07Z</time>
      </trkpt>
      <trkpt lat="49.0997" lon="-0.27115">
        <ele>161.6</ele>
        <time>2024-04-07T06:24:08Z</time>
      </trkpt>
      <trkpt lat="49.09965" lon="-0.27118">
        <ele>161.8</ele>
        <time>2024-04-07T06:24:09Z</time>
      </trkpt>
      <trkpt lat="49.09959" lon="-0.27122">
        <ele>161.8</ele>
        <time>2024-04-07T06:24:10Z</time>
      </trkpt>
      <trkpt lat="49.09953" lon="-0.27124">
        <ele>162</ele>
        <time>2024-04-07T06:24:11Z</time>
      </trkpt>
      <trkpt lat="49.09947" lon="-0.27127">
        <ele>162</ele>
        <time>2024-04-07T06:24:12Z</time>
      </trkpt>
      <trkpt lat="49.09941" lon="-0.2713">
        <ele>162.2</ele>
        <time>2024-04-07T06:24:13Z</time>
      </trkpt>
      <trkpt lat="49.09935" lon="-0.27132">
        <ele>162.4</ele>
        <time>2024-04-07T06:24:14Z</time>
      </trkpt>
      <trkpt lat="49.09929" lon="-0.27134">
        <ele>162.6</ele>
        <time>2024-04-07T06:24:15Z</time>
      </trkpt>
      <trkpt lat="49.09922" lon="-0.27136">
        <ele>162.8</ele>
        <time>2024-04-07T06:24:16Z</time>
      </trkpt>
      <trkpt lat="49.09916" lon="-0.27138">
        <ele>163</ele>
        <time>2024-04-07T06:24:17Z</time>
      </trkpt>
      <trkpt lat="49.0991" lon="-0.27141">
        <ele>163</ele>
        <time>2024-04-07T06:24:18Z</time>
      </trkpt>
      <trkpt lat="49.09903" lon="-0.27143">
        <ele>163</ele>
        <time>2024-04-07T06:24:19Z</time>
      </trkpt>
      <trkpt lat="49.09897" lon="-0.27146">
        <ele>163</ele>
        <time>2024-04-07T06:24:20Z</time>
      </trkpt>
      <trkpt lat="49.0989" lon="-0.27149">
        <ele>163</ele>
        <time>2024-04-07T06:24:21Z</time>
      </trkpt>
      <trkpt lat="49.09884" lon="-0.27152">
        <ele>163</ele>
        <time>2024-04-07T06:24:22Z</time>
      </trkpt>
      <trkpt lat="49.09878" lon="-0.27154">
        <ele>163</ele>
        <time>2024-04-07T06:24:23Z</time>
      </trkpt>
      <trkpt lat="49.09871" lon="-0.27157">
        <ele>163</ele>
        <time>2024-04-07T06:24:24Z</time>
      </trkpt>
      <trkpt lat="49.09865" lon="-0.2716">
        <ele>163.2</ele>
        <time>2024-04-07T06:24:25Z</time>
      </trkpt>
      <trkpt lat="49.09858" lon="-0.27162">
        <ele>163.4</ele>
        <time>2024-04-07T06:24:26Z</time>
      </trkpt>
      <trkpt lat="49.09852" lon="-0.27165">
        <ele>163.6</ele>
        <time>2024-04-07T06:24:27Z</time>
      </trkpt>
      <trkpt lat="49.09846" lon="-0.27168">
        <ele>163.8</ele>
        <time>2024-04-07T06:24:28Z</time>
      </trkpt>
      <trkpt lat="49.09839" lon="-0.2717">
        <ele>164</ele>
        <time>2024-04-07T06:24:29Z</time>
      </trkpt>
      <trkpt lat="49.09833" lon="-0.27173">
        <ele>164.2</ele>
        <time>2024-04-07T06:24:30Z</time>
      </trkpt>
      <trkpt lat="49.09827" lon="-0.27175">
        <ele>164.4</ele>
        <time>2024-04-07T06:24:31Z</time>
      </trkpt>
      <trkpt lat="49.09821" lon="-0.27178">
        <ele>164.6</ele>
        <time>2024-04-07T06:24:32Z</time>
      </trkpt>
      <trkpt lat="49.09814" lon="-0.2718">
        <ele>164.8</ele>
        <time>2024-04-07T06:24:33Z</time>
      </trkpt>
      <trkpt lat="49.09808" lon="-0.27183">
        <ele>164.8</ele>
        <time>2024-04-07T06:24:34Z</time>
      </trkpt>
      <trkpt lat="49.09802" lon="-0.27185">
        <ele>165</ele>
        <time>2024-04-07T06:24:35Z</time>
      </trkpt>
      <trkpt lat="49.09796" lon="-0.27188">
        <ele>165</ele>
        <time>2024-04-07T06:24:36Z</time>
      </trkpt>
      <trkpt lat="49.0979" lon="-0.2719">
        <ele>165.2</ele>
        <time>2024-04-07T06:24:37Z</time>
      </trkpt>
      <trkpt lat="49.09784" lon="-0.27193">
        <ele>165.2</ele>
        <time>2024-04-07T06:24:38Z</time>
      </trkpt>
      <trkpt lat="49.09778" lon="-0.27195">
        <ele>165.2</ele>
        <time>2024-04-07T06:24:39Z</time>
      </trkpt>
      <trkpt lat="49.09772" lon="-0.27197">
        <ele>165.2</ele>
        <time>2024-04-07T06:24:40Z</time>
      </trkpt>
      <trkpt lat="49.09766" lon="-0.272">
        <ele>165.4</ele>
        <time>2024-04-07T06:24:41Z</time>
      </trkpt>
      <trkpt lat="49.09761" lon="-0.27202">
        <ele>165.8</ele>
        <time>2024-04-07T06:24:42Z</time>
      </trkpt>
      <trkpt lat="49.09755" lon="-0.27204">
        <ele>166.2</ele>
        <time>2024-04-07T06:24:43Z</time>
      </trkpt>
      <trkpt lat="49.09749" lon="-0.27207">
        <ele>166.6</ele>
        <time>2024-04-07T06:24:44Z</time>
      </trkpt>
      <trkpt lat="49.09743" lon="-0.27209">
        <ele>166.8</ele>
        <time>2024-04-07T06:24:45Z</time>
      </trkpt>
      <trkpt lat="49.09737" lon="-0.27211">
        <ele>167</ele>
        <time>2024-04-07T06:24:46Z</time>
      </trkpt>
      <trkpt lat="49.09732" lon="-0.27214">
        <ele>167.2</ele>
        <time>2024-04-07T06:24:47Z</time>
      </trkpt>
      <trkpt lat="49.09726" lon="-0.27216">
        <ele>167.4</ele>
        <time>2024-04-07T06:24:48Z</time>
      </trkpt>
      <trkpt lat="49.0972" lon="-0.27218">
        <ele>167.4</ele>
        <time>2024-04-07T06:24:49Z</time>
      </trkpt>
      <trkpt lat="49.09715" lon="-0.27221">
        <ele>167.6</ele>
        <time>2024-04-07T06:24:50Z</time>
      </trkpt>
      <trkpt lat="49.09709" lon="-0.27223">
        <ele>167.8</ele>
        <time>2024-04-07T06:24:51Z</time>
      </trkpt>
      <trkpt lat="49.09703" lon="-0.27225">
        <ele>168</ele>
        <time>2024-04-07T06:24:52Z</time>
      </trkpt>
      <trkpt lat="49.09698" lon="-0.27227">
        <ele>168</ele>
        <time>2024-04-07T06:24:53Z</time>
      </trkpt>
      <trkpt lat="49.09692" lon="-0.2723">
        <ele>168.2</ele>
        <time>2024-04-07T06:24:54Z</time>
      </trkpt>
      <trkpt lat="49.09687" lon="-0.27232">
        <ele>168.4</ele>
        <time>2024-04-07T06:24:55Z</time>
      </trkpt>
      <trkpt lat="49.09681" lon="-0.27234">
        <ele>168.6</ele>
        <time>2024-04-07T06:24:56Z</time>
      </trkpt>
      <trkpt lat="49.09675" lon="-0.27236">
        <ele>168.8</ele>
        <time>2024-04-07T06:24:57Z</time>
      </trkpt>
      <trkpt lat="49.0967" lon="-0.27238">
        <ele>169</ele>
        <time>2024-04-07T06:24:58Z</time>
      </trkpt>
      <trkpt lat="49.09664" lon="-0.27241">
        <ele>169.2</ele>
        <time>2024-04-07T06:24:59Z</time>
      </trkpt>
      <trkpt lat="49.09658" lon="-0.27243">
        <ele>169.4</ele>
        <time>2024-04-07T06:25:00Z</time>
      </trkpt>
      <trkpt lat="49.09653" lon="-0.27245">
        <ele>169.4</ele>
        <time>2024-04-07T06:25:01Z</time>
      </trkpt>
      <trkpt lat="49.09647" lon="-0.27247">
        <ele>169.6</ele>
        <time>2024-04-07T06:25:02Z</time>
      </trkpt>
      <trkpt lat="49.09641" lon="-0.2725">
        <ele>169.8</ele>
        <time>2024-04-07T06:25:03Z</time>
      </trkpt>
      <trkpt lat="49.09635" lon="-0.27252">
        <ele>169.8</ele>
        <time>2024-04-07T06:25:04Z</time>
      </trkpt>
      <trkpt lat="49.09629" lon="-0.27254">
        <ele>170</ele>
        <time>2024-04-07T06:25:05Z</time>
      </trkpt>
      <trkpt lat="49.09623" lon="-0.27257">
        <ele>170</ele>
        <time>2024-04-07T06:25:06Z</time>
      </trkpt>
      <trkpt lat="49.09618" lon="-0.27259">
        <ele>170.2</ele>
        <time>2024-04-07T06:25:07Z</time>
      </trkpt>
      <trkpt lat="49.09612" lon="-0.27262">
        <ele>170.4</ele>
        <time>2024-04-07T06:25:08Z</time>
      </trkpt>
      <trkpt lat="49.09606" lon="-0.27264">
        <ele>170.4</ele>
        <time>2024-04-07T06:25:09Z</time>
      </trkpt>
      <trkpt lat="49.096" lon="-0.27267">
        <ele>170.6</ele>
        <time>2024-04-07T06:25:10Z</time>
      </trkpt>
      <trkpt lat="49.09594" lon="-0.27269">
        <ele>170.8</ele>
        <time>2024-04-07T06:25:11Z</time>
      </trkpt>
      <trkpt lat="49.09588" lon="-0.27271">
        <ele>170.8</ele>
        <time>2024-04-07T06:25:12Z</time>
      </trkpt>
      <trkpt lat="49.09582" lon="-0.27274">
        <ele>171</ele>
        <time>2024-04-07T06:25:13Z</time>
      </trkpt>
      <trkpt lat="49.09576" lon="-0.27276">
        <ele>171</ele>
        <time>2024-04-07T06:25:14Z</time>
      </trkpt>
      <trkpt lat="49.09571" lon="-0.27279">
        <ele>171.2</ele>
        <time>2024-04-07T06:25:15Z</time>
      </trkpt>
      <trkpt lat="49.09565" lon="-0.27281">
        <ele>171.4</ele>
        <time>2024-04-07T06:25:16Z</time>
      </trkpt>
      <trkpt lat="49.09559" lon="-0.27283">
        <ele>171.4</ele>
        <time>2024-04-07T06:25:17Z</time>
      </trkpt>
      <trkpt lat="49.09554" lon="-0.27285">
        <ele>171.4</ele>
        <time>2024-04-07T06:25:18Z</time>
      </trkpt>
      <trkpt lat="49.09548" lon="-0.27288">
        <ele>171.2</ele>
        <time>2024-04-07T06:25:19Z</time>
      </trkpt>
      <trkpt lat="49.09542" lon="-0.2729">
        <ele>171</ele>
        <time>2024-04-07T06:25:20Z</time>
      </trkpt>
      <trkpt lat="49.09536" lon="-0.27292">
        <ele>170.6</ele>
        <time>2024-04-07T06:25:21Z</time>
      </trkpt>
      <trkpt lat="49.09531" lon="-0.27294">
        <ele>170.4</ele>
        <time>2024-04-07T06:25:22Z</time>
      </trkpt>
      <trkpt lat="49.09525" lon="-0.27297">
        <ele>170.4</ele>
        <time>2024-04-07T06:25:23Z</time>
      </trkpt>
      <trkpt lat="49.09519" lon="-0.27299">
        <ele>170.4</ele>
        <time>2024-04-07T06:25:24Z</time>
      </trkpt>
      <trkpt lat="49.09513" lon="-0.27302">
        <ele>170.4</ele>
        <time>2024-04-07T06:25:25Z</time>
      </trkpt>
      <trkpt lat="49.09507" lon="-0.27304">
        <ele>170.6</ele>
        <time>2024-04-07T06:25:26Z</time>
      </trkpt>
      <trkpt lat="49.09502" lon="-0.27306">
        <ele>171</ele>
        <time>2024-04-07T06:25:27Z</time>
      </trkpt>
      <trkpt lat="49.09496" lon="-0.27308">
        <ele>171.4</ele>
        <time>2024-04-07T06:25:28Z</time>
      </trkpt>
      <trkpt lat="49.0949" lon="-0.2731">
        <ele>171.8</ele>
        <time>2024-04-07T06:25:29Z</time>
      </trkpt>
      <trkpt lat="49.09484" lon="-0.27313">
        <ele>172.2</ele>
        <time>2024-04-07T06:25:30Z</time>
      </trkpt>
      <trkpt lat="49.09478" lon="-0.27315">
        <ele>172.6</ele>
        <time>2024-04-07T06:25:31Z</time>
      </trkpt>
      <trkpt lat="49.09473" lon="-0.27317">
        <ele>173</ele>
        <time>2024-04-07T06:25:32Z</time>
      </trkpt>
      <trkpt lat="49.09467" lon="-0.2732">
        <ele>173.2</ele>
        <time>2024-04-07T06:25:33Z</time>
      </trkpt>
      <trkpt lat="49.09461" lon="-0.27322">
        <ele>173.2</ele>
        <time>2024-04-07T06:25:34Z</time>
      </trkpt>
      <trkpt lat="49.09455" lon="-0.27324">
        <ele>173.2</ele>
        <time>2024-04-07T06:25:35Z</time>
      </trkpt>
      <trkpt lat="49.09449" lon="-0.27327">
        <ele>173.2</ele>
        <time>2024-04-07T06:25:36Z</time>
      </trkpt>
      <trkpt lat="49.09443" lon="-0.27329">
        <ele>173.2</ele>
        <time>2024-04-07T06:25:37Z</time>
      </trkpt>
      <trkpt lat="49.09437" lon="-0.27332">
        <ele>173.2</ele>
        <time>2024-04-07T06:25:38Z</time>
      </trkpt>
      <trkpt lat="49.09432" lon="-0.27334">
        <ele>173.2</ele>
        <time>2024-04-07T06:25:39Z</time>
      </trkpt>
      <trkpt lat="49.09426" lon="-0.27336">
        <ele>173.2</ele>
        <time>2024-04-07T06:25:40Z</time>
      </trkpt>
      <trkpt lat="49.0942" lon="-0.27339">
        <ele>173.4</ele>
        <time>2024-04-07T06:25:41Z</time>
      </trkpt>
      <trkpt lat="49.09414" lon="-0.27341">
        <ele>174</ele>
        <time>2024-04-07T06:25:42Z</time>
      </trkpt>
      <trkpt lat="49.09408" lon="-0.27343">
        <ele>174.4</ele>
        <time>2024-04-07T06:25:43Z</time>
      </trkpt>
      <trkpt lat="49.09402" lon="-0.27346">
        <ele>174.8</ele>
        <time>2024-04-07T06:25:44Z</time>
      </trkpt>
      <trkpt lat="49.09396" lon="-0.27348">
        <ele>175</ele>
        <time>2024-04-07T06:25:45Z</time>
      </trkpt>
      <trkpt lat="49.09391" lon="-0.2735">
        <ele>175</ele>
        <time>2024-04-07T06:25:46Z</time>
      </trkpt>
      <trkpt lat="49.09385" lon="-0.27352">
        <ele>175.2</ele>
        <time>2024-04-07T06:25:47Z</time>
      </trkpt>
      <trkpt lat="49.09379" lon="-0.27354">
        <ele>175</ele>
        <time>2024-04-07T06:25:48Z</time>
      </trkpt>
      <trkpt lat="49.09373" lon="-0.27357">
        <ele>174.6</ele>
        <time>2024-04-07T06:25:49Z</time>
      </trkpt>
      <trkpt lat="49.09368" lon="-0.27359">
        <ele>174.4</ele>
        <time>2024-04-07T06:25:50Z</time>
      </trkpt>
      <trkpt lat="49.09362" lon="-0.27362">
        <ele>174.2</ele>
        <time>2024-04-07T06:25:51Z</time>
      </trkpt>
      <trkpt lat="49.09356" lon="-0.27364">
        <ele>174.2</ele>
        <time>2024-04-07T06:25:52Z</time>
      </trkpt>
      <trkpt lat="49.0935" lon="-0.27366">
        <ele>174.2</ele>
        <time>2024-04-07T06:25:53Z</time>
      </trkpt>
      <trkpt lat="49.09345" lon="-0.27369">
        <ele>174.2</ele>
        <time>2024-04-07T06:25:54Z</time>
      </trkpt>
      <trkpt lat="49.09339" lon="-0.27371">
        <ele>174.4</ele>
        <time>2024-04-07T06:25:55Z</time>
      </trkpt>
      <trkpt lat="49.09333" lon="-0.27373">
        <ele>174.4</ele>
        <time>2024-04-07T06:25:56Z</time>
      </trkpt>
      <trkpt lat="49.09328" lon="-0.27376">
        <ele>174.4</ele>
        <time>2024-04-07T06:25:57Z</time>
      </trkpt>
      <trkpt lat="49.09322" lon="-0.27378">
        <ele>174.6</ele>
        <time>2024-04-07T06:25:58Z</time>
      </trkpt>
      <trkpt lat="49.09316" lon="-0.2738">
        <ele>174.6</ele>
        <time>2024-04-07T06:25:59Z</time>
      </trkpt>
      <trkpt lat="49.0931" lon="-0.27382">
        <ele>174.8</ele>
        <time>2024-04-07T06:26:00Z</time>
      </trkpt>
      <trkpt lat="49.09305" lon="-0.27385">
        <ele>175</ele>
        <time>2024-04-07T06:26:01Z</time>
      </trkpt>
      <trkpt lat="49.09299" lon="-0.27387">
        <ele>175.4</ele>
        <time>2024-04-07T06:26:02Z</time>
      </trkpt>
      <trkpt lat="49.09293" lon="-0.27389">
        <ele>175.6</ele>
        <time>2024-04-07T06:26:03Z</time>
      </trkpt>
      <trkpt lat="49.09288" lon="-0.27391">
        <ele>175.8</ele>
        <time>2024-04-07T06:26:04Z</time>
      </trkpt>
      <trkpt lat="49.09282" lon="-0.27394">
        <ele>176</ele>
        <time>2024-04-07T06:26:05Z</time>
      </trkpt>
      <trkpt lat="49.09276" lon="-0.27396">
        <ele>176.2</ele>
        <time>2024-04-07T06:26:06Z</time>
      </trkpt>
      <trkpt lat="49.09271" lon="-0.27398">
        <ele>176.4</ele>
        <time>2024-04-07T06:26:07Z</time>
      </trkpt>
      <trkpt lat="49.09265" lon="-0.274">
        <ele>176.6</ele>
        <time>2024-04-07T06:26:08Z</time>
      </trkpt>
      <trkpt lat="49.09259" lon="-0.27403">
        <ele>176.8</ele>
        <time>2024-04-07T06:26:09Z</time>
      </trkpt>
      <trkpt lat="49.09253" lon="-0.27405">
        <ele>176.8</ele>
        <time>2024-04-07T06:26:10Z</time>
      </trkpt>
      <trkpt lat="49.09247" lon="-0.27407">
        <ele>177</ele>
        <time>2024-04-07T06:26:11Z</time>
      </trkpt>
      <trkpt lat="49.09242" lon="-0.27409">
        <ele>177</ele>
        <time>2024-04-07T06:26:12Z</time>
      </trkpt>
      <trkpt lat="49.09236" lon="-0.27412">
        <ele>177</ele>
        <time>2024-04-07T06:26:13Z</time>
      </trkpt>
      <trkpt lat="49.0923" lon="-0.27414">
        <ele>177</ele>
        <time>2024-04-07T06:26:14Z</time>
      </trkpt>
      <trkpt lat="49.09225" lon="-0.27416">
        <ele>177</ele>
        <time>2024-04-07T06:26:15Z</time>
      </trkpt>
      <trkpt lat="49.09219" lon="-0.27418">
        <ele>177</ele>
        <time>2024-04-07T06:26:16Z</time>
      </trkpt>
      <trkpt lat="49.09213" lon="-0.27421">
        <ele>177</ele>
        <time>2024-04-07T06:26:17Z</time>
      </trkpt>
      <trkpt lat="49.09208" lon="-0.27423">
        <ele>177</ele>
        <time>2024-04-07T06:26:18Z</time>
      </trkpt>
      <trkpt lat="49.09202" lon="-0.27425">
        <ele>177.2</ele>
        <time>2024-04-07T06:26:19Z</time>
      </trkpt>
      <trkpt lat="49.09196" lon="-0.27427">
        <ele>177.4</ele>
        <time>2024-04-07T06:26:20Z</time>
      </trkpt>
      <trkpt lat="49.09191" lon="-0.27429">
        <ele>177.4</ele>
        <time>2024-04-07T06:26:21Z</time>
      </trkpt>
      <trkpt lat="49.09185" lon="-0.27432">
        <ele>177.6</ele>
        <time>2024-04-07T06:26:22Z</time>
      </trkpt>
      <trkpt lat="49.09179" lon="-0.27434">
        <ele>177.6</ele>
        <time>2024-04-07T06:26:23Z</time>
      </trkpt>
      <trkpt lat="49.09174" lon="-0.27436">
        <ele>177.6</ele>
        <time>2024-04-07T06:26:24Z</time>
      </trkpt>
      <trkpt lat="49.09168" lon="-0.27439">
        <ele>177.8</ele>
        <time>2024-04-07T06:26:25Z</time>
      </trkpt>
      <trkpt lat="49.09162" lon="-0.27441">
        <ele>177.8</ele>
        <time>2024-04-07T06:26:26Z</time>
      </trkpt>
      <trkpt lat="49.09157" lon="-0.27443">
        <ele>178.2</ele>
        <time>2024-04-07T06:26:27Z</time>
      </trkpt>
      <trkpt lat="49.09151" lon="-0.27445">
        <ele>178.6</ele>
        <time>2024-04-07T06:26:28Z</time>
      </trkpt>
      <trkpt lat="49.09145" lon="-0.27447">
        <ele>178.8</ele>
        <time>2024-04-07T06:26:29Z</time>
      </trkpt>
      <trkpt lat="49.09139" lon="-0.27449">
        <ele>179</ele>
        <time>2024-04-07T06:26:30Z</time>
      </trkpt>
      <trkpt lat="49.09133" lon="-0.27452">
        <ele>179</ele>
        <time>2024-04-07T06:26:31Z</time>
      </trkpt>
      <trkpt lat="49.09128" lon="-0.27454">
        <ele>179.2</ele>
        <time>2024-04-07T06:26:32Z</time>
      </trkpt>
      <trkpt lat="49.09122" lon="-0.27457">
        <ele>179.2</ele>
        <time>2024-04-07T06:26:33Z</time>
      </trkpt>
      <trkpt lat="49.09116" lon="-0.27459">
        <ele>179.4</ele>
        <time>2024-04-07T06:26:34Z</time>
      </trkpt>
      <trkpt lat="49.09111" lon="-0.27461">
        <ele>179.6</ele>
        <time>2024-04-07T06:26:35Z</time>
      </trkpt>
      <trkpt lat="49.09105" lon="-0.27463">
        <ele>180</ele>
        <time>2024-04-07T06:26:36Z</time>
      </trkpt>
      <trkpt lat="49.09099" lon="-0.27466">
        <ele>180.2</ele>
        <time>2024-04-07T06:26:37Z</time>
      </trkpt>
      <trkpt lat="49.09094" lon="-0.27468">
        <ele>180.2</ele>
        <time>2024-04-07T06:26:38Z</time>
      </trkpt>
      <trkpt lat="49.09088" lon="-0.2747">
        <ele>180.4</ele>
        <time>2024-04-07T06:26:39Z</time>
      </trkpt>
      <trkpt lat="49.09082" lon="-0.27471">
        <ele>180.4</ele>
        <time>2024-04-07T06:26:40Z</time>
      </trkpt>
      <trkpt lat="49.09077" lon="-0.27473">
        <ele>180.6</ele>
        <time>2024-04-07T06:26:41Z</time>
      </trkpt>
      <trkpt lat="49.09071" lon="-0.27475">
        <ele>180.6</ele>
        <time>2024-04-07T06:26:42Z</time>
      </trkpt>
      <trkpt lat="49.09065" lon="-0.27476">
        <ele>180.8</ele>
        <time>2024-04-07T06:26:43Z</time>
      </trkpt>
      <trkpt lat="49.0906" lon="-0.27476">
        <ele>180.8</ele>
        <time>2024-04-07T06:26:44Z</time>
      </trkpt>
      <trkpt lat="49.09054" lon="-0.27477">
        <ele>180.8</ele>
        <time>2024-04-07T06:26:45Z</time>
      </trkpt>
      <trkpt lat="49.09049" lon="-0.27477">
        <ele>181</ele>
        <time>2024-04-07T06:26:46Z</time>
      </trkpt>
      <trkpt lat="49.09043" lon="-0.27478">
        <ele>181.4</ele>
        <time>2024-04-07T06:26:47Z</time>
      </trkpt>
      <trkpt lat="49.09037" lon="-0.27477">
        <ele>181.8</ele>
        <time>2024-04-07T06:26:48Z</time>
      </trkpt>
      <trkpt lat="49.09032" lon="-0.27477">
        <ele>182</ele>
        <time>2024-04-07T06:26:49Z</time>
      </trkpt>
      <trkpt lat="49.09026" lon="-0.27477">
        <ele>182.2</ele>
        <time>2024-04-07T06:26:50Z</time>
      </trkpt>
      <trkpt lat="49.0902" lon="-0.27476">
        <ele>182.4</ele>
        <time>2024-04-07T06:26:51Z</time>
      </trkpt>
      <trkpt lat="49.09015" lon="-0.27476">
        <ele>182.6</ele>
        <time>2024-04-07T06:26:52Z</time>
      </trkpt>
      <trkpt lat="49.09009" lon="-0.27475">
        <ele>182.8</ele>
        <time>2024-04-07T06:26:53Z</time>
      </trkpt>
      <trkpt lat="49.09003" lon="-0.27475">
        <ele>182.8</ele>
        <time>2024-04-07T06:26:54Z</time>
      </trkpt>
      <trkpt lat="49.08997" lon="-0.27474">
        <ele>183</ele>
        <time>2024-04-07T06:26:55Z</time>
      </trkpt>
      <trkpt lat="49.08992" lon="-0.27474">
        <ele>183</ele>
        <time>2024-04-07T06:26:56Z</time>
      </trkpt>
      <trkpt lat="49.08986" lon="-0.27474">
        <ele>183.2</ele>
        <time>2024-04-07T06:26:57Z</time>
      </trkpt>
      <trkpt lat="49.0898" lon="-0.27473">
        <ele>183.2</ele>
        <time>2024-04-07T06:26:58Z</time>
      </trkpt>
      <trkpt lat="49.08975" lon="-0.27473">
        <ele>183.2</ele>
        <time>2024-04-07T06:26:59Z</time>
      </trkpt>
      <trkpt lat="49.08969" lon="-0.27473">
        <ele>183.2</ele>
        <time>2024-04-07T06:27:00Z</time>
      </trkpt>
      <trkpt lat="49.08963" lon="-0.27473">
        <ele>183.2</ele>
        <time>2024-04-07T06:27:01Z</time>
      </trkpt>
      <trkpt lat="49.08958" lon="-0.27472">
        <ele>183.2</ele>
        <time>2024-04-07T06:27:02Z</time>
      </trkpt>
      <trkpt lat="49.08952" lon="-0.27472">
        <ele>183.2</ele>
        <time>2024-04-07T06:27:03Z</time>
      </trkpt>
      <trkpt lat="49.08946" lon="-0.27472">
        <ele>183.2</ele>
        <time>2024-04-07T06:27:04Z</time>
      </trkpt>
      <trkpt lat="49.0894" lon="-0.27471">
        <ele>183.2</ele>
        <time>2024-04-07T06:27:05Z</time>
      </trkpt>
      <trkpt lat="49.08934" lon="-0.27471">
        <ele>183.4</ele>
        <time>2024-04-07T06:27:06Z</time>
      </trkpt>
      <trkpt lat="49.08929" lon="-0.2747">
        <ele>183.6</ele>
        <time>2024-04-07T06:27:07Z</time>
      </trkpt>
      <trkpt lat="49.08923" lon="-0.27469">
        <ele>183.8</ele>
        <time>2024-04-07T06:27:08Z</time>
      </trkpt>
      <trkpt lat="49.08917" lon="-0.27468">
        <ele>184</ele>
        <time>2024-04-07T06:27:09Z</time>
      </trkpt>
      <trkpt lat="49.08912" lon="-0.27468">
        <ele>184.4</ele>
        <time>2024-04-07T06:27:10Z</time>
      </trkpt>
      <trkpt lat="49.08906" lon="-0.27467">
        <ele>184.4</ele>
        <time>2024-04-07T06:27:11Z</time>
      </trkpt>
      <trkpt lat="49.089" lon="-0.27467">
        <ele>184.6</ele>
        <time>2024-04-07T06:27:12Z</time>
      </trkpt>
      <trkpt lat="49.08895" lon="-0.27466">
        <ele>184.8</ele>
        <time>2024-04-07T06:27:13Z</time>
      </trkpt>
      <trkpt lat="49.08889" lon="-0.27465">
        <ele>185</ele>
        <time>2024-04-07T06:27:14Z</time>
      </trkpt>
      <trkpt lat="49.08883" lon="-0.27465">
        <ele>185</ele>
        <time>2024-04-07T06:27:15Z</time>
      </trkpt>
      <trkpt lat="49.08878" lon="-0.27464">
        <ele>185</ele>
        <time>2024-04-07T06:27:16Z</time>
      </trkpt>
      <trkpt lat="49.08872" lon="-0.27465">
        <ele>185.2</ele>
        <time>2024-04-07T06:27:17Z</time>
      </trkpt>
      <trkpt lat="49.08866" lon="-0.27465">
        <ele>185.4</ele>
        <time>2024-04-07T06:27:18Z</time>
      </trkpt>
      <trkpt lat="49.0886" lon="-0.27464">
        <ele>185.6</ele>
        <time>2024-04-07T06:27:19Z</time>
      </trkpt>
      <trkpt lat="49.08853" lon="-0.27464">
        <ele>185.8</ele>
        <time>2024-04-07T06:27:20Z</time>
      </trkpt>
      <trkpt lat="49.08847" lon="-0.27464">
        <ele>186</ele>
        <time>2024-04-07T06:27:21Z</time>
      </trkpt>
      <trkpt lat="49.08841" lon="-0.27463">
        <ele>186.2</ele>
        <time>2024-04-07T06:27:22Z</time>
      </trkpt>
      <trkpt lat="49.08835" lon="-0.27463">
        <ele>186</ele>
        <time>2024-04-07T06:27:23Z</time>
      </trkpt>
      <trkpt lat="49.08829" lon="-0.27463">
        <ele>186</ele>
        <time>2024-04-07T06:27:24Z</time>
      </trkpt>
      <trkpt lat="49.08822" lon="-0.27463">
        <ele>186</ele>
        <time>2024-04-07T06:27:25Z</time>
      </trkpt>
      <trkpt lat="49.08817" lon="-0.27463">
        <ele>185.6</ele>
        <time>2024-04-07T06:27:26Z</time>
      </trkpt>
      <trkpt lat="49.08811" lon="-0.27463">
        <ele>185.6</ele>
        <time>2024-04-07T06:27:27Z</time>
      </trkpt>
      <trkpt lat="49.08805" lon="-0.27463">
        <ele>185.4</ele>
        <time>2024-04-07T06:27:28Z</time>
      </trkpt>
      <trkpt lat="49.088" lon="-0.27462">
        <ele>185.4</ele>
        <time>2024-04-07T06:27:29Z</time>
      </trkpt>
      <trkpt lat="49.08794" lon="-0.27462">
        <ele>185.8</ele>
        <time>2024-04-07T06:27:30Z</time>
      </trkpt>
      <trkpt lat="49.08789" lon="-0.27461">
        <ele>186.4</ele>
        <time>2024-04-07T06:27:31Z</time>
      </trkpt>
      <trkpt lat="49.08783" lon="-0.27461">
        <ele>187</ele>
        <time>2024-04-07T06:27:32Z</time>
      </trkpt>
      <trkpt lat="49.08777" lon="-0.2746">
        <ele>187.6</ele>
        <time>2024-04-07T06:27:33Z</time>
      </trkpt>
      <trkpt lat="49.08772" lon="-0.27459">
        <ele>188.4</ele>
        <time>2024-04-07T06:27:34Z</time>
      </trkpt>
      <trkpt lat="49.08766" lon="-0.27459">
        <ele>189.4</ele>
        <time>2024-04-07T06:27:35Z</time>
      </trkpt>
      <trkpt lat="49.0876" lon="-0.27458">
        <ele>190</ele>
        <time>2024-04-07T06:27:36Z</time>
      </trkpt>
      <trkpt lat="49.08754" lon="-0.27458">
        <ele>190.6</ele>
        <time>2024-04-07T06:27:37Z</time>
      </trkpt>
      <trkpt lat="49.08749" lon="-0.27458">
        <ele>191</ele>
        <time>2024-04-07T06:27:38Z</time>
      </trkpt>
      <trkpt lat="49.08743" lon="-0.27458">
        <ele>191.2</ele>
        <time>2024-04-07T06:27:39Z</time>
      </trkpt>
      <trkpt lat="49.08737" lon="-0.27457">
        <ele>191.2</ele>
        <time>2024-04-07T06:27:40Z</time>
      </trkpt>
      <trkpt lat="49.08731" lon="-0.27457">
        <ele>191.4</ele>
        <time>2024-04-07T06:27:41Z</time>
      </trkpt>
      <trkpt lat="49.08726" lon="-0.27456">
        <ele>191.2</ele>
        <time>2024-04-07T06:27:42Z</time>
      </trkpt>
      <trkpt lat="49.0872" lon="-0.27456">
        <ele>191</ele>
        <time>2024-04-07T06:27:43Z</time>
      </trkpt>
      <trkpt lat="49.08715" lon="-0.27456">
        <ele>191</ele>
        <time>2024-04-07T06:27:44Z</time>
      </trkpt>
      <trkpt lat="49.08709" lon="-0.27455">
        <ele>190.8</ele>
        <time>2024-04-07T06:27:45Z</time>
      </trkpt>
      <trkpt lat="49.08703" lon="-0.27455">
        <ele>190.8</ele>
        <time>2024-04-07T06:27:46Z</time>
      </trkpt>
      <trkpt lat="49.08698" lon="-0.27455">
        <ele>191</ele>
        <time>2024-04-07T06:27:47Z</time>
      </trkpt>
      <trkpt lat="49.08692" lon="-0.27454">
        <ele>191.2</ele>
        <time>2024-04-07T06:27:48Z</time>
      </trkpt>
      <trkpt lat="49.08687" lon="-0.27454">
        <ele>191.6</ele>
        <time>2024-04-07T06:27:49Z</time>
      </trkpt>
      <trkpt lat="49.08681" lon="-0.27454">
        <ele>192</ele>
        <time>2024-04-07T06:27:50Z</time>
      </trkpt>
      <trkpt lat="49.08675" lon="-0.27453">
        <ele>192.2</ele>
        <time>2024-04-07T06:27:51Z</time>
      </trkpt>
      <trkpt lat="49.0867" lon="-0.27453">
        <ele>192.4</ele>
        <time>2024-04-07T06:27:52Z</time>
      </trkpt>
      <trkpt lat="49.08664" lon="-0.27452">
        <ele>192.6</ele>
        <time>2024-04-07T06:27:53Z</time>
      </trkpt>
      <trkpt lat="49.08658" lon="-0.27452">
        <ele>192.6</ele>
        <time>2024-04-07T06:27:54Z</time>
      </trkpt>
      <trkpt lat="49.08652" lon="-0.27451">
        <ele>192.4</ele>
        <time>2024-04-07T06:27:55Z</time>
      </trkpt>
      <trkpt lat="49.08646" lon="-0.27451">
        <ele>192.4</ele>
        <time>2024-04-07T06:27:56Z</time>
      </trkpt>
      <trkpt lat="49.08641" lon="-0.27451">
        <ele>192.4</ele>
        <time>2024-04-07T06:27:57Z</time>
      </trkpt>
      <trkpt lat="49.08635" lon="-0.2745">
        <ele>192.4</ele>
        <time>2024-04-07T06:27:58Z</time>
      </trkpt>
      <trkpt lat="49.08629" lon="-0.2745">
        <ele>192.4</ele>
        <time>2024-04-07T06:27:59Z</time>
      </trkpt>
      <trkpt lat="49.08624" lon="-0.27449">
        <ele>192.4</ele>
        <time>2024-04-07T06:28:00Z</time>
      </trkpt>
      <trkpt lat="49.08618" lon="-0.27449">
        <ele>192.4</ele>
        <time>2024-04-07T06:28:01Z</time>
      </trkpt>
      <trkpt lat="49.08612" lon="-0.27448">
        <ele>192.4</ele>
        <time>2024-04-07T06:28:02Z</time>
      </trkpt>
      <trkpt lat="49.08607" lon="-0.27448">
        <ele>192.2</ele>
        <time>2024-04-07T06:28:03Z</time>
      </trkpt>
      <trkpt lat="49.08601" lon="-0.27448">
        <ele>192.2</ele>
        <time>2024-04-07T06:28:04Z</time>
      </trkpt>
      <trkpt lat="49.08596" lon="-0.27447">
        <ele>192.2</ele>
        <time>2024-04-07T06:28:05Z</time>
      </trkpt>
      <trkpt lat="49.0859" lon="-0.27447">
        <ele>192.2</ele>
        <time>2024-04-07T06:28:06Z</time>
      </trkpt>
      <trkpt lat="49.08584" lon="-0.27447">
        <ele>192.2</ele>
        <time>2024-04-07T06:28:07Z</time>
      </trkpt>
      <trkpt lat="49.08579" lon="-0.27446">
        <ele>192.4</ele>
        <time>2024-04-07T06:28:08Z</time>
      </trkpt>
      <trkpt lat="49.08573" lon="-0.27446">
        <ele>192.8</ele>
        <time>2024-04-07T06:28:09Z</time>
      </trkpt>
      <trkpt lat="49.08567" lon="-0.27446">
        <ele>192.8</ele>
        <time>2024-04-07T06:28:10Z</time>
      </trkpt>
      <trkpt lat="49.08562" lon="-0.27445">
        <ele>193</ele>
        <time>2024-04-07T06:28:11Z</time>
      </trkpt>
      <trkpt lat="49.08556" lon="-0.27445">
        <ele>192.8</ele>
        <time>2024-04-07T06:28:12Z</time>
      </trkpt>
      <trkpt lat="49.08551" lon="-0.27444">
        <ele>192.6</ele>
        <time>2024-04-07T06:28:13Z</time>
      </trkpt>
      <trkpt lat="49.08545" lon="-0.27444">
        <ele>192.6</ele>
        <time>2024-04-07T06:28:14Z</time>
      </trkpt>
      <trkpt lat="49.0854" lon="-0.27444">
        <ele>192.4</ele>
        <time>2024-04-07T06:28:15Z</time>
      </trkpt>
      <trkpt lat="49.08534" lon="-0.27444">
        <ele>192.2</ele>
        <time>2024-04-07T06:28:16Z</time>
      </trkpt>
      <trkpt lat="49.08528" lon="-0.27443">
        <ele>192.4</ele>
        <time>2024-04-07T06:28:17Z</time>
      </trkpt>
      <trkpt lat="49.08523" lon="-0.27443">
        <ele>192.4</ele>
        <time>2024-04-07T06:28:18Z</time>
      </trkpt>
      <trkpt lat="49.08517" lon="-0.27443">
        <ele>192.8</ele>
        <time>2024-04-07T06:28:19Z</time>
      </trkpt>
      <trkpt lat="49.08512" lon="-0.27443">
        <ele>193</ele>
        <time>2024-04-07T06:28:20Z</time>
      </trkpt>
      <trkpt lat="49.08506" lon="-0.27443">
        <ele>193.4</ele>
        <time>2024-04-07T06:28:21Z</time>
      </trkpt>
      <trkpt lat="49.085" lon="-0.27442">
        <ele>193.8</ele>
        <time>2024-04-07T06:28:22Z</time>
      </trkpt>
      <trkpt lat="49.08494" lon="-0.27442">
        <ele>194.2</ele>
        <time>2024-04-07T06:28:23Z</time>
      </trkpt>
      <trkpt lat="49.08488" lon="-0.27442">
        <ele>194.4</ele>
        <time>2024-04-07T06:28:24Z</time>
      </trkpt>
      <trkpt lat="49.08482" lon="-0.27442">
        <ele>194.6</ele>
        <time>2024-04-07T06:28:25Z</time>
      </trkpt>
      <trkpt lat="49.08476" lon="-0.27442">
        <ele>194.6</ele>
        <time>2024-04-07T06:28:26Z</time>
      </trkpt>
      <trkpt lat="49.0847" lon="-0.27442">
        <ele>194.6</ele>
        <time>2024-04-07T06:28:27Z</time>
      </trkpt>
      <trkpt lat="49.08464" lon="-0.27442">
        <ele>194.4</ele>
        <time>2024-04-07T06:28:28Z</time>
      </trkpt>
      <trkpt lat="49.08458" lon="-0.27442">
        <ele>194.6</ele>
        <time>2024-04-07T06:28:29Z</time>
      </trkpt>
      <trkpt lat="49.08452" lon="-0.27441">
        <ele>194.6</ele>
        <time>2024-04-07T06:28:30Z</time>
      </trkpt>
      <trkpt lat="49.08446" lon="-0.27441">
        <ele>194.6</ele>
        <time>2024-04-07T06:28:31Z</time>
      </trkpt>
      <trkpt lat="49.08439" lon="-0.27441">
        <ele>194.6</ele>
        <time>2024-04-07T06:28:32Z</time>
      </trkpt>
      <trkpt lat="49.08433" lon="-0.27441">
        <ele>194.8</ele>
        <time>2024-04-07T06:28:33Z</time>
      </trkpt>
      <trkpt lat="49.08427" lon="-0.27441">
        <ele>194.8</ele>
        <time>2024-04-07T06:28:34Z</time>
      </trkpt>
      <trkpt lat="49.0842" lon="-0.27441">
        <ele>195</ele>
        <time>2024-04-07T06:28:35Z</time>
      </trkpt>
      <trkpt lat="49.08414" lon="-0.27441">
        <ele>195.2</ele>
        <time>2024-04-07T06:28:36Z</time>
      </trkpt>
      <trkpt lat="49.08408" lon="-0.27442">
        <ele>195.4</ele>
        <time>2024-04-07T06:28:37Z</time>
      </trkpt>
      <trkpt lat="49.08401" lon="-0.27441">
        <ele>195.6</ele>
        <time>2024-04-07T06:28:38Z</time>
      </trkpt>
      <trkpt lat="49.08395" lon="-0.27441">
        <ele>195.6</ele>
        <time>2024-04-07T06:28:39Z</time>
      </trkpt>
      <trkpt lat="49.08388" lon="-0.27441">
        <ele>195.4</ele>
        <time>2024-04-07T06:28:40Z</time>
      </trkpt>
      <trkpt lat="49.08382" lon="-0.27441">
        <ele>195.4</ele>
        <time>2024-04-07T06:28:41Z</time>
      </trkpt>
      <trkpt lat="49.08376" lon="-0.27441">
        <ele>195.4</ele>
        <time>2024-04-07T06:28:42Z</time>
      </trkpt>
      <trkpt lat="49.0837" lon="-0.27441">
        <ele>195.2</ele>
        <time>2024-04-07T06:28:43Z</time>
      </trkpt>
      <trkpt lat="49.08364" lon="-0.27441">
        <ele>195.2</ele>
        <time>2024-04-07T06:28:44Z</time>
      </trkpt>
      <trkpt lat="49.08358" lon="-0.27441">
        <ele>195</ele>
        <time>2024-04-07T06:28:45Z</time>
      </trkpt>
      <trkpt lat="49.08352" lon="-0.27441">
        <ele>195</ele>
        <time>2024-04-07T06:28:46Z</time>
      </trkpt>
      <trkpt lat="49.08346" lon="-0.27441">
        <ele>195</ele>
        <time>2024-04-07T06:28:47Z</time>
      </trkpt>
      <trkpt lat="49.0834" lon="-0.27442">
        <ele>195.2</ele>
        <time>2024-04-07T06:28:48Z</time>
      </trkpt>
      <trkpt lat="49.08327" lon="-0.27442">
        <ele>195.2</ele>
        <time>2024-04-07T06:28:49Z</time>
      </trkpt>
      <trkpt lat="49.08324" lon="-0.27442">
        <ele>195.4</ele>
        <time>2024-04-07T06:28:50Z</time>
      </trkpt>
      <trkpt lat="49.08321" lon="-0.27442">
        <ele>195.4</ele>
        <time>2024-04-07T06:28:51Z</time>
      </trkpt>
      <trkpt lat="49.08315" lon="-0.27442">
        <ele>195.6</ele>
        <time>2024-04-07T06:28:52Z</time>
      </trkpt>
      <trkpt lat="49.08309" lon="-0.27442">
        <ele>195.6</ele>
        <time>2024-04-07T06:28:53Z</time>
      </trkpt>
      <trkpt lat="49.08304" lon="-0.27443">
        <ele>195.4</ele>
        <time>2024-04-07T06:28:54Z</time>
      </trkpt>
      <trkpt lat="49.08298" lon="-0.27443">
        <ele>195</ele>
        <time>2024-04-07T06:28:55Z</time>
      </trkpt>
      <trkpt lat="49.08292" lon="-0.27443">
        <ele>194.8</ele>
        <time>2024-04-07T06:28:56Z</time>
      </trkpt>
      <trkpt lat="49.08286" lon="-0.27442">
        <ele>194.6</ele>
        <time>2024-04-07T06:28:57Z</time>
      </trkpt>
      <trkpt lat="49.0828" lon="-0.27442">
        <ele>194.4</ele>
        <time>2024-04-07T06:28:58Z</time>
      </trkpt>
      <trkpt lat="49.08274" lon="-0.27442">
        <ele>194.4</ele>
        <time>2024-04-07T06:28:59Z</time>
      </trkpt>
      <trkpt lat="49.08268" lon="-0.27442">
        <ele>194.6</ele>
        <time>2024-04-07T06:29:00Z</time>
      </trkpt>
      <trkpt lat="49.08261" lon="-0.27442">
        <ele>195.2</ele>
        <time>2024-04-07T06:29:01Z</time>
      </trkpt>
      <trkpt lat="49.08255" lon="-0.27441">
        <ele>195.6</ele>
        <time>2024-04-07T06:29:02Z</time>
      </trkpt>
      <trkpt lat="49.08249" lon="-0.27441">
        <ele>195.8</ele>
        <time>2024-04-07T06:29:03Z</time>
      </trkpt>
      <trkpt lat="49.08243" lon="-0.27441">
        <ele>196</ele>
        <time>2024-04-07T06:29:04Z</time>
      </trkpt>
      <trkpt lat="49.08237" lon="-0.27442">
        <ele>196</ele>
        <time>2024-04-07T06:29:05Z</time>
      </trkpt>
      <trkpt lat="49.08231" lon="-0.27444">
        <ele>195.8</ele>
        <time>2024-04-07T06:29:06Z</time>
      </trkpt>
      <trkpt lat="49.08225" lon="-0.27446">
        <ele>195.4</ele>
        <time>2024-04-07T06:29:07Z</time>
      </trkpt>
      <trkpt lat="49.08219" lon="-0.27448">
        <ele>195</ele>
        <time>2024-04-07T06:29:08Z</time>
      </trkpt>
      <trkpt lat="49.08214" lon="-0.2745">
        <ele>194.8</ele>
        <time>2024-04-07T06:29:09Z</time>
      </trkpt>
      <trkpt lat="49.08208" lon="-0.27453">
        <ele>194.6</ele>
        <time>2024-04-07T06:29:10Z</time>
      </trkpt>
      <trkpt lat="49.08202" lon="-0.27455">
        <ele>194.6</ele>
        <time>2024-04-07T06:29:11Z</time>
      </trkpt>
      <trkpt lat="49.08196" lon="-0.27457">
        <ele>194.8</ele>
        <time>2024-04-07T06:29:12Z</time>
      </trkpt>
      <trkpt lat="49.0819" lon="-0.27459">
        <ele>195</ele>
        <time>2024-04-07T06:29:13Z</time>
      </trkpt>
      <trkpt lat="49.08184" lon="-0.27461">
        <ele>195</ele>
        <time>2024-04-07T06:29:14Z</time>
      </trkpt>
      <trkpt lat="49.08177" lon="-0.27463">
        <ele>195</ele>
        <time>2024-04-07T06:29:15Z</time>
      </trkpt>
      <trkpt lat="49.08171" lon="-0.27466">
        <ele>194.8</ele>
        <time>2024-04-07T06:29:16Z</time>
      </trkpt>
      <trkpt lat="49.08165" lon="-0.27468">
        <ele>194.6</ele>
        <time>2024-04-07T06:29:17Z</time>
      </trkpt>
      <trkpt lat="49.08159" lon="-0.27471">
        <ele>194.4</ele>
        <time>2024-04-07T06:29:18Z</time>
      </trkpt>
      <trkpt lat="49.08153" lon="-0.27473">
        <ele>194.4</ele>
        <time>2024-04-07T06:29:19Z</time>
      </trkpt>
      <trkpt lat="49.08147" lon="-0.27476">
        <ele>194.6</ele>
        <time>2024-04-07T06:29:20Z</time>
      </trkpt>
      <trkpt lat="49.08141" lon="-0.27478">
        <ele>195</ele>
        <time>2024-04-07T06:29:21Z</time>
      </trkpt>
      <trkpt lat="49.08136" lon="-0.27479">
        <ele>195.4</ele>
        <time>2024-04-07T06:29:22Z</time>
      </trkpt>
      <trkpt lat="49.0813" lon="-0.2748">
        <ele>195.4</ele>
        <time>2024-04-07T06:29:23Z</time>
      </trkpt>
      <trkpt lat="49.08124" lon="-0.27482">
        <ele>195.6</ele>
        <time>2024-04-07T06:29:24Z</time>
      </trkpt>
      <trkpt lat="49.08119" lon="-0.27483">
        <ele>195.8</ele>
        <time>2024-04-07T06:29:25Z</time>
      </trkpt>
      <trkpt lat="49.08114" lon="-0.27484">
        <ele>195.8</ele>
        <time>2024-04-07T06:29:26Z</time>
      </trkpt>
      <trkpt lat="49.08108" lon="-0.27484">
        <ele>195.6</ele>
        <time>2024-04-07T06:29:27Z</time>
      </trkpt>
      <trkpt lat="49.08103" lon="-0.27485">
        <ele>195.6</ele>
        <time>2024-04-07T06:29:28Z</time>
      </trkpt>
      <trkpt lat="49.08097" lon="-0.27485">
        <ele>195.8</ele>
        <time>2024-04-07T06:29:29Z</time>
      </trkpt>
      <trkpt lat="49.08092" lon="-0.27485">
        <ele>195.8</ele>
        <time>2024-04-07T06:29:30Z</time>
      </trkpt>
      <trkpt lat="49.08086" lon="-0.27485">
        <ele>196</ele>
        <time>2024-04-07T06:29:31Z</time>
      </trkpt>
      <trkpt lat="49.08081" lon="-0.27486">
        <ele>196</ele>
        <time>2024-04-07T06:29:32Z</time>
      </trkpt>
      <trkpt lat="49.08075" lon="-0.27486">
        <ele>196.2</ele>
        <time>2024-04-07T06:29:33Z</time>
      </trkpt>
      <trkpt lat="49.0807" lon="-0.27487">
        <ele>196.4</ele>
        <time>2024-04-07T06:29:34Z</time>
      </trkpt>
      <trkpt lat="49.08065" lon="-0.27487">
        <ele>196.4</ele>
        <time>2024-04-07T06:29:35Z</time>
      </trkpt>
      <trkpt lat="49.0806" lon="-0.27487">
        <ele>196.4</ele>
        <time>2024-04-07T06:29:36Z</time>
      </trkpt>
      <trkpt lat="49.08056" lon="-0.27488">
        <ele>196.2</ele>
        <time>2024-04-07T06:29:37Z</time>
      </trkpt>
      <trkpt lat="49.08051" lon="-0.27489">
        <ele>196</ele>
        <time>2024-04-07T06:29:38Z</time>
      </trkpt>
      <trkpt lat="49.08047" lon="-0.27489">
        <ele>195.6</ele>
        <time>2024-04-07T06:29:39Z</time>
      </trkpt>
      <trkpt lat="49.08043" lon="-0.27489">
        <ele>195.4</ele>
        <time>2024-04-07T06:29:40Z</time>
      </trkpt>
      <trkpt lat="49.08039" lon="-0.2749">
        <ele>195.4</ele>
        <time>2024-04-07T06:29:41Z</time>
      </trkpt>
      <trkpt lat="49.08036" lon="-0.27491">
        <ele>195.4</ele>
        <time>2024-04-07T06:29:42Z</time>
      </trkpt>
      <trkpt lat="49.08033" lon="-0.27493">
        <ele>195.6</ele>
        <time>2024-04-07T06:29:43Z</time>
      </trkpt>
      <trkpt lat="49.08031" lon="-0.27495">
        <ele>195.8</ele>
        <time>2024-04-07T06:29:44Z</time>
      </trkpt>
      <trkpt lat="49.0803" lon="-0.27499">
        <ele>195.8</ele>
        <time>2024-04-07T06:29:45Z</time>
      </trkpt>
      <trkpt lat="49.0803" lon="-0.27504">
        <ele>196.2</ele>
        <time>2024-04-07T06:29:46Z</time>
      </trkpt>
      <trkpt lat="49.0803" lon="-0.27508">
        <ele>196.4</ele>
        <time>2024-04-07T06:29:47Z</time>
      </trkpt>
      <trkpt lat="49.08031" lon="-0.27513">
        <ele>196.6</ele>
        <time>2024-04-07T06:29:48Z</time>
      </trkpt>
      <trkpt lat="49.08032" lon="-0.27519">
        <ele>196.8</ele>
        <time>2024-04-07T06:29:49Z</time>
      </trkpt>
      <trkpt lat="49.08033" lon="-0.27524">
        <ele>197.2</ele>
        <time>2024-04-07T06:29:50Z</time>
      </trkpt>
      <trkpt lat="49.08035" lon="-0.2753">
        <ele>197.6</ele>
        <time>2024-04-07T06:29:51Z</time>
      </trkpt>
      <trkpt lat="49.08036" lon="-0.27536">
        <ele>198</ele>
        <time>2024-04-07T06:29:52Z</time>
      </trkpt>
      <trkpt lat="49.08038" lon="-0.27542">
        <ele>198.4</ele>
        <time>2024-04-07T06:29:53Z</time>
      </trkpt>
      <trkpt lat="49.0804" lon="-0.27548">
        <ele>198.6</ele>
        <time>2024-04-07T06:29:54Z</time>
      </trkpt>
      <trkpt lat="49.08042" lon="-0.27554">
        <ele>198.6</ele>
        <time>2024-04-07T06:29:55Z</time>
      </trkpt>
      <trkpt lat="49.08044" lon="-0.2756">
        <ele>198.8</ele>
        <time>2024-04-07T06:29:56Z</time>
      </trkpt>
      <trkpt lat="49.08047" lon="-0.27566">
        <ele>198.6</ele>
        <time>2024-04-07T06:29:57Z</time>
      </trkpt>
      <trkpt lat="49.08049" lon="-0.27571">
        <ele>198.6</ele>
        <time>2024-04-07T06:29:58Z</time>
      </trkpt>
      <trkpt lat="49.08051" lon="-0.27578">
        <ele>198.6</ele>
        <time>2024-04-07T06:29:59Z</time>
      </trkpt>
      <trkpt lat="49.08053" lon="-0.27584">
        <ele>198.6</ele>
        <time>2024-04-07T06:30:00Z</time>
      </trkpt>
      <trkpt lat="49.08054" lon="-0.27591">
        <ele>198.6</ele>
        <time>2024-04-07T06:30:01Z</time>
      </trkpt>
      <trkpt lat="49.08055" lon="-0.27599">
        <ele>198.6</ele>
        <time>2024-04-07T06:30:02Z</time>
      </trkpt>
      <trkpt lat="49.08056" lon="-0.27607">
        <ele>198.6</ele>
        <time>2024-04-07T06:30:03Z</time>
      </trkpt>
      <trkpt lat="49.08057" lon="-0.27614">
        <ele>198.6</ele>
        <time>2024-04-07T06:30:04Z</time>
      </trkpt>
      <trkpt lat="49.08058" lon="-0.27622">
        <ele>198.8</ele>
        <time>2024-04-07T06:30:05Z</time>
      </trkpt>
      <trkpt lat="49.08059" lon="-0.2763">
        <ele>199</ele>
        <time>2024-04-07T06:30:06Z</time>
      </trkpt>
      <trkpt lat="49.0806" lon="-0.27637">
        <ele>199</ele>
        <time>2024-04-07T06:30:07Z</time>
      </trkpt>
      <trkpt lat="49.08061" lon="-0.27645">
        <ele>199</ele>
        <time>2024-04-07T06:30:08Z</time>
      </trkpt>
      <trkpt lat="49.08062" lon="-0.27653">
        <ele>199.2</ele>
        <time>2024-04-07T06:30:09Z</time>
      </trkpt>
      <trkpt lat="49.08063" lon="-0.2766">
        <ele>199.2</ele>
        <time>2024-04-07T06:30:10Z</time>
      </trkpt>
      <trkpt lat="49.08064" lon="-0.27668">
        <ele>199.4</ele>
        <time>2024-04-07T06:30:11Z</time>
      </trkpt>
      <trkpt lat="49.08065" lon="-0.27675">
        <ele>199.6</ele>
        <time>2024-04-07T06:30:12Z</time>
      </trkpt>
      <trkpt lat="49.08066" lon="-0.27683">
        <ele>199.6</ele>
        <time>2024-04-07T06:30:13Z</time>
      </trkpt>
      <trkpt lat="49.08067" lon="-0.27692">
        <ele>199.8</ele>
        <time>2024-04-07T06:30:14Z</time>
      </trkpt>
      <trkpt lat="49.08068" lon="-0.277">
        <ele>200</ele>
        <time>2024-04-07T06:30:15Z</time>
      </trkpt>
      <trkpt lat="49.08069" lon="-0.27708">
        <ele>200</ele>
        <time>2024-04-07T06:30:16Z</time>
      </trkpt>
      <trkpt lat="49.0807" lon="-0.27716">
        <ele>200.2</ele>
        <time>2024-04-07T06:30:17Z</time>
      </trkpt>
      <trkpt lat="49.08072" lon="-0.27725">
        <ele>200.2</ele>
        <time>2024-04-07T06:30:18Z</time>
      </trkpt>
      <trkpt lat="49.08073" lon="-0.27733">
        <ele>200.2</ele>
        <time>2024-04-07T06:30:19Z</time>
      </trkpt>
      <trkpt lat="49.08075" lon="-0.27742">
        <ele>200.2</ele>
        <time>2024-04-07T06:30:20Z</time>
      </trkpt>
      <trkpt lat="49.08076" lon="-0.27751">
        <ele>200.2</ele>
        <time>2024-04-07T06:30:21Z</time>
      </trkpt>
      <trkpt lat="49.08078" lon="-0.2776">
        <ele>200.2</ele>
        <time>2024-04-07T06:30:22Z</time>
      </trkpt>
      <trkpt lat="49.08079" lon="-0.27768">
        <ele>200.2</ele>
        <time>2024-04-07T06:30:23Z</time>
      </trkpt>
      <trkpt lat="49.08081" lon="-0.27777">
        <ele>200.4</ele>
        <time>2024-04-07T06:30:24Z</time>
      </trkpt>
      <trkpt lat="49.08083" lon="-0.27786">
        <ele>200.8</ele>
        <time>2024-04-07T06:30:25Z</time>
      </trkpt>
      <trkpt lat="49.08084" lon="-0.27795">
        <ele>201.2</ele>
        <time>2024-04-07T06:30:26Z</time>
      </trkpt>
      <trkpt lat="49.08086" lon="-0.27804">
        <ele>201.6</ele>
        <time>2024-04-07T06:30:27Z</time>
      </trkpt>
      <trkpt lat="49.08088" lon="-0.27814">
        <ele>201.8</ele>
        <time>2024-04-07T06:30:28Z</time>
      </trkpt>
      <trkpt lat="49.08089" lon="-0.27823">
        <ele>201.8</ele>
        <time>2024-04-07T06:30:29Z</time>
      </trkpt>
      <trkpt lat="49.08091" lon="-0.27832">
        <ele>201.8</ele>
        <time>2024-04-07T06:30:30Z</time>
      </trkpt>
      <trkpt lat="49.08092" lon="-0.27841">
        <ele>202</ele>
        <time>2024-04-07T06:30:31Z</time>
      </trkpt>
      <trkpt lat="49.08094" lon="-0.2785">
        <ele>201.8</ele>
        <time>2024-04-07T06:30:32Z</time>
      </trkpt>
      <trkpt lat="49.08096" lon="-0.27859">
        <ele>201.8</ele>
        <time>2024-04-07T06:30:33Z</time>
      </trkpt>
      <trkpt lat="49.08098" lon="-0.27868">
        <ele>201.8</ele>
        <time>2024-04-07T06:30:34Z</time>
      </trkpt>
      <trkpt lat="49.081" lon="-0.27877">
        <ele>201.8</ele>
        <time>2024-04-07T06:30:35Z</time>
      </trkpt>
      <trkpt lat="49.08102" lon="-0.27885">
        <ele>201.8</ele>
        <time>2024-04-07T06:30:36Z</time>
      </trkpt>
      <trkpt lat="49.08104" lon="-0.27893">
        <ele>202</ele>
        <time>2024-04-07T06:30:37Z</time>
      </trkpt>
      <trkpt lat="49.08107" lon="-0.27902">
        <ele>202</ele>
        <time>2024-04-07T06:30:38Z</time>
      </trkpt>
      <trkpt lat="49.08109" lon="-0.27911">
        <ele>202.2</ele>
        <time>2024-04-07T06:30:39Z</time>
      </trkpt>
      <trkpt lat="49.08111" lon="-0.27919">
        <ele>202.4</ele>
        <time>2024-04-07T06:30:40Z</time>
      </trkpt>
      <trkpt lat="49.08114" lon="-0.27928">
        <ele>202.8</ele>
        <time>2024-04-07T06:30:41Z</time>
      </trkpt>
      <trkpt lat="49.08117" lon="-0.27937">
        <ele>203</ele>
        <time>2024-04-07T06:30:42Z</time>
      </trkpt>
      <trkpt lat="49.0812" lon="-0.27946">
        <ele>203.2</ele>
        <time>2024-04-07T06:30:43Z</time>
      </trkpt>
      <trkpt lat="49.08123" lon="-0.27955">
        <ele>203.4</ele>
        <time>2024-04-07T06:30:44Z</time>
      </trkpt>
      <trkpt lat="49.08126" lon="-0.27963">
        <ele>203.6</ele>
        <time>2024-04-07T06:30:45Z</time>
      </trkpt>
      <trkpt lat="49.08129" lon="-0.27972">
        <ele>203.6</ele>
        <time>2024-04-07T06:30:46Z</time>
      </trkpt>
      <trkpt lat="49.08133" lon="-0.2798">
        <ele>203.8</ele>
        <time>2024-04-07T06:30:47Z</time>
      </trkpt>
      <trkpt lat="49.08136" lon="-0.27988">
        <ele>203.8</ele>
        <time>2024-04-07T06:30:48Z</time>
      </trkpt>
      <trkpt lat="49.0814" lon="-0.27997">
        <ele>203.8</ele>
        <time>2024-04-07T06:30:49Z</time>
      </trkpt>
      <trkpt lat="49.08143" lon="-0.28005">
        <ele>203.8</ele>
        <time>2024-04-07T06:30:50Z</time>
      </trkpt>
      <trkpt lat="49.08147" lon="-0.28013">
        <ele>203.8</ele>
        <time>2024-04-07T06:30:51Z</time>
      </trkpt>
      <trkpt lat="49.0815" lon="-0.28022">
        <ele>203.8</ele>
        <time>2024-04-07T06:30:52Z</time>
      </trkpt>
      <trkpt lat="49.08153" lon="-0.28031">
        <ele>203.8</ele>
        <time>2024-04-07T06:30:53Z</time>
      </trkpt>
      <trkpt lat="49.08157" lon="-0.28041">
        <ele>203.6</ele>
        <time>2024-04-07T06:30:54Z</time>
      </trkpt>
      <trkpt lat="49.08159" lon="-0.2805">
        <ele>203.6</ele>
        <time>2024-04-07T06:30:55Z</time>
      </trkpt>
      <trkpt lat="49.08161" lon="-0.28059">
        <ele>203.4</ele>
        <time>2024-04-07T06:30:56Z</time>
      </trkpt>
      <trkpt lat="49.08164" lon="-0.28069">
        <ele>203.2</ele>
        <time>2024-04-07T06:30:57Z</time>
      </trkpt>
      <trkpt lat="49.08167" lon="-0.28079">
        <ele>203</ele>
        <time>2024-04-07T06:30:58Z</time>
      </trkpt>
      <trkpt lat="49.0817" lon="-0.28089">
        <ele>202.8</ele>
        <time>2024-04-07T06:30:59Z</time>
      </trkpt>
      <trkpt lat="49.08173" lon="-0.281">
        <ele>202.6</ele>
        <time>2024-04-07T06:31:00Z</time>
      </trkpt>
      <trkpt lat="49.08176" lon="-0.2811">
        <ele>202.4</ele>
        <time>2024-04-07T06:31:01Z</time>
      </trkpt>
      <trkpt lat="49.0818" lon="-0.28121">
        <ele>202.2</ele>
        <time>2024-04-07T06:31:02Z</time>
      </trkpt>
      <trkpt lat="49.08183" lon="-0.28132">
        <ele>202.2</ele>
        <time>2024-04-07T06:31:03Z</time>
      </trkpt>
      <trkpt lat="49.08187" lon="-0.28142">
        <ele>202</ele>
        <time>2024-04-07T06:31:04Z</time>
      </trkpt>
      <trkpt lat="49.08191" lon="-0.28153">
        <ele>202</ele>
        <time>2024-04-07T06:31:05Z</time>
      </trkpt>
      <trkpt lat="49.08195" lon="-0.28163">
        <ele>201.8</ele>
        <time>2024-04-07T06:31:06Z</time>
      </trkpt>
      <trkpt lat="49.08199" lon="-0.28175">
        <ele>201.2</ele>
        <time>2024-04-07T06:31:07Z</time>
      </trkpt>
      <trkpt lat="49.08202" lon="-0.28186">
        <ele>200.8</ele>
        <time>2024-04-07T06:31:08Z</time>
      </trkpt>
      <trkpt lat="49.08203" lon="-0.28198">
        <ele>200.4</ele>
        <time>2024-04-07T06:31:09Z</time>
      </trkpt>
      <trkpt lat="49.08205" lon="-0.28209">
        <ele>200.2</ele>
        <time>2024-04-07T06:31:10Z</time>
      </trkpt>
      <trkpt lat="49.08205" lon="-0.28222">
        <ele>200.2</ele>
        <time>2024-04-07T06:31:11Z</time>
      </trkpt>
      <trkpt lat="49.08206" lon="-0.28234">
        <ele>200</ele>
        <time>2024-04-07T06:31:12Z</time>
      </trkpt>
      <trkpt lat="49.08207" lon="-0.28247">
        <ele>200</ele>
        <time>2024-04-07T06:31:13Z</time>
      </trkpt>
      <trkpt lat="49.08207" lon="-0.2826">
        <ele>199.8</ele>
        <time>2024-04-07T06:31:14Z</time>
      </trkpt>
      <trkpt lat="49.08208" lon="-0.28273">
        <ele>198.8</ele>
        <time>2024-04-07T06:31:15Z</time>
      </trkpt>
      <trkpt lat="49.08209" lon="-0.28286">
        <ele>197.8</ele>
        <time>2024-04-07T06:31:16Z</time>
      </trkpt>
      <trkpt lat="49.08209" lon="-0.28299">
        <ele>197.2</ele>
        <time>2024-04-07T06:31:17Z</time>
      </trkpt>
      <trkpt lat="49.08209" lon="-0.28312">
        <ele>196.8</ele>
        <time>2024-04-07T06:31:18Z</time>
      </trkpt>
      <trkpt lat="49.08209" lon="-0.28325">
        <ele>196.6</ele>
        <time>2024-04-07T06:31:19Z</time>
      </trkpt>
      <trkpt lat="49.08207" lon="-0.28338">
        <ele>196.4</ele>
        <time>2024-04-07T06:31:20Z</time>
      </trkpt>
      <trkpt lat="49.08205" lon="-0.2835">
        <ele>196</ele>
        <time>2024-04-07T06:31:21Z</time>
      </trkpt>
      <trkpt lat="49.08202" lon="-0.28362">
        <ele>195.8</ele>
        <time>2024-04-07T06:31:22Z</time>
      </trkpt>
      <trkpt lat="49.08199" lon="-0.28374">
        <ele>195.4</ele>
        <time>2024-04-07T06:31:23Z</time>
      </trkpt>
      <trkpt lat="49.08196" lon="-0.28385">
        <ele>195.2</ele>
        <time>2024-04-07T06:31:24Z</time>
      </trkpt>
      <trkpt lat="49.08193" lon="-0.28396">
        <ele>194.8</ele>
        <time>2024-04-07T06:31:25Z</time>
      </trkpt>
      <trkpt lat="49.0819" lon="-0.28407">
        <ele>194.6</ele>
        <time>2024-04-07T06:31:26Z</time>
      </trkpt>
      <trkpt lat="49.08187" lon="-0.28417">
        <ele>194.6</ele>
        <time>2024-04-07T06:31:27Z</time>
      </trkpt>
      <trkpt lat="49.08181" lon="-0.28438">
        <ele>194.6</ele>
        <time>2024-04-07T06:31:28Z</time>
      </trkpt>
      <trkpt lat="49.08179" lon="-0.28444">
        <ele>194.8</ele>
        <time>2024-04-07T06:31:29Z</time>
      </trkpt>
      <trkpt lat="49.08178" lon="-0.28449">
        <ele>195.6</ele>
        <time>2024-04-07T06:31:30Z</time>
      </trkpt>
      <trkpt lat="49.08175" lon="-0.28459">
        <ele>196.6</ele>
        <time>2024-04-07T06:31:31Z</time>
      </trkpt>
      <trkpt lat="49.08172" lon="-0.2847">
        <ele>197.2</ele>
        <time>2024-04-07T06:31:32Z</time>
      </trkpt>
      <trkpt lat="49.08168" lon="-0.2848">
        <ele>197.4</ele>
        <time>2024-04-07T06:31:33Z</time>
      </trkpt>
      <trkpt lat="49.08165" lon="-0.2849">
        <ele>197.6</ele>
        <time>2024-04-07T06:31:34Z</time>
      </trkpt>
      <trkpt lat="49.08162" lon="-0.285">
        <ele>197.4</ele>
        <time>2024-04-07T06:31:35Z</time>
      </trkpt>
      <trkpt lat="49.08158" lon="-0.2851">
        <ele>197</ele>
        <time>2024-04-07T06:31:36Z</time>
      </trkpt>
      <trkpt lat="49.08155" lon="-0.2852">
        <ele>196.8</ele>
        <time>2024-04-07T06:31:37Z</time>
      </trkpt>
      <trkpt lat="49.08152" lon="-0.2853">
        <ele>196.8</ele>
        <time>2024-04-07T06:31:38Z</time>
      </trkpt>
      <trkpt lat="49.08149" lon="-0.28541">
        <ele>196.6</ele>
        <time>2024-04-07T06:31:39Z</time>
      </trkpt>
      <trkpt lat="49.08145" lon="-0.28551">
        <ele>196.6</ele>
        <time>2024-04-07T06:31:40Z</time>
      </trkpt>
      <trkpt lat="49.08142" lon="-0.28561">
        <ele>196.8</ele>
        <time>2024-04-07T06:31:41Z</time>
      </trkpt>
      <trkpt lat="49.08139" lon="-0.28571">
        <ele>197.2</ele>
        <time>2024-04-07T06:31:42Z</time>
      </trkpt>
      <trkpt lat="49.08135" lon="-0.28581">
        <ele>197.4</ele>
        <time>2024-04-07T06:31:43Z</time>
      </trkpt>
      <trkpt lat="49.08132" lon="-0.28591">
        <ele>197.8</ele>
        <time>2024-04-07T06:31:44Z</time>
      </trkpt>
      <trkpt lat="49.08129" lon="-0.28601">
        <ele>198.2</ele>
        <time>2024-04-07T06:31:45Z</time>
      </trkpt>
      <trkpt lat="49.08126" lon="-0.28611">
        <ele>198.4</ele>
        <time>2024-04-07T06:31:46Z</time>
      </trkpt>
      <trkpt lat="49.08123" lon="-0.28621">
        <ele>198.6</ele>
        <time>2024-04-07T06:31:47Z</time>
      </trkpt>
      <trkpt lat="49.0812" lon="-0.2863">
        <ele>198.8</ele>
        <time>2024-04-07T06:31:48Z</time>
      </trkpt>
      <trkpt lat="49.08117" lon="-0.28639">
        <ele>198.8</ele>
        <time>2024-04-07T06:31:49Z</time>
      </trkpt>
      <trkpt lat="49.08115" lon="-0.28649">
        <ele>198.8</ele>
        <time>2024-04-07T06:31:50Z</time>
      </trkpt>
      <trkpt lat="49.08112" lon="-0.28658">
        <ele>198.8</ele>
        <time>2024-04-07T06:31:51Z</time>
      </trkpt>
      <trkpt lat="49.08109" lon="-0.28668">
        <ele>198.8</ele>
        <time>2024-04-07T06:31:52Z</time>
      </trkpt>
      <trkpt lat="49.08106" lon="-0.28677">
        <ele>198.8</ele>
        <time>2024-04-07T06:31:53Z</time>
      </trkpt>
      <trkpt lat="49.08103" lon="-0.28686">
        <ele>198.8</ele>
        <time>2024-04-07T06:31:54Z</time>
      </trkpt>
      <trkpt lat="49.081" lon="-0.28695">
        <ele>198.8</ele>
        <time>2024-04-07T06:31:55Z</time>
      </trkpt>
      <trkpt lat="49.08098" lon="-0.28704">
        <ele>199</ele>
        <time>2024-04-07T06:31:56Z</time>
      </trkpt>
      <trkpt lat="49.08095" lon="-0.28713">
        <ele>199.6</ele>
        <time>2024-04-07T06:31:57Z</time>
      </trkpt>
      <trkpt lat="49.08092" lon="-0.28722">
        <ele>200</ele>
        <time>2024-04-07T06:31:58Z</time>
      </trkpt>
      <trkpt lat="49.08089" lon="-0.28731">
        <ele>200.2</ele>
        <time>2024-04-07T06:31:59Z</time>
      </trkpt>
      <trkpt lat="49.08087" lon="-0.2874">
        <ele>200.4</ele>
        <time>2024-04-07T06:32:00Z</time>
      </trkpt>
      <trkpt lat="49.08084" lon="-0.28749">
        <ele>200.4</ele>
        <time>2024-04-07T06:32:01Z</time>
      </trkpt>
      <trkpt lat="49.08081" lon="-0.28758">
        <ele>200.6</ele>
        <time>2024-04-07T06:32:02Z</time>
      </trkpt>
      <trkpt lat="49.08079" lon="-0.28767">
        <ele>200.6</ele>
        <time>2024-04-07T06:32:03Z</time>
      </trkpt>
      <trkpt lat="49.08076" lon="-0.28776">
        <ele>200.8</ele>
        <time>2024-04-07T06:32:04Z</time>
      </trkpt>
      <trkpt lat="49.08073" lon="-0.28785">
        <ele>201.2</ele>
        <time>2024-04-07T06:32:05Z</time>
      </trkpt>
      <trkpt lat="49.08071" lon="-0.28793">
        <ele>201.4</ele>
        <time>2024-04-07T06:32:06Z</time>
      </trkpt>
      <trkpt lat="49.08068" lon="-0.28802">
        <ele>201.6</ele>
        <time>2024-04-07T06:32:07Z</time>
      </trkpt>
      <trkpt lat="49.08065" lon="-0.28811">
        <ele>201.8</ele>
        <time>2024-04-07T06:32:08Z</time>
      </trkpt>
      <trkpt lat="49.08063" lon="-0.2882">
        <ele>202</ele>
        <time>2024-04-07T06:32:09Z</time>
      </trkpt>
      <trkpt lat="49.0806" lon="-0.28829">
        <ele>202.2</ele>
        <time>2024-04-07T06:32:10Z</time>
      </trkpt>
      <trkpt lat="49.08057" lon="-0.28838">
        <ele>202.2</ele>
        <time>2024-04-07T06:32:11Z</time>
      </trkpt>
      <trkpt lat="49.08055" lon="-0.28847">
        <ele>202.4</ele>
        <time>2024-04-07T06:32:12Z</time>
      </trkpt>
      <trkpt lat="49.08052" lon="-0.28856">
        <ele>202.6</ele>
        <time>2024-04-07T06:32:13Z</time>
      </trkpt>
      <trkpt lat="49.0805" lon="-0.28865">
        <ele>202.8</ele>
        <time>2024-04-07T06:32:14Z</time>
      </trkpt>
      <trkpt lat="49.08047" lon="-0.28873">
        <ele>203</ele>
        <time>2024-04-07T06:32:15Z</time>
      </trkpt>
      <trkpt lat="49.08045" lon="-0.28882">
        <ele>203</ele>
        <time>2024-04-07T06:32:16Z</time>
      </trkpt>
      <trkpt lat="49.08042" lon="-0.28891">
        <ele>203</ele>
        <time>2024-04-07T06:32:17Z</time>
      </trkpt>
      <trkpt lat="49.08039" lon="-0.28899">
        <ele>203</ele>
        <time>2024-04-07T06:32:18Z</time>
      </trkpt>
      <trkpt lat="49.08037" lon="-0.28908">
        <ele>203.2</ele>
        <time>2024-04-07T06:32:19Z</time>
      </trkpt>
      <trkpt lat="49.08034" lon="-0.28917">
        <ele>203.2</ele>
        <time>2024-04-07T06:32:20Z</time>
      </trkpt>
      <trkpt lat="49.08031" lon="-0.28926">
        <ele>203.2</ele>
        <time>2024-04-07T06:32:21Z</time>
      </trkpt>
      <trkpt lat="49.08028" lon="-0.28934">
        <ele>203.6</ele>
        <time>2024-04-07T06:32:22Z</time>
      </trkpt>
      <trkpt lat="49.08024" lon="-0.28943">
        <ele>203.8</ele>
        <time>2024-04-07T06:32:23Z</time>
      </trkpt>
      <trkpt lat="49.08021" lon="-0.28951">
        <ele>204</ele>
        <time>2024-04-07T06:32:24Z</time>
      </trkpt>
      <trkpt lat="49.08017" lon="-0.28959">
        <ele>204</ele>
        <time>2024-04-07T06:32:25Z</time>
      </trkpt>
      <trkpt lat="49.08013" lon="-0.28966">
        <ele>204.2</ele>
        <time>2024-04-07T06:32:26Z</time>
      </trkpt>
      <trkpt lat="49.08009" lon="-0.28974">
        <ele>204.2</ele>
        <time>2024-04-07T06:32:27Z</time>
      </trkpt>
      <trkpt lat="49.08005" lon="-0.28981">
        <ele>204</ele>
        <time>2024-04-07T06:32:28Z</time>
      </trkpt>
      <trkpt lat="49.08001" lon="-0.28988">
        <ele>203.8</ele>
        <time>2024-04-07T06:32:29Z</time>
      </trkpt>
      <trkpt lat="49.07996" lon="-0.28994">
        <ele>203.8</ele>
        <time>2024-04-07T06:32:30Z</time>
      </trkpt>
      <trkpt lat="49.07992" lon="-0.29001">
        <ele>203.8</ele>
        <time>2024-04-07T06:32:31Z</time>
      </trkpt>
      <trkpt lat="49.07988" lon="-0.29008">
        <ele>203.8</ele>
        <time>2024-04-07T06:32:32Z</time>
      </trkpt>
      <trkpt lat="49.07984" lon="-0.29015">
        <ele>203.8</ele>
        <time>2024-04-07T06:32:33Z</time>
      </trkpt>
      <trkpt lat="49.0798" lon="-0.29021">
        <ele>204</ele>
        <time>2024-04-07T06:32:34Z</time>
      </trkpt>
      <trkpt lat="49.07976" lon="-0.29028">
        <ele>204.2</ele>
        <time>2024-04-07T06:32:35Z</time>
      </trkpt>
      <trkpt lat="49.07972" lon="-0.29034">
        <ele>204.4</ele>
        <time>2024-04-07T06:32:36Z</time>
      </trkpt>
      <trkpt lat="49.07968" lon="-0.29041">
        <ele>204.6</ele>
        <time>2024-04-07T06:32:37Z</time>
      </trkpt>
      <trkpt lat="49.07963" lon="-0.29047">
        <ele>204.6</ele>
        <time>2024-04-07T06:32:38Z</time>
      </trkpt>
      <trkpt lat="49.07959" lon="-0.29054">
        <ele>204.6</ele>
        <time>2024-04-07T06:32:39Z</time>
      </trkpt>
      <trkpt lat="49.07954" lon="-0.2906">
        <ele>204.6</ele>
        <time>2024-04-07T06:32:40Z</time>
      </trkpt>
      <trkpt lat="49.0795" lon="-0.29068">
        <ele>204.2</ele>
        <time>2024-04-07T06:32:41Z</time>
      </trkpt>
      <trkpt lat="49.07945" lon="-0.29075">
        <ele>203.8</ele>
        <time>2024-04-07T06:32:42Z</time>
      </trkpt>
      <trkpt lat="49.0794" lon="-0.29083">
        <ele>203.6</ele>
        <time>2024-04-07T06:32:43Z</time>
      </trkpt>
      <trkpt lat="49.07936" lon="-0.2909">
        <ele>203.4</ele>
        <time>2024-04-07T06:32:44Z</time>
      </trkpt>
      <trkpt lat="49.07931" lon="-0.29097">
        <ele>203.4</ele>
        <time>2024-04-07T06:32:45Z</time>
      </trkpt>
      <trkpt lat="49.07927" lon="-0.29105">
        <ele>203.2</ele>
        <time>2024-04-07T06:32:46Z</time>
      </trkpt>
      <trkpt lat="49.07922" lon="-0.29112">
        <ele>203.2</ele>
        <time>2024-04-07T06:32:47Z</time>
      </trkpt>
      <trkpt lat="49.07918" lon="-0.29119">
        <ele>203.2</ele>
        <time>2024-04-07T06:32:48Z</time>
      </trkpt>
      <trkpt lat="49.07914" lon="-0.29126">
        <ele>203.2</ele>
        <time>2024-04-07T06:32:49Z</time>
      </trkpt>
      <trkpt lat="49.0791" lon="-0.29134">
        <ele>203.2</ele>
        <time>2024-04-07T06:32:50Z</time>
      </trkpt>
      <trkpt lat="49.07906" lon="-0.29141">
        <ele>203.8</ele>
        <time>2024-04-07T06:32:51Z</time>
      </trkpt>
      <trkpt lat="49.07901" lon="-0.29148">
        <ele>204.4</ele>
        <time>2024-04-07T06:32:52Z</time>
      </trkpt>
      <trkpt lat="49.07897" lon="-0.29155">
        <ele>204.6</ele>
        <time>2024-04-07T06:32:53Z</time>
      </trkpt>
      <trkpt lat="49.07893" lon="-0.29162">
        <ele>205</ele>
        <time>2024-04-07T06:32:54Z</time>
      </trkpt>
      <trkpt lat="49.07889" lon="-0.2917">
        <ele>205</ele>
        <time>2024-04-07T06:32:55Z</time>
      </trkpt>
      <trkpt lat="49.07885" lon="-0.29177">
        <ele>205.2</ele>
        <time>2024-04-07T06:32:56Z</time>
      </trkpt>
      <trkpt lat="49.07881" lon="-0.29184">
        <ele>205.4</ele>
        <time>2024-04-07T06:32:57Z</time>
      </trkpt>
      <trkpt lat="49.07877" lon="-0.29191">
        <ele>205.4</ele>
        <time>2024-04-07T06:32:58Z</time>
      </trkpt>
      <trkpt lat="49.07873" lon="-0.29199">
        <ele>205.4</ele>
        <time>2024-04-07T06:32:59Z</time>
      </trkpt>
      <trkpt lat="49.07869" lon="-0.29206">
        <ele>205.6</ele>
        <time>2024-04-07T06:33:00Z</time>
      </trkpt>
      <trkpt lat="49.07865" lon="-0.29213">
        <ele>205.6</ele>
        <time>2024-04-07T06:33:01Z</time>
      </trkpt>
      <trkpt lat="49.07861" lon="-0.29221">
        <ele>205.6</ele>
        <time>2024-04-07T06:33:02Z</time>
      </trkpt>
      <trkpt lat="49.07857" lon="-0.29228">
        <ele>205.8</ele>
        <time>2024-04-07T06:33:03Z</time>
      </trkpt>
      <trkpt lat="49.07853" lon="-0.29235">
        <ele>206</ele>
        <time>2024-04-07T06:33:04Z</time>
      </trkpt>
      <trkpt lat="49.07849" lon="-0.29242">
        <ele>206.2</ele>
        <time>2024-04-07T06:33:05Z</time>
      </trkpt>
      <trkpt lat="49.07845" lon="-0.2925">
        <ele>206.6</ele>
        <time>2024-04-07T06:33:06Z</time>
      </trkpt>
      <trkpt lat="49.07841" lon="-0.29257">
        <ele>206.6</ele>
        <time>2024-04-07T06:33:07Z</time>
      </trkpt>
      <trkpt lat="49.07837" lon="-0.29265">
        <ele>206.8</ele>
        <time>2024-04-07T06:33:08Z</time>
      </trkpt>
      <trkpt lat="49.07833" lon="-0.29272">
        <ele>206.8</ele>
        <time>2024-04-07T06:33:09Z</time>
      </trkpt>
      <trkpt lat="49.07829" lon="-0.2928">
        <ele>206.8</ele>
        <time>2024-04-07T06:33:10Z</time>
      </trkpt>
      <trkpt lat="49.07824" lon="-0.29287">
        <ele>206.6</ele>
        <time>2024-04-07T06:33:11Z</time>
      </trkpt>
      <trkpt lat="49.0782" lon="-0.29295">
        <ele>206.6</ele>
        <time>2024-04-07T06:33:12Z</time>
      </trkpt>
      <trkpt lat="49.07816" lon="-0.29303">
        <ele>206.4</ele>
        <time>2024-04-07T06:33:13Z</time>
      </trkpt>
      <trkpt lat="49.07812" lon="-0.2931">
        <ele>206.2</ele>
        <time>2024-04-07T06:33:14Z</time>
      </trkpt>
      <trkpt lat="49.07808" lon="-0.29318">
        <ele>206</ele>
        <time>2024-04-07T06:33:15Z</time>
      </trkpt>
      <trkpt lat="49.07804" lon="-0.29325">
        <ele>206</ele>
        <time>2024-04-07T06:33:16Z</time>
      </trkpt>
      <trkpt lat="49.078" lon="-0.29333">
        <ele>206.2</ele>
        <time>2024-04-07T06:33:17Z</time>
      </trkpt>
      <trkpt lat="49.07796" lon="-0.2934">
        <ele>206.2</ele>
        <time>2024-04-07T06:33:18Z</time>
      </trkpt>
      <trkpt lat="49.07792" lon="-0.29347">
        <ele>206.2</ele>
        <time>2024-04-07T06:33:19Z</time>
      </trkpt>
      <trkpt lat="49.07788" lon="-0.29355">
        <ele>206.4</ele>
        <time>2024-04-07T06:33:20Z</time>
      </trkpt>
      <trkpt lat="49.07783" lon="-0.29362">
        <ele>206.8</ele>
        <time>2024-04-07T06:33:21Z</time>
      </trkpt>
      <trkpt lat="49.07779" lon="-0.29369">
        <ele>207.2</ele>
        <time>2024-04-07T06:33:22Z</time>
      </trkpt>
      <trkpt lat="49.07775" lon="-0.29376">
        <ele>207.2</ele>
        <time>2024-04-07T06:33:23Z</time>
      </trkpt>
      <trkpt lat="49.07771" lon="-0.29384">
        <ele>207.2</ele>
        <time>2024-04-07T06:33:24Z</time>
      </trkpt>
      <trkpt lat="49.07767" lon="-0.29391">
        <ele>207.2</ele>
        <time>2024-04-07T06:33:25Z</time>
      </trkpt>
      <trkpt lat="49.07762" lon="-0.29398">
        <ele>207.4</ele>
        <time>2024-04-07T06:33:26Z</time>
      </trkpt>
      <trkpt lat="49.07758" lon="-0.29405">
        <ele>207.4</ele>
        <time>2024-04-07T06:33:27Z</time>
      </trkpt>
      <trkpt lat="49.07754" lon="-0.29412">
        <ele>207.4</ele>
        <time>2024-04-07T06:33:28Z</time>
      </trkpt>
      <trkpt lat="49.07749" lon="-0.29419">
        <ele>207.4</ele>
        <time>2024-04-07T06:33:29Z</time>
      </trkpt>
      <trkpt lat="49.07744" lon="-0.29426">
        <ele>207.4</ele>
        <time>2024-04-07T06:33:30Z</time>
      </trkpt>
      <trkpt lat="49.07739" lon="-0.29433">
        <ele>207.4</ele>
        <time>2024-04-07T06:33:31Z</time>
      </trkpt>
      <trkpt lat="49.07734" lon="-0.29439">
        <ele>207.4</ele>
        <time>2024-04-07T06:33:32Z</time>
      </trkpt>
      <trkpt lat="49.07729" lon="-0.29446">
        <ele>207.4</ele>
        <time>2024-04-07T06:33:33Z</time>
      </trkpt>
      <trkpt lat="49.07724" lon="-0.29452">
        <ele>207.4</ele>
        <time>2024-04-07T06:33:34Z</time>
      </trkpt>
      <trkpt lat="49.07719" lon="-0.29459">
        <ele>207.8</ele>
        <time>2024-04-07T06:33:35Z</time>
      </trkpt>
      <trkpt lat="49.07714" lon="-0.29465">
        <ele>208.4</ele>
        <time>2024-04-07T06:33:36Z</time>
      </trkpt>
      <trkpt lat="49.07708" lon="-0.29471">
        <ele>209</ele>
        <time>2024-04-07T06:33:37Z</time>
      </trkpt>
      <trkpt lat="49.07703" lon="-0.29477">
        <ele>209.2</ele>
        <time>2024-04-07T06:33:38Z</time>
      </trkpt>
      <trkpt lat="49.07692" lon="-0.29489">
        <ele>209.6</ele>
        <time>2024-04-07T06:33:39Z</time>
      </trkpt>
      <trkpt lat="49.07689" lon="-0.29493">
        <ele>209.8</ele>
        <time>2024-04-07T06:33:40Z</time>
      </trkpt>
      <trkpt lat="49.07686" lon="-0.29496">
        <ele>209.8</ele>
        <time>2024-04-07T06:33:41Z</time>
      </trkpt>
      <trkpt lat="49.0768" lon="-0.29502">
        <ele>209.6</ele>
        <time>2024-04-07T06:33:42Z</time>
      </trkpt>
      <trkpt lat="49.07675" lon="-0.29508">
        <ele>209.6</ele>
        <time>2024-04-07T06:33:43Z</time>
      </trkpt>
      <trkpt lat="49.07669" lon="-0.29514">
        <ele>209.6</ele>
        <time>2024-04-07T06:33:44Z</time>
      </trkpt>
      <trkpt lat="49.07663" lon="-0.2952">
        <ele>209.6</ele>
        <time>2024-04-07T06:33:45Z</time>
      </trkpt>
      <trkpt lat="49.07658" lon="-0.29525">
        <ele>209.6</ele>
        <time>2024-04-07T06:33:46Z</time>
      </trkpt>
      <trkpt lat="49.07652" lon="-0.29531">
        <ele>209.6</ele>
        <time>2024-04-07T06:33:47Z</time>
      </trkpt>
      <trkpt lat="49.07646" lon="-0.29537">
        <ele>209.6</ele>
        <time>2024-04-07T06:33:48Z</time>
      </trkpt>
      <trkpt lat="49.0764" lon="-0.29543">
        <ele>209.6</ele>
        <time>2024-04-07T06:33:49Z</time>
      </trkpt>
      <trkpt lat="49.07634" lon="-0.29549">
        <ele>209.6</ele>
        <time>2024-04-07T06:33:50Z</time>
      </trkpt>
      <trkpt lat="49.07628" lon="-0.29555">
        <ele>209.8</ele>
        <time>2024-04-07T06:33:51Z</time>
      </trkpt>
      <trkpt lat="49.07623" lon="-0.2956">
        <ele>209.6</ele>
        <time>2024-04-07T06:33:52Z</time>
      </trkpt>
      <trkpt lat="49.07617" lon="-0.29566">
        <ele>209.6</ele>
        <time>2024-04-07T06:33:53Z</time>
      </trkpt>
      <trkpt lat="49.07611" lon="-0.29572">
        <ele>209.6</ele>
        <time>2024-04-07T06:33:54Z</time>
      </trkpt>
      <trkpt lat="49.07605" lon="-0.29578">
        <ele>209.4</ele>
        <time>2024-04-07T06:33:55Z</time>
      </trkpt>
      <trkpt lat="49.07599" lon="-0.29584">
        <ele>208.8</ele>
        <time>2024-04-07T06:33:56Z</time>
      </trkpt>
      <trkpt lat="49.07593" lon="-0.2959">
        <ele>208.4</ele>
        <time>2024-04-07T06:33:57Z</time>
      </trkpt>
      <trkpt lat="49.07588" lon="-0.29595">
        <ele>207.8</ele>
        <time>2024-04-07T06:33:58Z</time>
      </trkpt>
      <trkpt lat="49.07582" lon="-0.29601">
        <ele>207.6</ele>
        <time>2024-04-07T06:33:59Z</time>
      </trkpt>
      <trkpt lat="49.07576" lon="-0.29607">
        <ele>207.6</ele>
        <time>2024-04-07T06:34:00Z</time>
      </trkpt>
      <trkpt lat="49.0757" lon="-0.29613">
        <ele>207.4</ele>
        <time>2024-04-07T06:34:01Z</time>
      </trkpt>
      <trkpt lat="49.07565" lon="-0.29618">
        <ele>207.4</ele>
        <time>2024-04-07T06:34:02Z</time>
      </trkpt>
      <trkpt lat="49.07559" lon="-0.29624">
        <ele>207.4</ele>
        <time>2024-04-07T06:34:03Z</time>
      </trkpt>
      <trkpt lat="49.07553" lon="-0.29629">
        <ele>207.6</ele>
        <time>2024-04-07T06:34:04Z</time>
      </trkpt>
      <trkpt lat="49.07547" lon="-0.29634">
        <ele>207.8</ele>
        <time>2024-04-07T06:34:05Z</time>
      </trkpt>
      <trkpt lat="49.07541" lon="-0.29638">
        <ele>207.8</ele>
        <time>2024-04-07T06:34:06Z</time>
      </trkpt>
      <trkpt lat="49.07535" lon="-0.29641">
        <ele>207.8</ele>
        <time>2024-04-07T06:34:07Z</time>
      </trkpt>
      <trkpt lat="49.07529" lon="-0.29643">
        <ele>208</ele>
        <time>2024-04-07T06:34:08Z</time>
      </trkpt>
      <trkpt lat="49.07522" lon="-0.29643">
        <ele>208.2</ele>
        <time>2024-04-07T06:34:09Z</time>
      </trkpt>
      <trkpt lat="49.07515" lon="-0.29643">
        <ele>208.2</ele>
        <time>2024-04-07T06:34:10Z</time>
      </trkpt>
      <trkpt lat="49.07509" lon="-0.29642">
        <ele>208.2</ele>
        <time>2024-04-07T06:34:11Z</time>
      </trkpt>
      <trkpt lat="49.07502" lon="-0.2964">
        <ele>208.2</ele>
        <time>2024-04-07T06:34:12Z</time>
      </trkpt>
      <trkpt lat="49.07495" lon="-0.29638">
        <ele>207.8</ele>
        <time>2024-04-07T06:34:13Z</time>
      </trkpt>
      <trkpt lat="49.07489" lon="-0.29635">
        <ele>207.6</ele>
        <time>2024-04-07T06:34:14Z</time>
      </trkpt>
      <trkpt lat="49.07482" lon="-0.29633">
        <ele>207.4</ele>
        <time>2024-04-07T06:34:15Z</time>
      </trkpt>
      <trkpt lat="49.07476" lon="-0.29632">
        <ele>207.4</ele>
        <time>2024-04-07T06:34:16Z</time>
      </trkpt>
      <trkpt lat="49.07469" lon="-0.29631">
        <ele>207.6</ele>
        <time>2024-04-07T06:34:17Z</time>
      </trkpt>
      <trkpt lat="49.07462" lon="-0.29631">
        <ele>208</ele>
        <time>2024-04-07T06:34:18Z</time>
      </trkpt>
      <trkpt lat="49.07456" lon="-0.29631">
        <ele>208.2</ele>
        <time>2024-04-07T06:34:19Z</time>
      </trkpt>
      <trkpt lat="49.0745" lon="-0.29632">
        <ele>208.2</ele>
        <time>2024-04-07T06:34:20Z</time>
      </trkpt>
      <trkpt lat="49.07444" lon="-0.29633">
        <ele>208.4</ele>
        <time>2024-04-07T06:34:21Z</time>
      </trkpt>
      <trkpt lat="49.07439" lon="-0.29634">
        <ele>208.6</ele>
        <time>2024-04-07T06:34:22Z</time>
      </trkpt>
      <trkpt lat="49.07434" lon="-0.29635">
        <ele>209</ele>
        <time>2024-04-07T06:34:23Z</time>
      </trkpt>
      <trkpt lat="49.0743" lon="-0.29635">
        <ele>209.4</ele>
        <time>2024-04-07T06:34:24Z</time>
      </trkpt>
      <trkpt lat="49.07427" lon="-0.29633">
        <ele>209.6</ele>
        <time>2024-04-07T06:34:25Z</time>
      </trkpt>
      <trkpt lat="49.07423" lon="-0.29629">
        <ele>209.8</ele>
        <time>2024-04-07T06:34:26Z</time>
      </trkpt>
      <trkpt lat="49.0742" lon="-0.29624">
        <ele>209.8</ele>
        <time>2024-04-07T06:34:27Z</time>
      </trkpt>
      <trkpt lat="49.07418" lon="-0.29617">
        <ele>209.8</ele>
        <time>2024-04-07T06:34:28Z</time>
      </trkpt>
      <trkpt lat="49.07416" lon="-0.2961">
        <ele>209.8</ele>
        <time>2024-04-07T06:34:29Z</time>
      </trkpt>
      <trkpt lat="49.07413" lon="-0.29603">
        <ele>209.6</ele>
        <time>2024-04-07T06:34:30Z</time>
      </trkpt>
      <trkpt lat="49.07411" lon="-0.29596">
        <ele>209.6</ele>
        <time>2024-04-07T06:34:31Z</time>
      </trkpt>
      <trkpt lat="49.07408" lon="-0.29589">
        <ele>209.4</ele>
        <time>2024-04-07T06:34:32Z</time>
      </trkpt>
      <trkpt lat="49.07404" lon="-0.29582">
        <ele>209.4</ele>
        <time>2024-04-07T06:34:33Z</time>
      </trkpt>
      <trkpt lat="49.074" lon="-0.29575">
        <ele>209.2</ele>
        <time>2024-04-07T06:34:34Z</time>
      </trkpt>
      <trkpt lat="49.07396" lon="-0.29569">
        <ele>209.2</ele>
        <time>2024-04-07T06:34:35Z</time>
      </trkpt>
      <trkpt lat="49.07392" lon="-0.29563">
        <ele>209</ele>
        <time>2024-04-07T06:34:36Z</time>
      </trkpt>
      <trkpt lat="49.07388" lon="-0.29558">
        <ele>209</ele>
        <time>2024-04-07T06:34:37Z</time>
      </trkpt>
      <trkpt lat="49.07383" lon="-0.29552">
        <ele>208.8</ele>
        <time>2024-04-07T06:34:38Z</time>
      </trkpt>
      <trkpt lat="49.07377" lon="-0.29547">
        <ele>208.8</ele>
        <time>2024-04-07T06:34:39Z</time>
      </trkpt>
      <trkpt lat="49.07371" lon="-0.29542">
        <ele>208.8</ele>
        <time>2024-04-07T06:34:40Z</time>
      </trkpt>
      <trkpt lat="49.07365" lon="-0.29538">
        <ele>208.8</ele>
        <time>2024-04-07T06:34:41Z</time>
      </trkpt>
      <trkpt lat="49.07359" lon="-0.29534">
        <ele>208.8</ele>
        <time>2024-04-07T06:34:42Z</time>
      </trkpt>
      <trkpt lat="49.07353" lon="-0.29531">
        <ele>208.8</ele>
        <time>2024-04-07T06:34:43Z</time>
      </trkpt>
      <trkpt lat="49.07346" lon="-0.29529">
        <ele>208.8</ele>
        <time>2024-04-07T06:34:44Z</time>
      </trkpt>
      <trkpt lat="49.0734" lon="-0.29526">
        <ele>208.8</ele>
        <time>2024-04-07T06:34:45Z</time>
      </trkpt>
      <trkpt lat="49.07333" lon="-0.29524">
        <ele>208.8</ele>
        <time>2024-04-07T06:34:46Z</time>
      </trkpt>
      <trkpt lat="49.07327" lon="-0.29523">
        <ele>208.8</ele>
        <time>2024-04-07T06:34:47Z</time>
      </trkpt>
      <trkpt lat="49.07321" lon="-0.29523">
        <ele>208.8</ele>
        <time>2024-04-07T06:34:48Z</time>
      </trkpt>
      <trkpt lat="49.07314" lon="-0.29524">
        <ele>209</ele>
        <time>2024-04-07T06:34:49Z</time>
      </trkpt>
      <trkpt lat="49.07308" lon="-0.29526">
        <ele>209</ele>
        <time>2024-04-07T06:34:50Z</time>
      </trkpt>
      <trkpt lat="49.07302" lon="-0.29528">
        <ele>209</ele>
        <time>2024-04-07T06:34:51Z</time>
      </trkpt>
      <trkpt lat="49.07296" lon="-0.2953">
        <ele>209.2</ele>
        <time>2024-04-07T06:34:52Z</time>
      </trkpt>
      <trkpt lat="49.0729" lon="-0.29532">
        <ele>209.4</ele>
        <time>2024-04-07T06:34:53Z</time>
      </trkpt>
      <trkpt lat="49.07285" lon="-0.29535">
        <ele>209.4</ele>
        <time>2024-04-07T06:34:54Z</time>
      </trkpt>
      <trkpt lat="49.07279" lon="-0.29538">
        <ele>209.6</ele>
        <time>2024-04-07T06:34:55Z</time>
      </trkpt>
      <trkpt lat="49.07274" lon="-0.29541">
        <ele>210.2</ele>
        <time>2024-04-07T06:34:56Z</time>
      </trkpt>
      <trkpt lat="49.07269" lon="-0.29545">
        <ele>211</ele>
        <time>2024-04-07T06:34:57Z</time>
      </trkpt>
      <trkpt lat="49.07264" lon="-0.2955">
        <ele>211.4</ele>
        <time>2024-04-07T06:34:58Z</time>
      </trkpt>
      <trkpt lat="49.07259" lon="-0.29555">
        <ele>211.8</ele>
        <time>2024-04-07T06:34:59Z</time>
      </trkpt>
      <trkpt lat="49.07255" lon="-0.2956">
        <ele>212.2</ele>
        <time>2024-04-07T06:35:00Z</time>
      </trkpt>
      <trkpt lat="49.0725" lon="-0.29565">
        <ele>212.6</ele>
        <time>2024-04-07T06:35:01Z</time>
      </trkpt>
      <trkpt lat="49.07246" lon="-0.29571">
        <ele>213</ele>
        <time>2024-04-07T06:35:02Z</time>
      </trkpt>
      <trkpt lat="49.07242" lon="-0.29577">
        <ele>213.2</ele>
        <time>2024-04-07T06:35:03Z</time>
      </trkpt>
      <trkpt lat="49.07239" lon="-0.29584">
        <ele>213.6</ele>
        <time>2024-04-07T06:35:04Z</time>
      </trkpt>
      <trkpt lat="49.07236" lon="-0.29591">
        <ele>213.8</ele>
        <time>2024-04-07T06:35:05Z</time>
      </trkpt>
      <trkpt lat="49.07232" lon="-0.29598">
        <ele>214</ele>
        <time>2024-04-07T06:35:06Z</time>
      </trkpt>
      <trkpt lat="49.07229" lon="-0.29605">
        <ele>214.2</ele>
        <time>2024-04-07T06:35:07Z</time>
      </trkpt>
      <trkpt lat="49.07227" lon="-0.29613">
        <ele>214.6</ele>
        <time>2024-04-07T06:35:08Z</time>
      </trkpt>
      <trkpt lat="49.07224" lon="-0.29621">
        <ele>215</ele>
        <time>2024-04-07T06:35:09Z</time>
      </trkpt>
      <trkpt lat="49.07222" lon="-0.29629">
        <ele>215.2</ele>
        <time>2024-04-07T06:35:10Z</time>
      </trkpt>
      <trkpt lat="49.0722" lon="-0.29637">
        <ele>215.2</ele>
        <time>2024-04-07T06:35:11Z</time>
      </trkpt>
      <trkpt lat="49.07217" lon="-0.29645">
        <ele>215.4</ele>
        <time>2024-04-07T06:35:12Z</time>
      </trkpt>
      <trkpt lat="49.07216" lon="-0.29653">
        <ele>215.4</ele>
        <time>2024-04-07T06:35:13Z</time>
      </trkpt>
      <trkpt lat="49.07214" lon="-0.29662">
        <ele>215.4</ele>
        <time>2024-04-07T06:35:14Z</time>
      </trkpt>
      <trkpt lat="49.07212" lon="-0.29671">
        <ele>215.4</ele>
        <time>2024-04-07T06:35:15Z</time>
      </trkpt>
      <trkpt lat="49.07209" lon="-0.29679">
        <ele>215.4</ele>
        <time>2024-04-07T06:35:16Z</time>
      </trkpt>
      <trkpt lat="49.07207" lon="-0.29689">
        <ele>215.2</ele>
        <time>2024-04-07T06:35:17Z</time>
      </trkpt>
      <trkpt lat="49.07205" lon="-0.29698">
        <ele>215.2</ele>
        <time>2024-04-07T06:35:18Z</time>
      </trkpt>
      <trkpt lat="49.07203" lon="-0.29708">
        <ele>215.2</ele>
        <time>2024-04-07T06:35:19Z</time>
      </trkpt>
      <trkpt lat="49.072" lon="-0.29718">
        <ele>215.2</ele>
        <time>2024-04-07T06:35:20Z</time>
      </trkpt>
      <trkpt lat="49.07198" lon="-0.29728">
        <ele>215</ele>
        <time>2024-04-07T06:35:21Z</time>
      </trkpt>
      <trkpt lat="49.07195" lon="-0.29739">
        <ele>214.8</ele>
        <time>2024-04-07T06:35:22Z</time>
      </trkpt>
      <trkpt lat="49.07193" lon="-0.29751">
        <ele>214.8</ele>
        <time>2024-04-07T06:35:23Z</time>
      </trkpt>
      <trkpt lat="49.07191" lon="-0.29763">
        <ele>214.6</ele>
        <time>2024-04-07T06:35:24Z</time>
      </trkpt>
      <trkpt lat="49.07189" lon="-0.29776">
        <ele>214</ele>
        <time>2024-04-07T06:35:25Z</time>
      </trkpt>
      <trkpt lat="49.07187" lon="-0.29789">
        <ele>213.4</ele>
        <time>2024-04-07T06:35:26Z</time>
      </trkpt>
      <trkpt lat="49.07185" lon="-0.29802">
        <ele>212.8</ele>
        <time>2024-04-07T06:35:27Z</time>
      </trkpt>
      <trkpt lat="49.07183" lon="-0.29815">
        <ele>211.6</ele>
        <time>2024-04-07T06:35:28Z</time>
      </trkpt>
      <trkpt lat="49.07181" lon="-0.29829">
        <ele>210.2</ele>
        <time>2024-04-07T06:35:29Z</time>
      </trkpt>
      <trkpt lat="49.07179" lon="-0.29842">
        <ele>208.8</ele>
        <time>2024-04-07T06:35:30Z</time>
      </trkpt>
      <trkpt lat="49.07176" lon="-0.29856">
        <ele>208</ele>
        <time>2024-04-07T06:35:31Z</time>
      </trkpt>
      <trkpt lat="49.07174" lon="-0.29869">
        <ele>207.2</ele>
        <time>2024-04-07T06:35:32Z</time>
      </trkpt>
      <trkpt lat="49.07172" lon="-0.29882">
        <ele>206.2</ele>
        <time>2024-04-07T06:35:33Z</time>
      </trkpt>
      <trkpt lat="49.0717" lon="-0.29896">
        <ele>205.2</ele>
        <time>2024-04-07T06:35:34Z</time>
      </trkpt>
      <trkpt lat="49.07168" lon="-0.29909">
        <ele>204.6</ele>
        <time>2024-04-07T06:35:35Z</time>
      </trkpt>
      <trkpt lat="49.07166" lon="-0.29921">
        <ele>204.2</ele>
        <time>2024-04-07T06:35:36Z</time>
      </trkpt>
      <trkpt lat="49.07164" lon="-0.29934">
        <ele>204</ele>
        <time>2024-04-07T06:35:37Z</time>
      </trkpt>
      <trkpt lat="49.07162" lon="-0.29946">
        <ele>203.6</ele>
        <time>2024-04-07T06:35:38Z</time>
      </trkpt>
      <trkpt lat="49.0716" lon="-0.29958">
        <ele>203.4</ele>
        <time>2024-04-07T06:35:39Z</time>
      </trkpt>
      <trkpt lat="49.07157" lon="-0.2997">
        <ele>203.4</ele>
        <time>2024-04-07T06:35:40Z</time>
      </trkpt>
      <trkpt lat="49.07154" lon="-0.29981">
        <ele>203.4</ele>
        <time>2024-04-07T06:35:41Z</time>
      </trkpt>
      <trkpt lat="49.07151" lon="-0.29992">
        <ele>203</ele>
        <time>2024-04-07T06:35:42Z</time>
      </trkpt>
      <trkpt lat="49.07148" lon="-0.30003">
        <ele>202.6</ele>
        <time>2024-04-07T06:35:43Z</time>
      </trkpt>
      <trkpt lat="49.07144" lon="-0.30013">
        <ele>202.6</ele>
        <time>2024-04-07T06:35:44Z</time>
      </trkpt>
      <trkpt lat="49.07139" lon="-0.30022">
        <ele>202.6</ele>
        <time>2024-04-07T06:35:45Z</time>
      </trkpt>
      <trkpt lat="49.07135" lon="-0.30031">
        <ele>202.6</ele>
        <time>2024-04-07T06:35:46Z</time>
      </trkpt>
      <trkpt lat="49.0713" lon="-0.30039">
        <ele>202.6</ele>
        <time>2024-04-07T06:35:47Z</time>
      </trkpt>
      <trkpt lat="49.07125" lon="-0.30047">
        <ele>202.4</ele>
        <time>2024-04-07T06:35:48Z</time>
      </trkpt>
      <trkpt lat="49.07119" lon="-0.30055">
        <ele>202.2</ele>
        <time>2024-04-07T06:35:49Z</time>
      </trkpt>
      <trkpt lat="49.07114" lon="-0.30062">
        <ele>202.2</ele>
        <time>2024-04-07T06:35:50Z</time>
      </trkpt>
      <trkpt lat="49.07109" lon="-0.30068">
        <ele>202</ele>
        <time>2024-04-07T06:35:51Z</time>
      </trkpt>
      <trkpt lat="49.07103" lon="-0.30074">
        <ele>202</ele>
        <time>2024-04-07T06:35:52Z</time>
      </trkpt>
      <trkpt lat="49.07097" lon="-0.30079">
        <ele>202</ele>
        <time>2024-04-07T06:35:53Z</time>
      </trkpt>
      <trkpt lat="49.0709" lon="-0.30083">
        <ele>201.8</ele>
        <time>2024-04-07T06:35:54Z</time>
      </trkpt>
      <trkpt lat="49.07083" lon="-0.30088">
        <ele>202.2</ele>
        <time>2024-04-07T06:35:55Z</time>
      </trkpt>
      <trkpt lat="49.07077" lon="-0.30091">
        <ele>202.8</ele>
        <time>2024-04-07T06:35:56Z</time>
      </trkpt>
      <trkpt lat="49.07063" lon="-0.30097">
        <ele>203.4</ele>
        <time>2024-04-07T06:35:57Z</time>
      </trkpt>
      <trkpt lat="49.07059" lon="-0.30099">
        <ele>203.8</ele>
        <time>2024-04-07T06:35:58Z</time>
      </trkpt>
      <trkpt lat="49.07056" lon="-0.301">
        <ele>204</ele>
        <time>2024-04-07T06:35:59Z</time>
      </trkpt>
      <trkpt lat="49.07049" lon="-0.30102">
        <ele>204.2</ele>
        <time>2024-04-07T06:36:00Z</time>
      </trkpt>
      <trkpt lat="49.07042" lon="-0.30104">
        <ele>204.6</ele>
        <time>2024-04-07T06:36:01Z</time>
      </trkpt>
      <trkpt lat="49.07035" lon="-0.30107">
        <ele>204.6</ele>
        <time>2024-04-07T06:36:02Z</time>
      </trkpt>
      <trkpt lat="49.07028" lon="-0.30109">
        <ele>204.8</ele>
        <time>2024-04-07T06:36:03Z</time>
      </trkpt>
      <trkpt lat="49.07021" lon="-0.30111">
        <ele>205</ele>
        <time>2024-04-07T06:36:04Z</time>
      </trkpt>
      <trkpt lat="49.07014" lon="-0.30114">
        <ele>205.2</ele>
        <time>2024-04-07T06:36:05Z</time>
      </trkpt>
      <trkpt lat="49.07008" lon="-0.30116">
        <ele>205.4</ele>
        <time>2024-04-07T06:36:06Z</time>
      </trkpt>
      <trkpt lat="49.07001" lon="-0.30118">
        <ele>205.6</ele>
        <time>2024-04-07T06:36:07Z</time>
      </trkpt>
      <trkpt lat="49.06994" lon="-0.30121">
        <ele>205.8</ele>
        <time>2024-04-07T06:36:08Z</time>
      </trkpt>
      <trkpt lat="49.06988" lon="-0.30123">
        <ele>205.8</ele>
        <time>2024-04-07T06:36:09Z</time>
      </trkpt>
      <trkpt lat="49.06981" lon="-0.30125">
        <ele>205.8</ele>
        <time>2024-04-07T06:36:10Z</time>
      </trkpt>
      <trkpt lat="49.06975" lon="-0.30127">
        <ele>205.6</ele>
        <time>2024-04-07T06:36:11Z</time>
      </trkpt>
      <trkpt lat="49.06968" lon="-0.30129">
        <ele>205.4</ele>
        <time>2024-04-07T06:36:12Z</time>
      </trkpt>
      <trkpt lat="49.06962" lon="-0.30132">
        <ele>205.4</ele>
        <time>2024-04-07T06:36:13Z</time>
      </trkpt>
      <trkpt lat="49.06955" lon="-0.30134">
        <ele>205.2</ele>
        <time>2024-04-07T06:36:14Z</time>
      </trkpt>
      <trkpt lat="49.06949" lon="-0.30136">
        <ele>205.2</ele>
        <time>2024-04-07T06:36:15Z</time>
      </trkpt>
      <trkpt lat="49.06942" lon="-0.30138">
        <ele>205.2</ele>
        <time>2024-04-07T06:36:16Z</time>
      </trkpt>
      <trkpt lat="49.06935" lon="-0.30141">
        <ele>205.2</ele>
        <time>2024-04-07T06:36:17Z</time>
      </trkpt>
      <trkpt lat="49.06929" lon="-0.30143">
        <ele>205.2</ele>
        <time>2024-04-07T06:36:18Z</time>
      </trkpt>
      <trkpt lat="49.06922" lon="-0.30146">
        <ele>205.2</ele>
        <time>2024-04-07T06:36:19Z</time>
      </trkpt>
      <trkpt lat="49.06915" lon="-0.30148">
        <ele>205.2</ele>
        <time>2024-04-07T06:36:20Z</time>
      </trkpt>
      <trkpt lat="49.06908" lon="-0.3015">
        <ele>205.4</ele>
        <time>2024-04-07T06:36:21Z</time>
      </trkpt>
      <trkpt lat="49.06901" lon="-0.30153">
        <ele>205.2</ele>
        <time>2024-04-07T06:36:22Z</time>
      </trkpt>
      <trkpt lat="49.06894" lon="-0.30155">
        <ele>205.2</ele>
        <time>2024-04-07T06:36:23Z</time>
      </trkpt>
      <trkpt lat="49.06888" lon="-0.30158">
        <ele>205.2</ele>
        <time>2024-04-07T06:36:24Z</time>
      </trkpt>
      <trkpt lat="49.06881" lon="-0.3016">
        <ele>205</ele>
        <time>2024-04-07T06:36:25Z</time>
      </trkpt>
      <trkpt lat="49.06874" lon="-0.30162">
        <ele>205</ele>
        <time>2024-04-07T06:36:26Z</time>
      </trkpt>
      <trkpt lat="49.06867" lon="-0.30165">
        <ele>205</ele>
        <time>2024-04-07T06:36:27Z</time>
      </trkpt>
      <trkpt lat="49.0686" lon="-0.30167">
        <ele>204.8</ele>
        <time>2024-04-07T06:36:28Z</time>
      </trkpt>
      <trkpt lat="49.06853" lon="-0.3017">
        <ele>204.8</ele>
        <time>2024-04-07T06:36:29Z</time>
      </trkpt>
      <trkpt lat="49.06847" lon="-0.30172">
        <ele>204.6</ele>
        <time>2024-04-07T06:36:30Z</time>
      </trkpt>
      <trkpt lat="49.0684" lon="-0.30175">
        <ele>204.8</ele>
        <time>2024-04-07T06:36:31Z</time>
      </trkpt>
      <trkpt lat="49.06833" lon="-0.30177">
        <ele>204.8</ele>
        <time>2024-04-07T06:36:32Z</time>
      </trkpt>
      <trkpt lat="49.06826" lon="-0.30179">
        <ele>205</ele>
        <time>2024-04-07T06:36:33Z</time>
      </trkpt>
      <trkpt lat="49.06819" lon="-0.30182">
        <ele>205</ele>
        <time>2024-04-07T06:36:34Z</time>
      </trkpt>
      <trkpt lat="49.06813" lon="-0.30184">
        <ele>205</ele>
        <time>2024-04-07T06:36:35Z</time>
      </trkpt>
      <trkpt lat="49.06806" lon="-0.30187">
        <ele>205</ele>
        <time>2024-04-07T06:36:36Z</time>
      </trkpt>
      <trkpt lat="49.06799" lon="-0.30189">
        <ele>205</ele>
        <time>2024-04-07T06:36:37Z</time>
      </trkpt>
      <trkpt lat="49.06792" lon="-0.30191">
        <ele>205</ele>
        <time>2024-04-07T06:36:38Z</time>
      </trkpt>
      <trkpt lat="49.06785" lon="-0.30193">
        <ele>205</ele>
        <time>2024-04-07T06:36:39Z</time>
      </trkpt>
      <trkpt lat="49.06779" lon="-0.30196">
        <ele>205</ele>
        <time>2024-04-07T06:36:40Z</time>
      </trkpt>
      <trkpt lat="49.06772" lon="-0.30198">
        <ele>205</ele>
        <time>2024-04-07T06:36:41Z</time>
      </trkpt>
      <trkpt lat="49.06765" lon="-0.302">
        <ele>205.2</ele>
        <time>2024-04-07T06:36:42Z</time>
      </trkpt>
      <trkpt lat="49.06759" lon="-0.30203">
        <ele>205</ele>
        <time>2024-04-07T06:36:43Z</time>
      </trkpt>
      <trkpt lat="49.06752" lon="-0.30205">
        <ele>205</ele>
        <time>2024-04-07T06:36:44Z</time>
      </trkpt>
      <trkpt lat="49.06745" lon="-0.30207">
        <ele>204.8</ele>
        <time>2024-04-07T06:36:45Z</time>
      </trkpt>
      <trkpt lat="49.06739" lon="-0.3021">
        <ele>204.6</ele>
        <time>2024-04-07T06:36:46Z</time>
      </trkpt>
      <trkpt lat="49.06732" lon="-0.30212">
        <ele>204.4</ele>
        <time>2024-04-07T06:36:47Z</time>
      </trkpt>
      <trkpt lat="49.06726" lon="-0.30215">
        <ele>204</ele>
        <time>2024-04-07T06:36:48Z</time>
      </trkpt>
      <trkpt lat="49.06719" lon="-0.30217">
        <ele>203.6</ele>
        <time>2024-04-07T06:36:49Z</time>
      </trkpt>
      <trkpt lat="49.06713" lon="-0.3022">
        <ele>203.2</ele>
        <time>2024-04-07T06:36:50Z</time>
      </trkpt>
      <trkpt lat="49.06707" lon="-0.30223">
        <ele>203</ele>
        <time>2024-04-07T06:36:51Z</time>
      </trkpt>
      <trkpt lat="49.06701" lon="-0.30227">
        <ele>202.8</ele>
        <time>2024-04-07T06:36:52Z</time>
      </trkpt>
      <trkpt lat="49.06695" lon="-0.30231">
        <ele>202.8</ele>
        <time>2024-04-07T06:36:53Z</time>
      </trkpt>
      <trkpt lat="49.06689" lon="-0.30235">
        <ele>202.8</ele>
        <time>2024-04-07T06:36:54Z</time>
      </trkpt>
      <trkpt lat="49.06683" lon="-0.3024">
        <ele>202.8</ele>
        <time>2024-04-07T06:36:55Z</time>
      </trkpt>
      <trkpt lat="49.06677" lon="-0.30245">
        <ele>203</ele>
        <time>2024-04-07T06:36:56Z</time>
      </trkpt>
      <trkpt lat="49.06671" lon="-0.3025">
        <ele>203.2</ele>
        <time>2024-04-07T06:36:57Z</time>
      </trkpt>
      <trkpt lat="49.06665" lon="-0.30256">
        <ele>203.2</ele>
        <time>2024-04-07T06:36:58Z</time>
      </trkpt>
      <trkpt lat="49.06659" lon="-0.30262">
        <ele>203</ele>
        <time>2024-04-07T06:36:59Z</time>
      </trkpt>
      <trkpt lat="49.06653" lon="-0.30268">
        <ele>202.8</ele>
        <time>2024-04-07T06:37:00Z</time>
      </trkpt>
      <trkpt lat="49.06647" lon="-0.30275">
        <ele>202.8</ele>
        <time>2024-04-07T06:37:01Z</time>
      </trkpt>
      <trkpt lat="49.06641" lon="-0.30282">
        <ele>202.8</ele>
        <time>2024-04-07T06:37:02Z</time>
      </trkpt>
      <trkpt lat="49.06635" lon="-0.30288">
        <ele>202.8</ele>
        <time>2024-04-07T06:37:03Z</time>
      </trkpt>
      <trkpt lat="49.06629" lon="-0.30295">
        <ele>202.6</ele>
        <time>2024-04-07T06:37:04Z</time>
      </trkpt>
      <trkpt lat="49.06623" lon="-0.30302">
        <ele>202.6</ele>
        <time>2024-04-07T06:37:05Z</time>
      </trkpt>
      <trkpt lat="49.06617" lon="-0.30309">
        <ele>202.4</ele>
        <time>2024-04-07T06:37:06Z</time>
      </trkpt>
      <trkpt lat="49.06611" lon="-0.30316">
        <ele>202.4</ele>
        <time>2024-04-07T06:37:07Z</time>
      </trkpt>
      <trkpt lat="49.06605" lon="-0.30323">
        <ele>202.4</ele>
        <time>2024-04-07T06:37:08Z</time>
      </trkpt>
      <trkpt lat="49.06599" lon="-0.30331">
        <ele>202.2</ele>
        <time>2024-04-07T06:37:09Z</time>
      </trkpt>
      <trkpt lat="49.06593" lon="-0.30338">
        <ele>202.2</ele>
        <time>2024-04-07T06:37:10Z</time>
      </trkpt>
      <trkpt lat="49.06587" lon="-0.30345">
        <ele>202.2</ele>
        <time>2024-04-07T06:37:11Z</time>
      </trkpt>
      <trkpt lat="49.06581" lon="-0.30352">
        <ele>202.2</ele>
        <time>2024-04-07T06:37:12Z</time>
      </trkpt>
      <trkpt lat="49.06576" lon="-0.30358">
        <ele>202</ele>
        <time>2024-04-07T06:37:13Z</time>
      </trkpt>
      <trkpt lat="49.06569" lon="-0.30365">
        <ele>201.2</ele>
        <time>2024-04-07T06:37:14Z</time>
      </trkpt>
      <trkpt lat="49.06563" lon="-0.30371">
        <ele>200.2</ele>
        <time>2024-04-07T06:37:15Z</time>
      </trkpt>
      <trkpt lat="49.06557" lon="-0.30378">
        <ele>199.2</ele>
        <time>2024-04-07T06:37:16Z</time>
      </trkpt>
      <trkpt lat="49.06551" lon="-0.30385">
        <ele>198.4</ele>
        <time>2024-04-07T06:37:17Z</time>
      </trkpt>
      <trkpt lat="49.06545" lon="-0.30391">
        <ele>198</ele>
        <time>2024-04-07T06:37:18Z</time>
      </trkpt>
      <trkpt lat="49.06539" lon="-0.30398">
        <ele>197.6</ele>
        <time>2024-04-07T06:37:19Z</time>
      </trkpt>
      <trkpt lat="49.06533" lon="-0.30405">
        <ele>197.4</ele>
        <time>2024-04-07T06:37:20Z</time>
      </trkpt>
      <trkpt lat="49.06527" lon="-0.30413">
        <ele>197.4</ele>
        <time>2024-04-07T06:37:21Z</time>
      </trkpt>
      <trkpt lat="49.06521" lon="-0.3042">
        <ele>197.2</ele>
        <time>2024-04-07T06:37:22Z</time>
      </trkpt>
      <trkpt lat="49.06515" lon="-0.30427">
        <ele>197.2</ele>
        <time>2024-04-07T06:37:23Z</time>
      </trkpt>
      <trkpt lat="49.06509" lon="-0.30435">
        <ele>196.8</ele>
        <time>2024-04-07T06:37:24Z</time>
      </trkpt>
      <trkpt lat="49.06503" lon="-0.30442">
        <ele>196.4</ele>
        <time>2024-04-07T06:37:25Z</time>
      </trkpt>
      <trkpt lat="49.06496" lon="-0.30449">
        <ele>195.8</ele>
        <time>2024-04-07T06:37:26Z</time>
      </trkpt>
      <trkpt lat="49.0649" lon="-0.30456">
        <ele>195.6</ele>
        <time>2024-04-07T06:37:27Z</time>
      </trkpt>
      <trkpt lat="49.06484" lon="-0.30462">
        <ele>195.4</ele>
        <time>2024-04-07T06:37:28Z</time>
      </trkpt>
      <trkpt lat="49.06478" lon="-0.30469">
        <ele>195.2</ele>
        <time>2024-04-07T06:37:29Z</time>
      </trkpt>
      <trkpt lat="49.06472" lon="-0.30475">
        <ele>195</ele>
        <time>2024-04-07T06:37:30Z</time>
      </trkpt>
      <trkpt lat="49.06466" lon="-0.30482">
        <ele>195</ele>
        <time>2024-04-07T06:37:31Z</time>
      </trkpt>
      <trkpt lat="49.0646" lon="-0.30488">
        <ele>194.8</ele>
        <time>2024-04-07T06:37:32Z</time>
      </trkpt>
      <trkpt lat="49.06454" lon="-0.30494">
        <ele>194.4</ele>
        <time>2024-04-07T06:37:33Z</time>
      </trkpt>
      <trkpt lat="49.06448" lon="-0.305">
        <ele>194.2</ele>
        <time>2024-04-07T06:37:34Z</time>
      </trkpt>
      <trkpt lat="49.06442" lon="-0.30506">
        <ele>194.2</ele>
        <time>2024-04-07T06:37:35Z</time>
      </trkpt>
      <trkpt lat="49.06436" lon="-0.30513">
        <ele>194.2</ele>
        <time>2024-04-07T06:37:36Z</time>
      </trkpt>
      <trkpt lat="49.06429" lon="-0.30518">
        <ele>194.4</ele>
        <time>2024-04-07T06:37:37Z</time>
      </trkpt>
      <trkpt lat="49.06423" lon="-0.30524">
        <ele>194.4</ele>
        <time>2024-04-07T06:37:38Z</time>
      </trkpt>
      <trkpt lat="49.06417" lon="-0.3053">
        <ele>194.4</ele>
        <time>2024-04-07T06:37:39Z</time>
      </trkpt>
      <trkpt lat="49.06411" lon="-0.30536">
        <ele>194.4</ele>
        <time>2024-04-07T06:37:40Z</time>
      </trkpt>
      <trkpt lat="49.06405" lon="-0.30542">
        <ele>194.4</ele>
        <time>2024-04-07T06:37:41Z</time>
      </trkpt>
      <trkpt lat="49.06399" lon="-0.30548">
        <ele>194.4</ele>
        <time>2024-04-07T06:37:42Z</time>
      </trkpt>
      <trkpt lat="49.06393" lon="-0.30554">
        <ele>194.4</ele>
        <time>2024-04-07T06:37:43Z</time>
      </trkpt>
      <trkpt lat="49.06386" lon="-0.3056">
        <ele>194.6</ele>
        <time>2024-04-07T06:37:44Z</time>
      </trkpt>
      <trkpt lat="49.0638" lon="-0.30566">
        <ele>194.6</ele>
        <time>2024-04-07T06:37:45Z</time>
      </trkpt>
      <trkpt lat="49.06374" lon="-0.30572">
        <ele>194.8</ele>
        <time>2024-04-07T06:37:46Z</time>
      </trkpt>
      <trkpt lat="49.06368" lon="-0.30579">
        <ele>194.8</ele>
        <time>2024-04-07T06:37:47Z</time>
      </trkpt>
      <trkpt lat="49.06362" lon="-0.30585">
        <ele>194.8</ele>
        <time>2024-04-07T06:37:48Z</time>
      </trkpt>
      <trkpt lat="49.06356" lon="-0.3059">
        <ele>194.8</ele>
        <time>2024-04-07T06:37:49Z</time>
      </trkpt>
      <trkpt lat="49.0635" lon="-0.30596">
        <ele>194.8</ele>
        <time>2024-04-07T06:37:50Z</time>
      </trkpt>
      <trkpt lat="49.06344" lon="-0.30602">
        <ele>194.8</ele>
        <time>2024-04-07T06:37:51Z</time>
      </trkpt>
      <trkpt lat="49.06338" lon="-0.30609">
        <ele>194.8</ele>
        <time>2024-04-07T06:37:52Z</time>
      </trkpt>
      <trkpt lat="49.06332" lon="-0.30615">
        <ele>195.2</ele>
        <time>2024-04-07T06:37:53Z</time>
      </trkpt>
      <trkpt lat="49.06326" lon="-0.3062">
        <ele>195.4</ele>
        <time>2024-04-07T06:37:54Z</time>
      </trkpt>
      <trkpt lat="49.06319" lon="-0.30626">
        <ele>195.6</ele>
        <time>2024-04-07T06:37:55Z</time>
      </trkpt>
      <trkpt lat="49.06313" lon="-0.30632">
        <ele>195.6</ele>
        <time>2024-04-07T06:37:56Z</time>
      </trkpt>
      <trkpt lat="49.06307" lon="-0.30638">
        <ele>195.6</ele>
        <time>2024-04-07T06:37:57Z</time>
      </trkpt>
      <trkpt lat="49.06301" lon="-0.30645">
        <ele>195.2</ele>
        <time>2024-04-07T06:37:58Z</time>
      </trkpt>
      <trkpt lat="49.06295" lon="-0.30651">
        <ele>194.8</ele>
        <time>2024-04-07T06:37:59Z</time>
      </trkpt>
      <trkpt lat="49.06289" lon="-0.30657">
        <ele>194.4</ele>
        <time>2024-04-07T06:38:00Z</time>
      </trkpt>
      <trkpt lat="49.06283" lon="-0.30663">
        <ele>194.2</ele>
        <time>2024-04-07T06:38:01Z</time>
      </trkpt>
      <trkpt lat="49.06277" lon="-0.30669">
        <ele>194</ele>
        <time>2024-04-07T06:38:02Z</time>
      </trkpt>
      <trkpt lat="49.06271" lon="-0.30675">
        <ele>193.8</ele>
        <time>2024-04-07T06:38:03Z</time>
      </trkpt>
      <trkpt lat="49.06265" lon="-0.30681">
        <ele>193.8</ele>
        <time>2024-04-07T06:38:04Z</time>
      </trkpt>
      <trkpt lat="49.06259" lon="-0.30686">
        <ele>193.6</ele>
        <time>2024-04-07T06:38:05Z</time>
      </trkpt>
      <trkpt lat="49.06247" lon="-0.30698">
        <ele>193.6</ele>
        <time>2024-04-07T06:38:06Z</time>
      </trkpt>
      <trkpt lat="49.06241" lon="-0.30704">
        <ele>193.8</ele>
        <time>2024-04-07T06:38:07Z</time>
      </trkpt>
      <trkpt lat="49.06239" lon="-0.30708">
        <ele>194</ele>
        <time>2024-04-07T06:38:08Z</time>
      </trkpt>
      <trkpt lat="49.06236" lon="-0.30711">
        <ele>194.4</ele>
        <time>2024-04-07T06:38:09Z</time>
      </trkpt>
      <trkpt lat="49.0623" lon="-0.30717">
        <ele>194.8</ele>
        <time>2024-04-07T06:38:10Z</time>
      </trkpt>
      <trkpt lat="49.06224" lon="-0.30723">
        <ele>195</ele>
        <time>2024-04-07T06:38:11Z</time>
      </trkpt>
      <trkpt lat="49.06219" lon="-0.3073">
        <ele>195.2</ele>
        <time>2024-04-07T06:38:12Z</time>
      </trkpt>
      <trkpt lat="49.06213" lon="-0.30736">
        <ele>195.2</ele>
        <time>2024-04-07T06:38:13Z</time>
      </trkpt>
      <trkpt lat="49.06208" lon="-0.30743">
        <ele>195.2</ele>
        <time>2024-04-07T06:38:14Z</time>
      </trkpt>
      <trkpt lat="49.06202" lon="-0.3075">
        <ele>194.8</ele>
        <time>2024-04-07T06:38:15Z</time>
      </trkpt>
      <trkpt lat="49.06197" lon="-0.30757">
        <ele>194.8</ele>
        <time>2024-04-07T06:38:16Z</time>
      </trkpt>
      <trkpt lat="49.06192" lon="-0.30764">
        <ele>194.8</ele>
        <time>2024-04-07T06:38:17Z</time>
      </trkpt>
      <trkpt lat="49.06187" lon="-0.30771">
        <ele>194.8</ele>
        <time>2024-04-07T06:38:18Z</time>
      </trkpt>
      <trkpt lat="49.06182" lon="-0.30778">
        <ele>194.8</ele>
        <time>2024-04-07T06:38:19Z</time>
      </trkpt>
      <trkpt lat="49.06178" lon="-0.30786">
        <ele>195</ele>
        <time>2024-04-07T06:38:20Z</time>
      </trkpt>
      <trkpt lat="49.06173" lon="-0.30793">
        <ele>195.2</ele>
        <time>2024-04-07T06:38:21Z</time>
      </trkpt>
      <trkpt lat="49.06169" lon="-0.30801">
        <ele>195.2</ele>
        <time>2024-04-07T06:38:22Z</time>
      </trkpt>
      <trkpt lat="49.06164" lon="-0.30809">
        <ele>195.2</ele>
        <time>2024-04-07T06:38:23Z</time>
      </trkpt>
      <trkpt lat="49.0616" lon="-0.30816">
        <ele>195.4</ele>
        <time>2024-04-07T06:38:24Z</time>
      </trkpt>
      <trkpt lat="49.06156" lon="-0.30825">
        <ele>195.2</ele>
        <time>2024-04-07T06:38:25Z</time>
      </trkpt>
      <trkpt lat="49.06152" lon="-0.30833">
        <ele>195.2</ele>
        <time>2024-04-07T06:38:26Z</time>
      </trkpt>
      <trkpt lat="49.06148" lon="-0.30842">
        <ele>195.2</ele>
        <time>2024-04-07T06:38:27Z</time>
      </trkpt>
      <trkpt lat="49.06143" lon="-0.3085">
        <ele>195.2</ele>
        <time>2024-04-07T06:38:28Z</time>
      </trkpt>
      <trkpt lat="49.06139" lon="-0.30859">
        <ele>195.6</ele>
        <time>2024-04-07T06:38:29Z</time>
      </trkpt>
      <trkpt lat="49.06135" lon="-0.30868">
        <ele>195.8</ele>
        <time>2024-04-07T06:38:30Z</time>
      </trkpt>
      <trkpt lat="49.06131" lon="-0.30878">
        <ele>195.8</ele>
        <time>2024-04-07T06:38:31Z</time>
      </trkpt>
      <trkpt lat="49.06127" lon="-0.30887">
        <ele>196</ele>
        <time>2024-04-07T06:38:32Z</time>
      </trkpt>
      <trkpt lat="49.06123" lon="-0.30896">
        <ele>196</ele>
        <time>2024-04-07T06:38:33Z</time>
      </trkpt>
      <trkpt lat="49.06119" lon="-0.30905">
        <ele>196</ele>
        <time>2024-04-07T06:38:34Z</time>
      </trkpt>
      <trkpt lat="49.06115" lon="-0.30914">
        <ele>196</ele>
        <time>2024-04-07T06:38:35Z</time>
      </trkpt>
      <trkpt lat="49.06111" lon="-0.30923">
        <ele>196.2</ele>
        <time>2024-04-07T06:38:36Z</time>
      </trkpt>
      <trkpt lat="49.06107" lon="-0.30931">
        <ele>196.4</ele>
        <time>2024-04-07T06:38:37Z</time>
      </trkpt>
      <trkpt lat="49.06102" lon="-0.3094">
        <ele>196.6</ele>
        <time>2024-04-07T06:38:38Z</time>
      </trkpt>
      <trkpt lat="49.06098" lon="-0.30948">
        <ele>197</ele>
        <time>2024-04-07T06:38:39Z</time>
      </trkpt>
      <trkpt lat="49.06093" lon="-0.30956">
        <ele>197.4</ele>
        <time>2024-04-07T06:38:40Z</time>
      </trkpt>
      <trkpt lat="49.06089" lon="-0.30964">
        <ele>197.6</ele>
        <time>2024-04-07T06:38:41Z</time>
      </trkpt>
      <trkpt lat="49.06084" lon="-0.30972">
        <ele>197.8</ele>
        <time>2024-04-07T06:38:42Z</time>
      </trkpt>
      <trkpt lat="49.06078" lon="-0.30979">
        <ele>197.6</ele>
        <time>2024-04-07T06:38:43Z</time>
      </trkpt>
      <trkpt lat="49.06073" lon="-0.30987">
        <ele>197.4</ele>
        <time>2024-04-07T06:38:44Z</time>
      </trkpt>
      <trkpt lat="49.06068" lon="-0.30994">
        <ele>196.8</ele>
        <time>2024-04-07T06:38:45Z</time>
      </trkpt>
      <trkpt lat="49.06062" lon="-0.31001">
        <ele>196.4</ele>
        <time>2024-04-07T06:38:46Z</time>
      </trkpt>
      <trkpt lat="49.06056" lon="-0.31008">
        <ele>196.2</ele>
        <time>2024-04-07T06:38:47Z</time>
      </trkpt>
      <trkpt lat="49.0605" lon="-0.31014">
        <ele>196</ele>
        <time>2024-04-07T06:38:48Z</time>
      </trkpt>
      <trkpt lat="49.06044" lon="-0.31021">
        <ele>195.8</ele>
        <time>2024-04-07T06:38:49Z</time>
      </trkpt>
      <trkpt lat="49.06038" lon="-0.31028">
        <ele>195.6</ele>
        <time>2024-04-07T06:38:50Z</time>
      </trkpt>
      <trkpt lat="49.06026" lon="-0.31042">
        <ele>195.2</ele>
        <time>2024-04-07T06:38:51Z</time>
      </trkpt>
      <trkpt lat="49.06023" lon="-0.31045">
        <ele>195</ele>
        <time>2024-04-07T06:38:52Z</time>
      </trkpt>
      <trkpt lat="49.0602" lon="-0.31049">
        <ele>195</ele>
        <time>2024-04-07T06:38:53Z</time>
      </trkpt>
      <trkpt lat="49.06014" lon="-0.31056">
        <ele>195</ele>
        <time>2024-04-07T06:38:54Z</time>
      </trkpt>
      <trkpt lat="49.06008" lon="-0.31063">
        <ele>194.8</ele>
        <time>2024-04-07T06:38:55Z</time>
      </trkpt>
      <trkpt lat="49.06002" lon="-0.3107">
        <ele>194.8</ele>
        <time>2024-04-07T06:38:56Z</time>
      </trkpt>
      <trkpt lat="49.05997" lon="-0.31077">
        <ele>194.8</ele>
        <time>2024-04-07T06:38:57Z</time>
      </trkpt>
      <trkpt lat="49.05991" lon="-0.31084">
        <ele>194.8</ele>
        <time>2024-04-07T06:38:58Z</time>
      </trkpt>
      <trkpt lat="49.05985" lon="-0.31091">
        <ele>194.6</ele>
        <time>2024-04-07T06:38:59Z</time>
      </trkpt>
      <trkpt lat="49.05979" lon="-0.31097">
        <ele>194.6</ele>
        <time>2024-04-07T06:39:00Z</time>
      </trkpt>
      <trkpt lat="49.05973" lon="-0.31104">
        <ele>194.6</ele>
        <time>2024-04-07T06:39:01Z</time>
      </trkpt>
      <trkpt lat="49.05968" lon="-0.3111">
        <ele>194.4</ele>
        <time>2024-04-07T06:39:02Z</time>
      </trkpt>
      <trkpt lat="49.05963" lon="-0.31116">
        <ele>194</ele>
        <time>2024-04-07T06:39:03Z</time>
      </trkpt>
      <trkpt lat="49.05957" lon="-0.31123">
        <ele>193.8</ele>
        <time>2024-04-07T06:39:04Z</time>
      </trkpt>
      <trkpt lat="49.05952" lon="-0.31128">
        <ele>194.2</ele>
        <time>2024-04-07T06:39:05Z</time>
      </trkpt>
      <trkpt lat="49.05946" lon="-0.31135">
        <ele>194.6</ele>
        <time>2024-04-07T06:39:06Z</time>
      </trkpt>
      <trkpt lat="49.05941" lon="-0.31141">
        <ele>194.8</ele>
        <time>2024-04-07T06:39:07Z</time>
      </trkpt>
      <trkpt lat="49.05935" lon="-0.31147">
        <ele>195</ele>
        <time>2024-04-07T06:39:08Z</time>
      </trkpt>
      <trkpt lat="49.05929" lon="-0.31153">
        <ele>195</ele>
        <time>2024-04-07T06:39:09Z</time>
      </trkpt>
      <trkpt lat="49.05924" lon="-0.3116">
        <ele>195</ele>
        <time>2024-04-07T06:39:10Z</time>
      </trkpt>
      <trkpt lat="49.05918" lon="-0.31166">
        <ele>195</ele>
        <time>2024-04-07T06:39:11Z</time>
      </trkpt>
      <trkpt lat="49.05912" lon="-0.31173">
        <ele>195.2</ele>
        <time>2024-04-07T06:39:12Z</time>
      </trkpt>
      <trkpt lat="49.05906" lon="-0.31179">
        <ele>195</ele>
        <time>2024-04-07T06:39:13Z</time>
      </trkpt>
      <trkpt lat="49.05901" lon="-0.31185">
        <ele>194.8</ele>
        <time>2024-04-07T06:39:14Z</time>
      </trkpt>
      <trkpt lat="49.05895" lon="-0.31191">
        <ele>194.8</ele>
        <time>2024-04-07T06:39:15Z</time>
      </trkpt>
      <trkpt lat="49.05889" lon="-0.31197">
        <ele>194.8</ele>
        <time>2024-04-07T06:39:16Z</time>
      </trkpt>
      <trkpt lat="49.05883" lon="-0.31203">
        <ele>194.8</ele>
        <time>2024-04-07T06:39:17Z</time>
      </trkpt>
      <trkpt lat="49.05877" lon="-0.31209">
        <ele>194.8</ele>
        <time>2024-04-07T06:39:18Z</time>
      </trkpt>
      <trkpt lat="49.05871" lon="-0.31215">
        <ele>194.6</ele>
        <time>2024-04-07T06:39:19Z</time>
      </trkpt>
      <trkpt lat="49.05865" lon="-0.31221">
        <ele>194.6</ele>
        <time>2024-04-07T06:39:20Z</time>
      </trkpt>
      <trkpt lat="49.05859" lon="-0.31227">
        <ele>194.6</ele>
        <time>2024-04-07T06:39:21Z</time>
      </trkpt>
      <trkpt lat="49.05853" lon="-0.31233">
        <ele>194.4</ele>
        <time>2024-04-07T06:39:22Z</time>
      </trkpt>
      <trkpt lat="49.05847" lon="-0.31239">
        <ele>193.6</ele>
        <time>2024-04-07T06:39:23Z</time>
      </trkpt>
      <trkpt lat="49.0584" lon="-0.31245">
        <ele>193</ele>
        <time>2024-04-07T06:39:24Z</time>
      </trkpt>
      <trkpt lat="49.05834" lon="-0.31251">
        <ele>192.6</ele>
        <time>2024-04-07T06:39:25Z</time>
      </trkpt>
      <trkpt lat="49.05827" lon="-0.31258">
        <ele>191.8</ele>
        <time>2024-04-07T06:39:26Z</time>
      </trkpt>
      <trkpt lat="49.0582" lon="-0.31264">
        <ele>190.8</ele>
        <time>2024-04-07T06:39:27Z</time>
      </trkpt>
      <trkpt lat="49.05813" lon="-0.31271">
        <ele>190</ele>
        <time>2024-04-07T06:39:28Z</time>
      </trkpt>
      <trkpt lat="49.05806" lon="-0.31278">
        <ele>189.8</ele>
        <time>2024-04-07T06:39:29Z</time>
      </trkpt>
      <trkpt lat="49.05799" lon="-0.31284">
        <ele>189.6</ele>
        <time>2024-04-07T06:39:30Z</time>
      </trkpt>
      <trkpt lat="49.05793" lon="-0.3129">
        <ele>189.4</ele>
        <time>2024-04-07T06:39:31Z</time>
      </trkpt>
      <trkpt lat="49.05786" lon="-0.31296">
        <ele>189.2</ele>
        <time>2024-04-07T06:39:32Z</time>
      </trkpt>
      <trkpt lat="49.05779" lon="-0.31301">
        <ele>189.2</ele>
        <time>2024-04-07T06:39:33Z</time>
      </trkpt>
      <trkpt lat="49.05773" lon="-0.31307">
        <ele>189.2</ele>
        <time>2024-04-07T06:39:34Z</time>
      </trkpt>
      <trkpt lat="49.05767" lon="-0.31314">
        <ele>189.2</ele>
        <time>2024-04-07T06:39:35Z</time>
      </trkpt>
      <trkpt lat="49.0576" lon="-0.3132">
        <ele>189.2</ele>
        <time>2024-04-07T06:39:36Z</time>
      </trkpt>
      <trkpt lat="49.05754" lon="-0.31326">
        <ele>189.4</ele>
        <time>2024-04-07T06:39:37Z</time>
      </trkpt>
      <trkpt lat="49.05747" lon="-0.31332">
        <ele>190</ele>
        <time>2024-04-07T06:39:38Z</time>
      </trkpt>
      <trkpt lat="49.05741" lon="-0.31338">
        <ele>190.6</ele>
        <time>2024-04-07T06:39:39Z</time>
      </trkpt>
      <trkpt lat="49.05734" lon="-0.31344">
        <ele>191</ele>
        <time>2024-04-07T06:39:40Z</time>
      </trkpt>
      <trkpt lat="49.05727" lon="-0.3135">
        <ele>191.4</ele>
        <time>2024-04-07T06:39:41Z</time>
      </trkpt>
      <trkpt lat="49.05721" lon="-0.31356">
        <ele>191.6</ele>
        <time>2024-04-07T06:39:42Z</time>
      </trkpt>
      <trkpt lat="49.05715" lon="-0.31362">
        <ele>191.6</ele>
        <time>2024-04-07T06:39:43Z</time>
      </trkpt>
      <trkpt lat="49.05708" lon="-0.31368">
        <ele>191.6</ele>
        <time>2024-04-07T06:39:44Z</time>
      </trkpt>
      <trkpt lat="49.05702" lon="-0.31374">
        <ele>191.6</ele>
        <time>2024-04-07T06:39:45Z</time>
      </trkpt>
      <trkpt lat="49.05696" lon="-0.31379">
        <ele>191.6</ele>
        <time>2024-04-07T06:39:46Z</time>
      </trkpt>
      <trkpt lat="49.05687" lon="-0.31388">
        <ele>191.4</ele>
        <time>2024-04-07T06:39:47Z</time>
      </trkpt>
      <trkpt lat="49.05684" lon="-0.31391">
        <ele>191.2</ele>
        <time>2024-04-07T06:39:48Z</time>
      </trkpt>
      <trkpt lat="49.05677" lon="-0.31397">
        <ele>191</ele>
        <time>2024-04-07T06:39:49Z</time>
      </trkpt>
      <trkpt lat="49.05671" lon="-0.31403">
        <ele>191</ele>
        <time>2024-04-07T06:39:50Z</time>
      </trkpt>
      <trkpt lat="49.05665" lon="-0.3141">
        <ele>191</ele>
        <time>2024-04-07T06:39:51Z</time>
      </trkpt>
      <trkpt lat="49.05658" lon="-0.31416">
        <ele>190.8</ele>
        <time>2024-04-07T06:39:52Z</time>
      </trkpt>
      <trkpt lat="49.05652" lon="-0.31423">
        <ele>190.6</ele>
        <time>2024-04-07T06:39:53Z</time>
      </trkpt>
      <trkpt lat="49.05646" lon="-0.3143">
        <ele>190.4</ele>
        <time>2024-04-07T06:39:54Z</time>
      </trkpt>
      <trkpt lat="49.0564" lon="-0.31438">
        <ele>190</ele>
        <time>2024-04-07T06:39:55Z</time>
      </trkpt>
      <trkpt lat="49.05634" lon="-0.31445">
        <ele>189.4</ele>
        <time>2024-04-07T06:39:56Z</time>
      </trkpt>
      <trkpt lat="49.05627" lon="-0.31453">
        <ele>188.6</ele>
        <time>2024-04-07T06:39:57Z</time>
      </trkpt>
      <trkpt lat="49.05621" lon="-0.3146">
        <ele>188</ele>
        <time>2024-04-07T06:39:58Z</time>
      </trkpt>
      <trkpt lat="49.05614" lon="-0.31467">
        <ele>187.6</ele>
        <time>2024-04-07T06:39:59Z</time>
      </trkpt>
      <trkpt lat="49.05608" lon="-0.31475">
        <ele>187.4</ele>
        <time>2024-04-07T06:40:00Z</time>
      </trkpt>
      <trkpt lat="49.05601" lon="-0.31482">
        <ele>187.4</ele>
        <time>2024-04-07T06:40:01Z</time>
      </trkpt>
      <trkpt lat="49.05595" lon="-0.31489">
        <ele>187.4</ele>
        <time>2024-04-07T06:40:02Z</time>
      </trkpt>
      <trkpt lat="49.05588" lon="-0.31497">
        <ele>187.4</ele>
        <time>2024-04-07T06:40:03Z</time>
      </trkpt>
      <trkpt lat="49.05582" lon="-0.31504">
        <ele>187.4</ele>
        <time>2024-04-07T06:40:04Z</time>
      </trkpt>
      <trkpt lat="49.05575" lon="-0.31512">
        <ele>187.2</ele>
        <time>2024-04-07T06:40:05Z</time>
      </trkpt>
      <trkpt lat="49.05569" lon="-0.31519">
        <ele>186.8</ele>
        <time>2024-04-07T06:40:06Z</time>
      </trkpt>
      <trkpt lat="49.05563" lon="-0.31527">
        <ele>186.4</ele>
        <time>2024-04-07T06:40:07Z</time>
      </trkpt>
      <trkpt lat="49.05556" lon="-0.31534">
        <ele>186</ele>
        <time>2024-04-07T06:40:08Z</time>
      </trkpt>
      <trkpt lat="49.0555" lon="-0.31541">
        <ele>185.4</ele>
        <time>2024-04-07T06:40:09Z</time>
      </trkpt>
      <trkpt lat="49.05544" lon="-0.31549">
        <ele>185</ele>
        <time>2024-04-07T06:40:10Z</time>
      </trkpt>
      <trkpt lat="49.05537" lon="-0.31555">
        <ele>184.6</ele>
        <time>2024-04-07T06:40:11Z</time>
      </trkpt>
      <trkpt lat="49.05532" lon="-0.31562">
        <ele>184.2</ele>
        <time>2024-04-07T06:40:12Z</time>
      </trkpt>
      <trkpt lat="49.05526" lon="-0.31569">
        <ele>183.8</ele>
        <time>2024-04-07T06:40:13Z</time>
      </trkpt>
      <trkpt lat="49.0552" lon="-0.31575">
        <ele>183.8</ele>
        <time>2024-04-07T06:40:14Z</time>
      </trkpt>
      <trkpt lat="49.05514" lon="-0.31582">
        <ele>183.6</ele>
        <time>2024-04-07T06:40:15Z</time>
      </trkpt>
      <trkpt lat="49.05508" lon="-0.31589">
        <ele>183.8</ele>
        <time>2024-04-07T06:40:16Z</time>
      </trkpt>
      <trkpt lat="49.05502" lon="-0.31596">
        <ele>184</ele>
        <time>2024-04-07T06:40:17Z</time>
      </trkpt>
      <trkpt lat="49.05496" lon="-0.31604">
        <ele>184.4</ele>
        <time>2024-04-07T06:40:18Z</time>
      </trkpt>
      <trkpt lat="49.05483" lon="-0.3162">
        <ele>184.8</ele>
        <time>2024-04-07T06:40:19Z</time>
      </trkpt>
      <trkpt lat="49.0548" lon="-0.31624">
        <ele>185.2</ele>
        <time>2024-04-07T06:40:20Z</time>
      </trkpt>
      <trkpt lat="49.05477" lon="-0.31628">
        <ele>185.4</ele>
        <time>2024-04-07T06:40:21Z</time>
      </trkpt>
      <trkpt lat="49.0547" lon="-0.31636">
        <ele>185.4</ele>
        <time>2024-04-07T06:40:22Z</time>
      </trkpt>
      <trkpt lat="49.05463" lon="-0.31644">
        <ele>185.4</ele>
        <time>2024-04-07T06:40:23Z</time>
      </trkpt>
      <trkpt lat="49.05456" lon="-0.31652">
        <ele>184.8</ele>
        <time>2024-04-07T06:40:24Z</time>
      </trkpt>
      <trkpt lat="49.0545" lon="-0.31659">
        <ele>184</ele>
        <time>2024-04-07T06:40:25Z</time>
      </trkpt>
      <trkpt lat="49.05443" lon="-0.31667">
        <ele>183.2</ele>
        <time>2024-04-07T06:40:26Z</time>
      </trkpt>
      <trkpt lat="49.05436" lon="-0.31675">
        <ele>182.8</ele>
        <time>2024-04-07T06:40:27Z</time>
      </trkpt>
      <trkpt lat="49.05429" lon="-0.31682">
        <ele>182.6</ele>
        <time>2024-04-07T06:40:28Z</time>
      </trkpt>
      <trkpt lat="49.05422" lon="-0.3169">
        <ele>182.4</ele>
        <time>2024-04-07T06:40:29Z</time>
      </trkpt>
      <trkpt lat="49.05415" lon="-0.31697">
        <ele>182.4</ele>
        <time>2024-04-07T06:40:30Z</time>
      </trkpt>
      <trkpt lat="49.054" lon="-0.3171">
        <ele>182.2</ele>
        <time>2024-04-07T06:40:31Z</time>
      </trkpt>
      <trkpt lat="49.05397" lon="-0.31713">
        <ele>182.2</ele>
        <time>2024-04-07T06:40:32Z</time>
      </trkpt>
      <trkpt lat="49.05393" lon="-0.31716">
        <ele>182.2</ele>
        <time>2024-04-07T06:40:33Z</time>
      </trkpt>
      <trkpt lat="49.05381" lon="-0.31725">
        <ele>182</ele>
        <time>2024-04-07T06:40:34Z</time>
      </trkpt>
      <trkpt lat="49.05377" lon="-0.31728">
        <ele>182</ele>
        <time>2024-04-07T06:40:35Z</time>
      </trkpt>
      <trkpt lat="49.0537" lon="-0.31735">
        <ele>181.8</ele>
        <time>2024-04-07T06:40:36Z</time>
      </trkpt>
      <trkpt lat="49.05362" lon="-0.31742">
        <ele>181.6</ele>
        <time>2024-04-07T06:40:37Z</time>
      </trkpt>
      <trkpt lat="49.05354" lon="-0.31749">
        <ele>181.4</ele>
        <time>2024-04-07T06:40:38Z</time>
      </trkpt>
      <trkpt lat="49.05347" lon="-0.31756">
        <ele>181.2</ele>
        <time>2024-04-07T06:40:39Z</time>
      </trkpt>
      <trkpt lat="49.05331" lon="-0.3177">
        <ele>181</ele>
        <time>2024-04-07T06:40:40Z</time>
      </trkpt>
      <trkpt lat="49.05327" lon="-0.31773">
        <ele>180.8</ele>
        <time>2024-04-07T06:40:41Z</time>
      </trkpt>
      <trkpt lat="49.05323" lon="-0.31777">
        <ele>180.4</ele>
        <time>2024-04-07T06:40:42Z</time>
      </trkpt>
      <trkpt lat="49.0531" lon="-0.31786">
        <ele>179.8</ele>
        <time>2024-04-07T06:40:43Z</time>
      </trkpt>
      <trkpt lat="49.05306" lon="-0.31789">
        <ele>179.4</ele>
        <time>2024-04-07T06:40:44Z</time>
      </trkpt>
      <trkpt lat="49.05298" lon="-0.31794">
        <ele>179</ele>
        <time>2024-04-07T06:40:45Z</time>
      </trkpt>
      <trkpt lat="49.05285" lon="-0.318">
        <ele>178.6</ele>
        <time>2024-04-07T06:40:46Z</time>
      </trkpt>
      <trkpt lat="49.0528" lon="-0.31802">
        <ele>177.8</ele>
        <time>2024-04-07T06:40:47Z</time>
      </trkpt>
      <trkpt lat="49.05267" lon="-0.31807">
        <ele>177</ele>
        <time>2024-04-07T06:40:48Z</time>
      </trkpt>
      <trkpt lat="49.05263" lon="-0.31809">
        <ele>176.4</ele>
        <time>2024-04-07T06:40:49Z</time>
      </trkpt>
      <trkpt lat="49.05254" lon="-0.31811">
        <ele>175.8</ele>
        <time>2024-04-07T06:40:50Z</time>
      </trkpt>
      <trkpt lat="49.05245" lon="-0.31814">
        <ele>175.2</ele>
        <time>2024-04-07T06:40:51Z</time>
      </trkpt>
      <trkpt lat="49.05231" lon="-0.31817">
        <ele>174.8</ele>
        <time>2024-04-07T06:40:52Z</time>
      </trkpt>
      <trkpt lat="49.05226" lon="-0.31817">
        <ele>174.4</ele>
        <time>2024-04-07T06:40:53Z</time>
      </trkpt>
      <trkpt lat="49.05216" lon="-0.31819">
        <ele>174.2</ele>
        <time>2024-04-07T06:40:54Z</time>
      </trkpt>
      <trkpt lat="49.05207" lon="-0.3182">
        <ele>173.8</ele>
        <time>2024-04-07T06:40:55Z</time>
      </trkpt>
      <trkpt lat="49.05192" lon="-0.31821">
        <ele>173.4</ele>
        <time>2024-04-07T06:40:56Z</time>
      </trkpt>
      <trkpt lat="49.05187" lon="-0.31821">
        <ele>173.2</ele>
        <time>2024-04-07T06:40:57Z</time>
      </trkpt>
      <trkpt lat="49.05177" lon="-0.31822">
        <ele>172.6</ele>
        <time>2024-04-07T06:40:58Z</time>
      </trkpt>
      <trkpt lat="49.05167" lon="-0.31822">
        <ele>171.8</ele>
        <time>2024-04-07T06:40:59Z</time>
      </trkpt>
      <trkpt lat="49.05156" lon="-0.31823">
        <ele>170.8</ele>
        <time>2024-04-07T06:41:00Z</time>
      </trkpt>
      <trkpt lat="49.05146" lon="-0.31823">
        <ele>170</ele>
        <time>2024-04-07T06:41:01Z</time>
      </trkpt>
      <trkpt lat="49.05135" lon="-0.31824">
        <ele>169.4</ele>
        <time>2024-04-07T06:41:02Z</time>
      </trkpt>
      <trkpt lat="49.05125" lon="-0.31826">
        <ele>168.8</ele>
        <time>2024-04-07T06:41:03Z</time>
      </trkpt>
      <trkpt lat="49.05115" lon="-0.31829">
        <ele>167.8</ele>
        <time>2024-04-07T06:41:04Z</time>
      </trkpt>
      <trkpt lat="49.05105" lon="-0.31834">
        <ele>166.4</ele>
        <time>2024-04-07T06:41:05Z</time>
      </trkpt>
      <trkpt lat="49.05096" lon="-0.3184">
        <ele>165.2</ele>
        <time>2024-04-07T06:41:06Z</time>
      </trkpt>
      <trkpt lat="49.05087" lon="-0.31849">
        <ele>164.6</ele>
        <time>2024-04-07T06:41:07Z</time>
      </trkpt>
      <trkpt lat="49.05078" lon="-0.3186">
        <ele>164</ele>
        <time>2024-04-07T06:41:08Z</time>
      </trkpt>
      <trkpt lat="49.0507" lon="-0.31871">
        <ele>163.4</ele>
        <time>2024-04-07T06:41:09Z</time>
      </trkpt>
      <trkpt lat="49.05057" lon="-0.31891">
        <ele>162.6</ele>
        <time>2024-04-07T06:41:10Z</time>
      </trkpt>
      <trkpt lat="49.05052" lon="-0.31899">
        <ele>161.4</ele>
        <time>2024-04-07T06:41:11Z</time>
      </trkpt>
      <trkpt lat="49.05041" lon="-0.31915">
        <ele>160.2</ele>
        <time>2024-04-07T06:41:12Z</time>
      </trkpt>
      <trkpt lat="49.05034" lon="-0.31926">
        <ele>159.8</ele>
        <time>2024-04-07T06:41:13Z</time>
      </trkpt>
      <trkpt lat="49.05029" lon="-0.31934">
        <ele>159.4</ele>
        <time>2024-04-07T06:41:14Z</time>
      </trkpt>
      <trkpt lat="49.05024" lon="-0.31941">
        <ele>159.2</ele>
        <time>2024-04-07T06:41:15Z</time>
      </trkpt>
      <trkpt lat="49.05015" lon="-0.31956">
        <ele>159.4</ele>
        <time>2024-04-07T06:41:16Z</time>
      </trkpt>
      <trkpt lat="49.05009" lon="-0.31967">
        <ele>159.4</ele>
        <time>2024-04-07T06:41:17Z</time>
      </trkpt>
      <trkpt lat="49.05003" lon="-0.31977">
        <ele>159.6</ele>
        <time>2024-04-07T06:41:18Z</time>
      </trkpt>
      <trkpt lat="49.05" lon="-0.31983">
        <ele>159.6</ele>
        <time>2024-04-07T06:41:19Z</time>
      </trkpt>
      <trkpt lat="49.04998" lon="-0.31988">
        <ele>159.4</ele>
        <time>2024-04-07T06:41:20Z</time>
      </trkpt>
      <trkpt lat="49.04988" lon="-0.32011">
        <ele>159.2</ele>
        <time>2024-04-07T06:41:21Z</time>
      </trkpt>
      <trkpt lat="49.04984" lon="-0.32024">
        <ele>159.2</ele>
        <time>2024-04-07T06:41:22Z</time>
      </trkpt>
      <trkpt lat="49.04983" lon="-0.3203">
        <ele>159</ele>
        <time>2024-04-07T06:41:23Z</time>
      </trkpt>
      <trkpt lat="49.04981" lon="-0.32037">
        <ele>158.8</ele>
        <time>2024-04-07T06:41:24Z</time>
      </trkpt>
      <trkpt lat="49.04978" lon="-0.32049">
        <ele>158.6</ele>
        <time>2024-04-07T06:41:25Z</time>
      </trkpt>
      <trkpt lat="49.04975" lon="-0.32061">
        <ele>158.4</ele>
        <time>2024-04-07T06:41:26Z</time>
      </trkpt>
      <trkpt lat="49.04972" lon="-0.32073">
        <ele>158.2</ele>
        <time>2024-04-07T06:41:27Z</time>
      </trkpt>
      <trkpt lat="49.0497" lon="-0.32084">
        <ele>157.8</ele>
        <time>2024-04-07T06:41:28Z</time>
      </trkpt>
      <trkpt lat="49.04965" lon="-0.32107">
        <ele>157.4</ele>
        <time>2024-04-07T06:41:29Z</time>
      </trkpt>
      <trkpt lat="49.04965" lon="-0.32107">
        <ele>157.2</ele>
        <time>2024-04-07T06:41:30Z</time>
      </trkpt>
      <trkpt lat="49.04962" lon="-0.32118">
        <ele>156.8</ele>
        <time>2024-04-07T06:41:31Z</time>
      </trkpt>
      <trkpt lat="49.04958" lon="-0.32135">
        <ele>156.6</ele>
        <time>2024-04-07T06:41:32Z</time>
      </trkpt>
      <trkpt lat="49.04956" lon="-0.3214">
        <ele>156.6</ele>
        <time>2024-04-07T06:41:33Z</time>
      </trkpt>
      <trkpt lat="49.04952" lon="-0.32151">
        <ele>156.4</ele>
        <time>2024-04-07T06:41:34Z</time>
      </trkpt>
      <trkpt lat="49.04948" lon="-0.32162">
        <ele>156</ele>
        <time>2024-04-07T06:41:35Z</time>
      </trkpt>
      <trkpt lat="49.04938" lon="-0.32183">
        <ele>155.6</ele>
        <time>2024-04-07T06:41:36Z</time>
      </trkpt>
      <trkpt lat="49.04935" lon="-0.32187">
        <ele>155.2</ele>
        <time>2024-04-07T06:41:37Z</time>
      </trkpt>
      <trkpt lat="49.04932" lon="-0.32191">
        <ele>154.8</ele>
        <time>2024-04-07T06:41:38Z</time>
      </trkpt>
      <trkpt lat="49.04927" lon="-0.322">
        <ele>154.6</ele>
        <time>2024-04-07T06:41:39Z</time>
      </trkpt>
      <trkpt lat="49.04915" lon="-0.32215">
        <ele>154.6</ele>
        <time>2024-04-07T06:41:40Z</time>
      </trkpt>
      <trkpt lat="49.0491" lon="-0.32222">
        <ele>154.6</ele>
        <time>2024-04-07T06:41:41Z</time>
      </trkpt>
      <trkpt lat="49.04907" lon="-0.32226">
        <ele>154.6</ele>
        <time>2024-04-07T06:41:42Z</time>
      </trkpt>
      <trkpt lat="49.04904" lon="-0.32229">
        <ele>154.8</ele>
        <time>2024-04-07T06:41:43Z</time>
      </trkpt>
      <trkpt lat="49.04898" lon="-0.32237">
        <ele>154.8</ele>
        <time>2024-04-07T06:41:44Z</time>
      </trkpt>
      <trkpt lat="49.04893" lon="-0.32245">
        <ele>154.8</ele>
        <time>2024-04-07T06:41:45Z</time>
      </trkpt>
      <trkpt lat="49.04887" lon="-0.32252">
        <ele>154.8</ele>
        <time>2024-04-07T06:41:46Z</time>
      </trkpt>
      <trkpt lat="49.04877" lon="-0.32266">
        <ele>154.6</ele>
        <time>2024-04-07T06:41:47Z</time>
      </trkpt>
      <trkpt lat="49.04877" lon="-0.32266">
        <ele>154.6</ele>
        <time>2024-04-07T06:41:48Z</time>
      </trkpt>
      <trkpt lat="49.04867" lon="-0.32281">
        <ele>154.4</ele>
        <time>2024-04-07T06:41:49Z</time>
      </trkpt>
      <trkpt lat="49.04867" lon="-0.32281">
        <ele>154.4</ele>
        <time>2024-04-07T06:41:50Z</time>
      </trkpt>
      <trkpt lat="49.04858" lon="-0.32294">
        <ele>154.2</ele>
        <time>2024-04-07T06:41:51Z</time>
      </trkpt>
      <trkpt lat="49.04855" lon="-0.32299">
        <ele>154</ele>
        <time>2024-04-07T06:41:52Z</time>
      </trkpt>
      <trkpt lat="49.04847" lon="-0.32309">
        <ele>153.8</ele>
        <time>2024-04-07T06:41:53Z</time>
      </trkpt>
      <trkpt lat="49.04842" lon="-0.32316">
        <ele>153.6</ele>
        <time>2024-04-07T06:41:54Z</time>
      </trkpt>
      <trkpt lat="49.04837" lon="-0.32323">
        <ele>153.4</ele>
        <time>2024-04-07T06:41:55Z</time>
      </trkpt>
      <trkpt lat="49.04832" lon="-0.32331">
        <ele>153.2</ele>
        <time>2024-04-07T06:41:56Z</time>
      </trkpt>
      <trkpt lat="49.04828" lon="-0.32338">
        <ele>153</ele>
        <time>2024-04-07T06:41:57Z</time>
      </trkpt>
      <trkpt lat="49.04823" lon="-0.32345">
        <ele>152.8</ele>
        <time>2024-04-07T06:41:58Z</time>
      </trkpt>
      <trkpt lat="49.04818" lon="-0.32353">
        <ele>152.8</ele>
        <time>2024-04-07T06:41:59Z</time>
      </trkpt>
      <trkpt lat="49.04814" lon="-0.32361">
        <ele>152.6</ele>
        <time>2024-04-07T06:42:00Z</time>
      </trkpt>
      <trkpt lat="49.04812" lon="-0.32365">
        <ele>152.6</ele>
        <time>2024-04-07T06:42:01Z</time>
      </trkpt>
      <trkpt lat="49.0481" lon="-0.32369">
        <ele>152.4</ele>
        <time>2024-04-07T06:42:02Z</time>
      </trkpt>
      <trkpt lat="49.04801" lon="-0.32387">
        <ele>152.2</ele>
        <time>2024-04-07T06:42:03Z</time>
      </trkpt>
      <trkpt lat="49.04799" lon="-0.32392">
        <ele>151.8</ele>
        <time>2024-04-07T06:42:04Z</time>
      </trkpt>
      <trkpt lat="49.04798" lon="-0.32397">
        <ele>151.6</ele>
        <time>2024-04-07T06:42:05Z</time>
      </trkpt>
      <trkpt lat="49.04794" lon="-0.32408">
        <ele>151.6</ele>
        <time>2024-04-07T06:42:06Z</time>
      </trkpt>
      <trkpt lat="49.04792" lon="-0.32419">
        <ele>151.4</ele>
        <time>2024-04-07T06:42:07Z</time>
      </trkpt>
      <trkpt lat="49.04789" lon="-0.32429">
        <ele>151.4</ele>
        <time>2024-04-07T06:42:08Z</time>
      </trkpt>
      <trkpt lat="49.04784" lon="-0.32448">
        <ele>151.2</ele>
        <time>2024-04-07T06:42:09Z</time>
      </trkpt>
      <trkpt lat="49.04782" lon="-0.32457">
        <ele>151.2</ele>
        <time>2024-04-07T06:42:10Z</time>
      </trkpt>
      <trkpt lat="49.0478" lon="-0.32466">
        <ele>151.2</ele>
        <time>2024-04-07T06:42:11Z</time>
      </trkpt>
      <trkpt lat="49.0478" lon="-0.32466">
        <ele>151.2</ele>
        <time>2024-04-07T06:42:12Z</time>
      </trkpt>
      <trkpt lat="49.04772" lon="-0.32483">
        <ele>151</ele>
        <time>2024-04-07T06:42:13Z</time>
      </trkpt>
      <trkpt lat="49.04768" lon="-0.32491">
        <ele>150.8</ele>
        <time>2024-04-07T06:42:14Z</time>
      </trkpt>
      <trkpt lat="49.04763" lon="-0.32498">
        <ele>150.6</ele>
        <time>2024-04-07T06:42:15Z</time>
      </trkpt>
      <trkpt lat="49.04758" lon="-0.32506">
        <ele>150.6</ele>
        <time>2024-04-07T06:42:16Z</time>
      </trkpt>
      <trkpt lat="49.04754" lon="-0.32512">
        <ele>150.4</ele>
        <time>2024-04-07T06:42:17Z</time>
      </trkpt>
      <trkpt lat="49.0475" lon="-0.32517">
        <ele>150.4</ele>
        <time>2024-04-07T06:42:18Z</time>
      </trkpt>
      <trkpt lat="49.04742" lon="-0.32528">
        <ele>150.4</ele>
        <time>2024-04-07T06:42:19Z</time>
      </trkpt>
      <trkpt lat="49.0474" lon="-0.32531">
        <ele>150.2</ele>
        <time>2024-04-07T06:42:20Z</time>
      </trkpt>
      <trkpt lat="49.04737" lon="-0.32534">
        <ele>150.2</ele>
        <time>2024-04-07T06:42:21Z</time>
      </trkpt>
      <trkpt lat="49.04731" lon="-0.32538">
        <ele>150</ele>
        <time>2024-04-07T06:42:22Z</time>
      </trkpt>
      <trkpt lat="49.04725" lon="-0.32542">
        <ele>149.6</ele>
        <time>2024-04-07T06:42:23Z</time>
      </trkpt>
      <trkpt lat="49.04719" lon="-0.32546">
        <ele>149.2</ele>
        <time>2024-04-07T06:42:24Z</time>
      </trkpt>
      <trkpt lat="49.04714" lon="-0.32549">
        <ele>148.8</ele>
        <time>2024-04-07T06:42:25Z</time>
      </trkpt>
      <trkpt lat="49.04708" lon="-0.32553">
        <ele>148.6</ele>
        <time>2024-04-07T06:42:26Z</time>
      </trkpt>
      <trkpt lat="49.04703" lon="-0.32557">
        <ele>148.4</ele>
        <time>2024-04-07T06:42:27Z</time>
      </trkpt>
      <trkpt lat="49.04696" lon="-0.32561">
        <ele>148.4</ele>
        <time>2024-04-07T06:42:28Z</time>
      </trkpt>
      <trkpt lat="49.0469" lon="-0.32566">
        <ele>148.2</ele>
        <time>2024-04-07T06:42:29Z</time>
      </trkpt>
      <trkpt lat="49.04684" lon="-0.3257">
        <ele>148.2</ele>
        <time>2024-04-07T06:42:30Z</time>
      </trkpt>
      <trkpt lat="49.04678" lon="-0.32576">
        <ele>148.2</ele>
        <time>2024-04-07T06:42:31Z</time>
      </trkpt>
      <trkpt lat="49.04668" lon="-0.32585">
        <ele>148.2</ele>
        <time>2024-04-07T06:42:32Z</time>
      </trkpt>
      <trkpt lat="49.04665" lon="-0.32589">
        <ele>148.2</ele>
        <time>2024-04-07T06:42:33Z</time>
      </trkpt>
      <trkpt lat="49.04658" lon="-0.32595">
        <ele>148.2</ele>
        <time>2024-04-07T06:42:34Z</time>
      </trkpt>
      <trkpt lat="49.04645" lon="-0.32607">
        <ele>148</ele>
        <time>2024-04-07T06:42:35Z</time>
      </trkpt>
      <trkpt lat="49.04642" lon="-0.32611">
        <ele>147.6</ele>
        <time>2024-04-07T06:42:36Z</time>
      </trkpt>
      <trkpt lat="49.04639" lon="-0.32614">
        <ele>147.2</ele>
        <time>2024-04-07T06:42:37Z</time>
      </trkpt>
      <trkpt lat="49.04626" lon="-0.32629">
        <ele>146.8</ele>
        <time>2024-04-07T06:42:38Z</time>
      </trkpt>
      <trkpt lat="49.04624" lon="-0.32634">
        <ele>146.6</ele>
        <time>2024-04-07T06:42:39Z</time>
      </trkpt>
      <trkpt lat="49.04621" lon="-0.32638">
        <ele>146.4</ele>
        <time>2024-04-07T06:42:40Z</time>
      </trkpt>
      <trkpt lat="49.04617" lon="-0.32648">
        <ele>146.2</ele>
        <time>2024-04-07T06:42:41Z</time>
      </trkpt>
      <trkpt lat="49.04611" lon="-0.3267">
        <ele>146</ele>
        <time>2024-04-07T06:42:42Z</time>
      </trkpt>
      <trkpt lat="49.04609" lon="-0.32675">
        <ele>145.8</ele>
        <time>2024-04-07T06:42:43Z</time>
      </trkpt>
      <trkpt lat="49.04607" lon="-0.3268">
        <ele>145.8</ele>
        <time>2024-04-07T06:42:44Z</time>
      </trkpt>
      <trkpt lat="49.04603" lon="-0.32688">
        <ele>145.8</ele>
        <time>2024-04-07T06:42:45Z</time>
      </trkpt>
      <trkpt lat="49.04598" lon="-0.32695">
        <ele>145.6</ele>
        <time>2024-04-07T06:42:46Z</time>
      </trkpt>
      <trkpt lat="49.04591" lon="-0.327">
        <ele>145.6</ele>
        <time>2024-04-07T06:42:47Z</time>
      </trkpt>
      <trkpt lat="49.04581" lon="-0.32707">
        <ele>145.4</ele>
        <time>2024-04-07T06:42:48Z</time>
      </trkpt>
      <trkpt lat="49.04578" lon="-0.32708">
        <ele>145.4</ele>
        <time>2024-04-07T06:42:49Z</time>
      </trkpt>
      <trkpt lat="49.04567" lon="-0.32714">
        <ele>145.4</ele>
        <time>2024-04-07T06:42:50Z</time>
      </trkpt>
      <trkpt lat="49.04564" lon="-0.32716">
        <ele>145.2</ele>
        <time>2024-04-07T06:42:51Z</time>
      </trkpt>
      <trkpt lat="49.04556" lon="-0.32719">
        <ele>145.2</ele>
        <time>2024-04-07T06:42:52Z</time>
      </trkpt>
      <trkpt lat="49.04543" lon="-0.32727">
        <ele>145.4</ele>
        <time>2024-04-07T06:42:53Z</time>
      </trkpt>
      <trkpt lat="49.04536" lon="-0.32732">
        <ele>145.4</ele>
        <time>2024-04-07T06:42:54Z</time>
      </trkpt>
      <trkpt lat="49.04532" lon="-0.32733">
        <ele>145.6</ele>
        <time>2024-04-07T06:42:55Z</time>
      </trkpt>
      <trkpt lat="49.04529" lon="-0.32735">
        <ele>145.6</ele>
        <time>2024-04-07T06:42:56Z</time>
      </trkpt>
      <trkpt lat="49.04522" lon="-0.32739">
        <ele>145.6</ele>
        <time>2024-04-07T06:42:57Z</time>
      </trkpt>
      <trkpt lat="49.04516" lon="-0.32746">
        <ele>145.4</ele>
        <time>2024-04-07T06:42:58Z</time>
      </trkpt>
      <trkpt lat="49.0451" lon="-0.32751">
        <ele>145.2</ele>
        <time>2024-04-07T06:42:59Z</time>
      </trkpt>
      <trkpt lat="49.04504" lon="-0.32755">
        <ele>145.2</ele>
        <time>2024-04-07T06:43:00Z</time>
      </trkpt>
      <trkpt lat="49.04498" lon="-0.32759">
        <ele>145</ele>
        <time>2024-04-07T06:43:01Z</time>
      </trkpt>
      <trkpt lat="49.04492" lon="-0.32763">
        <ele>145</ele>
        <time>2024-04-07T06:43:02Z</time>
      </trkpt>
      <trkpt lat="49.04486" lon="-0.32766">
        <ele>145</ele>
        <time>2024-04-07T06:43:03Z</time>
      </trkpt>
      <trkpt lat="49.0448" lon="-0.3277">
        <ele>145</ele>
        <time>2024-04-07T06:43:04Z</time>
      </trkpt>
      <trkpt lat="49.04473" lon="-0.32772">
        <ele>145.2</ele>
        <time>2024-04-07T06:43:05Z</time>
      </trkpt>
      <trkpt lat="49.04467" lon="-0.32773">
        <ele>145.4</ele>
        <time>2024-04-07T06:43:06Z</time>
      </trkpt>
      <trkpt lat="49.04457" lon="-0.32773">
        <ele>145.6</ele>
        <time>2024-04-07T06:43:07Z</time>
      </trkpt>
      <trkpt lat="49.04454" lon="-0.32772">
        <ele>145.8</ele>
        <time>2024-04-07T06:43:08Z</time>
      </trkpt>
      <trkpt lat="49.04448" lon="-0.32771">
        <ele>145.8</ele>
        <time>2024-04-07T06:43:09Z</time>
      </trkpt>
      <trkpt lat="49.04442" lon="-0.32769">
        <ele>146</ele>
        <time>2024-04-07T06:43:10Z</time>
      </trkpt>
      <trkpt lat="49.04435" lon="-0.32767">
        <ele>146</ele>
        <time>2024-04-07T06:43:11Z</time>
      </trkpt>
      <trkpt lat="49.04429" lon="-0.32764">
        <ele>146.2</ele>
        <time>2024-04-07T06:43:12Z</time>
      </trkpt>
      <trkpt lat="49.04422" lon="-0.32761">
        <ele>146.4</ele>
        <time>2024-04-07T06:43:13Z</time>
      </trkpt>
      <trkpt lat="49.0441" lon="-0.32755">
        <ele>146.4</ele>
        <time>2024-04-07T06:43:14Z</time>
      </trkpt>
      <trkpt lat="49.04406" lon="-0.32754">
        <ele>146.4</ele>
        <time>2024-04-07T06:43:15Z</time>
      </trkpt>
      <trkpt lat="49.04403" lon="-0.32753">
        <ele>146.4</ele>
        <time>2024-04-07T06:43:16Z</time>
      </trkpt>
      <trkpt lat="49.04397" lon="-0.32749">
        <ele>146.6</ele>
        <time>2024-04-07T06:43:17Z</time>
      </trkpt>
      <trkpt lat="49.0439" lon="-0.32746">
        <ele>146.6</ele>
        <time>2024-04-07T06:43:18Z</time>
      </trkpt>
      <trkpt lat="49.04384" lon="-0.32744">
        <ele>146.8</ele>
        <time>2024-04-07T06:43:19Z</time>
      </trkpt>
      <trkpt lat="49.04374" lon="-0.32741">
        <ele>146.8</ele>
        <time>2024-04-07T06:43:20Z</time>
      </trkpt>
      <trkpt lat="49.04371" lon="-0.32741">
        <ele>146.8</ele>
        <time>2024-04-07T06:43:21Z</time>
      </trkpt>
      <trkpt lat="49.04361" lon="-0.32739">
        <ele>146.8</ele>
        <time>2024-04-07T06:43:22Z</time>
      </trkpt>
      <trkpt lat="49.04358" lon="-0.32739">
        <ele>147</ele>
        <time>2024-04-07T06:43:23Z</time>
      </trkpt>
      <trkpt lat="49.04351" lon="-0.32739">
        <ele>147</ele>
        <time>2024-04-07T06:43:24Z</time>
      </trkpt>
      <trkpt lat="49.04345" lon="-0.32739">
        <ele>147.2</ele>
        <time>2024-04-07T06:43:25Z</time>
      </trkpt>
      <trkpt lat="49.04339" lon="-0.3274">
        <ele>147.4</ele>
        <time>2024-04-07T06:43:26Z</time>
      </trkpt>
      <trkpt lat="49.04333" lon="-0.32741">
        <ele>147.6</ele>
        <time>2024-04-07T06:43:27Z</time>
      </trkpt>
      <trkpt lat="49.04328" lon="-0.32742">
        <ele>147.8</ele>
        <time>2024-04-07T06:43:28Z</time>
      </trkpt>
      <trkpt lat="49.04318" lon="-0.32745">
        <ele>148.2</ele>
        <time>2024-04-07T06:43:29Z</time>
      </trkpt>
      <trkpt lat="49.04313" lon="-0.32746">
        <ele>148.6</ele>
        <time>2024-04-07T06:43:30Z</time>
      </trkpt>
      <trkpt lat="49.04313" lon="-0.32746">
        <ele>149.4</ele>
        <time>2024-04-07T06:43:31Z</time>
      </trkpt>
      <trkpt lat="49.04309" lon="-0.32748">
        <ele>150</ele>
        <time>2024-04-07T06:43:32Z</time>
      </trkpt>
      <trkpt lat="49.04302" lon="-0.3275">
        <ele>150.6</ele>
        <time>2024-04-07T06:43:33Z</time>
      </trkpt>
      <trkpt lat="49.043" lon="-0.32751">
        <ele>151</ele>
        <time>2024-04-07T06:43:34Z</time>
      </trkpt>
      <trkpt lat="49.04297" lon="-0.32753">
        <ele>151.2</ele>
        <time>2024-04-07T06:43:35Z</time>
      </trkpt>
      <trkpt lat="49.04293" lon="-0.32756">
        <ele>151.6</ele>
        <time>2024-04-07T06:43:36Z</time>
      </trkpt>
      <trkpt lat="49.0429" lon="-0.32758">
        <ele>152</ele>
        <time>2024-04-07T06:43:37Z</time>
      </trkpt>
      <trkpt lat="49.04286" lon="-0.3276">
        <ele>152.6</ele>
        <time>2024-04-07T06:43:38Z</time>
      </trkpt>
      <trkpt lat="49.04283" lon="-0.32761">
        <ele>153</ele>
        <time>2024-04-07T06:43:39Z</time>
      </trkpt>
      <trkpt lat="49.04279" lon="-0.32763">
        <ele>153.2</ele>
        <time>2024-04-07T06:43:40Z</time>
      </trkpt>
      <trkpt lat="49.04276" lon="-0.32764">
        <ele>153.4</ele>
        <time>2024-04-07T06:43:41Z</time>
      </trkpt>
      <trkpt lat="49.04272" lon="-0.32766">
        <ele>153.6</ele>
        <time>2024-04-07T06:43:42Z</time>
      </trkpt>
      <trkpt lat="49.04269" lon="-0.32768">
        <ele>153.8</ele>
        <time>2024-04-07T06:43:43Z</time>
      </trkpt>
      <trkpt lat="49.04265" lon="-0.3277">
        <ele>154</ele>
        <time>2024-04-07T06:43:44Z</time>
      </trkpt>
      <trkpt lat="49.04261" lon="-0.32772">
        <ele>154.2</ele>
        <time>2024-04-07T06:43:45Z</time>
      </trkpt>
      <trkpt lat="49.04257" lon="-0.32774">
        <ele>154.4</ele>
        <time>2024-04-07T06:43:46Z</time>
      </trkpt>
      <trkpt lat="49.04253" lon="-0.32776">
        <ele>154.6</ele>
        <time>2024-04-07T06:43:47Z</time>
      </trkpt>
      <trkpt lat="49.0425" lon="-0.32778">
        <ele>155</ele>
        <time>2024-04-07T06:43:48Z</time>
      </trkpt>
      <trkpt lat="49.04246" lon="-0.32781">
        <ele>155.2</ele>
        <time>2024-04-07T06:43:49Z</time>
      </trkpt>
      <trkpt lat="49.04243" lon="-0.32783">
        <ele>155.6</ele>
        <time>2024-04-07T06:43:50Z</time>
      </trkpt>
      <trkpt lat="49.04238" lon="-0.32785">
        <ele>156</ele>
        <time>2024-04-07T06:43:51Z</time>
      </trkpt>
      <trkpt lat="49.04234" lon="-0.32787">
        <ele>156.4</ele>
        <time>2024-04-07T06:43:52Z</time>
      </trkpt>
      <trkpt lat="49.04231" lon="-0.3279">
        <ele>156.6</ele>
        <time>2024-04-07T06:43:53Z</time>
      </trkpt>
      <trkpt lat="49.04227" lon="-0.32792">
        <ele>156.8</ele>
        <time>2024-04-07T06:43:54Z</time>
      </trkpt>
      <trkpt lat="49.04224" lon="-0.32795">
        <ele>157.2</ele>
        <time>2024-04-07T06:43:55Z</time>
      </trkpt>
      <trkpt lat="49.0422" lon="-0.32799">
        <ele>157.4</ele>
        <time>2024-04-07T06:43:56Z</time>
      </trkpt>
      <trkpt lat="49.04217" lon="-0.32803">
        <ele>157.6</ele>
        <time>2024-04-07T06:43:57Z</time>
      </trkpt>
      <trkpt lat="49.04212" lon="-0.32808">
        <ele>157.8</ele>
        <time>2024-04-07T06:43:58Z</time>
      </trkpt>
      <trkpt lat="49.0421" lon="-0.32811">
        <ele>158</ele>
        <time>2024-04-07T06:43:59Z</time>
      </trkpt>
      <trkpt lat="49.04207" lon="-0.32815">
        <ele>158.2</ele>
        <time>2024-04-07T06:44:00Z</time>
      </trkpt>
      <trkpt lat="49.04204" lon="-0.3282">
        <ele>158.6</ele>
        <time>2024-04-07T06:44:01Z</time>
      </trkpt>
      <trkpt lat="49.042" lon="-0.32824">
        <ele>159</ele>
        <time>2024-04-07T06:44:02Z</time>
      </trkpt>
      <trkpt lat="49.04197" lon="-0.32828">
        <ele>159.4</ele>
        <time>2024-04-07T06:44:03Z</time>
      </trkpt>
      <trkpt lat="49.04194" lon="-0.32832">
        <ele>159.6</ele>
        <time>2024-04-07T06:44:04Z</time>
      </trkpt>
      <trkpt lat="49.0419" lon="-0.32836">
        <ele>159.8</ele>
        <time>2024-04-07T06:44:05Z</time>
      </trkpt>
      <trkpt lat="49.04184" lon="-0.32844">
        <ele>160.2</ele>
        <time>2024-04-07T06:44:06Z</time>
      </trkpt>
      <trkpt lat="49.04182" lon="-0.32846">
        <ele>160.4</ele>
        <time>2024-04-07T06:44:07Z</time>
      </trkpt>
      <trkpt lat="49.04181" lon="-0.32848">
        <ele>160.8</ele>
        <time>2024-04-07T06:44:08Z</time>
      </trkpt>
      <trkpt lat="49.04178" lon="-0.32852">
        <ele>161</ele>
        <time>2024-04-07T06:44:09Z</time>
      </trkpt>
      <trkpt lat="49.04172" lon="-0.3286">
        <ele>161.4</ele>
        <time>2024-04-07T06:44:10Z</time>
      </trkpt>
      <trkpt lat="49.0417" lon="-0.32864">
        <ele>161.6</ele>
        <time>2024-04-07T06:44:11Z</time>
      </trkpt>
      <trkpt lat="49.04169" lon="-0.32866">
        <ele>162</ele>
        <time>2024-04-07T06:44:12Z</time>
      </trkpt>
      <trkpt lat="49.04168" lon="-0.32868">
        <ele>162.2</ele>
        <time>2024-04-07T06:44:13Z</time>
      </trkpt>
      <trkpt lat="49.04165" lon="-0.32872">
        <ele>162.6</ele>
        <time>2024-04-07T06:44:14Z</time>
      </trkpt>
      <trkpt lat="49.04162" lon="-0.32875">
        <ele>162.8</ele>
        <time>2024-04-07T06:44:15Z</time>
      </trkpt>
      <trkpt lat="49.0416" lon="-0.32878">
        <ele>163.2</ele>
        <time>2024-04-07T06:44:16Z</time>
      </trkpt>
      <trkpt lat="49.04157" lon="-0.32882">
        <ele>163.6</ele>
        <time>2024-04-07T06:44:17Z</time>
      </trkpt>
      <trkpt lat="49.04153" lon="-0.32888">
        <ele>163.8</ele>
        <time>2024-04-07T06:44:18Z</time>
      </trkpt>
      <trkpt lat="49.04151" lon="-0.3289">
        <ele>164</ele>
        <time>2024-04-07T06:44:19Z</time>
      </trkpt>
      <trkpt lat="49.04148" lon="-0.32894">
        <ele>164.2</ele>
        <time>2024-04-07T06:44:20Z</time>
      </trkpt>
      <trkpt lat="49.04144" lon="-0.32899">
        <ele>164.6</ele>
        <time>2024-04-07T06:44:21Z</time>
      </trkpt>
      <trkpt lat="49.04142" lon="-0.32901">
        <ele>164.8</ele>
        <time>2024-04-07T06:44:22Z</time>
      </trkpt>
      <trkpt lat="49.04137" lon="-0.32909">
        <ele>165</ele>
        <time>2024-04-07T06:44:23Z</time>
      </trkpt>
      <trkpt lat="49.04136" lon="-0.32911">
        <ele>165.2</ele>
        <time>2024-04-07T06:44:24Z</time>
      </trkpt>
      <trkpt lat="49.04135" lon="-0.32913">
        <ele>165.4</ele>
        <time>2024-04-07T06:44:25Z</time>
      </trkpt>
      <trkpt lat="49.04132" lon="-0.32917">
        <ele>165.8</ele>
        <time>2024-04-07T06:44:26Z</time>
      </trkpt>
      <trkpt lat="49.04129" lon="-0.32922">
        <ele>166</ele>
        <time>2024-04-07T06:44:27Z</time>
      </trkpt>
      <trkpt lat="49.04126" lon="-0.32926">
        <ele>166.2</ele>
        <time>2024-04-07T06:44:28Z</time>
      </trkpt>
      <trkpt lat="49.04121" lon="-0.32932">
        <ele>166.4</ele>
        <time>2024-04-07T06:44:29Z</time>
      </trkpt>
      <trkpt lat="49.04119" lon="-0.32934">
        <ele>166.6</ele>
        <time>2024-04-07T06:44:30Z</time>
      </trkpt>
      <trkpt lat="49.04116" lon="-0.32938">
        <ele>166.8</ele>
        <time>2024-04-07T06:44:31Z</time>
      </trkpt>
      <trkpt lat="49.04109" lon="-0.32947">
        <ele>167</ele>
        <time>2024-04-07T06:44:32Z</time>
      </trkpt>
      <trkpt lat="49.04107" lon="-0.32948">
        <ele>167.2</ele>
        <time>2024-04-07T06:44:33Z</time>
      </trkpt>
      <trkpt lat="49.04105" lon="-0.3295">
        <ele>167.4</ele>
        <time>2024-04-07T06:44:34Z</time>
      </trkpt>
      <trkpt lat="49.04099" lon="-0.32955">
        <ele>167.4</ele>
        <time>2024-04-07T06:44:35Z</time>
      </trkpt>
      <trkpt lat="49.04097" lon="-0.32956">
        <ele>167.6</ele>
        <time>2024-04-07T06:44:36Z</time>
      </trkpt>
      <trkpt lat="49.04093" lon="-0.32959">
        <ele>167.8</ele>
        <time>2024-04-07T06:44:37Z</time>
      </trkpt>
      <trkpt lat="49.04085" lon="-0.32965">
        <ele>168</ele>
        <time>2024-04-07T06:44:38Z</time>
      </trkpt>
      <trkpt lat="49.04083" lon="-0.32967">
        <ele>168.2</ele>
        <time>2024-04-07T06:44:39Z</time>
      </trkpt>
      <trkpt lat="49.04081" lon="-0.32969">
        <ele>168.2</ele>
        <time>2024-04-07T06:44:40Z</time>
      </trkpt>
      <trkpt lat="49.04077" lon="-0.32972">
        <ele>168.4</ele>
        <time>2024-04-07T06:44:41Z</time>
      </trkpt>
      <trkpt lat="49.04069" lon="-0.32977">
        <ele>168.6</ele>
        <time>2024-04-07T06:44:42Z</time>
      </trkpt>
      <trkpt lat="49.04067" lon="-0.32978">
        <ele>168.6</ele>
        <time>2024-04-07T06:44:43Z</time>
      </trkpt>
      <trkpt lat="49.04065" lon="-0.3298">
        <ele>168.8</ele>
        <time>2024-04-07T06:44:44Z</time>
      </trkpt>
      <trkpt lat="49.04061" lon="-0.32983">
        <ele>168.8</ele>
        <time>2024-04-07T06:44:45Z</time>
      </trkpt>
      <trkpt lat="49.04057" lon="-0.32986">
        <ele>168.8</ele>
        <time>2024-04-07T06:44:46Z</time>
      </trkpt>
      <trkpt lat="49.04054" lon="-0.32989">
        <ele>168.8</ele>
        <time>2024-04-07T06:44:47Z</time>
      </trkpt>
      <trkpt lat="49.0405" lon="-0.32992">
        <ele>168.8</ele>
        <time>2024-04-07T06:44:48Z</time>
      </trkpt>
      <trkpt lat="49.04046" lon="-0.32995">
        <ele>168.8</ele>
        <time>2024-04-07T06:44:49Z</time>
      </trkpt>
      <trkpt lat="49.04042" lon="-0.32998">
        <ele>168.8</ele>
        <time>2024-04-07T06:44:50Z</time>
      </trkpt>
      <trkpt lat="49.04037" lon="-0.33">
        <ele>169</ele>
        <time>2024-04-07T06:44:51Z</time>
      </trkpt>
      <trkpt lat="49.04033" lon="-0.33002">
        <ele>169.2</ele>
        <time>2024-04-07T06:44:52Z</time>
      </trkpt>
      <trkpt lat="49.04025" lon="-0.33007">
        <ele>169.4</ele>
        <time>2024-04-07T06:44:53Z</time>
      </trkpt>
      <trkpt lat="49.04023" lon="-0.33008">
        <ele>169.4</ele>
        <time>2024-04-07T06:44:54Z</time>
      </trkpt>
      <trkpt lat="49.04021" lon="-0.33009">
        <ele>169.6</ele>
        <time>2024-04-07T06:44:55Z</time>
      </trkpt>
      <trkpt lat="49.04017" lon="-0.33011">
        <ele>169.8</ele>
        <time>2024-04-07T06:44:56Z</time>
      </trkpt>
      <trkpt lat="49.04009" lon="-0.33015">
        <ele>170</ele>
        <time>2024-04-07T06:44:57Z</time>
      </trkpt>
      <trkpt lat="49.04007" lon="-0.33016">
        <ele>170.2</ele>
        <time>2024-04-07T06:44:58Z</time>
      </trkpt>
      <trkpt lat="49.04005" lon="-0.33018">
        <ele>170.6</ele>
        <time>2024-04-07T06:44:59Z</time>
      </trkpt>
      <trkpt lat="49.04" lon="-0.33019">
        <ele>171</ele>
        <time>2024-04-07T06:45:00Z</time>
      </trkpt>
      <trkpt lat="49.03996" lon="-0.33022">
        <ele>171</ele>
        <time>2024-04-07T06:45:01Z</time>
      </trkpt>
      <trkpt lat="49.03992" lon="-0.33024">
        <ele>171.2</ele>
        <time>2024-04-07T06:45:02Z</time>
      </trkpt>
      <trkpt lat="49.03988" lon="-0.33026">
        <ele>171.4</ele>
        <time>2024-04-07T06:45:03Z</time>
      </trkpt>
      <trkpt lat="49.03981" lon="-0.33029">
        <ele>171.4</ele>
        <time>2024-04-07T06:45:04Z</time>
      </trkpt>
      <trkpt lat="49.03979" lon="-0.3303">
        <ele>171.6</ele>
        <time>2024-04-07T06:45:05Z</time>
      </trkpt>
      <trkpt lat="49.03975" lon="-0.33032">
        <ele>171.6</ele>
        <time>2024-04-07T06:45:06Z</time>
      </trkpt>
      <trkpt lat="49.03971" lon="-0.33033">
        <ele>171.6</ele>
        <time>2024-04-07T06:45:07Z</time>
      </trkpt>
      <trkpt lat="49.03966" lon="-0.33034">
        <ele>171.8</ele>
        <time>2024-04-07T06:45:08Z</time>
      </trkpt>
      <trkpt lat="49.03961" lon="-0.33036">
        <ele>171.8</ele>
        <time>2024-04-07T06:45:09Z</time>
      </trkpt>
      <trkpt lat="49.03957" lon="-0.33038">
        <ele>172.2</ele>
        <time>2024-04-07T06:45:10Z</time>
      </trkpt>
      <trkpt lat="49.03952" lon="-0.3304">
        <ele>172.4</ele>
        <time>2024-04-07T06:45:11Z</time>
      </trkpt>
      <trkpt lat="49.03948" lon="-0.33042">
        <ele>172.6</ele>
        <time>2024-04-07T06:45:12Z</time>
      </trkpt>
      <trkpt lat="49.03944" lon="-0.33043">
        <ele>172.8</ele>
        <time>2024-04-07T06:45:13Z</time>
      </trkpt>
      <trkpt lat="49.0394" lon="-0.33045">
        <ele>173</ele>
        <time>2024-04-07T06:45:14Z</time>
      </trkpt>
      <trkpt lat="49.03936" lon="-0.33047">
        <ele>173.2</ele>
        <time>2024-04-07T06:45:15Z</time>
      </trkpt>
      <trkpt lat="49.03933" lon="-0.3305">
        <ele>173.2</ele>
        <time>2024-04-07T06:45:16Z</time>
      </trkpt>
      <trkpt lat="49.03929" lon="-0.33052">
        <ele>173.2</ele>
        <time>2024-04-07T06:45:17Z</time>
      </trkpt>
      <trkpt lat="49.03926" lon="-0.33054">
        <ele>173.4</ele>
        <time>2024-04-07T06:45:18Z</time>
      </trkpt>
      <trkpt lat="49.03922" lon="-0.33057">
        <ele>173.6</ele>
        <time>2024-04-07T06:45:19Z</time>
      </trkpt>
      <trkpt lat="49.03918" lon="-0.33059">
        <ele>173.8</ele>
        <time>2024-04-07T06:45:20Z</time>
      </trkpt>
      <trkpt lat="49.03914" lon="-0.33061">
        <ele>173.8</ele>
        <time>2024-04-07T06:45:21Z</time>
      </trkpt>
      <trkpt lat="49.0391" lon="-0.33062">
        <ele>174</ele>
        <time>2024-04-07T06:45:22Z</time>
      </trkpt>
      <trkpt lat="49.03906" lon="-0.33064">
        <ele>174</ele>
        <time>2024-04-07T06:45:23Z</time>
      </trkpt>
      <trkpt lat="49.03903" lon="-0.33068">
        <ele>174.2</ele>
        <time>2024-04-07T06:45:24Z</time>
      </trkpt>
      <trkpt lat="49.03899" lon="-0.33071">
        <ele>174.6</ele>
        <time>2024-04-07T06:45:25Z</time>
      </trkpt>
      <trkpt lat="49.03895" lon="-0.33074">
        <ele>175</ele>
        <time>2024-04-07T06:45:26Z</time>
      </trkpt>
      <trkpt lat="49.03891" lon="-0.33077">
        <ele>175.4</ele>
        <time>2024-04-07T06:45:27Z</time>
      </trkpt>
      <trkpt lat="49.03886" lon="-0.3308">
        <ele>175.8</ele>
        <time>2024-04-07T06:45:28Z</time>
      </trkpt>
      <trkpt lat="49.03882" lon="-0.33083">
        <ele>176</ele>
        <time>2024-04-07T06:45:29Z</time>
      </trkpt>
      <trkpt lat="49.03878" lon="-0.33087">
        <ele>176.2</ele>
        <time>2024-04-07T06:45:30Z</time>
      </trkpt>
      <trkpt lat="49.03873" lon="-0.3309">
        <ele>176.2</ele>
        <time>2024-04-07T06:45:31Z</time>
      </trkpt>
      <trkpt lat="49.03869" lon="-0.33094">
        <ele>176.4</ele>
        <time>2024-04-07T06:45:32Z</time>
      </trkpt>
      <trkpt lat="49.03865" lon="-0.33097">
        <ele>176.4</ele>
        <time>2024-04-07T06:45:33Z</time>
      </trkpt>
      <trkpt lat="49.0386" lon="-0.331">
        <ele>176.6</ele>
        <time>2024-04-07T06:45:34Z</time>
      </trkpt>
      <trkpt lat="49.03856" lon="-0.33103">
        <ele>176.8</ele>
        <time>2024-04-07T06:45:35Z</time>
      </trkpt>
      <trkpt lat="49.03851" lon="-0.33107">
        <ele>177</ele>
        <time>2024-04-07T06:45:36Z</time>
      </trkpt>
      <trkpt lat="49.03847" lon="-0.3311">
        <ele>177</ele>
        <time>2024-04-07T06:45:37Z</time>
      </trkpt>
      <trkpt lat="49.03839" lon="-0.33115">
        <ele>177.2</ele>
        <time>2024-04-07T06:45:38Z</time>
      </trkpt>
      <trkpt lat="49.03835" lon="-0.33118">
        <ele>177.2</ele>
        <time>2024-04-07T06:45:39Z</time>
      </trkpt>
      <trkpt lat="49.03831" lon="-0.33121">
        <ele>177.4</ele>
        <time>2024-04-07T06:45:40Z</time>
      </trkpt>
      <trkpt lat="49.03827" lon="-0.33124">
        <ele>177.4</ele>
        <time>2024-04-07T06:45:41Z</time>
      </trkpt>
      <trkpt lat="49.03823" lon="-0.33127">
        <ele>177.8</ele>
        <time>2024-04-07T06:45:42Z</time>
      </trkpt>
      <trkpt lat="49.03819" lon="-0.3313">
        <ele>178.2</ele>
        <time>2024-04-07T06:45:43Z</time>
      </trkpt>
      <trkpt lat="49.03815" lon="-0.33133">
        <ele>178.6</ele>
        <time>2024-04-07T06:45:44Z</time>
      </trkpt>
      <trkpt lat="49.03813" lon="-0.33134">
        <ele>178.8</ele>
        <time>2024-04-07T06:45:45Z</time>
      </trkpt>
      <trkpt lat="49.0381" lon="-0.33135">
        <ele>179</ele>
        <time>2024-04-07T06:45:46Z</time>
      </trkpt>
      <trkpt lat="49.03807" lon="-0.33138">
        <ele>179.2</ele>
        <time>2024-04-07T06:45:47Z</time>
      </trkpt>
      <trkpt lat="49.03803" lon="-0.33141">
        <ele>179.2</ele>
        <time>2024-04-07T06:45:48Z</time>
      </trkpt>
      <trkpt lat="49.03795" lon="-0.33147">
        <ele>179.4</ele>
        <time>2024-04-07T06:45:49Z</time>
      </trkpt>
      <trkpt lat="49.03791" lon="-0.33151">
        <ele>179.6</ele>
        <time>2024-04-07T06:45:50Z</time>
      </trkpt>
      <trkpt lat="49.03787" lon="-0.33154">
        <ele>179.6</ele>
        <time>2024-04-07T06:45:51Z</time>
      </trkpt>
      <trkpt lat="49.03785" lon="-0.33155">
        <ele>179.8</ele>
        <time>2024-04-07T06:45:52Z</time>
      </trkpt>
      <trkpt lat="49.03783" lon="-0.33157">
        <ele>179.8</ele>
        <time>2024-04-07T06:45:53Z</time>
      </trkpt>
      <trkpt lat="49.03779" lon="-0.3316">
        <ele>180</ele>
        <time>2024-04-07T06:45:54Z</time>
      </trkpt>
      <trkpt lat="49.03774" lon="-0.33163">
        <ele>180.4</ele>
        <time>2024-04-07T06:45:55Z</time>
      </trkpt>
      <trkpt lat="49.0377" lon="-0.33165">
        <ele>180.6</ele>
        <time>2024-04-07T06:45:56Z</time>
      </trkpt>
      <trkpt lat="49.03765" lon="-0.33168">
        <ele>180.8</ele>
        <time>2024-04-07T06:45:57Z</time>
      </trkpt>
      <trkpt lat="49.03761" lon="-0.33171">
        <ele>180.8</ele>
        <time>2024-04-07T06:45:58Z</time>
      </trkpt>
      <trkpt lat="49.03753" lon="-0.33177">
        <ele>180.8</ele>
        <time>2024-04-07T06:45:59Z</time>
      </trkpt>
      <trkpt lat="49.03749" lon="-0.33181">
        <ele>181</ele>
        <time>2024-04-07T06:46:00Z</time>
      </trkpt>
      <trkpt lat="49.03748" lon="-0.33182">
        <ele>181</ele>
        <time>2024-04-07T06:46:01Z</time>
      </trkpt>
      <trkpt lat="49.03746" lon="-0.33184">
        <ele>181.2</ele>
        <time>2024-04-07T06:46:02Z</time>
      </trkpt>
      <trkpt lat="49.03742" lon="-0.33187">
        <ele>181.2</ele>
        <time>2024-04-07T06:46:03Z</time>
      </trkpt>
      <trkpt lat="49.03733" lon="-0.33193">
        <ele>181.6</ele>
        <time>2024-04-07T06:46:04Z</time>
      </trkpt>
      <trkpt lat="49.03729" lon="-0.33196">
        <ele>181.8</ele>
        <time>2024-04-07T06:46:05Z</time>
      </trkpt>
      <trkpt lat="49.03725" lon="-0.33199">
        <ele>182</ele>
        <time>2024-04-07T06:46:06Z</time>
      </trkpt>
      <trkpt lat="49.0372" lon="-0.33202">
        <ele>182.2</ele>
        <time>2024-04-07T06:46:07Z</time>
      </trkpt>
      <trkpt lat="49.03718" lon="-0.33203">
        <ele>182.4</ele>
        <time>2024-04-07T06:46:08Z</time>
      </trkpt>
      <trkpt lat="49.03716" lon="-0.33204">
        <ele>182.6</ele>
        <time>2024-04-07T06:46:09Z</time>
      </trkpt>
      <trkpt lat="49.03712" lon="-0.33207">
        <ele>182.8</ele>
        <time>2024-04-07T06:46:10Z</time>
      </trkpt>
      <trkpt lat="49.03708" lon="-0.33209">
        <ele>183</ele>
        <time>2024-04-07T06:46:11Z</time>
      </trkpt>
      <trkpt lat="49.03703" lon="-0.33212">
        <ele>183</ele>
        <time>2024-04-07T06:46:12Z</time>
      </trkpt>
      <trkpt lat="49.03695" lon="-0.33215">
        <ele>183.2</ele>
        <time>2024-04-07T06:46:13Z</time>
      </trkpt>
      <trkpt lat="49.0369" lon="-0.33216">
        <ele>183.4</ele>
        <time>2024-04-07T06:46:14Z</time>
      </trkpt>
      <trkpt lat="49.03686" lon="-0.33217">
        <ele>183.6</ele>
        <time>2024-04-07T06:46:15Z</time>
      </trkpt>
      <trkpt lat="49.03681" lon="-0.33218">
        <ele>184</ele>
        <time>2024-04-07T06:46:16Z</time>
      </trkpt>
      <trkpt lat="49.03677" lon="-0.33219">
        <ele>184.2</ele>
        <time>2024-04-07T06:46:17Z</time>
      </trkpt>
      <trkpt lat="49.03672" lon="-0.3322">
        <ele>184.4</ele>
        <time>2024-04-07T06:46:18Z</time>
      </trkpt>
      <trkpt lat="49.0367" lon="-0.3322">
        <ele>184.6</ele>
        <time>2024-04-07T06:46:19Z</time>
      </trkpt>
      <trkpt lat="49.03668" lon="-0.3322">
        <ele>184.8</ele>
        <time>2024-04-07T06:46:20Z</time>
      </trkpt>
      <trkpt lat="49.03664" lon="-0.3322">
        <ele>185</ele>
        <time>2024-04-07T06:46:21Z</time>
      </trkpt>
      <trkpt lat="49.0366" lon="-0.3322">
        <ele>185</ele>
        <time>2024-04-07T06:46:22Z</time>
      </trkpt>
      <trkpt lat="49.03656" lon="-0.3322">
        <ele>185.2</ele>
        <time>2024-04-07T06:46:23Z</time>
      </trkpt>
      <trkpt lat="49.03652" lon="-0.3322">
        <ele>185.4</ele>
        <time>2024-04-07T06:46:24Z</time>
      </trkpt>
      <trkpt lat="49.03648" lon="-0.3322">
        <ele>185.6</ele>
        <time>2024-04-07T06:46:25Z</time>
      </trkpt>
      <trkpt lat="49.03641" lon="-0.33218">
        <ele>186</ele>
        <time>2024-04-07T06:46:26Z</time>
      </trkpt>
      <trkpt lat="49.03638" lon="-0.33218">
        <ele>186.2</ele>
        <time>2024-04-07T06:46:27Z</time>
      </trkpt>
      <trkpt lat="49.03634" lon="-0.33217">
        <ele>186.4</ele>
        <time>2024-04-07T06:46:28Z</time>
      </trkpt>
      <trkpt lat="49.03629" lon="-0.33217">
        <ele>186.6</ele>
        <time>2024-04-07T06:46:29Z</time>
      </trkpt>
      <trkpt lat="49.03624" lon="-0.33217">
        <ele>186.6</ele>
        <time>2024-04-07T06:46:30Z</time>
      </trkpt>
      <trkpt lat="49.0362" lon="-0.33217">
        <ele>187</ele>
        <time>2024-04-07T06:46:31Z</time>
      </trkpt>
      <trkpt lat="49.03615" lon="-0.33217">
        <ele>187.2</ele>
        <time>2024-04-07T06:46:32Z</time>
      </trkpt>
      <trkpt lat="49.03606" lon="-0.33217">
        <ele>187.6</ele>
        <time>2024-04-07T06:46:33Z</time>
      </trkpt>
      <trkpt lat="49.03602" lon="-0.33218">
        <ele>187.8</ele>
        <time>2024-04-07T06:46:34Z</time>
      </trkpt>
      <trkpt lat="49.03602" lon="-0.33218">
        <ele>188</ele>
        <time>2024-04-07T06:46:35Z</time>
      </trkpt>
      <trkpt lat="49.03597" lon="-0.33218">
        <ele>188.4</ele>
        <time>2024-04-07T06:46:36Z</time>
      </trkpt>
      <trkpt lat="49.03591" lon="-0.33218">
        <ele>188.6</ele>
        <time>2024-04-07T06:46:37Z</time>
      </trkpt>
      <trkpt lat="49.03589" lon="-0.33218">
        <ele>188.6</ele>
        <time>2024-04-07T06:46:38Z</time>
      </trkpt>
      <trkpt lat="49.03584" lon="-0.33219">
        <ele>188.6</ele>
        <time>2024-04-07T06:46:39Z</time>
      </trkpt>
      <trkpt lat="49.0358" lon="-0.33219">
        <ele>188.8</ele>
        <time>2024-04-07T06:46:40Z</time>
      </trkpt>
      <trkpt lat="49.03573" lon="-0.33219">
        <ele>188.8</ele>
        <time>2024-04-07T06:46:41Z</time>
      </trkpt>
      <trkpt lat="49.03571" lon="-0.3322">
        <ele>188.8</ele>
        <time>2024-04-07T06:46:42Z</time>
      </trkpt>
      <trkpt lat="49.03567" lon="-0.33221">
        <ele>189</ele>
        <time>2024-04-07T06:46:43Z</time>
      </trkpt>
      <trkpt lat="49.03558" lon="-0.33223">
        <ele>189</ele>
        <time>2024-04-07T06:46:44Z</time>
      </trkpt>
      <trkpt lat="49.03556" lon="-0.33224">
        <ele>189.2</ele>
        <time>2024-04-07T06:46:45Z</time>
      </trkpt>
      <trkpt lat="49.03554" lon="-0.33224">
        <ele>189.6</ele>
        <time>2024-04-07T06:46:46Z</time>
      </trkpt>
      <trkpt lat="49.0355" lon="-0.33225">
        <ele>189.8</ele>
        <time>2024-04-07T06:46:47Z</time>
      </trkpt>
      <trkpt lat="49.03545" lon="-0.33226">
        <ele>190.2</ele>
        <time>2024-04-07T06:46:48Z</time>
      </trkpt>
      <trkpt lat="49.0354" lon="-0.33228">
        <ele>190.4</ele>
        <time>2024-04-07T06:46:49Z</time>
      </trkpt>
      <trkpt lat="49.03531" lon="-0.33231">
        <ele>190.6</ele>
        <time>2024-04-07T06:46:50Z</time>
      </trkpt>
      <trkpt lat="49.03528" lon="-0.33231">
        <ele>190.8</ele>
        <time>2024-04-07T06:46:51Z</time>
      </trkpt>
      <trkpt lat="49.03526" lon="-0.33232">
        <ele>190.8</ele>
        <time>2024-04-07T06:46:52Z</time>
      </trkpt>
      <trkpt lat="49.03516" lon="-0.33235">
        <ele>190.6</ele>
        <time>2024-04-07T06:46:53Z</time>
      </trkpt>
      <trkpt lat="49.03512" lon="-0.33237">
        <ele>190.4</ele>
        <time>2024-04-07T06:46:54Z</time>
      </trkpt>
      <trkpt lat="49.03509" lon="-0.33237">
        <ele>190.2</ele>
        <time>2024-04-07T06:46:55Z</time>
      </trkpt>
      <trkpt lat="49.03507" lon="-0.33238">
        <ele>190.2</ele>
        <time>2024-04-07T06:46:56Z</time>
      </trkpt>
      <trkpt lat="49.03498" lon="-0.33241">
        <ele>190.2</ele>
        <time>2024-04-07T06:46:57Z</time>
      </trkpt>
      <trkpt lat="49.03495" lon="-0.33242">
        <ele>190.2</ele>
        <time>2024-04-07T06:46:58Z</time>
      </trkpt>
      <trkpt lat="49.03493" lon="-0.33242">
        <ele>190.4</ele>
        <time>2024-04-07T06:46:59Z</time>
      </trkpt>
      <trkpt lat="49.03489" lon="-0.33244">
        <ele>190.6</ele>
        <time>2024-04-07T06:47:00Z</time>
      </trkpt>
      <trkpt lat="49.03484" lon="-0.33245">
        <ele>190.8</ele>
        <time>2024-04-07T06:47:01Z</time>
      </trkpt>
      <trkpt lat="49.03479" lon="-0.33247">
        <ele>191.2</ele>
        <time>2024-04-07T06:47:02Z</time>
      </trkpt>
      <trkpt lat="49.03474" lon="-0.33248">
        <ele>191.6</ele>
        <time>2024-04-07T06:47:03Z</time>
      </trkpt>
      <trkpt lat="49.0347" lon="-0.3325">
        <ele>192</ele>
        <time>2024-04-07T06:47:04Z</time>
      </trkpt>
      <trkpt lat="49.03465" lon="-0.33251">
        <ele>192.2</ele>
        <time>2024-04-07T06:47:05Z</time>
      </trkpt>
      <trkpt lat="49.0346" lon="-0.33253">
        <ele>192.4</ele>
        <time>2024-04-07T06:47:06Z</time>
      </trkpt>
      <trkpt lat="49.03456" lon="-0.33256">
        <ele>192.8</ele>
        <time>2024-04-07T06:47:07Z</time>
      </trkpt>
      <trkpt lat="49.03451" lon="-0.33258">
        <ele>193</ele>
        <time>2024-04-07T06:47:08Z</time>
      </trkpt>
      <trkpt lat="49.03446" lon="-0.3326">
        <ele>193.2</ele>
        <time>2024-04-07T06:47:09Z</time>
      </trkpt>
      <trkpt lat="49.03441" lon="-0.33262">
        <ele>193.4</ele>
        <time>2024-04-07T06:47:10Z</time>
      </trkpt>
      <trkpt lat="49.03436" lon="-0.33264">
        <ele>193.6</ele>
        <time>2024-04-07T06:47:11Z</time>
      </trkpt>
      <trkpt lat="49.03431" lon="-0.33266">
        <ele>193.6</ele>
        <time>2024-04-07T06:47:12Z</time>
      </trkpt>
      <trkpt lat="49.03427" lon="-0.33268">
        <ele>193.8</ele>
        <time>2024-04-07T06:47:13Z</time>
      </trkpt>
      <trkpt lat="49.03422" lon="-0.33271">
        <ele>193.8</ele>
        <time>2024-04-07T06:47:14Z</time>
      </trkpt>
      <trkpt lat="49.03417" lon="-0.33273">
        <ele>193.8</ele>
        <time>2024-04-07T06:47:15Z</time>
      </trkpt>
      <trkpt lat="49.03412" lon="-0.33276">
        <ele>193.8</ele>
        <time>2024-04-07T06:47:16Z</time>
      </trkpt>
      <trkpt lat="49.03407" lon="-0.33279">
        <ele>193.8</ele>
        <time>2024-04-07T06:47:17Z</time>
      </trkpt>
      <trkpt lat="49.03398" lon="-0.33285">
        <ele>193.8</ele>
        <time>2024-04-07T06:47:18Z</time>
      </trkpt>
      <trkpt lat="49.03396" lon="-0.33286">
        <ele>193.8</ele>
        <time>2024-04-07T06:47:19Z</time>
      </trkpt>
      <trkpt lat="49.03394" lon="-0.33287">
        <ele>193.8</ele>
        <time>2024-04-07T06:47:20Z</time>
      </trkpt>
      <trkpt lat="49.03389" lon="-0.3329">
        <ele>193.8</ele>
        <time>2024-04-07T06:47:21Z</time>
      </trkpt>
      <trkpt lat="49.0338" lon="-0.33295">
        <ele>193.8</ele>
        <time>2024-04-07T06:47:22Z</time>
      </trkpt>
      <trkpt lat="49.03377" lon="-0.33296">
        <ele>193.8</ele>
        <time>2024-04-07T06:47:23Z</time>
      </trkpt>
      <trkpt lat="49.03375" lon="-0.33298">
        <ele>193.8</ele>
        <time>2024-04-07T06:47:24Z</time>
      </trkpt>
      <trkpt lat="49.0337" lon="-0.333">
        <ele>193.8</ele>
        <time>2024-04-07T06:47:25Z</time>
      </trkpt>
      <trkpt lat="49.03365" lon="-0.33303">
        <ele>193.8</ele>
        <time>2024-04-07T06:47:26Z</time>
      </trkpt>
      <trkpt lat="49.03361" lon="-0.33306">
        <ele>194</ele>
        <time>2024-04-07T06:47:27Z</time>
      </trkpt>
      <trkpt lat="49.03356" lon="-0.33308">
        <ele>194.2</ele>
        <time>2024-04-07T06:47:28Z</time>
      </trkpt>
      <trkpt lat="49.03351" lon="-0.33311">
        <ele>194.2</ele>
        <time>2024-04-07T06:47:29Z</time>
      </trkpt>
      <trkpt lat="49.03346" lon="-0.33314">
        <ele>194</ele>
        <time>2024-04-07T06:47:30Z</time>
      </trkpt>
      <trkpt lat="49.03341" lon="-0.33317">
        <ele>194</ele>
        <time>2024-04-07T06:47:31Z</time>
      </trkpt>
      <trkpt lat="49.03337" lon="-0.3332">
        <ele>194.2</ele>
        <time>2024-04-07T06:47:32Z</time>
      </trkpt>
      <trkpt lat="49.03332" lon="-0.33323">
        <ele>194.4</ele>
        <time>2024-04-07T06:47:33Z</time>
      </trkpt>
      <trkpt lat="49.03327" lon="-0.33326">
        <ele>194.6</ele>
        <time>2024-04-07T06:47:34Z</time>
      </trkpt>
      <trkpt lat="49.0332" lon="-0.33331">
        <ele>194.6</ele>
        <time>2024-04-07T06:47:35Z</time>
      </trkpt>
      <trkpt lat="49.03317" lon="-0.33332">
        <ele>194.6</ele>
        <time>2024-04-07T06:47:36Z</time>
      </trkpt>
      <trkpt lat="49.03312" lon="-0.33335">
        <ele>194.8</ele>
        <time>2024-04-07T06:47:37Z</time>
      </trkpt>
      <trkpt lat="49.03308" lon="-0.33339">
        <ele>194.8</ele>
        <time>2024-04-07T06:47:38Z</time>
      </trkpt>
      <trkpt lat="49.03303" lon="-0.33342">
        <ele>195</ele>
        <time>2024-04-07T06:47:39Z</time>
      </trkpt>
      <trkpt lat="49.03298" lon="-0.33345">
        <ele>195</ele>
        <time>2024-04-07T06:47:40Z</time>
      </trkpt>
      <trkpt lat="49.03293" lon="-0.33348">
        <ele>195</ele>
        <time>2024-04-07T06:47:41Z</time>
      </trkpt>
      <trkpt lat="49.03289" lon="-0.33351">
        <ele>195.2</ele>
        <time>2024-04-07T06:47:42Z</time>
      </trkpt>
      <trkpt lat="49.03284" lon="-0.33354">
        <ele>195.4</ele>
        <time>2024-04-07T06:47:43Z</time>
      </trkpt>
      <trkpt lat="49.0328" lon="-0.33357">
        <ele>195.8</ele>
        <time>2024-04-07T06:47:44Z</time>
      </trkpt>
      <trkpt lat="49.03273" lon="-0.33362">
        <ele>196.2</ele>
        <time>2024-04-07T06:47:45Z</time>
      </trkpt>
      <trkpt lat="49.03271" lon="-0.33363">
        <ele>196.4</ele>
        <time>2024-04-07T06:47:46Z</time>
      </trkpt>
      <trkpt lat="49.03266" lon="-0.33367">
        <ele>196.4</ele>
        <time>2024-04-07T06:47:47Z</time>
      </trkpt>
      <trkpt lat="49.03262" lon="-0.33369">
        <ele>196.6</ele>
        <time>2024-04-07T06:47:48Z</time>
      </trkpt>
      <trkpt lat="49.03257" lon="-0.33372">
        <ele>196.6</ele>
        <time>2024-04-07T06:47:49Z</time>
      </trkpt>
      <trkpt lat="49.03252" lon="-0.33375">
        <ele>196.6</ele>
        <time>2024-04-07T06:47:50Z</time>
      </trkpt>
      <trkpt lat="49.03248" lon="-0.33378">
        <ele>196.8</ele>
        <time>2024-04-07T06:47:51Z</time>
      </trkpt>
      <trkpt lat="49.03243" lon="-0.3338">
        <ele>196.8</ele>
        <time>2024-04-07T06:47:52Z</time>
      </trkpt>
      <trkpt lat="49.03239" lon="-0.33383">
        <ele>196.8</ele>
        <time>2024-04-07T06:47:53Z</time>
      </trkpt>
      <trkpt lat="49.03234" lon="-0.33386">
        <ele>197</ele>
        <time>2024-04-07T06:47:54Z</time>
      </trkpt>
      <trkpt lat="49.03229" lon="-0.33389">
        <ele>197.2</ele>
        <time>2024-04-07T06:47:55Z</time>
      </trkpt>
      <trkpt lat="49.03225" lon="-0.33392">
        <ele>197.4</ele>
        <time>2024-04-07T06:47:56Z</time>
      </trkpt>
      <trkpt lat="49.0322" lon="-0.33395">
        <ele>197.4</ele>
        <time>2024-04-07T06:47:57Z</time>
      </trkpt>
      <trkpt lat="49.03216" lon="-0.33398">
        <ele>197.6</ele>
        <time>2024-04-07T06:47:58Z</time>
      </trkpt>
      <trkpt lat="49.03211" lon="-0.33401">
        <ele>197.6</ele>
        <time>2024-04-07T06:47:59Z</time>
      </trkpt>
      <trkpt lat="49.03206" lon="-0.33404">
        <ele>197.8</ele>
        <time>2024-04-07T06:48:00Z</time>
      </trkpt>
      <trkpt lat="49.03197" lon="-0.33411">
        <ele>197.8</ele>
        <time>2024-04-07T06:48:01Z</time>
      </trkpt>
      <trkpt lat="49.03194" lon="-0.33413">
        <ele>197.8</ele>
        <time>2024-04-07T06:48:02Z</time>
      </trkpt>
      <trkpt lat="49.03191" lon="-0.33415">
        <ele>197.8</ele>
        <time>2024-04-07T06:48:03Z</time>
      </trkpt>
      <trkpt lat="49.03184" lon="-0.33419">
        <ele>198</ele>
        <time>2024-04-07T06:48:04Z</time>
      </trkpt>
      <trkpt lat="49.03182" lon="-0.33421">
        <ele>198</ele>
        <time>2024-04-07T06:48:05Z</time>
      </trkpt>
      <trkpt lat="49.03179" lon="-0.33422">
        <ele>198</ele>
        <time>2024-04-07T06:48:06Z</time>
      </trkpt>
      <trkpt lat="49.03175" lon="-0.33425">
        <ele>198.2</ele>
        <time>2024-04-07T06:48:07Z</time>
      </trkpt>
      <trkpt lat="49.03168" lon="-0.3343">
        <ele>198.2</ele>
        <time>2024-04-07T06:48:08Z</time>
      </trkpt>
      <trkpt lat="49.03165" lon="-0.33431">
        <ele>198.4</ele>
        <time>2024-04-07T06:48:09Z</time>
      </trkpt>
      <trkpt lat="49.03161" lon="-0.33434">
        <ele>198.6</ele>
        <time>2024-04-07T06:48:10Z</time>
      </trkpt>
      <trkpt lat="49.03156" lon="-0.33437">
        <ele>199</ele>
        <time>2024-04-07T06:48:11Z</time>
      </trkpt>
      <trkpt lat="49.03147" lon="-0.33443">
        <ele>199.2</ele>
        <time>2024-04-07T06:48:12Z</time>
      </trkpt>
      <trkpt lat="49.03145" lon="-0.33445">
        <ele>199.4</ele>
        <time>2024-04-07T06:48:13Z</time>
      </trkpt>
      <trkpt lat="49.03142" lon="-0.33447">
        <ele>199.6</ele>
        <time>2024-04-07T06:48:14Z</time>
      </trkpt>
      <trkpt lat="49.03137" lon="-0.3345">
        <ele>199.8</ele>
        <time>2024-04-07T06:48:15Z</time>
      </trkpt>
      <trkpt lat="49.03133" lon="-0.33454">
        <ele>200</ele>
        <time>2024-04-07T06:48:16Z</time>
      </trkpt>
      <trkpt lat="49.03128" lon="-0.33457">
        <ele>200.4</ele>
        <time>2024-04-07T06:48:17Z</time>
      </trkpt>
      <trkpt lat="49.03123" lon="-0.3346">
        <ele>200.8</ele>
        <time>2024-04-07T06:48:18Z</time>
      </trkpt>
      <trkpt lat="49.03113" lon="-0.33466">
        <ele>201.2</ele>
        <time>2024-04-07T06:48:19Z</time>
      </trkpt>
      <trkpt lat="49.03111" lon="-0.33468">
        <ele>201.6</ele>
        <time>2024-04-07T06:48:20Z</time>
      </trkpt>
      <trkpt lat="49.03108" lon="-0.3347">
        <ele>202</ele>
        <time>2024-04-07T06:48:21Z</time>
      </trkpt>
      <trkpt lat="49.03104" lon="-0.33472">
        <ele>202.4</ele>
        <time>2024-04-07T06:48:22Z</time>
      </trkpt>
      <trkpt lat="49.03099" lon="-0.33476">
        <ele>202.8</ele>
        <time>2024-04-07T06:48:23Z</time>
      </trkpt>
      <trkpt lat="49.03094" lon="-0.33479">
        <ele>203</ele>
        <time>2024-04-07T06:48:24Z</time>
      </trkpt>
      <trkpt lat="49.03089" lon="-0.33482">
        <ele>203.2</ele>
        <time>2024-04-07T06:48:25Z</time>
      </trkpt>
      <trkpt lat="49.03085" lon="-0.33485">
        <ele>203.4</ele>
        <time>2024-04-07T06:48:26Z</time>
      </trkpt>
      <trkpt lat="49.03075" lon="-0.33491">
        <ele>203.6</ele>
        <time>2024-04-07T06:48:27Z</time>
      </trkpt>
      <trkpt lat="49.03073" lon="-0.33493">
        <ele>203.8</ele>
        <time>2024-04-07T06:48:28Z</time>
      </trkpt>
      <trkpt lat="49.03071" lon="-0.33494">
        <ele>204</ele>
        <time>2024-04-07T06:48:29Z</time>
      </trkpt>
      <trkpt lat="49.03066" lon="-0.33498">
        <ele>204.2</ele>
        <time>2024-04-07T06:48:30Z</time>
      </trkpt>
      <trkpt lat="49.03061" lon="-0.33501">
        <ele>204.2</ele>
        <time>2024-04-07T06:48:31Z</time>
      </trkpt>
      <trkpt lat="49.03057" lon="-0.33504">
        <ele>204.2</ele>
        <time>2024-04-07T06:48:32Z</time>
      </trkpt>
      <trkpt lat="49.03052" lon="-0.33507">
        <ele>204</ele>
        <time>2024-04-07T06:48:33Z</time>
      </trkpt>
      <trkpt lat="49.03048" lon="-0.3351">
        <ele>203.8</ele>
        <time>2024-04-07T06:48:34Z</time>
      </trkpt>
      <trkpt lat="49.03043" lon="-0.33513">
        <ele>203.6</ele>
        <time>2024-04-07T06:48:35Z</time>
      </trkpt>
      <trkpt lat="49.03039" lon="-0.33516">
        <ele>203.6</ele>
        <time>2024-04-07T06:48:36Z</time>
      </trkpt>
      <trkpt lat="49.03034" lon="-0.33519">
        <ele>203.6</ele>
        <time>2024-04-07T06:48:37Z</time>
      </trkpt>
      <trkpt lat="49.03025" lon="-0.33525">
        <ele>203.6</ele>
        <time>2024-04-07T06:48:38Z</time>
      </trkpt>
      <trkpt lat="49.03023" lon="-0.33526">
        <ele>203.6</ele>
        <time>2024-04-07T06:48:39Z</time>
      </trkpt>
      <trkpt lat="49.03021" lon="-0.33527">
        <ele>203.8</ele>
        <time>2024-04-07T06:48:40Z</time>
      </trkpt>
      <trkpt lat="49.03016" lon="-0.3353">
        <ele>204</ele>
        <time>2024-04-07T06:48:41Z</time>
      </trkpt>
      <trkpt lat="49.03012" lon="-0.33533">
        <ele>204.2</ele>
        <time>2024-04-07T06:48:42Z</time>
      </trkpt>
      <trkpt lat="49.03007" lon="-0.33536">
        <ele>204.6</ele>
        <time>2024-04-07T06:48:43Z</time>
      </trkpt>
      <trkpt lat="49.03002" lon="-0.3354">
        <ele>205.2</ele>
        <time>2024-04-07T06:48:44Z</time>
      </trkpt>
      <trkpt lat="49.02998" lon="-0.33543">
        <ele>205.8</ele>
        <time>2024-04-07T06:48:45Z</time>
      </trkpt>
      <trkpt lat="49.02993" lon="-0.33546">
        <ele>206</ele>
        <time>2024-04-07T06:48:46Z</time>
      </trkpt>
      <trkpt lat="49.02988" lon="-0.33549">
        <ele>206.2</ele>
        <time>2024-04-07T06:48:47Z</time>
      </trkpt>
      <trkpt lat="49.02984" lon="-0.33552">
        <ele>206.4</ele>
        <time>2024-04-07T06:48:48Z</time>
      </trkpt>
      <trkpt lat="49.02979" lon="-0.33555">
        <ele>206.4</ele>
        <time>2024-04-07T06:48:49Z</time>
      </trkpt>
      <trkpt lat="49.02974" lon="-0.33558">
        <ele>206.4</ele>
        <time>2024-04-07T06:48:50Z</time>
      </trkpt>
      <trkpt lat="49.02969" lon="-0.33561">
        <ele>206.2</ele>
        <time>2024-04-07T06:48:51Z</time>
      </trkpt>
      <trkpt lat="49.02964" lon="-0.33564">
        <ele>206.4</ele>
        <time>2024-04-07T06:48:52Z</time>
      </trkpt>
      <trkpt lat="49.0296" lon="-0.33566">
        <ele>206.4</ele>
        <time>2024-04-07T06:48:53Z</time>
      </trkpt>
      <trkpt lat="49.02955" lon="-0.33569">
        <ele>206.4</ele>
        <time>2024-04-07T06:48:54Z</time>
      </trkpt>
      <trkpt lat="49.0295" lon="-0.33572">
        <ele>206.8</ele>
        <time>2024-04-07T06:48:55Z</time>
      </trkpt>
      <trkpt lat="49.02945" lon="-0.33575">
        <ele>206.8</ele>
        <time>2024-04-07T06:48:56Z</time>
      </trkpt>
      <trkpt lat="49.0294" lon="-0.33578">
        <ele>207</ele>
        <time>2024-04-07T06:48:57Z</time>
      </trkpt>
      <trkpt lat="49.02933" lon="-0.33582">
        <ele>207.2</ele>
        <time>2024-04-07T06:48:58Z</time>
      </trkpt>
      <trkpt lat="49.02931" lon="-0.33583">
        <ele>207.2</ele>
        <time>2024-04-07T06:48:59Z</time>
      </trkpt>
      <trkpt lat="49.02926" lon="-0.33586">
        <ele>207.2</ele>
        <time>2024-04-07T06:49:00Z</time>
      </trkpt>
      <trkpt lat="49.02921" lon="-0.33588">
        <ele>207</ele>
        <time>2024-04-07T06:49:01Z</time>
      </trkpt>
      <trkpt lat="49.02917" lon="-0.33591">
        <ele>207</ele>
        <time>2024-04-07T06:49:02Z</time>
      </trkpt>
      <trkpt lat="49.02912" lon="-0.33593">
        <ele>207</ele>
        <time>2024-04-07T06:49:03Z</time>
      </trkpt>
      <trkpt lat="49.02907" lon="-0.33596">
        <ele>207.2</ele>
        <time>2024-04-07T06:49:04Z</time>
      </trkpt>
      <trkpt lat="49.02902" lon="-0.33598">
        <ele>207.2</ele>
        <time>2024-04-07T06:49:05Z</time>
      </trkpt>
      <trkpt lat="49.02898" lon="-0.336">
        <ele>207.4</ele>
        <time>2024-04-07T06:49:06Z</time>
      </trkpt>
      <trkpt lat="49.02893" lon="-0.33602">
        <ele>207.6</ele>
        <time>2024-04-07T06:49:07Z</time>
      </trkpt>
      <trkpt lat="49.02888" lon="-0.33605">
        <ele>208</ele>
        <time>2024-04-07T06:49:08Z</time>
      </trkpt>
      <trkpt lat="49.02883" lon="-0.33607">
        <ele>208.2</ele>
        <time>2024-04-07T06:49:09Z</time>
      </trkpt>
      <trkpt lat="49.02878" lon="-0.3361">
        <ele>208.4</ele>
        <time>2024-04-07T06:49:10Z</time>
      </trkpt>
      <trkpt lat="49.02873" lon="-0.33612">
        <ele>208.6</ele>
        <time>2024-04-07T06:49:11Z</time>
      </trkpt>
      <trkpt lat="49.02868" lon="-0.33614">
        <ele>208.6</ele>
        <time>2024-04-07T06:49:12Z</time>
      </trkpt>
      <trkpt lat="49.02863" lon="-0.33616">
        <ele>208.8</ele>
        <time>2024-04-07T06:49:13Z</time>
      </trkpt>
      <trkpt lat="49.02853" lon="-0.33621">
        <ele>208.8</ele>
        <time>2024-04-07T06:49:14Z</time>
      </trkpt>
      <trkpt lat="49.0285" lon="-0.33622">
        <ele>208.8</ele>
        <time>2024-04-07T06:49:15Z</time>
      </trkpt>
      <trkpt lat="49.02848" lon="-0.33623">
        <ele>208.8</ele>
        <time>2024-04-07T06:49:16Z</time>
      </trkpt>
      <trkpt lat="49.02843" lon="-0.33625">
        <ele>208.8</ele>
        <time>2024-04-07T06:49:17Z</time>
      </trkpt>
      <trkpt lat="49.02838" lon="-0.33627">
        <ele>208.8</ele>
        <time>2024-04-07T06:49:18Z</time>
      </trkpt>
      <trkpt lat="49.02833" lon="-0.33629">
        <ele>208.8</ele>
        <time>2024-04-07T06:49:19Z</time>
      </trkpt>
      <trkpt lat="49.02823" lon="-0.33633">
        <ele>209</ele>
        <time>2024-04-07T06:49:20Z</time>
      </trkpt>
      <trkpt lat="49.02818" lon="-0.33636">
        <ele>209</ele>
        <time>2024-04-07T06:49:21Z</time>
      </trkpt>
      <trkpt lat="49.02815" lon="-0.33637">
        <ele>209</ele>
        <time>2024-04-07T06:49:22Z</time>
      </trkpt>
      <trkpt lat="49.02812" lon="-0.33638">
        <ele>209.2</ele>
        <time>2024-04-07T06:49:23Z</time>
      </trkpt>
      <trkpt lat="49.02807" lon="-0.3364">
        <ele>209.2</ele>
        <time>2024-04-07T06:49:24Z</time>
      </trkpt>
      <trkpt lat="49.02802" lon="-0.33642">
        <ele>209.2</ele>
        <time>2024-04-07T06:49:25Z</time>
      </trkpt>
      <trkpt lat="49.02797" lon="-0.33644">
        <ele>209.2</ele>
        <time>2024-04-07T06:49:26Z</time>
      </trkpt>
      <trkpt lat="49.02792" lon="-0.33646">
        <ele>209.2</ele>
        <time>2024-04-07T06:49:27Z</time>
      </trkpt>
      <trkpt lat="49.02782" lon="-0.33651">
        <ele>209.2</ele>
        <time>2024-04-07T06:49:28Z</time>
      </trkpt>
      <trkpt lat="49.02779" lon="-0.33652">
        <ele>209</ele>
        <time>2024-04-07T06:49:29Z</time>
      </trkpt>
      <trkpt lat="49.02777" lon="-0.33653">
        <ele>209</ele>
        <time>2024-04-07T06:49:30Z</time>
      </trkpt>
      <trkpt lat="49.02772" lon="-0.33655">
        <ele>209</ele>
        <time>2024-04-07T06:49:31Z</time>
      </trkpt>
      <trkpt lat="49.02767" lon="-0.33657">
        <ele>209</ele>
        <time>2024-04-07T06:49:32Z</time>
      </trkpt>
      <trkpt lat="49.02762" lon="-0.33659">
        <ele>209.2</ele>
        <time>2024-04-07T06:49:33Z</time>
      </trkpt>
      <trkpt lat="49.02757" lon="-0.33662">
        <ele>209.2</ele>
        <time>2024-04-07T06:49:34Z</time>
      </trkpt>
      <trkpt lat="49.02752" lon="-0.33664">
        <ele>209.4</ele>
        <time>2024-04-07T06:49:35Z</time>
      </trkpt>
      <trkpt lat="49.02747" lon="-0.33666">
        <ele>209.6</ele>
        <time>2024-04-07T06:49:36Z</time>
      </trkpt>
      <trkpt lat="49.02742" lon="-0.33668">
        <ele>209.8</ele>
        <time>2024-04-07T06:49:37Z</time>
      </trkpt>
      <trkpt lat="49.02737" lon="-0.33671">
        <ele>210</ele>
        <time>2024-04-07T06:49:38Z</time>
      </trkpt>
      <trkpt lat="49.02727" lon="-0.33675">
        <ele>210.2</ele>
        <time>2024-04-07T06:49:39Z</time>
      </trkpt>
      <trkpt lat="49.02722" lon="-0.33678">
        <ele>210.4</ele>
        <time>2024-04-07T06:49:40Z</time>
      </trkpt>
      <trkpt lat="49.02719" lon="-0.33679">
        <ele>210.6</ele>
        <time>2024-04-07T06:49:41Z</time>
      </trkpt>
      <trkpt lat="49.02716" lon="-0.3368">
        <ele>210.6</ele>
        <time>2024-04-07T06:49:42Z</time>
      </trkpt>
      <trkpt lat="49.02709" lon="-0.33683">
        <ele>210.6</ele>
        <time>2024-04-07T06:49:43Z</time>
      </trkpt>
      <trkpt lat="49.02706" lon="-0.33684">
        <ele>210.8</ele>
        <time>2024-04-07T06:49:44Z</time>
      </trkpt>
      <trkpt lat="49.02699" lon="-0.33688">
        <ele>210.8</ele>
        <time>2024-04-07T06:49:45Z</time>
      </trkpt>
      <trkpt lat="49.02696" lon="-0.33689">
        <ele>210.8</ele>
        <time>2024-04-07T06:49:46Z</time>
      </trkpt>
      <trkpt lat="49.02686" lon="-0.33693">
        <ele>210.8</ele>
        <time>2024-04-07T06:49:47Z</time>
      </trkpt>
      <trkpt lat="49.02683" lon="-0.33695">
        <ele>211</ele>
        <time>2024-04-07T06:49:48Z</time>
      </trkpt>
      <trkpt lat="49.0268" lon="-0.33696">
        <ele>211.2</ele>
        <time>2024-04-07T06:49:49Z</time>
      </trkpt>
      <trkpt lat="49.0267" lon="-0.33701">
        <ele>211.4</ele>
        <time>2024-04-07T06:49:50Z</time>
      </trkpt>
      <trkpt lat="49.02667" lon="-0.33702">
        <ele>211.4</ele>
        <time>2024-04-07T06:49:51Z</time>
      </trkpt>
      <trkpt lat="49.02665" lon="-0.33703">
        <ele>211.6</ele>
        <time>2024-04-07T06:49:52Z</time>
      </trkpt>
      <trkpt lat="49.02659" lon="-0.33706">
        <ele>211.6</ele>
        <time>2024-04-07T06:49:53Z</time>
      </trkpt>
      <trkpt lat="49.02654" lon="-0.33708">
        <ele>211.8</ele>
        <time>2024-04-07T06:49:54Z</time>
      </trkpt>
      <trkpt lat="49.02649" lon="-0.33711">
        <ele>212</ele>
        <time>2024-04-07T06:49:55Z</time>
      </trkpt>
      <trkpt lat="49.02639" lon="-0.33717">
        <ele>212</ele>
        <time>2024-04-07T06:49:56Z</time>
      </trkpt>
      <trkpt lat="49.02636" lon="-0.33718">
        <ele>212</ele>
        <time>2024-04-07T06:49:57Z</time>
      </trkpt>
      <trkpt lat="49.02633" lon="-0.33719">
        <ele>212</ele>
        <time>2024-04-07T06:49:58Z</time>
      </trkpt>
      <trkpt lat="49.02628" lon="-0.33722">
        <ele>212</ele>
        <time>2024-04-07T06:49:59Z</time>
      </trkpt>
      <trkpt lat="49.02623" lon="-0.33725">
        <ele>212</ele>
        <time>2024-04-07T06:50:00Z</time>
      </trkpt>
      <trkpt lat="49.02618" lon="-0.33728">
        <ele>212.2</ele>
        <time>2024-04-07T06:50:01Z</time>
      </trkpt>
      <trkpt lat="49.02612" lon="-0.3373">
        <ele>212.2</ele>
        <time>2024-04-07T06:50:02Z</time>
      </trkpt>
      <trkpt lat="49.02607" lon="-0.33733">
        <ele>212.2</ele>
        <time>2024-04-07T06:50:03Z</time>
      </trkpt>
      <trkpt lat="49.02602" lon="-0.33736">
        <ele>212.2</ele>
        <time>2024-04-07T06:50:04Z</time>
      </trkpt>
      <trkpt lat="49.02597" lon="-0.33739">
        <ele>212.4</ele>
        <time>2024-04-07T06:50:05Z</time>
      </trkpt>
      <trkpt lat="49.02592" lon="-0.33742">
        <ele>212.6</ele>
        <time>2024-04-07T06:50:06Z</time>
      </trkpt>
      <trkpt lat="49.02587" lon="-0.33745">
        <ele>212.8</ele>
        <time>2024-04-07T06:50:07Z</time>
      </trkpt>
      <trkpt lat="49.02582" lon="-0.33748">
        <ele>213</ele>
        <time>2024-04-07T06:50:08Z</time>
      </trkpt>
      <trkpt lat="49.02575" lon="-0.33753">
        <ele>213</ele>
        <time>2024-04-07T06:50:09Z</time>
      </trkpt>
      <trkpt lat="49.02572" lon="-0.33754">
        <ele>213</ele>
        <time>2024-04-07T06:50:10Z</time>
      </trkpt>
      <trkpt lat="49.02567" lon="-0.33758">
        <ele>213</ele>
        <time>2024-04-07T06:50:11Z</time>
      </trkpt>
      <trkpt lat="49.02561" lon="-0.33762">
        <ele>213</ele>
        <time>2024-04-07T06:50:12Z</time>
      </trkpt>
      <trkpt lat="49.0255" lon="-0.33769">
        <ele>212.8</ele>
        <time>2024-04-07T06:50:13Z</time>
      </trkpt>
      <trkpt lat="49.02547" lon="-0.3377">
        <ele>212.8</ele>
        <time>2024-04-07T06:50:14Z</time>
      </trkpt>
      <trkpt lat="49.02544" lon="-0.33772">
        <ele>212.8</ele>
        <time>2024-04-07T06:50:15Z</time>
      </trkpt>
      <trkpt lat="49.02539" lon="-0.33776">
        <ele>212.8</ele>
        <time>2024-04-07T06:50:16Z</time>
      </trkpt>
      <trkpt lat="49.02534" lon="-0.3378">
        <ele>213</ele>
        <time>2024-04-07T06:50:17Z</time>
      </trkpt>
      <trkpt lat="49.02529" lon="-0.33783">
        <ele>213.2</ele>
        <time>2024-04-07T06:50:18Z</time>
      </trkpt>
      <trkpt lat="49.02524" lon="-0.33787">
        <ele>213.4</ele>
        <time>2024-04-07T06:50:19Z</time>
      </trkpt>
      <trkpt lat="49.02518" lon="-0.33791">
        <ele>213.8</ele>
        <time>2024-04-07T06:50:20Z</time>
      </trkpt>
      <trkpt lat="49.02513" lon="-0.33794">
        <ele>213.8</ele>
        <time>2024-04-07T06:50:21Z</time>
      </trkpt>
      <trkpt lat="49.02508" lon="-0.33798">
        <ele>214</ele>
        <time>2024-04-07T06:50:22Z</time>
      </trkpt>
      <trkpt lat="49.02503" lon="-0.33802">
        <ele>214</ele>
        <time>2024-04-07T06:50:23Z</time>
      </trkpt>
      <trkpt lat="49.02498" lon="-0.33805">
        <ele>214.2</ele>
        <time>2024-04-07T06:50:24Z</time>
      </trkpt>
      <trkpt lat="49.02493" lon="-0.33809">
        <ele>214.2</ele>
        <time>2024-04-07T06:50:25Z</time>
      </trkpt>
      <trkpt lat="49.02488" lon="-0.33813">
        <ele>214.4</ele>
        <time>2024-04-07T06:50:26Z</time>
      </trkpt>
      <trkpt lat="49.02483" lon="-0.33817">
        <ele>214.4</ele>
        <time>2024-04-07T06:50:27Z</time>
      </trkpt>
      <trkpt lat="49.02478" lon="-0.3382">
        <ele>214.6</ele>
        <time>2024-04-07T06:50:28Z</time>
      </trkpt>
      <trkpt lat="49.02473" lon="-0.33824">
        <ele>214.8</ele>
        <time>2024-04-07T06:50:29Z</time>
      </trkpt>
      <trkpt lat="49.02468" lon="-0.33828">
        <ele>214.8</ele>
        <time>2024-04-07T06:50:30Z</time>
      </trkpt>
      <trkpt lat="49.02463" lon="-0.33832">
        <ele>215.2</ele>
        <time>2024-04-07T06:50:31Z</time>
      </trkpt>
      <trkpt lat="49.02459" lon="-0.33836">
        <ele>215.4</ele>
        <time>2024-04-07T06:50:32Z</time>
      </trkpt>
      <trkpt lat="49.02454" lon="-0.3384">
        <ele>215.4</ele>
        <time>2024-04-07T06:50:33Z</time>
      </trkpt>
      <trkpt lat="49.02449" lon="-0.33844">
        <ele>215.6</ele>
        <time>2024-04-07T06:50:34Z</time>
      </trkpt>
      <trkpt lat="49.02444" lon="-0.33848">
        <ele>215.8</ele>
        <time>2024-04-07T06:50:35Z</time>
      </trkpt>
      <trkpt lat="49.02439" lon="-0.33853">
        <ele>215.8</ele>
        <time>2024-04-07T06:50:36Z</time>
      </trkpt>
      <trkpt lat="49.02432" lon="-0.3386">
        <ele>216</ele>
        <time>2024-04-07T06:50:37Z</time>
      </trkpt>
      <trkpt lat="49.02429" lon="-0.33862">
        <ele>216</ele>
        <time>2024-04-07T06:50:38Z</time>
      </trkpt>
      <trkpt lat="49.02425" lon="-0.33867">
        <ele>216.2</ele>
        <time>2024-04-07T06:50:39Z</time>
      </trkpt>
      <trkpt lat="49.0242" lon="-0.33872">
        <ele>216.4</ele>
        <time>2024-04-07T06:50:40Z</time>
      </trkpt>
      <trkpt lat="49.02415" lon="-0.33877">
        <ele>216.6</ele>
        <time>2024-04-07T06:50:41Z</time>
      </trkpt>
      <trkpt lat="49.0241" lon="-0.33882">
        <ele>216.6</ele>
        <time>2024-04-07T06:50:42Z</time>
      </trkpt>
      <trkpt lat="49.02406" lon="-0.33887">
        <ele>216.8</ele>
        <time>2024-04-07T06:50:43Z</time>
      </trkpt>
      <trkpt lat="49.02401" lon="-0.33892">
        <ele>216.8</ele>
        <time>2024-04-07T06:50:44Z</time>
      </trkpt>
      <trkpt lat="49.02396" lon="-0.33897">
        <ele>217</ele>
        <time>2024-04-07T06:50:45Z</time>
      </trkpt>
      <trkpt lat="49.02392" lon="-0.33902">
        <ele>217.2</ele>
        <time>2024-04-07T06:50:46Z</time>
      </trkpt>
      <trkpt lat="49.02387" lon="-0.33907">
        <ele>217.4</ele>
        <time>2024-04-07T06:50:47Z</time>
      </trkpt>
      <trkpt lat="49.02383" lon="-0.33912">
        <ele>217.4</ele>
        <time>2024-04-07T06:50:48Z</time>
      </trkpt>
      <trkpt lat="49.02378" lon="-0.33917">
        <ele>217.6</ele>
        <time>2024-04-07T06:50:49Z</time>
      </trkpt>
      <trkpt lat="49.02374" lon="-0.33923">
        <ele>217.6</ele>
        <time>2024-04-07T06:50:50Z</time>
      </trkpt>
      <trkpt lat="49.02369" lon="-0.33928">
        <ele>217.6</ele>
        <time>2024-04-07T06:50:51Z</time>
      </trkpt>
      <trkpt lat="49.02365" lon="-0.33933">
        <ele>217.6</ele>
        <time>2024-04-07T06:50:52Z</time>
      </trkpt>
      <trkpt lat="49.02361" lon="-0.33938">
        <ele>217.6</ele>
        <time>2024-04-07T06:50:53Z</time>
      </trkpt>
      <trkpt lat="49.02356" lon="-0.33943">
        <ele>217.6</ele>
        <time>2024-04-07T06:50:54Z</time>
      </trkpt>
      <trkpt lat="49.02352" lon="-0.33948">
        <ele>217.6</ele>
        <time>2024-04-07T06:50:55Z</time>
      </trkpt>
      <trkpt lat="49.02348" lon="-0.33954">
        <ele>218</ele>
        <time>2024-04-07T06:50:56Z</time>
      </trkpt>
      <trkpt lat="49.02344" lon="-0.33959">
        <ele>218.2</ele>
        <time>2024-04-07T06:50:57Z</time>
      </trkpt>
      <trkpt lat="49.0234" lon="-0.33964">
        <ele>218.4</ele>
        <time>2024-04-07T06:50:58Z</time>
      </trkpt>
      <trkpt lat="49.02336" lon="-0.33969">
        <ele>218.6</ele>
        <time>2024-04-07T06:50:59Z</time>
      </trkpt>
      <trkpt lat="49.02333" lon="-0.33975">
        <ele>219</ele>
        <time>2024-04-07T06:51:00Z</time>
      </trkpt>
      <trkpt lat="49.02329" lon="-0.3398">
        <ele>219.2</ele>
        <time>2024-04-07T06:51:01Z</time>
      </trkpt>
      <trkpt lat="49.02325" lon="-0.33986">
        <ele>219.6</ele>
        <time>2024-04-07T06:51:02Z</time>
      </trkpt>
      <trkpt lat="49.02321" lon="-0.33992">
        <ele>219.8</ele>
        <time>2024-04-07T06:51:03Z</time>
      </trkpt>
      <trkpt lat="49.02317" lon="-0.33998">
        <ele>220.2</ele>
        <time>2024-04-07T06:51:04Z</time>
      </trkpt>
      <trkpt lat="49.02313" lon="-0.34004">
        <ele>220.4</ele>
        <time>2024-04-07T06:51:05Z</time>
      </trkpt>
      <trkpt lat="49.02309" lon="-0.3401">
        <ele>220.6</ele>
        <time>2024-04-07T06:51:06Z</time>
      </trkpt>
      <trkpt lat="49.02305" lon="-0.34016">
        <ele>220.8</ele>
        <time>2024-04-07T06:51:07Z</time>
      </trkpt>
      <trkpt lat="49.02301" lon="-0.34022">
        <ele>220.8</ele>
        <time>2024-04-07T06:51:08Z</time>
      </trkpt>
      <trkpt lat="49.02297" lon="-0.34029">
        <ele>220.8</ele>
        <time>2024-04-07T06:51:09Z</time>
      </trkpt>
      <trkpt lat="49.02293" lon="-0.34034">
        <ele>220.8</ele>
        <time>2024-04-07T06:51:10Z</time>
      </trkpt>
      <trkpt lat="49.02289" lon="-0.3404">
        <ele>220.8</ele>
        <time>2024-04-07T06:51:11Z</time>
      </trkpt>
      <trkpt lat="49.02285" lon="-0.34046">
        <ele>220.8</ele>
        <time>2024-04-07T06:51:12Z</time>
      </trkpt>
      <trkpt lat="49.02281" lon="-0.34052">
        <ele>221.2</ele>
        <time>2024-04-07T06:51:13Z</time>
      </trkpt>
      <trkpt lat="49.02276" lon="-0.34057">
        <ele>221.6</ele>
        <time>2024-04-07T06:51:14Z</time>
      </trkpt>
      <trkpt lat="49.02268" lon="-0.34068">
        <ele>222</ele>
        <time>2024-04-07T06:51:15Z</time>
      </trkpt>
      <trkpt lat="49.02266" lon="-0.34071">
        <ele>222.4</ele>
        <time>2024-04-07T06:51:16Z</time>
      </trkpt>
      <trkpt lat="49.02264" lon="-0.34074">
        <ele>222.4</ele>
        <time>2024-04-07T06:51:17Z</time>
      </trkpt>
      <trkpt lat="49.02259" lon="-0.34079">
        <ele>222.4</ele>
        <time>2024-04-07T06:51:18Z</time>
      </trkpt>
      <trkpt lat="49.02255" lon="-0.34084">
        <ele>222.6</ele>
        <time>2024-04-07T06:51:19Z</time>
      </trkpt>
      <trkpt lat="49.0225" lon="-0.34089">
        <ele>222.8</ele>
        <time>2024-04-07T06:51:20Z</time>
      </trkpt>
      <trkpt lat="49.02246" lon="-0.34094">
        <ele>223</ele>
        <time>2024-04-07T06:51:21Z</time>
      </trkpt>
      <trkpt lat="49.02241" lon="-0.34099">
        <ele>223.2</ele>
        <time>2024-04-07T06:51:22Z</time>
      </trkpt>
      <trkpt lat="49.02237" lon="-0.34104">
        <ele>223.2</ele>
        <time>2024-04-07T06:51:23Z</time>
      </trkpt>
      <trkpt lat="49.02232" lon="-0.34108">
        <ele>223.2</ele>
        <time>2024-04-07T06:51:24Z</time>
      </trkpt>
      <trkpt lat="49.02228" lon="-0.34114">
        <ele>223.4</ele>
        <time>2024-04-07T06:51:25Z</time>
      </trkpt>
      <trkpt lat="49.02223" lon="-0.34119">
        <ele>223.4</ele>
        <time>2024-04-07T06:51:26Z</time>
      </trkpt>
      <trkpt lat="49.02219" lon="-0.34124">
        <ele>223.4</ele>
        <time>2024-04-07T06:51:27Z</time>
      </trkpt>
      <trkpt lat="49.02214" lon="-0.34129">
        <ele>223.6</ele>
        <time>2024-04-07T06:51:28Z</time>
      </trkpt>
      <trkpt lat="49.0221" lon="-0.34135">
        <ele>223.8</ele>
        <time>2024-04-07T06:51:29Z</time>
      </trkpt>
      <trkpt lat="49.02205" lon="-0.3414">
        <ele>224.2</ele>
        <time>2024-04-07T06:51:30Z</time>
      </trkpt>
      <trkpt lat="49.02201" lon="-0.34145">
        <ele>224.8</ele>
        <time>2024-04-07T06:51:31Z</time>
      </trkpt>
      <trkpt lat="49.02196" lon="-0.3415">
        <ele>225</ele>
        <time>2024-04-07T06:51:32Z</time>
      </trkpt>
      <trkpt lat="49.02191" lon="-0.34155">
        <ele>225.2</ele>
        <time>2024-04-07T06:51:33Z</time>
      </trkpt>
      <trkpt lat="49.02187" lon="-0.34161">
        <ele>225.4</ele>
        <time>2024-04-07T06:51:34Z</time>
      </trkpt>
      <trkpt lat="49.02182" lon="-0.34166">
        <ele>225.4</ele>
        <time>2024-04-07T06:51:35Z</time>
      </trkpt>
      <trkpt lat="49.02177" lon="-0.34171">
        <ele>225.6</ele>
        <time>2024-04-07T06:51:36Z</time>
      </trkpt>
      <trkpt lat="49.02172" lon="-0.34177">
        <ele>225.6</ele>
        <time>2024-04-07T06:51:37Z</time>
      </trkpt>
      <trkpt lat="49.02167" lon="-0.34182">
        <ele>225.8</ele>
        <time>2024-04-07T06:51:38Z</time>
      </trkpt>
      <trkpt lat="49.02162" lon="-0.34187">
        <ele>226</ele>
        <time>2024-04-07T06:51:39Z</time>
      </trkpt>
      <trkpt lat="49.02157" lon="-0.34192">
        <ele>226</ele>
        <time>2024-04-07T06:51:40Z</time>
      </trkpt>
      <trkpt lat="49.02153" lon="-0.34197">
        <ele>226.2</ele>
        <time>2024-04-07T06:51:41Z</time>
      </trkpt>
      <trkpt lat="49.02148" lon="-0.34202">
        <ele>226.2</ele>
        <time>2024-04-07T06:51:42Z</time>
      </trkpt>
      <trkpt lat="49.02143" lon="-0.34208">
        <ele>226.4</ele>
        <time>2024-04-07T06:51:43Z</time>
      </trkpt>
      <trkpt lat="49.02138" lon="-0.34213">
        <ele>226.4</ele>
        <time>2024-04-07T06:51:44Z</time>
      </trkpt>
      <trkpt lat="49.02133" lon="-0.34218">
        <ele>226.4</ele>
        <time>2024-04-07T06:51:45Z</time>
      </trkpt>
      <trkpt lat="49.02128" lon="-0.34224">
        <ele>226.4</ele>
        <time>2024-04-07T06:51:46Z</time>
      </trkpt>
      <trkpt lat="49.02123" lon="-0.34229">
        <ele>226.4</ele>
        <time>2024-04-07T06:51:47Z</time>
      </trkpt>
      <trkpt lat="49.02118" lon="-0.34233">
        <ele>226.4</ele>
        <time>2024-04-07T06:51:48Z</time>
      </trkpt>
      <trkpt lat="49.02114" lon="-0.34238">
        <ele>226.2</ele>
        <time>2024-04-07T06:51:49Z</time>
      </trkpt>
      <trkpt lat="49.02109" lon="-0.34243">
        <ele>225.8</ele>
        <time>2024-04-07T06:51:50Z</time>
      </trkpt>
      <trkpt lat="49.02104" lon="-0.34248">
        <ele>225.8</ele>
        <time>2024-04-07T06:51:51Z</time>
      </trkpt>
      <trkpt lat="49.02099" lon="-0.34253">
        <ele>225.6</ele>
        <time>2024-04-07T06:51:52Z</time>
      </trkpt>
      <trkpt lat="49.02094" lon="-0.34258">
        <ele>225.6</ele>
        <time>2024-04-07T06:51:53Z</time>
      </trkpt>
      <trkpt lat="49.0209" lon="-0.34263">
        <ele>225.6</ele>
        <time>2024-04-07T06:51:54Z</time>
      </trkpt>
      <trkpt lat="49.02085" lon="-0.34268">
        <ele>225.6</ele>
        <time>2024-04-07T06:51:55Z</time>
      </trkpt>
      <trkpt lat="49.0208" lon="-0.34273">
        <ele>225.8</ele>
        <time>2024-04-07T06:51:56Z</time>
      </trkpt>
      <trkpt lat="49.02075" lon="-0.34279">
        <ele>226</ele>
        <time>2024-04-07T06:51:57Z</time>
      </trkpt>
      <trkpt lat="49.0207" lon="-0.34284">
        <ele>226.2</ele>
        <time>2024-04-07T06:51:58Z</time>
      </trkpt>
      <trkpt lat="49.02065" lon="-0.34289">
        <ele>226.4</ele>
        <time>2024-04-07T06:51:59Z</time>
      </trkpt>
      <trkpt lat="49.0206" lon="-0.34294">
        <ele>226.6</ele>
        <time>2024-04-07T06:52:00Z</time>
      </trkpt>
      <trkpt lat="49.02055" lon="-0.34299">
        <ele>226.6</ele>
        <time>2024-04-07T06:52:01Z</time>
      </trkpt>
      <trkpt lat="49.02051" lon="-0.34304">
        <ele>226.4</ele>
        <time>2024-04-07T06:52:02Z</time>
      </trkpt>
      <trkpt lat="49.02046" lon="-0.34309">
        <ele>226.2</ele>
        <time>2024-04-07T06:52:03Z</time>
      </trkpt>
      <trkpt lat="49.02041" lon="-0.34314">
        <ele>226.2</ele>
        <time>2024-04-07T06:52:04Z</time>
      </trkpt>
      <trkpt lat="49.02036" lon="-0.34319">
        <ele>226</ele>
        <time>2024-04-07T06:52:05Z</time>
      </trkpt>
      <trkpt lat="49.02031" lon="-0.34323">
        <ele>225.8</ele>
        <time>2024-04-07T06:52:06Z</time>
      </trkpt>
      <trkpt lat="49.02026" lon="-0.34328">
        <ele>225.8</ele>
        <time>2024-04-07T06:52:07Z</time>
      </trkpt>
      <trkpt lat="49.02021" lon="-0.34333">
        <ele>225.6</ele>
        <time>2024-04-07T06:52:08Z</time>
      </trkpt>
      <trkpt lat="49.02016" lon="-0.34337">
        <ele>225.6</ele>
        <time>2024-04-07T06:52:09Z</time>
      </trkpt>
      <trkpt lat="49.02011" lon="-0.34341">
        <ele>225.8</ele>
        <time>2024-04-07T06:52:10Z</time>
      </trkpt>
      <trkpt lat="49.02006" lon="-0.34346">
        <ele>225.8</ele>
        <time>2024-04-07T06:52:11Z</time>
      </trkpt>
      <trkpt lat="49.02001" lon="-0.3435">
        <ele>225.8</ele>
        <time>2024-04-07T06:52:12Z</time>
      </trkpt>
      <trkpt lat="49.01996" lon="-0.34355">
        <ele>226</ele>
        <time>2024-04-07T06:52:13Z</time>
      </trkpt>
      <trkpt lat="49.01991" lon="-0.34359">
        <ele>226</ele>
        <time>2024-04-07T06:52:14Z</time>
      </trkpt>
      <trkpt lat="49.01986" lon="-0.34364">
        <ele>226</ele>
        <time>2024-04-07T06:52:15Z</time>
      </trkpt>
      <trkpt lat="49.01981" lon="-0.34368">
        <ele>226.2</ele>
        <time>2024-04-07T06:52:16Z</time>
      </trkpt>
      <trkpt lat="49.01976" lon="-0.34373">
        <ele>226.2</ele>
        <time>2024-04-07T06:52:17Z</time>
      </trkpt>
      <trkpt lat="49.0197" lon="-0.34377">
        <ele>226.2</ele>
        <time>2024-04-07T06:52:18Z</time>
      </trkpt>
      <trkpt lat="49.01965" lon="-0.34382">
        <ele>226.2</ele>
        <time>2024-04-07T06:52:19Z</time>
      </trkpt>
      <trkpt lat="49.0196" lon="-0.34386">
        <ele>226.2</ele>
        <time>2024-04-07T06:52:20Z</time>
      </trkpt>
      <trkpt lat="49.01955" lon="-0.34391">
        <ele>226.2</ele>
        <time>2024-04-07T06:52:21Z</time>
      </trkpt>
      <trkpt lat="49.0195" lon="-0.34395">
        <ele>226.2</ele>
        <time>2024-04-07T06:52:22Z</time>
      </trkpt>
      <trkpt lat="49.01945" lon="-0.34399">
        <ele>226.2</ele>
        <time>2024-04-07T06:52:23Z</time>
      </trkpt>
      <trkpt lat="49.0194" lon="-0.34403">
        <ele>226.2</ele>
        <time>2024-04-07T06:52:24Z</time>
      </trkpt>
      <trkpt lat="49.01936" lon="-0.34408">
        <ele>226.6</ele>
        <time>2024-04-07T06:52:25Z</time>
      </trkpt>
      <trkpt lat="49.0193" lon="-0.34412">
        <ele>226.8</ele>
        <time>2024-04-07T06:52:26Z</time>
      </trkpt>
      <trkpt lat="49.01925" lon="-0.34416">
        <ele>227.2</ele>
        <time>2024-04-07T06:52:27Z</time>
      </trkpt>
      <trkpt lat="49.0192" lon="-0.3442">
        <ele>227.4</ele>
        <time>2024-04-07T06:52:28Z</time>
      </trkpt>
      <trkpt lat="49.01915" lon="-0.34425">
        <ele>227.4</ele>
        <time>2024-04-07T06:52:29Z</time>
      </trkpt>
      <trkpt lat="49.0191" lon="-0.34429">
        <ele>227.6</ele>
        <time>2024-04-07T06:52:30Z</time>
      </trkpt>
      <trkpt lat="49.01905" lon="-0.34433">
        <ele>227.6</ele>
        <time>2024-04-07T06:52:31Z</time>
      </trkpt>
      <trkpt lat="49.019" lon="-0.34437">
        <ele>227.8</ele>
        <time>2024-04-07T06:52:32Z</time>
      </trkpt>
      <trkpt lat="49.01895" lon="-0.34441">
        <ele>227.8</ele>
        <time>2024-04-07T06:52:33Z</time>
      </trkpt>
      <trkpt lat="49.0189" lon="-0.34446">
        <ele>228</ele>
        <time>2024-04-07T06:52:34Z</time>
      </trkpt>
      <trkpt lat="49.01885" lon="-0.3445">
        <ele>228.2</ele>
        <time>2024-04-07T06:52:35Z</time>
      </trkpt>
      <trkpt lat="49.0188" lon="-0.34454">
        <ele>228.4</ele>
        <time>2024-04-07T06:52:36Z</time>
      </trkpt>
      <trkpt lat="49.01875" lon="-0.34459">
        <ele>228.6</ele>
        <time>2024-04-07T06:52:37Z</time>
      </trkpt>
      <trkpt lat="49.0187" lon="-0.34463">
        <ele>228.6</ele>
        <time>2024-04-07T06:52:38Z</time>
      </trkpt>
      <trkpt lat="49.01865" lon="-0.34468">
        <ele>228.8</ele>
        <time>2024-04-07T06:52:39Z</time>
      </trkpt>
      <trkpt lat="49.0186" lon="-0.34472">
        <ele>228.8</ele>
        <time>2024-04-07T06:52:40Z</time>
      </trkpt>
      <trkpt lat="49.01855" lon="-0.34476">
        <ele>228.8</ele>
        <time>2024-04-07T06:52:41Z</time>
      </trkpt>
      <trkpt lat="49.0185" lon="-0.3448">
        <ele>229</ele>
        <time>2024-04-07T06:52:42Z</time>
      </trkpt>
      <trkpt lat="49.01845" lon="-0.34485">
        <ele>229</ele>
        <time>2024-04-07T06:52:43Z</time>
      </trkpt>
      <trkpt lat="49.0184" lon="-0.34489">
        <ele>229</ele>
        <time>2024-04-07T06:52:44Z</time>
      </trkpt>
      <trkpt lat="49.01835" lon="-0.34493">
        <ele>229</ele>
        <time>2024-04-07T06:52:45Z</time>
      </trkpt>
      <trkpt lat="49.0183" lon="-0.34497">
        <ele>228.8</ele>
        <time>2024-04-07T06:52:46Z</time>
      </trkpt>
      <trkpt lat="49.01825" lon="-0.34501">
        <ele>228.6</ele>
        <time>2024-04-07T06:52:47Z</time>
      </trkpt>
      <trkpt lat="49.0182" lon="-0.34505">
        <ele>228.4</ele>
        <time>2024-04-07T06:52:48Z</time>
      </trkpt>
      <trkpt lat="49.01814" lon="-0.34509">
        <ele>228.2</ele>
        <time>2024-04-07T06:52:49Z</time>
      </trkpt>
      <trkpt lat="49.01809" lon="-0.34513">
        <ele>228.2</ele>
        <time>2024-04-07T06:52:50Z</time>
      </trkpt>
      <trkpt lat="49.01804" lon="-0.34517">
        <ele>228</ele>
        <time>2024-04-07T06:52:51Z</time>
      </trkpt>
      <trkpt lat="49.01799" lon="-0.34521">
        <ele>228</ele>
        <time>2024-04-07T06:52:52Z</time>
      </trkpt>
      <trkpt lat="49.01795" lon="-0.34524">
        <ele>227.8</ele>
        <time>2024-04-07T06:52:53Z</time>
      </trkpt>
      <trkpt lat="49.0179" lon="-0.34527">
        <ele>227.8</ele>
        <time>2024-04-07T06:52:54Z</time>
      </trkpt>
      <trkpt lat="49.01785" lon="-0.3453">
        <ele>227.8</ele>
        <time>2024-04-07T06:52:55Z</time>
      </trkpt>
      <trkpt lat="49.0178" lon="-0.34532">
        <ele>227.6</ele>
        <time>2024-04-07T06:52:56Z</time>
      </trkpt>
      <trkpt lat="49.01775" lon="-0.34535">
        <ele>227.6</ele>
        <time>2024-04-07T06:52:57Z</time>
      </trkpt>
      <trkpt lat="49.0177" lon="-0.34538">
        <ele>227.6</ele>
        <time>2024-04-07T06:52:58Z</time>
      </trkpt>
      <trkpt lat="49.01765" lon="-0.34541">
        <ele>227.6</ele>
        <time>2024-04-07T06:52:59Z</time>
      </trkpt>
      <trkpt lat="49.0176" lon="-0.34544">
        <ele>227.8</ele>
        <time>2024-04-07T06:53:00Z</time>
      </trkpt>
      <trkpt lat="49.01754" lon="-0.34547">
        <ele>228</ele>
        <time>2024-04-07T06:53:01Z</time>
      </trkpt>
      <trkpt lat="49.01749" lon="-0.34549">
        <ele>228.2</ele>
        <time>2024-04-07T06:53:02Z</time>
      </trkpt>
      <trkpt lat="49.01744" lon="-0.34552">
        <ele>228.6</ele>
        <time>2024-04-07T06:53:03Z</time>
      </trkpt>
      <trkpt lat="49.01739" lon="-0.34555">
        <ele>228.8</ele>
        <time>2024-04-07T06:53:04Z</time>
      </trkpt>
      <trkpt lat="49.01734" lon="-0.34557">
        <ele>229</ele>
        <time>2024-04-07T06:53:05Z</time>
      </trkpt>
      <trkpt lat="49.01729" lon="-0.3456">
        <ele>229</ele>
        <time>2024-04-07T06:53:06Z</time>
      </trkpt>
      <trkpt lat="49.01723" lon="-0.34563">
        <ele>229.2</ele>
        <time>2024-04-07T06:53:07Z</time>
      </trkpt>
      <trkpt lat="49.01718" lon="-0.34566">
        <ele>229.4</ele>
        <time>2024-04-07T06:53:08Z</time>
      </trkpt>
      <trkpt lat="49.01712" lon="-0.34568">
        <ele>229.4</ele>
        <time>2024-04-07T06:53:09Z</time>
      </trkpt>
      <trkpt lat="49.01707" lon="-0.34571">
        <ele>229.6</ele>
        <time>2024-04-07T06:53:10Z</time>
      </trkpt>
      <trkpt lat="49.01701" lon="-0.34574">
        <ele>229.8</ele>
        <time>2024-04-07T06:53:11Z</time>
      </trkpt>
      <trkpt lat="49.01696" lon="-0.34576">
        <ele>230</ele>
        <time>2024-04-07T06:53:12Z</time>
      </trkpt>
      <trkpt lat="49.0169" lon="-0.34579">
        <ele>230.2</ele>
        <time>2024-04-07T06:53:13Z</time>
      </trkpt>
      <trkpt lat="49.01685" lon="-0.34581">
        <ele>230.2</ele>
        <time>2024-04-07T06:53:14Z</time>
      </trkpt>
      <trkpt lat="49.01679" lon="-0.34584">
        <ele>230.2</ele>
        <time>2024-04-07T06:53:15Z</time>
      </trkpt>
      <trkpt lat="49.01673" lon="-0.34586">
        <ele>230.2</ele>
        <time>2024-04-07T06:53:16Z</time>
      </trkpt>
      <trkpt lat="49.01668" lon="-0.34589">
        <ele>230.2</ele>
        <time>2024-04-07T06:53:17Z</time>
      </trkpt>
      <trkpt lat="49.01662" lon="-0.34591">
        <ele>230.2</ele>
        <time>2024-04-07T06:53:18Z</time>
      </trkpt>
      <trkpt lat="49.01656" lon="-0.34593">
        <ele>230.2</ele>
        <time>2024-04-07T06:53:19Z</time>
      </trkpt>
      <trkpt lat="49.0165" lon="-0.34596">
        <ele>230.2</ele>
        <time>2024-04-07T06:53:20Z</time>
      </trkpt>
      <trkpt lat="49.01645" lon="-0.34598">
        <ele>230.2</ele>
        <time>2024-04-07T06:53:21Z</time>
      </trkpt>
      <trkpt lat="49.01639" lon="-0.346">
        <ele>230.2</ele>
        <time>2024-04-07T06:53:22Z</time>
      </trkpt>
      <trkpt lat="49.01633" lon="-0.34602">
        <ele>230.2</ele>
        <time>2024-04-07T06:53:23Z</time>
      </trkpt>
      <trkpt lat="49.01627" lon="-0.34604">
        <ele>230.2</ele>
        <time>2024-04-07T06:53:24Z</time>
      </trkpt>
      <trkpt lat="49.01622" lon="-0.34606">
        <ele>230</ele>
        <time>2024-04-07T06:53:25Z</time>
      </trkpt>
      <trkpt lat="49.01616" lon="-0.34608">
        <ele>229.8</ele>
        <time>2024-04-07T06:53:26Z</time>
      </trkpt>
      <trkpt lat="49.0161" lon="-0.3461">
        <ele>229.6</ele>
        <time>2024-04-07T06:53:27Z</time>
      </trkpt>
      <trkpt lat="49.01605" lon="-0.34613">
        <ele>229.6</ele>
        <time>2024-04-07T06:53:28Z</time>
      </trkpt>
      <trkpt lat="49.01599" lon="-0.34616">
        <ele>229.6</ele>
        <time>2024-04-07T06:53:29Z</time>
      </trkpt>
      <trkpt lat="49.01593" lon="-0.34618">
        <ele>229.8</ele>
        <time>2024-04-07T06:53:30Z</time>
      </trkpt>
      <trkpt lat="49.01587" lon="-0.34619">
        <ele>230</ele>
        <time>2024-04-07T06:53:31Z</time>
      </trkpt>
      <trkpt lat="49.01581" lon="-0.34621">
        <ele>230.2</ele>
        <time>2024-04-07T06:53:32Z</time>
      </trkpt>
      <trkpt lat="49.01575" lon="-0.34622">
        <ele>230.2</ele>
        <time>2024-04-07T06:53:33Z</time>
      </trkpt>
      <trkpt lat="49.01569" lon="-0.34623">
        <ele>230.2</ele>
        <time>2024-04-07T06:53:34Z</time>
      </trkpt>
      <trkpt lat="49.01563" lon="-0.34624">
        <ele>230</ele>
        <time>2024-04-07T06:53:35Z</time>
      </trkpt>
      <trkpt lat="49.01558" lon="-0.34626">
        <ele>230</ele>
        <time>2024-04-07T06:53:36Z</time>
      </trkpt>
      <trkpt lat="49.01552" lon="-0.34629">
        <ele>229.8</ele>
        <time>2024-04-07T06:53:37Z</time>
      </trkpt>
      <trkpt lat="49.01546" lon="-0.34631">
        <ele>229.8</ele>
        <time>2024-04-07T06:53:38Z</time>
      </trkpt>
      <trkpt lat="49.0154" lon="-0.34633">
        <ele>229.6</ele>
        <time>2024-04-07T06:53:39Z</time>
      </trkpt>
      <trkpt lat="49.01535" lon="-0.34636">
        <ele>229.4</ele>
        <time>2024-04-07T06:53:40Z</time>
      </trkpt>
      <trkpt lat="49.01528" lon="-0.34639">
        <ele>229.4</ele>
        <time>2024-04-07T06:53:41Z</time>
      </trkpt>
      <trkpt lat="49.01522" lon="-0.34643">
        <ele>229.2</ele>
        <time>2024-04-07T06:53:42Z</time>
      </trkpt>
      <trkpt lat="49.01516" lon="-0.34646">
        <ele>229.2</ele>
        <time>2024-04-07T06:53:43Z</time>
      </trkpt>
      <trkpt lat="49.0151" lon="-0.3465">
        <ele>229</ele>
        <time>2024-04-07T06:53:44Z</time>
      </trkpt>
      <trkpt lat="49.01504" lon="-0.34653">
        <ele>229</ele>
        <time>2024-04-07T06:53:45Z</time>
      </trkpt>
      <trkpt lat="49.01498" lon="-0.34656">
        <ele>229.2</ele>
        <time>2024-04-07T06:53:46Z</time>
      </trkpt>
      <trkpt lat="49.01492" lon="-0.34659">
        <ele>229.4</ele>
        <time>2024-04-07T06:53:47Z</time>
      </trkpt>
      <trkpt lat="49.01486" lon="-0.34663">
        <ele>229.8</ele>
        <time>2024-04-07T06:53:48Z</time>
      </trkpt>
      <trkpt lat="49.0148" lon="-0.34667">
        <ele>230</ele>
        <time>2024-04-07T06:53:49Z</time>
      </trkpt>
      <trkpt lat="49.01474" lon="-0.3467">
        <ele>230</ele>
        <time>2024-04-07T06:53:50Z</time>
      </trkpt>
      <trkpt lat="49.01469" lon="-0.34674">
        <ele>230</ele>
        <time>2024-04-07T06:53:51Z</time>
      </trkpt>
      <trkpt lat="49.01463" lon="-0.34678">
        <ele>229.8</ele>
        <time>2024-04-07T06:53:52Z</time>
      </trkpt>
      <trkpt lat="49.01451" lon="-0.34685">
        <ele>229.6</ele>
        <time>2024-04-07T06:53:53Z</time>
      </trkpt>
      <trkpt lat="49.01448" lon="-0.34687">
        <ele>229.6</ele>
        <time>2024-04-07T06:53:54Z</time>
      </trkpt>
      <trkpt lat="49.01445" lon="-0.34689">
        <ele>229.4</ele>
        <time>2024-04-07T06:53:55Z</time>
      </trkpt>
      <trkpt lat="49.01439" lon="-0.34692">
        <ele>229.2</ele>
        <time>2024-04-07T06:53:56Z</time>
      </trkpt>
      <trkpt lat="49.01433" lon="-0.34696">
        <ele>229.2</ele>
        <time>2024-04-07T06:53:57Z</time>
      </trkpt>
      <trkpt lat="49.01427" lon="-0.34699">
        <ele>229.2</ele>
        <time>2024-04-07T06:53:58Z</time>
      </trkpt>
      <trkpt lat="49.01421" lon="-0.34703">
        <ele>229.4</ele>
        <time>2024-04-07T06:53:59Z</time>
      </trkpt>
      <trkpt lat="49.01416" lon="-0.34706">
        <ele>229.6</ele>
        <time>2024-04-07T06:54:00Z</time>
      </trkpt>
      <trkpt lat="49.0141" lon="-0.34708">
        <ele>229.8</ele>
        <time>2024-04-07T06:54:01Z</time>
      </trkpt>
      <trkpt lat="49.01404" lon="-0.34711">
        <ele>230.2</ele>
        <time>2024-04-07T06:54:02Z</time>
      </trkpt>
      <trkpt lat="49.01398" lon="-0.34713">
        <ele>230.4</ele>
        <time>2024-04-07T06:54:03Z</time>
      </trkpt>
      <trkpt lat="49.01392" lon="-0.34715">
        <ele>230.4</ele>
        <time>2024-04-07T06:54:04Z</time>
      </trkpt>
      <trkpt lat="49.01386" lon="-0.34717">
        <ele>230.6</ele>
        <time>2024-04-07T06:54:05Z</time>
      </trkpt>
      <trkpt lat="49.01379" lon="-0.34719">
        <ele>230.6</ele>
        <time>2024-04-07T06:54:06Z</time>
      </trkpt>
      <trkpt lat="49.01373" lon="-0.34722">
        <ele>230.6</ele>
        <time>2024-04-07T06:54:07Z</time>
      </trkpt>
      <trkpt lat="49.01367" lon="-0.34725">
        <ele>230.8</ele>
        <time>2024-04-07T06:54:08Z</time>
      </trkpt>
      <trkpt lat="49.01361" lon="-0.34729">
        <ele>231</ele>
        <time>2024-04-07T06:54:09Z</time>
      </trkpt>
      <trkpt lat="49.01356" lon="-0.34735">
        <ele>231</ele>
        <time>2024-04-07T06:54:10Z</time>
      </trkpt>
      <trkpt lat="49.01351" lon="-0.34741">
        <ele>231.2</ele>
        <time>2024-04-07T06:54:11Z</time>
      </trkpt>
      <trkpt lat="49.01347" lon="-0.34749">
        <ele>231.4</ele>
        <time>2024-04-07T06:54:12Z</time>
      </trkpt>
      <trkpt lat="49.01343" lon="-0.34757">
        <ele>231.4</ele>
        <time>2024-04-07T06:54:13Z</time>
      </trkpt>
      <trkpt lat="49.0134" lon="-0.34765">
        <ele>231.4</ele>
        <time>2024-04-07T06:54:14Z</time>
      </trkpt>
      <trkpt lat="49.01337" lon="-0.34774">
        <ele>231.4</ele>
        <time>2024-04-07T06:54:15Z</time>
      </trkpt>
      <trkpt lat="49.01334" lon="-0.34783">
        <ele>231.2</ele>
        <time>2024-04-07T06:54:16Z</time>
      </trkpt>
      <trkpt lat="49.01332" lon="-0.34791">
        <ele>231.2</ele>
        <time>2024-04-07T06:54:17Z</time>
      </trkpt>
      <trkpt lat="49.01329" lon="-0.348">
        <ele>231</ele>
        <time>2024-04-07T06:54:18Z</time>
      </trkpt>
      <trkpt lat="49.01326" lon="-0.34808">
        <ele>231</ele>
        <time>2024-04-07T06:54:19Z</time>
      </trkpt>
      <trkpt lat="49.01324" lon="-0.34817">
        <ele>231</ele>
        <time>2024-04-07T06:54:20Z</time>
      </trkpt>
      <trkpt lat="49.01321" lon="-0.34824">
        <ele>231</ele>
        <time>2024-04-07T06:54:21Z</time>
      </trkpt>
      <trkpt lat="49.01317" lon="-0.34837">
        <ele>231.2</ele>
        <time>2024-04-07T06:54:22Z</time>
      </trkpt>
      <trkpt lat="49.01316" lon="-0.34841">
        <ele>231.6</ele>
        <time>2024-04-07T06:54:23Z</time>
      </trkpt>
      <trkpt lat="49.01314" lon="-0.34849">
        <ele>232</ele>
        <time>2024-04-07T06:54:24Z</time>
      </trkpt>
      <trkpt lat="49.01311" lon="-0.34857">
        <ele>232.4</ele>
        <time>2024-04-07T06:54:25Z</time>
      </trkpt>
      <trkpt lat="49.01308" lon="-0.34865">
        <ele>232.6</ele>
        <time>2024-04-07T06:54:26Z</time>
      </trkpt>
      <trkpt lat="49.01304" lon="-0.34874">
        <ele>232.6</ele>
        <time>2024-04-07T06:54:27Z</time>
      </trkpt>
      <trkpt lat="49.013" lon="-0.34881">
        <ele>232.8</ele>
        <time>2024-04-07T06:54:28Z</time>
      </trkpt>
      <trkpt lat="49.01296" lon="-0.34888">
        <ele>232.6</ele>
        <time>2024-04-07T06:54:29Z</time>
      </trkpt>
      <trkpt lat="49.01292" lon="-0.34895">
        <ele>232.4</ele>
        <time>2024-04-07T06:54:30Z</time>
      </trkpt>
      <trkpt lat="49.01288" lon="-0.34901">
        <ele>232.4</ele>
        <time>2024-04-07T06:54:31Z</time>
      </trkpt>
      <trkpt lat="49.01284" lon="-0.34908">
        <ele>232</ele>
        <time>2024-04-07T06:54:32Z</time>
      </trkpt>
      <trkpt lat="49.01279" lon="-0.34914">
        <ele>231.8</ele>
        <time>2024-04-07T06:54:33Z</time>
      </trkpt>
      <trkpt lat="49.01274" lon="-0.34919">
        <ele>231.6</ele>
        <time>2024-04-07T06:54:34Z</time>
      </trkpt>
      <trkpt lat="49.01269" lon="-0.34924">
        <ele>231.2</ele>
        <time>2024-04-07T06:54:35Z</time>
      </trkpt>
      <trkpt lat="49.01264" lon="-0.34928">
        <ele>231</ele>
        <time>2024-04-07T06:54:36Z</time>
      </trkpt>
      <trkpt lat="49.01259" lon="-0.34933">
        <ele>231</ele>
        <time>2024-04-07T06:54:37Z</time>
      </trkpt>
      <trkpt lat="49.01254" lon="-0.34937">
        <ele>231.2</ele>
        <time>2024-04-07T06:54:38Z</time>
      </trkpt>
      <trkpt lat="49.01249" lon="-0.3494">
        <ele>231.2</ele>
        <time>2024-04-07T06:54:39Z</time>
      </trkpt>
      <trkpt lat="49.01244" lon="-0.34944">
        <ele>231.4</ele>
        <time>2024-04-07T06:54:40Z</time>
      </trkpt>
      <trkpt lat="49.01239" lon="-0.34947">
        <ele>231.6</ele>
        <time>2024-04-07T06:54:41Z</time>
      </trkpt>
      <trkpt lat="49.01234" lon="-0.3495">
        <ele>231.8</ele>
        <time>2024-04-07T06:54:42Z</time>
      </trkpt>
      <trkpt lat="49.01229" lon="-0.34954">
        <ele>232.2</ele>
        <time>2024-04-07T06:54:43Z</time>
      </trkpt>
      <trkpt lat="49.01224" lon="-0.34957">
        <ele>232.6</ele>
        <time>2024-04-07T06:54:44Z</time>
      </trkpt>
      <trkpt lat="49.01219" lon="-0.3496">
        <ele>233</ele>
        <time>2024-04-07T06:54:45Z</time>
      </trkpt>
      <trkpt lat="49.01214" lon="-0.34963">
        <ele>233.4</ele>
        <time>2024-04-07T06:54:46Z</time>
      </trkpt>
      <trkpt lat="49.01209" lon="-0.34966">
        <ele>233.4</ele>
        <time>2024-04-07T06:54:47Z</time>
      </trkpt>
      <trkpt lat="49.01204" lon="-0.34969">
        <ele>233.6</ele>
        <time>2024-04-07T06:54:48Z</time>
      </trkpt>
      <trkpt lat="49.01199" lon="-0.34972">
        <ele>234</ele>
        <time>2024-04-07T06:54:49Z</time>
      </trkpt>
      <trkpt lat="49.01194" lon="-0.34975">
        <ele>234.4</ele>
        <time>2024-04-07T06:54:50Z</time>
      </trkpt>
      <trkpt lat="49.0119" lon="-0.34978">
        <ele>234.6</ele>
        <time>2024-04-07T06:54:51Z</time>
      </trkpt>
      <trkpt lat="49.01185" lon="-0.34981">
        <ele>234.6</ele>
        <time>2024-04-07T06:54:52Z</time>
      </trkpt>
      <trkpt lat="49.0118" lon="-0.34983">
        <ele>234.6</ele>
        <time>2024-04-07T06:54:53Z</time>
      </trkpt>
      <trkpt lat="49.01176" lon="-0.34986">
        <ele>234.6</ele>
        <time>2024-04-07T06:54:54Z</time>
      </trkpt>
      <trkpt lat="49.01171" lon="-0.34989">
        <ele>234.6</ele>
        <time>2024-04-07T06:54:55Z</time>
      </trkpt>
      <trkpt lat="49.01167" lon="-0.34992">
        <ele>234.4</ele>
        <time>2024-04-07T06:54:56Z</time>
      </trkpt>
      <trkpt lat="49.01162" lon="-0.34995">
        <ele>234.4</ele>
        <time>2024-04-07T06:54:57Z</time>
      </trkpt>
      <trkpt lat="49.01158" lon="-0.34998">
        <ele>234.6</ele>
        <time>2024-04-07T06:54:58Z</time>
      </trkpt>
      <trkpt lat="49.01153" lon="-0.35001">
        <ele>234.8</ele>
        <time>2024-04-07T06:54:59Z</time>
      </trkpt>
      <trkpt lat="49.01149" lon="-0.35004">
        <ele>234.8</ele>
        <time>2024-04-07T06:55:00Z</time>
      </trkpt>
      <trkpt lat="49.01145" lon="-0.35007">
        <ele>235</ele>
        <time>2024-04-07T06:55:01Z</time>
      </trkpt>
      <trkpt lat="49.0114" lon="-0.35011">
        <ele>235.2</ele>
        <time>2024-04-07T06:55:02Z</time>
      </trkpt>
      <trkpt lat="49.01136" lon="-0.35014">
        <ele>235.8</ele>
        <time>2024-04-07T06:55:03Z</time>
      </trkpt>
      <trkpt lat="49.01132" lon="-0.35017">
        <ele>236</ele>
        <time>2024-04-07T06:55:04Z</time>
      </trkpt>
      <trkpt lat="49.01127" lon="-0.35021">
        <ele>236.2</ele>
        <time>2024-04-07T06:55:05Z</time>
      </trkpt>
      <trkpt lat="49.01123" lon="-0.35024">
        <ele>236.4</ele>
        <time>2024-04-07T06:55:06Z</time>
      </trkpt>
      <trkpt lat="49.01119" lon="-0.35027">
        <ele>236.6</ele>
        <time>2024-04-07T06:55:07Z</time>
      </trkpt>
      <trkpt lat="49.01115" lon="-0.35031">
        <ele>236.8</ele>
        <time>2024-04-07T06:55:08Z</time>
      </trkpt>
      <trkpt lat="49.01111" lon="-0.35034">
        <ele>237</ele>
        <time>2024-04-07T06:55:09Z</time>
      </trkpt>
      <trkpt lat="49.01107" lon="-0.35038">
        <ele>237.6</ele>
        <time>2024-04-07T06:55:10Z</time>
      </trkpt>
      <trkpt lat="49.01103" lon="-0.35041">
        <ele>238</ele>
        <time>2024-04-07T06:55:11Z</time>
      </trkpt>
      <trkpt lat="49.01099" lon="-0.35045">
        <ele>238.4</ele>
        <time>2024-04-07T06:55:12Z</time>
      </trkpt>
      <trkpt lat="49.01095" lon="-0.35048">
        <ele>238.6</ele>
        <time>2024-04-07T06:55:13Z</time>
      </trkpt>
      <trkpt lat="49.01091" lon="-0.35052">
        <ele>238.8</ele>
        <time>2024-04-07T06:55:14Z</time>
      </trkpt>
      <trkpt lat="49.01087" lon="-0.35056">
        <ele>239</ele>
        <time>2024-04-07T06:55:15Z</time>
      </trkpt>
      <trkpt lat="49.01083" lon="-0.3506">
        <ele>239.2</ele>
        <time>2024-04-07T06:55:16Z</time>
      </trkpt>
      <trkpt lat="49.01079" lon="-0.35064">
        <ele>239.8</ele>
        <time>2024-04-07T06:55:17Z</time>
      </trkpt>
      <trkpt lat="49.01075" lon="-0.35067">
        <ele>240.4</ele>
        <time>2024-04-07T06:55:18Z</time>
      </trkpt>
      <trkpt lat="49.01071" lon="-0.35071">
        <ele>240.6</ele>
        <time>2024-04-07T06:55:19Z</time>
      </trkpt>
      <trkpt lat="49.01067" lon="-0.35075">
        <ele>241</ele>
        <time>2024-04-07T06:55:20Z</time>
      </trkpt>
      <trkpt lat="49.01063" lon="-0.35079">
        <ele>241.4</ele>
        <time>2024-04-07T06:55:21Z</time>
      </trkpt>
      <trkpt lat="49.0106" lon="-0.35083">
        <ele>241.6</ele>
        <time>2024-04-07T06:55:22Z</time>
      </trkpt>
      <trkpt lat="49.01056" lon="-0.35087">
        <ele>241.8</ele>
        <time>2024-04-07T06:55:23Z</time>
      </trkpt>
      <trkpt lat="49.01052" lon="-0.35091">
        <ele>242</ele>
        <time>2024-04-07T06:55:24Z</time>
      </trkpt>
      <trkpt lat="49.01048" lon="-0.35095">
        <ele>242.2</ele>
        <time>2024-04-07T06:55:25Z</time>
      </trkpt>
      <trkpt lat="49.01045" lon="-0.351">
        <ele>242.2</ele>
        <time>2024-04-07T06:55:26Z</time>
      </trkpt>
      <trkpt lat="49.01041" lon="-0.35104">
        <ele>242.4</ele>
        <time>2024-04-07T06:55:27Z</time>
      </trkpt>
      <trkpt lat="49.01037" lon="-0.35109">
        <ele>242.4</ele>
        <time>2024-04-07T06:55:28Z</time>
      </trkpt>
      <trkpt lat="49.01034" lon="-0.35113">
        <ele>242.8</ele>
        <time>2024-04-07T06:55:29Z</time>
      </trkpt>
      <trkpt lat="49.01031" lon="-0.35118">
        <ele>243</ele>
        <time>2024-04-07T06:55:30Z</time>
      </trkpt>
      <trkpt lat="49.01028" lon="-0.35123">
        <ele>243.2</ele>
        <time>2024-04-07T06:55:31Z</time>
      </trkpt>
      <trkpt lat="49.01025" lon="-0.35128">
        <ele>243.4</ele>
        <time>2024-04-07T06:55:32Z</time>
      </trkpt>
      <trkpt lat="49.01022" lon="-0.35133">
        <ele>243.6</ele>
        <time>2024-04-07T06:55:33Z</time>
      </trkpt>
      <trkpt lat="49.01019" lon="-0.35139">
        <ele>243.8</ele>
        <time>2024-04-07T06:55:34Z</time>
      </trkpt>
      <trkpt lat="49.01016" lon="-0.35144">
        <ele>244.2</ele>
        <time>2024-04-07T06:55:35Z</time>
      </trkpt>
      <trkpt lat="49.01014" lon="-0.35149">
        <ele>244.4</ele>
        <time>2024-04-07T06:55:36Z</time>
      </trkpt>
      <trkpt lat="49.01011" lon="-0.35155">
        <ele>244.6</ele>
        <time>2024-04-07T06:55:37Z</time>
      </trkpt>
      <trkpt lat="49.01008" lon="-0.35161">
        <ele>244.8</ele>
        <time>2024-04-07T06:55:38Z</time>
      </trkpt>
      <trkpt lat="49.01005" lon="-0.35166">
        <ele>244.8</ele>
        <time>2024-04-07T06:55:39Z</time>
      </trkpt>
      <trkpt lat="49.01002" lon="-0.35172">
        <ele>244.8</ele>
        <time>2024-04-07T06:55:40Z</time>
      </trkpt>
      <trkpt lat="49.01" lon="-0.35178">
        <ele>244.8</ele>
        <time>2024-04-07T06:55:41Z</time>
      </trkpt>
      <trkpt lat="49.00997" lon="-0.35183">
        <ele>245</ele>
        <time>2024-04-07T06:55:42Z</time>
      </trkpt>
      <trkpt lat="49.00994" lon="-0.35189">
        <ele>245</ele>
        <time>2024-04-07T06:55:43Z</time>
      </trkpt>
      <trkpt lat="49.00992" lon="-0.35195">
        <ele>245</ele>
        <time>2024-04-07T06:55:44Z</time>
      </trkpt>
      <trkpt lat="49.0099" lon="-0.35202">
        <ele>245</ele>
        <time>2024-04-07T06:55:45Z</time>
      </trkpt>
      <trkpt lat="49.00987" lon="-0.35208">
        <ele>245.4</ele>
        <time>2024-04-07T06:55:46Z</time>
      </trkpt>
      <trkpt lat="49.00982" lon="-0.35221">
        <ele>245.6</ele>
        <time>2024-04-07T06:55:47Z</time>
      </trkpt>
      <trkpt lat="49.00981" lon="-0.35225">
        <ele>245.6</ele>
        <time>2024-04-07T06:55:48Z</time>
      </trkpt>
      <trkpt lat="49.0098" lon="-0.35228">
        <ele>245.8</ele>
        <time>2024-04-07T06:55:49Z</time>
      </trkpt>
      <trkpt lat="49.00978" lon="-0.35236">
        <ele>246</ele>
        <time>2024-04-07T06:55:50Z</time>
      </trkpt>
      <trkpt lat="49.00976" lon="-0.35244">
        <ele>246</ele>
        <time>2024-04-07T06:55:51Z</time>
      </trkpt>
      <trkpt lat="49.00974" lon="-0.35251">
        <ele>246</ele>
        <time>2024-04-07T06:55:52Z</time>
      </trkpt>
      <trkpt lat="49.00972" lon="-0.35258">
        <ele>246</ele>
        <time>2024-04-07T06:55:53Z</time>
      </trkpt>
      <trkpt lat="49.0097" lon="-0.35265">
        <ele>246</ele>
        <time>2024-04-07T06:55:54Z</time>
      </trkpt>
      <trkpt lat="49.00967" lon="-0.35273">
        <ele>245.8</ele>
        <time>2024-04-07T06:55:55Z</time>
      </trkpt>
      <trkpt lat="49.00962" lon="-0.3529">
        <ele>245.6</ele>
        <time>2024-04-07T06:55:56Z</time>
      </trkpt>
      <trkpt lat="49.00961" lon="-0.35294">
        <ele>245.4</ele>
        <time>2024-04-07T06:55:57Z</time>
      </trkpt>
      <trkpt lat="49.00959" lon="-0.35298">
        <ele>245.2</ele>
        <time>2024-04-07T06:55:58Z</time>
      </trkpt>
      <trkpt lat="49.00957" lon="-0.35306">
        <ele>245</ele>
        <time>2024-04-07T06:55:59Z</time>
      </trkpt>
      <trkpt lat="49.00955" lon="-0.35315">
        <ele>245</ele>
        <time>2024-04-07T06:56:00Z</time>
      </trkpt>
      <trkpt lat="49.00953" lon="-0.35323">
        <ele>244.8</ele>
        <time>2024-04-07T06:56:01Z</time>
      </trkpt>
      <trkpt lat="49.00952" lon="-0.35329">
        <ele>244.8</ele>
        <time>2024-04-07T06:56:02Z</time>
      </trkpt>
      <trkpt lat="49.0095" lon="-0.35337">
        <ele>244.8</ele>
        <time>2024-04-07T06:56:03Z</time>
      </trkpt>
      <trkpt lat="49.00948" lon="-0.35345">
        <ele>244.8</ele>
        <time>2024-04-07T06:56:04Z</time>
      </trkpt>
      <trkpt lat="49.00946" lon="-0.35353">
        <ele>244.8</ele>
        <time>2024-04-07T06:56:05Z</time>
      </trkpt>
      <trkpt lat="49.00945" lon="-0.35362">
        <ele>244.8</ele>
        <time>2024-04-07T06:56:06Z</time>
      </trkpt>
      <trkpt lat="49.00943" lon="-0.3537">
        <ele>245</ele>
        <time>2024-04-07T06:56:07Z</time>
      </trkpt>
      <trkpt lat="49.00941" lon="-0.35378">
        <ele>245</ele>
        <time>2024-04-07T06:56:08Z</time>
      </trkpt>
      <trkpt lat="49.00939" lon="-0.35386">
        <ele>245.2</ele>
        <time>2024-04-07T06:56:09Z</time>
      </trkpt>
      <trkpt lat="49.00936" lon="-0.35393">
        <ele>245.2</ele>
        <time>2024-04-07T06:56:10Z</time>
      </trkpt>
      <trkpt lat="49.00934" lon="-0.354">
        <ele>245.2</ele>
        <time>2024-04-07T06:56:11Z</time>
      </trkpt>
      <trkpt lat="49.0093" lon="-0.35406">
        <ele>245.2</ele>
        <time>2024-04-07T06:56:12Z</time>
      </trkpt>
      <trkpt lat="49.00926" lon="-0.35412">
        <ele>245</ele>
        <time>2024-04-07T06:56:13Z</time>
      </trkpt>
      <trkpt lat="49.00922" lon="-0.35415">
        <ele>245</ele>
        <time>2024-04-07T06:56:14Z</time>
      </trkpt>
      <trkpt lat="49.00916" lon="-0.35418">
        <ele>245</ele>
        <time>2024-04-07T06:56:15Z</time>
      </trkpt>
      <trkpt lat="49.00911" lon="-0.35421">
        <ele>245</ele>
        <time>2024-04-07T06:56:16Z</time>
      </trkpt>
      <trkpt lat="49.00906" lon="-0.35423">
        <ele>245.2</ele>
        <time>2024-04-07T06:56:17Z</time>
      </trkpt>
      <trkpt lat="49.00902" lon="-0.35426">
        <ele>245.4</ele>
        <time>2024-04-07T06:56:18Z</time>
      </trkpt>
      <trkpt lat="49.00896" lon="-0.35429">
        <ele>245.8</ele>
        <time>2024-04-07T06:56:19Z</time>
      </trkpt>
      <trkpt lat="49.00891" lon="-0.35432">
        <ele>246</ele>
        <time>2024-04-07T06:56:20Z</time>
      </trkpt>
      <trkpt lat="49.00886" lon="-0.35435">
        <ele>246.2</ele>
        <time>2024-04-07T06:56:21Z</time>
      </trkpt>
      <trkpt lat="49.00882" lon="-0.35437">
        <ele>246.4</ele>
        <time>2024-04-07T06:56:22Z</time>
      </trkpt>
      <trkpt lat="49.00877" lon="-0.3544">
        <ele>246.6</ele>
        <time>2024-04-07T06:56:23Z</time>
      </trkpt>
      <trkpt lat="49.00872" lon="-0.35443">
        <ele>246.6</ele>
        <time>2024-04-07T06:56:24Z</time>
      </trkpt>
      <trkpt lat="49.00867" lon="-0.35445">
        <ele>246.6</ele>
        <time>2024-04-07T06:56:25Z</time>
      </trkpt>
      <trkpt lat="49.00862" lon="-0.35448">
        <ele>246.8</ele>
        <time>2024-04-07T06:56:26Z</time>
      </trkpt>
      <trkpt lat="49.00858" lon="-0.35451">
        <ele>246.8</ele>
        <time>2024-04-07T06:56:27Z</time>
      </trkpt>
      <trkpt lat="49.00853" lon="-0.35454">
        <ele>247</ele>
        <time>2024-04-07T06:56:28Z</time>
      </trkpt>
      <trkpt lat="49.00848" lon="-0.35457">
        <ele>247</ele>
        <time>2024-04-07T06:56:29Z</time>
      </trkpt>
      <trkpt lat="49.00843" lon="-0.35459">
        <ele>247</ele>
        <time>2024-04-07T06:56:30Z</time>
      </trkpt>
      <trkpt lat="49.00838" lon="-0.35462">
        <ele>247</ele>
        <time>2024-04-07T06:56:31Z</time>
      </trkpt>
      <trkpt lat="49.00833" lon="-0.35464">
        <ele>247</ele>
        <time>2024-04-07T06:56:32Z</time>
      </trkpt>
      <trkpt lat="49.00828" lon="-0.35467">
        <ele>246.8</ele>
        <time>2024-04-07T06:56:33Z</time>
      </trkpt>
      <trkpt lat="49.00823" lon="-0.35469">
        <ele>247</ele>
        <time>2024-04-07T06:56:34Z</time>
      </trkpt>
      <trkpt lat="49.00818" lon="-0.35471">
        <ele>247</ele>
        <time>2024-04-07T06:56:35Z</time>
      </trkpt>
      <trkpt lat="49.00813" lon="-0.35474">
        <ele>247.4</ele>
        <time>2024-04-07T06:56:36Z</time>
      </trkpt>
      <trkpt lat="49.00809" lon="-0.35477">
        <ele>247.6</ele>
        <time>2024-04-07T06:56:37Z</time>
      </trkpt>
      <trkpt lat="49.00804" lon="-0.35479">
        <ele>248</ele>
        <time>2024-04-07T06:56:38Z</time>
      </trkpt>
      <trkpt lat="49.00799" lon="-0.35482">
        <ele>248.2</ele>
        <time>2024-04-07T06:56:39Z</time>
      </trkpt>
      <trkpt lat="49.00794" lon="-0.35484">
        <ele>248.2</ele>
        <time>2024-04-07T06:56:40Z</time>
      </trkpt>
      <trkpt lat="49.0079" lon="-0.35487">
        <ele>248.2</ele>
        <time>2024-04-07T06:56:41Z</time>
      </trkpt>
      <trkpt lat="49.00785" lon="-0.3549">
        <ele>248.2</ele>
        <time>2024-04-07T06:56:42Z</time>
      </trkpt>
      <trkpt lat="49.0078" lon="-0.35493">
        <ele>248.2</ele>
        <time>2024-04-07T06:56:43Z</time>
      </trkpt>
      <trkpt lat="49.00775" lon="-0.35496">
        <ele>248.2</ele>
        <time>2024-04-07T06:56:44Z</time>
      </trkpt>
      <trkpt lat="49.00771" lon="-0.35499">
        <ele>248.4</ele>
        <time>2024-04-07T06:56:45Z</time>
      </trkpt>
      <trkpt lat="49.00767" lon="-0.35503">
        <ele>248.6</ele>
        <time>2024-04-07T06:56:46Z</time>
      </trkpt>
      <trkpt lat="49.00762" lon="-0.35506">
        <ele>248.8</ele>
        <time>2024-04-07T06:56:47Z</time>
      </trkpt>
      <trkpt lat="49.00758" lon="-0.3551">
        <ele>248.8</ele>
        <time>2024-04-07T06:56:48Z</time>
      </trkpt>
      <trkpt lat="49.00754" lon="-0.35514">
        <ele>248.8</ele>
        <time>2024-04-07T06:56:49Z</time>
      </trkpt>
      <trkpt lat="49.00749" lon="-0.35518">
        <ele>249</ele>
        <time>2024-04-07T06:56:50Z</time>
      </trkpt>
      <trkpt lat="49.00745" lon="-0.35522">
        <ele>249</ele>
        <time>2024-04-07T06:56:51Z</time>
      </trkpt>
      <trkpt lat="49.00741" lon="-0.35527">
        <ele>249.2</ele>
        <time>2024-04-07T06:56:52Z</time>
      </trkpt>
      <trkpt lat="49.00737" lon="-0.35531">
        <ele>249.2</ele>
        <time>2024-04-07T06:56:53Z</time>
      </trkpt>
      <trkpt lat="49.00733" lon="-0.35536">
        <ele>249.2</ele>
        <time>2024-04-07T06:56:54Z</time>
      </trkpt>
      <trkpt lat="49.00729" lon="-0.3554">
        <ele>249.4</ele>
        <time>2024-04-07T06:56:55Z</time>
      </trkpt>
      <trkpt lat="49.00725" lon="-0.35545">
        <ele>249.8</ele>
        <time>2024-04-07T06:56:56Z</time>
      </trkpt>
      <trkpt lat="49.00721" lon="-0.35549">
        <ele>250</ele>
        <time>2024-04-07T06:56:57Z</time>
      </trkpt>
      <trkpt lat="49.00718" lon="-0.35554">
        <ele>250</ele>
        <time>2024-04-07T06:56:58Z</time>
      </trkpt>
      <trkpt lat="49.00714" lon="-0.35559">
        <ele>250</ele>
        <time>2024-04-07T06:56:59Z</time>
      </trkpt>
      <trkpt lat="49.0071" lon="-0.35563">
        <ele>250</ele>
        <time>2024-04-07T06:57:00Z</time>
      </trkpt>
      <trkpt lat="49.00706" lon="-0.35568">
        <ele>250</ele>
        <time>2024-04-07T06:57:01Z</time>
      </trkpt>
      <trkpt lat="49.00703" lon="-0.35572">
        <ele>250</ele>
        <time>2024-04-07T06:57:02Z</time>
      </trkpt>
      <trkpt lat="49.00699" lon="-0.35577">
        <ele>250</ele>
        <time>2024-04-07T06:57:03Z</time>
      </trkpt>
      <trkpt lat="49.00695" lon="-0.35581">
        <ele>250.2</ele>
        <time>2024-04-07T06:57:04Z</time>
      </trkpt>
      <trkpt lat="49.00691" lon="-0.35586">
        <ele>250.2</ele>
        <time>2024-04-07T06:57:05Z</time>
      </trkpt>
      <trkpt lat="49.00687" lon="-0.35591">
        <ele>250.4</ele>
        <time>2024-04-07T06:57:06Z</time>
      </trkpt>
      <trkpt lat="49.00683" lon="-0.35595">
        <ele>250.4</ele>
        <time>2024-04-07T06:57:07Z</time>
      </trkpt>
      <trkpt lat="49.00679" lon="-0.356">
        <ele>250.4</ele>
        <time>2024-04-07T06:57:08Z</time>
      </trkpt>
      <trkpt lat="49.00676" lon="-0.35604">
        <ele>250.4</ele>
        <time>2024-04-07T06:57:09Z</time>
      </trkpt>
      <trkpt lat="49.00672" lon="-0.35609">
        <ele>250.4</ele>
        <time>2024-04-07T06:57:10Z</time>
      </trkpt>
      <trkpt lat="49.00668" lon="-0.35613">
        <ele>250.6</ele>
        <time>2024-04-07T06:57:11Z</time>
      </trkpt>
      <trkpt lat="49.00664" lon="-0.35618">
        <ele>250.6</ele>
        <time>2024-04-07T06:57:12Z</time>
      </trkpt>
      <trkpt lat="49.0066" lon="-0.35622">
        <ele>250.8</ele>
        <time>2024-04-07T06:57:13Z</time>
      </trkpt>
      <trkpt lat="49.00656" lon="-0.35627">
        <ele>251</ele>
        <time>2024-04-07T06:57:14Z</time>
      </trkpt>
      <trkpt lat="49.00652" lon="-0.35631">
        <ele>251.2</ele>
        <time>2024-04-07T06:57:15Z</time>
      </trkpt>
      <trkpt lat="49.00649" lon="-0.35636">
        <ele>251.4</ele>
        <time>2024-04-07T06:57:16Z</time>
      </trkpt>
      <trkpt lat="49.00645" lon="-0.3564">
        <ele>251.8</ele>
        <time>2024-04-07T06:57:17Z</time>
      </trkpt>
      <trkpt lat="49.00641" lon="-0.35645">
        <ele>252.2</ele>
        <time>2024-04-07T06:57:18Z</time>
      </trkpt>
      <trkpt lat="49.00637" lon="-0.3565">
        <ele>252.4</ele>
        <time>2024-04-07T06:57:19Z</time>
      </trkpt>
      <trkpt lat="49.00633" lon="-0.35654">
        <ele>252.8</ele>
        <time>2024-04-07T06:57:20Z</time>
      </trkpt>
      <trkpt lat="49.0063" lon="-0.35659">
        <ele>253</ele>
        <time>2024-04-07T06:57:21Z</time>
      </trkpt>
      <trkpt lat="49.00626" lon="-0.35663">
        <ele>253.4</ele>
        <time>2024-04-07T06:57:22Z</time>
      </trkpt>
      <trkpt lat="49.00622" lon="-0.35668">
        <ele>253.8</ele>
        <time>2024-04-07T06:57:23Z</time>
      </trkpt>
      <trkpt lat="49.00614" lon="-0.35676">
        <ele>254</ele>
        <time>2024-04-07T06:57:24Z</time>
      </trkpt>
      <trkpt lat="49.00612" lon="-0.35679">
        <ele>254.2</ele>
        <time>2024-04-07T06:57:25Z</time>
      </trkpt>
      <trkpt lat="49.0061" lon="-0.35681">
        <ele>254.4</ele>
        <time>2024-04-07T06:57:26Z</time>
      </trkpt>
      <trkpt lat="49.00607" lon="-0.35685">
        <ele>254.6</ele>
        <time>2024-04-07T06:57:27Z</time>
      </trkpt>
      <trkpt lat="49.00603" lon="-0.3569">
        <ele>254.8</ele>
        <time>2024-04-07T06:57:28Z</time>
      </trkpt>
      <trkpt lat="49.00599" lon="-0.35694">
        <ele>255</ele>
        <time>2024-04-07T06:57:29Z</time>
      </trkpt>
      <trkpt lat="49.00595" lon="-0.35698">
        <ele>255</ele>
        <time>2024-04-07T06:57:30Z</time>
      </trkpt>
      <trkpt lat="49.00591" lon="-0.35702">
        <ele>255.2</ele>
        <time>2024-04-07T06:57:31Z</time>
      </trkpt>
      <trkpt lat="49.00587" lon="-0.35706">
        <ele>255.2</ele>
        <time>2024-04-07T06:57:32Z</time>
      </trkpt>
      <trkpt lat="49.00583" lon="-0.35709">
        <ele>255.2</ele>
        <time>2024-04-07T06:57:33Z</time>
      </trkpt>
      <trkpt lat="49.00579" lon="-0.35712">
        <ele>255.4</ele>
        <time>2024-04-07T06:57:34Z</time>
      </trkpt>
      <trkpt lat="49.00575" lon="-0.35715">
        <ele>255.6</ele>
        <time>2024-04-07T06:57:35Z</time>
      </trkpt>
      <trkpt lat="49.0057" lon="-0.35718">
        <ele>255.8</ele>
        <time>2024-04-07T06:57:36Z</time>
      </trkpt>
      <trkpt lat="49.00566" lon="-0.3572">
        <ele>256</ele>
        <time>2024-04-07T06:57:37Z</time>
      </trkpt>
      <trkpt lat="49.00562" lon="-0.35723">
        <ele>256.4</ele>
        <time>2024-04-07T06:57:38Z</time>
      </trkpt>
      <trkpt lat="49.00557" lon="-0.35724">
        <ele>256.8</ele>
        <time>2024-04-07T06:57:39Z</time>
      </trkpt>
      <trkpt lat="49.00552" lon="-0.35726">
        <ele>257.2</ele>
        <time>2024-04-07T06:57:40Z</time>
      </trkpt>
      <trkpt lat="49.00548" lon="-0.35727">
        <ele>257.6</ele>
        <time>2024-04-07T06:57:41Z</time>
      </trkpt>
      <trkpt lat="49.00543" lon="-0.35729">
        <ele>257.8</ele>
        <time>2024-04-07T06:57:42Z</time>
      </trkpt>
      <trkpt lat="49.00538" lon="-0.3573">
        <ele>258</ele>
        <time>2024-04-07T06:57:43Z</time>
      </trkpt>
      <trkpt lat="49.00534" lon="-0.35732">
        <ele>258.2</ele>
        <time>2024-04-07T06:57:44Z</time>
      </trkpt>
      <trkpt lat="49.0053" lon="-0.35733">
        <ele>258.4</ele>
        <time>2024-04-07T06:57:45Z</time>
      </trkpt>
      <trkpt lat="49.00525" lon="-0.35734">
        <ele>258.8</ele>
        <time>2024-04-07T06:57:46Z</time>
      </trkpt>
      <trkpt lat="49.00521" lon="-0.35735">
        <ele>259.2</ele>
        <time>2024-04-07T06:57:47Z</time>
      </trkpt>
      <trkpt lat="49.00516" lon="-0.35737">
        <ele>259.4</ele>
        <time>2024-04-07T06:57:48Z</time>
      </trkpt>
      <trkpt lat="49.00512" lon="-0.35738">
        <ele>259.4</ele>
        <time>2024-04-07T06:57:49Z</time>
      </trkpt>
      <trkpt lat="49.00507" lon="-0.35739">
        <ele>259.6</ele>
        <time>2024-04-07T06:57:50Z</time>
      </trkpt>
      <trkpt lat="49.00502" lon="-0.3574">
        <ele>260</ele>
        <time>2024-04-07T06:57:51Z</time>
      </trkpt>
      <trkpt lat="49.00498" lon="-0.35741">
        <ele>260.4</ele>
        <time>2024-04-07T06:57:52Z</time>
      </trkpt>
      <trkpt lat="49.00494" lon="-0.35743">
        <ele>260.8</ele>
        <time>2024-04-07T06:57:53Z</time>
      </trkpt>
      <trkpt lat="49.00489" lon="-0.35744">
        <ele>261</ele>
        <time>2024-04-07T06:57:54Z</time>
      </trkpt>
      <trkpt lat="49.00484" lon="-0.35745">
        <ele>261.4</ele>
        <time>2024-04-07T06:57:55Z</time>
      </trkpt>
      <trkpt lat="49.0048" lon="-0.35747">
        <ele>261.6</ele>
        <time>2024-04-07T06:57:56Z</time>
      </trkpt>
      <trkpt lat="49.00475" lon="-0.35748">
        <ele>261.8</ele>
        <time>2024-04-07T06:57:57Z</time>
      </trkpt>
      <trkpt lat="49.00471" lon="-0.3575">
        <ele>262</ele>
        <time>2024-04-07T06:57:58Z</time>
      </trkpt>
      <trkpt lat="49.00466" lon="-0.35751">
        <ele>262.2</ele>
        <time>2024-04-07T06:57:59Z</time>
      </trkpt>
      <trkpt lat="49.00461" lon="-0.35752">
        <ele>262.4</ele>
        <time>2024-04-07T06:58:00Z</time>
      </trkpt>
      <trkpt lat="49.00457" lon="-0.35754">
        <ele>262.6</ele>
        <time>2024-04-07T06:58:01Z</time>
      </trkpt>
      <trkpt lat="49.00452" lon="-0.35755">
        <ele>262.8</ele>
        <time>2024-04-07T06:58:02Z</time>
      </trkpt>
      <trkpt lat="49.00447" lon="-0.35757">
        <ele>263</ele>
        <time>2024-04-07T06:58:03Z</time>
      </trkpt>
      <trkpt lat="49.00443" lon="-0.35758">
        <ele>263</ele>
        <time>2024-04-07T06:58:04Z</time>
      </trkpt>
      <trkpt lat="49.00438" lon="-0.35759">
        <ele>263.2</ele>
        <time>2024-04-07T06:58:05Z</time>
      </trkpt>
      <trkpt lat="49.00434" lon="-0.35761">
        <ele>263.4</ele>
        <time>2024-04-07T06:58:06Z</time>
      </trkpt>
      <trkpt lat="49.0043" lon="-0.35762">
        <ele>263.6</ele>
        <time>2024-04-07T06:58:07Z</time>
      </trkpt>
      <trkpt lat="49.00425" lon="-0.35763">
        <ele>263.8</ele>
        <time>2024-04-07T06:58:08Z</time>
      </trkpt>
      <trkpt lat="49.00421" lon="-0.35765">
        <ele>264</ele>
        <time>2024-04-07T06:58:09Z</time>
      </trkpt>
      <trkpt lat="49.00416" lon="-0.35766">
        <ele>264.2</ele>
        <time>2024-04-07T06:58:10Z</time>
      </trkpt>
      <trkpt lat="49.00412" lon="-0.35768">
        <ele>264.4</ele>
        <time>2024-04-07T06:58:11Z</time>
      </trkpt>
      <trkpt lat="49.00407" lon="-0.35769">
        <ele>264.6</ele>
        <time>2024-04-07T06:58:12Z</time>
      </trkpt>
      <trkpt lat="49.00398" lon="-0.35772">
        <ele>264.6</ele>
        <time>2024-04-07T06:58:13Z</time>
      </trkpt>
      <trkpt lat="49.00396" lon="-0.35773">
        <ele>264.8</ele>
        <time>2024-04-07T06:58:14Z</time>
      </trkpt>
      <trkpt lat="49.00393" lon="-0.35773">
        <ele>265</ele>
        <time>2024-04-07T06:58:15Z</time>
      </trkpt>
      <trkpt lat="49.00389" lon="-0.35775">
        <ele>265.2</ele>
        <time>2024-04-07T06:58:16Z</time>
      </trkpt>
      <trkpt lat="49.00385" lon="-0.35777">
        <ele>265.4</ele>
        <time>2024-04-07T06:58:17Z</time>
      </trkpt>
      <trkpt lat="49.0038" lon="-0.35778">
        <ele>265.6</ele>
        <time>2024-04-07T06:58:18Z</time>
      </trkpt>
      <trkpt lat="49.00376" lon="-0.3578">
        <ele>265.8</ele>
        <time>2024-04-07T06:58:19Z</time>
      </trkpt>
      <trkpt lat="49.00371" lon="-0.35782">
        <ele>265.8</ele>
        <time>2024-04-07T06:58:20Z</time>
      </trkpt>
      <trkpt lat="49.00367" lon="-0.35784">
        <ele>266</ele>
        <time>2024-04-07T06:58:21Z</time>
      </trkpt>
      <trkpt lat="49.00362" lon="-0.35786">
        <ele>266</ele>
        <time>2024-04-07T06:58:22Z</time>
      </trkpt>
      <trkpt lat="49.00358" lon="-0.35787">
        <ele>266.2</ele>
        <time>2024-04-07T06:58:23Z</time>
      </trkpt>
      <trkpt lat="49.00354" lon="-0.35789">
        <ele>266.2</ele>
        <time>2024-04-07T06:58:24Z</time>
      </trkpt>
      <trkpt lat="49.00349" lon="-0.35791">
        <ele>266.4</ele>
        <time>2024-04-07T06:58:25Z</time>
      </trkpt>
      <trkpt lat="49.00345" lon="-0.35794">
        <ele>266.4</ele>
        <time>2024-04-07T06:58:26Z</time>
      </trkpt>
      <trkpt lat="49.0034" lon="-0.35796">
        <ele>266.6</ele>
        <time>2024-04-07T06:58:27Z</time>
      </trkpt>
      <trkpt lat="49.00336" lon="-0.35798">
        <ele>266.6</ele>
        <time>2024-04-07T06:58:28Z</time>
      </trkpt>
      <trkpt lat="49.00331" lon="-0.35801">
        <ele>266.8</ele>
        <time>2024-04-07T06:58:29Z</time>
      </trkpt>
      <trkpt lat="49.00326" lon="-0.35803">
        <ele>267</ele>
        <time>2024-04-07T06:58:30Z</time>
      </trkpt>
      <trkpt lat="49.00322" lon="-0.35806">
        <ele>267.2</ele>
        <time>2024-04-07T06:58:31Z</time>
      </trkpt>
      <trkpt lat="49.00317" lon="-0.35809">
        <ele>267.4</ele>
        <time>2024-04-07T06:58:32Z</time>
      </trkpt>
      <trkpt lat="49.00312" lon="-0.35812">
        <ele>267.6</ele>
        <time>2024-04-07T06:58:33Z</time>
      </trkpt>
      <trkpt lat="49.00308" lon="-0.35815">
        <ele>267.6</ele>
        <time>2024-04-07T06:58:34Z</time>
      </trkpt>
      <trkpt lat="49.00303" lon="-0.35818">
        <ele>267.8</ele>
        <time>2024-04-07T06:58:35Z</time>
      </trkpt>
      <trkpt lat="49.00299" lon="-0.35821">
        <ele>268</ele>
        <time>2024-04-07T06:58:36Z</time>
      </trkpt>
      <trkpt lat="49.00294" lon="-0.35824">
        <ele>268.2</ele>
        <time>2024-04-07T06:58:37Z</time>
      </trkpt>
      <trkpt lat="49.0029" lon="-0.35827">
        <ele>268.2</ele>
        <time>2024-04-07T06:58:38Z</time>
      </trkpt>
      <trkpt lat="49.00285" lon="-0.3583">
        <ele>268.2</ele>
        <time>2024-04-07T06:58:39Z</time>
      </trkpt>
      <trkpt lat="49.0028" lon="-0.35834">
        <ele>268.4</ele>
        <time>2024-04-07T06:58:40Z</time>
      </trkpt>
      <trkpt lat="49.00276" lon="-0.35837">
        <ele>268.4</ele>
        <time>2024-04-07T06:58:41Z</time>
      </trkpt>
      <trkpt lat="49.00271" lon="-0.35841">
        <ele>268.6</ele>
        <time>2024-04-07T06:58:42Z</time>
      </trkpt>
      <trkpt lat="49.00267" lon="-0.35844">
        <ele>268.6</ele>
        <time>2024-04-07T06:58:43Z</time>
      </trkpt>
      <trkpt lat="49.00262" lon="-0.35848">
        <ele>268.8</ele>
        <time>2024-04-07T06:58:44Z</time>
      </trkpt>
      <trkpt lat="49.00257" lon="-0.35852">
        <ele>268.8</ele>
        <time>2024-04-07T06:58:45Z</time>
      </trkpt>
      <trkpt lat="49.00253" lon="-0.35856">
        <ele>268.8</ele>
        <time>2024-04-07T06:58:46Z</time>
      </trkpt>
      <trkpt lat="49.00248" lon="-0.3586">
        <ele>268.8</ele>
        <time>2024-04-07T06:58:47Z</time>
      </trkpt>
      <trkpt lat="49.00243" lon="-0.35865">
        <ele>268</ele>
        <time>2024-04-07T06:58:48Z</time>
      </trkpt>
      <trkpt lat="49.00238" lon="-0.35869">
        <ele>267</ele>
        <time>2024-04-07T06:58:49Z</time>
      </trkpt>
      <trkpt lat="49.00233" lon="-0.35874">
        <ele>266.2</ele>
        <time>2024-04-07T06:58:50Z</time>
      </trkpt>
      <trkpt lat="49.00227" lon="-0.35879">
        <ele>265.6</ele>
        <time>2024-04-07T06:58:51Z</time>
      </trkpt>
      <trkpt lat="49.00223" lon="-0.35884">
        <ele>265.4</ele>
        <time>2024-04-07T06:58:52Z</time>
      </trkpt>
      <trkpt lat="49.00218" lon="-0.35889">
        <ele>265.2</ele>
        <time>2024-04-07T06:58:53Z</time>
      </trkpt>
      <trkpt lat="49.00213" lon="-0.35894">
        <ele>265</ele>
        <time>2024-04-07T06:58:54Z</time>
      </trkpt>
      <trkpt lat="49.00208" lon="-0.35899">
        <ele>264.8</ele>
        <time>2024-04-07T06:58:55Z</time>
      </trkpt>
      <trkpt lat="49.00202" lon="-0.35904">
        <ele>264.8</ele>
        <time>2024-04-07T06:58:56Z</time>
      </trkpt>
      <trkpt lat="49.00197" lon="-0.35909">
        <ele>264.8</ele>
        <time>2024-04-07T06:58:57Z</time>
      </trkpt>
      <trkpt lat="49.00192" lon="-0.35914">
        <ele>264.8</ele>
        <time>2024-04-07T06:58:58Z</time>
      </trkpt>
      <trkpt lat="49.00187" lon="-0.35918">
        <ele>264.8</ele>
        <time>2024-04-07T06:58:59Z</time>
      </trkpt>
      <trkpt lat="49.00182" lon="-0.35923">
        <ele>264.8</ele>
        <time>2024-04-07T06:59:00Z</time>
      </trkpt>
      <trkpt lat="49.00177" lon="-0.35928">
        <ele>264.8</ele>
        <time>2024-04-07T06:59:01Z</time>
      </trkpt>
      <trkpt lat="49.00172" lon="-0.35933">
        <ele>265</ele>
        <time>2024-04-07T06:59:02Z</time>
      </trkpt>
      <trkpt lat="49.00167" lon="-0.35937">
        <ele>264.8</ele>
        <time>2024-04-07T06:59:03Z</time>
      </trkpt>
      <trkpt lat="49.00162" lon="-0.35942">
        <ele>264.8</ele>
        <time>2024-04-07T06:59:04Z</time>
      </trkpt>
      <trkpt lat="49.00156" lon="-0.35946">
        <ele>264.8</ele>
        <time>2024-04-07T06:59:05Z</time>
      </trkpt>
      <trkpt lat="49.00151" lon="-0.3595">
        <ele>264.8</ele>
        <time>2024-04-07T06:59:06Z</time>
      </trkpt>
      <trkpt lat="49.00146" lon="-0.35954">
        <ele>265</ele>
        <time>2024-04-07T06:59:07Z</time>
      </trkpt>
      <trkpt lat="49.0014" lon="-0.35958">
        <ele>265.2</ele>
        <time>2024-04-07T06:59:08Z</time>
      </trkpt>
      <trkpt lat="49.00135" lon="-0.35962">
        <ele>265.4</ele>
        <time>2024-04-07T06:59:09Z</time>
      </trkpt>
      <trkpt lat="49.00129" lon="-0.35966">
        <ele>265.6</ele>
        <time>2024-04-07T06:59:10Z</time>
      </trkpt>
      <trkpt lat="49.00124" lon="-0.3597">
        <ele>265.6</ele>
        <time>2024-04-07T06:59:11Z</time>
      </trkpt>
      <trkpt lat="49.00118" lon="-0.35973">
        <ele>265.8</ele>
        <time>2024-04-07T06:59:12Z</time>
      </trkpt>
      <trkpt lat="49.00112" lon="-0.35976">
        <ele>265.8</ele>
        <time>2024-04-07T06:59:13Z</time>
      </trkpt>
      <trkpt lat="49.00106" lon="-0.35979">
        <ele>265.8</ele>
        <time>2024-04-07T06:59:14Z</time>
      </trkpt>
      <trkpt lat="49.001" lon="-0.35983">
        <ele>265.8</ele>
        <time>2024-04-07T06:59:15Z</time>
      </trkpt>
      <trkpt lat="49.00094" lon="-0.35986">
        <ele>265.8</ele>
        <time>2024-04-07T06:59:16Z</time>
      </trkpt>
      <trkpt lat="49.00088" lon="-0.35989">
        <ele>265.6</ele>
        <time>2024-04-07T06:59:17Z</time>
      </trkpt>
      <trkpt lat="49.00082" lon="-0.35992">
        <ele>265.6</ele>
        <time>2024-04-07T06:59:18Z</time>
      </trkpt>
      <trkpt lat="49.00076" lon="-0.35996">
        <ele>265.2</ele>
        <time>2024-04-07T06:59:19Z</time>
      </trkpt>
      <trkpt lat="49.0007" lon="-0.35999">
        <ele>265</ele>
        <time>2024-04-07T06:59:20Z</time>
      </trkpt>
      <trkpt lat="49.00063" lon="-0.36002">
        <ele>265</ele>
        <time>2024-04-07T06:59:21Z</time>
      </trkpt>
      <trkpt lat="49.00057" lon="-0.36005">
        <ele>264.8</ele>
        <time>2024-04-07T06:59:22Z</time>
      </trkpt>
      <trkpt lat="49.00051" lon="-0.36009">
        <ele>265</ele>
        <time>2024-04-07T06:59:23Z</time>
      </trkpt>
      <trkpt lat="49.00045" lon="-0.36012">
        <ele>265.2</ele>
        <time>2024-04-07T06:59:24Z</time>
      </trkpt>
      <trkpt lat="49.00039" lon="-0.36015">
        <ele>265.6</ele>
        <time>2024-04-07T06:59:25Z</time>
      </trkpt>
      <trkpt lat="49.00033" lon="-0.36018">
        <ele>265.8</ele>
        <time>2024-04-07T06:59:26Z</time>
      </trkpt>
      <trkpt lat="49.00026" lon="-0.36021">
        <ele>266</ele>
        <time>2024-04-07T06:59:27Z</time>
      </trkpt>
      <trkpt lat="49.0002" lon="-0.36025">
        <ele>266</ele>
        <time>2024-04-07T06:59:28Z</time>
      </trkpt>
      <trkpt lat="49.00014" lon="-0.36028">
        <ele>266.2</ele>
        <time>2024-04-07T06:59:29Z</time>
      </trkpt>
      <trkpt lat="49.00008" lon="-0.36031">
        <ele>266.2</ele>
        <time>2024-04-07T06:59:30Z</time>
      </trkpt>
      <trkpt lat="49.00002" lon="-0.36035">
        <ele>266.2</ele>
        <time>2024-04-07T06:59:31Z</time>
      </trkpt>
      <trkpt lat="48.99995" lon="-0.36038">
        <ele>266.2</ele>
        <time>2024-04-07T06:59:32Z</time>
      </trkpt>
      <trkpt lat="48.99989" lon="-0.36041">
        <ele>266.2</ele>
        <time>2024-04-07T06:59:33Z</time>
      </trkpt>
      <trkpt lat="48.99983" lon="-0.36045">
        <ele>266.2</ele>
        <time>2024-04-07T06:59:34Z</time>
      </trkpt>
      <trkpt lat="48.99976" lon="-0.36048">
        <ele>266.2</ele>
        <time>2024-04-07T06:59:35Z</time>
      </trkpt>
      <trkpt lat="48.9997" lon="-0.36052">
        <ele>266.2</ele>
        <time>2024-04-07T06:59:36Z</time>
      </trkpt>
      <trkpt lat="48.99964" lon="-0.36056">
        <ele>266.2</ele>
        <time>2024-04-07T06:59:37Z</time>
      </trkpt>
      <trkpt lat="48.99957" lon="-0.3606">
        <ele>266.2</ele>
        <time>2024-04-07T06:59:38Z</time>
      </trkpt>
      <trkpt lat="48.99951" lon="-0.36065">
        <ele>266.4</ele>
        <time>2024-04-07T06:59:39Z</time>
      </trkpt>
      <trkpt lat="48.99945" lon="-0.36069">
        <ele>266.4</ele>
        <time>2024-04-07T06:59:40Z</time>
      </trkpt>
      <trkpt lat="48.99939" lon="-0.36074">
        <ele>266.4</ele>
        <time>2024-04-07T06:59:41Z</time>
      </trkpt>
      <trkpt lat="48.99933" lon="-0.36079">
        <ele>266.2</ele>
        <time>2024-04-07T06:59:42Z</time>
      </trkpt>
      <trkpt lat="48.99927" lon="-0.36084">
        <ele>266.2</ele>
        <time>2024-04-07T06:59:43Z</time>
      </trkpt>
      <trkpt lat="48.99921" lon="-0.3609">
        <ele>266</ele>
        <time>2024-04-07T06:59:44Z</time>
      </trkpt>
      <trkpt lat="48.99915" lon="-0.36095">
        <ele>265.8</ele>
        <time>2024-04-07T06:59:45Z</time>
      </trkpt>
      <trkpt lat="48.99909" lon="-0.36101">
        <ele>265.6</ele>
        <time>2024-04-07T06:59:46Z</time>
      </trkpt>
      <trkpt lat="48.99902" lon="-0.36106">
        <ele>265.4</ele>
        <time>2024-04-07T06:59:47Z</time>
      </trkpt>
      <trkpt lat="48.99896" lon="-0.36113">
        <ele>265</ele>
        <time>2024-04-07T06:59:48Z</time>
      </trkpt>
      <trkpt lat="48.99889" lon="-0.36119">
        <ele>264.8</ele>
        <time>2024-04-07T06:59:49Z</time>
      </trkpt>
      <trkpt lat="48.99882" lon="-0.36125">
        <ele>264.6</ele>
        <time>2024-04-07T06:59:50Z</time>
      </trkpt>
      <trkpt lat="48.99876" lon="-0.36131">
        <ele>264.2</ele>
        <time>2024-04-07T06:59:51Z</time>
      </trkpt>
      <trkpt lat="48.99869" lon="-0.36138">
        <ele>263.6</ele>
        <time>2024-04-07T06:59:52Z</time>
      </trkpt>
      <trkpt lat="48.99862" lon="-0.36144">
        <ele>263</ele>
        <time>2024-04-07T06:59:53Z</time>
      </trkpt>
      <trkpt lat="48.99856" lon="-0.3615">
        <ele>262.4</ele>
        <time>2024-04-07T06:59:54Z</time>
      </trkpt>
      <trkpt lat="48.99849" lon="-0.36156">
        <ele>262</ele>
        <time>2024-04-07T06:59:55Z</time>
      </trkpt>
      <trkpt lat="48.99842" lon="-0.36163">
        <ele>261.6</ele>
        <time>2024-04-07T06:59:56Z</time>
      </trkpt>
      <trkpt lat="48.99835" lon="-0.36169">
        <ele>261.2</ele>
        <time>2024-04-07T06:59:57Z</time>
      </trkpt>
      <trkpt lat="48.99828" lon="-0.36176">
        <ele>260.8</ele>
        <time>2024-04-07T06:59:58Z</time>
      </trkpt>
      <trkpt lat="48.99822" lon="-0.36183">
        <ele>260.6</ele>
        <time>2024-04-07T06:59:59Z</time>
      </trkpt>
      <trkpt lat="48.99815" lon="-0.36192">
        <ele>260.4</ele>
        <time>2024-04-07T07:00:00Z</time>
      </trkpt>
      <trkpt lat="48.9981" lon="-0.36201">
        <ele>260.2</ele>
        <time>2024-04-07T07:00:01Z</time>
      </trkpt>
      <trkpt lat="48.99804" lon="-0.3621">
        <ele>260</ele>
        <time>2024-04-07T07:00:02Z</time>
      </trkpt>
      <trkpt lat="48.99799" lon="-0.36221">
        <ele>259.6</ele>
        <time>2024-04-07T07:00:03Z</time>
      </trkpt>
      <trkpt lat="48.99795" lon="-0.36232">
        <ele>259.4</ele>
        <time>2024-04-07T07:00:04Z</time>
      </trkpt>
      <trkpt lat="48.99791" lon="-0.36244">
        <ele>259</ele>
        <time>2024-04-07T07:00:05Z</time>
      </trkpt>
      <trkpt lat="48.99787" lon="-0.36256">
        <ele>258.6</ele>
        <time>2024-04-07T07:00:06Z</time>
      </trkpt>
      <trkpt lat="48.99783" lon="-0.36268">
        <ele>258.2</ele>
        <time>2024-04-07T07:00:07Z</time>
      </trkpt>
      <trkpt lat="48.99779" lon="-0.36281">
        <ele>257.6</ele>
        <time>2024-04-07T07:00:08Z</time>
      </trkpt>
      <trkpt lat="48.99775" lon="-0.36293">
        <ele>256.6</ele>
        <time>2024-04-07T07:00:09Z</time>
      </trkpt>
      <trkpt lat="48.9977" lon="-0.36306">
        <ele>255.6</ele>
        <time>2024-04-07T07:00:10Z</time>
      </trkpt>
      <trkpt lat="48.99765" lon="-0.36317">
        <ele>254.8</ele>
        <time>2024-04-07T07:00:11Z</time>
      </trkpt>
      <trkpt lat="48.9976" lon="-0.36328">
        <ele>254.2</ele>
        <time>2024-04-07T07:00:12Z</time>
      </trkpt>
      <trkpt lat="48.99754" lon="-0.36338">
        <ele>253.6</ele>
        <time>2024-04-07T07:00:13Z</time>
      </trkpt>
      <trkpt lat="48.99748" lon="-0.36347">
        <ele>252.8</ele>
        <time>2024-04-07T07:00:14Z</time>
      </trkpt>
      <trkpt lat="48.99741" lon="-0.36355">
        <ele>252.2</ele>
        <time>2024-04-07T07:00:15Z</time>
      </trkpt>
      <trkpt lat="48.99733" lon="-0.36362">
        <ele>251.6</ele>
        <time>2024-04-07T07:00:16Z</time>
      </trkpt>
      <trkpt lat="48.99726" lon="-0.36368">
        <ele>251.2</ele>
        <time>2024-04-07T07:00:17Z</time>
      </trkpt>
      <trkpt lat="48.99718" lon="-0.36373">
        <ele>251</ele>
        <time>2024-04-07T07:00:18Z</time>
      </trkpt>
      <trkpt lat="48.99709" lon="-0.36377">
        <ele>251</ele>
        <time>2024-04-07T07:00:19Z</time>
      </trkpt>
      <trkpt lat="48.99701" lon="-0.36381">
        <ele>251</ele>
        <time>2024-04-07T07:00:20Z</time>
      </trkpt>
      <trkpt lat="48.99693" lon="-0.36385">
        <ele>251</ele>
        <time>2024-04-07T07:00:21Z</time>
      </trkpt>
      <trkpt lat="48.99677" lon="-0.36391">
        <ele>251.2</ele>
        <time>2024-04-07T07:00:22Z</time>
      </trkpt>
      <trkpt lat="48.99673" lon="-0.36392">
        <ele>251.2</ele>
        <time>2024-04-07T07:00:23Z</time>
      </trkpt>
      <trkpt lat="48.99669" lon="-0.36394">
        <ele>251</ele>
        <time>2024-04-07T07:00:24Z</time>
      </trkpt>
      <trkpt lat="48.99661" lon="-0.36397">
        <ele>251</ele>
        <time>2024-04-07T07:00:25Z</time>
      </trkpt>
      <trkpt lat="48.99654" lon="-0.36401">
        <ele>251</ele>
        <time>2024-04-07T07:00:26Z</time>
      </trkpt>
      <trkpt lat="48.99646" lon="-0.36405">
        <ele>250.8</ele>
        <time>2024-04-07T07:00:27Z</time>
      </trkpt>
      <trkpt lat="48.99638" lon="-0.36409">
        <ele>250.6</ele>
        <time>2024-04-07T07:00:28Z</time>
      </trkpt>
      <trkpt lat="48.99631" lon="-0.36413">
        <ele>250</ele>
        <time>2024-04-07T07:00:29Z</time>
      </trkpt>
      <trkpt lat="48.99625" lon="-0.36418">
        <ele>250.2</ele>
        <time>2024-04-07T07:00:30Z</time>
      </trkpt>
      <trkpt lat="48.99618" lon="-0.36423">
        <ele>250.6</ele>
        <time>2024-04-07T07:00:31Z</time>
      </trkpt>
      <trkpt lat="48.99612" lon="-0.36429">
        <ele>250.8</ele>
        <time>2024-04-07T07:00:32Z</time>
      </trkpt>
      <trkpt lat="48.99606" lon="-0.36435">
        <ele>251</ele>
        <time>2024-04-07T07:00:33Z</time>
      </trkpt>
      <trkpt lat="48.996" lon="-0.3644">
        <ele>251.4</ele>
        <time>2024-04-07T07:00:34Z</time>
      </trkpt>
      <trkpt lat="48.99594" lon="-0.36446">
        <ele>251.6</ele>
        <time>2024-04-07T07:00:35Z</time>
      </trkpt>
      <trkpt lat="48.99588" lon="-0.36452">
        <ele>251.8</ele>
        <time>2024-04-07T07:00:36Z</time>
      </trkpt>
      <trkpt lat="48.99582" lon="-0.36457">
        <ele>251.8</ele>
        <time>2024-04-07T07:00:37Z</time>
      </trkpt>
      <trkpt lat="48.99576" lon="-0.36462">
        <ele>251.8</ele>
        <time>2024-04-07T07:00:38Z</time>
      </trkpt>
      <trkpt lat="48.99571" lon="-0.36468">
        <ele>251.8</ele>
        <time>2024-04-07T07:00:39Z</time>
      </trkpt>
      <trkpt lat="48.99565" lon="-0.36473">
        <ele>251.8</ele>
        <time>2024-04-07T07:00:40Z</time>
      </trkpt>
      <trkpt lat="48.9956" lon="-0.36478">
        <ele>251.8</ele>
        <time>2024-04-07T07:00:41Z</time>
      </trkpt>
      <trkpt lat="48.99554" lon="-0.36483">
        <ele>252</ele>
        <time>2024-04-07T07:00:42Z</time>
      </trkpt>
      <trkpt lat="48.99549" lon="-0.36489">
        <ele>252.2</ele>
        <time>2024-04-07T07:00:43Z</time>
      </trkpt>
      <trkpt lat="48.99543" lon="-0.36494">
        <ele>252.6</ele>
        <time>2024-04-07T07:00:44Z</time>
      </trkpt>
      <trkpt lat="48.99538" lon="-0.365">
        <ele>252.8</ele>
        <time>2024-04-07T07:00:45Z</time>
      </trkpt>
      <trkpt lat="48.99532" lon="-0.36505">
        <ele>253</ele>
        <time>2024-04-07T07:00:46Z</time>
      </trkpt>
      <trkpt lat="48.99527" lon="-0.3651">
        <ele>253</ele>
        <time>2024-04-07T07:00:47Z</time>
      </trkpt>
      <trkpt lat="48.99522" lon="-0.36515">
        <ele>252.8</ele>
        <time>2024-04-07T07:00:48Z</time>
      </trkpt>
      <trkpt lat="48.99516" lon="-0.36521">
        <ele>252.6</ele>
        <time>2024-04-07T07:00:49Z</time>
      </trkpt>
      <trkpt lat="48.99511" lon="-0.36526">
        <ele>252.8</ele>
        <time>2024-04-07T07:00:50Z</time>
      </trkpt>
      <trkpt lat="48.99505" lon="-0.36531">
        <ele>253</ele>
        <time>2024-04-07T07:00:51Z</time>
      </trkpt>
      <trkpt lat="48.995" lon="-0.36537">
        <ele>253</ele>
        <time>2024-04-07T07:00:52Z</time>
      </trkpt>
      <trkpt lat="48.99495" lon="-0.36542">
        <ele>253.2</ele>
        <time>2024-04-07T07:00:53Z</time>
      </trkpt>
      <trkpt lat="48.99489" lon="-0.36547">
        <ele>253.2</ele>
        <time>2024-04-07T07:00:54Z</time>
      </trkpt>
      <trkpt lat="48.99484" lon="-0.36553">
        <ele>253.6</ele>
        <time>2024-04-07T07:00:55Z</time>
      </trkpt>
      <trkpt lat="48.99479" lon="-0.36558">
        <ele>253.6</ele>
        <time>2024-04-07T07:00:56Z</time>
      </trkpt>
      <trkpt lat="48.99474" lon="-0.36564">
        <ele>253.8</ele>
        <time>2024-04-07T07:00:57Z</time>
      </trkpt>
      <trkpt lat="48.99469" lon="-0.36569">
        <ele>253.8</ele>
        <time>2024-04-07T07:00:58Z</time>
      </trkpt>
      <trkpt lat="48.99463" lon="-0.36575">
        <ele>254</ele>
        <time>2024-04-07T07:00:59Z</time>
      </trkpt>
      <trkpt lat="48.99458" lon="-0.36581">
        <ele>254</ele>
        <time>2024-04-07T07:01:00Z</time>
      </trkpt>
      <trkpt lat="48.99453" lon="-0.36587">
        <ele>254.2</ele>
        <time>2024-04-07T07:01:01Z</time>
      </trkpt>
      <trkpt lat="48.99448" lon="-0.36593">
        <ele>254.2</ele>
        <time>2024-04-07T07:01:02Z</time>
      </trkpt>
      <trkpt lat="48.99443" lon="-0.36599">
        <ele>254.2</ele>
        <time>2024-04-07T07:01:03Z</time>
      </trkpt>
      <trkpt lat="48.99439" lon="-0.36605">
        <ele>254.2</ele>
        <time>2024-04-07T07:01:04Z</time>
      </trkpt>
      <trkpt lat="48.99434" lon="-0.36612">
        <ele>254.2</ele>
        <time>2024-04-07T07:01:05Z</time>
      </trkpt>
      <trkpt lat="48.99429" lon="-0.36618">
        <ele>254.2</ele>
        <time>2024-04-07T07:01:06Z</time>
      </trkpt>
      <trkpt lat="48.99424" lon="-0.36624">
        <ele>254.4</ele>
        <time>2024-04-07T07:01:07Z</time>
      </trkpt>
      <trkpt lat="48.99419" lon="-0.36631">
        <ele>254.6</ele>
        <time>2024-04-07T07:01:08Z</time>
      </trkpt>
      <trkpt lat="48.99415" lon="-0.36637">
        <ele>254.8</ele>
        <time>2024-04-07T07:01:09Z</time>
      </trkpt>
      <trkpt lat="48.9941" lon="-0.36644">
        <ele>255</ele>
        <time>2024-04-07T07:01:10Z</time>
      </trkpt>
      <trkpt lat="48.99405" lon="-0.36651">
        <ele>255</ele>
        <time>2024-04-07T07:01:11Z</time>
      </trkpt>
      <trkpt lat="48.994" lon="-0.36658">
        <ele>255</ele>
        <time>2024-04-07T07:01:12Z</time>
      </trkpt>
      <trkpt lat="48.99395" lon="-0.36664">
        <ele>255</ele>
        <time>2024-04-07T07:01:13Z</time>
      </trkpt>
      <trkpt lat="48.99391" lon="-0.36671">
        <ele>254.8</ele>
        <time>2024-04-07T07:01:14Z</time>
      </trkpt>
      <trkpt lat="48.99386" lon="-0.36678">
        <ele>254.8</ele>
        <time>2024-04-07T07:01:15Z</time>
      </trkpt>
      <trkpt lat="48.99381" lon="-0.36685">
        <ele>254.6</ele>
        <time>2024-04-07T07:01:16Z</time>
      </trkpt>
      <trkpt lat="48.99376" lon="-0.36692">
        <ele>254.6</ele>
        <time>2024-04-07T07:01:17Z</time>
      </trkpt>
      <trkpt lat="48.99371" lon="-0.36698">
        <ele>254.6</ele>
        <time>2024-04-07T07:01:18Z</time>
      </trkpt>
      <trkpt lat="48.99366" lon="-0.36705">
        <ele>254.8</ele>
        <time>2024-04-07T07:01:19Z</time>
      </trkpt>
      <trkpt lat="48.99361" lon="-0.36712">
        <ele>254.8</ele>
        <time>2024-04-07T07:01:20Z</time>
      </trkpt>
      <trkpt lat="48.99356" lon="-0.36719">
        <ele>255</ele>
        <time>2024-04-07T07:01:21Z</time>
      </trkpt>
      <trkpt lat="48.99351" lon="-0.36726">
        <ele>255</ele>
        <time>2024-04-07T07:01:22Z</time>
      </trkpt>
      <trkpt lat="48.99346" lon="-0.36733">
        <ele>255</ele>
        <time>2024-04-07T07:01:23Z</time>
      </trkpt>
      <trkpt lat="48.99341" lon="-0.3674">
        <ele>255.2</ele>
        <time>2024-04-07T07:01:24Z</time>
      </trkpt>
      <trkpt lat="48.99336" lon="-0.36747">
        <ele>255.2</ele>
        <time>2024-04-07T07:01:25Z</time>
      </trkpt>
      <trkpt lat="48.99332" lon="-0.36754">
        <ele>255.2</ele>
        <time>2024-04-07T07:01:26Z</time>
      </trkpt>
      <trkpt lat="48.99327" lon="-0.36761">
        <ele>255</ele>
        <time>2024-04-07T07:01:27Z</time>
      </trkpt>
      <trkpt lat="48.99322" lon="-0.36767">
        <ele>255</ele>
        <time>2024-04-07T07:01:28Z</time>
      </trkpt>
      <trkpt lat="48.99317" lon="-0.36774">
        <ele>254.8</ele>
        <time>2024-04-07T07:01:29Z</time>
      </trkpt>
      <trkpt lat="48.99313" lon="-0.36781">
        <ele>254.8</ele>
        <time>2024-04-07T07:01:30Z</time>
      </trkpt>
      <trkpt lat="48.99308" lon="-0.36788">
        <ele>254.8</ele>
        <time>2024-04-07T07:01:31Z</time>
      </trkpt>
      <trkpt lat="48.99303" lon="-0.36795">
        <ele>254.6</ele>
        <time>2024-04-07T07:01:32Z</time>
      </trkpt>
      <trkpt lat="48.99299" lon="-0.36801">
        <ele>254.6</ele>
        <time>2024-04-07T07:01:33Z</time>
      </trkpt>
      <trkpt lat="48.99294" lon="-0.36808">
        <ele>254.6</ele>
        <time>2024-04-07T07:01:34Z</time>
      </trkpt>
      <trkpt lat="48.9929" lon="-0.36815">
        <ele>254.6</ele>
        <time>2024-04-07T07:01:35Z</time>
      </trkpt>
      <trkpt lat="48.99285" lon="-0.36821">
        <ele>254.6</ele>
        <time>2024-04-07T07:01:36Z</time>
      </trkpt>
      <trkpt lat="48.99281" lon="-0.36828">
        <ele>254.6</ele>
        <time>2024-04-07T07:01:37Z</time>
      </trkpt>
      <trkpt lat="48.99276" lon="-0.36834">
        <ele>254.6</ele>
        <time>2024-04-07T07:01:38Z</time>
      </trkpt>
      <trkpt lat="48.99272" lon="-0.36841">
        <ele>254.6</ele>
        <time>2024-04-07T07:01:39Z</time>
      </trkpt>
      <trkpt lat="48.99267" lon="-0.36848">
        <ele>254.6</ele>
        <time>2024-04-07T07:01:40Z</time>
      </trkpt>
      <trkpt lat="48.99263" lon="-0.36854">
        <ele>254.6</ele>
        <time>2024-04-07T07:01:41Z</time>
      </trkpt>
      <trkpt lat="48.99259" lon="-0.36861">
        <ele>254.6</ele>
        <time>2024-04-07T07:01:42Z</time>
      </trkpt>
      <trkpt lat="48.99255" lon="-0.36867">
        <ele>254.6</ele>
        <time>2024-04-07T07:01:43Z</time>
      </trkpt>
      <trkpt lat="48.9925" lon="-0.36873">
        <ele>254.6</ele>
        <time>2024-04-07T07:01:44Z</time>
      </trkpt>
      <trkpt lat="48.99246" lon="-0.36879">
        <ele>254.4</ele>
        <time>2024-04-07T07:01:45Z</time>
      </trkpt>
      <trkpt lat="48.99242" lon="-0.36885">
        <ele>254.4</ele>
        <time>2024-04-07T07:01:46Z</time>
      </trkpt>
      <trkpt lat="48.99238" lon="-0.36891">
        <ele>254.4</ele>
        <time>2024-04-07T07:01:47Z</time>
      </trkpt>
      <trkpt lat="48.99234" lon="-0.36898">
        <ele>254.6</ele>
        <time>2024-04-07T07:01:48Z</time>
      </trkpt>
      <trkpt lat="48.99229" lon="-0.36904">
        <ele>255</ele>
        <time>2024-04-07T07:01:49Z</time>
      </trkpt>
      <trkpt lat="48.99225" lon="-0.3691">
        <ele>255.4</ele>
        <time>2024-04-07T07:01:50Z</time>
      </trkpt>
      <trkpt lat="48.99221" lon="-0.36916">
        <ele>255.8</ele>
        <time>2024-04-07T07:01:51Z</time>
      </trkpt>
      <trkpt lat="48.99217" lon="-0.36922">
        <ele>255.8</ele>
        <time>2024-04-07T07:01:52Z</time>
      </trkpt>
      <trkpt lat="48.99213" lon="-0.36929">
        <ele>256</ele>
        <time>2024-04-07T07:01:53Z</time>
      </trkpt>
      <trkpt lat="48.99209" lon="-0.36935">
        <ele>256</ele>
        <time>2024-04-07T07:01:54Z</time>
      </trkpt>
      <trkpt lat="48.99205" lon="-0.36941">
        <ele>256</ele>
        <time>2024-04-07T07:01:55Z</time>
      </trkpt>
      <trkpt lat="48.99201" lon="-0.36947">
        <ele>256</ele>
        <time>2024-04-07T07:01:56Z</time>
      </trkpt>
      <trkpt lat="48.99197" lon="-0.36952">
        <ele>256</ele>
        <time>2024-04-07T07:01:57Z</time>
      </trkpt>
      <trkpt lat="48.99192" lon="-0.36958">
        <ele>256.2</ele>
        <time>2024-04-07T07:01:58Z</time>
      </trkpt>
      <trkpt lat="48.99188" lon="-0.36963">
        <ele>256.4</ele>
        <time>2024-04-07T07:01:59Z</time>
      </trkpt>
      <trkpt lat="48.99184" lon="-0.36969">
        <ele>256.6</ele>
        <time>2024-04-07T07:02:00Z</time>
      </trkpt>
      <trkpt lat="48.99179" lon="-0.36974">
        <ele>256.8</ele>
        <time>2024-04-07T07:02:01Z</time>
      </trkpt>
      <trkpt lat="48.99175" lon="-0.36979">
        <ele>257</ele>
        <time>2024-04-07T07:02:02Z</time>
      </trkpt>
      <trkpt lat="48.9917" lon="-0.36983">
        <ele>257.2</ele>
        <time>2024-04-07T07:02:03Z</time>
      </trkpt>
      <trkpt lat="48.99166" lon="-0.36988">
        <ele>257.8</ele>
        <time>2024-04-07T07:02:04Z</time>
      </trkpt>
      <trkpt lat="48.99161" lon="-0.36992">
        <ele>258.4</ele>
        <time>2024-04-07T07:02:05Z</time>
      </trkpt>
      <trkpt lat="48.99156" lon="-0.36996">
        <ele>258.8</ele>
        <time>2024-04-07T07:02:06Z</time>
      </trkpt>
      <trkpt lat="48.99151" lon="-0.37">
        <ele>259.2</ele>
        <time>2024-04-07T07:02:07Z</time>
      </trkpt>
      <trkpt lat="48.99147" lon="-0.37004">
        <ele>259.6</ele>
        <time>2024-04-07T07:02:08Z</time>
      </trkpt>
      <trkpt lat="48.99142" lon="-0.37008">
        <ele>260</ele>
        <time>2024-04-07T07:02:09Z</time>
      </trkpt>
      <trkpt lat="48.99138" lon="-0.37012">
        <ele>260.2</ele>
        <time>2024-04-07T07:02:10Z</time>
      </trkpt>
      <trkpt lat="48.99133" lon="-0.37015">
        <ele>260.6</ele>
        <time>2024-04-07T07:02:11Z</time>
      </trkpt>
      <trkpt lat="48.99128" lon="-0.37018">
        <ele>261</ele>
        <time>2024-04-07T07:02:12Z</time>
      </trkpt>
      <trkpt lat="48.99124" lon="-0.37022">
        <ele>261.4</ele>
        <time>2024-04-07T07:02:13Z</time>
      </trkpt>
      <trkpt lat="48.99119" lon="-0.37025">
        <ele>261.6</ele>
        <time>2024-04-07T07:02:14Z</time>
      </trkpt>
      <trkpt lat="48.99115" lon="-0.37027">
        <ele>262</ele>
        <time>2024-04-07T07:02:15Z</time>
      </trkpt>
      <trkpt lat="48.99111" lon="-0.3703">
        <ele>262.4</ele>
        <time>2024-04-07T07:02:16Z</time>
      </trkpt>
      <trkpt lat="48.99107" lon="-0.37033">
        <ele>262.6</ele>
        <time>2024-04-07T07:02:17Z</time>
      </trkpt>
      <trkpt lat="48.99102" lon="-0.37036">
        <ele>262.8</ele>
        <time>2024-04-07T07:02:18Z</time>
      </trkpt>
      <trkpt lat="48.99098" lon="-0.37039">
        <ele>263</ele>
        <time>2024-04-07T07:02:19Z</time>
      </trkpt>
      <trkpt lat="48.99094" lon="-0.37042">
        <ele>263.2</ele>
        <time>2024-04-07T07:02:20Z</time>
      </trkpt>
      <trkpt lat="48.9909" lon="-0.37045">
        <ele>263.2</ele>
        <time>2024-04-07T07:02:21Z</time>
      </trkpt>
      <trkpt lat="48.99085" lon="-0.37047">
        <ele>263.4</ele>
        <time>2024-04-07T07:02:22Z</time>
      </trkpt>
      <trkpt lat="48.99081" lon="-0.3705">
        <ele>263.6</ele>
        <time>2024-04-07T07:02:23Z</time>
      </trkpt>
      <trkpt lat="48.99077" lon="-0.37053">
        <ele>264</ele>
        <time>2024-04-07T07:02:24Z</time>
      </trkpt>
      <trkpt lat="48.99073" lon="-0.37055">
        <ele>264.6</ele>
        <time>2024-04-07T07:02:25Z</time>
      </trkpt>
      <trkpt lat="48.99069" lon="-0.37058">
        <ele>265</ele>
        <time>2024-04-07T07:02:26Z</time>
      </trkpt>
      <trkpt lat="48.99065" lon="-0.3706">
        <ele>265.2</ele>
        <time>2024-04-07T07:02:27Z</time>
      </trkpt>
      <trkpt lat="48.99061" lon="-0.37062">
        <ele>265.4</ele>
        <time>2024-04-07T07:02:28Z</time>
      </trkpt>
      <trkpt lat="48.99057" lon="-0.37065">
        <ele>265.4</ele>
        <time>2024-04-07T07:02:29Z</time>
      </trkpt>
      <trkpt lat="48.99054" lon="-0.37067">
        <ele>265.6</ele>
        <time>2024-04-07T07:02:30Z</time>
      </trkpt>
      <trkpt lat="48.9905" lon="-0.3707">
        <ele>265.8</ele>
        <time>2024-04-07T07:02:31Z</time>
      </trkpt>
      <trkpt lat="48.99041" lon="-0.37075">
        <ele>265.8</ele>
        <time>2024-04-07T07:02:32Z</time>
      </trkpt>
      <trkpt lat="48.99039" lon="-0.37076">
        <ele>266</ele>
        <time>2024-04-07T07:02:33Z</time>
      </trkpt>
      <trkpt lat="48.99037" lon="-0.37078">
        <ele>266.4</ele>
        <time>2024-04-07T07:02:34Z</time>
      </trkpt>
      <trkpt lat="48.99033" lon="-0.37081">
        <ele>266.8</ele>
        <time>2024-04-07T07:02:35Z</time>
      </trkpt>
      <trkpt lat="48.99029" lon="-0.37085">
        <ele>267</ele>
        <time>2024-04-07T07:02:36Z</time>
      </trkpt>
      <trkpt lat="48.99025" lon="-0.37088">
        <ele>267.2</ele>
        <time>2024-04-07T07:02:37Z</time>
      </trkpt>
      <trkpt lat="48.99022" lon="-0.37092">
        <ele>267.4</ele>
        <time>2024-04-07T07:02:38Z</time>
      </trkpt>
      <trkpt lat="48.99018" lon="-0.37094">
        <ele>267.6</ele>
        <time>2024-04-07T07:02:39Z</time>
      </trkpt>
      <trkpt lat="48.99014" lon="-0.37098">
        <ele>267.6</ele>
        <time>2024-04-07T07:02:40Z</time>
      </trkpt>
      <trkpt lat="48.99011" lon="-0.37101">
        <ele>267.8</ele>
        <time>2024-04-07T07:02:41Z</time>
      </trkpt>
      <trkpt lat="48.99009" lon="-0.37103">
        <ele>267.8</ele>
        <time>2024-04-07T07:02:42Z</time>
      </trkpt>
      <trkpt lat="48.99006" lon="-0.37105">
        <ele>268</ele>
        <time>2024-04-07T07:02:43Z</time>
      </trkpt>
      <trkpt lat="48.99003" lon="-0.37108">
        <ele>268.2</ele>
        <time>2024-04-07T07:02:44Z</time>
      </trkpt>
      <trkpt lat="48.99" lon="-0.37111">
        <ele>268.4</ele>
        <time>2024-04-07T07:02:45Z</time>
      </trkpt>
      <trkpt lat="48.98996" lon="-0.37115">
        <ele>268.8</ele>
        <time>2024-04-07T07:02:46Z</time>
      </trkpt>
      <trkpt lat="48.98993" lon="-0.37119">
        <ele>269.2</ele>
        <time>2024-04-07T07:02:47Z</time>
      </trkpt>
      <trkpt lat="48.98991" lon="-0.37123">
        <ele>269.4</ele>
        <time>2024-04-07T07:02:48Z</time>
      </trkpt>
      <trkpt lat="48.98988" lon="-0.37127">
        <ele>269.8</ele>
        <time>2024-04-07T07:02:49Z</time>
      </trkpt>
      <trkpt lat="48.98985" lon="-0.37131">
        <ele>270.2</ele>
        <time>2024-04-07T07:02:50Z</time>
      </trkpt>
      <trkpt lat="48.98982" lon="-0.37136">
        <ele>270.4</ele>
        <time>2024-04-07T07:02:51Z</time>
      </trkpt>
      <trkpt lat="48.98978" lon="-0.3714">
        <ele>270.8</ele>
        <time>2024-04-07T07:02:52Z</time>
      </trkpt>
      <trkpt lat="48.98975" lon="-0.37144">
        <ele>271</ele>
        <time>2024-04-07T07:02:53Z</time>
      </trkpt>
      <trkpt lat="48.98972" lon="-0.37148">
        <ele>271.2</ele>
        <time>2024-04-07T07:02:54Z</time>
      </trkpt>
      <trkpt lat="48.98969" lon="-0.37152">
        <ele>271.4</ele>
        <time>2024-04-07T07:02:55Z</time>
      </trkpt>
      <trkpt lat="48.98966" lon="-0.37157">
        <ele>271.6</ele>
        <time>2024-04-07T07:02:56Z</time>
      </trkpt>
      <trkpt lat="48.98964" lon="-0.37162">
        <ele>271.8</ele>
        <time>2024-04-07T07:02:57Z</time>
      </trkpt>
      <trkpt lat="48.98961" lon="-0.37166">
        <ele>271.8</ele>
        <time>2024-04-07T07:02:58Z</time>
      </trkpt>
      <trkpt lat="48.98958" lon="-0.37172">
        <ele>271.8</ele>
        <time>2024-04-07T07:02:59Z</time>
      </trkpt>
      <trkpt lat="48.98955" lon="-0.37177">
        <ele>272</ele>
        <time>2024-04-07T07:03:00Z</time>
      </trkpt>
      <trkpt lat="48.98952" lon="-0.37182">
        <ele>272.2</ele>
        <time>2024-04-07T07:03:01Z</time>
      </trkpt>
      <trkpt lat="48.98949" lon="-0.37188">
        <ele>272.4</ele>
        <time>2024-04-07T07:03:02Z</time>
      </trkpt>
      <trkpt lat="48.98945" lon="-0.37192">
        <ele>272.6</ele>
        <time>2024-04-07T07:03:03Z</time>
      </trkpt>
      <trkpt lat="48.98942" lon="-0.37198">
        <ele>272.8</ele>
        <time>2024-04-07T07:03:04Z</time>
      </trkpt>
      <trkpt lat="48.98939" lon="-0.37203">
        <ele>273.4</ele>
        <time>2024-04-07T07:03:05Z</time>
      </trkpt>
      <trkpt lat="48.98936" lon="-0.37209">
        <ele>274</ele>
        <time>2024-04-07T07:03:06Z</time>
      </trkpt>
      <trkpt lat="48.98933" lon="-0.37215">
        <ele>274.4</ele>
        <time>2024-04-07T07:03:07Z</time>
      </trkpt>
      <trkpt lat="48.9893" lon="-0.37221">
        <ele>274.8</ele>
        <time>2024-04-07T07:03:08Z</time>
      </trkpt>
      <trkpt lat="48.98927" lon="-0.37227">
        <ele>275</ele>
        <time>2024-04-07T07:03:09Z</time>
      </trkpt>
      <trkpt lat="48.98923" lon="-0.37233">
        <ele>275.2</ele>
        <time>2024-04-07T07:03:10Z</time>
      </trkpt>
      <trkpt lat="48.9892" lon="-0.37239">
        <ele>275.2</ele>
        <time>2024-04-07T07:03:11Z</time>
      </trkpt>
      <trkpt lat="48.98917" lon="-0.37245">
        <ele>275.4</ele>
        <time>2024-04-07T07:03:12Z</time>
      </trkpt>
      <trkpt lat="48.98914" lon="-0.37251">
        <ele>275.4</ele>
        <time>2024-04-07T07:03:13Z</time>
      </trkpt>
      <trkpt lat="48.98911" lon="-0.37257">
        <ele>275.8</ele>
        <time>2024-04-07T07:03:14Z</time>
      </trkpt>
      <trkpt lat="48.98908" lon="-0.37263">
        <ele>276</ele>
        <time>2024-04-07T07:03:15Z</time>
      </trkpt>
      <trkpt lat="48.98905" lon="-0.37268">
        <ele>276.2</ele>
        <time>2024-04-07T07:03:16Z</time>
      </trkpt>
      <trkpt lat="48.98901" lon="-0.37274">
        <ele>276.4</ele>
        <time>2024-04-07T07:03:17Z</time>
      </trkpt>
      <trkpt lat="48.98898" lon="-0.3728">
        <ele>276.6</ele>
        <time>2024-04-07T07:03:18Z</time>
      </trkpt>
      <trkpt lat="48.98894" lon="-0.37285">
        <ele>276.6</ele>
        <time>2024-04-07T07:03:19Z</time>
      </trkpt>
      <trkpt lat="48.98891" lon="-0.3729">
        <ele>276.6</ele>
        <time>2024-04-07T07:03:20Z</time>
      </trkpt>
      <trkpt lat="48.98887" lon="-0.37295">
        <ele>276.4</ele>
        <time>2024-04-07T07:03:21Z</time>
      </trkpt>
      <trkpt lat="48.98883" lon="-0.373">
        <ele>276.6</ele>
        <time>2024-04-07T07:03:22Z</time>
      </trkpt>
      <trkpt lat="48.98879" lon="-0.37304">
        <ele>276.6</ele>
        <time>2024-04-07T07:03:23Z</time>
      </trkpt>
      <trkpt lat="48.98875" lon="-0.37309">
        <ele>276.6</ele>
        <time>2024-04-07T07:03:24Z</time>
      </trkpt>
      <trkpt lat="48.98872" lon="-0.37313">
        <ele>276.8</ele>
        <time>2024-04-07T07:03:25Z</time>
      </trkpt>
      <trkpt lat="48.98868" lon="-0.37318">
        <ele>276.8</ele>
        <time>2024-04-07T07:03:26Z</time>
      </trkpt>
      <trkpt lat="48.98863" lon="-0.37321">
        <ele>276.8</ele>
        <time>2024-04-07T07:03:27Z</time>
      </trkpt>
      <trkpt lat="48.98859" lon="-0.37325">
        <ele>276.8</ele>
        <time>2024-04-07T07:03:28Z</time>
      </trkpt>
      <trkpt lat="48.98855" lon="-0.3733">
        <ele>277</ele>
        <time>2024-04-07T07:03:29Z</time>
      </trkpt>
      <trkpt lat="48.9885" lon="-0.37334">
        <ele>277</ele>
        <time>2024-04-07T07:03:30Z</time>
      </trkpt>
      <trkpt lat="48.98846" lon="-0.37337">
        <ele>276.8</ele>
        <time>2024-04-07T07:03:31Z</time>
      </trkpt>
      <trkpt lat="48.98842" lon="-0.37341">
        <ele>276.8</ele>
        <time>2024-04-07T07:03:32Z</time>
      </trkpt>
      <trkpt lat="48.98838" lon="-0.37345">
        <ele>276.8</ele>
        <time>2024-04-07T07:03:33Z</time>
      </trkpt>
      <trkpt lat="48.98834" lon="-0.37349">
        <ele>276.8</ele>
        <time>2024-04-07T07:03:34Z</time>
      </trkpt>
      <trkpt lat="48.9883" lon="-0.37353">
        <ele>276.6</ele>
        <time>2024-04-07T07:03:35Z</time>
      </trkpt>
      <trkpt lat="48.98826" lon="-0.37356">
        <ele>276.6</ele>
        <time>2024-04-07T07:03:36Z</time>
      </trkpt>
      <trkpt lat="48.98822" lon="-0.3736">
        <ele>276.4</ele>
        <time>2024-04-07T07:03:37Z</time>
      </trkpt>
      <trkpt lat="48.98818" lon="-0.37364">
        <ele>276.4</ele>
        <time>2024-04-07T07:03:38Z</time>
      </trkpt>
      <trkpt lat="48.98815" lon="-0.37368">
        <ele>276.4</ele>
        <time>2024-04-07T07:03:39Z</time>
      </trkpt>
      <trkpt lat="48.98811" lon="-0.37373">
        <ele>276.4</ele>
        <time>2024-04-07T07:03:40Z</time>
      </trkpt>
      <trkpt lat="48.98807" lon="-0.37378">
        <ele>276.6</ele>
        <time>2024-04-07T07:03:41Z</time>
      </trkpt>
      <trkpt lat="48.98803" lon="-0.37382">
        <ele>276.8</ele>
        <time>2024-04-07T07:03:42Z</time>
      </trkpt>
      <trkpt lat="48.98799" lon="-0.37387">
        <ele>277</ele>
        <time>2024-04-07T07:03:43Z</time>
      </trkpt>
      <trkpt lat="48.98796" lon="-0.37392">
        <ele>277</ele>
        <time>2024-04-07T07:03:44Z</time>
      </trkpt>
      <trkpt lat="48.98793" lon="-0.37398">
        <ele>277.2</ele>
        <time>2024-04-07T07:03:45Z</time>
      </trkpt>
      <trkpt lat="48.98789" lon="-0.37403">
        <ele>277.4</ele>
        <time>2024-04-07T07:03:46Z</time>
      </trkpt>
      <trkpt lat="48.98786" lon="-0.37409">
        <ele>278</ele>
        <time>2024-04-07T07:03:47Z</time>
      </trkpt>
      <trkpt lat="48.98783" lon="-0.37416">
        <ele>278.4</ele>
        <time>2024-04-07T07:03:48Z</time>
      </trkpt>
      <trkpt lat="48.98781" lon="-0.37422">
        <ele>278.8</ele>
        <time>2024-04-07T07:03:49Z</time>
      </trkpt>
      <trkpt lat="48.98779" lon="-0.37428">
        <ele>279</ele>
        <time>2024-04-07T07:03:50Z</time>
      </trkpt>
      <trkpt lat="48.98777" lon="-0.37436">
        <ele>279.4</ele>
        <time>2024-04-07T07:03:51Z</time>
      </trkpt>
      <trkpt lat="48.98776" lon="-0.37443">
        <ele>279.6</ele>
        <time>2024-04-07T07:03:52Z</time>
      </trkpt>
      <trkpt lat="48.98774" lon="-0.37451">
        <ele>279.6</ele>
        <time>2024-04-07T07:03:53Z</time>
      </trkpt>
      <trkpt lat="48.98774" lon="-0.37459">
        <ele>279.8</ele>
        <time>2024-04-07T07:03:54Z</time>
      </trkpt>
      <trkpt lat="48.98773" lon="-0.37467">
        <ele>279.8</ele>
        <time>2024-04-07T07:03:55Z</time>
      </trkpt>
      <trkpt lat="48.98772" lon="-0.37475">
        <ele>279.8</ele>
        <time>2024-04-07T07:03:56Z</time>
      </trkpt>
      <trkpt lat="48.98771" lon="-0.37483">
        <ele>279.8</ele>
        <time>2024-04-07T07:03:57Z</time>
      </trkpt>
      <trkpt lat="48.9877" lon="-0.37491">
        <ele>279.8</ele>
        <time>2024-04-07T07:03:58Z</time>
      </trkpt>
      <trkpt lat="48.9877" lon="-0.37499">
        <ele>279.6</ele>
        <time>2024-04-07T07:03:59Z</time>
      </trkpt>
      <trkpt lat="48.98768" lon="-0.37507">
        <ele>279.2</ele>
        <time>2024-04-07T07:04:00Z</time>
      </trkpt>
      <trkpt lat="48.98767" lon="-0.37515">
        <ele>278.8</ele>
        <time>2024-04-07T07:04:01Z</time>
      </trkpt>
      <trkpt lat="48.98765" lon="-0.37523">
        <ele>278.6</ele>
        <time>2024-04-07T07:04:02Z</time>
      </trkpt>
      <trkpt lat="48.98763" lon="-0.37531">
        <ele>278.6</ele>
        <time>2024-04-07T07:04:03Z</time>
      </trkpt>
      <trkpt lat="48.98761" lon="-0.37539">
        <ele>278.4</ele>
        <time>2024-04-07T07:04:04Z</time>
      </trkpt>
      <trkpt lat="48.98759" lon="-0.37547">
        <ele>278.4</ele>
        <time>2024-04-07T07:04:05Z</time>
      </trkpt>
      <trkpt lat="48.98757" lon="-0.37556">
        <ele>278.6</ele>
        <time>2024-04-07T07:04:06Z</time>
      </trkpt>
      <trkpt lat="48.98755" lon="-0.37564">
        <ele>278.6</ele>
        <time>2024-04-07T07:04:07Z</time>
      </trkpt>
      <trkpt lat="48.98753" lon="-0.37573">
        <ele>278.8</ele>
        <time>2024-04-07T07:04:08Z</time>
      </trkpt>
      <trkpt lat="48.98751" lon="-0.37581">
        <ele>278.8</ele>
        <time>2024-04-07T07:04:09Z</time>
      </trkpt>
      <trkpt lat="48.98749" lon="-0.3759">
        <ele>278.8</ele>
        <time>2024-04-07T07:04:10Z</time>
      </trkpt>
      <trkpt lat="48.98746" lon="-0.37598">
        <ele>278.8</ele>
        <time>2024-04-07T07:04:11Z</time>
      </trkpt>
      <trkpt lat="48.98744" lon="-0.37607">
        <ele>278.8</ele>
        <time>2024-04-07T07:04:12Z</time>
      </trkpt>
      <trkpt lat="48.98742" lon="-0.37615">
        <ele>278.8</ele>
        <time>2024-04-07T07:04:13Z</time>
      </trkpt>
      <trkpt lat="48.9874" lon="-0.37622">
        <ele>278.8</ele>
        <time>2024-04-07T07:04:14Z</time>
      </trkpt>
      <trkpt lat="48.98738" lon="-0.37628">
        <ele>278.8</ele>
        <time>2024-04-07T07:04:15Z</time>
      </trkpt>
      <trkpt lat="48.98736" lon="-0.37635">
        <ele>278.8</ele>
        <time>2024-04-07T07:04:16Z</time>
      </trkpt>
      <trkpt lat="48.98733" lon="-0.37642">
        <ele>278.6</ele>
        <time>2024-04-07T07:04:17Z</time>
      </trkpt>
      <trkpt lat="48.9873" lon="-0.37649">
        <ele>278.6</ele>
        <time>2024-04-07T07:04:18Z</time>
      </trkpt>
      <trkpt lat="48.98727" lon="-0.37655">
        <ele>278.6</ele>
        <time>2024-04-07T07:04:19Z</time>
      </trkpt>
      <trkpt lat="48.98724" lon="-0.37661">
        <ele>278.6</ele>
        <time>2024-04-07T07:04:20Z</time>
      </trkpt>
      <trkpt lat="48.98722" lon="-0.37665">
        <ele>278.8</ele>
        <time>2024-04-07T07:04:21Z</time>
      </trkpt>
      <trkpt lat="48.98719" lon="-0.37669">
        <ele>279</ele>
        <time>2024-04-07T07:04:22Z</time>
      </trkpt>
      <trkpt lat="48.98716" lon="-0.37674">
        <ele>279</ele>
        <time>2024-04-07T07:04:23Z</time>
      </trkpt>
      <trkpt lat="48.98712" lon="-0.37679">
        <ele>279.2</ele>
        <time>2024-04-07T07:04:24Z</time>
      </trkpt>
      <trkpt lat="48.98709" lon="-0.37684">
        <ele>279.4</ele>
        <time>2024-04-07T07:04:25Z</time>
      </trkpt>
      <trkpt lat="48.98706" lon="-0.37689">
        <ele>279.6</ele>
        <time>2024-04-07T07:04:26Z</time>
      </trkpt>
      <trkpt lat="48.98703" lon="-0.37693">
        <ele>279.8</ele>
        <time>2024-04-07T07:04:27Z</time>
      </trkpt>
      <trkpt lat="48.98699" lon="-0.37697">
        <ele>280.2</ele>
        <time>2024-04-07T07:04:28Z</time>
      </trkpt>
      <trkpt lat="48.98696" lon="-0.37702">
        <ele>280.6</ele>
        <time>2024-04-07T07:04:29Z</time>
      </trkpt>
      <trkpt lat="48.98693" lon="-0.37706">
        <ele>281</ele>
        <time>2024-04-07T07:04:30Z</time>
      </trkpt>
      <trkpt lat="48.9869" lon="-0.3771">
        <ele>281.4</ele>
        <time>2024-04-07T07:04:31Z</time>
      </trkpt>
      <trkpt lat="48.98688" lon="-0.37714">
        <ele>281.6</ele>
        <time>2024-04-07T07:04:32Z</time>
      </trkpt>
      <trkpt lat="48.98686" lon="-0.37718">
        <ele>281.8</ele>
        <time>2024-04-07T07:04:33Z</time>
      </trkpt>
      <trkpt lat="48.98684" lon="-0.37722">
        <ele>282</ele>
        <time>2024-04-07T07:04:34Z</time>
      </trkpt>
      <trkpt lat="48.98682" lon="-0.37724">
        <ele>282.2</ele>
        <time>2024-04-07T07:04:35Z</time>
      </trkpt>
      <trkpt lat="48.9868" lon="-0.37727">
        <ele>282.2</ele>
        <time>2024-04-07T07:04:36Z</time>
      </trkpt>
      <trkpt lat="48.98678" lon="-0.37729">
        <ele>282.2</ele>
        <time>2024-04-07T07:04:37Z</time>
      </trkpt>
      <trkpt lat="48.98676" lon="-0.37731">
        <ele>282.2</ele>
        <time>2024-04-07T07:04:38Z</time>
      </trkpt>
      <trkpt lat="48.98675" lon="-0.37732">
        <ele>282</ele>
        <time>2024-04-07T07:04:39Z</time>
      </trkpt>
      <trkpt lat="48.98673" lon="-0.37734">
        <ele>281.8</ele>
        <time>2024-04-07T07:04:40Z</time>
      </trkpt>
      <trkpt lat="48.98672" lon="-0.37736">
        <ele>281.8</ele>
        <time>2024-04-07T07:04:41Z</time>
      </trkpt>
      <trkpt lat="48.98671" lon="-0.37739">
        <ele>281.8</ele>
        <time>2024-04-07T07:04:42Z</time>
      </trkpt>
      <trkpt lat="48.98669" lon="-0.37742">
        <ele>281.8</ele>
        <time>2024-04-07T07:04:43Z</time>
      </trkpt>
      <trkpt lat="48.98667" lon="-0.37746">
        <ele>281.8</ele>
        <time>2024-04-07T07:04:44Z</time>
      </trkpt>
      <trkpt lat="48.98664" lon="-0.3775">
        <ele>281.8</ele>
        <time>2024-04-07T07:04:45Z</time>
      </trkpt>
      <trkpt lat="48.98662" lon="-0.37753">
        <ele>281.8</ele>
        <time>2024-04-07T07:04:46Z</time>
      </trkpt>
      <trkpt lat="48.9866" lon="-0.37756">
        <ele>281.8</ele>
        <time>2024-04-07T07:04:47Z</time>
      </trkpt>
      <trkpt lat="48.98658" lon="-0.37758">
        <ele>282</ele>
        <time>2024-04-07T07:04:48Z</time>
      </trkpt>
      <trkpt lat="48.98656" lon="-0.37761">
        <ele>282</ele>
        <time>2024-04-07T07:04:49Z</time>
      </trkpt>
      <trkpt lat="48.98653" lon="-0.37764">
        <ele>282</ele>
        <time>2024-04-07T07:04:50Z</time>
      </trkpt>
      <trkpt lat="48.98651" lon="-0.37767">
        <ele>282</ele>
        <time>2024-04-07T07:04:51Z</time>
      </trkpt>
      <trkpt lat="48.98649" lon="-0.3777">
        <ele>282</ele>
        <time>2024-04-07T07:04:52Z</time>
      </trkpt>
      <trkpt lat="48.98647" lon="-0.37773">
        <ele>282</ele>
        <time>2024-04-07T07:04:53Z</time>
      </trkpt>
      <trkpt lat="48.98645" lon="-0.37776">
        <ele>281.8</ele>
        <time>2024-04-07T07:04:54Z</time>
      </trkpt>
      <trkpt lat="48.98642" lon="-0.3778">
        <ele>281.8</ele>
        <time>2024-04-07T07:04:55Z</time>
      </trkpt>
      <trkpt lat="48.98639" lon="-0.37783">
        <ele>281.6</ele>
        <time>2024-04-07T07:04:56Z</time>
      </trkpt>
      <trkpt lat="48.98636" lon="-0.37787">
        <ele>281.4</ele>
        <time>2024-04-07T07:04:57Z</time>
      </trkpt>
      <trkpt lat="48.98634" lon="-0.37791">
        <ele>281.2</ele>
        <time>2024-04-07T07:04:58Z</time>
      </trkpt>
      <trkpt lat="48.98631" lon="-0.37796">
        <ele>281</ele>
        <time>2024-04-07T07:04:59Z</time>
      </trkpt>
      <trkpt lat="48.98628" lon="-0.378">
        <ele>281</ele>
        <time>2024-04-07T07:05:00Z</time>
      </trkpt>
      <trkpt lat="48.98625" lon="-0.37804">
        <ele>280.8</ele>
        <time>2024-04-07T07:05:01Z</time>
      </trkpt>
      <trkpt lat="48.98622" lon="-0.37808">
        <ele>281</ele>
        <time>2024-04-07T07:05:02Z</time>
      </trkpt>
      <trkpt lat="48.98619" lon="-0.37812">
        <ele>281</ele>
        <time>2024-04-07T07:05:03Z</time>
      </trkpt>
      <trkpt lat="48.98617" lon="-0.37815">
        <ele>281</ele>
        <time>2024-04-07T07:05:04Z</time>
      </trkpt>
      <trkpt lat="48.98614" lon="-0.37819">
        <ele>281</ele>
        <time>2024-04-07T07:05:05Z</time>
      </trkpt>
      <trkpt lat="48.98611" lon="-0.37823">
        <ele>281</ele>
        <time>2024-04-07T07:05:06Z</time>
      </trkpt>
      <trkpt lat="48.98608" lon="-0.37827">
        <ele>280.8</ele>
        <time>2024-04-07T07:05:07Z</time>
      </trkpt>
      <trkpt lat="48.98604" lon="-0.3783">
        <ele>280.8</ele>
        <time>2024-04-07T07:05:08Z</time>
      </trkpt>
      <trkpt lat="48.98601" lon="-0.37834">
        <ele>280.6</ele>
        <time>2024-04-07T07:05:09Z</time>
      </trkpt>
      <trkpt lat="48.98598" lon="-0.37839">
        <ele>280.6</ele>
        <time>2024-04-07T07:05:10Z</time>
      </trkpt>
      <trkpt lat="48.98595" lon="-0.37843">
        <ele>280.8</ele>
        <time>2024-04-07T07:05:11Z</time>
      </trkpt>
      <trkpt lat="48.98592" lon="-0.37847">
        <ele>280.8</ele>
        <time>2024-04-07T07:05:12Z</time>
      </trkpt>
      <trkpt lat="48.98589" lon="-0.37851">
        <ele>280.8</ele>
        <time>2024-04-07T07:05:13Z</time>
      </trkpt>
      <trkpt lat="48.98586" lon="-0.37855">
        <ele>280.8</ele>
        <time>2024-04-07T07:05:14Z</time>
      </trkpt>
      <trkpt lat="48.98583" lon="-0.3786">
        <ele>280.8</ele>
        <time>2024-04-07T07:05:15Z</time>
      </trkpt>
      <trkpt lat="48.9858" lon="-0.37864">
        <ele>280.8</ele>
        <time>2024-04-07T07:05:16Z</time>
      </trkpt>
      <trkpt lat="48.98575" lon="-0.37871">
        <ele>281</ele>
        <time>2024-04-07T07:05:17Z</time>
      </trkpt>
      <trkpt lat="48.98574" lon="-0.37873">
        <ele>281</ele>
        <time>2024-04-07T07:05:18Z</time>
      </trkpt>
      <trkpt lat="48.98571" lon="-0.37877">
        <ele>281.2</ele>
        <time>2024-04-07T07:05:19Z</time>
      </trkpt>
      <trkpt lat="48.98567" lon="-0.37882">
        <ele>281.4</ele>
        <time>2024-04-07T07:05:20Z</time>
      </trkpt>
      <trkpt lat="48.98564" lon="-0.37887">
        <ele>281</ele>
        <time>2024-04-07T07:05:21Z</time>
      </trkpt>
      <trkpt lat="48.98561" lon="-0.37891">
        <ele>281</ele>
        <time>2024-04-07T07:05:22Z</time>
      </trkpt>
      <trkpt lat="48.98558" lon="-0.37896">
        <ele>280.8</ele>
        <time>2024-04-07T07:05:23Z</time>
      </trkpt>
      <trkpt lat="48.98554" lon="-0.379">
        <ele>280.6</ele>
        <time>2024-04-07T07:05:24Z</time>
      </trkpt>
      <trkpt lat="48.9855" lon="-0.37905">
        <ele>280.6</ele>
        <time>2024-04-07T07:05:25Z</time>
      </trkpt>
      <trkpt lat="48.98547" lon="-0.3791">
        <ele>280.6</ele>
        <time>2024-04-07T07:05:26Z</time>
      </trkpt>
      <trkpt lat="48.98543" lon="-0.37915">
        <ele>280.4</ele>
        <time>2024-04-07T07:05:27Z</time>
      </trkpt>
      <trkpt lat="48.9854" lon="-0.3792">
        <ele>280.4</ele>
        <time>2024-04-07T07:05:28Z</time>
      </trkpt>
      <trkpt lat="48.98536" lon="-0.37924">
        <ele>280.2</ele>
        <time>2024-04-07T07:05:29Z</time>
      </trkpt>
      <trkpt lat="48.98533" lon="-0.37929">
        <ele>280</ele>
        <time>2024-04-07T07:05:30Z</time>
      </trkpt>
      <trkpt lat="48.98529" lon="-0.37933">
        <ele>280</ele>
        <time>2024-04-07T07:05:31Z</time>
      </trkpt>
      <trkpt lat="48.98525" lon="-0.37938">
        <ele>279.8</ele>
        <time>2024-04-07T07:05:32Z</time>
      </trkpt>
      <trkpt lat="48.98521" lon="-0.37942">
        <ele>279.8</ele>
        <time>2024-04-07T07:05:33Z</time>
      </trkpt>
      <trkpt lat="48.98518" lon="-0.37946">
        <ele>279.8</ele>
        <time>2024-04-07T07:05:34Z</time>
      </trkpt>
      <trkpt lat="48.98514" lon="-0.37951">
        <ele>279.8</ele>
        <time>2024-04-07T07:05:35Z</time>
      </trkpt>
      <trkpt lat="48.98511" lon="-0.37956">
        <ele>280.2</ele>
        <time>2024-04-07T07:05:36Z</time>
      </trkpt>
      <trkpt lat="48.98508" lon="-0.3796">
        <ele>280.4</ele>
        <time>2024-04-07T07:05:37Z</time>
      </trkpt>
      <trkpt lat="48.98504" lon="-0.37964">
        <ele>280.4</ele>
        <time>2024-04-07T07:05:38Z</time>
      </trkpt>
      <trkpt lat="48.98501" lon="-0.37969">
        <ele>280.6</ele>
        <time>2024-04-07T07:05:39Z</time>
      </trkpt>
      <trkpt lat="48.98497" lon="-0.37973">
        <ele>280.6</ele>
        <time>2024-04-07T07:05:40Z</time>
      </trkpt>
      <trkpt lat="48.98493" lon="-0.37976">
        <ele>280.6</ele>
        <time>2024-04-07T07:05:41Z</time>
      </trkpt>
      <trkpt lat="48.9849" lon="-0.3798">
        <ele>280.4</ele>
        <time>2024-04-07T07:05:42Z</time>
      </trkpt>
      <trkpt lat="48.98486" lon="-0.37984">
        <ele>280.4</ele>
        <time>2024-04-07T07:05:43Z</time>
      </trkpt>
      <trkpt lat="48.98483" lon="-0.37988">
        <ele>280.2</ele>
        <time>2024-04-07T07:05:44Z</time>
      </trkpt>
      <trkpt lat="48.98479" lon="-0.37992">
        <ele>280.2</ele>
        <time>2024-04-07T07:05:45Z</time>
      </trkpt>
      <trkpt lat="48.98476" lon="-0.37997">
        <ele>280.2</ele>
        <time>2024-04-07T07:05:46Z</time>
      </trkpt>
      <trkpt lat="48.98472" lon="-0.38001">
        <ele>280</ele>
        <time>2024-04-07T07:05:47Z</time>
      </trkpt>
      <trkpt lat="48.98468" lon="-0.38006">
        <ele>280</ele>
        <time>2024-04-07T07:05:48Z</time>
      </trkpt>
      <trkpt lat="48.98464" lon="-0.38011">
        <ele>280</ele>
        <time>2024-04-07T07:05:49Z</time>
      </trkpt>
      <trkpt lat="48.9846" lon="-0.38015">
        <ele>280</ele>
        <time>2024-04-07T07:05:50Z</time>
      </trkpt>
      <trkpt lat="48.98455" lon="-0.38019">
        <ele>279.8</ele>
        <time>2024-04-07T07:05:51Z</time>
      </trkpt>
      <trkpt lat="48.98451" lon="-0.38024">
        <ele>279.6</ele>
        <time>2024-04-07T07:05:52Z</time>
      </trkpt>
      <trkpt lat="48.98447" lon="-0.38028">
        <ele>279.4</ele>
        <time>2024-04-07T07:05:53Z</time>
      </trkpt>
      <trkpt lat="48.98444" lon="-0.38032">
        <ele>279</ele>
        <time>2024-04-07T07:05:54Z</time>
      </trkpt>
      <trkpt lat="48.9844" lon="-0.38036">
        <ele>278.8</ele>
        <time>2024-04-07T07:05:55Z</time>
      </trkpt>
      <trkpt lat="48.98436" lon="-0.3804">
        <ele>278.6</ele>
        <time>2024-04-07T07:05:56Z</time>
      </trkpt>
      <trkpt lat="48.98433" lon="-0.38044">
        <ele>278.4</ele>
        <time>2024-04-07T07:05:57Z</time>
      </trkpt>
      <trkpt lat="48.98429" lon="-0.38049">
        <ele>278.2</ele>
        <time>2024-04-07T07:05:58Z</time>
      </trkpt>
      <trkpt lat="48.98424" lon="-0.38054">
        <ele>278</ele>
        <time>2024-04-07T07:05:59Z</time>
      </trkpt>
      <trkpt lat="48.9842" lon="-0.38059">
        <ele>278</ele>
        <time>2024-04-07T07:06:00Z</time>
      </trkpt>
      <trkpt lat="48.98415" lon="-0.38063">
        <ele>278</ele>
        <time>2024-04-07T07:06:01Z</time>
      </trkpt>
      <trkpt lat="48.98405" lon="-0.38072">
        <ele>278</ele>
        <time>2024-04-07T07:06:02Z</time>
      </trkpt>
      <trkpt lat="48.98403" lon="-0.38075">
        <ele>278</ele>
        <time>2024-04-07T07:06:03Z</time>
      </trkpt>
      <trkpt lat="48.984" lon="-0.38077">
        <ele>277.8</ele>
        <time>2024-04-07T07:06:04Z</time>
      </trkpt>
      <trkpt lat="48.98395" lon="-0.38082">
        <ele>277.8</ele>
        <time>2024-04-07T07:06:05Z</time>
      </trkpt>
      <trkpt lat="48.98391" lon="-0.38087">
        <ele>277.8</ele>
        <time>2024-04-07T07:06:06Z</time>
      </trkpt>
      <trkpt lat="48.98386" lon="-0.38092">
        <ele>277.6</ele>
        <time>2024-04-07T07:06:07Z</time>
      </trkpt>
      <trkpt lat="48.98382" lon="-0.38097">
        <ele>277.4</ele>
        <time>2024-04-07T07:06:08Z</time>
      </trkpt>
      <trkpt lat="48.98377" lon="-0.38102">
        <ele>277.2</ele>
        <time>2024-04-07T07:06:09Z</time>
      </trkpt>
      <trkpt lat="48.98372" lon="-0.38107">
        <ele>276.8</ele>
        <time>2024-04-07T07:06:10Z</time>
      </trkpt>
      <trkpt lat="48.98367" lon="-0.38112">
        <ele>276.8</ele>
        <time>2024-04-07T07:06:11Z</time>
      </trkpt>
      <trkpt lat="48.98363" lon="-0.38117">
        <ele>276.6</ele>
        <time>2024-04-07T07:06:12Z</time>
      </trkpt>
      <trkpt lat="48.98358" lon="-0.38122">
        <ele>276.6</ele>
        <time>2024-04-07T07:06:13Z</time>
      </trkpt>
      <trkpt lat="48.98353" lon="-0.38127">
        <ele>276.8</ele>
        <time>2024-04-07T07:06:14Z</time>
      </trkpt>
      <trkpt lat="48.98348" lon="-0.38132">
        <ele>276.8</ele>
        <time>2024-04-07T07:06:15Z</time>
      </trkpt>
      <trkpt lat="48.98343" lon="-0.38138">
        <ele>277</ele>
        <time>2024-04-07T07:06:16Z</time>
      </trkpt>
      <trkpt lat="48.98338" lon="-0.38144">
        <ele>277</ele>
        <time>2024-04-07T07:06:17Z</time>
      </trkpt>
      <trkpt lat="48.98333" lon="-0.38149">
        <ele>277</ele>
        <time>2024-04-07T07:06:18Z</time>
      </trkpt>
      <trkpt lat="48.98329" lon="-0.38155">
        <ele>276.8</ele>
        <time>2024-04-07T07:06:19Z</time>
      </trkpt>
      <trkpt lat="48.98324" lon="-0.3816">
        <ele>276.8</ele>
        <time>2024-04-07T07:06:20Z</time>
      </trkpt>
      <trkpt lat="48.98319" lon="-0.38165">
        <ele>276.6</ele>
        <time>2024-04-07T07:06:21Z</time>
      </trkpt>
      <trkpt lat="48.98315" lon="-0.38171">
        <ele>276.6</ele>
        <time>2024-04-07T07:06:22Z</time>
      </trkpt>
      <trkpt lat="48.9831" lon="-0.38176">
        <ele>276.6</ele>
        <time>2024-04-07T07:06:23Z</time>
      </trkpt>
      <trkpt lat="48.98306" lon="-0.38182">
        <ele>276.6</ele>
        <time>2024-04-07T07:06:24Z</time>
      </trkpt>
      <trkpt lat="48.98301" lon="-0.38188">
        <ele>276.6</ele>
        <time>2024-04-07T07:06:25Z</time>
      </trkpt>
      <trkpt lat="48.98297" lon="-0.38194">
        <ele>276.6</ele>
        <time>2024-04-07T07:06:26Z</time>
      </trkpt>
      <trkpt lat="48.98292" lon="-0.38199">
        <ele>276.2</ele>
        <time>2024-04-07T07:06:27Z</time>
      </trkpt>
      <trkpt lat="48.98287" lon="-0.38205">
        <ele>276</ele>
        <time>2024-04-07T07:06:28Z</time>
      </trkpt>
      <trkpt lat="48.98283" lon="-0.3821">
        <ele>275.8</ele>
        <time>2024-04-07T07:06:29Z</time>
      </trkpt>
      <trkpt lat="48.98279" lon="-0.38216">
        <ele>275.6</ele>
        <time>2024-04-07T07:06:30Z</time>
      </trkpt>
      <trkpt lat="48.98274" lon="-0.38222">
        <ele>275.6</ele>
        <time>2024-04-07T07:06:31Z</time>
      </trkpt>
      <trkpt lat="48.9827" lon="-0.38228">
        <ele>275.6</ele>
        <time>2024-04-07T07:06:32Z</time>
      </trkpt>
      <trkpt lat="48.98266" lon="-0.38233">
        <ele>275.6</ele>
        <time>2024-04-07T07:06:33Z</time>
      </trkpt>
      <trkpt lat="48.98261" lon="-0.38239">
        <ele>275.4</ele>
        <time>2024-04-07T07:06:34Z</time>
      </trkpt>
      <trkpt lat="48.98257" lon="-0.38244">
        <ele>275.2</ele>
        <time>2024-04-07T07:06:35Z</time>
      </trkpt>
      <trkpt lat="48.98252" lon="-0.3825">
        <ele>275</ele>
        <time>2024-04-07T07:06:36Z</time>
      </trkpt>
      <trkpt lat="48.98248" lon="-0.38255">
        <ele>275</ele>
        <time>2024-04-07T07:06:37Z</time>
      </trkpt>
      <trkpt lat="48.98243" lon="-0.38261">
        <ele>275</ele>
        <time>2024-04-07T07:06:38Z</time>
      </trkpt>
      <trkpt lat="48.98239" lon="-0.38266">
        <ele>275</ele>
        <time>2024-04-07T07:06:39Z</time>
      </trkpt>
      <trkpt lat="48.98234" lon="-0.38272">
        <ele>275</ele>
        <time>2024-04-07T07:06:40Z</time>
      </trkpt>
      <trkpt lat="48.9823" lon="-0.38277">
        <ele>275.2</ele>
        <time>2024-04-07T07:06:41Z</time>
      </trkpt>
      <trkpt lat="48.98225" lon="-0.38283">
        <ele>275.6</ele>
        <time>2024-04-07T07:06:42Z</time>
      </trkpt>
      <trkpt lat="48.98221" lon="-0.38289">
        <ele>276</ele>
        <time>2024-04-07T07:06:43Z</time>
      </trkpt>
      <trkpt lat="48.98217" lon="-0.38295">
        <ele>276.6</ele>
        <time>2024-04-07T07:06:44Z</time>
      </trkpt>
      <trkpt lat="48.98212" lon="-0.383">
        <ele>277</ele>
        <time>2024-04-07T07:06:45Z</time>
      </trkpt>
      <trkpt lat="48.98208" lon="-0.38306">
        <ele>277.2</ele>
        <time>2024-04-07T07:06:46Z</time>
      </trkpt>
      <trkpt lat="48.98203" lon="-0.38311">
        <ele>277</ele>
        <time>2024-04-07T07:06:47Z</time>
      </trkpt>
      <trkpt lat="48.98198" lon="-0.38317">
        <ele>277</ele>
        <time>2024-04-07T07:06:48Z</time>
      </trkpt>
      <trkpt lat="48.98194" lon="-0.38323">
        <ele>277.2</ele>
        <time>2024-04-07T07:06:49Z</time>
      </trkpt>
      <trkpt lat="48.98189" lon="-0.38329">
        <ele>277.2</ele>
        <time>2024-04-07T07:06:50Z</time>
      </trkpt>
      <trkpt lat="48.98185" lon="-0.38334">
        <ele>277.2</ele>
        <time>2024-04-07T07:06:51Z</time>
      </trkpt>
      <trkpt lat="48.9818" lon="-0.3834">
        <ele>277.6</ele>
        <time>2024-04-07T07:06:52Z</time>
      </trkpt>
      <trkpt lat="48.98175" lon="-0.38346">
        <ele>277.8</ele>
        <time>2024-04-07T07:06:53Z</time>
      </trkpt>
      <trkpt lat="48.98171" lon="-0.38351">
        <ele>278.2</ele>
        <time>2024-04-07T07:06:54Z</time>
      </trkpt>
      <trkpt lat="48.98166" lon="-0.38357">
        <ele>278.2</ele>
        <time>2024-04-07T07:06:55Z</time>
      </trkpt>
      <trkpt lat="48.98161" lon="-0.38362">
        <ele>278.4</ele>
        <time>2024-04-07T07:06:56Z</time>
      </trkpt>
      <trkpt lat="48.98156" lon="-0.38367">
        <ele>278.2</ele>
        <time>2024-04-07T07:06:57Z</time>
      </trkpt>
      <trkpt lat="48.98151" lon="-0.38372">
        <ele>278</ele>
        <time>2024-04-07T07:06:58Z</time>
      </trkpt>
      <trkpt lat="48.98146" lon="-0.38378">
        <ele>278</ele>
        <time>2024-04-07T07:06:59Z</time>
      </trkpt>
      <trkpt lat="48.98141" lon="-0.38383">
        <ele>278</ele>
        <time>2024-04-07T07:07:00Z</time>
      </trkpt>
      <trkpt lat="48.98136" lon="-0.38388">
        <ele>278.2</ele>
        <time>2024-04-07T07:07:01Z</time>
      </trkpt>
      <trkpt lat="48.98131" lon="-0.38393">
        <ele>278.4</ele>
        <time>2024-04-07T07:07:02Z</time>
      </trkpt>
      <trkpt lat="48.98126" lon="-0.38399">
        <ele>278.6</ele>
        <time>2024-04-07T07:07:03Z</time>
      </trkpt>
      <trkpt lat="48.98122" lon="-0.38404">
        <ele>278.8</ele>
        <time>2024-04-07T07:07:04Z</time>
      </trkpt>
      <trkpt lat="48.98117" lon="-0.38409">
        <ele>278.8</ele>
        <time>2024-04-07T07:07:05Z</time>
      </trkpt>
      <trkpt lat="48.98112" lon="-0.38414">
        <ele>278.6</ele>
        <time>2024-04-07T07:07:06Z</time>
      </trkpt>
      <trkpt lat="48.98107" lon="-0.38419">
        <ele>278.4</ele>
        <time>2024-04-07T07:07:07Z</time>
      </trkpt>
      <trkpt lat="48.98102" lon="-0.38424">
        <ele>278.4</ele>
        <time>2024-04-07T07:07:08Z</time>
      </trkpt>
      <trkpt lat="48.98097" lon="-0.38429">
        <ele>278.4</ele>
        <time>2024-04-07T07:07:09Z</time>
      </trkpt>
      <trkpt lat="48.98092" lon="-0.38434">
        <ele>278.2</ele>
        <time>2024-04-07T07:07:10Z</time>
      </trkpt>
      <trkpt lat="48.98087" lon="-0.3844">
        <ele>278.2</ele>
        <time>2024-04-07T07:07:11Z</time>
      </trkpt>
      <trkpt lat="48.98081" lon="-0.38445">
        <ele>278</ele>
        <time>2024-04-07T07:07:12Z</time>
      </trkpt>
      <trkpt lat="48.98076" lon="-0.38449">
        <ele>277.8</ele>
        <time>2024-04-07T07:07:13Z</time>
      </trkpt>
      <trkpt lat="48.98071" lon="-0.38454">
        <ele>277.6</ele>
        <time>2024-04-07T07:07:14Z</time>
      </trkpt>
      <trkpt lat="48.98066" lon="-0.3846">
        <ele>277.4</ele>
        <time>2024-04-07T07:07:15Z</time>
      </trkpt>
      <trkpt lat="48.98061" lon="-0.38465">
        <ele>277.4</ele>
        <time>2024-04-07T07:07:16Z</time>
      </trkpt>
      <trkpt lat="48.98056" lon="-0.3847">
        <ele>277.4</ele>
        <time>2024-04-07T07:07:17Z</time>
      </trkpt>
      <trkpt lat="48.98051" lon="-0.38476">
        <ele>277.4</ele>
        <time>2024-04-07T07:07:18Z</time>
      </trkpt>
      <trkpt lat="48.98046" lon="-0.38481">
        <ele>277.8</ele>
        <time>2024-04-07T07:07:19Z</time>
      </trkpt>
      <trkpt lat="48.98041" lon="-0.38486">
        <ele>278.4</ele>
        <time>2024-04-07T07:07:20Z</time>
      </trkpt>
      <trkpt lat="48.98036" lon="-0.38491">
        <ele>278.6</ele>
        <time>2024-04-07T07:07:21Z</time>
      </trkpt>
      <trkpt lat="48.98031" lon="-0.38496">
        <ele>278.8</ele>
        <time>2024-04-07T07:07:22Z</time>
      </trkpt>
      <trkpt lat="48.98025" lon="-0.38502">
        <ele>279</ele>
        <time>2024-04-07T07:07:23Z</time>
      </trkpt>
      <trkpt lat="48.9802" lon="-0.38507">
        <ele>279</ele>
        <time>2024-04-07T07:07:24Z</time>
      </trkpt>
      <trkpt lat="48.98015" lon="-0.38513">
        <ele>279</ele>
        <time>2024-04-07T07:07:25Z</time>
      </trkpt>
      <trkpt lat="48.9801" lon="-0.38518">
        <ele>279</ele>
        <time>2024-04-07T07:07:26Z</time>
      </trkpt>
      <trkpt lat="48.98005" lon="-0.38523">
        <ele>278.8</ele>
        <time>2024-04-07T07:07:27Z</time>
      </trkpt>
      <trkpt lat="48.98" lon="-0.38528">
        <ele>278.8</ele>
        <time>2024-04-07T07:07:28Z</time>
      </trkpt>
      <trkpt lat="48.97995" lon="-0.38534">
        <ele>278.8</ele>
        <time>2024-04-07T07:07:29Z</time>
      </trkpt>
      <trkpt lat="48.9799" lon="-0.38539">
        <ele>279</ele>
        <time>2024-04-07T07:07:30Z</time>
      </trkpt>
      <trkpt lat="48.97985" lon="-0.38545">
        <ele>279.4</ele>
        <time>2024-04-07T07:07:31Z</time>
      </trkpt>
      <trkpt lat="48.97979" lon="-0.38551">
        <ele>279.8</ele>
        <time>2024-04-07T07:07:32Z</time>
      </trkpt>
      <trkpt lat="48.97974" lon="-0.38556">
        <ele>280.4</ele>
        <time>2024-04-07T07:07:33Z</time>
      </trkpt>
      <trkpt lat="48.97969" lon="-0.38562">
        <ele>280.6</ele>
        <time>2024-04-07T07:07:34Z</time>
      </trkpt>
      <trkpt lat="48.97965" lon="-0.38567">
        <ele>280.8</ele>
        <time>2024-04-07T07:07:35Z</time>
      </trkpt>
      <trkpt lat="48.9796" lon="-0.38573">
        <ele>280.8</ele>
        <time>2024-04-07T07:07:36Z</time>
      </trkpt>
      <trkpt lat="48.97955" lon="-0.38579">
        <ele>280.8</ele>
        <time>2024-04-07T07:07:37Z</time>
      </trkpt>
      <trkpt lat="48.97949" lon="-0.38585">
        <ele>280.6</ele>
        <time>2024-04-07T07:07:38Z</time>
      </trkpt>
      <trkpt lat="48.97944" lon="-0.38592">
        <ele>280.2</ele>
        <time>2024-04-07T07:07:39Z</time>
      </trkpt>
      <trkpt lat="48.97939" lon="-0.38598">
        <ele>280</ele>
        <time>2024-04-07T07:07:40Z</time>
      </trkpt>
      <trkpt lat="48.97934" lon="-0.38604">
        <ele>279.8</ele>
        <time>2024-04-07T07:07:41Z</time>
      </trkpt>
      <trkpt lat="48.97928" lon="-0.38611">
        <ele>279.6</ele>
        <time>2024-04-07T07:07:42Z</time>
      </trkpt>
      <trkpt lat="48.97923" lon="-0.38617">
        <ele>279.4</ele>
        <time>2024-04-07T07:07:43Z</time>
      </trkpt>
      <trkpt lat="48.97918" lon="-0.38623">
        <ele>279.4</ele>
        <time>2024-04-07T07:07:44Z</time>
      </trkpt>
      <trkpt lat="48.97913" lon="-0.3863">
        <ele>279.4</ele>
        <time>2024-04-07T07:07:45Z</time>
      </trkpt>
      <trkpt lat="48.97907" lon="-0.38636">
        <ele>279.4</ele>
        <time>2024-04-07T07:07:46Z</time>
      </trkpt>
      <trkpt lat="48.97902" lon="-0.38642">
        <ele>279.4</ele>
        <time>2024-04-07T07:07:47Z</time>
      </trkpt>
      <trkpt lat="48.97897" lon="-0.38648">
        <ele>279.2</ele>
        <time>2024-04-07T07:07:48Z</time>
      </trkpt>
      <trkpt lat="48.97891" lon="-0.38655">
        <ele>279.2</ele>
        <time>2024-04-07T07:07:49Z</time>
      </trkpt>
      <trkpt lat="48.97886" lon="-0.38661">
        <ele>279.2</ele>
        <time>2024-04-07T07:07:50Z</time>
      </trkpt>
      <trkpt lat="48.97881" lon="-0.38667">
        <ele>279</ele>
        <time>2024-04-07T07:07:51Z</time>
      </trkpt>
      <trkpt lat="48.97875" lon="-0.38674">
        <ele>279</ele>
        <time>2024-04-07T07:07:52Z</time>
      </trkpt>
      <trkpt lat="48.9787" lon="-0.3868">
        <ele>278.8</ele>
        <time>2024-04-07T07:07:53Z</time>
      </trkpt>
      <trkpt lat="48.97865" lon="-0.38686">
        <ele>278.8</ele>
        <time>2024-04-07T07:07:54Z</time>
      </trkpt>
      <trkpt lat="48.9786" lon="-0.38692">
        <ele>278.6</ele>
        <time>2024-04-07T07:07:55Z</time>
      </trkpt>
      <trkpt lat="48.97855" lon="-0.38698">
        <ele>278.6</ele>
        <time>2024-04-07T07:07:56Z</time>
      </trkpt>
      <trkpt lat="48.9785" lon="-0.38705">
        <ele>278.6</ele>
        <time>2024-04-07T07:07:57Z</time>
      </trkpt>
      <trkpt lat="48.97845" lon="-0.38711">
        <ele>278.4</ele>
        <time>2024-04-07T07:07:58Z</time>
      </trkpt>
      <trkpt lat="48.9784" lon="-0.38718">
        <ele>278.2</ele>
        <time>2024-04-07T07:07:59Z</time>
      </trkpt>
      <trkpt lat="48.97835" lon="-0.38725">
        <ele>278.2</ele>
        <time>2024-04-07T07:08:00Z</time>
      </trkpt>
      <trkpt lat="48.97831" lon="-0.38731">
        <ele>278</ele>
        <time>2024-04-07T07:08:01Z</time>
      </trkpt>
      <trkpt lat="48.97826" lon="-0.38738">
        <ele>278</ele>
        <time>2024-04-07T07:08:02Z</time>
      </trkpt>
      <trkpt lat="48.97822" lon="-0.38746">
        <ele>277.8</ele>
        <time>2024-04-07T07:08:03Z</time>
      </trkpt>
      <trkpt lat="48.97818" lon="-0.38753">
        <ele>277.8</ele>
        <time>2024-04-07T07:08:04Z</time>
      </trkpt>
      <trkpt lat="48.97814" lon="-0.3876">
        <ele>278</ele>
        <time>2024-04-07T07:08:05Z</time>
      </trkpt>
      <trkpt lat="48.97809" lon="-0.38768">
        <ele>278.2</ele>
        <time>2024-04-07T07:08:06Z</time>
      </trkpt>
      <trkpt lat="48.97805" lon="-0.38776">
        <ele>278.2</ele>
        <time>2024-04-07T07:08:07Z</time>
      </trkpt>
      <trkpt lat="48.978" lon="-0.38784">
        <ele>278.4</ele>
        <time>2024-04-07T07:08:08Z</time>
      </trkpt>
      <trkpt lat="48.97796" lon="-0.38792">
        <ele>278.4</ele>
        <time>2024-04-07T07:08:09Z</time>
      </trkpt>
      <trkpt lat="48.97791" lon="-0.388">
        <ele>278.2</ele>
        <time>2024-04-07T07:08:10Z</time>
      </trkpt>
      <trkpt lat="48.97787" lon="-0.38809">
        <ele>278.2</ele>
        <time>2024-04-07T07:08:11Z</time>
      </trkpt>
      <trkpt lat="48.97782" lon="-0.38817">
        <ele>278</ele>
        <time>2024-04-07T07:08:12Z</time>
      </trkpt>
      <trkpt lat="48.97778" lon="-0.38825">
        <ele>277.8</ele>
        <time>2024-04-07T07:08:13Z</time>
      </trkpt>
      <trkpt lat="48.97773" lon="-0.38833">
        <ele>277.6</ele>
        <time>2024-04-07T07:08:14Z</time>
      </trkpt>
      <trkpt lat="48.97768" lon="-0.38842">
        <ele>277.6</ele>
        <time>2024-04-07T07:08:15Z</time>
      </trkpt>
      <trkpt lat="48.9776" lon="-0.38854">
        <ele>277.6</ele>
        <time>2024-04-07T07:08:16Z</time>
      </trkpt>
      <trkpt lat="48.97758" lon="-0.38858">
        <ele>277.6</ele>
        <time>2024-04-07T07:08:17Z</time>
      </trkpt>
      <trkpt lat="48.97753" lon="-0.38866">
        <ele>277.8</ele>
        <time>2024-04-07T07:08:18Z</time>
      </trkpt>
      <trkpt lat="48.97748" lon="-0.38874">
        <ele>278</ele>
        <time>2024-04-07T07:08:19Z</time>
      </trkpt>
      <trkpt lat="48.97744" lon="-0.38882">
        <ele>278</ele>
        <time>2024-04-07T07:08:20Z</time>
      </trkpt>
      <trkpt lat="48.97739" lon="-0.38889">
        <ele>278.4</ele>
        <time>2024-04-07T07:08:21Z</time>
      </trkpt>
      <trkpt lat="48.97734" lon="-0.38897">
        <ele>278.6</ele>
        <time>2024-04-07T07:08:22Z</time>
      </trkpt>
      <trkpt lat="48.97728" lon="-0.38904">
        <ele>279</ele>
        <time>2024-04-07T07:08:23Z</time>
      </trkpt>
      <trkpt lat="48.97723" lon="-0.38911">
        <ele>279</ele>
        <time>2024-04-07T07:08:24Z</time>
      </trkpt>
      <trkpt lat="48.97718" lon="-0.38919">
        <ele>279.2</ele>
        <time>2024-04-07T07:08:25Z</time>
      </trkpt>
      <trkpt lat="48.97712" lon="-0.38926">
        <ele>279.2</ele>
        <time>2024-04-07T07:08:26Z</time>
      </trkpt>
      <trkpt lat="48.97707" lon="-0.38932">
        <ele>279.2</ele>
        <time>2024-04-07T07:08:27Z</time>
      </trkpt>
      <trkpt lat="48.97702" lon="-0.38939">
        <ele>279.2</ele>
        <time>2024-04-07T07:08:28Z</time>
      </trkpt>
      <trkpt lat="48.97696" lon="-0.38945">
        <ele>279.2</ele>
        <time>2024-04-07T07:08:29Z</time>
      </trkpt>
      <trkpt lat="48.9769" lon="-0.38952">
        <ele>279</ele>
        <time>2024-04-07T07:08:30Z</time>
      </trkpt>
      <trkpt lat="48.97685" lon="-0.38958">
        <ele>278.8</ele>
        <time>2024-04-07T07:08:31Z</time>
      </trkpt>
      <trkpt lat="48.97679" lon="-0.38965">
        <ele>278.6</ele>
        <time>2024-04-07T07:08:32Z</time>
      </trkpt>
      <trkpt lat="48.97674" lon="-0.38971">
        <ele>278.6</ele>
        <time>2024-04-07T07:08:33Z</time>
      </trkpt>
      <trkpt lat="48.97668" lon="-0.38977">
        <ele>278.4</ele>
        <time>2024-04-07T07:08:34Z</time>
      </trkpt>
      <trkpt lat="48.97663" lon="-0.38984">
        <ele>278.4</ele>
        <time>2024-04-07T07:08:35Z</time>
      </trkpt>
      <trkpt lat="48.97657" lon="-0.3899">
        <ele>278.4</ele>
        <time>2024-04-07T07:08:36Z</time>
      </trkpt>
      <trkpt lat="48.97651" lon="-0.38996">
        <ele>278.4</ele>
        <time>2024-04-07T07:08:37Z</time>
      </trkpt>
      <trkpt lat="48.97645" lon="-0.39002">
        <ele>278.2</ele>
        <time>2024-04-07T07:08:38Z</time>
      </trkpt>
      <trkpt lat="48.97639" lon="-0.39008">
        <ele>278.2</ele>
        <time>2024-04-07T07:08:39Z</time>
      </trkpt>
      <trkpt lat="48.97633" lon="-0.39014">
        <ele>278.2</ele>
        <time>2024-04-07T07:08:40Z</time>
      </trkpt>
      <trkpt lat="48.97627" lon="-0.3902">
        <ele>277.8</ele>
        <time>2024-04-07T07:08:41Z</time>
      </trkpt>
      <trkpt lat="48.97621" lon="-0.39026">
        <ele>277.6</ele>
        <time>2024-04-07T07:08:42Z</time>
      </trkpt>
      <trkpt lat="48.97615" lon="-0.39032">
        <ele>277.2</ele>
        <time>2024-04-07T07:08:43Z</time>
      </trkpt>
      <trkpt lat="48.97609" lon="-0.39037">
        <ele>277</ele>
        <time>2024-04-07T07:08:44Z</time>
      </trkpt>
      <trkpt lat="48.97603" lon="-0.39043">
        <ele>276.6</ele>
        <time>2024-04-07T07:08:45Z</time>
      </trkpt>
      <trkpt lat="48.97598" lon="-0.39048">
        <ele>276.4</ele>
        <time>2024-04-07T07:08:46Z</time>
      </trkpt>
      <trkpt lat="48.97592" lon="-0.39053">
        <ele>276.4</ele>
        <time>2024-04-07T07:08:47Z</time>
      </trkpt>
      <trkpt lat="48.97586" lon="-0.39058">
        <ele>276.4</ele>
        <time>2024-04-07T07:08:48Z</time>
      </trkpt>
      <trkpt lat="48.9758" lon="-0.39063">
        <ele>276.2</ele>
        <time>2024-04-07T07:08:49Z</time>
      </trkpt>
      <trkpt lat="48.97575" lon="-0.39068">
        <ele>276</ele>
        <time>2024-04-07T07:08:50Z</time>
      </trkpt>
      <trkpt lat="48.97569" lon="-0.39073">
        <ele>275.6</ele>
        <time>2024-04-07T07:08:51Z</time>
      </trkpt>
      <trkpt lat="48.97564" lon="-0.39078">
        <ele>275.6</ele>
        <time>2024-04-07T07:08:52Z</time>
      </trkpt>
      <trkpt lat="48.97558" lon="-0.39083">
        <ele>275.6</ele>
        <time>2024-04-07T07:08:53Z</time>
      </trkpt>
      <trkpt lat="48.97553" lon="-0.39088">
        <ele>275.2</ele>
        <time>2024-04-07T07:08:54Z</time>
      </trkpt>
      <trkpt lat="48.97548" lon="-0.39093">
        <ele>275</ele>
        <time>2024-04-07T07:08:55Z</time>
      </trkpt>
      <trkpt lat="48.97543" lon="-0.39097">
        <ele>274.8</ele>
        <time>2024-04-07T07:08:56Z</time>
      </trkpt>
      <trkpt lat="48.97538" lon="-0.39102">
        <ele>274.8</ele>
        <time>2024-04-07T07:08:57Z</time>
      </trkpt>
      <trkpt lat="48.97533" lon="-0.39106">
        <ele>274.8</ele>
        <time>2024-04-07T07:08:58Z</time>
      </trkpt>
      <trkpt lat="48.97528" lon="-0.39111">
        <ele>274.8</ele>
        <time>2024-04-07T07:08:59Z</time>
      </trkpt>
      <trkpt lat="48.97523" lon="-0.39116">
        <ele>275</ele>
        <time>2024-04-07T07:09:00Z</time>
      </trkpt>
      <trkpt lat="48.97519" lon="-0.3912">
        <ele>275.2</ele>
        <time>2024-04-07T07:09:01Z</time>
      </trkpt>
      <trkpt lat="48.97514" lon="-0.39125">
        <ele>275.2</ele>
        <time>2024-04-07T07:09:02Z</time>
      </trkpt>
      <trkpt lat="48.97509" lon="-0.3913">
        <ele>275.2</ele>
        <time>2024-04-07T07:09:03Z</time>
      </trkpt>
      <trkpt lat="48.97504" lon="-0.39134">
        <ele>275</ele>
        <time>2024-04-07T07:09:04Z</time>
      </trkpt>
      <trkpt lat="48.97499" lon="-0.39139">
        <ele>274.8</ele>
        <time>2024-04-07T07:09:05Z</time>
      </trkpt>
      <trkpt lat="48.97494" lon="-0.39144">
        <ele>274.6</ele>
        <time>2024-04-07T07:09:06Z</time>
      </trkpt>
      <trkpt lat="48.97489" lon="-0.39149">
        <ele>274.6</ele>
        <time>2024-04-07T07:09:07Z</time>
      </trkpt>
      <trkpt lat="48.97484" lon="-0.39153">
        <ele>274.4</ele>
        <time>2024-04-07T07:09:08Z</time>
      </trkpt>
      <trkpt lat="48.97479" lon="-0.39158">
        <ele>274.4</ele>
        <time>2024-04-07T07:09:09Z</time>
      </trkpt>
      <trkpt lat="48.97474" lon="-0.39163">
        <ele>274.4</ele>
        <time>2024-04-07T07:09:10Z</time>
      </trkpt>
      <trkpt lat="48.97469" lon="-0.39168">
        <ele>274.8</ele>
        <time>2024-04-07T07:09:11Z</time>
      </trkpt>
      <trkpt lat="48.97465" lon="-0.39174">
        <ele>275</ele>
        <time>2024-04-07T07:09:12Z</time>
      </trkpt>
      <trkpt lat="48.9746" lon="-0.39179">
        <ele>275.2</ele>
        <time>2024-04-07T07:09:13Z</time>
      </trkpt>
      <trkpt lat="48.97455" lon="-0.39184">
        <ele>275.2</ele>
        <time>2024-04-07T07:09:14Z</time>
      </trkpt>
      <trkpt lat="48.97451" lon="-0.3919">
        <ele>275.2</ele>
        <time>2024-04-07T07:09:15Z</time>
      </trkpt>
      <trkpt lat="48.97446" lon="-0.39195">
        <ele>275.2</ele>
        <time>2024-04-07T07:09:16Z</time>
      </trkpt>
      <trkpt lat="48.97442" lon="-0.39201">
        <ele>275.2</ele>
        <time>2024-04-07T07:09:17Z</time>
      </trkpt>
      <trkpt lat="48.97438" lon="-0.39207">
        <ele>275.2</ele>
        <time>2024-04-07T07:09:18Z</time>
      </trkpt>
      <trkpt lat="48.97429" lon="-0.3922">
        <ele>275.2</ele>
        <time>2024-04-07T07:09:19Z</time>
      </trkpt>
      <trkpt lat="48.97427" lon="-0.39223">
        <ele>275.2</ele>
        <time>2024-04-07T07:09:20Z</time>
      </trkpt>
      <trkpt lat="48.97425" lon="-0.39226">
        <ele>275.2</ele>
        <time>2024-04-07T07:09:21Z</time>
      </trkpt>
      <trkpt lat="48.97421" lon="-0.39233">
        <ele>275.2</ele>
        <time>2024-04-07T07:09:22Z</time>
      </trkpt>
      <trkpt lat="48.97418" lon="-0.39239">
        <ele>275</ele>
        <time>2024-04-07T07:09:23Z</time>
      </trkpt>
      <trkpt lat="48.97414" lon="-0.39246">
        <ele>275</ele>
        <time>2024-04-07T07:09:24Z</time>
      </trkpt>
      <trkpt lat="48.9741" lon="-0.39253">
        <ele>275</ele>
        <time>2024-04-07T07:09:25Z</time>
      </trkpt>
      <trkpt lat="48.97407" lon="-0.3926">
        <ele>275</ele>
        <time>2024-04-07T07:09:26Z</time>
      </trkpt>
      <trkpt lat="48.97404" lon="-0.39268">
        <ele>275.2</ele>
        <time>2024-04-07T07:09:27Z</time>
      </trkpt>
      <trkpt lat="48.97401" lon="-0.39275">
        <ele>275.4</ele>
        <time>2024-04-07T07:09:28Z</time>
      </trkpt>
      <trkpt lat="48.97397" lon="-0.39283">
        <ele>275.6</ele>
        <time>2024-04-07T07:09:29Z</time>
      </trkpt>
      <trkpt lat="48.97394" lon="-0.3929">
        <ele>276</ele>
        <time>2024-04-07T07:09:30Z</time>
      </trkpt>
      <trkpt lat="48.97391" lon="-0.39297">
        <ele>276.2</ele>
        <time>2024-04-07T07:09:31Z</time>
      </trkpt>
      <trkpt lat="48.97387" lon="-0.39305">
        <ele>276.4</ele>
        <time>2024-04-07T07:09:32Z</time>
      </trkpt>
      <trkpt lat="48.97384" lon="-0.39312">
        <ele>276.4</ele>
        <time>2024-04-07T07:09:33Z</time>
      </trkpt>
      <trkpt lat="48.97381" lon="-0.39319">
        <ele>276.2</ele>
        <time>2024-04-07T07:09:34Z</time>
      </trkpt>
      <trkpt lat="48.97377" lon="-0.39326">
        <ele>276</ele>
        <time>2024-04-07T07:09:35Z</time>
      </trkpt>
      <trkpt lat="48.97374" lon="-0.39334">
        <ele>275.8</ele>
        <time>2024-04-07T07:09:36Z</time>
      </trkpt>
      <trkpt lat="48.97371" lon="-0.39341">
        <ele>275.4</ele>
        <time>2024-04-07T07:09:37Z</time>
      </trkpt>
      <trkpt lat="48.97368" lon="-0.39348">
        <ele>275.2</ele>
        <time>2024-04-07T07:09:38Z</time>
      </trkpt>
      <trkpt lat="48.97365" lon="-0.39355">
        <ele>275</ele>
        <time>2024-04-07T07:09:39Z</time>
      </trkpt>
      <trkpt lat="48.97362" lon="-0.39362">
        <ele>274.8</ele>
        <time>2024-04-07T07:09:40Z</time>
      </trkpt>
      <trkpt lat="48.97358" lon="-0.39369">
        <ele>274.4</ele>
        <time>2024-04-07T07:09:41Z</time>
      </trkpt>
      <trkpt lat="48.97355" lon="-0.39376">
        <ele>274</ele>
        <time>2024-04-07T07:09:42Z</time>
      </trkpt>
      <trkpt lat="48.97352" lon="-0.39384">
        <ele>273.8</ele>
        <time>2024-04-07T07:09:43Z</time>
      </trkpt>
      <trkpt lat="48.97349" lon="-0.39391">
        <ele>273.8</ele>
        <time>2024-04-07T07:09:44Z</time>
      </trkpt>
      <trkpt lat="48.97346" lon="-0.39398">
        <ele>273.8</ele>
        <time>2024-04-07T07:09:45Z</time>
      </trkpt>
      <trkpt lat="48.97343" lon="-0.39405">
        <ele>274.2</ele>
        <time>2024-04-07T07:09:46Z</time>
      </trkpt>
      <trkpt lat="48.9734" lon="-0.39412">
        <ele>275</ele>
        <time>2024-04-07T07:09:47Z</time>
      </trkpt>
      <trkpt lat="48.97337" lon="-0.39419">
        <ele>275.8</ele>
        <time>2024-04-07T07:09:48Z</time>
      </trkpt>
      <trkpt lat="48.97334" lon="-0.39426">
        <ele>276.6</ele>
        <time>2024-04-07T07:09:49Z</time>
      </trkpt>
      <trkpt lat="48.97331" lon="-0.39433">
        <ele>277.2</ele>
        <time>2024-04-07T07:09:50Z</time>
      </trkpt>
      <trkpt lat="48.97328" lon="-0.3944">
        <ele>277.6</ele>
        <time>2024-04-07T07:09:51Z</time>
      </trkpt>
      <trkpt lat="48.97325" lon="-0.39446">
        <ele>278</ele>
        <time>2024-04-07T07:09:52Z</time>
      </trkpt>
      <trkpt lat="48.97322" lon="-0.39453">
        <ele>278.2</ele>
        <time>2024-04-07T07:09:53Z</time>
      </trkpt>
      <trkpt lat="48.97319" lon="-0.3946">
        <ele>278.4</ele>
        <time>2024-04-07T07:09:54Z</time>
      </trkpt>
      <trkpt lat="48.97316" lon="-0.39466">
        <ele>278.4</ele>
        <time>2024-04-07T07:09:55Z</time>
      </trkpt>
      <trkpt lat="48.97313" lon="-0.39473">
        <ele>278.4</ele>
        <time>2024-04-07T07:09:56Z</time>
      </trkpt>
      <trkpt lat="48.9731" lon="-0.39479">
        <ele>278</ele>
        <time>2024-04-07T07:09:57Z</time>
      </trkpt>
      <trkpt lat="48.97306" lon="-0.39486">
        <ele>277.6</ele>
        <time>2024-04-07T07:09:58Z</time>
      </trkpt>
      <trkpt lat="48.97303" lon="-0.39492">
        <ele>277.2</ele>
        <time>2024-04-07T07:09:59Z</time>
      </trkpt>
      <trkpt lat="48.97299" lon="-0.39498">
        <ele>277</ele>
        <time>2024-04-07T07:10:00Z</time>
      </trkpt>
      <trkpt lat="48.97296" lon="-0.39505">
        <ele>277</ele>
        <time>2024-04-07T07:10:01Z</time>
      </trkpt>
      <trkpt lat="48.97292" lon="-0.39511">
        <ele>277.2</ele>
        <time>2024-04-07T07:10:02Z</time>
      </trkpt>
      <trkpt lat="48.97289" lon="-0.39517">
        <ele>277.6</ele>
        <time>2024-04-07T07:10:03Z</time>
      </trkpt>
      <trkpt lat="48.97285" lon="-0.39523">
        <ele>277.8</ele>
        <time>2024-04-07T07:10:04Z</time>
      </trkpt>
      <trkpt lat="48.97282" lon="-0.3953">
        <ele>278</ele>
        <time>2024-04-07T07:10:05Z</time>
      </trkpt>
      <trkpt lat="48.97278" lon="-0.39535">
        <ele>278.2</ele>
        <time>2024-04-07T07:10:06Z</time>
      </trkpt>
      <trkpt lat="48.97275" lon="-0.39541">
        <ele>278.2</ele>
        <time>2024-04-07T07:10:07Z</time>
      </trkpt>
      <trkpt lat="48.97271" lon="-0.39547">
        <ele>278</ele>
        <time>2024-04-07T07:10:08Z</time>
      </trkpt>
      <trkpt lat="48.97268" lon="-0.39553">
        <ele>277.8</ele>
        <time>2024-04-07T07:10:09Z</time>
      </trkpt>
      <trkpt lat="48.97264" lon="-0.39559">
        <ele>277.8</ele>
        <time>2024-04-07T07:10:10Z</time>
      </trkpt>
      <trkpt lat="48.97261" lon="-0.39564">
        <ele>277.8</ele>
        <time>2024-04-07T07:10:11Z</time>
      </trkpt>
      <trkpt lat="48.97257" lon="-0.3957">
        <ele>278</ele>
        <time>2024-04-07T07:10:12Z</time>
      </trkpt>
      <trkpt lat="48.97254" lon="-0.39576">
        <ele>278.2</ele>
        <time>2024-04-07T07:10:13Z</time>
      </trkpt>
      <trkpt lat="48.9725" lon="-0.39582">
        <ele>278.4</ele>
        <time>2024-04-07T07:10:14Z</time>
      </trkpt>
      <trkpt lat="48.97247" lon="-0.39587">
        <ele>278.4</ele>
        <time>2024-04-07T07:10:15Z</time>
      </trkpt>
      <trkpt lat="48.97243" lon="-0.39593">
        <ele>278.6</ele>
        <time>2024-04-07T07:10:16Z</time>
      </trkpt>
      <trkpt lat="48.9724" lon="-0.39599">
        <ele>278.8</ele>
        <time>2024-04-07T07:10:17Z</time>
      </trkpt>
      <trkpt lat="48.97237" lon="-0.39604">
        <ele>278.8</ele>
        <time>2024-04-07T07:10:18Z</time>
      </trkpt>
      <trkpt lat="48.97233" lon="-0.3961">
        <ele>279</ele>
        <time>2024-04-07T07:10:19Z</time>
      </trkpt>
      <trkpt lat="48.97229" lon="-0.39615">
        <ele>279</ele>
        <time>2024-04-07T07:10:20Z</time>
      </trkpt>
      <trkpt lat="48.97226" lon="-0.3962">
        <ele>279</ele>
        <time>2024-04-07T07:10:21Z</time>
      </trkpt>
      <trkpt lat="48.97222" lon="-0.39626">
        <ele>278.8</ele>
        <time>2024-04-07T07:10:22Z</time>
      </trkpt>
      <trkpt lat="48.97219" lon="-0.39631">
        <ele>278.6</ele>
        <time>2024-04-07T07:10:23Z</time>
      </trkpt>
      <trkpt lat="48.97215" lon="-0.39636">
        <ele>278.6</ele>
        <time>2024-04-07T07:10:24Z</time>
      </trkpt>
      <trkpt lat="48.97212" lon="-0.39642">
        <ele>278.8</ele>
        <time>2024-04-07T07:10:25Z</time>
      </trkpt>
      <trkpt lat="48.97208" lon="-0.39647">
        <ele>279</ele>
        <time>2024-04-07T07:10:26Z</time>
      </trkpt>
      <trkpt lat="48.97205" lon="-0.39652">
        <ele>279.2</ele>
        <time>2024-04-07T07:10:27Z</time>
      </trkpt>
      <trkpt lat="48.97201" lon="-0.39657">
        <ele>279.4</ele>
        <time>2024-04-07T07:10:28Z</time>
      </trkpt>
      <trkpt lat="48.97198" lon="-0.39662">
        <ele>279.8</ele>
        <time>2024-04-07T07:10:29Z</time>
      </trkpt>
      <trkpt lat="48.97194" lon="-0.39667">
        <ele>280.2</ele>
        <time>2024-04-07T07:10:30Z</time>
      </trkpt>
      <trkpt lat="48.9719" lon="-0.39672">
        <ele>280.4</ele>
        <time>2024-04-07T07:10:31Z</time>
      </trkpt>
      <trkpt lat="48.97186" lon="-0.39677">
        <ele>280.4</ele>
        <time>2024-04-07T07:10:32Z</time>
      </trkpt>
      <trkpt lat="48.97182" lon="-0.39682">
        <ele>280.6</ele>
        <time>2024-04-07T07:10:33Z</time>
      </trkpt>
      <trkpt lat="48.97178" lon="-0.39687">
        <ele>280.4</ele>
        <time>2024-04-07T07:10:34Z</time>
      </trkpt>
      <trkpt lat="48.97174" lon="-0.39692">
        <ele>280</ele>
        <time>2024-04-07T07:10:35Z</time>
      </trkpt>
      <trkpt lat="48.9717" lon="-0.39697">
        <ele>279.8</ele>
        <time>2024-04-07T07:10:36Z</time>
      </trkpt>
      <trkpt lat="48.97165" lon="-0.39703">
        <ele>279.8</ele>
        <time>2024-04-07T07:10:37Z</time>
      </trkpt>
      <trkpt lat="48.97161" lon="-0.39708">
        <ele>279.6</ele>
        <time>2024-04-07T07:10:38Z</time>
      </trkpt>
      <trkpt lat="48.97157" lon="-0.39713">
        <ele>279.6</ele>
        <time>2024-04-07T07:10:39Z</time>
      </trkpt>
      <trkpt lat="48.97153" lon="-0.39719">
        <ele>279.6</ele>
        <time>2024-04-07T07:10:40Z</time>
      </trkpt>
      <trkpt lat="48.97149" lon="-0.39724">
        <ele>279.6</ele>
        <time>2024-04-07T07:10:41Z</time>
      </trkpt>
      <trkpt lat="48.97145" lon="-0.39729">
        <ele>279.4</ele>
        <time>2024-04-07T07:10:42Z</time>
      </trkpt>
      <trkpt lat="48.97141" lon="-0.39733">
        <ele>279.4</ele>
        <time>2024-04-07T07:10:43Z</time>
      </trkpt>
      <trkpt lat="48.97137" lon="-0.39738">
        <ele>279.4</ele>
        <time>2024-04-07T07:10:44Z</time>
      </trkpt>
      <trkpt lat="48.97133" lon="-0.39743">
        <ele>279.2</ele>
        <time>2024-04-07T07:10:45Z</time>
      </trkpt>
      <trkpt lat="48.97128" lon="-0.39748">
        <ele>279.2</ele>
        <time>2024-04-07T07:10:46Z</time>
      </trkpt>
      <trkpt lat="48.97124" lon="-0.39752">
        <ele>279.4</ele>
        <time>2024-04-07T07:10:47Z</time>
      </trkpt>
      <trkpt lat="48.9712" lon="-0.39756">
        <ele>279.4</ele>
        <time>2024-04-07T07:10:48Z</time>
      </trkpt>
      <trkpt lat="48.97116" lon="-0.39761">
        <ele>279.6</ele>
        <time>2024-04-07T07:10:49Z</time>
      </trkpt>
      <trkpt lat="48.97111" lon="-0.39766">
        <ele>279.8</ele>
        <time>2024-04-07T07:10:50Z</time>
      </trkpt>
      <trkpt lat="48.97107" lon="-0.3977">
        <ele>280</ele>
        <time>2024-04-07T07:10:51Z</time>
      </trkpt>
      <trkpt lat="48.97103" lon="-0.39775">
        <ele>280</ele>
        <time>2024-04-07T07:10:52Z</time>
      </trkpt>
      <trkpt lat="48.97098" lon="-0.3978">
        <ele>280.2</ele>
        <time>2024-04-07T07:10:53Z</time>
      </trkpt>
      <trkpt lat="48.97094" lon="-0.39785">
        <ele>280.4</ele>
        <time>2024-04-07T07:10:54Z</time>
      </trkpt>
      <trkpt lat="48.9709" lon="-0.39789">
        <ele>280.6</ele>
        <time>2024-04-07T07:10:55Z</time>
      </trkpt>
      <trkpt lat="48.97085" lon="-0.39794">
        <ele>280.8</ele>
        <time>2024-04-07T07:10:56Z</time>
      </trkpt>
      <trkpt lat="48.97081" lon="-0.39799">
        <ele>281</ele>
        <time>2024-04-07T07:10:57Z</time>
      </trkpt>
      <trkpt lat="48.97076" lon="-0.39804">
        <ele>281</ele>
        <time>2024-04-07T07:10:58Z</time>
      </trkpt>
      <trkpt lat="48.97072" lon="-0.39808">
        <ele>281</ele>
        <time>2024-04-07T07:10:59Z</time>
      </trkpt>
      <trkpt lat="48.97068" lon="-0.39812">
        <ele>281.2</ele>
        <time>2024-04-07T07:11:00Z</time>
      </trkpt>
      <trkpt lat="48.97064" lon="-0.39817">
        <ele>281.2</ele>
        <time>2024-04-07T07:11:01Z</time>
      </trkpt>
      <trkpt lat="48.97059" lon="-0.39822">
        <ele>281.2</ele>
        <time>2024-04-07T07:11:02Z</time>
      </trkpt>
      <trkpt lat="48.97055" lon="-0.39827">
        <ele>281.2</ele>
        <time>2024-04-07T07:11:03Z</time>
      </trkpt>
      <trkpt lat="48.97051" lon="-0.39831">
        <ele>281.2</ele>
        <time>2024-04-07T07:11:04Z</time>
      </trkpt>
      <trkpt lat="48.97047" lon="-0.39836">
        <ele>281.4</ele>
        <time>2024-04-07T07:11:05Z</time>
      </trkpt>
      <trkpt lat="48.97043" lon="-0.39841">
        <ele>281.4</ele>
        <time>2024-04-07T07:11:06Z</time>
      </trkpt>
      <trkpt lat="48.97039" lon="-0.39846">
        <ele>281.6</ele>
        <time>2024-04-07T07:11:07Z</time>
      </trkpt>
      <trkpt lat="48.97035" lon="-0.39851">
        <ele>281.6</ele>
        <time>2024-04-07T07:11:08Z</time>
      </trkpt>
      <trkpt lat="48.97031" lon="-0.39856">
        <ele>281.8</ele>
        <time>2024-04-07T07:11:09Z</time>
      </trkpt>
      <trkpt lat="48.97027" lon="-0.39861">
        <ele>282.2</ele>
        <time>2024-04-07T07:11:10Z</time>
      </trkpt>
      <trkpt lat="48.97023" lon="-0.39866">
        <ele>282.4</ele>
        <time>2024-04-07T07:11:11Z</time>
      </trkpt>
      <trkpt lat="48.97019" lon="-0.39871">
        <ele>282.6</ele>
        <time>2024-04-07T07:11:12Z</time>
      </trkpt>
      <trkpt lat="48.97015" lon="-0.39876">
        <ele>282.8</ele>
        <time>2024-04-07T07:11:13Z</time>
      </trkpt>
      <trkpt lat="48.97011" lon="-0.39882">
        <ele>282.8</ele>
        <time>2024-04-07T07:11:14Z</time>
      </trkpt>
      <trkpt lat="48.97007" lon="-0.39887">
        <ele>283</ele>
        <time>2024-04-07T07:11:15Z</time>
      </trkpt>
      <trkpt lat="48.97003" lon="-0.39892">
        <ele>283</ele>
        <time>2024-04-07T07:11:16Z</time>
      </trkpt>
      <trkpt lat="48.96999" lon="-0.39898">
        <ele>283.2</ele>
        <time>2024-04-07T07:11:17Z</time>
      </trkpt>
      <trkpt lat="48.96995" lon="-0.39903">
        <ele>283.2</ele>
        <time>2024-04-07T07:11:18Z</time>
      </trkpt>
      <trkpt lat="48.96991" lon="-0.39909">
        <ele>283.2</ele>
        <time>2024-04-07T07:11:19Z</time>
      </trkpt>
      <trkpt lat="48.96986" lon="-0.39914">
        <ele>283.2</ele>
        <time>2024-04-07T07:11:20Z</time>
      </trkpt>
      <trkpt lat="48.96982" lon="-0.3992">
        <ele>283.2</ele>
        <time>2024-04-07T07:11:21Z</time>
      </trkpt>
      <trkpt lat="48.96978" lon="-0.39925">
        <ele>283.2</ele>
        <time>2024-04-07T07:11:22Z</time>
      </trkpt>
      <trkpt lat="48.96973" lon="-0.3993">
        <ele>283.2</ele>
        <time>2024-04-07T07:11:23Z</time>
      </trkpt>
      <trkpt lat="48.96969" lon="-0.39936">
        <ele>283.2</ele>
        <time>2024-04-07T07:11:24Z</time>
      </trkpt>
      <trkpt lat="48.96965" lon="-0.39941">
        <ele>283.4</ele>
        <time>2024-04-07T07:11:25Z</time>
      </trkpt>
      <trkpt lat="48.96961" lon="-0.39946">
        <ele>283.4</ele>
        <time>2024-04-07T07:11:26Z</time>
      </trkpt>
      <trkpt lat="48.96956" lon="-0.3995">
        <ele>283.4</ele>
        <time>2024-04-07T07:11:27Z</time>
      </trkpt>
      <trkpt lat="48.96952" lon="-0.39955">
        <ele>283.4</ele>
        <time>2024-04-07T07:11:28Z</time>
      </trkpt>
      <trkpt lat="48.96948" lon="-0.3996">
        <ele>283.4</ele>
        <time>2024-04-07T07:11:29Z</time>
      </trkpt>
      <trkpt lat="48.96943" lon="-0.39965">
        <ele>283.6</ele>
        <time>2024-04-07T07:11:30Z</time>
      </trkpt>
      <trkpt lat="48.96939" lon="-0.39969">
        <ele>283.6</ele>
        <time>2024-04-07T07:11:31Z</time>
      </trkpt>
      <trkpt lat="48.96935" lon="-0.39974">
        <ele>283.6</ele>
        <time>2024-04-07T07:11:32Z</time>
      </trkpt>
      <trkpt lat="48.96926" lon="-0.39983">
        <ele>283.8</ele>
        <time>2024-04-07T07:11:33Z</time>
      </trkpt>
      <trkpt lat="48.96922" lon="-0.39988">
        <ele>284.2</ele>
        <time>2024-04-07T07:11:34Z</time>
      </trkpt>
      <trkpt lat="48.96919" lon="-0.3999">
        <ele>284.6</ele>
        <time>2024-04-07T07:11:35Z</time>
      </trkpt>
      <trkpt lat="48.96917" lon="-0.39992">
        <ele>284.8</ele>
        <time>2024-04-07T07:11:36Z</time>
      </trkpt>
      <trkpt lat="48.96913" lon="-0.39996">
        <ele>284.8</ele>
        <time>2024-04-07T07:11:37Z</time>
      </trkpt>
      <trkpt lat="48.96909" lon="-0.4">
        <ele>284.8</ele>
        <time>2024-04-07T07:11:38Z</time>
      </trkpt>
      <trkpt lat="48.96904" lon="-0.40004">
        <ele>284.8</ele>
        <time>2024-04-07T07:11:39Z</time>
      </trkpt>
      <trkpt lat="48.969" lon="-0.40009">
        <ele>284.8</ele>
        <time>2024-04-07T07:11:40Z</time>
      </trkpt>
      <trkpt lat="48.96896" lon="-0.40013">
        <ele>284.8</ele>
        <time>2024-04-07T07:11:41Z</time>
      </trkpt>
      <trkpt lat="48.96891" lon="-0.40018">
        <ele>284.8</ele>
        <time>2024-04-07T07:11:42Z</time>
      </trkpt>
      <trkpt lat="48.96887" lon="-0.40022">
        <ele>285</ele>
        <time>2024-04-07T07:11:43Z</time>
      </trkpt>
      <trkpt lat="48.96882" lon="-0.40027">
        <ele>285.2</ele>
        <time>2024-04-07T07:11:44Z</time>
      </trkpt>
      <trkpt lat="48.96878" lon="-0.40031">
        <ele>285.2</ele>
        <time>2024-04-07T07:11:45Z</time>
      </trkpt>
      <trkpt lat="48.96874" lon="-0.40036">
        <ele>285.2</ele>
        <time>2024-04-07T07:11:46Z</time>
      </trkpt>
      <trkpt lat="48.96869" lon="-0.4004">
        <ele>285.4</ele>
        <time>2024-04-07T07:11:47Z</time>
      </trkpt>
      <trkpt lat="48.96865" lon="-0.40045">
        <ele>285.4</ele>
        <time>2024-04-07T07:11:48Z</time>
      </trkpt>
      <trkpt lat="48.96861" lon="-0.40049">
        <ele>285.4</ele>
        <time>2024-04-07T07:11:49Z</time>
      </trkpt>
      <trkpt lat="48.96856" lon="-0.40053">
        <ele>285.4</ele>
        <time>2024-04-07T07:11:50Z</time>
      </trkpt>
      <trkpt lat="48.96852" lon="-0.40058">
        <ele>285.4</ele>
        <time>2024-04-07T07:11:51Z</time>
      </trkpt>
      <trkpt lat="48.96847" lon="-0.40063">
        <ele>285.4</ele>
        <time>2024-04-07T07:11:52Z</time>
      </trkpt>
      <trkpt lat="48.96843" lon="-0.40067">
        <ele>285.6</ele>
        <time>2024-04-07T07:11:53Z</time>
      </trkpt>
      <trkpt lat="48.96838" lon="-0.40072">
        <ele>285.8</ele>
        <time>2024-04-07T07:11:54Z</time>
      </trkpt>
      <trkpt lat="48.96834" lon="-0.40076">
        <ele>286</ele>
        <time>2024-04-07T07:11:55Z</time>
      </trkpt>
      <trkpt lat="48.96829" lon="-0.40081">
        <ele>286.2</ele>
        <time>2024-04-07T07:11:56Z</time>
      </trkpt>
      <trkpt lat="48.96825" lon="-0.40085">
        <ele>286.2</ele>
        <time>2024-04-07T07:11:57Z</time>
      </trkpt>
      <trkpt lat="48.96821" lon="-0.4009">
        <ele>286.2</ele>
        <time>2024-04-07T07:11:58Z</time>
      </trkpt>
      <trkpt lat="48.96816" lon="-0.40094">
        <ele>286.4</ele>
        <time>2024-04-07T07:11:59Z</time>
      </trkpt>
      <trkpt lat="48.96812" lon="-0.40099">
        <ele>286.6</ele>
        <time>2024-04-07T07:12:00Z</time>
      </trkpt>
      <trkpt lat="48.96808" lon="-0.40103">
        <ele>286.6</ele>
        <time>2024-04-07T07:12:01Z</time>
      </trkpt>
      <trkpt lat="48.96803" lon="-0.40108">
        <ele>286.8</ele>
        <time>2024-04-07T07:12:02Z</time>
      </trkpt>
      <trkpt lat="48.96799" lon="-0.40112">
        <ele>287</ele>
        <time>2024-04-07T07:12:03Z</time>
      </trkpt>
      <trkpt lat="48.96794" lon="-0.40117">
        <ele>287.2</ele>
        <time>2024-04-07T07:12:04Z</time>
      </trkpt>
      <trkpt lat="48.9679" lon="-0.40121">
        <ele>287.6</ele>
        <time>2024-04-07T07:12:05Z</time>
      </trkpt>
      <trkpt lat="48.96785" lon="-0.40126">
        <ele>287.8</ele>
        <time>2024-04-07T07:12:06Z</time>
      </trkpt>
      <trkpt lat="48.96777" lon="-0.40135">
        <ele>288.4</ele>
        <time>2024-04-07T07:12:07Z</time>
      </trkpt>
      <trkpt lat="48.96774" lon="-0.40137">
        <ele>288.6</ele>
        <time>2024-04-07T07:12:08Z</time>
      </trkpt>
      <trkpt lat="48.96772" lon="-0.40139">
        <ele>288.8</ele>
        <time>2024-04-07T07:12:09Z</time>
      </trkpt>
      <trkpt lat="48.96768" lon="-0.40144">
        <ele>288.8</ele>
        <time>2024-04-07T07:12:10Z</time>
      </trkpt>
      <trkpt lat="48.96763" lon="-0.40148">
        <ele>289</ele>
        <time>2024-04-07T07:12:11Z</time>
      </trkpt>
      <trkpt lat="48.96759" lon="-0.40153">
        <ele>289</ele>
        <time>2024-04-07T07:12:12Z</time>
      </trkpt>
      <trkpt lat="48.96754" lon="-0.40157">
        <ele>289</ele>
        <time>2024-04-07T07:12:13Z</time>
      </trkpt>
      <trkpt lat="48.9675" lon="-0.40162">
        <ele>289.2</ele>
        <time>2024-04-07T07:12:14Z</time>
      </trkpt>
      <trkpt lat="48.96746" lon="-0.40166">
        <ele>289.4</ele>
        <time>2024-04-07T07:12:15Z</time>
      </trkpt>
      <trkpt lat="48.96741" lon="-0.4017">
        <ele>289.6</ele>
        <time>2024-04-07T07:12:16Z</time>
      </trkpt>
      <trkpt lat="48.96737" lon="-0.40174">
        <ele>289.8</ele>
        <time>2024-04-07T07:12:17Z</time>
      </trkpt>
      <trkpt lat="48.96733" lon="-0.40178">
        <ele>289.8</ele>
        <time>2024-04-07T07:12:18Z</time>
      </trkpt>
      <trkpt lat="48.9673" lon="-0.40182">
        <ele>290</ele>
        <time>2024-04-07T07:12:19Z</time>
      </trkpt>
      <trkpt lat="48.96726" lon="-0.40185">
        <ele>290.2</ele>
        <time>2024-04-07T07:12:20Z</time>
      </trkpt>
      <trkpt lat="48.96723" lon="-0.40189">
        <ele>290.4</ele>
        <time>2024-04-07T07:12:21Z</time>
      </trkpt>
      <trkpt lat="48.96719" lon="-0.40193">
        <ele>290.8</ele>
        <time>2024-04-07T07:12:22Z</time>
      </trkpt>
      <trkpt lat="48.96715" lon="-0.40197">
        <ele>291.4</ele>
        <time>2024-04-07T07:12:23Z</time>
      </trkpt>
      <trkpt lat="48.96712" lon="-0.402">
        <ele>292</ele>
        <time>2024-04-07T07:12:24Z</time>
      </trkpt>
      <trkpt lat="48.96709" lon="-0.40204">
        <ele>292.6</ele>
        <time>2024-04-07T07:12:25Z</time>
      </trkpt>
      <trkpt lat="48.96705" lon="-0.40207">
        <ele>293.2</ele>
        <time>2024-04-07T07:12:26Z</time>
      </trkpt>
      <trkpt lat="48.96702" lon="-0.4021">
        <ele>293.6</ele>
        <time>2024-04-07T07:12:27Z</time>
      </trkpt>
      <trkpt lat="48.967" lon="-0.40213">
        <ele>293.8</ele>
        <time>2024-04-07T07:12:28Z</time>
      </trkpt>
      <trkpt lat="48.96697" lon="-0.40216">
        <ele>294.2</ele>
        <time>2024-04-07T07:12:29Z</time>
      </trkpt>
      <trkpt lat="48.96694" lon="-0.40219">
        <ele>294.4</ele>
        <time>2024-04-07T07:12:30Z</time>
      </trkpt>
      <trkpt lat="48.96692" lon="-0.4022">
        <ele>294.4</ele>
        <time>2024-04-07T07:12:31Z</time>
      </trkpt>
      <trkpt lat="48.9669" lon="-0.40222">
        <ele>294.6</ele>
        <time>2024-04-07T07:12:32Z</time>
      </trkpt>
      <trkpt lat="48.96689" lon="-0.40223">
        <ele>294.8</ele>
        <time>2024-04-07T07:12:33Z</time>
      </trkpt>
      <trkpt lat="48.96689" lon="-0.40223">
        <ele>295.2</ele>
        <time>2024-04-07T07:12:34Z</time>
      </trkpt>
      <trkpt lat="48.96689" lon="-0.40223">
        <ele>295.8</ele>
        <time>2024-04-07T07:12:35Z</time>
      </trkpt>
      <trkpt lat="48.96688" lon="-0.40226">
        <ele>296.2</ele>
        <time>2024-04-07T07:13:58Z</time>
      </trkpt>
      <trkpt lat="48.96687" lon="-0.40229">
        <ele>296.2</ele>
        <time>2024-04-07T07:13:59Z</time>
      </trkpt>
      <trkpt lat="48.96685" lon="-0.40231">
        <ele>296</ele>
        <time>2024-04-07T07:14:00Z</time>
      </trkpt>
      <trkpt lat="48.96683" lon="-0.40233">
        <ele>295.8</ele>
        <time>2024-04-07T07:14:01Z</time>
      </trkpt>
      <trkpt lat="48.96681" lon="-0.40235">
        <ele>295.6</ele>
        <time>2024-04-07T07:14:02Z</time>
      </trkpt>
      <trkpt lat="48.96678" lon="-0.40238">
        <ele>295.6</ele>
        <time>2024-04-07T07:14:03Z</time>
      </trkpt>
      <trkpt lat="48.96676" lon="-0.40241">
        <ele>295.4</ele>
        <time>2024-04-07T07:14:04Z</time>
      </trkpt>
      <trkpt lat="48.96673" lon="-0.40245">
        <ele>295.4</ele>
        <time>2024-04-07T07:14:05Z</time>
      </trkpt>
      <trkpt lat="48.96669" lon="-0.40248">
        <ele>295.2</ele>
        <time>2024-04-07T07:14:06Z</time>
      </trkpt>
      <trkpt lat="48.96666" lon="-0.40252">
        <ele>295.2</ele>
        <time>2024-04-07T07:14:07Z</time>
      </trkpt>
      <trkpt lat="48.96662" lon="-0.40255">
        <ele>295</ele>
        <time>2024-04-07T07:14:08Z</time>
      </trkpt>
      <trkpt lat="48.96658" lon="-0.40259">
        <ele>294.8</ele>
        <time>2024-04-07T07:14:09Z</time>
      </trkpt>
      <trkpt lat="48.96654" lon="-0.40263">
        <ele>294.8</ele>
        <time>2024-04-07T07:14:10Z</time>
      </trkpt>
      <trkpt lat="48.96649" lon="-0.40267">
        <ele>294.8</ele>
        <time>2024-04-07T07:14:11Z</time>
      </trkpt>
      <trkpt lat="48.96644" lon="-0.40271">
        <ele>294.6</ele>
        <time>2024-04-07T07:14:12Z</time>
      </trkpt>
      <trkpt lat="48.9664" lon="-0.40276">
        <ele>294.6</ele>
        <time>2024-04-07T07:14:13Z</time>
      </trkpt>
      <trkpt lat="48.96635" lon="-0.40281">
        <ele>294.8</ele>
        <time>2024-04-07T07:14:14Z</time>
      </trkpt>
      <trkpt lat="48.9663" lon="-0.40286">
        <ele>294.8</ele>
        <time>2024-04-07T07:14:15Z</time>
      </trkpt>
      <trkpt lat="48.96626" lon="-0.40291">
        <ele>294.8</ele>
        <time>2024-04-07T07:14:16Z</time>
      </trkpt>
      <trkpt lat="48.96621" lon="-0.40295">
        <ele>294.8</ele>
        <time>2024-04-07T07:14:17Z</time>
      </trkpt>
      <trkpt lat="48.96615" lon="-0.40299">
        <ele>295</ele>
        <time>2024-04-07T07:14:18Z</time>
      </trkpt>
      <trkpt lat="48.96609" lon="-0.40304">
        <ele>295</ele>
        <time>2024-04-07T07:14:19Z</time>
      </trkpt>
      <trkpt lat="48.96604" lon="-0.40309">
        <ele>295.2</ele>
        <time>2024-04-07T07:14:20Z</time>
      </trkpt>
      <trkpt lat="48.96598" lon="-0.40314">
        <ele>295.2</ele>
        <time>2024-04-07T07:14:21Z</time>
      </trkpt>
      <trkpt lat="48.96593" lon="-0.40319">
        <ele>295.2</ele>
        <time>2024-04-07T07:14:22Z</time>
      </trkpt>
      <trkpt lat="48.96587" lon="-0.40324">
        <ele>295</ele>
        <time>2024-04-07T07:14:23Z</time>
      </trkpt>
      <trkpt lat="48.96582" lon="-0.4033">
        <ele>294.6</ele>
        <time>2024-04-07T07:14:24Z</time>
      </trkpt>
      <trkpt lat="48.96578" lon="-0.40335">
        <ele>294.2</ele>
        <time>2024-04-07T07:14:25Z</time>
      </trkpt>
      <trkpt lat="48.96573" lon="-0.40339">
        <ele>294</ele>
        <time>2024-04-07T07:14:26Z</time>
      </trkpt>
      <trkpt lat="48.96567" lon="-0.40344">
        <ele>293.8</ele>
        <time>2024-04-07T07:14:27Z</time>
      </trkpt>
      <trkpt lat="48.96562" lon="-0.40349">
        <ele>293.8</ele>
        <time>2024-04-07T07:14:28Z</time>
      </trkpt>
      <trkpt lat="48.96557" lon="-0.40354">
        <ele>293.8</ele>
        <time>2024-04-07T07:14:29Z</time>
      </trkpt>
      <trkpt lat="48.96552" lon="-0.40359">
        <ele>293.8</ele>
        <time>2024-04-07T07:14:30Z</time>
      </trkpt>
      <trkpt lat="48.96547" lon="-0.40364">
        <ele>294</ele>
        <time>2024-04-07T07:14:31Z</time>
      </trkpt>
      <trkpt lat="48.96542" lon="-0.40369">
        <ele>294</ele>
        <time>2024-04-07T07:14:32Z</time>
      </trkpt>
      <trkpt lat="48.96537" lon="-0.40375">
        <ele>294</ele>
        <time>2024-04-07T07:14:33Z</time>
      </trkpt>
      <trkpt lat="48.96532" lon="-0.4038">
        <ele>294</ele>
        <time>2024-04-07T07:14:34Z</time>
      </trkpt>
      <trkpt lat="48.96527" lon="-0.40384">
        <ele>294.2</ele>
        <time>2024-04-07T07:14:35Z</time>
      </trkpt>
      <trkpt lat="48.96522" lon="-0.40389">
        <ele>294.4</ele>
        <time>2024-04-07T07:14:36Z</time>
      </trkpt>
      <trkpt lat="48.96517" lon="-0.40394">
        <ele>294.8</ele>
        <time>2024-04-07T07:14:37Z</time>
      </trkpt>
      <trkpt lat="48.96512" lon="-0.40398">
        <ele>295</ele>
        <time>2024-04-07T07:14:38Z</time>
      </trkpt>
      <trkpt lat="48.96507" lon="-0.40402">
        <ele>295.2</ele>
        <time>2024-04-07T07:14:39Z</time>
      </trkpt>
      <trkpt lat="48.96502" lon="-0.40406">
        <ele>295.4</ele>
        <time>2024-04-07T07:14:40Z</time>
      </trkpt>
      <trkpt lat="48.96497" lon="-0.4041">
        <ele>295.4</ele>
        <time>2024-04-07T07:14:41Z</time>
      </trkpt>
      <trkpt lat="48.96492" lon="-0.40413">
        <ele>295.4</ele>
        <time>2024-04-07T07:14:42Z</time>
      </trkpt>
      <trkpt lat="48.96486" lon="-0.40416">
        <ele>295.4</ele>
        <time>2024-04-07T07:14:43Z</time>
      </trkpt>
      <trkpt lat="48.96481" lon="-0.40419">
        <ele>295.6</ele>
        <time>2024-04-07T07:14:44Z</time>
      </trkpt>
      <trkpt lat="48.96475" lon="-0.40421">
        <ele>295.8</ele>
        <time>2024-04-07T07:14:45Z</time>
      </trkpt>
      <trkpt lat="48.96469" lon="-0.40424">
        <ele>295.8</ele>
        <time>2024-04-07T07:14:46Z</time>
      </trkpt>
      <trkpt lat="48.96464" lon="-0.40426">
        <ele>295.8</ele>
        <time>2024-04-07T07:14:47Z</time>
      </trkpt>
      <trkpt lat="48.96458" lon="-0.40428">
        <ele>296</ele>
        <time>2024-04-07T07:14:48Z</time>
      </trkpt>
      <trkpt lat="48.96452" lon="-0.4043">
        <ele>296.2</ele>
        <time>2024-04-07T07:14:49Z</time>
      </trkpt>
      <trkpt lat="48.96446" lon="-0.40432">
        <ele>296.4</ele>
        <time>2024-04-07T07:14:50Z</time>
      </trkpt>
      <trkpt lat="48.9644" lon="-0.40433">
        <ele>296.6</ele>
        <time>2024-04-07T07:14:51Z</time>
      </trkpt>
      <trkpt lat="48.96434" lon="-0.40435">
        <ele>296.8</ele>
        <time>2024-04-07T07:14:52Z</time>
      </trkpt>
      <trkpt lat="48.96428" lon="-0.40437">
        <ele>297.2</ele>
        <time>2024-04-07T07:14:53Z</time>
      </trkpt>
      <trkpt lat="48.96422" lon="-0.40438">
        <ele>297.6</ele>
        <time>2024-04-07T07:14:54Z</time>
      </trkpt>
      <trkpt lat="48.96416" lon="-0.4044">
        <ele>297.8</ele>
        <time>2024-04-07T07:14:55Z</time>
      </trkpt>
      <trkpt lat="48.9641" lon="-0.40442">
        <ele>298</ele>
        <time>2024-04-07T07:14:56Z</time>
      </trkpt>
      <trkpt lat="48.96403" lon="-0.40444">
        <ele>298.2</ele>
        <time>2024-04-07T07:14:57Z</time>
      </trkpt>
      <trkpt lat="48.96397" lon="-0.40446">
        <ele>298.2</ele>
        <time>2024-04-07T07:14:58Z</time>
      </trkpt>
      <trkpt lat="48.96391" lon="-0.40448">
        <ele>298.2</ele>
        <time>2024-04-07T07:14:59Z</time>
      </trkpt>
      <trkpt lat="48.96385" lon="-0.4045">
        <ele>298.2</ele>
        <time>2024-04-07T07:15:00Z</time>
      </trkpt>
      <trkpt lat="48.96378" lon="-0.40452">
        <ele>298.2</ele>
        <time>2024-04-07T07:15:01Z</time>
      </trkpt>
      <trkpt lat="48.96372" lon="-0.40454">
        <ele>298.2</ele>
        <time>2024-04-07T07:15:02Z</time>
      </trkpt>
      <trkpt lat="48.96365" lon="-0.40457">
        <ele>298.2</ele>
        <time>2024-04-07T07:15:03Z</time>
      </trkpt>
      <trkpt lat="48.96359" lon="-0.40459">
        <ele>298.2</ele>
        <time>2024-04-07T07:15:04Z</time>
      </trkpt>
      <trkpt lat="48.96352" lon="-0.40461">
        <ele>298.4</ele>
        <time>2024-04-07T07:15:05Z</time>
      </trkpt>
      <trkpt lat="48.96346" lon="-0.40462">
        <ele>298.6</ele>
        <time>2024-04-07T07:15:06Z</time>
      </trkpt>
      <trkpt lat="48.9634" lon="-0.40465">
        <ele>298.6</ele>
        <time>2024-04-07T07:15:07Z</time>
      </trkpt>
      <trkpt lat="48.96334" lon="-0.40467">
        <ele>298.8</ele>
        <time>2024-04-07T07:15:08Z</time>
      </trkpt>
      <trkpt lat="48.96327" lon="-0.40469">
        <ele>298.8</ele>
        <time>2024-04-07T07:15:09Z</time>
      </trkpt>
      <trkpt lat="48.96321" lon="-0.40471">
        <ele>298.8</ele>
        <time>2024-04-07T07:15:10Z</time>
      </trkpt>
      <trkpt lat="48.96315" lon="-0.40473">
        <ele>298.8</ele>
        <time>2024-04-07T07:15:11Z</time>
      </trkpt>
      <trkpt lat="48.96309" lon="-0.40474">
        <ele>298.6</ele>
        <time>2024-04-07T07:15:12Z</time>
      </trkpt>
      <trkpt lat="48.96302" lon="-0.40476">
        <ele>298.4</ele>
        <time>2024-04-07T07:15:13Z</time>
      </trkpt>
      <trkpt lat="48.96296" lon="-0.40479">
        <ele>298.4</ele>
        <time>2024-04-07T07:15:14Z</time>
      </trkpt>
      <trkpt lat="48.96289" lon="-0.40481">
        <ele>298.2</ele>
        <time>2024-04-07T07:15:15Z</time>
      </trkpt>
      <trkpt lat="48.96282" lon="-0.40484">
        <ele>298.2</ele>
        <time>2024-04-07T07:15:16Z</time>
      </trkpt>
      <trkpt lat="48.96276" lon="-0.40487">
        <ele>298.2</ele>
        <time>2024-04-07T07:15:17Z</time>
      </trkpt>
      <trkpt lat="48.96269" lon="-0.40489">
        <ele>298.4</ele>
        <time>2024-04-07T07:15:18Z</time>
      </trkpt>
      <trkpt lat="48.96263" lon="-0.40492">
        <ele>298.4</ele>
        <time>2024-04-07T07:15:19Z</time>
      </trkpt>
      <trkpt lat="48.96256" lon="-0.40495">
        <ele>298.4</ele>
        <time>2024-04-07T07:15:20Z</time>
      </trkpt>
      <trkpt lat="48.9625" lon="-0.40497">
        <ele>298.6</ele>
        <time>2024-04-07T07:15:21Z</time>
      </trkpt>
      <trkpt lat="48.96244" lon="-0.405">
        <ele>298.6</ele>
        <time>2024-04-07T07:15:22Z</time>
      </trkpt>
      <trkpt lat="48.96239" lon="-0.40502">
        <ele>298.4</ele>
        <time>2024-04-07T07:15:23Z</time>
      </trkpt>
      <trkpt lat="48.96227" lon="-0.40508">
        <ele>298.2</ele>
        <time>2024-04-07T07:15:24Z</time>
      </trkpt>
      <trkpt lat="48.96224" lon="-0.40509">
        <ele>298</ele>
        <time>2024-04-07T07:15:25Z</time>
      </trkpt>
      <trkpt lat="48.96221" lon="-0.4051">
        <ele>298</ele>
        <time>2024-04-07T07:15:26Z</time>
      </trkpt>
      <trkpt lat="48.96215" lon="-0.40513">
        <ele>298</ele>
        <time>2024-04-07T07:15:27Z</time>
      </trkpt>
      <trkpt lat="48.96208" lon="-0.40516">
        <ele>298</ele>
        <time>2024-04-07T07:15:28Z</time>
      </trkpt>
      <trkpt lat="48.96202" lon="-0.40519">
        <ele>298</ele>
        <time>2024-04-07T07:15:29Z</time>
      </trkpt>
      <trkpt lat="48.96195" lon="-0.40522">
        <ele>298</ele>
        <time>2024-04-07T07:15:30Z</time>
      </trkpt>
      <trkpt lat="48.96188" lon="-0.40525">
        <ele>298.2</ele>
        <time>2024-04-07T07:15:31Z</time>
      </trkpt>
      <trkpt lat="48.96181" lon="-0.40528">
        <ele>298.2</ele>
        <time>2024-04-07T07:15:32Z</time>
      </trkpt>
      <trkpt lat="48.96175" lon="-0.4053">
        <ele>298.2</ele>
        <time>2024-04-07T07:15:33Z</time>
      </trkpt>
      <trkpt lat="48.96169" lon="-0.40533">
        <ele>298</ele>
        <time>2024-04-07T07:15:34Z</time>
      </trkpt>
      <trkpt lat="48.96162" lon="-0.40536">
        <ele>298</ele>
        <time>2024-04-07T07:15:35Z</time>
      </trkpt>
      <trkpt lat="48.96156" lon="-0.40538">
        <ele>297.8</ele>
        <time>2024-04-07T07:15:36Z</time>
      </trkpt>
      <trkpt lat="48.9615" lon="-0.40541">
        <ele>297.4</ele>
        <time>2024-04-07T07:15:37Z</time>
      </trkpt>
      <trkpt lat="48.96143" lon="-0.40544">
        <ele>297.4</ele>
        <time>2024-04-07T07:15:38Z</time>
      </trkpt>
      <trkpt lat="48.96136" lon="-0.40546">
        <ele>297.6</ele>
        <time>2024-04-07T07:15:39Z</time>
      </trkpt>
      <trkpt lat="48.9613" lon="-0.40549">
        <ele>297.6</ele>
        <time>2024-04-07T07:15:40Z</time>
      </trkpt>
      <trkpt lat="48.96124" lon="-0.40552">
        <ele>297.6</ele>
        <time>2024-04-07T07:15:41Z</time>
      </trkpt>
      <trkpt lat="48.96118" lon="-0.40554">
        <ele>297.8</ele>
        <time>2024-04-07T07:15:42Z</time>
      </trkpt>
      <trkpt lat="48.96112" lon="-0.40558">
        <ele>298</ele>
        <time>2024-04-07T07:15:43Z</time>
      </trkpt>
      <trkpt lat="48.96105" lon="-0.40561">
        <ele>298.4</ele>
        <time>2024-04-07T07:15:44Z</time>
      </trkpt>
      <trkpt lat="48.96099" lon="-0.40564">
        <ele>298.6</ele>
        <time>2024-04-07T07:15:45Z</time>
      </trkpt>
      <trkpt lat="48.96093" lon="-0.40567">
        <ele>298.8</ele>
        <time>2024-04-07T07:15:46Z</time>
      </trkpt>
      <trkpt lat="48.96087" lon="-0.40571">
        <ele>299</ele>
        <time>2024-04-07T07:15:47Z</time>
      </trkpt>
      <trkpt lat="48.96081" lon="-0.40574">
        <ele>299.2</ele>
        <time>2024-04-07T07:15:48Z</time>
      </trkpt>
      <trkpt lat="48.96076" lon="-0.40578">
        <ele>299.2</ele>
        <time>2024-04-07T07:15:49Z</time>
      </trkpt>
      <trkpt lat="48.96071" lon="-0.40582">
        <ele>299.4</ele>
        <time>2024-04-07T07:15:50Z</time>
      </trkpt>
      <trkpt lat="48.96066" lon="-0.40587">
        <ele>299.4</ele>
        <time>2024-04-07T07:15:51Z</time>
      </trkpt>
      <trkpt lat="48.96061" lon="-0.40593">
        <ele>299.6</ele>
        <time>2024-04-07T07:15:52Z</time>
      </trkpt>
      <trkpt lat="48.96056" lon="-0.40599">
        <ele>299.8</ele>
        <time>2024-04-07T07:15:53Z</time>
      </trkpt>
      <trkpt lat="48.96052" lon="-0.40605">
        <ele>300</ele>
        <time>2024-04-07T07:15:54Z</time>
      </trkpt>
      <trkpt lat="48.96049" lon="-0.40612">
        <ele>300.2</ele>
        <time>2024-04-07T07:15:55Z</time>
      </trkpt>
      <trkpt lat="48.96045" lon="-0.4062">
        <ele>300.4</ele>
        <time>2024-04-07T07:15:56Z</time>
      </trkpt>
      <trkpt lat="48.96042" lon="-0.40627">
        <ele>300.6</ele>
        <time>2024-04-07T07:15:57Z</time>
      </trkpt>
      <trkpt lat="48.96039" lon="-0.40635">
        <ele>300.6</ele>
        <time>2024-04-07T07:15:58Z</time>
      </trkpt>
      <trkpt lat="48.96036" lon="-0.40642">
        <ele>300.8</ele>
        <time>2024-04-07T07:15:59Z</time>
      </trkpt>
      <trkpt lat="48.96033" lon="-0.40649">
        <ele>300.6</ele>
        <time>2024-04-07T07:16:00Z</time>
      </trkpt>
      <trkpt lat="48.9603" lon="-0.40656">
        <ele>300.4</ele>
        <time>2024-04-07T07:16:01Z</time>
      </trkpt>
      <trkpt lat="48.96028" lon="-0.40663">
        <ele>300.4</ele>
        <time>2024-04-07T07:16:02Z</time>
      </trkpt>
      <trkpt lat="48.96025" lon="-0.40669">
        <ele>300.2</ele>
        <time>2024-04-07T07:16:03Z</time>
      </trkpt>
      <trkpt lat="48.96021" lon="-0.40675">
        <ele>300.2</ele>
        <time>2024-04-07T07:16:04Z</time>
      </trkpt>
      <trkpt lat="48.96018" lon="-0.40682">
        <ele>300.2</ele>
        <time>2024-04-07T07:16:05Z</time>
      </trkpt>
      <trkpt lat="48.96014" lon="-0.40688">
        <ele>300.6</ele>
        <time>2024-04-07T07:16:06Z</time>
      </trkpt>
      <trkpt lat="48.96009" lon="-0.40694">
        <ele>301</ele>
        <time>2024-04-07T07:16:07Z</time>
      </trkpt>
      <trkpt lat="48.96005" lon="-0.407">
        <ele>301.4</ele>
        <time>2024-04-07T07:16:08Z</time>
      </trkpt>
      <trkpt lat="48.96" lon="-0.40705">
        <ele>302</ele>
        <time>2024-04-07T07:16:09Z</time>
      </trkpt>
      <trkpt lat="48.95995" lon="-0.40711">
        <ele>302.6</ele>
        <time>2024-04-07T07:16:10Z</time>
      </trkpt>
      <trkpt lat="48.9599" lon="-0.40716">
        <ele>303</ele>
        <time>2024-04-07T07:16:11Z</time>
      </trkpt>
      <trkpt lat="48.95985" lon="-0.40721">
        <ele>303.2</ele>
        <time>2024-04-07T07:16:12Z</time>
      </trkpt>
      <trkpt lat="48.9598" lon="-0.40726">
        <ele>303.2</ele>
        <time>2024-04-07T07:16:13Z</time>
      </trkpt>
      <trkpt lat="48.95976" lon="-0.40732">
        <ele>303.4</ele>
        <time>2024-04-07T07:16:14Z</time>
      </trkpt>
      <trkpt lat="48.95971" lon="-0.40737">
        <ele>303.4</ele>
        <time>2024-04-07T07:16:15Z</time>
      </trkpt>
      <trkpt lat="48.95967" lon="-0.40743">
        <ele>303.4</ele>
        <time>2024-04-07T07:16:16Z</time>
      </trkpt>
      <trkpt lat="48.95962" lon="-0.40748">
        <ele>303.4</ele>
        <time>2024-04-07T07:16:17Z</time>
      </trkpt>
      <trkpt lat="48.95958" lon="-0.40753">
        <ele>303.4</ele>
        <time>2024-04-07T07:16:18Z</time>
      </trkpt>
      <trkpt lat="48.95953" lon="-0.40758">
        <ele>303.6</ele>
        <time>2024-04-07T07:16:19Z</time>
      </trkpt>
      <trkpt lat="48.95949" lon="-0.40763">
        <ele>303.6</ele>
        <time>2024-04-07T07:16:20Z</time>
      </trkpt>
      <trkpt lat="48.95944" lon="-0.40768">
        <ele>303.6</ele>
        <time>2024-04-07T07:16:21Z</time>
      </trkpt>
      <trkpt lat="48.95939" lon="-0.40773">
        <ele>303.6</ele>
        <time>2024-04-07T07:16:22Z</time>
      </trkpt>
      <trkpt lat="48.95935" lon="-0.40778">
        <ele>303.6</ele>
        <time>2024-04-07T07:16:23Z</time>
      </trkpt>
      <trkpt lat="48.9593" lon="-0.40783">
        <ele>303.4</ele>
        <time>2024-04-07T07:16:24Z</time>
      </trkpt>
      <trkpt lat="48.95926" lon="-0.40788">
        <ele>303.6</ele>
        <time>2024-04-07T07:16:25Z</time>
      </trkpt>
      <trkpt lat="48.95921" lon="-0.40793">
        <ele>303.6</ele>
        <time>2024-04-07T07:16:26Z</time>
      </trkpt>
      <trkpt lat="48.95916" lon="-0.40798">
        <ele>303.8</ele>
        <time>2024-04-07T07:16:27Z</time>
      </trkpt>
      <trkpt lat="48.95911" lon="-0.40804">
        <ele>304</ele>
        <time>2024-04-07T07:16:28Z</time>
      </trkpt>
      <trkpt lat="48.95906" lon="-0.4081">
        <ele>304.2</ele>
        <time>2024-04-07T07:16:29Z</time>
      </trkpt>
      <trkpt lat="48.95901" lon="-0.40815">
        <ele>304.2</ele>
        <time>2024-04-07T07:16:30Z</time>
      </trkpt>
      <trkpt lat="48.95897" lon="-0.4082">
        <ele>304.4</ele>
        <time>2024-04-07T07:16:31Z</time>
      </trkpt>
      <trkpt lat="48.95892" lon="-0.40825">
        <ele>304</ele>
        <time>2024-04-07T07:16:32Z</time>
      </trkpt>
      <trkpt lat="48.95888" lon="-0.40829">
        <ele>303.6</ele>
        <time>2024-04-07T07:16:33Z</time>
      </trkpt>
      <trkpt lat="48.95883" lon="-0.40834">
        <ele>303</ele>
        <time>2024-04-07T07:16:34Z</time>
      </trkpt>
      <trkpt lat="48.95879" lon="-0.40839">
        <ele>302.8</ele>
        <time>2024-04-07T07:16:35Z</time>
      </trkpt>
      <trkpt lat="48.95875" lon="-0.40843">
        <ele>302.8</ele>
        <time>2024-04-07T07:16:36Z</time>
      </trkpt>
      <trkpt lat="48.95871" lon="-0.40847">
        <ele>302.8</ele>
        <time>2024-04-07T07:16:37Z</time>
      </trkpt>
      <trkpt lat="48.95866" lon="-0.40851">
        <ele>303</ele>
        <time>2024-04-07T07:16:38Z</time>
      </trkpt>
      <trkpt lat="48.95862" lon="-0.40855">
        <ele>303.4</ele>
        <time>2024-04-07T07:16:39Z</time>
      </trkpt>
      <trkpt lat="48.95857" lon="-0.40859">
        <ele>303.8</ele>
        <time>2024-04-07T07:16:40Z</time>
      </trkpt>
      <trkpt lat="48.95852" lon="-0.40863">
        <ele>304</ele>
        <time>2024-04-07T07:16:41Z</time>
      </trkpt>
      <trkpt lat="48.95847" lon="-0.40867">
        <ele>304.2</ele>
        <time>2024-04-07T07:16:42Z</time>
      </trkpt>
      <trkpt lat="48.95842" lon="-0.40871">
        <ele>304.4</ele>
        <time>2024-04-07T07:16:43Z</time>
      </trkpt>
      <trkpt lat="48.95836" lon="-0.40875">
        <ele>304.4</ele>
        <time>2024-04-07T07:16:44Z</time>
      </trkpt>
      <trkpt lat="48.95831" lon="-0.40879">
        <ele>304.4</ele>
        <time>2024-04-07T07:16:45Z</time>
      </trkpt>
      <trkpt lat="48.95825" lon="-0.40883">
        <ele>304.4</ele>
        <time>2024-04-07T07:16:46Z</time>
      </trkpt>
      <trkpt lat="48.9582" lon="-0.40887">
        <ele>304.4</ele>
        <time>2024-04-07T07:16:47Z</time>
      </trkpt>
      <trkpt lat="48.95814" lon="-0.40891">
        <ele>304.4</ele>
        <time>2024-04-07T07:16:48Z</time>
      </trkpt>
      <trkpt lat="48.95808" lon="-0.40895">
        <ele>304.4</ele>
        <time>2024-04-07T07:16:49Z</time>
      </trkpt>
      <trkpt lat="48.95803" lon="-0.40899">
        <ele>304.4</ele>
        <time>2024-04-07T07:16:50Z</time>
      </trkpt>
      <trkpt lat="48.95797" lon="-0.40902">
        <ele>304.4</ele>
        <time>2024-04-07T07:16:51Z</time>
      </trkpt>
      <trkpt lat="48.95791" lon="-0.40905">
        <ele>304.4</ele>
        <time>2024-04-07T07:16:52Z</time>
      </trkpt>
      <trkpt lat="48.95785" lon="-0.40908">
        <ele>304.4</ele>
        <time>2024-04-07T07:16:53Z</time>
      </trkpt>
      <trkpt lat="48.95779" lon="-0.40911">
        <ele>304.6</ele>
        <time>2024-04-07T07:16:54Z</time>
      </trkpt>
      <trkpt lat="48.95773" lon="-0.40912">
        <ele>304.6</ele>
        <time>2024-04-07T07:16:55Z</time>
      </trkpt>
      <trkpt lat="48.95767" lon="-0.40914">
        <ele>304.6</ele>
        <time>2024-04-07T07:16:56Z</time>
      </trkpt>
      <trkpt lat="48.9576" lon="-0.40915">
        <ele>304.6</ele>
        <time>2024-04-07T07:16:57Z</time>
      </trkpt>
      <trkpt lat="48.95754" lon="-0.40917">
        <ele>304.6</ele>
        <time>2024-04-07T07:16:58Z</time>
      </trkpt>
      <trkpt lat="48.95748" lon="-0.40918">
        <ele>304.4</ele>
        <time>2024-04-07T07:16:59Z</time>
      </trkpt>
      <trkpt lat="48.95742" lon="-0.4092">
        <ele>304.4</ele>
        <time>2024-04-07T07:17:00Z</time>
      </trkpt>
      <trkpt lat="48.95736" lon="-0.40921">
        <ele>304.2</ele>
        <time>2024-04-07T07:17:01Z</time>
      </trkpt>
      <trkpt lat="48.9573" lon="-0.40923">
        <ele>304.2</ele>
        <time>2024-04-07T07:17:02Z</time>
      </trkpt>
      <trkpt lat="48.95724" lon="-0.40925">
        <ele>304</ele>
        <time>2024-04-07T07:17:03Z</time>
      </trkpt>
      <trkpt lat="48.95718" lon="-0.40926">
        <ele>304</ele>
        <time>2024-04-07T07:17:04Z</time>
      </trkpt>
      <trkpt lat="48.95712" lon="-0.40928">
        <ele>304</ele>
        <time>2024-04-07T07:17:05Z</time>
      </trkpt>
      <trkpt lat="48.95706" lon="-0.4093">
        <ele>304</ele>
        <time>2024-04-07T07:17:06Z</time>
      </trkpt>
      <trkpt lat="48.957" lon="-0.40932">
        <ele>303.8</ele>
        <time>2024-04-07T07:17:07Z</time>
      </trkpt>
      <trkpt lat="48.95695" lon="-0.40935">
        <ele>303.8</ele>
        <time>2024-04-07T07:17:08Z</time>
      </trkpt>
      <trkpt lat="48.95689" lon="-0.40937">
        <ele>303.6</ele>
        <time>2024-04-07T07:17:09Z</time>
      </trkpt>
      <trkpt lat="48.95683" lon="-0.4094">
        <ele>303.6</ele>
        <time>2024-04-07T07:17:10Z</time>
      </trkpt>
      <trkpt lat="48.95677" lon="-0.40942">
        <ele>303.8</ele>
        <time>2024-04-07T07:17:11Z</time>
      </trkpt>
      <trkpt lat="48.95672" lon="-0.40944">
        <ele>304.2</ele>
        <time>2024-04-07T07:17:12Z</time>
      </trkpt>
      <trkpt lat="48.95666" lon="-0.40947">
        <ele>304.4</ele>
        <time>2024-04-07T07:17:13Z</time>
      </trkpt>
      <trkpt lat="48.9566" lon="-0.40949">
        <ele>304.6</ele>
        <time>2024-04-07T07:17:14Z</time>
      </trkpt>
      <trkpt lat="48.95655" lon="-0.40952">
        <ele>304.6</ele>
        <time>2024-04-07T07:17:15Z</time>
      </trkpt>
      <trkpt lat="48.95649" lon="-0.40954">
        <ele>304.8</ele>
        <time>2024-04-07T07:17:16Z</time>
      </trkpt>
      <trkpt lat="48.95644" lon="-0.40957">
        <ele>304.8</ele>
        <time>2024-04-07T07:17:17Z</time>
      </trkpt>
      <trkpt lat="48.95638" lon="-0.40959">
        <ele>305</ele>
        <time>2024-04-07T07:17:18Z</time>
      </trkpt>
      <trkpt lat="48.95632" lon="-0.40962">
        <ele>305.2</ele>
        <time>2024-04-07T07:17:19Z</time>
      </trkpt>
      <trkpt lat="48.95627" lon="-0.40965">
        <ele>305.4</ele>
        <time>2024-04-07T07:17:20Z</time>
      </trkpt>
      <trkpt lat="48.95621" lon="-0.40968">
        <ele>305.4</ele>
        <time>2024-04-07T07:17:21Z</time>
      </trkpt>
      <trkpt lat="48.95616" lon="-0.4097">
        <ele>305.6</ele>
        <time>2024-04-07T07:17:22Z</time>
      </trkpt>
      <trkpt lat="48.9561" lon="-0.40973">
        <ele>306</ele>
        <time>2024-04-07T07:17:23Z</time>
      </trkpt>
      <trkpt lat="48.95605" lon="-0.40976">
        <ele>306.4</ele>
        <time>2024-04-07T07:17:24Z</time>
      </trkpt>
      <trkpt lat="48.95599" lon="-0.40979">
        <ele>306.8</ele>
        <time>2024-04-07T07:17:25Z</time>
      </trkpt>
      <trkpt lat="48.95594" lon="-0.40982">
        <ele>307.2</ele>
        <time>2024-04-07T07:17:26Z</time>
      </trkpt>
      <trkpt lat="48.95588" lon="-0.40985">
        <ele>307.6</ele>
        <time>2024-04-07T07:17:27Z</time>
      </trkpt>
      <trkpt lat="48.95582" lon="-0.40988">
        <ele>307.6</ele>
        <time>2024-04-07T07:17:28Z</time>
      </trkpt>
      <trkpt lat="48.95577" lon="-0.40991">
        <ele>307.6</ele>
        <time>2024-04-07T07:17:29Z</time>
      </trkpt>
      <trkpt lat="48.95571" lon="-0.40993">
        <ele>307.6</ele>
        <time>2024-04-07T07:17:30Z</time>
      </trkpt>
      <trkpt lat="48.95566" lon="-0.40996">
        <ele>307.2</ele>
        <time>2024-04-07T07:17:31Z</time>
      </trkpt>
      <trkpt lat="48.9556" lon="-0.40999">
        <ele>307</ele>
        <time>2024-04-07T07:17:32Z</time>
      </trkpt>
      <trkpt lat="48.95554" lon="-0.41001">
        <ele>306.6</ele>
        <time>2024-04-07T07:17:33Z</time>
      </trkpt>
      <trkpt lat="48.95548" lon="-0.41003">
        <ele>306.2</ele>
        <time>2024-04-07T07:17:34Z</time>
      </trkpt>
      <trkpt lat="48.95542" lon="-0.41005">
        <ele>306</ele>
        <time>2024-04-07T07:17:35Z</time>
      </trkpt>
      <trkpt lat="48.95536" lon="-0.41007">
        <ele>305.8</ele>
        <time>2024-04-07T07:17:36Z</time>
      </trkpt>
      <trkpt lat="48.9553" lon="-0.41008">
        <ele>305.8</ele>
        <time>2024-04-07T07:17:37Z</time>
      </trkpt>
      <trkpt lat="48.95524" lon="-0.41009">
        <ele>306</ele>
        <time>2024-04-07T07:17:38Z</time>
      </trkpt>
      <trkpt lat="48.95518" lon="-0.41009">
        <ele>306.2</ele>
        <time>2024-04-07T07:17:39Z</time>
      </trkpt>
      <trkpt lat="48.95512" lon="-0.41009">
        <ele>306.4</ele>
        <time>2024-04-07T07:17:40Z</time>
      </trkpt>
      <trkpt lat="48.95506" lon="-0.41008">
        <ele>306.6</ele>
        <time>2024-04-07T07:17:41Z</time>
      </trkpt>
      <trkpt lat="48.955" lon="-0.41008">
        <ele>306.6</ele>
        <time>2024-04-07T07:17:42Z</time>
      </trkpt>
      <trkpt lat="48.95494" lon="-0.41006">
        <ele>306.8</ele>
        <time>2024-04-07T07:17:43Z</time>
      </trkpt>
      <trkpt lat="48.95488" lon="-0.41005">
        <ele>307</ele>
        <time>2024-04-07T07:17:44Z</time>
      </trkpt>
      <trkpt lat="48.95482" lon="-0.41004">
        <ele>307.2</ele>
        <time>2024-04-07T07:17:45Z</time>
      </trkpt>
      <trkpt lat="48.95475" lon="-0.41002">
        <ele>307.4</ele>
        <time>2024-04-07T07:17:46Z</time>
      </trkpt>
      <trkpt lat="48.95469" lon="-0.41">
        <ele>307.6</ele>
        <time>2024-04-07T07:17:47Z</time>
      </trkpt>
      <trkpt lat="48.95463" lon="-0.40997">
        <ele>307.8</ele>
        <time>2024-04-07T07:17:48Z</time>
      </trkpt>
      <trkpt lat="48.95456" lon="-0.40995">
        <ele>308</ele>
        <time>2024-04-07T07:17:49Z</time>
      </trkpt>
      <trkpt lat="48.9545" lon="-0.40993">
        <ele>308.2</ele>
        <time>2024-04-07T07:17:50Z</time>
      </trkpt>
      <trkpt lat="48.95444" lon="-0.4099">
        <ele>308.4</ele>
        <time>2024-04-07T07:17:51Z</time>
      </trkpt>
      <trkpt lat="48.95438" lon="-0.40988">
        <ele>308.6</ele>
        <time>2024-04-07T07:17:52Z</time>
      </trkpt>
      <trkpt lat="48.95432" lon="-0.40986">
        <ele>308.8</ele>
        <time>2024-04-07T07:17:53Z</time>
      </trkpt>
      <trkpt lat="48.95426" lon="-0.40983">
        <ele>309</ele>
        <time>2024-04-07T07:17:54Z</time>
      </trkpt>
      <trkpt lat="48.95419" lon="-0.40981">
        <ele>309</ele>
        <time>2024-04-07T07:17:55Z</time>
      </trkpt>
      <trkpt lat="48.95413" lon="-0.40979">
        <ele>309</ele>
        <time>2024-04-07T07:17:56Z</time>
      </trkpt>
      <trkpt lat="48.95407" lon="-0.40977">
        <ele>309</ele>
        <time>2024-04-07T07:17:57Z</time>
      </trkpt>
      <trkpt lat="48.954" lon="-0.40975">
        <ele>308.8</ele>
        <time>2024-04-07T07:17:58Z</time>
      </trkpt>
      <trkpt lat="48.95394" lon="-0.40972">
        <ele>308.8</ele>
        <time>2024-04-07T07:17:59Z</time>
      </trkpt>
      <trkpt lat="48.95387" lon="-0.4097">
        <ele>308.8</ele>
        <time>2024-04-07T07:18:00Z</time>
      </trkpt>
      <trkpt lat="48.95381" lon="-0.40968">
        <ele>308.6</ele>
        <time>2024-04-07T07:18:01Z</time>
      </trkpt>
      <trkpt lat="48.95374" lon="-0.40966">
        <ele>308.6</ele>
        <time>2024-04-07T07:18:02Z</time>
      </trkpt>
      <trkpt lat="48.95368" lon="-0.40964">
        <ele>308.2</ele>
        <time>2024-04-07T07:18:03Z</time>
      </trkpt>
      <trkpt lat="48.95362" lon="-0.40963">
        <ele>308</ele>
        <time>2024-04-07T07:18:04Z</time>
      </trkpt>
      <trkpt lat="48.95356" lon="-0.40961">
        <ele>308</ele>
        <time>2024-04-07T07:18:05Z</time>
      </trkpt>
      <trkpt lat="48.95349" lon="-0.4096">
        <ele>307.8</ele>
        <time>2024-04-07T07:18:06Z</time>
      </trkpt>
      <trkpt lat="48.95343" lon="-0.40958">
        <ele>307.6</ele>
        <time>2024-04-07T07:18:07Z</time>
      </trkpt>
      <trkpt lat="48.95337" lon="-0.40957">
        <ele>307.6</ele>
        <time>2024-04-07T07:18:08Z</time>
      </trkpt>
      <trkpt lat="48.95331" lon="-0.40956">
        <ele>307.6</ele>
        <time>2024-04-07T07:18:09Z</time>
      </trkpt>
      <trkpt lat="48.95325" lon="-0.40955">
        <ele>307.6</ele>
        <time>2024-04-07T07:18:10Z</time>
      </trkpt>
      <trkpt lat="48.95319" lon="-0.40954">
        <ele>307.8</ele>
        <time>2024-04-07T07:18:11Z</time>
      </trkpt>
      <trkpt lat="48.95312" lon="-0.40954">
        <ele>307.6</ele>
        <time>2024-04-07T07:18:12Z</time>
      </trkpt>
      <trkpt lat="48.95306" lon="-0.40953">
        <ele>307.8</ele>
        <time>2024-04-07T07:18:13Z</time>
      </trkpt>
      <trkpt lat="48.953" lon="-0.40952">
        <ele>307.8</ele>
        <time>2024-04-07T07:18:14Z</time>
      </trkpt>
      <trkpt lat="48.95294" lon="-0.40952">
        <ele>308</ele>
        <time>2024-04-07T07:18:15Z</time>
      </trkpt>
      <trkpt lat="48.95288" lon="-0.40951">
        <ele>308</ele>
        <time>2024-04-07T07:18:16Z</time>
      </trkpt>
      <trkpt lat="48.95281" lon="-0.4095">
        <ele>308.4</ele>
        <time>2024-04-07T07:18:17Z</time>
      </trkpt>
      <trkpt lat="48.95275" lon="-0.40949">
        <ele>308.8</ele>
        <time>2024-04-07T07:18:18Z</time>
      </trkpt>
      <trkpt lat="48.95269" lon="-0.40949">
        <ele>309</ele>
        <time>2024-04-07T07:18:19Z</time>
      </trkpt>
      <trkpt lat="48.95263" lon="-0.40948">
        <ele>309.2</ele>
        <time>2024-04-07T07:18:20Z</time>
      </trkpt>
      <trkpt lat="48.95256" lon="-0.40947">
        <ele>309.2</ele>
        <time>2024-04-07T07:18:21Z</time>
      </trkpt>
      <trkpt lat="48.9525" lon="-0.40946">
        <ele>309.2</ele>
        <time>2024-04-07T07:18:22Z</time>
      </trkpt>
      <trkpt lat="48.95244" lon="-0.40946">
        <ele>309.2</ele>
        <time>2024-04-07T07:18:23Z</time>
      </trkpt>
      <trkpt lat="48.95238" lon="-0.40945">
        <ele>309.2</ele>
        <time>2024-04-07T07:18:24Z</time>
      </trkpt>
      <trkpt lat="48.95232" lon="-0.40945">
        <ele>309.2</ele>
        <time>2024-04-07T07:18:25Z</time>
      </trkpt>
      <trkpt lat="48.95225" lon="-0.40945">
        <ele>309</ele>
        <time>2024-04-07T07:18:26Z</time>
      </trkpt>
      <trkpt lat="48.95219" lon="-0.40946">
        <ele>309</ele>
        <time>2024-04-07T07:18:27Z</time>
      </trkpt>
      <trkpt lat="48.95212" lon="-0.40947">
        <ele>309</ele>
        <time>2024-04-07T07:18:28Z</time>
      </trkpt>
      <trkpt lat="48.95206" lon="-0.40949">
        <ele>309</ele>
        <time>2024-04-07T07:18:29Z</time>
      </trkpt>
      <trkpt lat="48.952" lon="-0.40952">
        <ele>308.8</ele>
        <time>2024-04-07T07:18:30Z</time>
      </trkpt>
      <trkpt lat="48.95194" lon="-0.40955">
        <ele>308.6</ele>
        <time>2024-04-07T07:18:31Z</time>
      </trkpt>
      <trkpt lat="48.95188" lon="-0.40958">
        <ele>308.4</ele>
        <time>2024-04-07T07:18:32Z</time>
      </trkpt>
      <trkpt lat="48.95182" lon="-0.40961">
        <ele>308.2</ele>
        <time>2024-04-07T07:18:33Z</time>
      </trkpt>
      <trkpt lat="48.95177" lon="-0.40965">
        <ele>308</ele>
        <time>2024-04-07T07:18:34Z</time>
      </trkpt>
      <trkpt lat="48.95171" lon="-0.40968">
        <ele>307.8</ele>
        <time>2024-04-07T07:18:35Z</time>
      </trkpt>
      <trkpt lat="48.95166" lon="-0.40972">
        <ele>307.8</ele>
        <time>2024-04-07T07:18:36Z</time>
      </trkpt>
      <trkpt lat="48.9516" lon="-0.40975">
        <ele>307.6</ele>
        <time>2024-04-07T07:18:37Z</time>
      </trkpt>
      <trkpt lat="48.95155" lon="-0.40979">
        <ele>307.6</ele>
        <time>2024-04-07T07:18:38Z</time>
      </trkpt>
      <trkpt lat="48.9515" lon="-0.40983">
        <ele>307.6</ele>
        <time>2024-04-07T07:18:39Z</time>
      </trkpt>
      <trkpt lat="48.95144" lon="-0.40986">
        <ele>307.6</ele>
        <time>2024-04-07T07:18:40Z</time>
      </trkpt>
      <trkpt lat="48.95139" lon="-0.4099">
        <ele>307.6</ele>
        <time>2024-04-07T07:18:41Z</time>
      </trkpt>
      <trkpt lat="48.95134" lon="-0.40994">
        <ele>307.6</ele>
        <time>2024-04-07T07:18:42Z</time>
      </trkpt>
      <trkpt lat="48.95129" lon="-0.40998">
        <ele>307.4</ele>
        <time>2024-04-07T07:18:43Z</time>
      </trkpt>
      <trkpt lat="48.95124" lon="-0.41001">
        <ele>307.4</ele>
        <time>2024-04-07T07:18:44Z</time>
      </trkpt>
      <trkpt lat="48.95119" lon="-0.41005">
        <ele>307.6</ele>
        <time>2024-04-07T07:18:45Z</time>
      </trkpt>
      <trkpt lat="48.95114" lon="-0.41008">
        <ele>307.6</ele>
        <time>2024-04-07T07:18:46Z</time>
      </trkpt>
      <trkpt lat="48.95109" lon="-0.41011">
        <ele>308</ele>
        <time>2024-04-07T07:18:47Z</time>
      </trkpt>
      <trkpt lat="48.95104" lon="-0.41015">
        <ele>308.4</ele>
        <time>2024-04-07T07:18:48Z</time>
      </trkpt>
      <trkpt lat="48.95099" lon="-0.41018">
        <ele>309</ele>
        <time>2024-04-07T07:18:49Z</time>
      </trkpt>
      <trkpt lat="48.95094" lon="-0.41022">
        <ele>309.6</ele>
        <time>2024-04-07T07:18:50Z</time>
      </trkpt>
      <trkpt lat="48.95089" lon="-0.41026">
        <ele>310</ele>
        <time>2024-04-07T07:18:51Z</time>
      </trkpt>
      <trkpt lat="48.95084" lon="-0.4103">
        <ele>310.6</ele>
        <time>2024-04-07T07:18:52Z</time>
      </trkpt>
      <trkpt lat="48.95079" lon="-0.41033">
        <ele>310.8</ele>
        <time>2024-04-07T07:18:53Z</time>
      </trkpt>
      <trkpt lat="48.95074" lon="-0.41037">
        <ele>311</ele>
        <time>2024-04-07T07:18:54Z</time>
      </trkpt>
      <trkpt lat="48.95068" lon="-0.41041">
        <ele>311</ele>
        <time>2024-04-07T07:18:55Z</time>
      </trkpt>
      <trkpt lat="48.95063" lon="-0.41045">
        <ele>311</ele>
        <time>2024-04-07T07:18:56Z</time>
      </trkpt>
      <trkpt lat="48.95058" lon="-0.41049">
        <ele>310.8</ele>
        <time>2024-04-07T07:18:57Z</time>
      </trkpt>
      <trkpt lat="48.95053" lon="-0.41052">
        <ele>310.8</ele>
        <time>2024-04-07T07:18:58Z</time>
      </trkpt>
      <trkpt lat="48.95048" lon="-0.41056">
        <ele>310.6</ele>
        <time>2024-04-07T07:18:59Z</time>
      </trkpt>
      <trkpt lat="48.95043" lon="-0.41059">
        <ele>310.4</ele>
        <time>2024-04-07T07:19:00Z</time>
      </trkpt>
      <trkpt lat="48.95038" lon="-0.41063">
        <ele>310</ele>
        <time>2024-04-07T07:19:01Z</time>
      </trkpt>
      <trkpt lat="48.95033" lon="-0.41066">
        <ele>309.8</ele>
        <time>2024-04-07T07:19:02Z</time>
      </trkpt>
      <trkpt lat="48.95028" lon="-0.41069">
        <ele>309.6</ele>
        <time>2024-04-07T07:19:03Z</time>
      </trkpt>
      <trkpt lat="48.95023" lon="-0.41072">
        <ele>309.4</ele>
        <time>2024-04-07T07:19:04Z</time>
      </trkpt>
      <trkpt lat="48.95018" lon="-0.41076">
        <ele>309.4</ele>
        <time>2024-04-07T07:19:05Z</time>
      </trkpt>
      <trkpt lat="48.95013" lon="-0.41079">
        <ele>309.6</ele>
        <time>2024-04-07T07:19:06Z</time>
      </trkpt>
      <trkpt lat="48.95008" lon="-0.41083">
        <ele>309.8</ele>
        <time>2024-04-07T07:19:07Z</time>
      </trkpt>
      <trkpt lat="48.95003" lon="-0.41086">
        <ele>310.4</ele>
        <time>2024-04-07T07:19:08Z</time>
      </trkpt>
      <trkpt lat="48.94997" lon="-0.41089">
        <ele>311</ele>
        <time>2024-04-07T07:19:09Z</time>
      </trkpt>
      <trkpt lat="48.94992" lon="-0.41091">
        <ele>311.8</ele>
        <time>2024-04-07T07:19:10Z</time>
      </trkpt>
      <trkpt lat="48.94986" lon="-0.41093">
        <ele>312</ele>
        <time>2024-04-07T07:19:11Z</time>
      </trkpt>
      <trkpt lat="48.9498" lon="-0.41094">
        <ele>312.2</ele>
        <time>2024-04-07T07:19:12Z</time>
      </trkpt>
      <trkpt lat="48.94975" lon="-0.41095">
        <ele>312.4</ele>
        <time>2024-04-07T07:19:13Z</time>
      </trkpt>
      <trkpt lat="48.94969" lon="-0.41096">
        <ele>312.4</ele>
        <time>2024-04-07T07:19:14Z</time>
      </trkpt>
      <trkpt lat="48.94963" lon="-0.41097">
        <ele>312.6</ele>
        <time>2024-04-07T07:19:15Z</time>
      </trkpt>
      <trkpt lat="48.94958" lon="-0.41098">
        <ele>313</ele>
        <time>2024-04-07T07:19:16Z</time>
      </trkpt>
      <trkpt lat="48.94952" lon="-0.41098">
        <ele>313.4</ele>
        <time>2024-04-07T07:19:17Z</time>
      </trkpt>
      <trkpt lat="48.94947" lon="-0.41099">
        <ele>313.6</ele>
        <time>2024-04-07T07:19:18Z</time>
      </trkpt>
      <trkpt lat="48.94941" lon="-0.411">
        <ele>314</ele>
        <time>2024-04-07T07:19:19Z</time>
      </trkpt>
      <trkpt lat="48.94935" lon="-0.41101">
        <ele>314.4</ele>
        <time>2024-04-07T07:19:20Z</time>
      </trkpt>
      <trkpt lat="48.9493" lon="-0.41102">
        <ele>314.6</ele>
        <time>2024-04-07T07:19:21Z</time>
      </trkpt>
      <trkpt lat="48.94925" lon="-0.41103">
        <ele>314.6</ele>
        <time>2024-04-07T07:19:22Z</time>
      </trkpt>
      <trkpt lat="48.9492" lon="-0.41104">
        <ele>314.4</ele>
        <time>2024-04-07T07:19:23Z</time>
      </trkpt>
      <trkpt lat="48.94915" lon="-0.41105">
        <ele>314.4</ele>
        <time>2024-04-07T07:19:24Z</time>
      </trkpt>
      <trkpt lat="48.9491" lon="-0.41106">
        <ele>314.6</ele>
        <time>2024-04-07T07:19:25Z</time>
      </trkpt>
      <trkpt lat="48.94905" lon="-0.41107">
        <ele>314.6</ele>
        <time>2024-04-07T07:19:26Z</time>
      </trkpt>
      <trkpt lat="48.94901" lon="-0.41108">
        <ele>314.6</ele>
        <time>2024-04-07T07:19:27Z</time>
      </trkpt>
      <trkpt lat="48.94896" lon="-0.41108">
        <ele>314.6</ele>
        <time>2024-04-07T07:19:28Z</time>
      </trkpt>
      <trkpt lat="48.94892" lon="-0.41109">
        <ele>314.8</ele>
        <time>2024-04-07T07:19:29Z</time>
      </trkpt>
      <trkpt lat="48.94887" lon="-0.4111">
        <ele>314.8</ele>
        <time>2024-04-07T07:19:30Z</time>
      </trkpt>
      <trkpt lat="48.94881" lon="-0.4111">
        <ele>315</ele>
        <time>2024-04-07T07:19:31Z</time>
      </trkpt>
      <trkpt lat="48.94876" lon="-0.4111">
        <ele>315</ele>
        <time>2024-04-07T07:19:32Z</time>
      </trkpt>
      <trkpt lat="48.94872" lon="-0.4111">
        <ele>315.2</ele>
        <time>2024-04-07T07:19:33Z</time>
      </trkpt>
      <trkpt lat="48.94867" lon="-0.4111">
        <ele>315.2</ele>
        <time>2024-04-07T07:19:34Z</time>
      </trkpt>
      <trkpt lat="48.94862" lon="-0.41111">
        <ele>315.2</ele>
        <time>2024-04-07T07:19:35Z</time>
      </trkpt>
      <trkpt lat="48.94856" lon="-0.41111">
        <ele>315.2</ele>
        <time>2024-04-07T07:19:36Z</time>
      </trkpt>
      <trkpt lat="48.9485" lon="-0.41111">
        <ele>315.4</ele>
        <time>2024-04-07T07:19:37Z</time>
      </trkpt>
      <trkpt lat="48.94844" lon="-0.41112">
        <ele>315.6</ele>
        <time>2024-04-07T07:19:38Z</time>
      </trkpt>
      <trkpt lat="48.94838" lon="-0.41113">
        <ele>315.8</ele>
        <time>2024-04-07T07:19:39Z</time>
      </trkpt>
      <trkpt lat="48.94831" lon="-0.41113">
        <ele>315.8</ele>
        <time>2024-04-07T07:19:40Z</time>
      </trkpt>
      <trkpt lat="48.94824" lon="-0.41114">
        <ele>315.8</ele>
        <time>2024-04-07T07:19:41Z</time>
      </trkpt>
      <trkpt lat="48.94818" lon="-0.41115">
        <ele>315.8</ele>
        <time>2024-04-07T07:19:42Z</time>
      </trkpt>
      <trkpt lat="48.94812" lon="-0.41116">
        <ele>315.8</ele>
        <time>2024-04-07T07:19:43Z</time>
      </trkpt>
      <trkpt lat="48.94806" lon="-0.41117">
        <ele>315.8</ele>
        <time>2024-04-07T07:19:44Z</time>
      </trkpt>
      <trkpt lat="48.948" lon="-0.41118">
        <ele>315.8</ele>
        <time>2024-04-07T07:19:45Z</time>
      </trkpt>
      <trkpt lat="48.94794" lon="-0.41119">
        <ele>315.8</ele>
        <time>2024-04-07T07:19:46Z</time>
      </trkpt>
      <trkpt lat="48.94788" lon="-0.4112">
        <ele>315.8</ele>
        <time>2024-04-07T07:19:47Z</time>
      </trkpt>
      <trkpt lat="48.94782" lon="-0.4112">
        <ele>315.6</ele>
        <time>2024-04-07T07:19:48Z</time>
      </trkpt>
      <trkpt lat="48.94777" lon="-0.41121">
        <ele>315.4</ele>
        <time>2024-04-07T07:19:49Z</time>
      </trkpt>
      <trkpt lat="48.94771" lon="-0.41122">
        <ele>315.2</ele>
        <time>2024-04-07T07:19:50Z</time>
      </trkpt>
      <trkpt lat="48.94765" lon="-0.41123">
        <ele>315.2</ele>
        <time>2024-04-07T07:19:51Z</time>
      </trkpt>
      <trkpt lat="48.9476" lon="-0.41123">
        <ele>315.2</ele>
        <time>2024-04-07T07:19:52Z</time>
      </trkpt>
      <trkpt lat="48.94754" lon="-0.41124">
        <ele>315.4</ele>
        <time>2024-04-07T07:19:53Z</time>
      </trkpt>
      <trkpt lat="48.94749" lon="-0.41125">
        <ele>315.6</ele>
        <time>2024-04-07T07:19:54Z</time>
      </trkpt>
      <trkpt lat="48.94743" lon="-0.41126">
        <ele>316</ele>
        <time>2024-04-07T07:19:55Z</time>
      </trkpt>
      <trkpt lat="48.94738" lon="-0.41127">
        <ele>316.2</ele>
        <time>2024-04-07T07:19:56Z</time>
      </trkpt>
      <trkpt lat="48.94732" lon="-0.41128">
        <ele>316.4</ele>
        <time>2024-04-07T07:19:57Z</time>
      </trkpt>
      <trkpt lat="48.94726" lon="-0.4113">
        <ele>316.4</ele>
        <time>2024-04-07T07:19:58Z</time>
      </trkpt>
      <trkpt lat="48.9472" lon="-0.41131">
        <ele>316.4</ele>
        <time>2024-04-07T07:19:59Z</time>
      </trkpt>
      <trkpt lat="48.94715" lon="-0.41132">
        <ele>316.4</ele>
        <time>2024-04-07T07:20:00Z</time>
      </trkpt>
      <trkpt lat="48.94709" lon="-0.41133">
        <ele>316.4</ele>
        <time>2024-04-07T07:20:01Z</time>
      </trkpt>
      <trkpt lat="48.94703" lon="-0.41134">
        <ele>316.4</ele>
        <time>2024-04-07T07:20:02Z</time>
      </trkpt>
      <trkpt lat="48.94697" lon="-0.41135">
        <ele>316.6</ele>
        <time>2024-04-07T07:20:03Z</time>
      </trkpt>
      <trkpt lat="48.94692" lon="-0.41136">
        <ele>316.6</ele>
        <time>2024-04-07T07:20:04Z</time>
      </trkpt>
      <trkpt lat="48.94686" lon="-0.41137">
        <ele>316.6</ele>
        <time>2024-04-07T07:20:05Z</time>
      </trkpt>
      <trkpt lat="48.9468" lon="-0.41138">
        <ele>316.6</ele>
        <time>2024-04-07T07:20:06Z</time>
      </trkpt>
      <trkpt lat="48.94675" lon="-0.41139">
        <ele>316.6</ele>
        <time>2024-04-07T07:20:07Z</time>
      </trkpt>
      <trkpt lat="48.94669" lon="-0.41139">
        <ele>316.6</ele>
        <time>2024-04-07T07:20:08Z</time>
      </trkpt>
      <trkpt lat="48.94663" lon="-0.4114">
        <ele>316.8</ele>
        <time>2024-04-07T07:20:09Z</time>
      </trkpt>
      <trkpt lat="48.94658" lon="-0.41141">
        <ele>316.8</ele>
        <time>2024-04-07T07:20:10Z</time>
      </trkpt>
      <trkpt lat="48.94652" lon="-0.41142">
        <ele>316.8</ele>
        <time>2024-04-07T07:20:11Z</time>
      </trkpt>
      <trkpt lat="48.94646" lon="-0.41142">
        <ele>317</ele>
        <time>2024-04-07T07:20:12Z</time>
      </trkpt>
      <trkpt lat="48.94641" lon="-0.41143">
        <ele>317.2</ele>
        <time>2024-04-07T07:20:13Z</time>
      </trkpt>
      <trkpt lat="48.94635" lon="-0.41144">
        <ele>317.2</ele>
        <time>2024-04-07T07:20:14Z</time>
      </trkpt>
      <trkpt lat="48.9463" lon="-0.41145">
        <ele>317.2</ele>
        <time>2024-04-07T07:20:15Z</time>
      </trkpt>
      <trkpt lat="48.94624" lon="-0.41145">
        <ele>317.4</ele>
        <time>2024-04-07T07:20:16Z</time>
      </trkpt>
      <trkpt lat="48.94619" lon="-0.41146">
        <ele>317.4</ele>
        <time>2024-04-07T07:20:17Z</time>
      </trkpt>
      <trkpt lat="48.94613" lon="-0.41146">
        <ele>317.6</ele>
        <time>2024-04-07T07:20:18Z</time>
      </trkpt>
      <trkpt lat="48.94608" lon="-0.41147">
        <ele>317.8</ele>
        <time>2024-04-07T07:20:19Z</time>
      </trkpt>
      <trkpt lat="48.94603" lon="-0.41148">
        <ele>318</ele>
        <time>2024-04-07T07:20:20Z</time>
      </trkpt>
      <trkpt lat="48.94597" lon="-0.41148">
        <ele>318.2</ele>
        <time>2024-04-07T07:20:21Z</time>
      </trkpt>
      <trkpt lat="48.94592" lon="-0.41149">
        <ele>318.4</ele>
        <time>2024-04-07T07:20:22Z</time>
      </trkpt>
      <trkpt lat="48.94586" lon="-0.4115">
        <ele>318.8</ele>
        <time>2024-04-07T07:20:23Z</time>
      </trkpt>
      <trkpt lat="48.94581" lon="-0.41151">
        <ele>319.2</ele>
        <time>2024-04-07T07:20:24Z</time>
      </trkpt>
      <trkpt lat="48.94575" lon="-0.41152">
        <ele>319.6</ele>
        <time>2024-04-07T07:20:25Z</time>
      </trkpt>
      <trkpt lat="48.94564" lon="-0.41153">
        <ele>319.8</ele>
        <time>2024-04-07T07:20:26Z</time>
      </trkpt>
      <trkpt lat="48.94562" lon="-0.41153">
        <ele>320.2</ele>
        <time>2024-04-07T07:20:27Z</time>
      </trkpt>
      <trkpt lat="48.94559" lon="-0.41154">
        <ele>320.2</ele>
        <time>2024-04-07T07:20:28Z</time>
      </trkpt>
      <trkpt lat="48.94554" lon="-0.41154">
        <ele>320.4</ele>
        <time>2024-04-07T07:20:29Z</time>
      </trkpt>
      <trkpt lat="48.94548" lon="-0.41155">
        <ele>320.4</ele>
        <time>2024-04-07T07:20:30Z</time>
      </trkpt>
      <trkpt lat="48.94542" lon="-0.41156">
        <ele>320.4</ele>
        <time>2024-04-07T07:20:31Z</time>
      </trkpt>
      <trkpt lat="48.94537" lon="-0.41156">
        <ele>320.6</ele>
        <time>2024-04-07T07:20:32Z</time>
      </trkpt>
      <trkpt lat="48.94531" lon="-0.41157">
        <ele>320.6</ele>
        <time>2024-04-07T07:20:33Z</time>
      </trkpt>
      <trkpt lat="48.94526" lon="-0.41158">
        <ele>320.6</ele>
        <time>2024-04-07T07:20:34Z</time>
      </trkpt>
      <trkpt lat="48.9452" lon="-0.41159">
        <ele>320.8</ele>
        <time>2024-04-07T07:20:35Z</time>
      </trkpt>
      <trkpt lat="48.94514" lon="-0.41159">
        <ele>321.2</ele>
        <time>2024-04-07T07:20:36Z</time>
      </trkpt>
      <trkpt lat="48.94509" lon="-0.4116">
        <ele>321.4</ele>
        <time>2024-04-07T07:20:37Z</time>
      </trkpt>
      <trkpt lat="48.94503" lon="-0.41161">
        <ele>321.8</ele>
        <time>2024-04-07T07:20:38Z</time>
      </trkpt>
      <trkpt lat="48.94497" lon="-0.41161">
        <ele>322</ele>
        <time>2024-04-07T07:20:39Z</time>
      </trkpt>
      <trkpt lat="48.94492" lon="-0.41162">
        <ele>322.2</ele>
        <time>2024-04-07T07:20:40Z</time>
      </trkpt>
      <trkpt lat="48.94486" lon="-0.41163">
        <ele>322.4</ele>
        <time>2024-04-07T07:20:41Z</time>
      </trkpt>
      <trkpt lat="48.94481" lon="-0.41164">
        <ele>322.6</ele>
        <time>2024-04-07T07:20:42Z</time>
      </trkpt>
      <trkpt lat="48.94475" lon="-0.41165">
        <ele>322.8</ele>
        <time>2024-04-07T07:20:43Z</time>
      </trkpt>
      <trkpt lat="48.9447" lon="-0.41166">
        <ele>323.2</ele>
        <time>2024-04-07T07:20:44Z</time>
      </trkpt>
      <trkpt lat="48.94464" lon="-0.41167">
        <ele>323.4</ele>
        <time>2024-04-07T07:20:45Z</time>
      </trkpt>
      <trkpt lat="48.94459" lon="-0.41167">
        <ele>323.4</ele>
        <time>2024-04-07T07:20:46Z</time>
      </trkpt>
      <trkpt lat="48.94453" lon="-0.41168">
        <ele>323.6</ele>
        <time>2024-04-07T07:20:47Z</time>
      </trkpt>
      <trkpt lat="48.94448" lon="-0.41169">
        <ele>323.6</ele>
        <time>2024-04-07T07:20:48Z</time>
      </trkpt>
      <trkpt lat="48.94442" lon="-0.41169">
        <ele>323.6</ele>
        <time>2024-04-07T07:20:49Z</time>
      </trkpt>
      <trkpt lat="48.94436" lon="-0.4117">
        <ele>323.6</ele>
        <time>2024-04-07T07:20:50Z</time>
      </trkpt>
      <trkpt lat="48.94431" lon="-0.41171">
        <ele>323.6</ele>
        <time>2024-04-07T07:20:51Z</time>
      </trkpt>
      <trkpt lat="48.94425" lon="-0.41171">
        <ele>323.6</ele>
        <time>2024-04-07T07:20:52Z</time>
      </trkpt>
      <trkpt lat="48.94419" lon="-0.41172">
        <ele>323.6</ele>
        <time>2024-04-07T07:20:53Z</time>
      </trkpt>
      <trkpt lat="48.94414" lon="-0.41173">
        <ele>323.6</ele>
        <time>2024-04-07T07:20:54Z</time>
      </trkpt>
      <trkpt lat="48.94408" lon="-0.41174">
        <ele>323.8</ele>
        <time>2024-04-07T07:20:55Z</time>
      </trkpt>
      <trkpt lat="48.94403" lon="-0.41175">
        <ele>323.8</ele>
        <time>2024-04-07T07:20:56Z</time>
      </trkpt>
      <trkpt lat="48.94398" lon="-0.41176">
        <ele>323.8</ele>
        <time>2024-04-07T07:20:57Z</time>
      </trkpt>
      <trkpt lat="48.94392" lon="-0.41177">
        <ele>323.8</ele>
        <time>2024-04-07T07:20:58Z</time>
      </trkpt>
      <trkpt lat="48.94387" lon="-0.41178">
        <ele>323.8</ele>
        <time>2024-04-07T07:20:59Z</time>
      </trkpt>
      <trkpt lat="48.94382" lon="-0.41179">
        <ele>323.8</ele>
        <time>2024-04-07T07:21:00Z</time>
      </trkpt>
      <trkpt lat="48.94376" lon="-0.4118">
        <ele>323.8</ele>
        <time>2024-04-07T07:21:01Z</time>
      </trkpt>
      <trkpt lat="48.94371" lon="-0.41181">
        <ele>324</ele>
        <time>2024-04-07T07:21:02Z</time>
      </trkpt>
      <trkpt lat="48.9436" lon="-0.41184">
        <ele>324.4</ele>
        <time>2024-04-07T07:21:03Z</time>
      </trkpt>
      <trkpt lat="48.94357" lon="-0.41185">
        <ele>324.6</ele>
        <time>2024-04-07T07:21:04Z</time>
      </trkpt>
      <trkpt lat="48.94355" lon="-0.41186">
        <ele>325</ele>
        <time>2024-04-07T07:21:05Z</time>
      </trkpt>
      <trkpt lat="48.94349" lon="-0.41187">
        <ele>325.2</ele>
        <time>2024-04-07T07:21:06Z</time>
      </trkpt>
      <trkpt lat="48.94344" lon="-0.41189">
        <ele>325.2</ele>
        <time>2024-04-07T07:21:07Z</time>
      </trkpt>
      <trkpt lat="48.94339" lon="-0.4119">
        <ele>325.2</ele>
        <time>2024-04-07T07:21:08Z</time>
      </trkpt>
      <trkpt lat="48.94334" lon="-0.41191">
        <ele>325.2</ele>
        <time>2024-04-07T07:21:09Z</time>
      </trkpt>
      <trkpt lat="48.94328" lon="-0.41193">
        <ele>325.6</ele>
        <time>2024-04-07T07:21:10Z</time>
      </trkpt>
      <trkpt lat="48.94323" lon="-0.41195">
        <ele>326</ele>
        <time>2024-04-07T07:21:11Z</time>
      </trkpt>
      <trkpt lat="48.94318" lon="-0.41196">
        <ele>326.2</ele>
        <time>2024-04-07T07:21:12Z</time>
      </trkpt>
      <trkpt lat="48.94313" lon="-0.41198">
        <ele>326.4</ele>
        <time>2024-04-07T07:21:13Z</time>
      </trkpt>
      <trkpt lat="48.94308" lon="-0.41199">
        <ele>326.2</ele>
        <time>2024-04-07T07:21:14Z</time>
      </trkpt>
      <trkpt lat="48.94303" lon="-0.41201">
        <ele>326</ele>
        <time>2024-04-07T07:21:15Z</time>
      </trkpt>
      <trkpt lat="48.94297" lon="-0.41202">
        <ele>325.8</ele>
        <time>2024-04-07T07:21:16Z</time>
      </trkpt>
      <trkpt lat="48.94292" lon="-0.41204">
        <ele>325.8</ele>
        <time>2024-04-07T07:21:17Z</time>
      </trkpt>
      <trkpt lat="48.94287" lon="-0.41206">
        <ele>325.8</ele>
        <time>2024-04-07T07:21:18Z</time>
      </trkpt>
      <trkpt lat="48.94282" lon="-0.41207">
        <ele>326</ele>
        <time>2024-04-07T07:21:19Z</time>
      </trkpt>
      <trkpt lat="48.94277" lon="-0.41209">
        <ele>326.4</ele>
        <time>2024-04-07T07:21:20Z</time>
      </trkpt>
      <trkpt lat="48.94272" lon="-0.41211">
        <ele>326.6</ele>
        <time>2024-04-07T07:21:21Z</time>
      </trkpt>
      <trkpt lat="48.94268" lon="-0.41212">
        <ele>326.8</ele>
        <time>2024-04-07T07:21:22Z</time>
      </trkpt>
      <trkpt lat="48.94263" lon="-0.41213">
        <ele>327</ele>
        <time>2024-04-07T07:21:23Z</time>
      </trkpt>
      <trkpt lat="48.94258" lon="-0.41215">
        <ele>327.4</ele>
        <time>2024-04-07T07:21:24Z</time>
      </trkpt>
      <trkpt lat="48.94253" lon="-0.41217">
        <ele>327.6</ele>
        <time>2024-04-07T07:21:25Z</time>
      </trkpt>
      <trkpt lat="48.94248" lon="-0.41218">
        <ele>327.8</ele>
        <time>2024-04-07T07:21:26Z</time>
      </trkpt>
      <trkpt lat="48.94238" lon="-0.41221">
        <ele>328.2</ele>
        <time>2024-04-07T07:21:27Z</time>
      </trkpt>
      <trkpt lat="48.94236" lon="-0.41222">
        <ele>328.4</ele>
        <time>2024-04-07T07:21:28Z</time>
      </trkpt>
      <trkpt lat="48.94233" lon="-0.41223">
        <ele>328.8</ele>
        <time>2024-04-07T07:21:29Z</time>
      </trkpt>
      <trkpt lat="48.94228" lon="-0.41225">
        <ele>329</ele>
        <time>2024-04-07T07:21:30Z</time>
      </trkpt>
      <trkpt lat="48.94223" lon="-0.41227">
        <ele>329</ele>
        <time>2024-04-07T07:21:31Z</time>
      </trkpt>
      <trkpt lat="48.94218" lon="-0.41229">
        <ele>329</ele>
        <time>2024-04-07T07:21:32Z</time>
      </trkpt>
      <trkpt lat="48.94214" lon="-0.4123">
        <ele>329</ele>
        <time>2024-04-07T07:21:33Z</time>
      </trkpt>
      <trkpt lat="48.94209" lon="-0.41232">
        <ele>329</ele>
        <time>2024-04-07T07:21:34Z</time>
      </trkpt>
      <trkpt lat="48.94204" lon="-0.41233">
        <ele>329</ele>
        <time>2024-04-07T07:21:35Z</time>
      </trkpt>
      <trkpt lat="48.94199" lon="-0.41234">
        <ele>329</ele>
        <time>2024-04-07T07:21:36Z</time>
      </trkpt>
      <trkpt lat="48.94194" lon="-0.41236">
        <ele>329.2</ele>
        <time>2024-04-07T07:21:37Z</time>
      </trkpt>
      <trkpt lat="48.94189" lon="-0.41238">
        <ele>329.4</ele>
        <time>2024-04-07T07:21:38Z</time>
      </trkpt>
      <trkpt lat="48.94185" lon="-0.4124">
        <ele>329.6</ele>
        <time>2024-04-07T07:21:39Z</time>
      </trkpt>
      <trkpt lat="48.9418" lon="-0.41241">
        <ele>329.8</ele>
        <time>2024-04-07T07:21:40Z</time>
      </trkpt>
      <trkpt lat="48.94175" lon="-0.41243">
        <ele>329.8</ele>
        <time>2024-04-07T07:21:41Z</time>
      </trkpt>
      <trkpt lat="48.9417" lon="-0.41244">
        <ele>330</ele>
        <time>2024-04-07T07:21:42Z</time>
      </trkpt>
      <trkpt lat="48.94165" lon="-0.41246">
        <ele>330</ele>
        <time>2024-04-07T07:21:43Z</time>
      </trkpt>
      <trkpt lat="48.9416" lon="-0.41247">
        <ele>330.2</ele>
        <time>2024-04-07T07:21:44Z</time>
      </trkpt>
      <trkpt lat="48.94156" lon="-0.41248">
        <ele>330.2</ele>
        <time>2024-04-07T07:21:45Z</time>
      </trkpt>
      <trkpt lat="48.94149" lon="-0.4125">
        <ele>330.2</ele>
        <time>2024-04-07T07:21:46Z</time>
      </trkpt>
      <trkpt lat="48.94147" lon="-0.41251">
        <ele>330.4</ele>
        <time>2024-04-07T07:21:47Z</time>
      </trkpt>
      <trkpt lat="48.94142" lon="-0.41251">
        <ele>330.8</ele>
        <time>2024-04-07T07:21:48Z</time>
      </trkpt>
      <trkpt lat="48.94138" lon="-0.41252">
        <ele>331.4</ele>
        <time>2024-04-07T07:21:49Z</time>
      </trkpt>
      <trkpt lat="48.94134" lon="-0.41253">
        <ele>331.8</ele>
        <time>2024-04-07T07:21:50Z</time>
      </trkpt>
      <trkpt lat="48.9413" lon="-0.41254">
        <ele>332</ele>
        <time>2024-04-07T07:21:51Z</time>
      </trkpt>
      <trkpt lat="48.94126" lon="-0.41254">
        <ele>332.4</ele>
        <time>2024-04-07T07:21:52Z</time>
      </trkpt>
      <trkpt lat="48.94122" lon="-0.41254">
        <ele>332.6</ele>
        <time>2024-04-07T07:21:53Z</time>
      </trkpt>
      <trkpt lat="48.94118" lon="-0.41254">
        <ele>332.8</ele>
        <time>2024-04-07T07:21:54Z</time>
      </trkpt>
      <trkpt lat="48.94115" lon="-0.41253">
        <ele>333</ele>
        <time>2024-04-07T07:21:55Z</time>
      </trkpt>
      <trkpt lat="48.94111" lon="-0.41252">
        <ele>333.2</ele>
        <time>2024-04-07T07:21:56Z</time>
      </trkpt>
      <trkpt lat="48.94107" lon="-0.41251">
        <ele>333.4</ele>
        <time>2024-04-07T07:21:57Z</time>
      </trkpt>
      <trkpt lat="48.94102" lon="-0.41249">
        <ele>333.6</ele>
        <time>2024-04-07T07:21:58Z</time>
      </trkpt>
      <trkpt lat="48.94098" lon="-0.41249">
        <ele>334</ele>
        <time>2024-04-07T07:21:59Z</time>
      </trkpt>
      <trkpt lat="48.94094" lon="-0.41249">
        <ele>334.4</ele>
        <time>2024-04-07T07:22:00Z</time>
      </trkpt>
      <trkpt lat="48.94087" lon="-0.41248">
        <ele>334.6</ele>
        <time>2024-04-07T07:22:01Z</time>
      </trkpt>
      <trkpt lat="48.94085" lon="-0.41248">
        <ele>335</ele>
        <time>2024-04-07T07:22:02Z</time>
      </trkpt>
      <trkpt lat="48.9408" lon="-0.41247">
        <ele>335.2</ele>
        <time>2024-04-07T07:22:03Z</time>
      </trkpt>
      <trkpt lat="48.94077" lon="-0.41246">
        <ele>335.4</ele>
        <time>2024-04-07T07:22:04Z</time>
      </trkpt>
      <trkpt lat="48.94074" lon="-0.41246">
        <ele>335.6</ele>
        <time>2024-04-07T07:22:05Z</time>
      </trkpt>
      <trkpt lat="48.94071" lon="-0.41245">
        <ele>336</ele>
        <time>2024-04-07T07:22:06Z</time>
      </trkpt>
      <trkpt lat="48.94068" lon="-0.41244">
        <ele>336.2</ele>
        <time>2024-04-07T07:22:07Z</time>
      </trkpt>
      <trkpt lat="48.94066" lon="-0.41243">
        <ele>336.4</ele>
        <time>2024-04-07T07:22:08Z</time>
      </trkpt>
      <trkpt lat="48.94063" lon="-0.41242">
        <ele>336.4</ele>
        <time>2024-04-07T07:22:09Z</time>
      </trkpt>
      <trkpt lat="48.9406" lon="-0.41241">
        <ele>336.6</ele>
        <time>2024-04-07T07:22:10Z</time>
      </trkpt>
      <trkpt lat="48.94058" lon="-0.4124">
        <ele>336.8</ele>
        <time>2024-04-07T07:22:11Z</time>
      </trkpt>
      <trkpt lat="48.94056" lon="-0.41239">
        <ele>337</ele>
        <time>2024-04-07T07:22:12Z</time>
      </trkpt>
      <trkpt lat="48.94054" lon="-0.41238">
        <ele>337.4</ele>
        <time>2024-04-07T07:22:13Z</time>
      </trkpt>
      <trkpt lat="48.94051" lon="-0.41237">
        <ele>337.6</ele>
        <time>2024-04-07T07:22:14Z</time>
      </trkpt>
      <trkpt lat="48.94048" lon="-0.41237">
        <ele>338</ele>
        <time>2024-04-07T07:22:15Z</time>
      </trkpt>
      <trkpt lat="48.94046" lon="-0.41237">
        <ele>338.2</ele>
        <time>2024-04-07T07:22:16Z</time>
      </trkpt>
      <trkpt lat="48.94042" lon="-0.41238">
        <ele>338.4</ele>
        <time>2024-04-07T07:22:17Z</time>
      </trkpt>
      <trkpt lat="48.94038" lon="-0.41236">
        <ele>338.6</ele>
        <time>2024-04-07T07:22:18Z</time>
      </trkpt>
      <trkpt lat="48.94034" lon="-0.41236">
        <ele>338.8</ele>
        <time>2024-04-07T07:22:19Z</time>
      </trkpt>
      <trkpt lat="48.94032" lon="-0.41236">
        <ele>339</ele>
        <time>2024-04-07T07:22:20Z</time>
      </trkpt>
      <trkpt lat="48.94028" lon="-0.41235">
        <ele>339.4</ele>
        <time>2024-04-07T07:22:21Z</time>
      </trkpt>
      <trkpt lat="48.94025" lon="-0.41234">
        <ele>340</ele>
        <time>2024-04-07T07:22:22Z</time>
      </trkpt>
      <trkpt lat="48.94022" lon="-0.41233">
        <ele>340.6</ele>
        <time>2024-04-07T07:22:23Z</time>
      </trkpt>
      <trkpt lat="48.94019" lon="-0.41232">
        <ele>341</ele>
        <time>2024-04-07T07:22:24Z</time>
      </trkpt>
      <trkpt lat="48.94017" lon="-0.41232">
        <ele>341.4</ele>
        <time>2024-04-07T07:22:25Z</time>
      </trkpt>
      <trkpt lat="48.94013" lon="-0.41232">
        <ele>341.6</ele>
        <time>2024-04-07T07:22:26Z</time>
      </trkpt>
      <trkpt lat="48.94008" lon="-0.41232">
        <ele>341.8</ele>
        <time>2024-04-07T07:22:27Z</time>
      </trkpt>
      <trkpt lat="48.94004" lon="-0.41231">
        <ele>341.8</ele>
        <time>2024-04-07T07:22:28Z</time>
      </trkpt>
      <trkpt lat="48.93999" lon="-0.41229">
        <ele>342</ele>
        <time>2024-04-07T07:22:29Z</time>
      </trkpt>
      <trkpt lat="48.93995" lon="-0.41228">
        <ele>342.2</ele>
        <time>2024-04-07T07:22:30Z</time>
      </trkpt>
      <trkpt lat="48.93991" lon="-0.41227">
        <ele>342.4</ele>
        <time>2024-04-07T07:22:31Z</time>
      </trkpt>
      <trkpt lat="48.93986" lon="-0.41226">
        <ele>342.6</ele>
        <time>2024-04-07T07:22:32Z</time>
      </trkpt>
      <trkpt lat="48.93982" lon="-0.41226">
        <ele>342.8</ele>
        <time>2024-04-07T07:22:33Z</time>
      </trkpt>
      <trkpt lat="48.93977" lon="-0.41225">
        <ele>343</ele>
        <time>2024-04-07T07:22:34Z</time>
      </trkpt>
      <trkpt lat="48.93972" lon="-0.41225">
        <ele>343.4</ele>
        <time>2024-04-07T07:22:35Z</time>
      </trkpt>
      <trkpt lat="48.93968" lon="-0.41224">
        <ele>343.8</ele>
        <time>2024-04-07T07:22:36Z</time>
      </trkpt>
      <trkpt lat="48.93964" lon="-0.41224">
        <ele>344.2</ele>
        <time>2024-04-07T07:22:37Z</time>
      </trkpt>
      <trkpt lat="48.93961" lon="-0.41224">
        <ele>344.4</ele>
        <time>2024-04-07T07:22:38Z</time>
      </trkpt>
      <trkpt lat="48.93957" lon="-0.41224">
        <ele>344.6</ele>
        <time>2024-04-07T07:22:39Z</time>
      </trkpt>
      <trkpt lat="48.93954" lon="-0.41224">
        <ele>344.8</ele>
        <time>2024-04-07T07:22:40Z</time>
      </trkpt>
      <trkpt lat="48.93951" lon="-0.41223">
        <ele>345</ele>
        <time>2024-04-07T07:22:41Z</time>
      </trkpt>
      <trkpt lat="48.93948" lon="-0.41223">
        <ele>345.2</ele>
        <time>2024-04-07T07:22:42Z</time>
      </trkpt>
      <trkpt lat="48.93945" lon="-0.41222">
        <ele>345.6</ele>
        <time>2024-04-07T07:22:43Z</time>
      </trkpt>
      <trkpt lat="48.93942" lon="-0.4122">
        <ele>345.8</ele>
        <time>2024-04-07T07:22:44Z</time>
      </trkpt>
      <trkpt lat="48.93938" lon="-0.41219">
        <ele>346</ele>
        <time>2024-04-07T07:22:45Z</time>
      </trkpt>
      <trkpt lat="48.93935" lon="-0.41219">
        <ele>346.2</ele>
        <time>2024-04-07T07:22:46Z</time>
      </trkpt>
      <trkpt lat="48.9393" lon="-0.41218">
        <ele>346.6</ele>
        <time>2024-04-07T07:22:47Z</time>
      </trkpt>
      <trkpt lat="48.93927" lon="-0.41216">
        <ele>347</ele>
        <time>2024-04-07T07:22:48Z</time>
      </trkpt>
      <trkpt lat="48.93922" lon="-0.41215">
        <ele>347.2</ele>
        <time>2024-04-07T07:22:49Z</time>
      </trkpt>
      <trkpt lat="48.93919" lon="-0.41213">
        <ele>347.4</ele>
        <time>2024-04-07T07:22:50Z</time>
      </trkpt>
      <trkpt lat="48.93915" lon="-0.41212">
        <ele>347.6</ele>
        <time>2024-04-07T07:22:51Z</time>
      </trkpt>
      <trkpt lat="48.93912" lon="-0.4121">
        <ele>347.8</ele>
        <time>2024-04-07T07:22:52Z</time>
      </trkpt>
      <trkpt lat="48.93908" lon="-0.41208">
        <ele>348</ele>
        <time>2024-04-07T07:22:53Z</time>
      </trkpt>
      <trkpt lat="48.93905" lon="-0.41207">
        <ele>348.2</ele>
        <time>2024-04-07T07:22:54Z</time>
      </trkpt>
      <trkpt lat="48.93901" lon="-0.41205">
        <ele>348.2</ele>
        <time>2024-04-07T07:22:55Z</time>
      </trkpt>
      <trkpt lat="48.93898" lon="-0.41203">
        <ele>348.6</ele>
        <time>2024-04-07T07:22:56Z</time>
      </trkpt>
      <trkpt lat="48.93893" lon="-0.412">
        <ele>349</ele>
        <time>2024-04-07T07:22:57Z</time>
      </trkpt>
      <trkpt lat="48.93886" lon="-0.412">
        <ele>349.4</ele>
        <time>2024-04-07T07:22:58Z</time>
      </trkpt>
      <trkpt lat="48.93881" lon="-0.41197">
        <ele>349.4</ele>
        <time>2024-04-07T07:22:59Z</time>
      </trkpt>
      <trkpt lat="48.93875" lon="-0.41195">
        <ele>349.6</ele>
        <time>2024-04-07T07:23:00Z</time>
      </trkpt>
      <trkpt lat="48.9387" lon="-0.41192">
        <ele>349.8</ele>
        <time>2024-04-07T07:23:01Z</time>
      </trkpt>
      <trkpt lat="48.93865" lon="-0.41189">
        <ele>349.8</ele>
        <time>2024-04-07T07:23:02Z</time>
      </trkpt>
      <trkpt lat="48.9386" lon="-0.41185">
        <ele>349.8</ele>
        <time>2024-04-07T07:23:03Z</time>
      </trkpt>
      <trkpt lat="48.93856" lon="-0.41182">
        <ele>350</ele>
        <time>2024-04-07T07:23:04Z</time>
      </trkpt>
      <trkpt lat="48.93849" lon="-0.4118">
        <ele>350.2</ele>
        <time>2024-04-07T07:23:05Z</time>
      </trkpt>
      <trkpt lat="48.93844" lon="-0.41176">
        <ele>350.6</ele>
        <time>2024-04-07T07:23:06Z</time>
      </trkpt>
      <trkpt lat="48.93839" lon="-0.41172">
        <ele>350.8</ele>
        <time>2024-04-07T07:23:07Z</time>
      </trkpt>
      <trkpt lat="48.93833" lon="-0.41169">
        <ele>351.2</ele>
        <time>2024-04-07T07:23:08Z</time>
      </trkpt>
      <trkpt lat="48.93828" lon="-0.41165">
        <ele>351.4</ele>
        <time>2024-04-07T07:23:09Z</time>
      </trkpt>
      <trkpt lat="48.93823" lon="-0.41161">
        <ele>351.6</ele>
        <time>2024-04-07T07:23:10Z</time>
      </trkpt>
      <trkpt lat="48.93817" lon="-0.41157">
        <ele>351.6</ele>
        <time>2024-04-07T07:23:11Z</time>
      </trkpt>
      <trkpt lat="48.93812" lon="-0.41152">
        <ele>351.8</ele>
        <time>2024-04-07T07:23:12Z</time>
      </trkpt>
      <trkpt lat="48.93806" lon="-0.41149">
        <ele>352</ele>
        <time>2024-04-07T07:23:13Z</time>
      </trkpt>
      <trkpt lat="48.93801" lon="-0.41145">
        <ele>352.2</ele>
        <time>2024-04-07T07:23:14Z</time>
      </trkpt>
      <trkpt lat="48.93797" lon="-0.41142">
        <ele>352.2</ele>
        <time>2024-04-07T07:23:15Z</time>
      </trkpt>
      <trkpt lat="48.93793" lon="-0.41139">
        <ele>352.4</ele>
        <time>2024-04-07T07:23:16Z</time>
      </trkpt>
      <trkpt lat="48.93787" lon="-0.41136">
        <ele>352.4</ele>
        <time>2024-04-07T07:23:17Z</time>
      </trkpt>
      <trkpt lat="48.93782" lon="-0.41132">
        <ele>352.4</ele>
        <time>2024-04-07T07:23:18Z</time>
      </trkpt>
      <trkpt lat="48.93776" lon="-0.41127">
        <ele>352.4</ele>
        <time>2024-04-07T07:23:19Z</time>
      </trkpt>
      <trkpt lat="48.9377" lon="-0.41124">
        <ele>352.6</ele>
        <time>2024-04-07T07:23:20Z</time>
      </trkpt>
      <trkpt lat="48.93764" lon="-0.41121">
        <ele>352.6</ele>
        <time>2024-04-07T07:23:21Z</time>
      </trkpt>
      <trkpt lat="48.93759" lon="-0.41117">
        <ele>352.8</ele>
        <time>2024-04-07T07:23:22Z</time>
      </trkpt>
      <trkpt lat="48.93754" lon="-0.41113">
        <ele>353.2</ele>
        <time>2024-04-07T07:23:23Z</time>
      </trkpt>
      <trkpt lat="48.93749" lon="-0.41109">
        <ele>353.4</ele>
        <time>2024-04-07T07:23:24Z</time>
      </trkpt>
      <trkpt lat="48.93745" lon="-0.41106">
        <ele>353.6</ele>
        <time>2024-04-07T07:23:25Z</time>
      </trkpt>
      <trkpt lat="48.9374" lon="-0.41102">
        <ele>353.8</ele>
        <time>2024-04-07T07:23:26Z</time>
      </trkpt>
      <trkpt lat="48.93734" lon="-0.41098">
        <ele>354</ele>
        <time>2024-04-07T07:23:27Z</time>
      </trkpt>
      <trkpt lat="48.93729" lon="-0.41095">
        <ele>354.2</ele>
        <time>2024-04-07T07:23:28Z</time>
      </trkpt>
      <trkpt lat="48.93724" lon="-0.41091">
        <ele>354.4</ele>
        <time>2024-04-07T07:23:29Z</time>
      </trkpt>
      <trkpt lat="48.93719" lon="-0.41086">
        <ele>354.4</ele>
        <time>2024-04-07T07:23:30Z</time>
      </trkpt>
      <trkpt lat="48.93715" lon="-0.41081">
        <ele>354.6</ele>
        <time>2024-04-07T07:23:31Z</time>
      </trkpt>
      <trkpt lat="48.9371" lon="-0.41076">
        <ele>354.8</ele>
        <time>2024-04-07T07:23:32Z</time>
      </trkpt>
      <trkpt lat="48.93705" lon="-0.41071">
        <ele>354.8</ele>
        <time>2024-04-07T07:23:33Z</time>
      </trkpt>
      <trkpt lat="48.93701" lon="-0.41068">
        <ele>355</ele>
        <time>2024-04-07T07:23:34Z</time>
      </trkpt>
      <trkpt lat="48.93696" lon="-0.41064">
        <ele>355.2</ele>
        <time>2024-04-07T07:23:35Z</time>
      </trkpt>
      <trkpt lat="48.93692" lon="-0.4106">
        <ele>355.4</ele>
        <time>2024-04-07T07:23:36Z</time>
      </trkpt>
      <trkpt lat="48.93687" lon="-0.41057">
        <ele>355.8</ele>
        <time>2024-04-07T07:23:37Z</time>
      </trkpt>
      <trkpt lat="48.93683" lon="-0.41053">
        <ele>356</ele>
        <time>2024-04-07T07:23:38Z</time>
      </trkpt>
      <trkpt lat="48.93678" lon="-0.41049">
        <ele>356</ele>
        <time>2024-04-07T07:23:39Z</time>
      </trkpt>
      <trkpt lat="48.93674" lon="-0.41045">
        <ele>356</ele>
        <time>2024-04-07T07:23:40Z</time>
      </trkpt>
      <trkpt lat="48.9367" lon="-0.41041">
        <ele>356</ele>
        <time>2024-04-07T07:23:41Z</time>
      </trkpt>
      <trkpt lat="48.93666" lon="-0.41038">
        <ele>356.2</ele>
        <time>2024-04-07T07:23:42Z</time>
      </trkpt>
      <trkpt lat="48.93663" lon="-0.41035">
        <ele>356.2</ele>
        <time>2024-04-07T07:23:43Z</time>
      </trkpt>
      <trkpt lat="48.93659" lon="-0.41033">
        <ele>356.2</ele>
        <time>2024-04-07T07:23:44Z</time>
      </trkpt>
      <trkpt lat="48.93656" lon="-0.4103">
        <ele>356.2</ele>
        <time>2024-04-07T07:23:45Z</time>
      </trkpt>
      <trkpt lat="48.93653" lon="-0.41027">
        <ele>356.4</ele>
        <time>2024-04-07T07:23:46Z</time>
      </trkpt>
      <trkpt lat="48.9365" lon="-0.41022">
        <ele>356.4</ele>
        <time>2024-04-07T07:23:47Z</time>
      </trkpt>
      <trkpt lat="48.93647" lon="-0.41019">
        <ele>356.4</ele>
        <time>2024-04-07T07:23:48Z</time>
      </trkpt>
      <trkpt lat="48.93644" lon="-0.41015">
        <ele>356.6</ele>
        <time>2024-04-07T07:23:49Z</time>
      </trkpt>
      <trkpt lat="48.93641" lon="-0.41011">
        <ele>356.8</ele>
        <time>2024-04-07T07:23:50Z</time>
      </trkpt>
      <trkpt lat="48.93638" lon="-0.41007">
        <ele>357.2</ele>
        <time>2024-04-07T07:23:51Z</time>
      </trkpt>
      <trkpt lat="48.93634" lon="-0.41002">
        <ele>357.6</ele>
        <time>2024-04-07T07:23:52Z</time>
      </trkpt>
      <trkpt lat="48.9363" lon="-0.40997">
        <ele>358.2</ele>
        <time>2024-04-07T07:23:53Z</time>
      </trkpt>
      <trkpt lat="48.93626" lon="-0.40992">
        <ele>358.6</ele>
        <time>2024-04-07T07:23:54Z</time>
      </trkpt>
      <trkpt lat="48.93621" lon="-0.40986">
        <ele>358.8</ele>
        <time>2024-04-07T07:23:55Z</time>
      </trkpt>
      <trkpt lat="48.93617" lon="-0.40981">
        <ele>359</ele>
        <time>2024-04-07T07:23:56Z</time>
      </trkpt>
      <trkpt lat="48.93612" lon="-0.40977">
        <ele>359.2</ele>
        <time>2024-04-07T07:23:57Z</time>
      </trkpt>
      <trkpt lat="48.93607" lon="-0.40972">
        <ele>359.2</ele>
        <time>2024-04-07T07:23:58Z</time>
      </trkpt>
      <trkpt lat="48.93603" lon="-0.40968">
        <ele>359.2</ele>
        <time>2024-04-07T07:23:59Z</time>
      </trkpt>
      <trkpt lat="48.936" lon="-0.40964">
        <ele>359.2</ele>
        <time>2024-04-07T07:24:00Z</time>
      </trkpt>
      <trkpt lat="48.93596" lon="-0.4096">
        <ele>358.8</ele>
        <time>2024-04-07T07:24:01Z</time>
      </trkpt>
      <trkpt lat="48.93589" lon="-0.40951">
        <ele>358.2</ele>
        <time>2024-04-07T07:24:02Z</time>
      </trkpt>
      <trkpt lat="48.93588" lon="-0.40949">
        <ele>357.8</ele>
        <time>2024-04-07T07:24:03Z</time>
      </trkpt>
      <trkpt lat="48.93586" lon="-0.40947">
        <ele>357.6</ele>
        <time>2024-04-07T07:24:04Z</time>
      </trkpt>
      <trkpt lat="48.93583" lon="-0.40943">
        <ele>357.6</ele>
        <time>2024-04-07T07:24:05Z</time>
      </trkpt>
      <trkpt lat="48.93578" lon="-0.40939">
        <ele>357.6</ele>
        <time>2024-04-07T07:24:06Z</time>
      </trkpt>
      <trkpt lat="48.93574" lon="-0.40935">
        <ele>357.8</ele>
        <time>2024-04-07T07:24:07Z</time>
      </trkpt>
      <trkpt lat="48.9357" lon="-0.40931">
        <ele>358</ele>
        <time>2024-04-07T07:24:08Z</time>
      </trkpt>
      <trkpt lat="48.93566" lon="-0.40927">
        <ele>358.2</ele>
        <time>2024-04-07T07:24:09Z</time>
      </trkpt>
      <trkpt lat="48.93563" lon="-0.40923">
        <ele>358.4</ele>
        <time>2024-04-07T07:24:10Z</time>
      </trkpt>
      <trkpt lat="48.9356" lon="-0.40919">
        <ele>358.6</ele>
        <time>2024-04-07T07:24:11Z</time>
      </trkpt>
      <trkpt lat="48.93555" lon="-0.40914">
        <ele>358.8</ele>
        <time>2024-04-07T07:24:12Z</time>
      </trkpt>
      <trkpt lat="48.9355" lon="-0.4091">
        <ele>359</ele>
        <time>2024-04-07T07:24:13Z</time>
      </trkpt>
      <trkpt lat="48.93543" lon="-0.40903">
        <ele>359</ele>
        <time>2024-04-07T07:24:14Z</time>
      </trkpt>
      <trkpt lat="48.93538" lon="-0.40898">
        <ele>359.2</ele>
        <time>2024-04-07T07:24:15Z</time>
      </trkpt>
      <trkpt lat="48.93534" lon="-0.40894">
        <ele>359.2</ele>
        <time>2024-04-07T07:24:16Z</time>
      </trkpt>
      <trkpt lat="48.9353" lon="-0.40889">
        <ele>359.2</ele>
        <time>2024-04-07T07:24:17Z</time>
      </trkpt>
      <trkpt lat="48.93525" lon="-0.40884">
        <ele>359.2</ele>
        <time>2024-04-07T07:24:18Z</time>
      </trkpt>
      <trkpt lat="48.93521" lon="-0.4088">
        <ele>359.2</ele>
        <time>2024-04-07T07:24:19Z</time>
      </trkpt>
      <trkpt lat="48.93515" lon="-0.40873">
        <ele>359.4</ele>
        <time>2024-04-07T07:24:20Z</time>
      </trkpt>
      <trkpt lat="48.93511" lon="-0.40868">
        <ele>359.4</ele>
        <time>2024-04-07T07:24:21Z</time>
      </trkpt>
      <trkpt lat="48.93507" lon="-0.40864">
        <ele>359.6</ele>
        <time>2024-04-07T07:24:22Z</time>
      </trkpt>
      <trkpt lat="48.93503" lon="-0.40858">
        <ele>359.6</ele>
        <time>2024-04-07T07:24:23Z</time>
      </trkpt>
      <trkpt lat="48.93493" lon="-0.40851">
        <ele>359.6</ele>
        <time>2024-04-07T07:24:24Z</time>
      </trkpt>
      <trkpt lat="48.93486" lon="-0.40846">
        <ele>359.4</ele>
        <time>2024-04-07T07:24:25Z</time>
      </trkpt>
      <trkpt lat="48.93482" lon="-0.40841">
        <ele>359.2</ele>
        <time>2024-04-07T07:24:26Z</time>
      </trkpt>
      <trkpt lat="48.93476" lon="-0.40835">
        <ele>358.8</ele>
        <time>2024-04-07T07:24:27Z</time>
      </trkpt>
      <trkpt lat="48.93471" lon="-0.4083">
        <ele>358.4</ele>
        <time>2024-04-07T07:24:28Z</time>
      </trkpt>
      <trkpt lat="48.93465" lon="-0.40825">
        <ele>358.2</ele>
        <time>2024-04-07T07:24:29Z</time>
      </trkpt>
      <trkpt lat="48.9346" lon="-0.4082">
        <ele>358.2</ele>
        <time>2024-04-07T07:24:30Z</time>
      </trkpt>
      <trkpt lat="48.93453" lon="-0.40814">
        <ele>358.2</ele>
        <time>2024-04-07T07:24:31Z</time>
      </trkpt>
      <trkpt lat="48.93448" lon="-0.40809">
        <ele>358</ele>
        <time>2024-04-07T07:24:32Z</time>
      </trkpt>
      <trkpt lat="48.93442" lon="-0.40804">
        <ele>358.2</ele>
        <time>2024-04-07T07:24:33Z</time>
      </trkpt>
      <trkpt lat="48.93437" lon="-0.40798">
        <ele>358.2</ele>
        <time>2024-04-07T07:24:34Z</time>
      </trkpt>
      <trkpt lat="48.93432" lon="-0.40793">
        <ele>358</ele>
        <time>2024-04-07T07:24:35Z</time>
      </trkpt>
      <trkpt lat="48.93427" lon="-0.40787">
        <ele>358</ele>
        <time>2024-04-07T07:24:36Z</time>
      </trkpt>
      <trkpt lat="48.93423" lon="-0.40783">
        <ele>357.8</ele>
        <time>2024-04-07T07:24:37Z</time>
      </trkpt>
      <trkpt lat="48.93416" lon="-0.40777">
        <ele>357.8</ele>
        <time>2024-04-07T07:24:38Z</time>
      </trkpt>
      <trkpt lat="48.93411" lon="-0.40773">
        <ele>357.8</ele>
        <time>2024-04-07T07:24:39Z</time>
      </trkpt>
      <trkpt lat="48.93406" lon="-0.40768">
        <ele>357.8</ele>
        <time>2024-04-07T07:24:40Z</time>
      </trkpt>
      <trkpt lat="48.93398" lon="-0.40763">
        <ele>357.8</ele>
        <time>2024-04-07T07:24:41Z</time>
      </trkpt>
      <trkpt lat="48.93393" lon="-0.40758">
        <ele>357.8</ele>
        <time>2024-04-07T07:24:42Z</time>
      </trkpt>
      <trkpt lat="48.93388" lon="-0.40753">
        <ele>358</ele>
        <time>2024-04-07T07:24:43Z</time>
      </trkpt>
      <trkpt lat="48.93383" lon="-0.40748">
        <ele>357.8</ele>
        <time>2024-04-07T07:24:44Z</time>
      </trkpt>
      <trkpt lat="48.93378" lon="-0.40743">
        <ele>357.6</ele>
        <time>2024-04-07T07:24:45Z</time>
      </trkpt>
      <trkpt lat="48.93373" lon="-0.40738">
        <ele>357.6</ele>
        <time>2024-04-07T07:24:46Z</time>
      </trkpt>
      <trkpt lat="48.93368" lon="-0.40733">
        <ele>357.4</ele>
        <time>2024-04-07T07:24:47Z</time>
      </trkpt>
      <trkpt lat="48.93364" lon="-0.40729">
        <ele>357.4</ele>
        <time>2024-04-07T07:24:48Z</time>
      </trkpt>
      <trkpt lat="48.93359" lon="-0.40725">
        <ele>357.4</ele>
        <time>2024-04-07T07:24:49Z</time>
      </trkpt>
      <trkpt lat="48.93355" lon="-0.4072">
        <ele>357.4</ele>
        <time>2024-04-07T07:24:50Z</time>
      </trkpt>
      <trkpt lat="48.9335" lon="-0.40714">
        <ele>357.4</ele>
        <time>2024-04-07T07:24:51Z</time>
      </trkpt>
      <trkpt lat="48.93344" lon="-0.4071">
        <ele>357.4</ele>
        <time>2024-04-07T07:24:52Z</time>
      </trkpt>
      <trkpt lat="48.93339" lon="-0.40705">
        <ele>357.4</ele>
        <time>2024-04-07T07:24:53Z</time>
      </trkpt>
      <trkpt lat="48.93333" lon="-0.407">
        <ele>357.4</ele>
        <time>2024-04-07T07:24:54Z</time>
      </trkpt>
      <trkpt lat="48.93328" lon="-0.40694">
        <ele>357.4</ele>
        <time>2024-04-07T07:24:55Z</time>
      </trkpt>
      <trkpt lat="48.93321" lon="-0.40689">
        <ele>357.4</ele>
        <time>2024-04-07T07:24:56Z</time>
      </trkpt>
      <trkpt lat="48.93315" lon="-0.40683">
        <ele>357.2</ele>
        <time>2024-04-07T07:24:57Z</time>
      </trkpt>
      <trkpt lat="48.93309" lon="-0.40678">
        <ele>357.2</ele>
        <time>2024-04-07T07:24:58Z</time>
      </trkpt>
      <trkpt lat="48.93303" lon="-0.40672">
        <ele>357.2</ele>
        <time>2024-04-07T07:24:59Z</time>
      </trkpt>
      <trkpt lat="48.93297" lon="-0.40667">
        <ele>357.2</ele>
        <time>2024-04-07T07:25:00Z</time>
      </trkpt>
      <trkpt lat="48.93291" lon="-0.40662">
        <ele>356.8</ele>
        <time>2024-04-07T07:25:01Z</time>
      </trkpt>
      <trkpt lat="48.93284" lon="-0.40655">
        <ele>356.6</ele>
        <time>2024-04-07T07:25:02Z</time>
      </trkpt>
      <trkpt lat="48.93278" lon="-0.4065">
        <ele>356.4</ele>
        <time>2024-04-07T07:25:03Z</time>
      </trkpt>
      <trkpt lat="48.93272" lon="-0.40645">
        <ele>356.4</ele>
        <time>2024-04-07T07:25:04Z</time>
      </trkpt>
      <trkpt lat="48.93265" lon="-0.40639">
        <ele>356.2</ele>
        <time>2024-04-07T07:25:05Z</time>
      </trkpt>
      <trkpt lat="48.93259" lon="-0.40634">
        <ele>356.2</ele>
        <time>2024-04-07T07:25:06Z</time>
      </trkpt>
      <trkpt lat="48.93253" lon="-0.40629">
        <ele>356.2</ele>
        <time>2024-04-07T07:25:07Z</time>
      </trkpt>
      <trkpt lat="48.93247" lon="-0.40623">
        <ele>356.2</ele>
        <time>2024-04-07T07:25:08Z</time>
      </trkpt>
      <trkpt lat="48.93242" lon="-0.40618">
        <ele>356.4</ele>
        <time>2024-04-07T07:25:09Z</time>
      </trkpt>
      <trkpt lat="48.93235" lon="-0.40613">
        <ele>356.4</ele>
        <time>2024-04-07T07:25:10Z</time>
      </trkpt>
      <trkpt lat="48.93229" lon="-0.40607">
        <ele>356.4</ele>
        <time>2024-04-07T07:25:11Z</time>
      </trkpt>
      <trkpt lat="48.93222" lon="-0.40602">
        <ele>356.2</ele>
        <time>2024-04-07T07:25:12Z</time>
      </trkpt>
      <trkpt lat="48.93216" lon="-0.40597">
        <ele>356.2</ele>
        <time>2024-04-07T07:25:13Z</time>
      </trkpt>
      <trkpt lat="48.9321" lon="-0.40591">
        <ele>356.2</ele>
        <time>2024-04-07T07:25:14Z</time>
      </trkpt>
      <trkpt lat="48.93204" lon="-0.40587">
        <ele>356.2</ele>
        <time>2024-04-07T07:25:15Z</time>
      </trkpt>
      <trkpt lat="48.93199" lon="-0.40582">
        <ele>356.2</ele>
        <time>2024-04-07T07:25:16Z</time>
      </trkpt>
      <trkpt lat="48.93192" lon="-0.40577">
        <ele>356.4</ele>
        <time>2024-04-07T07:25:17Z</time>
      </trkpt>
      <trkpt lat="48.93186" lon="-0.40571">
        <ele>356.4</ele>
        <time>2024-04-07T07:25:18Z</time>
      </trkpt>
      <trkpt lat="48.93179" lon="-0.40566">
        <ele>356.6</ele>
        <time>2024-04-07T07:25:19Z</time>
      </trkpt>
      <trkpt lat="48.93173" lon="-0.4056">
        <ele>356.6</ele>
        <time>2024-04-07T07:25:20Z</time>
      </trkpt>
      <trkpt lat="48.93166" lon="-0.40554">
        <ele>356.4</ele>
        <time>2024-04-07T07:25:21Z</time>
      </trkpt>
      <trkpt lat="48.9316" lon="-0.40548">
        <ele>356.4</ele>
        <time>2024-04-07T07:25:22Z</time>
      </trkpt>
      <trkpt lat="48.93154" lon="-0.40543">
        <ele>356.2</ele>
        <time>2024-04-07T07:25:23Z</time>
      </trkpt>
      <trkpt lat="48.93148" lon="-0.40538">
        <ele>356.2</ele>
        <time>2024-04-07T07:25:24Z</time>
      </trkpt>
      <trkpt lat="48.93141" lon="-0.40532">
        <ele>356</ele>
        <time>2024-04-07T07:25:25Z</time>
      </trkpt>
      <trkpt lat="48.93136" lon="-0.40526">
        <ele>356</ele>
        <time>2024-04-07T07:25:26Z</time>
      </trkpt>
      <trkpt lat="48.93129" lon="-0.40519">
        <ele>356</ele>
        <time>2024-04-07T07:25:27Z</time>
      </trkpt>
      <trkpt lat="48.93124" lon="-0.40514">
        <ele>356</ele>
        <time>2024-04-07T07:25:28Z</time>
      </trkpt>
      <trkpt lat="48.93119" lon="-0.40509">
        <ele>355.8</ele>
        <time>2024-04-07T07:25:29Z</time>
      </trkpt>
      <trkpt lat="48.93114" lon="-0.40504">
        <ele>355.8</ele>
        <time>2024-04-07T07:25:30Z</time>
      </trkpt>
      <trkpt lat="48.93108" lon="-0.40499">
        <ele>356</ele>
        <time>2024-04-07T07:25:31Z</time>
      </trkpt>
      <trkpt lat="48.93102" lon="-0.40494">
        <ele>356</ele>
        <time>2024-04-07T07:25:32Z</time>
      </trkpt>
      <trkpt lat="48.93097" lon="-0.40489">
        <ele>356</ele>
        <time>2024-04-07T07:25:33Z</time>
      </trkpt>
      <trkpt lat="48.93091" lon="-0.40483">
        <ele>356</ele>
        <time>2024-04-07T07:25:34Z</time>
      </trkpt>
      <trkpt lat="48.93086" lon="-0.40478">
        <ele>356</ele>
        <time>2024-04-07T07:25:35Z</time>
      </trkpt>
      <trkpt lat="48.9308" lon="-0.40473">
        <ele>356</ele>
        <time>2024-04-07T07:25:36Z</time>
      </trkpt>
      <trkpt lat="48.93075" lon="-0.40469">
        <ele>355.8</ele>
        <time>2024-04-07T07:25:37Z</time>
      </trkpt>
      <trkpt lat="48.93067" lon="-0.40462">
        <ele>355.8</ele>
        <time>2024-04-07T07:25:38Z</time>
      </trkpt>
      <trkpt lat="48.93058" lon="-0.40456">
        <ele>355.6</ele>
        <time>2024-04-07T07:25:39Z</time>
      </trkpt>
      <trkpt lat="48.93049" lon="-0.4045">
        <ele>355.6</ele>
        <time>2024-04-07T07:25:40Z</time>
      </trkpt>
      <trkpt lat="48.93042" lon="-0.40445">
        <ele>355.6</ele>
        <time>2024-04-07T07:25:41Z</time>
      </trkpt>
      <trkpt lat="48.93033" lon="-0.4044">
        <ele>355.6</ele>
        <time>2024-04-07T07:25:42Z</time>
      </trkpt>
      <trkpt lat="48.93027" lon="-0.40436">
        <ele>355.8</ele>
        <time>2024-04-07T07:25:43Z</time>
      </trkpt>
      <trkpt lat="48.93019" lon="-0.4043">
        <ele>356</ele>
        <time>2024-04-07T07:25:44Z</time>
      </trkpt>
      <trkpt lat="48.9301" lon="-0.40424">
        <ele>356</ele>
        <time>2024-04-07T07:25:45Z</time>
      </trkpt>
      <trkpt lat="48.93002" lon="-0.40419">
        <ele>356.2</ele>
        <time>2024-04-07T07:25:46Z</time>
      </trkpt>
      <trkpt lat="48.92995" lon="-0.40414">
        <ele>356.2</ele>
        <time>2024-04-07T07:25:47Z</time>
      </trkpt>
      <trkpt lat="48.92988" lon="-0.4041">
        <ele>356.4</ele>
        <time>2024-04-07T07:25:48Z</time>
      </trkpt>
      <trkpt lat="48.92981" lon="-0.40405">
        <ele>356.6</ele>
        <time>2024-04-07T07:25:49Z</time>
      </trkpt>
      <trkpt lat="48.92974" lon="-0.404">
        <ele>356.6</ele>
        <time>2024-04-07T07:25:50Z</time>
      </trkpt>
      <trkpt lat="48.92967" lon="-0.40396">
        <ele>356.4</ele>
        <time>2024-04-07T07:25:51Z</time>
      </trkpt>
      <trkpt lat="48.9296" lon="-0.40392">
        <ele>356.4</ele>
        <time>2024-04-07T07:25:52Z</time>
      </trkpt>
      <trkpt lat="48.92953" lon="-0.40388">
        <ele>356.4</ele>
        <time>2024-04-07T07:25:53Z</time>
      </trkpt>
      <trkpt lat="48.92947" lon="-0.40384">
        <ele>356.4</ele>
        <time>2024-04-07T07:25:54Z</time>
      </trkpt>
      <trkpt lat="48.9294" lon="-0.4038">
        <ele>356.4</ele>
        <time>2024-04-07T07:25:55Z</time>
      </trkpt>
      <trkpt lat="48.92934" lon="-0.40377">
        <ele>356.4</ele>
        <time>2024-04-07T07:25:56Z</time>
      </trkpt>
      <trkpt lat="48.92926" lon="-0.40373">
        <ele>356.4</ele>
        <time>2024-04-07T07:25:57Z</time>
      </trkpt>
      <trkpt lat="48.9292" lon="-0.40369">
        <ele>356.4</ele>
        <time>2024-04-07T07:25:58Z</time>
      </trkpt>
      <trkpt lat="48.92914" lon="-0.40366">
        <ele>356.4</ele>
        <time>2024-04-07T07:25:59Z</time>
      </trkpt>
      <trkpt lat="48.92909" lon="-0.40363">
        <ele>356.4</ele>
        <time>2024-04-07T07:26:00Z</time>
      </trkpt>
      <trkpt lat="48.92904" lon="-0.4036">
        <ele>356.6</ele>
        <time>2024-04-07T07:26:01Z</time>
      </trkpt>
      <trkpt lat="48.929" lon="-0.40357">
        <ele>356.6</ele>
        <time>2024-04-07T07:26:02Z</time>
      </trkpt>
      <trkpt lat="48.92896" lon="-0.40354">
        <ele>356.6</ele>
        <time>2024-04-07T07:26:03Z</time>
      </trkpt>
      <trkpt lat="48.9289" lon="-0.40351">
        <ele>356.8</ele>
        <time>2024-04-07T07:26:04Z</time>
      </trkpt>
      <trkpt lat="48.9288" lon="-0.40348">
        <ele>357</ele>
        <time>2024-04-07T07:26:05Z</time>
      </trkpt>
      <trkpt lat="48.92873" lon="-0.40345">
        <ele>357.4</ele>
        <time>2024-04-07T07:26:06Z</time>
      </trkpt>
      <trkpt lat="48.92866" lon="-0.40343">
        <ele>357.8</ele>
        <time>2024-04-07T07:26:07Z</time>
      </trkpt>
      <trkpt lat="48.92858" lon="-0.40342">
        <ele>358</ele>
        <time>2024-04-07T07:26:08Z</time>
      </trkpt>
      <trkpt lat="48.9285" lon="-0.4034">
        <ele>358.2</ele>
        <time>2024-04-07T07:26:09Z</time>
      </trkpt>
      <trkpt lat="48.92842" lon="-0.40339">
        <ele>358.4</ele>
        <time>2024-04-07T07:26:10Z</time>
      </trkpt>
      <trkpt lat="48.92833" lon="-0.40337">
        <ele>358.6</ele>
        <time>2024-04-07T07:26:11Z</time>
      </trkpt>
      <trkpt lat="48.92826" lon="-0.40335">
        <ele>358.8</ele>
        <time>2024-04-07T07:26:12Z</time>
      </trkpt>
      <trkpt lat="48.92819" lon="-0.40333">
        <ele>359</ele>
        <time>2024-04-07T07:26:13Z</time>
      </trkpt>
      <trkpt lat="48.92811" lon="-0.40332">
        <ele>359</ele>
        <time>2024-04-07T07:26:14Z</time>
      </trkpt>
      <trkpt lat="48.92804" lon="-0.4033">
        <ele>359.2</ele>
        <time>2024-04-07T07:26:15Z</time>
      </trkpt>
      <trkpt lat="48.92797" lon="-0.40329">
        <ele>359.4</ele>
        <time>2024-04-07T07:26:16Z</time>
      </trkpt>
      <trkpt lat="48.9279" lon="-0.40328">
        <ele>359.6</ele>
        <time>2024-04-07T07:26:17Z</time>
      </trkpt>
      <trkpt lat="48.92783" lon="-0.40326">
        <ele>359.8</ele>
        <time>2024-04-07T07:26:18Z</time>
      </trkpt>
      <trkpt lat="48.92777" lon="-0.40325">
        <ele>360</ele>
        <time>2024-04-07T07:26:19Z</time>
      </trkpt>
      <trkpt lat="48.9277" lon="-0.40325">
        <ele>360.2</ele>
        <time>2024-04-07T07:26:20Z</time>
      </trkpt>
      <trkpt lat="48.92764" lon="-0.40324">
        <ele>360.4</ele>
        <time>2024-04-07T07:26:21Z</time>
      </trkpt>
      <trkpt lat="48.92758" lon="-0.40323">
        <ele>360.6</ele>
        <time>2024-04-07T07:26:22Z</time>
      </trkpt>
      <trkpt lat="48.92751" lon="-0.40323">
        <ele>361</ele>
        <time>2024-04-07T07:26:23Z</time>
      </trkpt>
      <trkpt lat="48.92745" lon="-0.40322">
        <ele>361.2</ele>
        <time>2024-04-07T07:26:24Z</time>
      </trkpt>
      <trkpt lat="48.92739" lon="-0.40322">
        <ele>361.6</ele>
        <time>2024-04-07T07:26:25Z</time>
      </trkpt>
      <trkpt lat="48.92733" lon="-0.40322">
        <ele>362</ele>
        <time>2024-04-07T07:26:26Z</time>
      </trkpt>
      <trkpt lat="48.92727" lon="-0.40321">
        <ele>362.2</ele>
        <time>2024-04-07T07:26:27Z</time>
      </trkpt>
      <trkpt lat="48.92722" lon="-0.4032">
        <ele>362.4</ele>
        <time>2024-04-07T07:26:28Z</time>
      </trkpt>
      <trkpt lat="48.92716" lon="-0.4032">
        <ele>362.6</ele>
        <time>2024-04-07T07:26:29Z</time>
      </trkpt>
      <trkpt lat="48.9271" lon="-0.40319">
        <ele>362.6</ele>
        <time>2024-04-07T07:26:30Z</time>
      </trkpt>
      <trkpt lat="48.92704" lon="-0.40318">
        <ele>362.8</ele>
        <time>2024-04-07T07:26:31Z</time>
      </trkpt>
      <trkpt lat="48.92698" lon="-0.40318">
        <ele>363.2</ele>
        <time>2024-04-07T07:26:32Z</time>
      </trkpt>
      <trkpt lat="48.92692" lon="-0.40317">
        <ele>363.4</ele>
        <time>2024-04-07T07:26:33Z</time>
      </trkpt>
      <trkpt lat="48.92686" lon="-0.40317">
        <ele>363.6</ele>
        <time>2024-04-07T07:26:34Z</time>
      </trkpt>
      <trkpt lat="48.9268" lon="-0.40317">
        <ele>363.8</ele>
        <time>2024-04-07T07:26:35Z</time>
      </trkpt>
      <trkpt lat="48.92674" lon="-0.40317">
        <ele>364</ele>
        <time>2024-04-07T07:26:36Z</time>
      </trkpt>
      <trkpt lat="48.92668" lon="-0.40318">
        <ele>364.2</ele>
        <time>2024-04-07T07:26:37Z</time>
      </trkpt>
      <trkpt lat="48.92663" lon="-0.40318">
        <ele>364.6</ele>
        <time>2024-04-07T07:26:38Z</time>
      </trkpt>
      <trkpt lat="48.92657" lon="-0.40318">
        <ele>364.8</ele>
        <time>2024-04-07T07:26:39Z</time>
      </trkpt>
      <trkpt lat="48.92652" lon="-0.40319">
        <ele>365</ele>
        <time>2024-04-07T07:26:40Z</time>
      </trkpt>
      <trkpt lat="48.92647" lon="-0.4032">
        <ele>365.2</ele>
        <time>2024-04-07T07:26:41Z</time>
      </trkpt>
      <trkpt lat="48.92642" lon="-0.40321">
        <ele>365.4</ele>
        <time>2024-04-07T07:26:42Z</time>
      </trkpt>
      <trkpt lat="48.92637" lon="-0.40322">
        <ele>365.4</ele>
        <time>2024-04-07T07:26:43Z</time>
      </trkpt>
      <trkpt lat="48.92632" lon="-0.40323">
        <ele>365.4</ele>
        <time>2024-04-07T07:26:44Z</time>
      </trkpt>
      <trkpt lat="48.92627" lon="-0.40323">
        <ele>365.4</ele>
        <time>2024-04-07T07:26:45Z</time>
      </trkpt>
      <trkpt lat="48.92622" lon="-0.40324">
        <ele>365.2</ele>
        <time>2024-04-07T07:26:46Z</time>
      </trkpt>
      <trkpt lat="48.92616" lon="-0.40324">
        <ele>365.2</ele>
        <time>2024-04-07T07:26:47Z</time>
      </trkpt>
      <trkpt lat="48.92612" lon="-0.40325">
        <ele>365.2</ele>
        <time>2024-04-07T07:26:48Z</time>
      </trkpt>
      <trkpt lat="48.92606" lon="-0.40326">
        <ele>365.2</ele>
        <time>2024-04-07T07:26:49Z</time>
      </trkpt>
      <trkpt lat="48.92601" lon="-0.40327">
        <ele>365.4</ele>
        <time>2024-04-07T07:26:50Z</time>
      </trkpt>
      <trkpt lat="48.92597" lon="-0.40327">
        <ele>365.4</ele>
        <time>2024-04-07T07:26:51Z</time>
      </trkpt>
      <trkpt lat="48.92592" lon="-0.40328">
        <ele>365.6</ele>
        <time>2024-04-07T07:26:52Z</time>
      </trkpt>
      <trkpt lat="48.92588" lon="-0.40329">
        <ele>365.6</ele>
        <time>2024-04-07T07:26:53Z</time>
      </trkpt>
      <trkpt lat="48.92583" lon="-0.4033">
        <ele>366</ele>
        <time>2024-04-07T07:26:54Z</time>
      </trkpt>
      <trkpt lat="48.9258" lon="-0.40332">
        <ele>366.4</ele>
        <time>2024-04-07T07:26:55Z</time>
      </trkpt>
      <trkpt lat="48.92576" lon="-0.40333">
        <ele>366.8</ele>
        <time>2024-04-07T07:26:56Z</time>
      </trkpt>
      <trkpt lat="48.92572" lon="-0.40333">
        <ele>367</ele>
        <time>2024-04-07T07:26:57Z</time>
      </trkpt>
      <trkpt lat="48.92568" lon="-0.40334">
        <ele>367.4</ele>
        <time>2024-04-07T07:26:58Z</time>
      </trkpt>
      <trkpt lat="48.92564" lon="-0.40336">
        <ele>367.6</ele>
        <time>2024-04-07T07:26:59Z</time>
      </trkpt>
      <trkpt lat="48.9256" lon="-0.40337">
        <ele>367.8</ele>
        <time>2024-04-07T07:27:00Z</time>
      </trkpt>
      <trkpt lat="48.92555" lon="-0.40338">
        <ele>368</ele>
        <time>2024-04-07T07:27:01Z</time>
      </trkpt>
      <trkpt lat="48.9255" lon="-0.4034">
        <ele>368.2</ele>
        <time>2024-04-07T07:27:02Z</time>
      </trkpt>
      <trkpt lat="48.92546" lon="-0.40341">
        <ele>368.4</ele>
        <time>2024-04-07T07:27:03Z</time>
      </trkpt>
      <trkpt lat="48.92541" lon="-0.40343">
        <ele>368.6</ele>
        <time>2024-04-07T07:27:04Z</time>
      </trkpt>
      <trkpt lat="48.92535" lon="-0.40345">
        <ele>368.8</ele>
        <time>2024-04-07T07:27:05Z</time>
      </trkpt>
      <trkpt lat="48.9253" lon="-0.40347">
        <ele>368.8</ele>
        <time>2024-04-07T07:27:06Z</time>
      </trkpt>
      <trkpt lat="48.92525" lon="-0.40349">
        <ele>369</ele>
        <time>2024-04-07T07:27:07Z</time>
      </trkpt>
      <trkpt lat="48.9252" lon="-0.40351">
        <ele>369</ele>
        <time>2024-04-07T07:27:08Z</time>
      </trkpt>
      <trkpt lat="48.92516" lon="-0.40353">
        <ele>369.2</ele>
        <time>2024-04-07T07:27:09Z</time>
      </trkpt>
      <trkpt lat="48.92511" lon="-0.40355">
        <ele>369.4</ele>
        <time>2024-04-07T07:27:10Z</time>
      </trkpt>
      <trkpt lat="48.92506" lon="-0.40357">
        <ele>369.6</ele>
        <time>2024-04-07T07:27:11Z</time>
      </trkpt>
      <trkpt lat="48.92502" lon="-0.40359">
        <ele>370.2</ele>
        <time>2024-04-07T07:27:12Z</time>
      </trkpt>
      <trkpt lat="48.92497" lon="-0.40361">
        <ele>370.6</ele>
        <time>2024-04-07T07:27:13Z</time>
      </trkpt>
      <trkpt lat="48.92492" lon="-0.40363">
        <ele>370.8</ele>
        <time>2024-04-07T07:27:14Z</time>
      </trkpt>
      <trkpt lat="48.92487" lon="-0.40366">
        <ele>371.2</ele>
        <time>2024-04-07T07:27:15Z</time>
      </trkpt>
      <trkpt lat="48.92483" lon="-0.40368">
        <ele>371.6</ele>
        <time>2024-04-07T07:27:16Z</time>
      </trkpt>
      <trkpt lat="48.92478" lon="-0.40371">
        <ele>371.8</ele>
        <time>2024-04-07T07:27:17Z</time>
      </trkpt>
      <trkpt lat="48.92474" lon="-0.40373">
        <ele>371.8</ele>
        <time>2024-04-07T07:27:18Z</time>
      </trkpt>
      <trkpt lat="48.92469" lon="-0.40375">
        <ele>372</ele>
        <time>2024-04-07T07:27:19Z</time>
      </trkpt>
      <trkpt lat="48.92464" lon="-0.40378">
        <ele>372</ele>
        <time>2024-04-07T07:27:20Z</time>
      </trkpt>
      <trkpt lat="48.9246" lon="-0.40381">
        <ele>372.2</ele>
        <time>2024-04-07T07:27:21Z</time>
      </trkpt>
      <trkpt lat="48.92455" lon="-0.40383">
        <ele>372.2</ele>
        <time>2024-04-07T07:27:22Z</time>
      </trkpt>
      <trkpt lat="48.92451" lon="-0.40386">
        <ele>372.4</ele>
        <time>2024-04-07T07:27:23Z</time>
      </trkpt>
      <trkpt lat="48.92446" lon="-0.40388">
        <ele>372.6</ele>
        <time>2024-04-07T07:27:24Z</time>
      </trkpt>
      <trkpt lat="48.92442" lon="-0.40391">
        <ele>372.8</ele>
        <time>2024-04-07T07:27:25Z</time>
      </trkpt>
      <trkpt lat="48.92437" lon="-0.40394">
        <ele>373</ele>
        <time>2024-04-07T07:27:26Z</time>
      </trkpt>
      <trkpt lat="48.92432" lon="-0.40396">
        <ele>373.4</ele>
        <time>2024-04-07T07:27:27Z</time>
      </trkpt>
      <trkpt lat="48.92428" lon="-0.40399">
        <ele>373.4</ele>
        <time>2024-04-07T07:27:28Z</time>
      </trkpt>
      <trkpt lat="48.92424" lon="-0.40401">
        <ele>373.4</ele>
        <time>2024-04-07T07:27:29Z</time>
      </trkpt>
      <trkpt lat="48.92419" lon="-0.40404">
        <ele>373.6</ele>
        <time>2024-04-07T07:27:30Z</time>
      </trkpt>
      <trkpt lat="48.92415" lon="-0.40407">
        <ele>373.6</ele>
        <time>2024-04-07T07:27:31Z</time>
      </trkpt>
      <trkpt lat="48.92411" lon="-0.40411">
        <ele>373.8</ele>
        <time>2024-04-07T07:27:32Z</time>
      </trkpt>
      <trkpt lat="48.92406" lon="-0.40414">
        <ele>374.2</ele>
        <time>2024-04-07T07:27:33Z</time>
      </trkpt>
      <trkpt lat="48.92402" lon="-0.40417">
        <ele>374.4</ele>
        <time>2024-04-07T07:27:34Z</time>
      </trkpt>
      <trkpt lat="48.92398" lon="-0.40421">
        <ele>374.6</ele>
        <time>2024-04-07T07:27:35Z</time>
      </trkpt>
      <trkpt lat="48.92394" lon="-0.40424">
        <ele>374.8</ele>
        <time>2024-04-07T07:27:36Z</time>
      </trkpt>
      <trkpt lat="48.9239" lon="-0.40427">
        <ele>375</ele>
        <time>2024-04-07T07:27:37Z</time>
      </trkpt>
      <trkpt lat="48.92386" lon="-0.4043">
        <ele>375</ele>
        <time>2024-04-07T07:27:38Z</time>
      </trkpt>
      <trkpt lat="48.92382" lon="-0.40433">
        <ele>375</ele>
        <time>2024-04-07T07:27:39Z</time>
      </trkpt>
      <trkpt lat="48.92378" lon="-0.40436">
        <ele>375</ele>
        <time>2024-04-07T07:27:40Z</time>
      </trkpt>
      <trkpt lat="48.92373" lon="-0.4044">
        <ele>375.2</ele>
        <time>2024-04-07T07:27:41Z</time>
      </trkpt>
      <trkpt lat="48.92369" lon="-0.40443">
        <ele>375.2</ele>
        <time>2024-04-07T07:27:42Z</time>
      </trkpt>
      <trkpt lat="48.92365" lon="-0.40447">
        <ele>375.4</ele>
        <time>2024-04-07T07:27:43Z</time>
      </trkpt>
      <trkpt lat="48.92361" lon="-0.4045">
        <ele>375.6</ele>
        <time>2024-04-07T07:27:44Z</time>
      </trkpt>
      <trkpt lat="48.92357" lon="-0.40453">
        <ele>375.6</ele>
        <time>2024-04-07T07:27:45Z</time>
      </trkpt>
      <trkpt lat="48.92353" lon="-0.40456">
        <ele>375.8</ele>
        <time>2024-04-07T07:27:46Z</time>
      </trkpt>
      <trkpt lat="48.92348" lon="-0.4046">
        <ele>376</ele>
        <time>2024-04-07T07:27:47Z</time>
      </trkpt>
      <trkpt lat="48.92344" lon="-0.40463">
        <ele>376.2</ele>
        <time>2024-04-07T07:27:48Z</time>
      </trkpt>
      <trkpt lat="48.9234" lon="-0.40467">
        <ele>376.2</ele>
        <time>2024-04-07T07:27:49Z</time>
      </trkpt>
      <trkpt lat="48.92335" lon="-0.4047">
        <ele>376.4</ele>
        <time>2024-04-07T07:27:50Z</time>
      </trkpt>
      <trkpt lat="48.92331" lon="-0.40474">
        <ele>376.4</ele>
        <time>2024-04-07T07:27:51Z</time>
      </trkpt>
      <trkpt lat="48.92327" lon="-0.40478">
        <ele>376.4</ele>
        <time>2024-04-07T07:27:52Z</time>
      </trkpt>
      <trkpt lat="48.92322" lon="-0.40482">
        <ele>376.4</ele>
        <time>2024-04-07T07:27:53Z</time>
      </trkpt>
      <trkpt lat="48.92318" lon="-0.40485">
        <ele>376.4</ele>
        <time>2024-04-07T07:27:54Z</time>
      </trkpt>
      <trkpt lat="48.92313" lon="-0.40489">
        <ele>376.6</ele>
        <time>2024-04-07T07:27:55Z</time>
      </trkpt>
      <trkpt lat="48.92309" lon="-0.40493">
        <ele>376.6</ele>
        <time>2024-04-07T07:27:56Z</time>
      </trkpt>
      <trkpt lat="48.92304" lon="-0.40497">
        <ele>376.6</ele>
        <time>2024-04-07T07:27:57Z</time>
      </trkpt>
      <trkpt lat="48.923" lon="-0.405">
        <ele>376.8</ele>
        <time>2024-04-07T07:27:58Z</time>
      </trkpt>
      <trkpt lat="48.92295" lon="-0.40504">
        <ele>376.8</ele>
        <time>2024-04-07T07:27:59Z</time>
      </trkpt>
      <trkpt lat="48.9229" lon="-0.40508">
        <ele>377</ele>
        <time>2024-04-07T07:28:00Z</time>
      </trkpt>
      <trkpt lat="48.92285" lon="-0.40511">
        <ele>377</ele>
        <time>2024-04-07T07:28:01Z</time>
      </trkpt>
      <trkpt lat="48.9228" lon="-0.40515">
        <ele>377.4</ele>
        <time>2024-04-07T07:28:02Z</time>
      </trkpt>
      <trkpt lat="48.92275" lon="-0.40519">
        <ele>377.8</ele>
        <time>2024-04-07T07:28:03Z</time>
      </trkpt>
      <trkpt lat="48.9227" lon="-0.40523">
        <ele>378</ele>
        <time>2024-04-07T07:28:04Z</time>
      </trkpt>
      <trkpt lat="48.92265" lon="-0.40527">
        <ele>378.2</ele>
        <time>2024-04-07T07:28:05Z</time>
      </trkpt>
      <trkpt lat="48.9226" lon="-0.40531">
        <ele>378.2</ele>
        <time>2024-04-07T07:28:06Z</time>
      </trkpt>
      <trkpt lat="48.92255" lon="-0.40534">
        <ele>378.2</ele>
        <time>2024-04-07T07:28:07Z</time>
      </trkpt>
      <trkpt lat="48.9225" lon="-0.40538">
        <ele>378.4</ele>
        <time>2024-04-07T07:28:08Z</time>
      </trkpt>
      <trkpt lat="48.92246" lon="-0.40542">
        <ele>378.6</ele>
        <time>2024-04-07T07:28:09Z</time>
      </trkpt>
      <trkpt lat="48.92241" lon="-0.40545">
        <ele>378.8</ele>
        <time>2024-04-07T07:28:10Z</time>
      </trkpt>
      <trkpt lat="48.92236" lon="-0.40549">
        <ele>379</ele>
        <time>2024-04-07T07:28:11Z</time>
      </trkpt>
      <trkpt lat="48.92231" lon="-0.40553">
        <ele>379</ele>
        <time>2024-04-07T07:28:12Z</time>
      </trkpt>
      <trkpt lat="48.92227" lon="-0.40557">
        <ele>379</ele>
        <time>2024-04-07T07:28:13Z</time>
      </trkpt>
      <trkpt lat="48.92222" lon="-0.40561">
        <ele>379.2</ele>
        <time>2024-04-07T07:28:14Z</time>
      </trkpt>
      <trkpt lat="48.92217" lon="-0.40565">
        <ele>379.2</ele>
        <time>2024-04-07T07:28:15Z</time>
      </trkpt>
      <trkpt lat="48.92212" lon="-0.40569">
        <ele>379.2</ele>
        <time>2024-04-07T07:28:16Z</time>
      </trkpt>
      <trkpt lat="48.92207" lon="-0.40573">
        <ele>379.2</ele>
        <time>2024-04-07T07:28:17Z</time>
      </trkpt>
      <trkpt lat="48.92202" lon="-0.40577">
        <ele>379.4</ele>
        <time>2024-04-07T07:28:18Z</time>
      </trkpt>
      <trkpt lat="48.92197" lon="-0.40581">
        <ele>379.4</ele>
        <time>2024-04-07T07:28:19Z</time>
      </trkpt>
      <trkpt lat="48.92193" lon="-0.40586">
        <ele>379.4</ele>
        <time>2024-04-07T07:28:20Z</time>
      </trkpt>
      <trkpt lat="48.92188" lon="-0.40591">
        <ele>379.4</ele>
        <time>2024-04-07T07:28:21Z</time>
      </trkpt>
      <trkpt lat="48.92183" lon="-0.40595">
        <ele>379.4</ele>
        <time>2024-04-07T07:28:22Z</time>
      </trkpt>
      <trkpt lat="48.92179" lon="-0.406">
        <ele>379.4</ele>
        <time>2024-04-07T07:28:23Z</time>
      </trkpt>
      <trkpt lat="48.92174" lon="-0.40605">
        <ele>379.4</ele>
        <time>2024-04-07T07:28:24Z</time>
      </trkpt>
      <trkpt lat="48.9217" lon="-0.40611">
        <ele>379.4</ele>
        <time>2024-04-07T07:28:25Z</time>
      </trkpt>
      <trkpt lat="48.92165" lon="-0.40616">
        <ele>379.4</ele>
        <time>2024-04-07T07:28:26Z</time>
      </trkpt>
      <trkpt lat="48.9216" lon="-0.40622">
        <ele>379.4</ele>
        <time>2024-04-07T07:28:27Z</time>
      </trkpt>
      <trkpt lat="48.92156" lon="-0.40628">
        <ele>379.6</ele>
        <time>2024-04-07T07:28:28Z</time>
      </trkpt>
      <trkpt lat="48.92152" lon="-0.40635">
        <ele>379.8</ele>
        <time>2024-04-07T07:28:29Z</time>
      </trkpt>
      <trkpt lat="48.92148" lon="-0.40641">
        <ele>380</ele>
        <time>2024-04-07T07:28:30Z</time>
      </trkpt>
      <trkpt lat="48.92144" lon="-0.40648">
        <ele>380.2</ele>
        <time>2024-04-07T07:28:31Z</time>
      </trkpt>
      <trkpt lat="48.9214" lon="-0.40654">
        <ele>380.4</ele>
        <time>2024-04-07T07:28:32Z</time>
      </trkpt>
      <trkpt lat="48.92136" lon="-0.40662">
        <ele>380.6</ele>
        <time>2024-04-07T07:28:33Z</time>
      </trkpt>
      <trkpt lat="48.92133" lon="-0.40669">
        <ele>380.8</ele>
        <time>2024-04-07T07:28:34Z</time>
      </trkpt>
      <trkpt lat="48.92129" lon="-0.40676">
        <ele>381</ele>
        <time>2024-04-07T07:28:35Z</time>
      </trkpt>
      <trkpt lat="48.92126" lon="-0.40683">
        <ele>381.2</ele>
        <time>2024-04-07T07:28:36Z</time>
      </trkpt>
      <trkpt lat="48.92123" lon="-0.40691">
        <ele>381.2</ele>
        <time>2024-04-07T07:28:37Z</time>
      </trkpt>
      <trkpt lat="48.9212" lon="-0.40698">
        <ele>381.2</ele>
        <time>2024-04-07T07:28:38Z</time>
      </trkpt>
      <trkpt lat="48.92117" lon="-0.40706">
        <ele>381.2</ele>
        <time>2024-04-07T07:28:39Z</time>
      </trkpt>
      <trkpt lat="48.92114" lon="-0.40713">
        <ele>381.4</ele>
        <time>2024-04-07T07:28:40Z</time>
      </trkpt>
      <trkpt lat="48.92111" lon="-0.4072">
        <ele>381.6</ele>
        <time>2024-04-07T07:28:41Z</time>
      </trkpt>
      <trkpt lat="48.92109" lon="-0.40727">
        <ele>381.8</ele>
        <time>2024-04-07T07:28:42Z</time>
      </trkpt>
      <trkpt lat="48.92106" lon="-0.40735">
        <ele>381.8</ele>
        <time>2024-04-07T07:28:43Z</time>
      </trkpt>
      <trkpt lat="48.92104" lon="-0.40742">
        <ele>381.8</ele>
        <time>2024-04-07T07:28:44Z</time>
      </trkpt>
      <trkpt lat="48.92102" lon="-0.40749">
        <ele>382</ele>
        <time>2024-04-07T07:28:45Z</time>
      </trkpt>
      <trkpt lat="48.921" lon="-0.40755">
        <ele>382.2</ele>
        <time>2024-04-07T07:28:46Z</time>
      </trkpt>
      <trkpt lat="48.92098" lon="-0.40762">
        <ele>382.6</ele>
        <time>2024-04-07T07:28:47Z</time>
      </trkpt>
      <trkpt lat="48.92096" lon="-0.40769">
        <ele>383</ele>
        <time>2024-04-07T07:28:48Z</time>
      </trkpt>
      <trkpt lat="48.92094" lon="-0.40777">
        <ele>383.4</ele>
        <time>2024-04-07T07:28:49Z</time>
      </trkpt>
      <trkpt lat="48.92093" lon="-0.40784">
        <ele>383.6</ele>
        <time>2024-04-07T07:28:50Z</time>
      </trkpt>
      <trkpt lat="48.92091" lon="-0.40792">
        <ele>383.8</ele>
        <time>2024-04-07T07:28:51Z</time>
      </trkpt>
      <trkpt lat="48.9209" lon="-0.408">
        <ele>384</ele>
        <time>2024-04-07T07:28:52Z</time>
      </trkpt>
      <trkpt lat="48.92088" lon="-0.40808">
        <ele>384</ele>
        <time>2024-04-07T07:28:53Z</time>
      </trkpt>
      <trkpt lat="48.92086" lon="-0.40816">
        <ele>384.2</ele>
        <time>2024-04-07T07:28:54Z</time>
      </trkpt>
      <trkpt lat="48.92085" lon="-0.40824">
        <ele>384.6</ele>
        <time>2024-04-07T07:28:55Z</time>
      </trkpt>
      <trkpt lat="48.92084" lon="-0.40833">
        <ele>385</ele>
        <time>2024-04-07T07:28:56Z</time>
      </trkpt>
      <trkpt lat="48.92083" lon="-0.40841">
        <ele>385.4</ele>
        <time>2024-04-07T07:28:57Z</time>
      </trkpt>
      <trkpt lat="48.92082" lon="-0.40849">
        <ele>385.8</ele>
        <time>2024-04-07T07:28:58Z</time>
      </trkpt>
      <trkpt lat="48.92081" lon="-0.40857">
        <ele>386</ele>
        <time>2024-04-07T07:28:59Z</time>
      </trkpt>
      <trkpt lat="48.9208" lon="-0.40865">
        <ele>386</ele>
        <time>2024-04-07T07:29:00Z</time>
      </trkpt>
      <trkpt lat="48.9208" lon="-0.40874">
        <ele>386.4</ele>
        <time>2024-04-07T07:29:01Z</time>
      </trkpt>
      <trkpt lat="48.92079" lon="-0.40882">
        <ele>387</ele>
        <time>2024-04-07T07:29:02Z</time>
      </trkpt>
      <trkpt lat="48.92079" lon="-0.4089">
        <ele>387.4</ele>
        <time>2024-04-07T07:29:03Z</time>
      </trkpt>
      <trkpt lat="48.9208" lon="-0.40906">
        <ele>387.6</ele>
        <time>2024-04-07T07:29:04Z</time>
      </trkpt>
      <trkpt lat="48.9208" lon="-0.4091">
        <ele>387.8</ele>
        <time>2024-04-07T07:29:05Z</time>
      </trkpt>
      <trkpt lat="48.9208" lon="-0.40914">
        <ele>387.8</ele>
        <time>2024-04-07T07:29:06Z</time>
      </trkpt>
      <trkpt lat="48.92079" lon="-0.40923">
        <ele>387.8</ele>
        <time>2024-04-07T07:29:07Z</time>
      </trkpt>
      <trkpt lat="48.92079" lon="-0.40931">
        <ele>387.8</ele>
        <time>2024-04-07T07:29:08Z</time>
      </trkpt>
      <trkpt lat="48.92079" lon="-0.40939">
        <ele>387.4</ele>
        <time>2024-04-07T07:29:09Z</time>
      </trkpt>
      <trkpt lat="48.92078" lon="-0.40948">
        <ele>387.4</ele>
        <time>2024-04-07T07:29:10Z</time>
      </trkpt>
      <trkpt lat="48.92077" lon="-0.40956">
        <ele>387.2</ele>
        <time>2024-04-07T07:29:11Z</time>
      </trkpt>
      <trkpt lat="48.92076" lon="-0.40964">
        <ele>387.2</ele>
        <time>2024-04-07T07:29:12Z</time>
      </trkpt>
      <trkpt lat="48.92075" lon="-0.40971">
        <ele>387.2</ele>
        <time>2024-04-07T07:29:13Z</time>
      </trkpt>
      <trkpt lat="48.92073" lon="-0.40979">
        <ele>387.4</ele>
        <time>2024-04-07T07:29:14Z</time>
      </trkpt>
      <trkpt lat="48.92072" lon="-0.40986">
        <ele>387.6</ele>
        <time>2024-04-07T07:29:15Z</time>
      </trkpt>
      <trkpt lat="48.9207" lon="-0.40993">
        <ele>387.6</ele>
        <time>2024-04-07T07:29:16Z</time>
      </trkpt>
      <trkpt lat="48.92069" lon="-0.41">
        <ele>387.6</ele>
        <time>2024-04-07T07:29:17Z</time>
      </trkpt>
      <trkpt lat="48.92066" lon="-0.41006">
        <ele>387.6</ele>
        <time>2024-04-07T07:29:18Z</time>
      </trkpt>
      <trkpt lat="48.92064" lon="-0.41012">
        <ele>387.6</ele>
        <time>2024-04-07T07:29:19Z</time>
      </trkpt>
      <trkpt lat="48.92061" lon="-0.41019">
        <ele>387.4</ele>
        <time>2024-04-07T07:29:20Z</time>
      </trkpt>
      <trkpt lat="48.92058" lon="-0.41025">
        <ele>387.2</ele>
        <time>2024-04-07T07:29:21Z</time>
      </trkpt>
      <trkpt lat="48.92055" lon="-0.41031">
        <ele>386.8</ele>
        <time>2024-04-07T07:29:22Z</time>
      </trkpt>
      <trkpt lat="48.92051" lon="-0.41038">
        <ele>386.4</ele>
        <time>2024-04-07T07:29:23Z</time>
      </trkpt>
      <trkpt lat="48.92047" lon="-0.41043">
        <ele>385.8</ele>
        <time>2024-04-07T07:29:24Z</time>
      </trkpt>
      <trkpt lat="48.92043" lon="-0.41049">
        <ele>385.2</ele>
        <time>2024-04-07T07:29:25Z</time>
      </trkpt>
      <trkpt lat="48.92039" lon="-0.41053">
        <ele>385</ele>
        <time>2024-04-07T07:29:26Z</time>
      </trkpt>
      <trkpt lat="48.92035" lon="-0.41058">
        <ele>384.6</ele>
        <time>2024-04-07T07:29:27Z</time>
      </trkpt>
      <trkpt lat="48.9203" lon="-0.41063">
        <ele>384.4</ele>
        <time>2024-04-07T07:29:28Z</time>
      </trkpt>
      <trkpt lat="48.92025" lon="-0.41069">
        <ele>384</ele>
        <time>2024-04-07T07:29:29Z</time>
      </trkpt>
      <trkpt lat="48.92019" lon="-0.41074">
        <ele>383.8</ele>
        <time>2024-04-07T07:29:30Z</time>
      </trkpt>
      <trkpt lat="48.92014" lon="-0.41079">
        <ele>383.6</ele>
        <time>2024-04-07T07:29:31Z</time>
      </trkpt>
      <trkpt lat="48.92009" lon="-0.41085">
        <ele>383.6</ele>
        <time>2024-04-07T07:29:32Z</time>
      </trkpt>
      <trkpt lat="48.92004" lon="-0.41091">
        <ele>383.2</ele>
        <time>2024-04-07T07:29:33Z</time>
      </trkpt>
      <trkpt lat="48.91998" lon="-0.41097">
        <ele>382.8</ele>
        <time>2024-04-07T07:29:34Z</time>
      </trkpt>
      <trkpt lat="48.91992" lon="-0.41102">
        <ele>382.2</ele>
        <time>2024-04-07T07:29:35Z</time>
      </trkpt>
      <trkpt lat="48.91986" lon="-0.41107">
        <ele>381.6</ele>
        <time>2024-04-07T07:29:36Z</time>
      </trkpt>
      <trkpt lat="48.9198" lon="-0.41112">
        <ele>381.2</ele>
        <time>2024-04-07T07:29:37Z</time>
      </trkpt>
      <trkpt lat="48.91973" lon="-0.41115">
        <ele>380.8</ele>
        <time>2024-04-07T07:29:38Z</time>
      </trkpt>
      <trkpt lat="48.91966" lon="-0.41117">
        <ele>380.4</ele>
        <time>2024-04-07T07:29:39Z</time>
      </trkpt>
      <trkpt lat="48.91958" lon="-0.41118">
        <ele>379.8</ele>
        <time>2024-04-07T07:29:40Z</time>
      </trkpt>
      <trkpt lat="48.9195" lon="-0.41118">
        <ele>379.2</ele>
        <time>2024-04-07T07:29:41Z</time>
      </trkpt>
      <trkpt lat="48.91941" lon="-0.41119">
        <ele>378.6</ele>
        <time>2024-04-07T07:29:42Z</time>
      </trkpt>
      <trkpt lat="48.91932" lon="-0.4112">
        <ele>378.2</ele>
        <time>2024-04-07T07:29:43Z</time>
      </trkpt>
      <trkpt lat="48.91923" lon="-0.4112">
        <ele>377.6</ele>
        <time>2024-04-07T07:29:44Z</time>
      </trkpt>
      <trkpt lat="48.91915" lon="-0.4112">
        <ele>377.2</ele>
        <time>2024-04-07T07:29:45Z</time>
      </trkpt>
      <trkpt lat="48.91906" lon="-0.4112">
        <ele>376.8</ele>
        <time>2024-04-07T07:29:46Z</time>
      </trkpt>
      <trkpt lat="48.91898" lon="-0.4112">
        <ele>376.2</ele>
        <time>2024-04-07T07:29:47Z</time>
      </trkpt>
      <trkpt lat="48.91889" lon="-0.41119">
        <ele>375.4</ele>
        <time>2024-04-07T07:29:48Z</time>
      </trkpt>
      <trkpt lat="48.91881" lon="-0.41119">
        <ele>374.4</ele>
        <time>2024-04-07T07:29:49Z</time>
      </trkpt>
      <trkpt lat="48.91872" lon="-0.41118">
        <ele>373.4</ele>
        <time>2024-04-07T07:29:50Z</time>
      </trkpt>
      <trkpt lat="48.91864" lon="-0.41118">
        <ele>372.4</ele>
        <time>2024-04-07T07:29:51Z</time>
      </trkpt>
      <trkpt lat="48.91855" lon="-0.41117">
        <ele>371.8</ele>
        <time>2024-04-07T07:29:52Z</time>
      </trkpt>
      <trkpt lat="48.91847" lon="-0.41116">
        <ele>371.4</ele>
        <time>2024-04-07T07:29:53Z</time>
      </trkpt>
      <trkpt lat="48.91838" lon="-0.41115">
        <ele>371</ele>
        <time>2024-04-07T07:29:54Z</time>
      </trkpt>
      <trkpt lat="48.91829" lon="-0.41115">
        <ele>370.4</ele>
        <time>2024-04-07T07:29:55Z</time>
      </trkpt>
      <trkpt lat="48.9182" lon="-0.41114">
        <ele>369.6</ele>
        <time>2024-04-07T07:29:56Z</time>
      </trkpt>
      <trkpt lat="48.91811" lon="-0.41113">
        <ele>368.8</ele>
        <time>2024-04-07T07:29:57Z</time>
      </trkpt>
      <trkpt lat="48.91802" lon="-0.41112">
        <ele>368.4</ele>
        <time>2024-04-07T07:29:58Z</time>
      </trkpt>
      <trkpt lat="48.91793" lon="-0.41111">
        <ele>367.8</ele>
        <time>2024-04-07T07:29:59Z</time>
      </trkpt>
      <trkpt lat="48.91783" lon="-0.4111">
        <ele>367</ele>
        <time>2024-04-07T07:30:00Z</time>
      </trkpt>
      <trkpt lat="48.91775" lon="-0.41108">
        <ele>366.2</ele>
        <time>2024-04-07T07:30:01Z</time>
      </trkpt>
      <trkpt lat="48.91766" lon="-0.41106">
        <ele>365.6</ele>
        <time>2024-04-07T07:30:02Z</time>
      </trkpt>
      <trkpt lat="48.91757" lon="-0.41103">
        <ele>364.8</ele>
        <time>2024-04-07T07:30:03Z</time>
      </trkpt>
      <trkpt lat="48.91747" lon="-0.411">
        <ele>364</ele>
        <time>2024-04-07T07:30:04Z</time>
      </trkpt>
      <trkpt lat="48.91738" lon="-0.41097">
        <ele>363.4</ele>
        <time>2024-04-07T07:30:05Z</time>
      </trkpt>
      <trkpt lat="48.91728" lon="-0.41094">
        <ele>362.6</ele>
        <time>2024-04-07T07:30:06Z</time>
      </trkpt>
      <trkpt lat="48.91719" lon="-0.41092">
        <ele>361.8</ele>
        <time>2024-04-07T07:30:07Z</time>
      </trkpt>
      <trkpt lat="48.91709" lon="-0.41089">
        <ele>361.2</ele>
        <time>2024-04-07T07:30:08Z</time>
      </trkpt>
      <trkpt lat="48.91699" lon="-0.41088">
        <ele>360.6</ele>
        <time>2024-04-07T07:30:09Z</time>
      </trkpt>
      <trkpt lat="48.91689" lon="-0.41087">
        <ele>360.4</ele>
        <time>2024-04-07T07:30:10Z</time>
      </trkpt>
      <trkpt lat="48.91679" lon="-0.41087">
        <ele>360.2</ele>
        <time>2024-04-07T07:30:11Z</time>
      </trkpt>
      <trkpt lat="48.91669" lon="-0.41088">
        <ele>360</ele>
        <time>2024-04-07T07:30:12Z</time>
      </trkpt>
      <trkpt lat="48.91659" lon="-0.4109">
        <ele>359.4</ele>
        <time>2024-04-07T07:30:13Z</time>
      </trkpt>
      <trkpt lat="48.91648" lon="-0.41092">
        <ele>358.4</ele>
        <time>2024-04-07T07:30:14Z</time>
      </trkpt>
      <trkpt lat="48.91638" lon="-0.41095">
        <ele>357.4</ele>
        <time>2024-04-07T07:30:15Z</time>
      </trkpt>
      <trkpt lat="48.91628" lon="-0.41098">
        <ele>356.2</ele>
        <time>2024-04-07T07:30:16Z</time>
      </trkpt>
      <trkpt lat="48.91618" lon="-0.41101">
        <ele>355</ele>
        <time>2024-04-07T07:30:17Z</time>
      </trkpt>
      <trkpt lat="48.91607" lon="-0.41104">
        <ele>354</ele>
        <time>2024-04-07T07:30:18Z</time>
      </trkpt>
      <trkpt lat="48.91597" lon="-0.41107">
        <ele>353.4</ele>
        <time>2024-04-07T07:30:19Z</time>
      </trkpt>
      <trkpt lat="48.91587" lon="-0.41111">
        <ele>353</ele>
        <time>2024-04-07T07:30:20Z</time>
      </trkpt>
      <trkpt lat="48.91576" lon="-0.41113">
        <ele>352.8</ele>
        <time>2024-04-07T07:30:21Z</time>
      </trkpt>
      <trkpt lat="48.9156" lon="-0.41117">
        <ele>352.8</ele>
        <time>2024-04-07T07:30:22Z</time>
      </trkpt>
      <trkpt lat="48.91555" lon="-0.41117">
        <ele>352.6</ele>
        <time>2024-04-07T07:30:23Z</time>
      </trkpt>
      <trkpt lat="48.91544" lon="-0.41118">
        <ele>352.2</ele>
        <time>2024-04-07T07:30:24Z</time>
      </trkpt>
      <trkpt lat="48.91532" lon="-0.41117">
        <ele>351.8</ele>
        <time>2024-04-07T07:30:25Z</time>
      </trkpt>
      <trkpt lat="48.91521" lon="-0.41115">
        <ele>351.2</ele>
        <time>2024-04-07T07:30:26Z</time>
      </trkpt>
      <trkpt lat="48.9151" lon="-0.41112">
        <ele>350.4</ele>
        <time>2024-04-07T07:30:27Z</time>
      </trkpt>
      <trkpt lat="48.91499" lon="-0.41107">
        <ele>349.6</ele>
        <time>2024-04-07T07:30:28Z</time>
      </trkpt>
      <trkpt lat="48.91488" lon="-0.41102">
        <ele>348.6</ele>
        <time>2024-04-07T07:30:29Z</time>
      </trkpt>
      <trkpt lat="48.91478" lon="-0.41095">
        <ele>348</ele>
        <time>2024-04-07T07:30:30Z</time>
      </trkpt>
      <trkpt lat="48.91469" lon="-0.41088">
        <ele>347.8</ele>
        <time>2024-04-07T07:30:31Z</time>
      </trkpt>
      <trkpt lat="48.9146" lon="-0.4108">
        <ele>347.6</ele>
        <time>2024-04-07T07:30:32Z</time>
      </trkpt>
      <trkpt lat="48.91451" lon="-0.41072">
        <ele>347.6</ele>
        <time>2024-04-07T07:30:33Z</time>
      </trkpt>
      <trkpt lat="48.91444" lon="-0.41062">
        <ele>347.6</ele>
        <time>2024-04-07T07:30:34Z</time>
      </trkpt>
      <trkpt lat="48.91436" lon="-0.41053">
        <ele>347.6</ele>
        <time>2024-04-07T07:30:35Z</time>
      </trkpt>
      <trkpt lat="48.9143" lon="-0.41043">
        <ele>347.8</ele>
        <time>2024-04-07T07:30:36Z</time>
      </trkpt>
      <trkpt lat="48.91423" lon="-0.41033">
        <ele>348</ele>
        <time>2024-04-07T07:30:37Z</time>
      </trkpt>
      <trkpt lat="48.91416" lon="-0.41024">
        <ele>348.2</ele>
        <time>2024-04-07T07:30:38Z</time>
      </trkpt>
      <trkpt lat="48.91409" lon="-0.41014">
        <ele>348.6</ele>
        <time>2024-04-07T07:30:39Z</time>
      </trkpt>
      <trkpt lat="48.91403" lon="-0.41004">
        <ele>349</ele>
        <time>2024-04-07T07:30:40Z</time>
      </trkpt>
      <trkpt lat="48.91397" lon="-0.40995">
        <ele>349.4</ele>
        <time>2024-04-07T07:30:41Z</time>
      </trkpt>
      <trkpt lat="48.91391" lon="-0.40986">
        <ele>349.6</ele>
        <time>2024-04-07T07:30:42Z</time>
      </trkpt>
      <trkpt lat="48.91385" lon="-0.40977">
        <ele>350</ele>
        <time>2024-04-07T07:30:43Z</time>
      </trkpt>
      <trkpt lat="48.9138" lon="-0.40969">
        <ele>350.4</ele>
        <time>2024-04-07T07:30:44Z</time>
      </trkpt>
      <trkpt lat="48.91375" lon="-0.40961">
        <ele>350.8</ele>
        <time>2024-04-07T07:30:45Z</time>
      </trkpt>
      <trkpt lat="48.9137" lon="-0.40953">
        <ele>351</ele>
        <time>2024-04-07T07:30:46Z</time>
      </trkpt>
      <trkpt lat="48.91365" lon="-0.40945">
        <ele>351.2</ele>
        <time>2024-04-07T07:30:47Z</time>
      </trkpt>
      <trkpt lat="48.9136" lon="-0.40937">
        <ele>351.4</ele>
        <time>2024-04-07T07:30:48Z</time>
      </trkpt>
      <trkpt lat="48.91355" lon="-0.40929">
        <ele>351.6</ele>
        <time>2024-04-07T07:30:49Z</time>
      </trkpt>
      <trkpt lat="48.9135" lon="-0.4092">
        <ele>351.6</ele>
        <time>2024-04-07T07:30:50Z</time>
      </trkpt>
      <trkpt lat="48.91344" lon="-0.40912">
        <ele>351.6</ele>
        <time>2024-04-07T07:30:51Z</time>
      </trkpt>
      <trkpt lat="48.91339" lon="-0.40904">
        <ele>351.6</ele>
        <time>2024-04-07T07:30:52Z</time>
      </trkpt>
      <trkpt lat="48.91334" lon="-0.40896">
        <ele>351.6</ele>
        <time>2024-04-07T07:30:53Z</time>
      </trkpt>
      <trkpt lat="48.9133" lon="-0.40887">
        <ele>351.4</ele>
        <time>2024-04-07T07:30:54Z</time>
      </trkpt>
      <trkpt lat="48.91325" lon="-0.40879">
        <ele>351</ele>
        <time>2024-04-07T07:30:55Z</time>
      </trkpt>
      <trkpt lat="48.9132" lon="-0.40871">
        <ele>350.8</ele>
        <time>2024-04-07T07:30:56Z</time>
      </trkpt>
      <trkpt lat="48.91315" lon="-0.40863">
        <ele>350.6</ele>
        <time>2024-04-07T07:30:57Z</time>
      </trkpt>
      <trkpt lat="48.9131" lon="-0.40854">
        <ele>350.4</ele>
        <time>2024-04-07T07:30:58Z</time>
      </trkpt>
      <trkpt lat="48.91305" lon="-0.40846">
        <ele>350.2</ele>
        <time>2024-04-07T07:30:59Z</time>
      </trkpt>
      <trkpt lat="48.913" lon="-0.40837">
        <ele>350.2</ele>
        <time>2024-04-07T07:31:00Z</time>
      </trkpt>
      <trkpt lat="48.91295" lon="-0.40828">
        <ele>350.2</ele>
        <time>2024-04-07T07:31:01Z</time>
      </trkpt>
      <trkpt lat="48.91291" lon="-0.40819">
        <ele>350</ele>
        <time>2024-04-07T07:31:02Z</time>
      </trkpt>
      <trkpt lat="48.91287" lon="-0.4081">
        <ele>349.8</ele>
        <time>2024-04-07T07:31:03Z</time>
      </trkpt>
      <trkpt lat="48.91284" lon="-0.40801">
        <ele>349.4</ele>
        <time>2024-04-07T07:31:04Z</time>
      </trkpt>
      <trkpt lat="48.91282" lon="-0.4079">
        <ele>349</ele>
        <time>2024-04-07T07:31:05Z</time>
      </trkpt>
      <trkpt lat="48.9128" lon="-0.40778">
        <ele>348.6</ele>
        <time>2024-04-07T07:31:06Z</time>
      </trkpt>
      <trkpt lat="48.91278" lon="-0.40765">
        <ele>348</ele>
        <time>2024-04-07T07:31:07Z</time>
      </trkpt>
      <trkpt lat="48.91277" lon="-0.40751">
        <ele>347.4</ele>
        <time>2024-04-07T07:31:08Z</time>
      </trkpt>
      <trkpt lat="48.91276" lon="-0.40737">
        <ele>347</ele>
        <time>2024-04-07T07:31:09Z</time>
      </trkpt>
      <trkpt lat="48.91274" lon="-0.40721">
        <ele>346.4</ele>
        <time>2024-04-07T07:31:10Z</time>
      </trkpt>
      <trkpt lat="48.91272" lon="-0.40707">
        <ele>345.6</ele>
        <time>2024-04-07T07:31:11Z</time>
      </trkpt>
      <trkpt lat="48.91269" lon="-0.40695">
        <ele>344.8</ele>
        <time>2024-04-07T07:31:12Z</time>
      </trkpt>
      <trkpt lat="48.91257" lon="-0.40677">
        <ele>343.8</ele>
        <time>2024-04-07T07:31:13Z</time>
      </trkpt>
      <trkpt lat="48.91253" lon="-0.40675">
        <ele>342.8</ele>
        <time>2024-04-07T07:31:14Z</time>
      </trkpt>
      <trkpt lat="48.91249" lon="-0.40673">
        <ele>341.8</ele>
        <time>2024-04-07T07:31:15Z</time>
      </trkpt>
      <trkpt lat="48.91241" lon="-0.40669">
        <ele>341</ele>
        <time>2024-04-07T07:31:16Z</time>
      </trkpt>
      <trkpt lat="48.91233" lon="-0.40666">
        <ele>340</ele>
        <time>2024-04-07T07:31:17Z</time>
      </trkpt>
      <trkpt lat="48.91223" lon="-0.40665">
        <ele>338.8</ele>
        <time>2024-04-07T07:31:18Z</time>
      </trkpt>
      <trkpt lat="48.91211" lon="-0.40665">
        <ele>338</ele>
        <time>2024-04-07T07:31:19Z</time>
      </trkpt>
      <trkpt lat="48.91201" lon="-0.40664">
        <ele>337.4</ele>
        <time>2024-04-07T07:31:20Z</time>
      </trkpt>
      <trkpt lat="48.9119" lon="-0.40663">
        <ele>336.8</ele>
        <time>2024-04-07T07:31:21Z</time>
      </trkpt>
      <trkpt lat="48.91179" lon="-0.40661">
        <ele>336.2</ele>
        <time>2024-04-07T07:31:22Z</time>
      </trkpt>
      <trkpt lat="48.91168" lon="-0.4066">
        <ele>335.8</ele>
        <time>2024-04-07T07:31:23Z</time>
      </trkpt>
      <trkpt lat="48.91155" lon="-0.40659">
        <ele>335.2</ele>
        <time>2024-04-07T07:31:24Z</time>
      </trkpt>
      <trkpt lat="48.91143" lon="-0.40657">
        <ele>334.4</ele>
        <time>2024-04-07T07:31:25Z</time>
      </trkpt>
      <trkpt lat="48.9113" lon="-0.40655">
        <ele>333.8</ele>
        <time>2024-04-07T07:31:26Z</time>
      </trkpt>
      <trkpt lat="48.91118" lon="-0.40654">
        <ele>333</ele>
        <time>2024-04-07T07:31:27Z</time>
      </trkpt>
      <trkpt lat="48.91104" lon="-0.40651">
        <ele>332.2</ele>
        <time>2024-04-07T07:31:28Z</time>
      </trkpt>
      <trkpt lat="48.91092" lon="-0.40648">
        <ele>331</ele>
        <time>2024-04-07T07:31:29Z</time>
      </trkpt>
      <trkpt lat="48.9108" lon="-0.40647">
        <ele>329.8</ele>
        <time>2024-04-07T07:31:30Z</time>
      </trkpt>
      <trkpt lat="48.91068" lon="-0.40643">
        <ele>329</ele>
        <time>2024-04-07T07:31:31Z</time>
      </trkpt>
      <trkpt lat="48.91056" lon="-0.40638">
        <ele>328.4</ele>
        <time>2024-04-07T07:31:32Z</time>
      </trkpt>
      <trkpt lat="48.91042" lon="-0.40632">
        <ele>327.6</ele>
        <time>2024-04-07T07:31:33Z</time>
      </trkpt>
      <trkpt lat="48.91028" lon="-0.40627">
        <ele>326.8</ele>
        <time>2024-04-07T07:31:34Z</time>
      </trkpt>
      <trkpt lat="48.91015" lon="-0.40621">
        <ele>326</ele>
        <time>2024-04-07T07:31:35Z</time>
      </trkpt>
      <trkpt lat="48.91001" lon="-0.40617">
        <ele>325.2</ele>
        <time>2024-04-07T07:31:36Z</time>
      </trkpt>
      <trkpt lat="48.90989" lon="-0.40613">
        <ele>324.4</ele>
        <time>2024-04-07T07:31:37Z</time>
      </trkpt>
      <trkpt lat="48.90975" lon="-0.40611">
        <ele>323.4</ele>
        <time>2024-04-07T07:31:38Z</time>
      </trkpt>
      <trkpt lat="48.90962" lon="-0.40614">
        <ele>322.4</ele>
        <time>2024-04-07T07:31:39Z</time>
      </trkpt>
      <trkpt lat="48.90951" lon="-0.40618">
        <ele>321.4</ele>
        <time>2024-04-07T07:31:40Z</time>
      </trkpt>
      <trkpt lat="48.9094" lon="-0.40625">
        <ele>320.6</ele>
        <time>2024-04-07T07:31:41Z</time>
      </trkpt>
      <trkpt lat="48.90929" lon="-0.40635">
        <ele>319.8</ele>
        <time>2024-04-07T07:31:42Z</time>
      </trkpt>
      <trkpt lat="48.90919" lon="-0.40646">
        <ele>318.8</ele>
        <time>2024-04-07T07:31:43Z</time>
      </trkpt>
      <trkpt lat="48.90911" lon="-0.4066">
        <ele>318</ele>
        <time>2024-04-07T07:31:44Z</time>
      </trkpt>
      <trkpt lat="48.90902" lon="-0.40674">
        <ele>317.6</ele>
        <time>2024-04-07T07:31:45Z</time>
      </trkpt>
      <trkpt lat="48.90894" lon="-0.40689">
        <ele>317</ele>
        <time>2024-04-07T07:31:46Z</time>
      </trkpt>
      <trkpt lat="48.90886" lon="-0.40703">
        <ele>316.4</ele>
        <time>2024-04-07T07:31:47Z</time>
      </trkpt>
      <trkpt lat="48.90877" lon="-0.40717">
        <ele>315.8</ele>
        <time>2024-04-07T07:31:48Z</time>
      </trkpt>
      <trkpt lat="48.90867" lon="-0.4073">
        <ele>315.2</ele>
        <time>2024-04-07T07:31:49Z</time>
      </trkpt>
      <trkpt lat="48.90858" lon="-0.40741">
        <ele>314.6</ele>
        <time>2024-04-07T07:31:50Z</time>
      </trkpt>
      <trkpt lat="48.90847" lon="-0.4075">
        <ele>313.4</ele>
        <time>2024-04-07T07:31:51Z</time>
      </trkpt>
      <trkpt lat="48.90837" lon="-0.40759">
        <ele>312.4</ele>
        <time>2024-04-07T07:31:52Z</time>
      </trkpt>
      <trkpt lat="48.90825" lon="-0.40766">
        <ele>311.2</ele>
        <time>2024-04-07T07:31:53Z</time>
      </trkpt>
      <trkpt lat="48.90814" lon="-0.40773">
        <ele>310.2</ele>
        <time>2024-04-07T07:31:54Z</time>
      </trkpt>
      <trkpt lat="48.90802" lon="-0.40778">
        <ele>309.4</ele>
        <time>2024-04-07T07:31:55Z</time>
      </trkpt>
      <trkpt lat="48.90789" lon="-0.40782">
        <ele>308.8</ele>
        <time>2024-04-07T07:31:56Z</time>
      </trkpt>
      <trkpt lat="48.90777" lon="-0.40785">
        <ele>308</ele>
        <time>2024-04-07T07:31:57Z</time>
      </trkpt>
      <trkpt lat="48.90764" lon="-0.40786">
        <ele>307</ele>
        <time>2024-04-07T07:31:58Z</time>
      </trkpt>
      <trkpt lat="48.90751" lon="-0.40786">
        <ele>306</ele>
        <time>2024-04-07T07:31:59Z</time>
      </trkpt>
      <trkpt lat="48.90737" lon="-0.40785">
        <ele>305</ele>
        <time>2024-04-07T07:32:00Z</time>
      </trkpt>
      <trkpt lat="48.90724" lon="-0.40783">
        <ele>303.8</ele>
        <time>2024-04-07T07:32:01Z</time>
      </trkpt>
      <trkpt lat="48.90711" lon="-0.40782">
        <ele>302</ele>
        <time>2024-04-07T07:32:02Z</time>
      </trkpt>
      <trkpt lat="48.90698" lon="-0.40782">
        <ele>300.8</ele>
        <time>2024-04-07T07:32:03Z</time>
      </trkpt>
      <trkpt lat="48.90685" lon="-0.40781">
        <ele>300</ele>
        <time>2024-04-07T07:32:04Z</time>
      </trkpt>
      <trkpt lat="48.90673" lon="-0.40779">
        <ele>299.6</ele>
        <time>2024-04-07T07:32:05Z</time>
      </trkpt>
      <trkpt lat="48.9066" lon="-0.40778">
        <ele>299</ele>
        <time>2024-04-07T07:32:06Z</time>
      </trkpt>
      <trkpt lat="48.90647" lon="-0.40777">
        <ele>298.6</ele>
        <time>2024-04-07T07:32:07Z</time>
      </trkpt>
      <trkpt lat="48.90634" lon="-0.40775">
        <ele>297.8</ele>
        <time>2024-04-07T07:32:08Z</time>
      </trkpt>
      <trkpt lat="48.90622" lon="-0.40773">
        <ele>297</ele>
        <time>2024-04-07T07:32:09Z</time>
      </trkpt>
      <trkpt lat="48.90609" lon="-0.40772">
        <ele>296</ele>
        <time>2024-04-07T07:32:10Z</time>
      </trkpt>
      <trkpt lat="48.90597" lon="-0.40771">
        <ele>295</ele>
        <time>2024-04-07T07:32:11Z</time>
      </trkpt>
      <trkpt lat="48.90585" lon="-0.4077">
        <ele>294</ele>
        <time>2024-04-07T07:32:12Z</time>
      </trkpt>
      <trkpt lat="48.90573" lon="-0.40769">
        <ele>293</ele>
        <time>2024-04-07T07:32:13Z</time>
      </trkpt>
      <trkpt lat="48.9056" lon="-0.40769">
        <ele>292</ele>
        <time>2024-04-07T07:32:14Z</time>
      </trkpt>
      <trkpt lat="48.90548" lon="-0.40767">
        <ele>291</ele>
        <time>2024-04-07T07:32:15Z</time>
      </trkpt>
      <trkpt lat="48.90535" lon="-0.40765">
        <ele>290</ele>
        <time>2024-04-07T07:32:16Z</time>
      </trkpt>
      <trkpt lat="48.90523" lon="-0.40764">
        <ele>289</ele>
        <time>2024-04-07T07:32:17Z</time>
      </trkpt>
      <trkpt lat="48.9051" lon="-0.40763">
        <ele>287.4</ele>
        <time>2024-04-07T07:32:18Z</time>
      </trkpt>
      <trkpt lat="48.90497" lon="-0.40762">
        <ele>286</ele>
        <time>2024-04-07T07:32:19Z</time>
      </trkpt>
      <trkpt lat="48.90483" lon="-0.40763">
        <ele>285</ele>
        <time>2024-04-07T07:32:20Z</time>
      </trkpt>
      <trkpt lat="48.90469" lon="-0.40764">
        <ele>284.4</ele>
        <time>2024-04-07T07:32:21Z</time>
      </trkpt>
      <trkpt lat="48.90456" lon="-0.40767">
        <ele>284</ele>
        <time>2024-04-07T07:32:22Z</time>
      </trkpt>
      <trkpt lat="48.90436" lon="-0.40772">
        <ele>283.2</ele>
        <time>2024-04-07T07:32:23Z</time>
      </trkpt>
      <trkpt lat="48.90429" lon="-0.40774">
        <ele>282.2</ele>
        <time>2024-04-07T07:32:24Z</time>
      </trkpt>
      <trkpt lat="48.90416" lon="-0.40779">
        <ele>281</ele>
        <time>2024-04-07T07:32:25Z</time>
      </trkpt>
      <trkpt lat="48.90404" lon="-0.40785">
        <ele>279.8</ele>
        <time>2024-04-07T07:32:26Z</time>
      </trkpt>
      <trkpt lat="48.90393" lon="-0.40792">
        <ele>278.8</ele>
        <time>2024-04-07T07:32:27Z</time>
      </trkpt>
      <trkpt lat="48.90381" lon="-0.40796">
        <ele>278.4</ele>
        <time>2024-04-07T07:32:28Z</time>
      </trkpt>
      <trkpt lat="48.90368" lon="-0.40801">
        <ele>278.2</ele>
        <time>2024-04-07T07:32:29Z</time>
      </trkpt>
      <trkpt lat="48.9035" lon="-0.40807">
        <ele>277.8</ele>
        <time>2024-04-07T07:32:30Z</time>
      </trkpt>
      <trkpt lat="48.90344" lon="-0.40809">
        <ele>277.8</ele>
        <time>2024-04-07T07:32:31Z</time>
      </trkpt>
      <trkpt lat="48.90332" lon="-0.40813">
        <ele>277.8</ele>
        <time>2024-04-07T07:32:32Z</time>
      </trkpt>
      <trkpt lat="48.90322" lon="-0.40818">
        <ele>277.8</ele>
        <time>2024-04-07T07:32:33Z</time>
      </trkpt>
      <trkpt lat="48.90311" lon="-0.40821">
        <ele>278</ele>
        <time>2024-04-07T07:32:34Z</time>
      </trkpt>
      <trkpt lat="48.90299" lon="-0.40824">
        <ele>277.8</ele>
        <time>2024-04-07T07:32:35Z</time>
      </trkpt>
      <trkpt lat="48.90288" lon="-0.40827">
        <ele>277.4</ele>
        <time>2024-04-07T07:32:36Z</time>
      </trkpt>
      <trkpt lat="48.90277" lon="-0.4083">
        <ele>277.2</ele>
        <time>2024-04-07T07:32:37Z</time>
      </trkpt>
      <trkpt lat="48.90266" lon="-0.40831">
        <ele>276.6</ele>
        <time>2024-04-07T07:32:38Z</time>
      </trkpt>
      <trkpt lat="48.90255" lon="-0.40833">
        <ele>276.4</ele>
        <time>2024-04-07T07:32:39Z</time>
      </trkpt>
      <trkpt lat="48.90244" lon="-0.40835">
        <ele>276</ele>
        <time>2024-04-07T07:32:40Z</time>
      </trkpt>
      <trkpt lat="48.90234" lon="-0.40836">
        <ele>275.8</ele>
        <time>2024-04-07T07:32:41Z</time>
      </trkpt>
      <trkpt lat="48.90224" lon="-0.40835">
        <ele>275.2</ele>
        <time>2024-04-07T07:32:42Z</time>
      </trkpt>
      <trkpt lat="48.90214" lon="-0.40832">
        <ele>274.6</ele>
        <time>2024-04-07T07:32:43Z</time>
      </trkpt>
      <trkpt lat="48.90204" lon="-0.40826">
        <ele>273.8</ele>
        <time>2024-04-07T07:32:44Z</time>
      </trkpt>
      <trkpt lat="48.90194" lon="-0.40818">
        <ele>273.2</ele>
        <time>2024-04-07T07:32:45Z</time>
      </trkpt>
      <trkpt lat="48.90184" lon="-0.40808">
        <ele>272.6</ele>
        <time>2024-04-07T07:32:46Z</time>
      </trkpt>
      <trkpt lat="48.90176" lon="-0.40796">
        <ele>271.6</ele>
        <time>2024-04-07T07:32:47Z</time>
      </trkpt>
      <trkpt lat="48.90168" lon="-0.40782">
        <ele>270.4</ele>
        <time>2024-04-07T07:32:48Z</time>
      </trkpt>
      <trkpt lat="48.90161" lon="-0.40768">
        <ele>269.4</ele>
        <time>2024-04-07T07:32:49Z</time>
      </trkpt>
      <trkpt lat="48.90156" lon="-0.40752">
        <ele>268.4</ele>
        <time>2024-04-07T07:32:50Z</time>
      </trkpt>
      <trkpt lat="48.9015" lon="-0.40736">
        <ele>267.4</ele>
        <time>2024-04-07T07:32:51Z</time>
      </trkpt>
      <trkpt lat="48.90146" lon="-0.40719">
        <ele>266.6</ele>
        <time>2024-04-07T07:32:52Z</time>
      </trkpt>
      <trkpt lat="48.90141" lon="-0.40702">
        <ele>265.8</ele>
        <time>2024-04-07T07:32:53Z</time>
      </trkpt>
      <trkpt lat="48.90136" lon="-0.40685">
        <ele>264.6</ele>
        <time>2024-04-07T07:32:54Z</time>
      </trkpt>
      <trkpt lat="48.90131" lon="-0.40668">
        <ele>263</ele>
        <time>2024-04-07T07:32:55Z</time>
      </trkpt>
      <trkpt lat="48.90126" lon="-0.40651">
        <ele>261.6</ele>
        <time>2024-04-07T07:32:56Z</time>
      </trkpt>
      <trkpt lat="48.90121" lon="-0.40634">
        <ele>260.4</ele>
        <time>2024-04-07T07:32:57Z</time>
      </trkpt>
      <trkpt lat="48.90116" lon="-0.40617">
        <ele>259.2</ele>
        <time>2024-04-07T07:32:58Z</time>
      </trkpt>
      <trkpt lat="48.9011" lon="-0.40601">
        <ele>258</ele>
        <time>2024-04-07T07:32:59Z</time>
      </trkpt>
      <trkpt lat="48.90103" lon="-0.40589">
        <ele>257</ele>
        <time>2024-04-07T07:33:00Z</time>
      </trkpt>
      <trkpt lat="48.90097" lon="-0.40574">
        <ele>256.2</ele>
        <time>2024-04-07T07:33:01Z</time>
      </trkpt>
      <trkpt lat="48.90091" lon="-0.40561">
        <ele>255.6</ele>
        <time>2024-04-07T07:33:02Z</time>
      </trkpt>
      <trkpt lat="48.90084" lon="-0.40547">
        <ele>255</ele>
        <time>2024-04-07T07:33:03Z</time>
      </trkpt>
      <trkpt lat="48.90076" lon="-0.40532">
        <ele>254.6</ele>
        <time>2024-04-07T07:33:04Z</time>
      </trkpt>
      <trkpt lat="48.90068" lon="-0.40517">
        <ele>254.2</ele>
        <time>2024-04-07T07:33:05Z</time>
      </trkpt>
      <trkpt lat="48.90061" lon="-0.40502">
        <ele>253.6</ele>
        <time>2024-04-07T07:33:06Z</time>
      </trkpt>
      <trkpt lat="48.90053" lon="-0.40487">
        <ele>252.8</ele>
        <time>2024-04-07T07:33:07Z</time>
      </trkpt>
      <trkpt lat="48.90046" lon="-0.40471">
        <ele>252</ele>
        <time>2024-04-07T07:33:08Z</time>
      </trkpt>
      <trkpt lat="48.9004" lon="-0.40454">
        <ele>251.2</ele>
        <time>2024-04-07T07:33:09Z</time>
      </trkpt>
      <trkpt lat="48.90035" lon="-0.40436">
        <ele>250.2</ele>
        <time>2024-04-07T07:33:10Z</time>
      </trkpt>
      <trkpt lat="48.90031" lon="-0.40417">
        <ele>249.2</ele>
        <time>2024-04-07T07:33:11Z</time>
      </trkpt>
      <trkpt lat="48.90027" lon="-0.40398">
        <ele>248.2</ele>
        <time>2024-04-07T07:33:12Z</time>
      </trkpt>
      <trkpt lat="48.90023" lon="-0.40379">
        <ele>247.2</ele>
        <time>2024-04-07T07:33:13Z</time>
      </trkpt>
      <trkpt lat="48.90019" lon="-0.40359">
        <ele>246.2</ele>
        <time>2024-04-07T07:33:14Z</time>
      </trkpt>
      <trkpt lat="48.90013" lon="-0.4033">
        <ele>245.2</ele>
        <time>2024-04-07T07:33:15Z</time>
      </trkpt>
      <trkpt lat="48.90011" lon="-0.40321">
        <ele>244.6</ele>
        <time>2024-04-07T07:33:16Z</time>
      </trkpt>
      <trkpt lat="48.90007" lon="-0.40302">
        <ele>244.2</ele>
        <time>2024-04-07T07:33:17Z</time>
      </trkpt>
      <trkpt lat="48.90002" lon="-0.40285">
        <ele>243.8</ele>
        <time>2024-04-07T07:33:18Z</time>
      </trkpt>
      <trkpt lat="48.89996" lon="-0.40267">
        <ele>243.2</ele>
        <time>2024-04-07T07:33:19Z</time>
      </trkpt>
      <trkpt lat="48.8999" lon="-0.40251">
        <ele>242.2</ele>
        <time>2024-04-07T07:33:20Z</time>
      </trkpt>
      <trkpt lat="48.89984" lon="-0.40234">
        <ele>241.2</ele>
        <time>2024-04-07T07:33:21Z</time>
      </trkpt>
      <trkpt lat="48.89976" lon="-0.40217">
        <ele>240.2</ele>
        <time>2024-04-07T07:33:22Z</time>
      </trkpt>
      <trkpt lat="48.89969" lon="-0.40201">
        <ele>239.2</ele>
        <time>2024-04-07T07:33:23Z</time>
      </trkpt>
      <trkpt lat="48.89962" lon="-0.40184">
        <ele>238.4</ele>
        <time>2024-04-07T07:33:24Z</time>
      </trkpt>
      <trkpt lat="48.89954" lon="-0.40169">
        <ele>237.8</ele>
        <time>2024-04-07T07:33:25Z</time>
      </trkpt>
      <trkpt lat="48.89946" lon="-0.40155">
        <ele>237.4</ele>
        <time>2024-04-07T07:33:26Z</time>
      </trkpt>
      <trkpt lat="48.89936" lon="-0.40145">
        <ele>237</ele>
        <time>2024-04-07T07:33:27Z</time>
      </trkpt>
      <trkpt lat="48.89927" lon="-0.40135">
        <ele>236.4</ele>
        <time>2024-04-07T07:33:28Z</time>
      </trkpt>
      <trkpt lat="48.89916" lon="-0.40129">
        <ele>235.4</ele>
        <time>2024-04-07T07:33:29Z</time>
      </trkpt>
      <trkpt lat="48.89903" lon="-0.40124">
        <ele>234.4</ele>
        <time>2024-04-07T07:33:30Z</time>
      </trkpt>
      <trkpt lat="48.89891" lon="-0.40119">
        <ele>233.2</ele>
        <time>2024-04-07T07:33:31Z</time>
      </trkpt>
      <trkpt lat="48.89871" lon="-0.40113">
        <ele>232.4</ele>
        <time>2024-04-07T07:33:32Z</time>
      </trkpt>
      <trkpt lat="48.89864" lon="-0.40111">
        <ele>231.6</ele>
        <time>2024-04-07T07:33:33Z</time>
      </trkpt>
      <trkpt lat="48.8985" lon="-0.40108">
        <ele>230.6</ele>
        <time>2024-04-07T07:33:34Z</time>
      </trkpt>
      <trkpt lat="48.89836" lon="-0.40104">
        <ele>229.6</ele>
        <time>2024-04-07T07:33:35Z</time>
      </trkpt>
      <trkpt lat="48.89822" lon="-0.40101">
        <ele>228.2</ele>
        <time>2024-04-07T07:33:36Z</time>
      </trkpt>
      <trkpt lat="48.8981" lon="-0.40096">
        <ele>226.8</ele>
        <time>2024-04-07T07:33:37Z</time>
      </trkpt>
      <trkpt lat="48.89797" lon="-0.40095">
        <ele>225.4</ele>
        <time>2024-04-07T07:33:38Z</time>
      </trkpt>
      <trkpt lat="48.89782" lon="-0.40096">
        <ele>224.2</ele>
        <time>2024-04-07T07:33:39Z</time>
      </trkpt>
      <trkpt lat="48.89769" lon="-0.40099">
        <ele>223</ele>
        <time>2024-04-07T07:33:40Z</time>
      </trkpt>
      <trkpt lat="48.89757" lon="-0.40105">
        <ele>222</ele>
        <time>2024-04-07T07:33:41Z</time>
      </trkpt>
      <trkpt lat="48.89744" lon="-0.40113">
        <ele>221.4</ele>
        <time>2024-04-07T07:33:42Z</time>
      </trkpt>
      <trkpt lat="48.89732" lon="-0.4012">
        <ele>220.8</ele>
        <time>2024-04-07T07:33:43Z</time>
      </trkpt>
      <trkpt lat="48.8972" lon="-0.40129">
        <ele>220</ele>
        <time>2024-04-07T07:33:44Z</time>
      </trkpt>
      <trkpt lat="48.89709" lon="-0.40138">
        <ele>218.6</ele>
        <time>2024-04-07T07:33:45Z</time>
      </trkpt>
      <trkpt lat="48.89697" lon="-0.40148">
        <ele>216.8</ele>
        <time>2024-04-07T07:33:46Z</time>
      </trkpt>
      <trkpt lat="48.89684" lon="-0.40157">
        <ele>215.4</ele>
        <time>2024-04-07T07:33:47Z</time>
      </trkpt>
      <trkpt lat="48.89673" lon="-0.40167">
        <ele>214.2</ele>
        <time>2024-04-07T07:33:48Z</time>
      </trkpt>
      <trkpt lat="48.8966" lon="-0.40177">
        <ele>212.6</ele>
        <time>2024-04-07T07:33:49Z</time>
      </trkpt>
      <trkpt lat="48.89648" lon="-0.40187">
        <ele>211.4</ele>
        <time>2024-04-07T07:33:50Z</time>
      </trkpt>
      <trkpt lat="48.8963" lon="-0.40202">
        <ele>210.6</ele>
        <time>2024-04-07T07:33:51Z</time>
      </trkpt>
      <trkpt lat="48.89625" lon="-0.40207">
        <ele>210.2</ele>
        <time>2024-04-07T07:33:52Z</time>
      </trkpt>
      <trkpt lat="48.89613" lon="-0.40216">
        <ele>210</ele>
        <time>2024-04-07T07:33:53Z</time>
      </trkpt>
      <trkpt lat="48.89602" lon="-0.40226">
        <ele>209.6</ele>
        <time>2024-04-07T07:33:54Z</time>
      </trkpt>
      <trkpt lat="48.8959" lon="-0.40234">
        <ele>209</ele>
        <time>2024-04-07T07:33:55Z</time>
      </trkpt>
      <trkpt lat="48.89578" lon="-0.40241">
        <ele>208.4</ele>
        <time>2024-04-07T07:33:56Z</time>
      </trkpt>
      <trkpt lat="48.89566" lon="-0.40248">
        <ele>207</ele>
        <time>2024-04-07T07:33:57Z</time>
      </trkpt>
      <trkpt lat="48.89548" lon="-0.40258">
        <ele>205.2</ele>
        <time>2024-04-07T07:33:58Z</time>
      </trkpt>
      <trkpt lat="48.89542" lon="-0.40261">
        <ele>203.6</ele>
        <time>2024-04-07T07:33:59Z</time>
      </trkpt>
      <trkpt lat="48.8953" lon="-0.40267">
        <ele>202.4</ele>
        <time>2024-04-07T07:34:00Z</time>
      </trkpt>
      <trkpt lat="48.89518" lon="-0.40272">
        <ele>201.2</ele>
        <time>2024-04-07T07:34:01Z</time>
      </trkpt>
      <trkpt lat="48.89505" lon="-0.40276">
        <ele>199.8</ele>
        <time>2024-04-07T07:34:02Z</time>
      </trkpt>
      <trkpt lat="48.89492" lon="-0.4028">
        <ele>198.6</ele>
        <time>2024-04-07T07:34:03Z</time>
      </trkpt>
      <trkpt lat="48.8948" lon="-0.40284">
        <ele>198</ele>
        <time>2024-04-07T07:34:04Z</time>
      </trkpt>
      <trkpt lat="48.89467" lon="-0.40289">
        <ele>197.8</ele>
        <time>2024-04-07T07:34:05Z</time>
      </trkpt>
      <trkpt lat="48.89454" lon="-0.40294">
        <ele>197.6</ele>
        <time>2024-04-07T07:34:06Z</time>
      </trkpt>
      <trkpt lat="48.89441" lon="-0.40299">
        <ele>197.6</ele>
        <time>2024-04-07T07:34:07Z</time>
      </trkpt>
      <trkpt lat="48.89428" lon="-0.40304">
        <ele>197.4</ele>
        <time>2024-04-07T07:34:08Z</time>
      </trkpt>
      <trkpt lat="48.89416" lon="-0.40308">
        <ele>197.2</ele>
        <time>2024-04-07T07:34:09Z</time>
      </trkpt>
      <trkpt lat="48.89405" lon="-0.40314">
        <ele>197</ele>
        <time>2024-04-07T07:34:10Z</time>
      </trkpt>
      <trkpt lat="48.89394" lon="-0.40319">
        <ele>196</ele>
        <time>2024-04-07T07:34:11Z</time>
      </trkpt>
      <trkpt lat="48.89384" lon="-0.40327">
        <ele>194.8</ele>
        <time>2024-04-07T07:34:12Z</time>
      </trkpt>
      <trkpt lat="48.89375" lon="-0.40337">
        <ele>194</ele>
        <time>2024-04-07T07:34:13Z</time>
      </trkpt>
      <trkpt lat="48.89368" lon="-0.40349">
        <ele>193.2</ele>
        <time>2024-04-07T07:34:14Z</time>
      </trkpt>
      <trkpt lat="48.89363" lon="-0.40364">
        <ele>192.4</ele>
        <time>2024-04-07T07:34:15Z</time>
      </trkpt>
      <trkpt lat="48.89359" lon="-0.40379">
        <ele>191.8</ele>
        <time>2024-04-07T07:34:16Z</time>
      </trkpt>
      <trkpt lat="48.89353" lon="-0.40393">
        <ele>191.2</ele>
        <time>2024-04-07T07:34:17Z</time>
      </trkpt>
      <trkpt lat="48.89346" lon="-0.40406">
        <ele>190.8</ele>
        <time>2024-04-07T07:34:18Z</time>
      </trkpt>
      <trkpt lat="48.89339" lon="-0.40418">
        <ele>190.2</ele>
        <time>2024-04-07T07:34:19Z</time>
      </trkpt>
      <trkpt lat="48.8933" lon="-0.40429">
        <ele>189.6</ele>
        <time>2024-04-07T07:34:20Z</time>
      </trkpt>
      <trkpt lat="48.8932" lon="-0.40438">
        <ele>188.8</ele>
        <time>2024-04-07T07:34:21Z</time>
      </trkpt>
      <trkpt lat="48.8931" lon="-0.40446">
        <ele>187.8</ele>
        <time>2024-04-07T07:34:22Z</time>
      </trkpt>
      <trkpt lat="48.89299" lon="-0.40454">
        <ele>186.6</ele>
        <time>2024-04-07T07:34:23Z</time>
      </trkpt>
      <trkpt lat="48.89285" lon="-0.40467">
        <ele>185.8</ele>
        <time>2024-04-07T07:34:24Z</time>
      </trkpt>
      <trkpt lat="48.8927" lon="-0.40481">
        <ele>184.8</ele>
        <time>2024-04-07T07:34:25Z</time>
      </trkpt>
      <trkpt lat="48.89267" lon="-0.40487">
        <ele>183.8</ele>
        <time>2024-04-07T07:34:26Z</time>
      </trkpt>
      <trkpt lat="48.89264" lon="-0.40494">
        <ele>183</ele>
        <time>2024-04-07T07:34:27Z</time>
      </trkpt>
      <trkpt lat="48.89257" lon="-0.40507">
        <ele>182.4</ele>
        <time>2024-04-07T07:34:28Z</time>
      </trkpt>
      <trkpt lat="48.89254" lon="-0.40522">
        <ele>181.8</ele>
        <time>2024-04-07T07:34:29Z</time>
      </trkpt>
      <trkpt lat="48.89252" lon="-0.40538">
        <ele>181</ele>
        <time>2024-04-07T07:34:30Z</time>
      </trkpt>
      <trkpt lat="48.89251" lon="-0.40556">
        <ele>179.8</ele>
        <time>2024-04-07T07:34:31Z</time>
      </trkpt>
      <trkpt lat="48.89249" lon="-0.40575">
        <ele>178.4</ele>
        <time>2024-04-07T07:34:32Z</time>
      </trkpt>
      <trkpt lat="48.89247" lon="-0.40594">
        <ele>176.8</ele>
        <time>2024-04-07T07:34:33Z</time>
      </trkpt>
      <trkpt lat="48.89246" lon="-0.40614">
        <ele>175.2</ele>
        <time>2024-04-07T07:34:34Z</time>
      </trkpt>
      <trkpt lat="48.89244" lon="-0.40633">
        <ele>173.8</ele>
        <time>2024-04-07T07:34:35Z</time>
      </trkpt>
      <trkpt lat="48.89243" lon="-0.40652">
        <ele>172.6</ele>
        <time>2024-04-07T07:34:36Z</time>
      </trkpt>
      <trkpt lat="48.89241" lon="-0.40672">
        <ele>171.6</ele>
        <time>2024-04-07T07:34:37Z</time>
      </trkpt>
      <trkpt lat="48.89239" lon="-0.40693">
        <ele>170.8</ele>
        <time>2024-04-07T07:34:38Z</time>
      </trkpt>
      <trkpt lat="48.89237" lon="-0.40713">
        <ele>169.6</ele>
        <time>2024-04-07T07:34:39Z</time>
      </trkpt>
      <trkpt lat="48.89235" lon="-0.40733">
        <ele>168.6</ele>
        <time>2024-04-07T07:34:40Z</time>
      </trkpt>
      <trkpt lat="48.89231" lon="-0.40753">
        <ele>167.6</ele>
        <time>2024-04-07T07:34:41Z</time>
      </trkpt>
      <trkpt lat="48.89225" lon="-0.40786">
        <ele>166.8</ele>
        <time>2024-04-07T07:34:42Z</time>
      </trkpt>
      <trkpt lat="48.89222" lon="-0.40799">
        <ele>165.8</ele>
        <time>2024-04-07T07:34:43Z</time>
      </trkpt>
      <trkpt lat="48.89217" lon="-0.40826">
        <ele>165</ele>
        <time>2024-04-07T07:34:44Z</time>
      </trkpt>
      <trkpt lat="48.89212" lon="-0.40852">
        <ele>164.2</ele>
        <time>2024-04-07T07:34:45Z</time>
      </trkpt>
      <trkpt lat="48.89208" lon="-0.40872">
        <ele>163.6</ele>
        <time>2024-04-07T07:34:46Z</time>
      </trkpt>
      <trkpt lat="48.89205" lon="-0.40891">
        <ele>163.2</ele>
        <time>2024-04-07T07:34:47Z</time>
      </trkpt>
      <trkpt lat="48.89204" lon="-0.40911">
        <ele>162.4</ele>
        <time>2024-04-07T07:34:48Z</time>
      </trkpt>
      <trkpt lat="48.89203" lon="-0.40925">
        <ele>161</ele>
        <time>2024-04-07T07:34:49Z</time>
      </trkpt>
      <trkpt lat="48.89202" lon="-0.40938">
        <ele>159</ele>
        <time>2024-04-07T07:34:50Z</time>
      </trkpt>
      <trkpt lat="48.89199" lon="-0.40965">
        <ele>157</ele>
        <time>2024-04-07T07:34:51Z</time>
      </trkpt>
      <trkpt lat="48.89197" lon="-0.40991">
        <ele>155.6</ele>
        <time>2024-04-07T07:34:52Z</time>
      </trkpt>
      <trkpt lat="48.89195" lon="-0.41011">
        <ele>154.8</ele>
        <time>2024-04-07T07:34:53Z</time>
      </trkpt>
      <trkpt lat="48.89193" lon="-0.41021">
        <ele>154</ele>
        <time>2024-04-07T07:34:54Z</time>
      </trkpt>
      <trkpt lat="48.89192" lon="-0.41031">
        <ele>153.2</ele>
        <time>2024-04-07T07:34:55Z</time>
      </trkpt>
      <trkpt lat="48.89189" lon="-0.4105">
        <ele>152.6</ele>
        <time>2024-04-07T07:34:56Z</time>
      </trkpt>
      <trkpt lat="48.89186" lon="-0.4107">
        <ele>152</ele>
        <time>2024-04-07T07:34:57Z</time>
      </trkpt>
      <trkpt lat="48.89182" lon="-0.41098">
        <ele>151.6</ele>
        <time>2024-04-07T07:34:58Z</time>
      </trkpt>
      <trkpt lat="48.8918" lon="-0.41108">
        <ele>151.2</ele>
        <time>2024-04-07T07:34:59Z</time>
      </trkpt>
      <trkpt lat="48.89174" lon="-0.41137">
        <ele>150.8</ele>
        <time>2024-04-07T07:35:00Z</time>
      </trkpt>
      <trkpt lat="48.89172" lon="-0.41147">
        <ele>149.8</ele>
        <time>2024-04-07T07:35:01Z</time>
      </trkpt>
      <trkpt lat="48.89165" lon="-0.41175">
        <ele>148.4</ele>
        <time>2024-04-07T07:35:02Z</time>
      </trkpt>
      <trkpt lat="48.89163" lon="-0.41184">
        <ele>146.4</ele>
        <time>2024-04-07T07:35:03Z</time>
      </trkpt>
      <trkpt lat="48.89158" lon="-0.41203">
        <ele>145</ele>
        <time>2024-04-07T07:35:04Z</time>
      </trkpt>
      <trkpt lat="48.89154" lon="-0.4122">
        <ele>144.2</ele>
        <time>2024-04-07T07:35:05Z</time>
      </trkpt>
      <trkpt lat="48.89149" lon="-0.41238">
        <ele>143.4</ele>
        <time>2024-04-07T07:35:06Z</time>
      </trkpt>
      <trkpt lat="48.89144" lon="-0.41256">
        <ele>142.8</ele>
        <time>2024-04-07T07:35:07Z</time>
      </trkpt>
      <trkpt lat="48.89139" lon="-0.41274">
        <ele>141.8</ele>
        <time>2024-04-07T07:35:08Z</time>
      </trkpt>
      <trkpt lat="48.89134" lon="-0.41291">
        <ele>141</ele>
        <time>2024-04-07T07:35:09Z</time>
      </trkpt>
      <trkpt lat="48.89127" lon="-0.41316">
        <ele>139.8</ele>
        <time>2024-04-07T07:35:10Z</time>
      </trkpt>
      <trkpt lat="48.89125" lon="-0.41324">
        <ele>139</ele>
        <time>2024-04-07T07:35:11Z</time>
      </trkpt>
      <trkpt lat="48.89121" lon="-0.41341">
        <ele>138.6</ele>
        <time>2024-04-07T07:35:12Z</time>
      </trkpt>
      <trkpt lat="48.89116" lon="-0.41356">
        <ele>138</ele>
        <time>2024-04-07T07:35:13Z</time>
      </trkpt>
      <trkpt lat="48.89112" lon="-0.41372">
        <ele>137.4</ele>
        <time>2024-04-07T07:35:14Z</time>
      </trkpt>
      <trkpt lat="48.89107" lon="-0.41388">
        <ele>137</ele>
        <time>2024-04-07T07:35:15Z</time>
      </trkpt>
      <trkpt lat="48.89101" lon="-0.41402">
        <ele>136.6</ele>
        <time>2024-04-07T07:35:16Z</time>
      </trkpt>
      <trkpt lat="48.89093" lon="-0.41414">
        <ele>136.4</ele>
        <time>2024-04-07T07:35:17Z</time>
      </trkpt>
      <trkpt lat="48.89085" lon="-0.41426">
        <ele>136</ele>
        <time>2024-04-07T07:35:18Z</time>
      </trkpt>
      <trkpt lat="48.89074" lon="-0.41433">
        <ele>135.4</ele>
        <time>2024-04-07T07:35:19Z</time>
      </trkpt>
      <trkpt lat="48.89062" lon="-0.41441">
        <ele>135</ele>
        <time>2024-04-07T07:35:20Z</time>
      </trkpt>
      <trkpt lat="48.89051" lon="-0.41447">
        <ele>134.4</ele>
        <time>2024-04-07T07:35:21Z</time>
      </trkpt>
      <trkpt lat="48.89039" lon="-0.4145">
        <ele>133.6</ele>
        <time>2024-04-07T07:35:22Z</time>
      </trkpt>
      <trkpt lat="48.89028" lon="-0.41453">
        <ele>132.6</ele>
        <time>2024-04-07T07:35:23Z</time>
      </trkpt>
      <trkpt lat="48.89017" lon="-0.41454">
        <ele>131.6</ele>
        <time>2024-04-07T07:35:24Z</time>
      </trkpt>
      <trkpt lat="48.89007" lon="-0.41452">
        <ele>131</ele>
        <time>2024-04-07T07:35:25Z</time>
      </trkpt>
      <trkpt lat="48.88997" lon="-0.41449">
        <ele>130.8</ele>
        <time>2024-04-07T07:35:26Z</time>
      </trkpt>
      <trkpt lat="48.88986" lon="-0.41446">
        <ele>130.6</ele>
        <time>2024-04-07T07:35:27Z</time>
      </trkpt>
      <trkpt lat="48.88977" lon="-0.41441">
        <ele>130.4</ele>
        <time>2024-04-07T07:35:28Z</time>
      </trkpt>
      <trkpt lat="48.88968" lon="-0.41437">
        <ele>130.4</ele>
        <time>2024-04-07T07:35:29Z</time>
      </trkpt>
      <trkpt lat="48.88958" lon="-0.41435">
        <ele>130.4</ele>
        <time>2024-04-07T07:35:30Z</time>
      </trkpt>
      <trkpt lat="48.88949" lon="-0.41432">
        <ele>130.4</ele>
        <time>2024-04-07T07:35:31Z</time>
      </trkpt>
      <trkpt lat="48.8894" lon="-0.41429">
        <ele>130.4</ele>
        <time>2024-04-07T07:35:32Z</time>
      </trkpt>
      <trkpt lat="48.88932" lon="-0.41425">
        <ele>130.6</ele>
        <time>2024-04-07T07:35:33Z</time>
      </trkpt>
      <trkpt lat="48.88925" lon="-0.41422">
        <ele>130.6</ele>
        <time>2024-04-07T07:35:34Z</time>
      </trkpt>
      <trkpt lat="48.88909" lon="-0.41419">
        <ele>130.6</ele>
        <time>2024-04-07T07:35:35Z</time>
      </trkpt>
      <trkpt lat="48.88909" lon="-0.41419">
        <ele>130.8</ele>
        <time>2024-04-07T07:35:36Z</time>
      </trkpt>
      <trkpt lat="48.88897" lon="-0.41416">
        <ele>131</ele>
        <time>2024-04-07T07:35:37Z</time>
      </trkpt>
      <trkpt lat="48.88894" lon="-0.41416">
        <ele>131</ele>
        <time>2024-04-07T07:35:38Z</time>
      </trkpt>
      <trkpt lat="48.88879" lon="-0.41413">
        <ele>131</ele>
        <time>2024-04-07T07:35:39Z</time>
      </trkpt>
      <trkpt lat="48.88875" lon="-0.41413">
        <ele>131</ele>
        <time>2024-04-07T07:35:40Z</time>
      </trkpt>
      <trkpt lat="48.88871" lon="-0.41412">
        <ele>131.2</ele>
        <time>2024-04-07T07:35:41Z</time>
      </trkpt>
      <trkpt lat="48.88864" lon="-0.4141">
        <ele>131.4</ele>
        <time>2024-04-07T07:35:42Z</time>
      </trkpt>
      <trkpt lat="48.88857" lon="-0.41409">
        <ele>131.4</ele>
        <time>2024-04-07T07:35:43Z</time>
      </trkpt>
      <trkpt lat="48.88847" lon="-0.41407">
        <ele>131.6</ele>
        <time>2024-04-07T07:35:44Z</time>
      </trkpt>
      <trkpt lat="48.88843" lon="-0.41406">
        <ele>131.8</ele>
        <time>2024-04-07T07:35:45Z</time>
      </trkpt>
      <trkpt lat="48.88837" lon="-0.41406">
        <ele>132.2</ele>
        <time>2024-04-07T07:35:46Z</time>
      </trkpt>
      <trkpt lat="48.8883" lon="-0.41406">
        <ele>132.6</ele>
        <time>2024-04-07T07:35:47Z</time>
      </trkpt>
      <trkpt lat="48.88824" lon="-0.41406">
        <ele>133</ele>
        <time>2024-04-07T07:35:48Z</time>
      </trkpt>
      <trkpt lat="48.88819" lon="-0.41405">
        <ele>133.4</ele>
        <time>2024-04-07T07:35:49Z</time>
      </trkpt>
      <trkpt lat="48.88814" lon="-0.41406">
        <ele>133.8</ele>
        <time>2024-04-07T07:35:50Z</time>
      </trkpt>
      <trkpt lat="48.88802" lon="-0.41408">
        <ele>134</ele>
        <time>2024-04-07T07:35:51Z</time>
      </trkpt>
      <trkpt lat="48.88797" lon="-0.4141">
        <ele>134</ele>
        <time>2024-04-07T07:35:52Z</time>
      </trkpt>
      <trkpt lat="48.88791" lon="-0.41411">
        <ele>134</ele>
        <time>2024-04-07T07:35:53Z</time>
      </trkpt>
      <trkpt lat="48.88785" lon="-0.41413">
        <ele>134.2</ele>
        <time>2024-04-07T07:35:54Z</time>
      </trkpt>
      <trkpt lat="48.88779" lon="-0.41416">
        <ele>134.2</ele>
        <time>2024-04-07T07:35:55Z</time>
      </trkpt>
      <trkpt lat="48.88775" lon="-0.41417">
        <ele>134.4</ele>
        <time>2024-04-07T07:35:56Z</time>
      </trkpt>
      <trkpt lat="48.88771" lon="-0.41419">
        <ele>134.6</ele>
        <time>2024-04-07T07:35:57Z</time>
      </trkpt>
      <trkpt lat="48.88762" lon="-0.41423">
        <ele>134.8</ele>
        <time>2024-04-07T07:35:58Z</time>
      </trkpt>
      <trkpt lat="48.88759" lon="-0.41424">
        <ele>134.8</ele>
        <time>2024-04-07T07:35:59Z</time>
      </trkpt>
      <trkpt lat="48.88756" lon="-0.41425">
        <ele>134.8</ele>
        <time>2024-04-07T07:36:00Z</time>
      </trkpt>
      <trkpt lat="48.8875" lon="-0.41428">
        <ele>134.8</ele>
        <time>2024-04-07T07:36:01Z</time>
      </trkpt>
      <trkpt lat="48.88737" lon="-0.41433">
        <ele>134.6</ele>
        <time>2024-04-07T07:36:02Z</time>
      </trkpt>
      <trkpt lat="48.88734" lon="-0.41434">
        <ele>134.6</ele>
        <time>2024-04-07T07:36:03Z</time>
      </trkpt>
      <trkpt lat="48.88731" lon="-0.41435">
        <ele>134.6</ele>
        <time>2024-04-07T07:36:04Z</time>
      </trkpt>
      <trkpt lat="48.88725" lon="-0.41437">
        <ele>134.6</ele>
        <time>2024-04-07T07:36:05Z</time>
      </trkpt>
      <trkpt lat="48.88718" lon="-0.4144">
        <ele>135</ele>
        <time>2024-04-07T07:36:06Z</time>
      </trkpt>
      <trkpt lat="48.88712" lon="-0.41442">
        <ele>135.4</ele>
        <time>2024-04-07T07:36:07Z</time>
      </trkpt>
      <trkpt lat="48.88705" lon="-0.41445">
        <ele>136</ele>
        <time>2024-04-07T07:36:08Z</time>
      </trkpt>
      <trkpt lat="48.88699" lon="-0.41447">
        <ele>136.4</ele>
        <time>2024-04-07T07:36:09Z</time>
      </trkpt>
      <trkpt lat="48.88692" lon="-0.4145">
        <ele>136.6</ele>
        <time>2024-04-07T07:36:10Z</time>
      </trkpt>
      <trkpt lat="48.88686" lon="-0.41453">
        <ele>136.8</ele>
        <time>2024-04-07T07:36:11Z</time>
      </trkpt>
      <trkpt lat="48.88679" lon="-0.41455">
        <ele>137</ele>
        <time>2024-04-07T07:36:12Z</time>
      </trkpt>
      <trkpt lat="48.88672" lon="-0.41458">
        <ele>137.2</ele>
        <time>2024-04-07T07:36:13Z</time>
      </trkpt>
      <trkpt lat="48.88666" lon="-0.41459">
        <ele>137.4</ele>
        <time>2024-04-07T07:36:14Z</time>
      </trkpt>
      <trkpt lat="48.8866" lon="-0.41461">
        <ele>137.6</ele>
        <time>2024-04-07T07:36:15Z</time>
      </trkpt>
      <trkpt lat="48.88655" lon="-0.41463">
        <ele>137.8</ele>
        <time>2024-04-07T07:36:16Z</time>
      </trkpt>
      <trkpt lat="48.88649" lon="-0.41465">
        <ele>138</ele>
        <time>2024-04-07T07:36:17Z</time>
      </trkpt>
      <trkpt lat="48.88643" lon="-0.41467">
        <ele>138</ele>
        <time>2024-04-07T07:36:18Z</time>
      </trkpt>
      <trkpt lat="48.88637" lon="-0.4147">
        <ele>138</ele>
        <time>2024-04-07T07:36:19Z</time>
      </trkpt>
      <trkpt lat="48.88631" lon="-0.41473">
        <ele>138</ele>
        <time>2024-04-07T07:36:20Z</time>
      </trkpt>
      <trkpt lat="48.88624" lon="-0.41476">
        <ele>138</ele>
        <time>2024-04-07T07:36:21Z</time>
      </trkpt>
      <trkpt lat="48.88618" lon="-0.41478">
        <ele>138</ele>
        <time>2024-04-07T07:36:22Z</time>
      </trkpt>
      <trkpt lat="48.88611" lon="-0.41481">
        <ele>137.8</ele>
        <time>2024-04-07T07:36:23Z</time>
      </trkpt>
      <trkpt lat="48.88605" lon="-0.41483">
        <ele>137.4</ele>
        <time>2024-04-07T07:36:24Z</time>
      </trkpt>
      <trkpt lat="48.88598" lon="-0.41487">
        <ele>137.2</ele>
        <time>2024-04-07T07:36:25Z</time>
      </trkpt>
      <trkpt lat="48.88592" lon="-0.4149">
        <ele>137.2</ele>
        <time>2024-04-07T07:36:26Z</time>
      </trkpt>
      <trkpt lat="48.88585" lon="-0.41493">
        <ele>137</ele>
        <time>2024-04-07T07:36:27Z</time>
      </trkpt>
      <trkpt lat="48.88579" lon="-0.41496">
        <ele>136.8</ele>
        <time>2024-04-07T07:36:28Z</time>
      </trkpt>
      <trkpt lat="48.88572" lon="-0.415">
        <ele>136.6</ele>
        <time>2024-04-07T07:36:29Z</time>
      </trkpt>
      <trkpt lat="48.88566" lon="-0.41505">
        <ele>136.6</ele>
        <time>2024-04-07T07:36:30Z</time>
      </trkpt>
      <trkpt lat="48.8856" lon="-0.4151">
        <ele>136.6</ele>
        <time>2024-04-07T07:36:31Z</time>
      </trkpt>
      <trkpt lat="48.88556" lon="-0.41518">
        <ele>136.8</ele>
        <time>2024-04-07T07:36:32Z</time>
      </trkpt>
      <trkpt lat="48.88552" lon="-0.41526">
        <ele>136.8</ele>
        <time>2024-04-07T07:36:33Z</time>
      </trkpt>
      <trkpt lat="48.88549" lon="-0.41534">
        <ele>136.8</ele>
        <time>2024-04-07T07:36:34Z</time>
      </trkpt>
      <trkpt lat="48.88546" lon="-0.41542">
        <ele>137</ele>
        <time>2024-04-07T07:36:35Z</time>
      </trkpt>
      <trkpt lat="48.88543" lon="-0.4155">
        <ele>137.2</ele>
        <time>2024-04-07T07:36:36Z</time>
      </trkpt>
      <trkpt lat="48.88541" lon="-0.41558">
        <ele>137.4</ele>
        <time>2024-04-07T07:36:37Z</time>
      </trkpt>
      <trkpt lat="48.88538" lon="-0.41565">
        <ele>137.8</ele>
        <time>2024-04-07T07:36:38Z</time>
      </trkpt>
      <trkpt lat="48.88535" lon="-0.41573">
        <ele>138.2</ele>
        <time>2024-04-07T07:36:39Z</time>
      </trkpt>
      <trkpt lat="48.88532" lon="-0.4158">
        <ele>138.6</ele>
        <time>2024-04-07T07:36:40Z</time>
      </trkpt>
      <trkpt lat="48.88529" lon="-0.41586">
        <ele>139.2</ele>
        <time>2024-04-07T07:36:41Z</time>
      </trkpt>
      <trkpt lat="48.88526" lon="-0.41593">
        <ele>139.6</ele>
        <time>2024-04-07T07:36:42Z</time>
      </trkpt>
      <trkpt lat="48.88523" lon="-0.416">
        <ele>140</ele>
        <time>2024-04-07T07:36:43Z</time>
      </trkpt>
      <trkpt lat="48.8852" lon="-0.41606">
        <ele>140.4</ele>
        <time>2024-04-07T07:36:44Z</time>
      </trkpt>
      <trkpt lat="48.88518" lon="-0.41613">
        <ele>140.6</ele>
        <time>2024-04-07T07:36:45Z</time>
      </trkpt>
      <trkpt lat="48.88515" lon="-0.4162">
        <ele>140.8</ele>
        <time>2024-04-07T07:36:46Z</time>
      </trkpt>
      <trkpt lat="48.88512" lon="-0.41627">
        <ele>140.8</ele>
        <time>2024-04-07T07:36:47Z</time>
      </trkpt>
      <trkpt lat="48.88509" lon="-0.41633">
        <ele>140.8</ele>
        <time>2024-04-07T07:36:48Z</time>
      </trkpt>
      <trkpt lat="48.88506" lon="-0.4164">
        <ele>140.8</ele>
        <time>2024-04-07T07:36:49Z</time>
      </trkpt>
      <trkpt lat="48.88503" lon="-0.41646">
        <ele>140.8</ele>
        <time>2024-04-07T07:36:50Z</time>
      </trkpt>
      <trkpt lat="48.88499" lon="-0.41652">
        <ele>140.8</ele>
        <time>2024-04-07T07:36:51Z</time>
      </trkpt>
      <trkpt lat="48.88496" lon="-0.41658">
        <ele>140.8</ele>
        <time>2024-04-07T07:36:52Z</time>
      </trkpt>
      <trkpt lat="48.88492" lon="-0.41664">
        <ele>140.8</ele>
        <time>2024-04-07T07:36:53Z</time>
      </trkpt>
      <trkpt lat="48.88488" lon="-0.4167">
        <ele>140.8</ele>
        <time>2024-04-07T07:36:54Z</time>
      </trkpt>
      <trkpt lat="48.88484" lon="-0.41675">
        <ele>141</ele>
        <time>2024-04-07T07:36:55Z</time>
      </trkpt>
      <trkpt lat="48.8848" lon="-0.41681">
        <ele>141</ele>
        <time>2024-04-07T07:36:56Z</time>
      </trkpt>
      <trkpt lat="48.88476" lon="-0.41686">
        <ele>141.2</ele>
        <time>2024-04-07T07:36:57Z</time>
      </trkpt>
      <trkpt lat="48.88472" lon="-0.41691">
        <ele>141.2</ele>
        <time>2024-04-07T07:36:58Z</time>
      </trkpt>
      <trkpt lat="48.88468" lon="-0.41696">
        <ele>141.4</ele>
        <time>2024-04-07T07:36:59Z</time>
      </trkpt>
      <trkpt lat="48.88464" lon="-0.417">
        <ele>141.6</ele>
        <time>2024-04-07T07:37:00Z</time>
      </trkpt>
      <trkpt lat="48.88459" lon="-0.41705">
        <ele>142.2</ele>
        <time>2024-04-07T07:37:01Z</time>
      </trkpt>
      <trkpt lat="48.88454" lon="-0.41709">
        <ele>142.8</ele>
        <time>2024-04-07T07:37:02Z</time>
      </trkpt>
      <trkpt lat="48.8845" lon="-0.41714">
        <ele>143.6</ele>
        <time>2024-04-07T07:37:03Z</time>
      </trkpt>
      <trkpt lat="48.88446" lon="-0.41718">
        <ele>144.2</ele>
        <time>2024-04-07T07:37:04Z</time>
      </trkpt>
      <trkpt lat="48.88442" lon="-0.41722">
        <ele>144.8</ele>
        <time>2024-04-07T07:37:05Z</time>
      </trkpt>
      <trkpt lat="48.88438" lon="-0.41726">
        <ele>145</ele>
        <time>2024-04-07T07:37:06Z</time>
      </trkpt>
      <trkpt lat="48.88434" lon="-0.4173">
        <ele>145.2</ele>
        <time>2024-04-07T07:37:07Z</time>
      </trkpt>
      <trkpt lat="48.8843" lon="-0.41733">
        <ele>145.4</ele>
        <time>2024-04-07T07:37:08Z</time>
      </trkpt>
      <trkpt lat="48.88427" lon="-0.41737">
        <ele>145.6</ele>
        <time>2024-04-07T07:37:09Z</time>
      </trkpt>
      <trkpt lat="48.88423" lon="-0.4174">
        <ele>145.8</ele>
        <time>2024-04-07T07:37:10Z</time>
      </trkpt>
      <trkpt lat="48.88419" lon="-0.41744">
        <ele>146.2</ele>
        <time>2024-04-07T07:37:11Z</time>
      </trkpt>
      <trkpt lat="48.88416" lon="-0.41747">
        <ele>146.6</ele>
        <time>2024-04-07T07:37:12Z</time>
      </trkpt>
      <trkpt lat="48.88412" lon="-0.4175">
        <ele>147</ele>
        <time>2024-04-07T07:37:13Z</time>
      </trkpt>
      <trkpt lat="48.88409" lon="-0.41753">
        <ele>147.2</ele>
        <time>2024-04-07T07:37:14Z</time>
      </trkpt>
      <trkpt lat="48.88405" lon="-0.41757">
        <ele>147.4</ele>
        <time>2024-04-07T07:37:15Z</time>
      </trkpt>
      <trkpt lat="48.88402" lon="-0.4176">
        <ele>147.4</ele>
        <time>2024-04-07T07:37:16Z</time>
      </trkpt>
      <trkpt lat="48.88398" lon="-0.41764">
        <ele>147.6</ele>
        <time>2024-04-07T07:37:17Z</time>
      </trkpt>
      <trkpt lat="48.88395" lon="-0.41767">
        <ele>148</ele>
        <time>2024-04-07T07:37:18Z</time>
      </trkpt>
      <trkpt lat="48.88392" lon="-0.4177">
        <ele>148.2</ele>
        <time>2024-04-07T07:37:19Z</time>
      </trkpt>
      <trkpt lat="48.88388" lon="-0.41773">
        <ele>148.4</ele>
        <time>2024-04-07T07:37:20Z</time>
      </trkpt>
      <trkpt lat="48.88385" lon="-0.41776">
        <ele>148.6</ele>
        <time>2024-04-07T07:37:21Z</time>
      </trkpt>
      <trkpt lat="48.88382" lon="-0.4178">
        <ele>148.8</ele>
        <time>2024-04-07T07:37:22Z</time>
      </trkpt>
      <trkpt lat="48.88379" lon="-0.41783">
        <ele>148.8</ele>
        <time>2024-04-07T07:37:23Z</time>
      </trkpt>
      <trkpt lat="48.88375" lon="-0.41786">
        <ele>149</ele>
        <time>2024-04-07T07:37:24Z</time>
      </trkpt>
      <trkpt lat="48.88372" lon="-0.41789">
        <ele>149.2</ele>
        <time>2024-04-07T07:37:25Z</time>
      </trkpt>
      <trkpt lat="48.88368" lon="-0.41792">
        <ele>149.2</ele>
        <time>2024-04-07T07:37:26Z</time>
      </trkpt>
      <trkpt lat="48.88365" lon="-0.41796">
        <ele>149.4</ele>
        <time>2024-04-07T07:37:27Z</time>
      </trkpt>
      <trkpt lat="48.88361" lon="-0.418">
        <ele>149.8</ele>
        <time>2024-04-07T07:37:28Z</time>
      </trkpt>
      <trkpt lat="48.88358" lon="-0.41803">
        <ele>150</ele>
        <time>2024-04-07T07:37:29Z</time>
      </trkpt>
      <trkpt lat="48.88354" lon="-0.41807">
        <ele>150.4</ele>
        <time>2024-04-07T07:37:30Z</time>
      </trkpt>
      <trkpt lat="48.88351" lon="-0.4181">
        <ele>150.6</ele>
        <time>2024-04-07T07:37:31Z</time>
      </trkpt>
      <trkpt lat="48.88347" lon="-0.41814">
        <ele>150.8</ele>
        <time>2024-04-07T07:37:32Z</time>
      </trkpt>
      <trkpt lat="48.88343" lon="-0.41817">
        <ele>150.8</ele>
        <time>2024-04-07T07:37:33Z</time>
      </trkpt>
      <trkpt lat="48.8834" lon="-0.41821">
        <ele>151</ele>
        <time>2024-04-07T07:37:34Z</time>
      </trkpt>
      <trkpt lat="48.88336" lon="-0.41825">
        <ele>151.2</ele>
        <time>2024-04-07T07:37:35Z</time>
      </trkpt>
      <trkpt lat="48.88333" lon="-0.41828">
        <ele>151.2</ele>
        <time>2024-04-07T07:37:36Z</time>
      </trkpt>
      <trkpt lat="48.88329" lon="-0.41832">
        <ele>151.4</ele>
        <time>2024-04-07T07:37:37Z</time>
      </trkpt>
      <trkpt lat="48.88325" lon="-0.41836">
        <ele>151.6</ele>
        <time>2024-04-07T07:37:38Z</time>
      </trkpt>
      <trkpt lat="48.88321" lon="-0.41839">
        <ele>152</ele>
        <time>2024-04-07T07:37:39Z</time>
      </trkpt>
      <trkpt lat="48.88318" lon="-0.41843">
        <ele>152.6</ele>
        <time>2024-04-07T07:37:40Z</time>
      </trkpt>
      <trkpt lat="48.88314" lon="-0.41846">
        <ele>153</ele>
        <time>2024-04-07T07:37:41Z</time>
      </trkpt>
      <trkpt lat="48.8831" lon="-0.4185">
        <ele>153.4</ele>
        <time>2024-04-07T07:37:42Z</time>
      </trkpt>
      <trkpt lat="48.88306" lon="-0.41854">
        <ele>153.6</ele>
        <time>2024-04-07T07:37:43Z</time>
      </trkpt>
      <trkpt lat="48.88302" lon="-0.41857">
        <ele>154</ele>
        <time>2024-04-07T07:37:44Z</time>
      </trkpt>
      <trkpt lat="48.88298" lon="-0.41861">
        <ele>154.2</ele>
        <time>2024-04-07T07:37:45Z</time>
      </trkpt>
      <trkpt lat="48.88294" lon="-0.41864">
        <ele>154.8</ele>
        <time>2024-04-07T07:37:46Z</time>
      </trkpt>
      <trkpt lat="48.8829" lon="-0.41867">
        <ele>155.4</ele>
        <time>2024-04-07T07:37:47Z</time>
      </trkpt>
      <trkpt lat="48.88286" lon="-0.41869">
        <ele>155.6</ele>
        <time>2024-04-07T07:37:48Z</time>
      </trkpt>
      <trkpt lat="48.88283" lon="-0.4187">
        <ele>156</ele>
        <time>2024-04-07T07:37:49Z</time>
      </trkpt>
      <trkpt lat="48.88279" lon="-0.41871">
        <ele>156.4</ele>
        <time>2024-04-07T07:37:50Z</time>
      </trkpt>
      <trkpt lat="48.88276" lon="-0.41872">
        <ele>156.6</ele>
        <time>2024-04-07T07:37:51Z</time>
      </trkpt>
      <trkpt lat="48.88274" lon="-0.41874">
        <ele>156.8</ele>
        <time>2024-04-07T07:37:52Z</time>
      </trkpt>
      <trkpt lat="48.88272" lon="-0.41876">
        <ele>157</ele>
        <time>2024-04-07T07:37:53Z</time>
      </trkpt>
      <trkpt lat="48.88269" lon="-0.41878">
        <ele>157</ele>
        <time>2024-04-07T07:37:54Z</time>
      </trkpt>
      <trkpt lat="48.88268" lon="-0.41879">
        <ele>157</ele>
        <time>2024-04-07T07:37:55Z</time>
      </trkpt>
      <trkpt lat="48.88267" lon="-0.4188">
        <ele>157</ele>
        <time>2024-04-07T07:37:56Z</time>
      </trkpt>
      <trkpt lat="48.88267" lon="-0.4188">
        <ele>157</ele>
        <time>2024-04-07T07:37:57Z</time>
      </trkpt>
      <trkpt lat="48.88264" lon="-0.41881">
        <ele>156.4</ele>
        <time>2024-04-07T07:38:16Z</time>
      </trkpt>
      <trkpt lat="48.88262" lon="-0.41882">
        <ele>156.4</ele>
        <time>2024-04-07T07:38:17Z</time>
      </trkpt>
      <trkpt lat="48.8826" lon="-0.41881">
        <ele>156.4</ele>
        <time>2024-04-07T07:38:18Z</time>
      </trkpt>
      <trkpt lat="48.88258" lon="-0.41882">
        <ele>156.4</ele>
        <time>2024-04-07T07:38:19Z</time>
      </trkpt>
      <trkpt lat="48.88255" lon="-0.41883">
        <ele>156.4</ele>
        <time>2024-04-07T07:38:20Z</time>
      </trkpt>
      <trkpt lat="48.88252" lon="-0.41884">
        <ele>156.4</ele>
        <time>2024-04-07T07:38:21Z</time>
      </trkpt>
      <trkpt lat="48.88249" lon="-0.41884">
        <ele>156.4</ele>
        <time>2024-04-07T07:38:22Z</time>
      </trkpt>
      <trkpt lat="48.88245" lon="-0.41883">
        <ele>156.4</ele>
        <time>2024-04-07T07:38:23Z</time>
      </trkpt>
      <trkpt lat="48.88241" lon="-0.41883">
        <ele>156.4</ele>
        <time>2024-04-07T07:38:24Z</time>
      </trkpt>
      <trkpt lat="48.88238" lon="-0.41882">
        <ele>156.2</ele>
        <time>2024-04-07T07:38:25Z</time>
      </trkpt>
      <trkpt lat="48.88234" lon="-0.4188">
        <ele>155.8</ele>
        <time>2024-04-07T07:38:26Z</time>
      </trkpt>
      <trkpt lat="48.88231" lon="-0.41877">
        <ele>155.8</ele>
        <time>2024-04-07T07:38:27Z</time>
      </trkpt>
      <trkpt lat="48.88227" lon="-0.41874">
        <ele>155.6</ele>
        <time>2024-04-07T07:38:28Z</time>
      </trkpt>
      <trkpt lat="48.88224" lon="-0.4187">
        <ele>155.4</ele>
        <time>2024-04-07T07:38:29Z</time>
      </trkpt>
      <trkpt lat="48.88221" lon="-0.41866">
        <ele>155.4</ele>
        <time>2024-04-07T07:38:30Z</time>
      </trkpt>
      <trkpt lat="48.88218" lon="-0.4186">
        <ele>155.4</ele>
        <time>2024-04-07T07:38:31Z</time>
      </trkpt>
      <trkpt lat="48.88216" lon="-0.41854">
        <ele>155.2</ele>
        <time>2024-04-07T07:38:32Z</time>
      </trkpt>
      <trkpt lat="48.88215" lon="-0.41846">
        <ele>154.8</ele>
        <time>2024-04-07T07:38:33Z</time>
      </trkpt>
      <trkpt lat="48.88214" lon="-0.41839">
        <ele>154.2</ele>
        <time>2024-04-07T07:38:34Z</time>
      </trkpt>
      <trkpt lat="48.88213" lon="-0.41832">
        <ele>153.8</ele>
        <time>2024-04-07T07:38:35Z</time>
      </trkpt>
      <trkpt lat="48.88212" lon="-0.41824">
        <ele>153.4</ele>
        <time>2024-04-07T07:38:36Z</time>
      </trkpt>
      <trkpt lat="48.88211" lon="-0.41816">
        <ele>153.2</ele>
        <time>2024-04-07T07:38:37Z</time>
      </trkpt>
      <trkpt lat="48.88209" lon="-0.41807">
        <ele>153</ele>
        <time>2024-04-07T07:38:38Z</time>
      </trkpt>
      <trkpt lat="48.88207" lon="-0.41799">
        <ele>152.6</ele>
        <time>2024-04-07T07:38:39Z</time>
      </trkpt>
      <trkpt lat="48.88206" lon="-0.4179">
        <ele>152.6</ele>
        <time>2024-04-07T07:38:40Z</time>
      </trkpt>
      <trkpt lat="48.88204" lon="-0.41781">
        <ele>152.2</ele>
        <time>2024-04-07T07:38:41Z</time>
      </trkpt>
      <trkpt lat="48.88202" lon="-0.41773">
        <ele>151.8</ele>
        <time>2024-04-07T07:38:42Z</time>
      </trkpt>
      <trkpt lat="48.88199" lon="-0.41764">
        <ele>151.4</ele>
        <time>2024-04-07T07:38:43Z</time>
      </trkpt>
      <trkpt lat="48.88195" lon="-0.41756">
        <ele>151</ele>
        <time>2024-04-07T07:38:44Z</time>
      </trkpt>
      <trkpt lat="48.88192" lon="-0.41747">
        <ele>150.8</ele>
        <time>2024-04-07T07:38:45Z</time>
      </trkpt>
      <trkpt lat="48.8819" lon="-0.41739">
        <ele>150.8</ele>
        <time>2024-04-07T07:38:46Z</time>
      </trkpt>
      <trkpt lat="48.88188" lon="-0.41729">
        <ele>150.6</ele>
        <time>2024-04-07T07:38:47Z</time>
      </trkpt>
      <trkpt lat="48.88184" lon="-0.41719">
        <ele>150.6</ele>
        <time>2024-04-07T07:38:48Z</time>
      </trkpt>
      <trkpt lat="48.8818" lon="-0.41708">
        <ele>150.4</ele>
        <time>2024-04-07T07:38:49Z</time>
      </trkpt>
      <trkpt lat="48.88175" lon="-0.41698">
        <ele>150</ele>
        <time>2024-04-07T07:38:50Z</time>
      </trkpt>
      <trkpt lat="48.8817" lon="-0.41688">
        <ele>148.8</ele>
        <time>2024-04-07T07:38:51Z</time>
      </trkpt>
      <trkpt lat="48.88164" lon="-0.41679">
        <ele>147.8</ele>
        <time>2024-04-07T07:38:52Z</time>
      </trkpt>
      <trkpt lat="48.88159" lon="-0.4167">
        <ele>146.6</ele>
        <time>2024-04-07T07:38:53Z</time>
      </trkpt>
      <trkpt lat="48.88152" lon="-0.41661">
        <ele>144.8</ele>
        <time>2024-04-07T07:38:54Z</time>
      </trkpt>
      <trkpt lat="48.88145" lon="-0.41652">
        <ele>143.4</ele>
        <time>2024-04-07T07:38:55Z</time>
      </trkpt>
      <trkpt lat="48.88138" lon="-0.41643">
        <ele>142.4</ele>
        <time>2024-04-07T07:38:56Z</time>
      </trkpt>
      <trkpt lat="48.88131" lon="-0.41634">
        <ele>141.6</ele>
        <time>2024-04-07T07:38:57Z</time>
      </trkpt>
      <trkpt lat="48.88124" lon="-0.41627">
        <ele>141</ele>
        <time>2024-04-07T07:38:58Z</time>
      </trkpt>
      <trkpt lat="48.88118" lon="-0.41617">
        <ele>140.4</ele>
        <time>2024-04-07T07:38:59Z</time>
      </trkpt>
      <trkpt lat="48.88109" lon="-0.41608">
        <ele>139.6</ele>
        <time>2024-04-07T07:39:00Z</time>
      </trkpt>
      <trkpt lat="48.88103" lon="-0.41597">
        <ele>139</ele>
        <time>2024-04-07T07:39:01Z</time>
      </trkpt>
      <trkpt lat="48.88098" lon="-0.41583">
        <ele>138.6</ele>
        <time>2024-04-07T07:39:02Z</time>
      </trkpt>
      <trkpt lat="48.88095" lon="-0.4157">
        <ele>138.4</ele>
        <time>2024-04-07T07:39:03Z</time>
      </trkpt>
      <trkpt lat="48.88091" lon="-0.41558">
        <ele>138.4</ele>
        <time>2024-04-07T07:39:04Z</time>
      </trkpt>
      <trkpt lat="48.88086" lon="-0.41546">
        <ele>138.4</ele>
        <time>2024-04-07T07:39:05Z</time>
      </trkpt>
      <trkpt lat="48.88081" lon="-0.41537">
        <ele>138.6</ele>
        <time>2024-04-07T07:39:06Z</time>
      </trkpt>
      <trkpt lat="48.88076" lon="-0.41528">
        <ele>138.4</ele>
        <time>2024-04-07T07:39:07Z</time>
      </trkpt>
      <trkpt lat="48.8807" lon="-0.4152">
        <ele>138.4</ele>
        <time>2024-04-07T07:39:08Z</time>
      </trkpt>
      <trkpt lat="48.88064" lon="-0.41512">
        <ele>138.2</ele>
        <time>2024-04-07T07:39:09Z</time>
      </trkpt>
      <trkpt lat="48.88059" lon="-0.41503">
        <ele>137.8</ele>
        <time>2024-04-07T07:39:10Z</time>
      </trkpt>
      <trkpt lat="48.88053" lon="-0.41495">
        <ele>137.6</ele>
        <time>2024-04-07T07:39:11Z</time>
      </trkpt>
      <trkpt lat="48.88041" lon="-0.41475">
        <ele>137.4</ele>
        <time>2024-04-07T07:39:12Z</time>
      </trkpt>
      <trkpt lat="48.88041" lon="-0.41475">
        <ele>137.2</ele>
        <time>2024-04-07T07:39:13Z</time>
      </trkpt>
      <trkpt lat="48.8803" lon="-0.41462">
        <ele>137</ele>
        <time>2024-04-07T07:39:14Z</time>
      </trkpt>
      <trkpt lat="48.88026" lon="-0.41457">
        <ele>136.8</ele>
        <time>2024-04-07T07:39:15Z</time>
      </trkpt>
      <trkpt lat="48.88013" lon="-0.41438">
        <ele>136.8</ele>
        <time>2024-04-07T07:39:16Z</time>
      </trkpt>
      <trkpt lat="48.8801" lon="-0.41434">
        <ele>136.6</ele>
        <time>2024-04-07T07:39:17Z</time>
      </trkpt>
      <trkpt lat="48.88007" lon="-0.4143">
        <ele>136.4</ele>
        <time>2024-04-07T07:39:18Z</time>
      </trkpt>
      <trkpt lat="48.88001" lon="-0.41421">
        <ele>136</ele>
        <time>2024-04-07T07:39:19Z</time>
      </trkpt>
      <trkpt lat="48.87995" lon="-0.41413">
        <ele>135.8</ele>
        <time>2024-04-07T07:39:20Z</time>
      </trkpt>
      <trkpt lat="48.8799" lon="-0.41404">
        <ele>135.6</ele>
        <time>2024-04-07T07:39:21Z</time>
      </trkpt>
      <trkpt lat="48.87984" lon="-0.41396">
        <ele>135.6</ele>
        <time>2024-04-07T07:39:22Z</time>
      </trkpt>
      <trkpt lat="48.8798" lon="-0.41387">
        <ele>135.6</ele>
        <time>2024-04-07T07:39:23Z</time>
      </trkpt>
      <trkpt lat="48.8797" lon="-0.4137">
        <ele>135.8</ele>
        <time>2024-04-07T07:39:24Z</time>
      </trkpt>
      <trkpt lat="48.87968" lon="-0.41366">
        <ele>136.4</ele>
        <time>2024-04-07T07:39:25Z</time>
      </trkpt>
      <trkpt lat="48.87966" lon="-0.41361">
        <ele>137</ele>
        <time>2024-04-07T07:39:26Z</time>
      </trkpt>
      <trkpt lat="48.87955" lon="-0.41346">
        <ele>137.6</ele>
        <time>2024-04-07T07:39:27Z</time>
      </trkpt>
      <trkpt lat="48.87953" lon="-0.41342">
        <ele>137.8</ele>
        <time>2024-04-07T07:39:28Z</time>
      </trkpt>
      <trkpt lat="48.8795" lon="-0.41339">
        <ele>138</ele>
        <time>2024-04-07T07:39:29Z</time>
      </trkpt>
      <trkpt lat="48.87943" lon="-0.41334">
        <ele>138.2</ele>
        <time>2024-04-07T07:39:30Z</time>
      </trkpt>
      <trkpt lat="48.87937" lon="-0.41329">
        <ele>138.2</ele>
        <time>2024-04-07T07:39:31Z</time>
      </trkpt>
      <trkpt lat="48.87932" lon="-0.41325">
        <ele>138.4</ele>
        <time>2024-04-07T07:39:32Z</time>
      </trkpt>
      <trkpt lat="48.87929" lon="-0.41322">
        <ele>138.4</ele>
        <time>2024-04-07T07:39:33Z</time>
      </trkpt>
      <trkpt lat="48.87926" lon="-0.4132">
        <ele>138.8</ele>
        <time>2024-04-07T07:39:34Z</time>
      </trkpt>
      <trkpt lat="48.87925" lon="-0.41318">
        <ele>139</ele>
        <time>2024-04-07T07:39:35Z</time>
      </trkpt>
      <trkpt lat="48.87923" lon="-0.41316">
        <ele>139.2</ele>
        <time>2024-04-07T07:39:36Z</time>
      </trkpt>
      <trkpt lat="48.87921" lon="-0.41316">
        <ele>139.4</ele>
        <time>2024-04-07T07:39:37Z</time>
      </trkpt>
      <trkpt lat="48.87918" lon="-0.41315">
        <ele>139.6</ele>
        <time>2024-04-07T07:39:38Z</time>
      </trkpt>
      <trkpt lat="48.87914" lon="-0.41315">
        <ele>139.6</ele>
        <time>2024-04-07T07:39:39Z</time>
      </trkpt>
      <trkpt lat="48.87914" lon="-0.41315">
        <ele>139.6</ele>
        <time>2024-04-07T07:39:40Z</time>
      </trkpt>
      <trkpt lat="48.87912" lon="-0.41314">
        <ele>139.6</ele>
        <time>2024-04-07T07:39:41Z</time>
      </trkpt>
      <trkpt lat="48.87909" lon="-0.41314">
        <ele>139.6</ele>
        <time>2024-04-07T07:39:42Z</time>
      </trkpt>
      <trkpt lat="48.87906" lon="-0.41313">
        <ele>139.6</ele>
        <time>2024-04-07T07:39:43Z</time>
      </trkpt>
      <trkpt lat="48.87903" lon="-0.4131">
        <ele>139.4</ele>
        <time>2024-04-07T07:39:44Z</time>
      </trkpt>
      <trkpt lat="48.87901" lon="-0.41307">
        <ele>139.4</ele>
        <time>2024-04-07T07:39:45Z</time>
      </trkpt>
      <trkpt lat="48.87898" lon="-0.41305">
        <ele>139.2</ele>
        <time>2024-04-07T07:39:46Z</time>
      </trkpt>
      <trkpt lat="48.87896" lon="-0.41304">
        <ele>139.2</ele>
        <time>2024-04-07T07:39:47Z</time>
      </trkpt>
      <trkpt lat="48.87895" lon="-0.41302">
        <ele>139.2</ele>
        <time>2024-04-07T07:39:48Z</time>
      </trkpt>
      <trkpt lat="48.87895" lon="-0.41302">
        <ele>139.2</ele>
        <time>2024-04-07T07:39:49Z</time>
      </trkpt>
      <trkpt lat="48.87889" lon="-0.41301">
        <ele>139.6</ele>
        <time>2024-04-07T07:39:58Z</time>
      </trkpt>
      <trkpt lat="48.87887" lon="-0.413">
        <ele>139.6</ele>
        <time>2024-04-07T07:39:59Z</time>
      </trkpt>
      <trkpt lat="48.87887" lon="-0.413">
        <ele>139.6</ele>
        <time>2024-04-07T07:40:00Z</time>
      </trkpt>
      <trkpt lat="48.87882" lon="-0.41301">
        <ele>139.6</ele>
        <time>2024-04-07T07:40:07Z</time>
      </trkpt>
      <trkpt lat="48.8788" lon="-0.413">
        <ele>139.6</ele>
        <time>2024-04-07T07:40:08Z</time>
      </trkpt>
      <trkpt lat="48.87878" lon="-0.41299">
        <ele>139.6</ele>
        <time>2024-04-07T07:40:09Z</time>
      </trkpt>
      <trkpt lat="48.87876" lon="-0.41298">
        <ele>139.6</ele>
        <time>2024-04-07T07:40:10Z</time>
      </trkpt>
      <trkpt lat="48.87869" lon="-0.41293">
        <ele>139.4</ele>
        <time>2024-04-07T07:40:11Z</time>
      </trkpt>
      <trkpt lat="48.87867" lon="-0.41291">
        <ele>139.4</ele>
        <time>2024-04-07T07:40:12Z</time>
      </trkpt>
      <trkpt lat="48.87865" lon="-0.4129">
        <ele>139.4</ele>
        <time>2024-04-07T07:40:13Z</time>
      </trkpt>
      <trkpt lat="48.87861" lon="-0.41289">
        <ele>139.2</ele>
        <time>2024-04-07T07:40:14Z</time>
      </trkpt>
      <trkpt lat="48.87852" lon="-0.41283">
        <ele>139</ele>
        <time>2024-04-07T07:40:15Z</time>
      </trkpt>
      <trkpt lat="48.87847" lon="-0.4128">
        <ele>138.8</ele>
        <time>2024-04-07T07:40:16Z</time>
      </trkpt>
      <trkpt lat="48.87843" lon="-0.41277">
        <ele>138.6</ele>
        <time>2024-04-07T07:40:17Z</time>
      </trkpt>
      <trkpt lat="48.87839" lon="-0.41274">
        <ele>138.6</ele>
        <time>2024-04-07T07:40:18Z</time>
      </trkpt>
      <trkpt lat="48.87836" lon="-0.41271">
        <ele>138.4</ele>
        <time>2024-04-07T07:40:19Z</time>
      </trkpt>
      <trkpt lat="48.87829" lon="-0.41266">
        <ele>138.2</ele>
        <time>2024-04-07T07:40:20Z</time>
      </trkpt>
      <trkpt lat="48.87826" lon="-0.41264">
        <ele>138.2</ele>
        <time>2024-04-07T07:40:21Z</time>
      </trkpt>
      <trkpt lat="48.87824" lon="-0.41263">
        <ele>138.2</ele>
        <time>2024-04-07T07:40:22Z</time>
      </trkpt>
      <trkpt lat="48.87819" lon="-0.4126">
        <ele>138.2</ele>
        <time>2024-04-07T07:40:23Z</time>
      </trkpt>
      <trkpt lat="48.87814" lon="-0.41257">
        <ele>138.2</ele>
        <time>2024-04-07T07:40:24Z</time>
      </trkpt>
      <trkpt lat="48.87809" lon="-0.41255">
        <ele>138.2</ele>
        <time>2024-04-07T07:40:25Z</time>
      </trkpt>
      <trkpt lat="48.87805" lon="-0.41253">
        <ele>138.4</ele>
        <time>2024-04-07T07:40:26Z</time>
      </trkpt>
      <trkpt lat="48.878" lon="-0.41251">
        <ele>138.4</ele>
        <time>2024-04-07T07:40:27Z</time>
      </trkpt>
      <trkpt lat="48.87796" lon="-0.41249">
        <ele>138.4</ele>
        <time>2024-04-07T07:40:28Z</time>
      </trkpt>
      <trkpt lat="48.87793" lon="-0.41247">
        <ele>138.6</ele>
        <time>2024-04-07T07:40:29Z</time>
      </trkpt>
      <trkpt lat="48.8779" lon="-0.41246">
        <ele>138.6</ele>
        <time>2024-04-07T07:40:30Z</time>
      </trkpt>
      <trkpt lat="48.87788" lon="-0.41245">
        <ele>138.8</ele>
        <time>2024-04-07T07:40:31Z</time>
      </trkpt>
      <trkpt lat="48.87786" lon="-0.41244">
        <ele>139</ele>
        <time>2024-04-07T07:40:32Z</time>
      </trkpt>
      <trkpt lat="48.87786" lon="-0.41243">
        <ele>139.2</ele>
        <time>2024-04-07T07:40:33Z</time>
      </trkpt>
      <trkpt lat="48.87786" lon="-0.41241">
        <ele>139.2</ele>
        <time>2024-04-07T07:40:34Z</time>
      </trkpt>
      <trkpt lat="48.87786" lon="-0.4124">
        <ele>139.2</ele>
        <time>2024-04-07T07:40:35Z</time>
      </trkpt>
      <trkpt lat="48.87785" lon="-0.41238">
        <ele>139.2</ele>
        <time>2024-04-07T07:40:36Z</time>
      </trkpt>
      <trkpt lat="48.87784" lon="-0.41237">
        <ele>139</ele>
        <time>2024-04-07T07:40:37Z</time>
      </trkpt>
      <trkpt lat="48.87781" lon="-0.41235">
        <ele>139</ele>
        <time>2024-04-07T07:40:38Z</time>
      </trkpt>
      <trkpt lat="48.87779" lon="-0.41234">
        <ele>138.8</ele>
        <time>2024-04-07T07:40:39Z</time>
      </trkpt>
      <trkpt lat="48.87776" lon="-0.41232">
        <ele>138.8</ele>
        <time>2024-04-07T07:40:40Z</time>
      </trkpt>
      <trkpt lat="48.87773" lon="-0.41231">
        <ele>138.8</ele>
        <time>2024-04-07T07:40:41Z</time>
      </trkpt>
      <trkpt lat="48.87773" lon="-0.41231">
        <ele>138.8</ele>
        <time>2024-04-07T07:40:42Z</time>
      </trkpt>
      <trkpt lat="48.8777" lon="-0.4123">
        <ele>138.8</ele>
        <time>2024-04-07T07:40:43Z</time>
      </trkpt>
      <trkpt lat="48.87767" lon="-0.41228">
        <ele>138.8</ele>
        <time>2024-04-07T07:40:44Z</time>
      </trkpt>
      <trkpt lat="48.8776" lon="-0.41223">
        <ele>138.6</ele>
        <time>2024-04-07T07:40:45Z</time>
      </trkpt>
      <trkpt lat="48.87758" lon="-0.41222">
        <ele>138.6</ele>
        <time>2024-04-07T07:40:46Z</time>
      </trkpt>
      <trkpt lat="48.87756" lon="-0.41221">
        <ele>138.4</ele>
        <time>2024-04-07T07:40:47Z</time>
      </trkpt>
      <trkpt lat="48.87753" lon="-0.41218">
        <ele>138</ele>
        <time>2024-04-07T07:40:48Z</time>
      </trkpt>
      <trkpt lat="48.87749" lon="-0.41216">
        <ele>137.8</ele>
        <time>2024-04-07T07:40:49Z</time>
      </trkpt>
      <trkpt lat="48.87746" lon="-0.41214">
        <ele>137.6</ele>
        <time>2024-04-07T07:40:50Z</time>
      </trkpt>
      <trkpt lat="48.87743" lon="-0.41212">
        <ele>137.4</ele>
        <time>2024-04-07T07:40:51Z</time>
      </trkpt>
      <trkpt lat="48.8774" lon="-0.4121">
        <ele>137.4</ele>
        <time>2024-04-07T07:40:52Z</time>
      </trkpt>
      <trkpt lat="48.87737" lon="-0.41207">
        <ele>137.6</ele>
        <time>2024-04-07T07:40:53Z</time>
      </trkpt>
      <trkpt lat="48.87733" lon="-0.41205">
        <ele>137.8</ele>
        <time>2024-04-07T07:40:54Z</time>
      </trkpt>
      <trkpt lat="48.8773" lon="-0.41203">
        <ele>138</ele>
        <time>2024-04-07T07:40:55Z</time>
      </trkpt>
      <trkpt lat="48.87727" lon="-0.41202">
        <ele>138.2</ele>
        <time>2024-04-07T07:40:56Z</time>
      </trkpt>
      <trkpt lat="48.87724" lon="-0.41201">
        <ele>138.6</ele>
        <time>2024-04-07T07:40:57Z</time>
      </trkpt>
      <trkpt lat="48.87722" lon="-0.41199">
        <ele>138.8</ele>
        <time>2024-04-07T07:40:58Z</time>
      </trkpt>
      <trkpt lat="48.87719" lon="-0.41198">
        <ele>139</ele>
        <time>2024-04-07T07:40:59Z</time>
      </trkpt>
      <trkpt lat="48.87716" lon="-0.41195">
        <ele>139.2</ele>
        <time>2024-04-07T07:41:00Z</time>
      </trkpt>
      <trkpt lat="48.87714" lon="-0.41193">
        <ele>139.2</ele>
        <time>2024-04-07T07:41:01Z</time>
      </trkpt>
      <trkpt lat="48.87711" lon="-0.41192">
        <ele>139</ele>
        <time>2024-04-07T07:41:02Z</time>
      </trkpt>
      <trkpt lat="48.87709" lon="-0.41191">
        <ele>138.8</ele>
        <time>2024-04-07T07:41:03Z</time>
      </trkpt>
      <trkpt lat="48.87707" lon="-0.41189">
        <ele>138.6</ele>
        <time>2024-04-07T07:41:04Z</time>
      </trkpt>
      <trkpt lat="48.87705" lon="-0.41187">
        <ele>138.4</ele>
        <time>2024-04-07T07:41:05Z</time>
      </trkpt>
      <trkpt lat="48.87703" lon="-0.41185">
        <ele>138.2</ele>
        <time>2024-04-07T07:41:06Z</time>
      </trkpt>
      <trkpt lat="48.87701" lon="-0.41184">
        <ele>138</ele>
        <time>2024-04-07T07:41:07Z</time>
      </trkpt>
      <trkpt lat="48.87698" lon="-0.41183">
        <ele>138</ele>
        <time>2024-04-07T07:41:08Z</time>
      </trkpt>
      <trkpt lat="48.87695" lon="-0.41182">
        <ele>138</ele>
        <time>2024-04-07T07:41:09Z</time>
      </trkpt>
      <trkpt lat="48.87692" lon="-0.41182">
        <ele>138</ele>
        <time>2024-04-07T07:41:10Z</time>
      </trkpt>
      <trkpt lat="48.87689" lon="-0.41181">
        <ele>138</ele>
        <time>2024-04-07T07:41:11Z</time>
      </trkpt>
      <trkpt lat="48.87687" lon="-0.41179">
        <ele>138</ele>
        <time>2024-04-07T07:41:12Z</time>
      </trkpt>
      <trkpt lat="48.87685" lon="-0.41178">
        <ele>138</ele>
        <time>2024-04-07T07:41:13Z</time>
      </trkpt>
      <trkpt lat="48.87682" lon="-0.41177">
        <ele>138</ele>
        <time>2024-04-07T07:41:14Z</time>
      </trkpt>
      <trkpt lat="48.87679" lon="-0.41176">
        <ele>138</ele>
        <time>2024-04-07T07:41:15Z</time>
      </trkpt>
      <trkpt lat="48.87677" lon="-0.41175">
        <ele>138</ele>
        <time>2024-04-07T07:41:16Z</time>
      </trkpt>
      <trkpt lat="48.87674" lon="-0.41174">
        <ele>138</ele>
        <time>2024-04-07T07:41:17Z</time>
      </trkpt>
      <trkpt lat="48.87672" lon="-0.41172">
        <ele>138</ele>
        <time>2024-04-07T07:41:18Z</time>
      </trkpt>
      <trkpt lat="48.8767" lon="-0.41171">
        <ele>138</ele>
        <time>2024-04-07T07:41:19Z</time>
      </trkpt>
      <trkpt lat="48.87668" lon="-0.41169">
        <ele>138.2</ele>
        <time>2024-04-07T07:41:20Z</time>
      </trkpt>
      <trkpt lat="48.87665" lon="-0.41167">
        <ele>138.2</ele>
        <time>2024-04-07T07:41:21Z</time>
      </trkpt>
      <trkpt lat="48.87663" lon="-0.41165">
        <ele>138.4</ele>
        <time>2024-04-07T07:41:22Z</time>
      </trkpt>
      <trkpt lat="48.8766" lon="-0.41163">
        <ele>138.4</ele>
        <time>2024-04-07T07:41:23Z</time>
      </trkpt>
      <trkpt lat="48.87657" lon="-0.41161">
        <ele>138.4</ele>
        <time>2024-04-07T07:41:24Z</time>
      </trkpt>
      <trkpt lat="48.87654" lon="-0.41159">
        <ele>138.4</ele>
        <time>2024-04-07T07:41:25Z</time>
      </trkpt>
      <trkpt lat="48.87651" lon="-0.41156">
        <ele>138.4</ele>
        <time>2024-04-07T07:41:26Z</time>
      </trkpt>
      <trkpt lat="48.87648" lon="-0.41155">
        <ele>138.4</ele>
        <time>2024-04-07T07:41:27Z</time>
      </trkpt>
      <trkpt lat="48.87645" lon="-0.41153">
        <ele>138.4</ele>
        <time>2024-04-07T07:41:28Z</time>
      </trkpt>
      <trkpt lat="48.87643" lon="-0.41151">
        <ele>138.4</ele>
        <time>2024-04-07T07:41:29Z</time>
      </trkpt>
      <trkpt lat="48.8764" lon="-0.41149">
        <ele>138.4</ele>
        <time>2024-04-07T07:41:30Z</time>
      </trkpt>
      <trkpt lat="48.87637" lon="-0.41147">
        <ele>138.4</ele>
        <time>2024-04-07T07:41:31Z</time>
      </trkpt>
      <trkpt lat="48.87634" lon="-0.41145">
        <ele>138.4</ele>
        <time>2024-04-07T07:41:32Z</time>
      </trkpt>
      <trkpt lat="48.87632" lon="-0.41143">
        <ele>138.4</ele>
        <time>2024-04-07T07:41:33Z</time>
      </trkpt>
      <trkpt lat="48.8763" lon="-0.41141">
        <ele>138.6</ele>
        <time>2024-04-07T07:41:34Z</time>
      </trkpt>
      <trkpt lat="48.87628" lon="-0.4114">
        <ele>138.6</ele>
        <time>2024-04-07T07:41:35Z</time>
      </trkpt>
      <trkpt lat="48.87625" lon="-0.41139">
        <ele>138.6</ele>
        <time>2024-04-07T07:41:36Z</time>
      </trkpt>
      <trkpt lat="48.87623" lon="-0.41137">
        <ele>138.6</ele>
        <time>2024-04-07T07:41:37Z</time>
      </trkpt>
      <trkpt lat="48.8762" lon="-0.41136">
        <ele>138.4</ele>
        <time>2024-04-07T07:41:38Z</time>
      </trkpt>
      <trkpt lat="48.87617" lon="-0.41134">
        <ele>138.4</ele>
        <time>2024-04-07T07:41:39Z</time>
      </trkpt>
      <trkpt lat="48.87614" lon="-0.41132">
        <ele>138.4</ele>
        <time>2024-04-07T07:41:40Z</time>
      </trkpt>
      <trkpt lat="48.87611" lon="-0.41129">
        <ele>138.2</ele>
        <time>2024-04-07T07:41:41Z</time>
      </trkpt>
      <trkpt lat="48.87607" lon="-0.41126">
        <ele>137.8</ele>
        <time>2024-04-07T07:41:42Z</time>
      </trkpt>
      <trkpt lat="48.87604" lon="-0.41123">
        <ele>137.6</ele>
        <time>2024-04-07T07:41:43Z</time>
      </trkpt>
      <trkpt lat="48.87601" lon="-0.41121">
        <ele>137.4</ele>
        <time>2024-04-07T07:41:44Z</time>
      </trkpt>
      <trkpt lat="48.87597" lon="-0.41119">
        <ele>137.4</ele>
        <time>2024-04-07T07:41:45Z</time>
      </trkpt>
      <trkpt lat="48.87593" lon="-0.41117">
        <ele>137.4</ele>
        <time>2024-04-07T07:41:46Z</time>
      </trkpt>
      <trkpt lat="48.87589" lon="-0.41114">
        <ele>137.4</ele>
        <time>2024-04-07T07:41:47Z</time>
      </trkpt>
      <trkpt lat="48.87585" lon="-0.41112">
        <ele>137.4</ele>
        <time>2024-04-07T07:41:48Z</time>
      </trkpt>
      <trkpt lat="48.87581" lon="-0.41109">
        <ele>137.4</ele>
        <time>2024-04-07T07:41:49Z</time>
      </trkpt>
      <trkpt lat="48.87577" lon="-0.41106">
        <ele>137.4</ele>
        <time>2024-04-07T07:41:50Z</time>
      </trkpt>
      <trkpt lat="48.87573" lon="-0.41103">
        <ele>137.4</ele>
        <time>2024-04-07T07:41:51Z</time>
      </trkpt>
      <trkpt lat="48.87569" lon="-0.41101">
        <ele>137.4</ele>
        <time>2024-04-07T07:41:52Z</time>
      </trkpt>
      <trkpt lat="48.87564" lon="-0.41098">
        <ele>137.6</ele>
        <time>2024-04-07T07:41:53Z</time>
      </trkpt>
      <trkpt lat="48.8756" lon="-0.41096">
        <ele>137.6</ele>
        <time>2024-04-07T07:41:54Z</time>
      </trkpt>
      <trkpt lat="48.87556" lon="-0.41093">
        <ele>137.6</ele>
        <time>2024-04-07T07:41:55Z</time>
      </trkpt>
      <trkpt lat="48.87552" lon="-0.4109">
        <ele>137.6</ele>
        <time>2024-04-07T07:41:56Z</time>
      </trkpt>
      <trkpt lat="48.87548" lon="-0.41086">
        <ele>137.6</ele>
        <time>2024-04-07T07:41:57Z</time>
      </trkpt>
      <trkpt lat="48.87544" lon="-0.41083">
        <ele>137.6</ele>
        <time>2024-04-07T07:41:58Z</time>
      </trkpt>
      <trkpt lat="48.87539" lon="-0.41081">
        <ele>137.6</ele>
        <time>2024-04-07T07:41:59Z</time>
      </trkpt>
      <trkpt lat="48.87535" lon="-0.41078">
        <ele>137.6</ele>
        <time>2024-04-07T07:42:00Z</time>
      </trkpt>
      <trkpt lat="48.8753" lon="-0.41075">
        <ele>137.6</ele>
        <time>2024-04-07T07:42:01Z</time>
      </trkpt>
      <trkpt lat="48.87526" lon="-0.41072">
        <ele>137.8</ele>
        <time>2024-04-07T07:42:02Z</time>
      </trkpt>
      <trkpt lat="48.87522" lon="-0.41069">
        <ele>137.8</ele>
        <time>2024-04-07T07:42:03Z</time>
      </trkpt>
      <trkpt lat="48.87518" lon="-0.41066">
        <ele>138</ele>
        <time>2024-04-07T07:42:04Z</time>
      </trkpt>
      <trkpt lat="48.87515" lon="-0.41063">
        <ele>138</ele>
        <time>2024-04-07T07:42:05Z</time>
      </trkpt>
      <trkpt lat="48.87512" lon="-0.4106">
        <ele>138</ele>
        <time>2024-04-07T07:42:06Z</time>
      </trkpt>
      <trkpt lat="48.87508" lon="-0.41058">
        <ele>138</ele>
        <time>2024-04-07T07:42:07Z</time>
      </trkpt>
      <trkpt lat="48.87504" lon="-0.41057">
        <ele>138.2</ele>
        <time>2024-04-07T07:42:08Z</time>
      </trkpt>
      <trkpt lat="48.875" lon="-0.41056">
        <ele>138.2</ele>
        <time>2024-04-07T07:42:09Z</time>
      </trkpt>
      <trkpt lat="48.87497" lon="-0.41055">
        <ele>138.2</ele>
        <time>2024-04-07T07:42:10Z</time>
      </trkpt>
      <trkpt lat="48.87493" lon="-0.41052">
        <ele>138.2</ele>
        <time>2024-04-07T07:42:11Z</time>
      </trkpt>
      <trkpt lat="48.8749" lon="-0.4105">
        <ele>138.2</ele>
        <time>2024-04-07T07:42:12Z</time>
      </trkpt>
      <trkpt lat="48.87486" lon="-0.41047">
        <ele>138.2</ele>
        <time>2024-04-07T07:42:13Z</time>
      </trkpt>
      <trkpt lat="48.87482" lon="-0.41044">
        <ele>138.2</ele>
        <time>2024-04-07T07:42:14Z</time>
      </trkpt>
      <trkpt lat="48.87477" lon="-0.41042">
        <ele>138.2</ele>
        <time>2024-04-07T07:42:15Z</time>
      </trkpt>
      <trkpt lat="48.87469" lon="-0.41035">
        <ele>138.2</ele>
        <time>2024-04-07T07:42:16Z</time>
      </trkpt>
      <trkpt lat="48.87467" lon="-0.41033">
        <ele>138.2</ele>
        <time>2024-04-07T07:42:17Z</time>
      </trkpt>
      <trkpt lat="48.87465" lon="-0.41032">
        <ele>138</ele>
        <time>2024-04-07T07:42:18Z</time>
      </trkpt>
      <trkpt lat="48.8746" lon="-0.41029">
        <ele>137.6</ele>
        <time>2024-04-07T07:42:19Z</time>
      </trkpt>
      <trkpt lat="48.87456" lon="-0.41026">
        <ele>137.2</ele>
        <time>2024-04-07T07:42:20Z</time>
      </trkpt>
      <trkpt lat="48.87451" lon="-0.41023">
        <ele>137</ele>
        <time>2024-04-07T07:42:21Z</time>
      </trkpt>
      <trkpt lat="48.87447" lon="-0.4102">
        <ele>136.8</ele>
        <time>2024-04-07T07:42:22Z</time>
      </trkpt>
      <trkpt lat="48.87442" lon="-0.41018">
        <ele>136.8</ele>
        <time>2024-04-07T07:42:23Z</time>
      </trkpt>
      <trkpt lat="48.87438" lon="-0.41015">
        <ele>136.8</ele>
        <time>2024-04-07T07:42:24Z</time>
      </trkpt>
      <trkpt lat="48.87434" lon="-0.41013">
        <ele>136.8</ele>
        <time>2024-04-07T07:42:25Z</time>
      </trkpt>
      <trkpt lat="48.87429" lon="-0.41011">
        <ele>136.8</ele>
        <time>2024-04-07T07:42:26Z</time>
      </trkpt>
      <trkpt lat="48.87424" lon="-0.41009">
        <ele>137</ele>
        <time>2024-04-07T07:42:27Z</time>
      </trkpt>
      <trkpt lat="48.8742" lon="-0.41006">
        <ele>137</ele>
        <time>2024-04-07T07:42:28Z</time>
      </trkpt>
      <trkpt lat="48.87416" lon="-0.41003">
        <ele>137.2</ele>
        <time>2024-04-07T07:42:29Z</time>
      </trkpt>
      <trkpt lat="48.87412" lon="-0.40997">
        <ele>137.4</ele>
        <time>2024-04-07T07:42:30Z</time>
      </trkpt>
      <trkpt lat="48.87412" lon="-0.40997">
        <ele>137.6</ele>
        <time>2024-04-07T07:42:31Z</time>
      </trkpt>
      <trkpt lat="48.8741" lon="-0.40994">
        <ele>137.8</ele>
        <time>2024-04-07T07:42:32Z</time>
      </trkpt>
      <trkpt lat="48.87407" lon="-0.40992">
        <ele>138</ele>
        <time>2024-04-07T07:42:33Z</time>
      </trkpt>
      <trkpt lat="48.87404" lon="-0.4099">
        <ele>138.2</ele>
        <time>2024-04-07T07:42:34Z</time>
      </trkpt>
      <trkpt lat="48.87402" lon="-0.4099">
        <ele>138.4</ele>
        <time>2024-04-07T07:42:35Z</time>
      </trkpt>
      <trkpt lat="48.874" lon="-0.4099">
        <ele>138.8</ele>
        <time>2024-04-07T07:42:36Z</time>
      </trkpt>
      <trkpt lat="48.87397" lon="-0.40989">
        <ele>139.2</ele>
        <time>2024-04-07T07:42:37Z</time>
      </trkpt>
      <trkpt lat="48.87395" lon="-0.40989">
        <ele>139.6</ele>
        <time>2024-04-07T07:42:38Z</time>
      </trkpt>
      <trkpt lat="48.87394" lon="-0.40988">
        <ele>139.8</ele>
        <time>2024-04-07T07:42:39Z</time>
      </trkpt>
      <trkpt lat="48.87393" lon="-0.40987">
        <ele>140</ele>
        <time>2024-04-07T07:42:40Z</time>
      </trkpt>
      <trkpt lat="48.87393" lon="-0.40986">
        <ele>140.4</ele>
        <time>2024-04-07T07:42:41Z</time>
      </trkpt>
      <trkpt lat="48.87389" lon="-0.40991">
        <ele>140.6</ele>
        <time>2024-04-07T07:42:56Z</time>
      </trkpt>
      <trkpt lat="48.87389" lon="-0.40994">
        <ele>140.4</ele>
        <time>2024-04-07T07:42:57Z</time>
      </trkpt>
      <trkpt lat="48.87388" lon="-0.40998">
        <ele>140.2</ele>
        <time>2024-04-07T07:42:58Z</time>
      </trkpt>
      <trkpt lat="48.87387" lon="-0.41003">
        <ele>140</ele>
        <time>2024-04-07T07:42:59Z</time>
      </trkpt>
      <trkpt lat="48.87386" lon="-0.41009">
        <ele>140</ele>
        <time>2024-04-07T07:43:00Z</time>
      </trkpt>
      <trkpt lat="48.87384" lon="-0.41015">
        <ele>139.8</ele>
        <time>2024-04-07T07:43:01Z</time>
      </trkpt>
      <trkpt lat="48.87383" lon="-0.41021">
        <ele>139.6</ele>
        <time>2024-04-07T07:43:02Z</time>
      </trkpt>
      <trkpt lat="48.87381" lon="-0.41029">
        <ele>139.4</ele>
        <time>2024-04-07T07:43:03Z</time>
      </trkpt>
      <trkpt lat="48.87378" lon="-0.41036">
        <ele>139.2</ele>
        <time>2024-04-07T07:43:04Z</time>
      </trkpt>
      <trkpt lat="48.87376" lon="-0.41043">
        <ele>139</ele>
        <time>2024-04-07T07:43:05Z</time>
      </trkpt>
      <trkpt lat="48.87374" lon="-0.4105">
        <ele>139</ele>
        <time>2024-04-07T07:43:06Z</time>
      </trkpt>
      <trkpt lat="48.87372" lon="-0.41056">
        <ele>138.8</ele>
        <time>2024-04-07T07:43:07Z</time>
      </trkpt>
      <trkpt lat="48.8737" lon="-0.41063">
        <ele>138.6</ele>
        <time>2024-04-07T07:43:08Z</time>
      </trkpt>
      <trkpt lat="48.87368" lon="-0.4107">
        <ele>138.6</ele>
        <time>2024-04-07T07:43:09Z</time>
      </trkpt>
      <trkpt lat="48.87367" lon="-0.41077">
        <ele>138.6</ele>
        <time>2024-04-07T07:43:10Z</time>
      </trkpt>
      <trkpt lat="48.87365" lon="-0.41085">
        <ele>138.4</ele>
        <time>2024-04-07T07:43:11Z</time>
      </trkpt>
      <trkpt lat="48.87363" lon="-0.41092">
        <ele>138.4</ele>
        <time>2024-04-07T07:43:12Z</time>
      </trkpt>
      <trkpt lat="48.87361" lon="-0.41099">
        <ele>138.2</ele>
        <time>2024-04-07T07:43:13Z</time>
      </trkpt>
      <trkpt lat="48.87359" lon="-0.41104">
        <ele>138.2</ele>
        <time>2024-04-07T07:43:14Z</time>
      </trkpt>
      <trkpt lat="48.87358" lon="-0.41109">
        <ele>138.2</ele>
        <time>2024-04-07T07:43:15Z</time>
      </trkpt>
      <trkpt lat="48.87356" lon="-0.41113">
        <ele>138.2</ele>
        <time>2024-04-07T07:43:16Z</time>
      </trkpt>
      <trkpt lat="48.87355" lon="-0.41117">
        <ele>138.4</ele>
        <time>2024-04-07T07:43:17Z</time>
      </trkpt>
      <trkpt lat="48.87355" lon="-0.41121">
        <ele>138.4</ele>
        <time>2024-04-07T07:43:18Z</time>
      </trkpt>
      <trkpt lat="48.87354" lon="-0.41124">
        <ele>138.6</ele>
        <time>2024-04-07T07:43:19Z</time>
      </trkpt>
      <trkpt lat="48.87353" lon="-0.41127">
        <ele>138.8</ele>
        <time>2024-04-07T07:43:20Z</time>
      </trkpt>
      <trkpt lat="48.87353" lon="-0.41128">
        <ele>138.8</ele>
        <time>2024-04-07T07:43:21Z</time>
      </trkpt>
      <trkpt lat="48.87353" lon="-0.41128">
        <ele>139</ele>
        <time>2024-04-07T07:43:22Z</time>
      </trkpt>
      <trkpt lat="48.87354" lon="-0.41128">
        <ele>139.2</ele>
        <time>2024-04-07T07:43:23Z</time>
      </trkpt>
      <trkpt lat="48.87346" lon="-0.41128">
        <ele>138</ele>
        <time>2024-04-07T08:00:16Z</time>
      </trkpt>
      <trkpt lat="48.87345" lon="-0.41131">
        <ele>137.6</ele>
        <time>2024-04-07T08:00:17Z</time>
      </trkpt>
      <trkpt lat="48.87341" lon="-0.41137">
        <ele>137.4</ele>
        <time>2024-04-07T08:00:18Z</time>
      </trkpt>
      <trkpt lat="48.87341" lon="-0.41137">
        <ele>137</ele>
        <time>2024-04-07T08:00:19Z</time>
      </trkpt>
      <trkpt lat="48.87339" lon="-0.41141">
        <ele>136.8</ele>
        <time>2024-04-07T08:00:20Z</time>
      </trkpt>
      <trkpt lat="48.87337" lon="-0.41144">
        <ele>136.6</ele>
        <time>2024-04-07T08:00:21Z</time>
      </trkpt>
      <trkpt lat="48.87333" lon="-0.41149">
        <ele>136.4</ele>
        <time>2024-04-07T08:00:22Z</time>
      </trkpt>
      <trkpt lat="48.87328" lon="-0.41154">
        <ele>136.2</ele>
        <time>2024-04-07T08:00:23Z</time>
      </trkpt>
      <trkpt lat="48.87327" lon="-0.41156">
        <ele>136.2</ele>
        <time>2024-04-07T08:00:24Z</time>
      </trkpt>
      <trkpt lat="48.87325" lon="-0.41159">
        <ele>136</ele>
        <time>2024-04-07T08:00:25Z</time>
      </trkpt>
      <trkpt lat="48.87323" lon="-0.41161">
        <ele>136</ele>
        <time>2024-04-07T08:00:26Z</time>
      </trkpt>
      <trkpt lat="48.87321" lon="-0.41162">
        <ele>136</ele>
        <time>2024-04-07T08:00:27Z</time>
      </trkpt>
      <trkpt lat="48.87321" lon="-0.41164">
        <ele>136</ele>
        <time>2024-04-07T08:00:28Z</time>
      </trkpt>
      <trkpt lat="48.8732" lon="-0.41166">
        <ele>136</ele>
        <time>2024-04-07T08:00:29Z</time>
      </trkpt>
      <trkpt lat="48.87319" lon="-0.41168">
        <ele>136.2</ele>
        <time>2024-04-07T08:00:30Z</time>
      </trkpt>
      <trkpt lat="48.87318" lon="-0.41171">
        <ele>136.4</ele>
        <time>2024-04-07T08:00:31Z</time>
      </trkpt>
      <trkpt lat="48.87316" lon="-0.41173">
        <ele>136.6</ele>
        <time>2024-04-07T08:00:32Z</time>
      </trkpt>
      <trkpt lat="48.87314" lon="-0.41176">
        <ele>136.6</ele>
        <time>2024-04-07T08:00:33Z</time>
      </trkpt>
      <trkpt lat="48.87311" lon="-0.41179">
        <ele>136.6</ele>
        <time>2024-04-07T08:00:34Z</time>
      </trkpt>
      <trkpt lat="48.87309" lon="-0.41182">
        <ele>136.6</ele>
        <time>2024-04-07T08:00:35Z</time>
      </trkpt>
      <trkpt lat="48.87306" lon="-0.41184">
        <ele>136.6</ele>
        <time>2024-04-07T08:00:36Z</time>
      </trkpt>
      <trkpt lat="48.87304" lon="-0.41187">
        <ele>136.6</ele>
        <time>2024-04-07T08:00:37Z</time>
      </trkpt>
      <trkpt lat="48.87301" lon="-0.41189">
        <ele>136.6</ele>
        <time>2024-04-07T08:00:38Z</time>
      </trkpt>
      <trkpt lat="48.87298" lon="-0.4119">
        <ele>136.8</ele>
        <time>2024-04-07T08:00:39Z</time>
      </trkpt>
      <trkpt lat="48.87296" lon="-0.41192">
        <ele>137</ele>
        <time>2024-04-07T08:00:40Z</time>
      </trkpt>
      <trkpt lat="48.87294" lon="-0.41195">
        <ele>137.4</ele>
        <time>2024-04-07T08:00:41Z</time>
      </trkpt>
      <trkpt lat="48.87292" lon="-0.41197">
        <ele>137.4</ele>
        <time>2024-04-07T08:00:42Z</time>
      </trkpt>
      <trkpt lat="48.8729" lon="-0.41199">
        <ele>137.6</ele>
        <time>2024-04-07T08:00:43Z</time>
      </trkpt>
      <trkpt lat="48.87289" lon="-0.41202">
        <ele>137.8</ele>
        <time>2024-04-07T08:00:44Z</time>
      </trkpt>
      <trkpt lat="48.87286" lon="-0.41205">
        <ele>138</ele>
        <time>2024-04-07T08:00:45Z</time>
      </trkpt>
      <trkpt lat="48.87284" lon="-0.41209">
        <ele>138</ele>
        <time>2024-04-07T08:00:46Z</time>
      </trkpt>
      <trkpt lat="48.87281" lon="-0.41213">
        <ele>138.2</ele>
        <time>2024-04-07T08:00:47Z</time>
      </trkpt>
      <trkpt lat="48.87278" lon="-0.41218">
        <ele>138.6</ele>
        <time>2024-04-07T08:00:48Z</time>
      </trkpt>
      <trkpt lat="48.87275" lon="-0.41222">
        <ele>138.8</ele>
        <time>2024-04-07T08:00:49Z</time>
      </trkpt>
      <trkpt lat="48.87272" lon="-0.41226">
        <ele>139</ele>
        <time>2024-04-07T08:00:50Z</time>
      </trkpt>
      <trkpt lat="48.8727" lon="-0.41231">
        <ele>139</ele>
        <time>2024-04-07T08:00:51Z</time>
      </trkpt>
      <trkpt lat="48.87267" lon="-0.41236">
        <ele>139.2</ele>
        <time>2024-04-07T08:00:52Z</time>
      </trkpt>
      <trkpt lat="48.87265" lon="-0.41241">
        <ele>139.2</ele>
        <time>2024-04-07T08:00:53Z</time>
      </trkpt>
      <trkpt lat="48.87263" lon="-0.41247">
        <ele>139.2</ele>
        <time>2024-04-07T08:00:54Z</time>
      </trkpt>
      <trkpt lat="48.87261" lon="-0.41252">
        <ele>139.2</ele>
        <time>2024-04-07T08:00:55Z</time>
      </trkpt>
      <trkpt lat="48.87258" lon="-0.41257">
        <ele>139.2</ele>
        <time>2024-04-07T08:00:56Z</time>
      </trkpt>
      <trkpt lat="48.87255" lon="-0.4126">
        <ele>139.4</ele>
        <time>2024-04-07T08:00:57Z</time>
      </trkpt>
      <trkpt lat="48.87252" lon="-0.41264">
        <ele>139.4</ele>
        <time>2024-04-07T08:00:58Z</time>
      </trkpt>
      <trkpt lat="48.87249" lon="-0.41268">
        <ele>139.6</ele>
        <time>2024-04-07T08:00:59Z</time>
      </trkpt>
      <trkpt lat="48.87246" lon="-0.41272">
        <ele>139.8</ele>
        <time>2024-04-07T08:01:00Z</time>
      </trkpt>
      <trkpt lat="48.87244" lon="-0.41275">
        <ele>140.2</ele>
        <time>2024-04-07T08:01:01Z</time>
      </trkpt>
      <trkpt lat="48.87241" lon="-0.41279">
        <ele>140.8</ele>
        <time>2024-04-07T08:01:02Z</time>
      </trkpt>
      <trkpt lat="48.87239" lon="-0.41282">
        <ele>141.2</ele>
        <time>2024-04-07T08:01:03Z</time>
      </trkpt>
      <trkpt lat="48.87237" lon="-0.41286">
        <ele>141.6</ele>
        <time>2024-04-07T08:01:04Z</time>
      </trkpt>
      <trkpt lat="48.87232" lon="-0.41293">
        <ele>141.6</ele>
        <time>2024-04-07T08:01:05Z</time>
      </trkpt>
      <trkpt lat="48.87232" lon="-0.41293">
        <ele>141.8</ele>
        <time>2024-04-07T08:01:06Z</time>
      </trkpt>
      <trkpt lat="48.8723" lon="-0.41297">
        <ele>141.8</ele>
        <time>2024-04-07T08:01:07Z</time>
      </trkpt>
      <trkpt lat="48.87228" lon="-0.41301">
        <ele>141.8</ele>
        <time>2024-04-07T08:01:08Z</time>
      </trkpt>
      <trkpt lat="48.87225" lon="-0.41305">
        <ele>141.8</ele>
        <time>2024-04-07T08:01:09Z</time>
      </trkpt>
      <trkpt lat="48.87223" lon="-0.41309">
        <ele>141.8</ele>
        <time>2024-04-07T08:01:10Z</time>
      </trkpt>
      <trkpt lat="48.8722" lon="-0.41313">
        <ele>141.8</ele>
        <time>2024-04-07T08:01:11Z</time>
      </trkpt>
      <trkpt lat="48.87217" lon="-0.41318">
        <ele>142</ele>
        <time>2024-04-07T08:01:12Z</time>
      </trkpt>
      <trkpt lat="48.87214" lon="-0.41322">
        <ele>142.4</ele>
        <time>2024-04-07T08:01:13Z</time>
      </trkpt>
      <trkpt lat="48.87212" lon="-0.41326">
        <ele>142.8</ele>
        <time>2024-04-07T08:01:14Z</time>
      </trkpt>
      <trkpt lat="48.8721" lon="-0.41331">
        <ele>143</ele>
        <time>2024-04-07T08:01:15Z</time>
      </trkpt>
      <trkpt lat="48.87207" lon="-0.41334">
        <ele>143.4</ele>
        <time>2024-04-07T08:01:16Z</time>
      </trkpt>
      <trkpt lat="48.87204" lon="-0.41338">
        <ele>143.6</ele>
        <time>2024-04-07T08:01:17Z</time>
      </trkpt>
      <trkpt lat="48.87202" lon="-0.41342">
        <ele>143.8</ele>
        <time>2024-04-07T08:01:18Z</time>
      </trkpt>
      <trkpt lat="48.87199" lon="-0.41346">
        <ele>144</ele>
        <time>2024-04-07T08:01:19Z</time>
      </trkpt>
      <trkpt lat="48.87197" lon="-0.4135">
        <ele>144.2</ele>
        <time>2024-04-07T08:01:20Z</time>
      </trkpt>
      <trkpt lat="48.87193" lon="-0.41356">
        <ele>144.4</ele>
        <time>2024-04-07T08:01:21Z</time>
      </trkpt>
      <trkpt lat="48.87192" lon="-0.41358">
        <ele>144.4</ele>
        <time>2024-04-07T08:01:22Z</time>
      </trkpt>
      <trkpt lat="48.87188" lon="-0.41361">
        <ele>144.6</ele>
        <time>2024-04-07T08:01:23Z</time>
      </trkpt>
      <trkpt lat="48.87185" lon="-0.41365">
        <ele>144.6</ele>
        <time>2024-04-07T08:01:24Z</time>
      </trkpt>
      <trkpt lat="48.87183" lon="-0.41369">
        <ele>144.8</ele>
        <time>2024-04-07T08:01:25Z</time>
      </trkpt>
      <trkpt lat="48.87181" lon="-0.41373">
        <ele>145</ele>
        <time>2024-04-07T08:01:26Z</time>
      </trkpt>
      <trkpt lat="48.87179" lon="-0.41377">
        <ele>145.2</ele>
        <time>2024-04-07T08:01:27Z</time>
      </trkpt>
      <trkpt lat="48.87177" lon="-0.41381">
        <ele>145.4</ele>
        <time>2024-04-07T08:01:28Z</time>
      </trkpt>
      <trkpt lat="48.87175" lon="-0.41385">
        <ele>145.6</ele>
        <time>2024-04-07T08:01:29Z</time>
      </trkpt>
      <trkpt lat="48.87173" lon="-0.41388">
        <ele>146</ele>
        <time>2024-04-07T08:01:30Z</time>
      </trkpt>
      <trkpt lat="48.8717" lon="-0.41392">
        <ele>146.4</ele>
        <time>2024-04-07T08:01:31Z</time>
      </trkpt>
      <trkpt lat="48.87168" lon="-0.41395">
        <ele>146.8</ele>
        <time>2024-04-07T08:01:32Z</time>
      </trkpt>
      <trkpt lat="48.87165" lon="-0.41398">
        <ele>147</ele>
        <time>2024-04-07T08:01:33Z</time>
      </trkpt>
      <trkpt lat="48.87162" lon="-0.414">
        <ele>147.2</ele>
        <time>2024-04-07T08:01:34Z</time>
      </trkpt>
      <trkpt lat="48.8716" lon="-0.41402">
        <ele>147.6</ele>
        <time>2024-04-07T08:01:35Z</time>
      </trkpt>
      <trkpt lat="48.87158" lon="-0.41405">
        <ele>148</ele>
        <time>2024-04-07T08:01:36Z</time>
      </trkpt>
      <trkpt lat="48.87155" lon="-0.41407">
        <ele>148.4</ele>
        <time>2024-04-07T08:01:37Z</time>
      </trkpt>
      <trkpt lat="48.87152" lon="-0.4141">
        <ele>148.6</ele>
        <time>2024-04-07T08:01:38Z</time>
      </trkpt>
      <trkpt lat="48.87149" lon="-0.41413">
        <ele>148.8</ele>
        <time>2024-04-07T08:01:39Z</time>
      </trkpt>
      <trkpt lat="48.87146" lon="-0.41415">
        <ele>149</ele>
        <time>2024-04-07T08:01:40Z</time>
      </trkpt>
      <trkpt lat="48.87143" lon="-0.41418">
        <ele>149.2</ele>
        <time>2024-04-07T08:01:41Z</time>
      </trkpt>
      <trkpt lat="48.8714" lon="-0.41421">
        <ele>149.2</ele>
        <time>2024-04-07T08:01:42Z</time>
      </trkpt>
      <trkpt lat="48.87137" lon="-0.41424">
        <ele>149.4</ele>
        <time>2024-04-07T08:01:43Z</time>
      </trkpt>
      <trkpt lat="48.87134" lon="-0.41427">
        <ele>149.4</ele>
        <time>2024-04-07T08:01:44Z</time>
      </trkpt>
      <trkpt lat="48.8713" lon="-0.41431">
        <ele>149.4</ele>
        <time>2024-04-07T08:01:45Z</time>
      </trkpt>
      <trkpt lat="48.87126" lon="-0.41436">
        <ele>149.4</ele>
        <time>2024-04-07T08:01:46Z</time>
      </trkpt>
      <trkpt lat="48.87123" lon="-0.4144">
        <ele>149.4</ele>
        <time>2024-04-07T08:01:47Z</time>
      </trkpt>
      <trkpt lat="48.8712" lon="-0.41445">
        <ele>149</ele>
        <time>2024-04-07T08:01:48Z</time>
      </trkpt>
      <trkpt lat="48.87117" lon="-0.4145">
        <ele>148.6</ele>
        <time>2024-04-07T08:01:49Z</time>
      </trkpt>
      <trkpt lat="48.87113" lon="-0.41455">
        <ele>148.4</ele>
        <time>2024-04-07T08:01:50Z</time>
      </trkpt>
      <trkpt lat="48.87109" lon="-0.41459">
        <ele>148.2</ele>
        <time>2024-04-07T08:01:51Z</time>
      </trkpt>
      <trkpt lat="48.87105" lon="-0.41463">
        <ele>148.2</ele>
        <time>2024-04-07T08:01:52Z</time>
      </trkpt>
      <trkpt lat="48.87102" lon="-0.41468">
        <ele>148.2</ele>
        <time>2024-04-07T08:01:53Z</time>
      </trkpt>
      <trkpt lat="48.87098" lon="-0.41473">
        <ele>148</ele>
        <time>2024-04-07T08:01:54Z</time>
      </trkpt>
      <trkpt lat="48.87094" lon="-0.41478">
        <ele>148</ele>
        <time>2024-04-07T08:01:55Z</time>
      </trkpt>
      <trkpt lat="48.87086" lon="-0.41489">
        <ele>147.8</ele>
        <time>2024-04-07T08:01:56Z</time>
      </trkpt>
      <trkpt lat="48.87082" lon="-0.41495">
        <ele>147.8</ele>
        <time>2024-04-07T08:01:57Z</time>
      </trkpt>
      <trkpt lat="48.87078" lon="-0.41501">
        <ele>147.6</ele>
        <time>2024-04-07T08:01:58Z</time>
      </trkpt>
      <trkpt lat="48.87074" lon="-0.41507">
        <ele>147.2</ele>
        <time>2024-04-07T08:01:59Z</time>
      </trkpt>
      <trkpt lat="48.87072" lon="-0.4151">
        <ele>147</ele>
        <time>2024-04-07T08:02:00Z</time>
      </trkpt>
      <trkpt lat="48.8707" lon="-0.41512">
        <ele>146.6</ele>
        <time>2024-04-07T08:02:01Z</time>
      </trkpt>
      <trkpt lat="48.87063" lon="-0.41523">
        <ele>146.2</ele>
        <time>2024-04-07T08:02:02Z</time>
      </trkpt>
      <trkpt lat="48.8706" lon="-0.41528">
        <ele>146</ele>
        <time>2024-04-07T08:02:03Z</time>
      </trkpt>
      <trkpt lat="48.87053" lon="-0.41538">
        <ele>145.8</ele>
        <time>2024-04-07T08:02:04Z</time>
      </trkpt>
      <trkpt lat="48.87049" lon="-0.41545">
        <ele>145.8</ele>
        <time>2024-04-07T08:02:05Z</time>
      </trkpt>
      <trkpt lat="48.87045" lon="-0.41552">
        <ele>145.8</ele>
        <time>2024-04-07T08:02:06Z</time>
      </trkpt>
      <trkpt lat="48.87043" lon="-0.41555">
        <ele>145.8</ele>
        <time>2024-04-07T08:02:07Z</time>
      </trkpt>
      <trkpt lat="48.87041" lon="-0.41559">
        <ele>146</ele>
        <time>2024-04-07T08:02:08Z</time>
      </trkpt>
      <trkpt lat="48.87033" lon="-0.41573">
        <ele>146.2</ele>
        <time>2024-04-07T08:02:09Z</time>
      </trkpt>
      <trkpt lat="48.87029" lon="-0.4158">
        <ele>146.4</ele>
        <time>2024-04-07T08:02:10Z</time>
      </trkpt>
      <trkpt lat="48.87026" lon="-0.41587">
        <ele>146.4</ele>
        <time>2024-04-07T08:02:11Z</time>
      </trkpt>
      <trkpt lat="48.87024" lon="-0.41591">
        <ele>146.2</ele>
        <time>2024-04-07T08:02:12Z</time>
      </trkpt>
      <trkpt lat="48.87022" lon="-0.41595">
        <ele>146</ele>
        <time>2024-04-07T08:02:13Z</time>
      </trkpt>
      <trkpt lat="48.87018" lon="-0.41602">
        <ele>145.8</ele>
        <time>2024-04-07T08:02:14Z</time>
      </trkpt>
      <trkpt lat="48.87014" lon="-0.41609">
        <ele>145.4</ele>
        <time>2024-04-07T08:02:15Z</time>
      </trkpt>
      <trkpt lat="48.87011" lon="-0.41616">
        <ele>145</ele>
        <time>2024-04-07T08:02:16Z</time>
      </trkpt>
      <trkpt lat="48.87005" lon="-0.4163">
        <ele>144.8</ele>
        <time>2024-04-07T08:02:17Z</time>
      </trkpt>
      <trkpt lat="48.87002" lon="-0.41637">
        <ele>144.8</ele>
        <time>2024-04-07T08:02:18Z</time>
      </trkpt>
      <trkpt lat="48.87" lon="-0.4164">
        <ele>144.8</ele>
        <time>2024-04-07T08:02:19Z</time>
      </trkpt>
      <trkpt lat="48.86999" lon="-0.41643">
        <ele>144.8</ele>
        <time>2024-04-07T08:02:20Z</time>
      </trkpt>
      <trkpt lat="48.86992" lon="-0.41658">
        <ele>145</ele>
        <time>2024-04-07T08:02:21Z</time>
      </trkpt>
      <trkpt lat="48.86991" lon="-0.41662">
        <ele>145.2</ele>
        <time>2024-04-07T08:02:22Z</time>
      </trkpt>
      <trkpt lat="48.8699" lon="-0.41666">
        <ele>145.2</ele>
        <time>2024-04-07T08:02:23Z</time>
      </trkpt>
      <trkpt lat="48.86987" lon="-0.41673">
        <ele>145.2</ele>
        <time>2024-04-07T08:02:24Z</time>
      </trkpt>
      <trkpt lat="48.86985" lon="-0.4168">
        <ele>145.2</ele>
        <time>2024-04-07T08:02:25Z</time>
      </trkpt>
      <trkpt lat="48.8698" lon="-0.41694">
        <ele>145</ele>
        <time>2024-04-07T08:02:26Z</time>
      </trkpt>
      <trkpt lat="48.86979" lon="-0.41698">
        <ele>144.8</ele>
        <time>2024-04-07T08:02:27Z</time>
      </trkpt>
      <trkpt lat="48.86978" lon="-0.41701">
        <ele>144.8</ele>
        <time>2024-04-07T08:02:28Z</time>
      </trkpt>
      <trkpt lat="48.86976" lon="-0.41709">
        <ele>144.6</ele>
        <time>2024-04-07T08:02:29Z</time>
      </trkpt>
      <trkpt lat="48.86974" lon="-0.41717">
        <ele>144.4</ele>
        <time>2024-04-07T08:02:30Z</time>
      </trkpt>
      <trkpt lat="48.86971" lon="-0.41731">
        <ele>144.2</ele>
        <time>2024-04-07T08:02:31Z</time>
      </trkpt>
      <trkpt lat="48.86969" lon="-0.41739">
        <ele>144.2</ele>
        <time>2024-04-07T08:02:32Z</time>
      </trkpt>
      <trkpt lat="48.86968" lon="-0.41748">
        <ele>144.2</ele>
        <time>2024-04-07T08:02:33Z</time>
      </trkpt>
      <trkpt lat="48.86968" lon="-0.41748">
        <ele>144</ele>
        <time>2024-04-07T08:02:34Z</time>
      </trkpt>
      <trkpt lat="48.86965" lon="-0.4176">
        <ele>144</ele>
        <time>2024-04-07T08:02:35Z</time>
      </trkpt>
      <trkpt lat="48.86964" lon="-0.41764">
        <ele>143.8</ele>
        <time>2024-04-07T08:02:36Z</time>
      </trkpt>
      <trkpt lat="48.86961" lon="-0.41773">
        <ele>143.4</ele>
        <time>2024-04-07T08:02:37Z</time>
      </trkpt>
      <trkpt lat="48.86958" lon="-0.41781">
        <ele>142.8</ele>
        <time>2024-04-07T08:02:38Z</time>
      </trkpt>
      <trkpt lat="48.86955" lon="-0.4179">
        <ele>142.6</ele>
        <time>2024-04-07T08:02:39Z</time>
      </trkpt>
      <trkpt lat="48.86953" lon="-0.41799">
        <ele>142.2</ele>
        <time>2024-04-07T08:02:40Z</time>
      </trkpt>
      <trkpt lat="48.8695" lon="-0.41809">
        <ele>142</ele>
        <time>2024-04-07T08:02:41Z</time>
      </trkpt>
      <trkpt lat="48.86946" lon="-0.41819">
        <ele>141.8</ele>
        <time>2024-04-07T08:02:42Z</time>
      </trkpt>
      <trkpt lat="48.86943" lon="-0.4183">
        <ele>141.4</ele>
        <time>2024-04-07T08:02:43Z</time>
      </trkpt>
      <trkpt lat="48.8694" lon="-0.4184">
        <ele>140.6</ele>
        <time>2024-04-07T08:02:44Z</time>
      </trkpt>
      <trkpt lat="48.86937" lon="-0.41851">
        <ele>140</ele>
        <time>2024-04-07T08:02:45Z</time>
      </trkpt>
      <trkpt lat="48.86934" lon="-0.41862">
        <ele>139.8</ele>
        <time>2024-04-07T08:02:46Z</time>
      </trkpt>
      <trkpt lat="48.86931" lon="-0.41873">
        <ele>139.4</ele>
        <time>2024-04-07T08:02:47Z</time>
      </trkpt>
      <trkpt lat="48.86927" lon="-0.41884">
        <ele>139.2</ele>
        <time>2024-04-07T08:02:48Z</time>
      </trkpt>
      <trkpt lat="48.86921" lon="-0.41906">
        <ele>139</ele>
        <time>2024-04-07T08:02:49Z</time>
      </trkpt>
      <trkpt lat="48.86917" lon="-0.41917">
        <ele>139</ele>
        <time>2024-04-07T08:02:50Z</time>
      </trkpt>
      <trkpt lat="48.86914" lon="-0.41925">
        <ele>139</ele>
        <time>2024-04-07T08:02:51Z</time>
      </trkpt>
      <trkpt lat="48.86911" lon="-0.41934">
        <ele>138.6</ele>
        <time>2024-04-07T08:02:52Z</time>
      </trkpt>
      <trkpt lat="48.86906" lon="-0.41951">
        <ele>137.8</ele>
        <time>2024-04-07T08:02:53Z</time>
      </trkpt>
      <trkpt lat="48.86903" lon="-0.41962">
        <ele>136.8</ele>
        <time>2024-04-07T08:02:54Z</time>
      </trkpt>
      <trkpt lat="48.869" lon="-0.41973">
        <ele>136.2</ele>
        <time>2024-04-07T08:02:55Z</time>
      </trkpt>
      <trkpt lat="48.869" lon="-0.41973">
        <ele>136</ele>
        <time>2024-04-07T08:02:56Z</time>
      </trkpt>
      <trkpt lat="48.86897" lon="-0.41989">
        <ele>135.8</ele>
        <time>2024-04-07T08:02:57Z</time>
      </trkpt>
      <trkpt lat="48.86896" lon="-0.41994">
        <ele>135.6</ele>
        <time>2024-04-07T08:02:58Z</time>
      </trkpt>
      <trkpt lat="48.86892" lon="-0.4201">
        <ele>135.6</ele>
        <time>2024-04-07T08:02:59Z</time>
      </trkpt>
      <trkpt lat="48.86891" lon="-0.42015">
        <ele>135.6</ele>
        <time>2024-04-07T08:03:00Z</time>
      </trkpt>
      <trkpt lat="48.86889" lon="-0.42025">
        <ele>135.4</ele>
        <time>2024-04-07T08:03:01Z</time>
      </trkpt>
      <trkpt lat="48.86886" lon="-0.42036">
        <ele>135.4</ele>
        <time>2024-04-07T08:03:02Z</time>
      </trkpt>
      <trkpt lat="48.86884" lon="-0.42047">
        <ele>135.2</ele>
        <time>2024-04-07T08:03:03Z</time>
      </trkpt>
      <trkpt lat="48.86882" lon="-0.42057">
        <ele>135.2</ele>
        <time>2024-04-07T08:03:04Z</time>
      </trkpt>
      <trkpt lat="48.8688" lon="-0.42068">
        <ele>135</ele>
        <time>2024-04-07T08:03:05Z</time>
      </trkpt>
      <trkpt lat="48.86878" lon="-0.42078">
        <ele>135</ele>
        <time>2024-04-07T08:03:06Z</time>
      </trkpt>
      <trkpt lat="48.86873" lon="-0.42093">
        <ele>135</ele>
        <time>2024-04-07T08:03:07Z</time>
      </trkpt>
      <trkpt lat="48.86871" lon="-0.42097">
        <ele>135</ele>
        <time>2024-04-07T08:03:08Z</time>
      </trkpt>
      <trkpt lat="48.86868" lon="-0.42105">
        <ele>135</ele>
        <time>2024-04-07T08:03:09Z</time>
      </trkpt>
      <trkpt lat="48.86865" lon="-0.42114">
        <ele>135.4</ele>
        <time>2024-04-07T08:03:10Z</time>
      </trkpt>
      <trkpt lat="48.86863" lon="-0.42124">
        <ele>135.6</ele>
        <time>2024-04-07T08:03:11Z</time>
      </trkpt>
      <trkpt lat="48.8686" lon="-0.42138">
        <ele>135.8</ele>
        <time>2024-04-07T08:03:12Z</time>
      </trkpt>
      <trkpt lat="48.86859" lon="-0.42143">
        <ele>136</ele>
        <time>2024-04-07T08:03:13Z</time>
      </trkpt>
      <trkpt lat="48.86856" lon="-0.42153">
        <ele>136.2</ele>
        <time>2024-04-07T08:03:14Z</time>
      </trkpt>
      <trkpt lat="48.86853" lon="-0.42173">
        <ele>136.4</ele>
        <time>2024-04-07T08:03:15Z</time>
      </trkpt>
      <trkpt lat="48.86852" lon="-0.42178">
        <ele>136.6</ele>
        <time>2024-04-07T08:03:16Z</time>
      </trkpt>
      <trkpt lat="48.86851" lon="-0.42183">
        <ele>136.6</ele>
        <time>2024-04-07T08:03:17Z</time>
      </trkpt>
      <trkpt lat="48.8685" lon="-0.42192">
        <ele>136.6</ele>
        <time>2024-04-07T08:03:18Z</time>
      </trkpt>
      <trkpt lat="48.86847" lon="-0.42207">
        <ele>136.6</ele>
        <time>2024-04-07T08:03:19Z</time>
      </trkpt>
      <trkpt lat="48.86847" lon="-0.42212">
        <ele>136.4</ele>
        <time>2024-04-07T08:03:20Z</time>
      </trkpt>
      <trkpt lat="48.86845" lon="-0.42222">
        <ele>135.8</ele>
        <time>2024-04-07T08:03:21Z</time>
      </trkpt>
      <trkpt lat="48.86843" lon="-0.42236">
        <ele>135.4</ele>
        <time>2024-04-07T08:03:22Z</time>
      </trkpt>
      <trkpt lat="48.86843" lon="-0.42241">
        <ele>135.2</ele>
        <time>2024-04-07T08:03:23Z</time>
      </trkpt>
      <trkpt lat="48.86841" lon="-0.42251">
        <ele>135</ele>
        <time>2024-04-07T08:03:24Z</time>
      </trkpt>
      <trkpt lat="48.86841" lon="-0.42261">
        <ele>135</ele>
        <time>2024-04-07T08:03:25Z</time>
      </trkpt>
      <trkpt lat="48.8684" lon="-0.4227">
        <ele>135</ele>
        <time>2024-04-07T08:03:26Z</time>
      </trkpt>
      <trkpt lat="48.86839" lon="-0.4228">
        <ele>135.2</ele>
        <time>2024-04-07T08:03:27Z</time>
      </trkpt>
      <trkpt lat="48.86838" lon="-0.423">
        <ele>135.6</ele>
        <time>2024-04-07T08:03:28Z</time>
      </trkpt>
      <trkpt lat="48.86838" lon="-0.42305">
        <ele>136.2</ele>
        <time>2024-04-07T08:03:29Z</time>
      </trkpt>
      <trkpt lat="48.86837" lon="-0.4231">
        <ele>136.6</ele>
        <time>2024-04-07T08:03:30Z</time>
      </trkpt>
      <trkpt lat="48.86837" lon="-0.42319">
        <ele>136.8</ele>
        <time>2024-04-07T08:03:31Z</time>
      </trkpt>
      <trkpt lat="48.86836" lon="-0.42328">
        <ele>136.8</ele>
        <time>2024-04-07T08:03:32Z</time>
      </trkpt>
      <trkpt lat="48.86835" lon="-0.42337">
        <ele>136.8</ele>
        <time>2024-04-07T08:03:33Z</time>
      </trkpt>
      <trkpt lat="48.86834" lon="-0.42347">
        <ele>136.8</ele>
        <time>2024-04-07T08:03:34Z</time>
      </trkpt>
      <trkpt lat="48.86834" lon="-0.42356">
        <ele>136.6</ele>
        <time>2024-04-07T08:03:35Z</time>
      </trkpt>
      <trkpt lat="48.86833" lon="-0.42363">
        <ele>136.6</ele>
        <time>2024-04-07T08:03:36Z</time>
      </trkpt>
      <trkpt lat="48.86832" lon="-0.4237">
        <ele>136.6</ele>
        <time>2024-04-07T08:03:37Z</time>
      </trkpt>
      <trkpt lat="48.8683" lon="-0.42379">
        <ele>137</ele>
        <time>2024-04-07T08:03:38Z</time>
      </trkpt>
      <trkpt lat="48.86829" lon="-0.42387">
        <ele>137.2</ele>
        <time>2024-04-07T08:03:39Z</time>
      </trkpt>
      <trkpt lat="48.86828" lon="-0.42394">
        <ele>137.8</ele>
        <time>2024-04-07T08:03:40Z</time>
      </trkpt>
      <trkpt lat="48.86825" lon="-0.42399">
        <ele>138.2</ele>
        <time>2024-04-07T08:03:41Z</time>
      </trkpt>
      <trkpt lat="48.86824" lon="-0.42406">
        <ele>138.4</ele>
        <time>2024-04-07T08:03:42Z</time>
      </trkpt>
      <trkpt lat="48.86823" lon="-0.42414">
        <ele>138.6</ele>
        <time>2024-04-07T08:03:43Z</time>
      </trkpt>
      <trkpt lat="48.86822" lon="-0.42421">
        <ele>138.6</ele>
        <time>2024-04-07T08:03:44Z</time>
      </trkpt>
      <trkpt lat="48.8682" lon="-0.42429">
        <ele>138.6</ele>
        <time>2024-04-07T08:03:45Z</time>
      </trkpt>
      <trkpt lat="48.86818" lon="-0.42436">
        <ele>138.4</ele>
        <time>2024-04-07T08:03:46Z</time>
      </trkpt>
      <trkpt lat="48.86816" lon="-0.42444">
        <ele>137.8</ele>
        <time>2024-04-07T08:03:47Z</time>
      </trkpt>
      <trkpt lat="48.86814" lon="-0.42451">
        <ele>137.4</ele>
        <time>2024-04-07T08:03:48Z</time>
      </trkpt>
      <trkpt lat="48.86813" lon="-0.42456">
        <ele>137</ele>
        <time>2024-04-07T08:03:49Z</time>
      </trkpt>
      <trkpt lat="48.86811" lon="-0.42463">
        <ele>136.6</ele>
        <time>2024-04-07T08:03:50Z</time>
      </trkpt>
      <trkpt lat="48.86809" lon="-0.4247">
        <ele>136</ele>
        <time>2024-04-07T08:03:51Z</time>
      </trkpt>
      <trkpt lat="48.86808" lon="-0.42479">
        <ele>135.6</ele>
        <time>2024-04-07T08:03:52Z</time>
      </trkpt>
      <trkpt lat="48.86807" lon="-0.42487">
        <ele>135.4</ele>
        <time>2024-04-07T08:03:53Z</time>
      </trkpt>
      <trkpt lat="48.86805" lon="-0.42495">
        <ele>135.4</ele>
        <time>2024-04-07T08:03:54Z</time>
      </trkpt>
      <trkpt lat="48.86803" lon="-0.42502">
        <ele>135.6</ele>
        <time>2024-04-07T08:03:55Z</time>
      </trkpt>
      <trkpt lat="48.86801" lon="-0.42509">
        <ele>136</ele>
        <time>2024-04-07T08:03:56Z</time>
      </trkpt>
      <trkpt lat="48.86798" lon="-0.42516">
        <ele>136.4</ele>
        <time>2024-04-07T08:03:57Z</time>
      </trkpt>
      <trkpt lat="48.86796" lon="-0.42524">
        <ele>137</ele>
        <time>2024-04-07T08:03:58Z</time>
      </trkpt>
      <trkpt lat="48.86792" lon="-0.42531">
        <ele>137.6</ele>
        <time>2024-04-07T08:03:59Z</time>
      </trkpt>
      <trkpt lat="48.8679" lon="-0.42538">
        <ele>138.2</ele>
        <time>2024-04-07T08:04:00Z</time>
      </trkpt>
      <trkpt lat="48.86787" lon="-0.42545">
        <ele>138.8</ele>
        <time>2024-04-07T08:04:01Z</time>
      </trkpt>
      <trkpt lat="48.86784" lon="-0.42552">
        <ele>139</ele>
        <time>2024-04-07T08:04:02Z</time>
      </trkpt>
      <trkpt lat="48.86781" lon="-0.4256">
        <ele>139.4</ele>
        <time>2024-04-07T08:04:03Z</time>
      </trkpt>
      <trkpt lat="48.86779" lon="-0.42566">
        <ele>139.6</ele>
        <time>2024-04-07T08:04:04Z</time>
      </trkpt>
      <trkpt lat="48.86776" lon="-0.42572">
        <ele>139.8</ele>
        <time>2024-04-07T08:04:05Z</time>
      </trkpt>
      <trkpt lat="48.86773" lon="-0.42579">
        <ele>139.8</ele>
        <time>2024-04-07T08:04:06Z</time>
      </trkpt>
      <trkpt lat="48.86769" lon="-0.42586">
        <ele>140</ele>
        <time>2024-04-07T08:04:07Z</time>
      </trkpt>
      <trkpt lat="48.86766" lon="-0.42592">
        <ele>140.4</ele>
        <time>2024-04-07T08:04:08Z</time>
      </trkpt>
      <trkpt lat="48.8676" lon="-0.42595">
        <ele>140.6</ele>
        <time>2024-04-07T08:04:09Z</time>
      </trkpt>
      <trkpt lat="48.86758" lon="-0.42604">
        <ele>141</ele>
        <time>2024-04-07T08:04:10Z</time>
      </trkpt>
      <trkpt lat="48.86756" lon="-0.42611">
        <ele>141.4</ele>
        <time>2024-04-07T08:04:11Z</time>
      </trkpt>
      <trkpt lat="48.86752" lon="-0.42622">
        <ele>141.6</ele>
        <time>2024-04-07T08:04:12Z</time>
      </trkpt>
      <trkpt lat="48.86751" lon="-0.42626">
        <ele>142</ele>
        <time>2024-04-07T08:04:13Z</time>
      </trkpt>
      <trkpt lat="48.86748" lon="-0.42633">
        <ele>142.2</ele>
        <time>2024-04-07T08:04:14Z</time>
      </trkpt>
      <trkpt lat="48.86746" lon="-0.4264">
        <ele>142.4</ele>
        <time>2024-04-07T08:04:15Z</time>
      </trkpt>
      <trkpt lat="48.86743" lon="-0.42647">
        <ele>142.6</ele>
        <time>2024-04-07T08:04:16Z</time>
      </trkpt>
      <trkpt lat="48.8674" lon="-0.42654">
        <ele>142.8</ele>
        <time>2024-04-07T08:04:17Z</time>
      </trkpt>
      <trkpt lat="48.86737" lon="-0.4266">
        <ele>143</ele>
        <time>2024-04-07T08:04:18Z</time>
      </trkpt>
      <trkpt lat="48.86734" lon="-0.42666">
        <ele>143.2</ele>
        <time>2024-04-07T08:04:19Z</time>
      </trkpt>
      <trkpt lat="48.86731" lon="-0.42674">
        <ele>143.2</ele>
        <time>2024-04-07T08:04:20Z</time>
      </trkpt>
      <trkpt lat="48.86729" lon="-0.42681">
        <ele>143.4</ele>
        <time>2024-04-07T08:04:21Z</time>
      </trkpt>
      <trkpt lat="48.86726" lon="-0.42689">
        <ele>143.4</ele>
        <time>2024-04-07T08:04:22Z</time>
      </trkpt>
      <trkpt lat="48.86722" lon="-0.42697">
        <ele>143.2</ele>
        <time>2024-04-07T08:04:23Z</time>
      </trkpt>
      <trkpt lat="48.86719" lon="-0.42705">
        <ele>143</ele>
        <time>2024-04-07T08:04:24Z</time>
      </trkpt>
      <trkpt lat="48.86716" lon="-0.42713">
        <ele>142.6</ele>
        <time>2024-04-07T08:04:25Z</time>
      </trkpt>
      <trkpt lat="48.86713" lon="-0.4272">
        <ele>142.4</ele>
        <time>2024-04-07T08:04:26Z</time>
      </trkpt>
      <trkpt lat="48.8671" lon="-0.42727">
        <ele>142.4</ele>
        <time>2024-04-07T08:04:27Z</time>
      </trkpt>
      <trkpt lat="48.86707" lon="-0.42733">
        <ele>142.2</ele>
        <time>2024-04-07T08:04:28Z</time>
      </trkpt>
      <trkpt lat="48.86704" lon="-0.4274">
        <ele>142.2</ele>
        <time>2024-04-07T08:04:29Z</time>
      </trkpt>
      <trkpt lat="48.86701" lon="-0.42746">
        <ele>142.2</ele>
        <time>2024-04-07T08:04:30Z</time>
      </trkpt>
      <trkpt lat="48.86698" lon="-0.42753">
        <ele>142.2</ele>
        <time>2024-04-07T08:04:31Z</time>
      </trkpt>
      <trkpt lat="48.86695" lon="-0.42759">
        <ele>142.4</ele>
        <time>2024-04-07T08:04:32Z</time>
      </trkpt>
      <trkpt lat="48.86686" lon="-0.42771">
        <ele>142.4</ele>
        <time>2024-04-07T08:04:33Z</time>
      </trkpt>
      <trkpt lat="48.86686" lon="-0.42771">
        <ele>142.4</ele>
        <time>2024-04-07T08:04:34Z</time>
      </trkpt>
      <trkpt lat="48.86682" lon="-0.42777">
        <ele>142.6</ele>
        <time>2024-04-07T08:04:35Z</time>
      </trkpt>
      <trkpt lat="48.86675" lon="-0.42787">
        <ele>142.6</ele>
        <time>2024-04-07T08:04:36Z</time>
      </trkpt>
      <trkpt lat="48.86673" lon="-0.4279">
        <ele>142.8</ele>
        <time>2024-04-07T08:04:37Z</time>
      </trkpt>
      <trkpt lat="48.86668" lon="-0.42797">
        <ele>142.8</ele>
        <time>2024-04-07T08:04:38Z</time>
      </trkpt>
      <trkpt lat="48.86664" lon="-0.42804">
        <ele>142.8</ele>
        <time>2024-04-07T08:04:39Z</time>
      </trkpt>
      <trkpt lat="48.86659" lon="-0.42811">
        <ele>142.8</ele>
        <time>2024-04-07T08:04:40Z</time>
      </trkpt>
      <trkpt lat="48.86655" lon="-0.42818">
        <ele>142.8</ele>
        <time>2024-04-07T08:04:41Z</time>
      </trkpt>
      <trkpt lat="48.8665" lon="-0.42825">
        <ele>142.4</ele>
        <time>2024-04-07T08:04:42Z</time>
      </trkpt>
      <trkpt lat="48.86646" lon="-0.42832">
        <ele>142</ele>
        <time>2024-04-07T08:04:43Z</time>
      </trkpt>
      <trkpt lat="48.86641" lon="-0.4284">
        <ele>141.4</ele>
        <time>2024-04-07T08:04:44Z</time>
      </trkpt>
      <trkpt lat="48.86637" lon="-0.42848">
        <ele>141</ele>
        <time>2024-04-07T08:04:45Z</time>
      </trkpt>
      <trkpt lat="48.86632" lon="-0.42856">
        <ele>140.4</ele>
        <time>2024-04-07T08:04:46Z</time>
      </trkpt>
      <trkpt lat="48.86628" lon="-0.42865">
        <ele>140</ele>
        <time>2024-04-07T08:04:47Z</time>
      </trkpt>
      <trkpt lat="48.86625" lon="-0.42873">
        <ele>139.6</ele>
        <time>2024-04-07T08:04:48Z</time>
      </trkpt>
      <trkpt lat="48.86621" lon="-0.42881">
        <ele>139.2</ele>
        <time>2024-04-07T08:04:49Z</time>
      </trkpt>
      <trkpt lat="48.86618" lon="-0.4289">
        <ele>139</ele>
        <time>2024-04-07T08:04:50Z</time>
      </trkpt>
      <trkpt lat="48.86615" lon="-0.42899">
        <ele>139</ele>
        <time>2024-04-07T08:04:51Z</time>
      </trkpt>
      <trkpt lat="48.86612" lon="-0.42908">
        <ele>139</ele>
        <time>2024-04-07T08:04:52Z</time>
      </trkpt>
      <trkpt lat="48.86609" lon="-0.42916">
        <ele>138.8</ele>
        <time>2024-04-07T08:04:53Z</time>
      </trkpt>
      <trkpt lat="48.86605" lon="-0.42925">
        <ele>138.8</ele>
        <time>2024-04-07T08:04:54Z</time>
      </trkpt>
      <trkpt lat="48.86602" lon="-0.42934">
        <ele>138.8</ele>
        <time>2024-04-07T08:04:55Z</time>
      </trkpt>
      <trkpt lat="48.86599" lon="-0.42943">
        <ele>138.6</ele>
        <time>2024-04-07T08:04:56Z</time>
      </trkpt>
      <trkpt lat="48.86596" lon="-0.42951">
        <ele>138.6</ele>
        <time>2024-04-07T08:04:57Z</time>
      </trkpt>
      <trkpt lat="48.86592" lon="-0.42965">
        <ele>138.4</ele>
        <time>2024-04-07T08:04:58Z</time>
      </trkpt>
      <trkpt lat="48.8659" lon="-0.42969">
        <ele>138.4</ele>
        <time>2024-04-07T08:04:59Z</time>
      </trkpt>
      <trkpt lat="48.86588" lon="-0.42978">
        <ele>138</ele>
        <time>2024-04-07T08:05:00Z</time>
      </trkpt>
      <trkpt lat="48.86586" lon="-0.42987">
        <ele>137.6</ele>
        <time>2024-04-07T08:05:01Z</time>
      </trkpt>
      <trkpt lat="48.86584" lon="-0.42995">
        <ele>137.4</ele>
        <time>2024-04-07T08:05:02Z</time>
      </trkpt>
      <trkpt lat="48.86581" lon="-0.43004">
        <ele>137.4</ele>
        <time>2024-04-07T08:05:03Z</time>
      </trkpt>
      <trkpt lat="48.86578" lon="-0.43018">
        <ele>137.4</ele>
        <time>2024-04-07T08:05:04Z</time>
      </trkpt>
      <trkpt lat="48.86577" lon="-0.43022">
        <ele>137.4</ele>
        <time>2024-04-07T08:05:05Z</time>
      </trkpt>
      <trkpt lat="48.86575" lon="-0.43031">
        <ele>137.6</ele>
        <time>2024-04-07T08:05:06Z</time>
      </trkpt>
      <trkpt lat="48.86574" lon="-0.4304">
        <ele>137.8</ele>
        <time>2024-04-07T08:05:07Z</time>
      </trkpt>
      <trkpt lat="48.86572" lon="-0.43048">
        <ele>138</ele>
        <time>2024-04-07T08:05:08Z</time>
      </trkpt>
      <trkpt lat="48.8657" lon="-0.43057">
        <ele>138.2</ele>
        <time>2024-04-07T08:05:09Z</time>
      </trkpt>
      <trkpt lat="48.86568" lon="-0.43066">
        <ele>138.4</ele>
        <time>2024-04-07T08:05:10Z</time>
      </trkpt>
      <trkpt lat="48.86566" lon="-0.43075">
        <ele>138.6</ele>
        <time>2024-04-07T08:05:11Z</time>
      </trkpt>
      <trkpt lat="48.86563" lon="-0.43093">
        <ele>138.6</ele>
        <time>2024-04-07T08:05:12Z</time>
      </trkpt>
      <trkpt lat="48.86563" lon="-0.43097">
        <ele>138.8</ele>
        <time>2024-04-07T08:05:13Z</time>
      </trkpt>
      <trkpt lat="48.86562" lon="-0.43102">
        <ele>139</ele>
        <time>2024-04-07T08:05:14Z</time>
      </trkpt>
      <trkpt lat="48.8656" lon="-0.43111">
        <ele>139</ele>
        <time>2024-04-07T08:05:15Z</time>
      </trkpt>
      <trkpt lat="48.86559" lon="-0.4312">
        <ele>139.2</ele>
        <time>2024-04-07T08:05:16Z</time>
      </trkpt>
      <trkpt lat="48.86557" lon="-0.43133">
        <ele>139.2</ele>
        <time>2024-04-07T08:05:17Z</time>
      </trkpt>
      <trkpt lat="48.86557" lon="-0.43138">
        <ele>139.2</ele>
        <time>2024-04-07T08:05:18Z</time>
      </trkpt>
      <trkpt lat="48.86556" lon="-0.43147">
        <ele>139.2</ele>
        <time>2024-04-07T08:05:19Z</time>
      </trkpt>
      <trkpt lat="48.86555" lon="-0.43156">
        <ele>139.2</ele>
        <time>2024-04-07T08:05:20Z</time>
      </trkpt>
      <trkpt lat="48.86555" lon="-0.43164">
        <ele>139.4</ele>
        <time>2024-04-07T08:05:21Z</time>
      </trkpt>
      <trkpt lat="48.86555" lon="-0.43172">
        <ele>139.8</ele>
        <time>2024-04-07T08:05:22Z</time>
      </trkpt>
      <trkpt lat="48.86555" lon="-0.43181">
        <ele>140.4</ele>
        <time>2024-04-07T08:05:23Z</time>
      </trkpt>
      <trkpt lat="48.86556" lon="-0.43188">
        <ele>140.8</ele>
        <time>2024-04-07T08:05:24Z</time>
      </trkpt>
      <trkpt lat="48.86556" lon="-0.43196">
        <ele>141.2</ele>
        <time>2024-04-07T08:05:25Z</time>
      </trkpt>
      <trkpt lat="48.86557" lon="-0.43203">
        <ele>141.8</ele>
        <time>2024-04-07T08:05:26Z</time>
      </trkpt>
      <trkpt lat="48.86558" lon="-0.4321">
        <ele>142.2</ele>
        <time>2024-04-07T08:05:27Z</time>
      </trkpt>
      <trkpt lat="48.86558" lon="-0.43217">
        <ele>142.6</ele>
        <time>2024-04-07T08:05:28Z</time>
      </trkpt>
      <trkpt lat="48.86559" lon="-0.43224">
        <ele>143</ele>
        <time>2024-04-07T08:05:29Z</time>
      </trkpt>
      <trkpt lat="48.8656" lon="-0.4323">
        <ele>143.6</ele>
        <time>2024-04-07T08:05:30Z</time>
      </trkpt>
      <trkpt lat="48.86561" lon="-0.43236">
        <ele>144</ele>
        <time>2024-04-07T08:05:31Z</time>
      </trkpt>
      <trkpt lat="48.86562" lon="-0.43242">
        <ele>144.6</ele>
        <time>2024-04-07T08:05:32Z</time>
      </trkpt>
      <trkpt lat="48.86563" lon="-0.43248">
        <ele>145.2</ele>
        <time>2024-04-07T08:05:33Z</time>
      </trkpt>
      <trkpt lat="48.86564" lon="-0.43255">
        <ele>145.6</ele>
        <time>2024-04-07T08:05:34Z</time>
      </trkpt>
      <trkpt lat="48.86565" lon="-0.43261">
        <ele>145.8</ele>
        <time>2024-04-07T08:05:35Z</time>
      </trkpt>
      <trkpt lat="48.86566" lon="-0.43267">
        <ele>146.2</ele>
        <time>2024-04-07T08:05:36Z</time>
      </trkpt>
      <trkpt lat="48.86567" lon="-0.43277">
        <ele>146.4</ele>
        <time>2024-04-07T08:05:37Z</time>
      </trkpt>
      <trkpt lat="48.86568" lon="-0.4328">
        <ele>146.8</ele>
        <time>2024-04-07T08:05:38Z</time>
      </trkpt>
      <trkpt lat="48.86568" lon="-0.43287">
        <ele>147</ele>
        <time>2024-04-07T08:05:39Z</time>
      </trkpt>
      <trkpt lat="48.86569" lon="-0.43293">
        <ele>147.2</ele>
        <time>2024-04-07T08:05:40Z</time>
      </trkpt>
      <trkpt lat="48.8657" lon="-0.433">
        <ele>147.4</ele>
        <time>2024-04-07T08:05:41Z</time>
      </trkpt>
      <trkpt lat="48.8657" lon="-0.43307">
        <ele>147.4</ele>
        <time>2024-04-07T08:05:42Z</time>
      </trkpt>
      <trkpt lat="48.86571" lon="-0.43315">
        <ele>147.4</ele>
        <time>2024-04-07T08:05:43Z</time>
      </trkpt>
      <trkpt lat="48.86571" lon="-0.43322">
        <ele>147.6</ele>
        <time>2024-04-07T08:05:44Z</time>
      </trkpt>
      <trkpt lat="48.86571" lon="-0.43329">
        <ele>147.6</ele>
        <time>2024-04-07T08:05:45Z</time>
      </trkpt>
      <trkpt lat="48.86572" lon="-0.43336">
        <ele>148</ele>
        <time>2024-04-07T08:05:46Z</time>
      </trkpt>
      <trkpt lat="48.86572" lon="-0.43345">
        <ele>148.4</ele>
        <time>2024-04-07T08:05:47Z</time>
      </trkpt>
      <trkpt lat="48.86573" lon="-0.43353">
        <ele>149.2</ele>
        <time>2024-04-07T08:05:48Z</time>
      </trkpt>
      <trkpt lat="48.86573" lon="-0.43362">
        <ele>149.6</ele>
        <time>2024-04-07T08:05:49Z</time>
      </trkpt>
      <trkpt lat="48.86573" lon="-0.4337">
        <ele>150</ele>
        <time>2024-04-07T08:05:50Z</time>
      </trkpt>
      <trkpt lat="48.86574" lon="-0.43379">
        <ele>150</ele>
        <time>2024-04-07T08:05:51Z</time>
      </trkpt>
      <trkpt lat="48.86575" lon="-0.43388">
        <ele>150</ele>
        <time>2024-04-07T08:05:52Z</time>
      </trkpt>
      <trkpt lat="48.86575" lon="-0.43397">
        <ele>149.4</ele>
        <time>2024-04-07T08:05:53Z</time>
      </trkpt>
      <trkpt lat="48.86576" lon="-0.43406">
        <ele>148.8</ele>
        <time>2024-04-07T08:05:54Z</time>
      </trkpt>
      <trkpt lat="48.86577" lon="-0.43415">
        <ele>148.4</ele>
        <time>2024-04-07T08:05:55Z</time>
      </trkpt>
      <trkpt lat="48.86577" lon="-0.43423">
        <ele>148.4</ele>
        <time>2024-04-07T08:05:56Z</time>
      </trkpt>
      <trkpt lat="48.86578" lon="-0.43433">
        <ele>148.2</ele>
        <time>2024-04-07T08:05:57Z</time>
      </trkpt>
      <trkpt lat="48.86578" lon="-0.43442">
        <ele>148.2</ele>
        <time>2024-04-07T08:05:58Z</time>
      </trkpt>
      <trkpt lat="48.86579" lon="-0.43451">
        <ele>148.4</ele>
        <time>2024-04-07T08:05:59Z</time>
      </trkpt>
      <trkpt lat="48.8658" lon="-0.4346">
        <ele>148.8</ele>
        <time>2024-04-07T08:06:00Z</time>
      </trkpt>
      <trkpt lat="48.86581" lon="-0.4348">
        <ele>149</ele>
        <time>2024-04-07T08:06:01Z</time>
      </trkpt>
      <trkpt lat="48.86581" lon="-0.43485">
        <ele>149.2</ele>
        <time>2024-04-07T08:06:02Z</time>
      </trkpt>
      <trkpt lat="48.86581" lon="-0.4349">
        <ele>149.2</ele>
        <time>2024-04-07T08:06:03Z</time>
      </trkpt>
      <trkpt lat="48.86582" lon="-0.43499">
        <ele>148.8</ele>
        <time>2024-04-07T08:06:04Z</time>
      </trkpt>
      <trkpt lat="48.86583" lon="-0.43509">
        <ele>147.8</ele>
        <time>2024-04-07T08:06:05Z</time>
      </trkpt>
      <trkpt lat="48.86583" lon="-0.43518">
        <ele>146.6</ele>
        <time>2024-04-07T08:06:06Z</time>
      </trkpt>
      <trkpt lat="48.86584" lon="-0.43527">
        <ele>145.6</ele>
        <time>2024-04-07T08:06:07Z</time>
      </trkpt>
      <trkpt lat="48.86585" lon="-0.43537">
        <ele>144.8</ele>
        <time>2024-04-07T08:06:08Z</time>
      </trkpt>
      <trkpt lat="48.86589" lon="-0.4356">
        <ele>144.6</ele>
        <time>2024-04-07T08:06:09Z</time>
      </trkpt>
      <trkpt lat="48.8659" lon="-0.43566">
        <ele>144.4</ele>
        <time>2024-04-07T08:06:10Z</time>
      </trkpt>
      <trkpt lat="48.86591" lon="-0.43572">
        <ele>144.4</ele>
        <time>2024-04-07T08:06:11Z</time>
      </trkpt>
      <trkpt lat="48.86594" lon="-0.43584">
        <ele>144.4</ele>
        <time>2024-04-07T08:06:12Z</time>
      </trkpt>
      <trkpt lat="48.86597" lon="-0.43595">
        <ele>144.2</ele>
        <time>2024-04-07T08:06:13Z</time>
      </trkpt>
      <trkpt lat="48.86601" lon="-0.43607">
        <ele>143.8</ele>
        <time>2024-04-07T08:06:14Z</time>
      </trkpt>
      <trkpt lat="48.86604" lon="-0.43619">
        <ele>143.2</ele>
        <time>2024-04-07T08:06:15Z</time>
      </trkpt>
      <trkpt lat="48.86607" lon="-0.43631">
        <ele>142.8</ele>
        <time>2024-04-07T08:06:16Z</time>
      </trkpt>
      <trkpt lat="48.8661" lon="-0.43643">
        <ele>142.4</ele>
        <time>2024-04-07T08:06:17Z</time>
      </trkpt>
      <trkpt lat="48.86613" lon="-0.43655">
        <ele>142.2</ele>
        <time>2024-04-07T08:06:18Z</time>
      </trkpt>
      <trkpt lat="48.86616" lon="-0.43667">
        <ele>142.2</ele>
        <time>2024-04-07T08:06:19Z</time>
      </trkpt>
      <trkpt lat="48.86619" lon="-0.4368">
        <ele>142</ele>
        <time>2024-04-07T08:06:20Z</time>
      </trkpt>
      <trkpt lat="48.86622" lon="-0.43691">
        <ele>142</ele>
        <time>2024-04-07T08:06:21Z</time>
      </trkpt>
      <trkpt lat="48.86626" lon="-0.43702">
        <ele>141.8</ele>
        <time>2024-04-07T08:06:22Z</time>
      </trkpt>
      <trkpt lat="48.86634" lon="-0.43725">
        <ele>141.4</ele>
        <time>2024-04-07T08:06:23Z</time>
      </trkpt>
      <trkpt lat="48.86636" lon="-0.4373">
        <ele>141</ele>
        <time>2024-04-07T08:06:24Z</time>
      </trkpt>
      <trkpt lat="48.86638" lon="-0.43735">
        <ele>140.8</ele>
        <time>2024-04-07T08:06:25Z</time>
      </trkpt>
      <trkpt lat="48.86645" lon="-0.43753">
        <ele>140.6</ele>
        <time>2024-04-07T08:06:26Z</time>
      </trkpt>
      <trkpt lat="48.86648" lon="-0.43761">
        <ele>140.6</ele>
        <time>2024-04-07T08:06:27Z</time>
      </trkpt>
      <trkpt lat="48.86654" lon="-0.43776">
        <ele>140.4</ele>
        <time>2024-04-07T08:06:28Z</time>
      </trkpt>
      <trkpt lat="48.86657" lon="-0.43787">
        <ele>140.4</ele>
        <time>2024-04-07T08:06:29Z</time>
      </trkpt>
      <trkpt lat="48.8666" lon="-0.43799">
        <ele>140.6</ele>
        <time>2024-04-07T08:06:30Z</time>
      </trkpt>
      <trkpt lat="48.86662" lon="-0.4381">
        <ele>140.6</ele>
        <time>2024-04-07T08:06:31Z</time>
      </trkpt>
      <trkpt lat="48.86663" lon="-0.43822">
        <ele>140.6</ele>
        <time>2024-04-07T08:06:32Z</time>
      </trkpt>
      <trkpt lat="48.86663" lon="-0.43834">
        <ele>140.6</ele>
        <time>2024-04-07T08:06:33Z</time>
      </trkpt>
      <trkpt lat="48.86663" lon="-0.43846">
        <ele>140.6</ele>
        <time>2024-04-07T08:06:34Z</time>
      </trkpt>
      <trkpt lat="48.86663" lon="-0.43846">
        <ele>140.4</ele>
        <time>2024-04-07T08:06:35Z</time>
      </trkpt>
      <trkpt lat="48.86662" lon="-0.43858">
        <ele>140.2</ele>
        <time>2024-04-07T08:06:36Z</time>
      </trkpt>
      <trkpt lat="48.86661" lon="-0.43874">
        <ele>140.2</ele>
        <time>2024-04-07T08:06:37Z</time>
      </trkpt>
      <trkpt lat="48.8666" lon="-0.4388">
        <ele>140</ele>
        <time>2024-04-07T08:06:38Z</time>
      </trkpt>
      <trkpt lat="48.8666" lon="-0.43891">
        <ele>139.8</ele>
        <time>2024-04-07T08:06:39Z</time>
      </trkpt>
      <trkpt lat="48.8666" lon="-0.43902">
        <ele>139.6</ele>
        <time>2024-04-07T08:06:40Z</time>
      </trkpt>
      <trkpt lat="48.86661" lon="-0.43913">
        <ele>139.6</ele>
        <time>2024-04-07T08:06:41Z</time>
      </trkpt>
      <trkpt lat="48.86662" lon="-0.43923">
        <ele>139.8</ele>
        <time>2024-04-07T08:06:42Z</time>
      </trkpt>
      <trkpt lat="48.86665" lon="-0.43933">
        <ele>140</ele>
        <time>2024-04-07T08:06:43Z</time>
      </trkpt>
      <trkpt lat="48.86669" lon="-0.43942">
        <ele>140.2</ele>
        <time>2024-04-07T08:06:44Z</time>
      </trkpt>
      <trkpt lat="48.8668" lon="-0.43955">
        <ele>140.2</ele>
        <time>2024-04-07T08:06:45Z</time>
      </trkpt>
      <trkpt lat="48.86686" lon="-0.43962">
        <ele>140.2</ele>
        <time>2024-04-07T08:06:46Z</time>
      </trkpt>
      <trkpt lat="48.86692" lon="-0.43967">
        <ele>140.2</ele>
        <time>2024-04-07T08:06:47Z</time>
      </trkpt>
      <trkpt lat="48.86695" lon="-0.4397">
        <ele>140.2</ele>
        <time>2024-04-07T08:06:48Z</time>
      </trkpt>
      <trkpt lat="48.86698" lon="-0.43973">
        <ele>140.2</ele>
        <time>2024-04-07T08:06:49Z</time>
      </trkpt>
      <trkpt lat="48.8671" lon="-0.43985">
        <ele>140</ele>
        <time>2024-04-07T08:06:50Z</time>
      </trkpt>
      <trkpt lat="48.86716" lon="-0.43991">
        <ele>139.8</ele>
        <time>2024-04-07T08:06:51Z</time>
      </trkpt>
      <trkpt lat="48.86722" lon="-0.43997">
        <ele>140</ele>
        <time>2024-04-07T08:06:52Z</time>
      </trkpt>
      <trkpt lat="48.86727" lon="-0.44003">
        <ele>140</ele>
        <time>2024-04-07T08:06:53Z</time>
      </trkpt>
      <trkpt lat="48.86732" lon="-0.4401">
        <ele>140.2</ele>
        <time>2024-04-07T08:06:54Z</time>
      </trkpt>
      <trkpt lat="48.86738" lon="-0.44016">
        <ele>140.4</ele>
        <time>2024-04-07T08:06:55Z</time>
      </trkpt>
      <trkpt lat="48.86741" lon="-0.44022">
        <ele>140.6</ele>
        <time>2024-04-07T08:06:56Z</time>
      </trkpt>
      <trkpt lat="48.86745" lon="-0.44027">
        <ele>141</ele>
        <time>2024-04-07T08:06:57Z</time>
      </trkpt>
      <trkpt lat="48.86753" lon="-0.44038">
        <ele>141.2</ele>
        <time>2024-04-07T08:06:58Z</time>
      </trkpt>
      <trkpt lat="48.86756" lon="-0.44043">
        <ele>141.4</ele>
        <time>2024-04-07T08:06:59Z</time>
      </trkpt>
      <trkpt lat="48.8676" lon="-0.44049">
        <ele>141.4</ele>
        <time>2024-04-07T08:07:00Z</time>
      </trkpt>
      <trkpt lat="48.86767" lon="-0.44061">
        <ele>141.6</ele>
        <time>2024-04-07T08:07:01Z</time>
      </trkpt>
      <trkpt lat="48.8677" lon="-0.44067">
        <ele>141.6</ele>
        <time>2024-04-07T08:07:02Z</time>
      </trkpt>
      <trkpt lat="48.86773" lon="-0.44073">
        <ele>141.8</ele>
        <time>2024-04-07T08:07:03Z</time>
      </trkpt>
      <trkpt lat="48.8678" lon="-0.44086">
        <ele>141.8</ele>
        <time>2024-04-07T08:07:04Z</time>
      </trkpt>
      <trkpt lat="48.86784" lon="-0.44094">
        <ele>142</ele>
        <time>2024-04-07T08:07:05Z</time>
      </trkpt>
      <trkpt lat="48.86788" lon="-0.44102">
        <ele>142</ele>
        <time>2024-04-07T08:07:06Z</time>
      </trkpt>
      <trkpt lat="48.86792" lon="-0.44108">
        <ele>142</ele>
        <time>2024-04-07T08:07:07Z</time>
      </trkpt>
      <trkpt lat="48.86795" lon="-0.44114">
        <ele>142</ele>
        <time>2024-04-07T08:07:08Z</time>
      </trkpt>
      <trkpt lat="48.86802" lon="-0.44126">
        <ele>142.2</ele>
        <time>2024-04-07T08:07:09Z</time>
      </trkpt>
      <trkpt lat="48.86804" lon="-0.4413">
        <ele>142.2</ele>
        <time>2024-04-07T08:07:10Z</time>
      </trkpt>
      <trkpt lat="48.86807" lon="-0.44134">
        <ele>142.4</ele>
        <time>2024-04-07T08:07:11Z</time>
      </trkpt>
      <trkpt lat="48.86811" lon="-0.44142">
        <ele>142.4</ele>
        <time>2024-04-07T08:07:12Z</time>
      </trkpt>
      <trkpt lat="48.86819" lon="-0.44157">
        <ele>142.6</ele>
        <time>2024-04-07T08:07:13Z</time>
      </trkpt>
      <trkpt lat="48.86821" lon="-0.44161">
        <ele>142.8</ele>
        <time>2024-04-07T08:07:14Z</time>
      </trkpt>
      <trkpt lat="48.86823" lon="-0.44165">
        <ele>143.2</ele>
        <time>2024-04-07T08:07:15Z</time>
      </trkpt>
      <trkpt lat="48.86831" lon="-0.44179">
        <ele>143.4</ele>
        <time>2024-04-07T08:07:16Z</time>
      </trkpt>
      <trkpt lat="48.86834" lon="-0.44185">
        <ele>143.6</ele>
        <time>2024-04-07T08:07:17Z</time>
      </trkpt>
      <trkpt lat="48.86841" lon="-0.44197">
        <ele>144</ele>
        <time>2024-04-07T08:07:18Z</time>
      </trkpt>
      <trkpt lat="48.86843" lon="-0.44201">
        <ele>144.2</ele>
        <time>2024-04-07T08:07:19Z</time>
      </trkpt>
      <trkpt lat="48.86845" lon="-0.44205">
        <ele>144.2</ele>
        <time>2024-04-07T08:07:20Z</time>
      </trkpt>
      <trkpt lat="48.8685" lon="-0.44217">
        <ele>144.4</ele>
        <time>2024-04-07T08:07:21Z</time>
      </trkpt>
      <trkpt lat="48.86852" lon="-0.4422">
        <ele>144.2</ele>
        <time>2024-04-07T08:07:22Z</time>
      </trkpt>
      <trkpt lat="48.8686" lon="-0.44236">
        <ele>144.2</ele>
        <time>2024-04-07T08:07:23Z</time>
      </trkpt>
      <trkpt lat="48.86864" lon="-0.44244">
        <ele>144.2</ele>
        <time>2024-04-07T08:07:24Z</time>
      </trkpt>
      <trkpt lat="48.86867" lon="-0.4425">
        <ele>144</ele>
        <time>2024-04-07T08:07:25Z</time>
      </trkpt>
      <trkpt lat="48.86869" lon="-0.44256">
        <ele>144</ele>
        <time>2024-04-07T08:07:26Z</time>
      </trkpt>
      <trkpt lat="48.86874" lon="-0.44268">
        <ele>144</ele>
        <time>2024-04-07T08:07:27Z</time>
      </trkpt>
      <trkpt lat="48.86878" lon="-0.44277">
        <ele>144</ele>
        <time>2024-04-07T08:07:28Z</time>
      </trkpt>
      <trkpt lat="48.8688" lon="-0.44286">
        <ele>144.4</ele>
        <time>2024-04-07T08:07:29Z</time>
      </trkpt>
      <trkpt lat="48.8688" lon="-0.44286">
        <ele>144.8</ele>
        <time>2024-04-07T08:07:30Z</time>
      </trkpt>
      <trkpt lat="48.86885" lon="-0.44305">
        <ele>145</ele>
        <time>2024-04-07T08:07:31Z</time>
      </trkpt>
      <trkpt lat="48.86886" lon="-0.44313">
        <ele>145.2</ele>
        <time>2024-04-07T08:07:32Z</time>
      </trkpt>
      <trkpt lat="48.86888" lon="-0.44321">
        <ele>145.4</ele>
        <time>2024-04-07T08:07:33Z</time>
      </trkpt>
      <trkpt lat="48.86891" lon="-0.44336">
        <ele>145.4</ele>
        <time>2024-04-07T08:07:34Z</time>
      </trkpt>
      <trkpt lat="48.86892" lon="-0.44347">
        <ele>145.4</ele>
        <time>2024-04-07T08:07:35Z</time>
      </trkpt>
      <trkpt lat="48.86894" lon="-0.44357">
        <ele>145.6</ele>
        <time>2024-04-07T08:07:36Z</time>
      </trkpt>
      <trkpt lat="48.86896" lon="-0.44367">
        <ele>145.4</ele>
        <time>2024-04-07T08:07:37Z</time>
      </trkpt>
      <trkpt lat="48.86898" lon="-0.44377">
        <ele>145.6</ele>
        <time>2024-04-07T08:07:38Z</time>
      </trkpt>
      <trkpt lat="48.86899" lon="-0.44382">
        <ele>145.6</ele>
        <time>2024-04-07T08:07:39Z</time>
      </trkpt>
      <trkpt lat="48.869" lon="-0.44387">
        <ele>145.6</ele>
        <time>2024-04-07T08:07:40Z</time>
      </trkpt>
      <trkpt lat="48.86904" lon="-0.44406">
        <ele>145.4</ele>
        <time>2024-04-07T08:07:41Z</time>
      </trkpt>
      <trkpt lat="48.86906" lon="-0.44415">
        <ele>145.4</ele>
        <time>2024-04-07T08:07:42Z</time>
      </trkpt>
      <trkpt lat="48.86907" lon="-0.4442">
        <ele>145.4</ele>
        <time>2024-04-07T08:07:43Z</time>
      </trkpt>
      <trkpt lat="48.86908" lon="-0.44425">
        <ele>145.4</ele>
        <time>2024-04-07T08:07:44Z</time>
      </trkpt>
      <trkpt lat="48.86911" lon="-0.44445">
        <ele>145.6</ele>
        <time>2024-04-07T08:07:45Z</time>
      </trkpt>
      <trkpt lat="48.86911" lon="-0.4445">
        <ele>145.6</ele>
        <time>2024-04-07T08:07:46Z</time>
      </trkpt>
      <trkpt lat="48.86912" lon="-0.44455">
        <ele>145.6</ele>
        <time>2024-04-07T08:07:47Z</time>
      </trkpt>
      <trkpt lat="48.86913" lon="-0.4447">
        <ele>145.8</ele>
        <time>2024-04-07T08:07:48Z</time>
      </trkpt>
      <trkpt lat="48.86914" lon="-0.44474">
        <ele>145.8</ele>
        <time>2024-04-07T08:07:49Z</time>
      </trkpt>
      <trkpt lat="48.86914" lon="-0.44484">
        <ele>145.8</ele>
        <time>2024-04-07T08:07:50Z</time>
      </trkpt>
      <trkpt lat="48.86914" lon="-0.44493">
        <ele>145.8</ele>
        <time>2024-04-07T08:07:51Z</time>
      </trkpt>
      <trkpt lat="48.86915" lon="-0.44502">
        <ele>145.6</ele>
        <time>2024-04-07T08:07:52Z</time>
      </trkpt>
      <trkpt lat="48.86917" lon="-0.44516">
        <ele>145.6</ele>
        <time>2024-04-07T08:07:53Z</time>
      </trkpt>
      <trkpt lat="48.86917" lon="-0.44521">
        <ele>145.6</ele>
        <time>2024-04-07T08:07:54Z</time>
      </trkpt>
      <trkpt lat="48.86918" lon="-0.44531">
        <ele>145.6</ele>
        <time>2024-04-07T08:07:55Z</time>
      </trkpt>
      <trkpt lat="48.86919" lon="-0.44542">
        <ele>146</ele>
        <time>2024-04-07T08:07:56Z</time>
      </trkpt>
      <trkpt lat="48.8692" lon="-0.44553">
        <ele>146.2</ele>
        <time>2024-04-07T08:07:57Z</time>
      </trkpt>
      <trkpt lat="48.8692" lon="-0.44564">
        <ele>146.2</ele>
        <time>2024-04-07T08:07:58Z</time>
      </trkpt>
      <trkpt lat="48.86921" lon="-0.44575">
        <ele>146.2</ele>
        <time>2024-04-07T08:07:59Z</time>
      </trkpt>
      <trkpt lat="48.86923" lon="-0.44595">
        <ele>146.2</ele>
        <time>2024-04-07T08:08:00Z</time>
      </trkpt>
      <trkpt lat="48.86923" lon="-0.446">
        <ele>146.2</ele>
        <time>2024-04-07T08:08:01Z</time>
      </trkpt>
      <trkpt lat="48.86923" lon="-0.44605">
        <ele>146.2</ele>
        <time>2024-04-07T08:08:02Z</time>
      </trkpt>
      <trkpt lat="48.86924" lon="-0.44614">
        <ele>146</ele>
        <time>2024-04-07T08:08:03Z</time>
      </trkpt>
      <trkpt lat="48.86926" lon="-0.44632">
        <ele>145.8</ele>
        <time>2024-04-07T08:08:04Z</time>
      </trkpt>
      <trkpt lat="48.86927" lon="-0.44637">
        <ele>145.8</ele>
        <time>2024-04-07T08:08:05Z</time>
      </trkpt>
      <trkpt lat="48.86928" lon="-0.44642">
        <ele>145.8</ele>
        <time>2024-04-07T08:08:06Z</time>
      </trkpt>
      <trkpt lat="48.86929" lon="-0.44652">
        <ele>145.6</ele>
        <time>2024-04-07T08:08:07Z</time>
      </trkpt>
      <trkpt lat="48.8693" lon="-0.44662">
        <ele>145.6</ele>
        <time>2024-04-07T08:08:08Z</time>
      </trkpt>
      <trkpt lat="48.86931" lon="-0.44672">
        <ele>145.4</ele>
        <time>2024-04-07T08:08:09Z</time>
      </trkpt>
      <trkpt lat="48.86931" lon="-0.44687">
        <ele>145.4</ele>
        <time>2024-04-07T08:08:10Z</time>
      </trkpt>
      <trkpt lat="48.86932" lon="-0.44692">
        <ele>145.4</ele>
        <time>2024-04-07T08:08:11Z</time>
      </trkpt>
      <trkpt lat="48.86932" lon="-0.44701">
        <ele>145.4</ele>
        <time>2024-04-07T08:08:12Z</time>
      </trkpt>
      <trkpt lat="48.86933" lon="-0.44711">
        <ele>145.2</ele>
        <time>2024-04-07T08:08:13Z</time>
      </trkpt>
      <trkpt lat="48.86933" lon="-0.4472">
        <ele>145.2</ele>
        <time>2024-04-07T08:08:14Z</time>
      </trkpt>
      <trkpt lat="48.86933" lon="-0.44729">
        <ele>145</ele>
        <time>2024-04-07T08:08:15Z</time>
      </trkpt>
      <trkpt lat="48.86933" lon="-0.44738">
        <ele>144.8</ele>
        <time>2024-04-07T08:08:16Z</time>
      </trkpt>
      <trkpt lat="48.86933" lon="-0.44748">
        <ele>144.6</ele>
        <time>2024-04-07T08:08:17Z</time>
      </trkpt>
      <trkpt lat="48.86934" lon="-0.44757">
        <ele>144.6</ele>
        <time>2024-04-07T08:08:18Z</time>
      </trkpt>
      <trkpt lat="48.86934" lon="-0.44768">
        <ele>144.6</ele>
        <time>2024-04-07T08:08:19Z</time>
      </trkpt>
      <trkpt lat="48.86933" lon="-0.44781">
        <ele>144.6</ele>
        <time>2024-04-07T08:08:20Z</time>
      </trkpt>
      <trkpt lat="48.86931" lon="-0.44798">
        <ele>144.6</ele>
        <time>2024-04-07T08:08:21Z</time>
      </trkpt>
      <trkpt lat="48.8693" lon="-0.44811">
        <ele>144.6</ele>
        <time>2024-04-07T08:08:22Z</time>
      </trkpt>
      <trkpt lat="48.8693" lon="-0.44824">
        <ele>144.8</ele>
        <time>2024-04-07T08:08:23Z</time>
      </trkpt>
      <trkpt lat="48.86928" lon="-0.44835">
        <ele>145</ele>
        <time>2024-04-07T08:08:24Z</time>
      </trkpt>
      <trkpt lat="48.86928" lon="-0.44848">
        <ele>145</ele>
        <time>2024-04-07T08:08:25Z</time>
      </trkpt>
      <trkpt lat="48.86926" lon="-0.44873">
        <ele>145.2</ele>
        <time>2024-04-07T08:08:26Z</time>
      </trkpt>
      <trkpt lat="48.86926" lon="-0.44879">
        <ele>145.2</ele>
        <time>2024-04-07T08:08:27Z</time>
      </trkpt>
      <trkpt lat="48.86926" lon="-0.44885">
        <ele>145.4</ele>
        <time>2024-04-07T08:08:28Z</time>
      </trkpt>
      <trkpt lat="48.86925" lon="-0.44896">
        <ele>145.6</ele>
        <time>2024-04-07T08:08:29Z</time>
      </trkpt>
      <trkpt lat="48.86924" lon="-0.4492">
        <ele>145.8</ele>
        <time>2024-04-07T08:08:30Z</time>
      </trkpt>
      <trkpt lat="48.86923" lon="-0.44932">
        <ele>146</ele>
        <time>2024-04-07T08:08:31Z</time>
      </trkpt>
      <trkpt lat="48.86923" lon="-0.44938">
        <ele>146.2</ele>
        <time>2024-04-07T08:08:32Z</time>
      </trkpt>
      <trkpt lat="48.86922" lon="-0.44943">
        <ele>146.2</ele>
        <time>2024-04-07T08:08:33Z</time>
      </trkpt>
      <trkpt lat="48.86921" lon="-0.44965">
        <ele>146.2</ele>
        <time>2024-04-07T08:08:34Z</time>
      </trkpt>
      <trkpt lat="48.86921" lon="-0.44976">
        <ele>146.2</ele>
        <time>2024-04-07T08:08:35Z</time>
      </trkpt>
      <trkpt lat="48.86921" lon="-0.44976">
        <ele>146</ele>
        <time>2024-04-07T08:08:36Z</time>
      </trkpt>
      <trkpt lat="48.86921" lon="-0.44987">
        <ele>145.8</ele>
        <time>2024-04-07T08:08:37Z</time>
      </trkpt>
      <trkpt lat="48.86918" lon="-0.45005">
        <ele>145.6</ele>
        <time>2024-04-07T08:08:38Z</time>
      </trkpt>
      <trkpt lat="48.86918" lon="-0.45013">
        <ele>145.6</ele>
        <time>2024-04-07T08:08:39Z</time>
      </trkpt>
      <trkpt lat="48.86916" lon="-0.45029">
        <ele>145.4</ele>
        <time>2024-04-07T08:08:40Z</time>
      </trkpt>
      <trkpt lat="48.86915" lon="-0.4504">
        <ele>145.4</ele>
        <time>2024-04-07T08:08:41Z</time>
      </trkpt>
      <trkpt lat="48.86915" lon="-0.4504">
        <ele>145.4</ele>
        <time>2024-04-07T08:08:42Z</time>
      </trkpt>
      <trkpt lat="48.86913" lon="-0.45062">
        <ele>145.4</ele>
        <time>2024-04-07T08:08:43Z</time>
      </trkpt>
      <trkpt lat="48.86912" lon="-0.45067">
        <ele>145.2</ele>
        <time>2024-04-07T08:08:44Z</time>
      </trkpt>
      <trkpt lat="48.86912" lon="-0.45072">
        <ele>145.2</ele>
        <time>2024-04-07T08:08:45Z</time>
      </trkpt>
      <trkpt lat="48.86909" lon="-0.45094">
        <ele>145.4</ele>
        <time>2024-04-07T08:08:46Z</time>
      </trkpt>
      <trkpt lat="48.86907" lon="-0.45104">
        <ele>145.4</ele>
        <time>2024-04-07T08:08:47Z</time>
      </trkpt>
      <trkpt lat="48.86907" lon="-0.45114">
        <ele>145.4</ele>
        <time>2024-04-07T08:08:48Z</time>
      </trkpt>
      <trkpt lat="48.86906" lon="-0.45119">
        <ele>145.4</ele>
        <time>2024-04-07T08:08:49Z</time>
      </trkpt>
      <trkpt lat="48.86905" lon="-0.45124">
        <ele>145.4</ele>
        <time>2024-04-07T08:08:50Z</time>
      </trkpt>
      <trkpt lat="48.86905" lon="-0.45134">
        <ele>145.6</ele>
        <time>2024-04-07T08:08:51Z</time>
      </trkpt>
      <trkpt lat="48.86904" lon="-0.45143">
        <ele>145.8</ele>
        <time>2024-04-07T08:08:52Z</time>
      </trkpt>
      <trkpt lat="48.86905" lon="-0.45152">
        <ele>146.2</ele>
        <time>2024-04-07T08:08:53Z</time>
      </trkpt>
      <trkpt lat="48.86904" lon="-0.45161">
        <ele>146.4</ele>
        <time>2024-04-07T08:08:54Z</time>
      </trkpt>
      <trkpt lat="48.86902" lon="-0.4517">
        <ele>146.6</ele>
        <time>2024-04-07T08:08:55Z</time>
      </trkpt>
      <trkpt lat="48.86899" lon="-0.45185">
        <ele>146.8</ele>
        <time>2024-04-07T08:08:56Z</time>
      </trkpt>
      <trkpt lat="48.86898" lon="-0.4519">
        <ele>147</ele>
        <time>2024-04-07T08:08:57Z</time>
      </trkpt>
      <trkpt lat="48.86895" lon="-0.45206">
        <ele>147</ele>
        <time>2024-04-07T08:08:58Z</time>
      </trkpt>
      <trkpt lat="48.86895" lon="-0.45211">
        <ele>147</ele>
        <time>2024-04-07T08:08:59Z</time>
      </trkpt>
      <trkpt lat="48.86894" lon="-0.45222">
        <ele>147.2</ele>
        <time>2024-04-07T08:09:00Z</time>
      </trkpt>
      <trkpt lat="48.86895" lon="-0.45233">
        <ele>147.2</ele>
        <time>2024-04-07T08:09:01Z</time>
      </trkpt>
      <trkpt lat="48.86896" lon="-0.45255">
        <ele>147.4</ele>
        <time>2024-04-07T08:09:02Z</time>
      </trkpt>
      <trkpt lat="48.86895" lon="-0.45261">
        <ele>147.6</ele>
        <time>2024-04-07T08:09:03Z</time>
      </trkpt>
      <trkpt lat="48.86895" lon="-0.45267">
        <ele>147.8</ele>
        <time>2024-04-07T08:09:04Z</time>
      </trkpt>
      <trkpt lat="48.86894" lon="-0.45287">
        <ele>147.8</ele>
        <time>2024-04-07T08:09:05Z</time>
      </trkpt>
      <trkpt lat="48.86893" lon="-0.45296">
        <ele>148</ele>
        <time>2024-04-07T08:09:06Z</time>
      </trkpt>
      <trkpt lat="48.86892" lon="-0.45313">
        <ele>148</ele>
        <time>2024-04-07T08:09:07Z</time>
      </trkpt>
      <trkpt lat="48.86892" lon="-0.45324">
        <ele>148.2</ele>
        <time>2024-04-07T08:09:08Z</time>
      </trkpt>
      <trkpt lat="48.86891" lon="-0.45335">
        <ele>148.2</ele>
        <time>2024-04-07T08:09:09Z</time>
      </trkpt>
      <trkpt lat="48.86891" lon="-0.45341">
        <ele>148.2</ele>
        <time>2024-04-07T08:09:10Z</time>
      </trkpt>
      <trkpt lat="48.86891" lon="-0.45346">
        <ele>148.2</ele>
        <time>2024-04-07T08:09:11Z</time>
      </trkpt>
      <trkpt lat="48.86891" lon="-0.45367">
        <ele>148.2</ele>
        <time>2024-04-07T08:09:12Z</time>
      </trkpt>
      <trkpt lat="48.86892" lon="-0.45373">
        <ele>148.2</ele>
        <time>2024-04-07T08:09:13Z</time>
      </trkpt>
      <trkpt lat="48.86892" lon="-0.45378">
        <ele>148.4</ele>
        <time>2024-04-07T08:09:14Z</time>
      </trkpt>
      <trkpt lat="48.86894" lon="-0.45399">
        <ele>148.4</ele>
        <time>2024-04-07T08:09:15Z</time>
      </trkpt>
      <trkpt lat="48.86894" lon="-0.45399">
        <ele>148.4</ele>
        <time>2024-04-07T08:09:16Z</time>
      </trkpt>
      <trkpt lat="48.86896" lon="-0.4542">
        <ele>148.4</ele>
        <time>2024-04-07T08:09:17Z</time>
      </trkpt>
      <trkpt lat="48.86897" lon="-0.45426">
        <ele>148.6</ele>
        <time>2024-04-07T08:09:18Z</time>
      </trkpt>
      <trkpt lat="48.86898" lon="-0.45431">
        <ele>148.6</ele>
        <time>2024-04-07T08:09:19Z</time>
      </trkpt>
      <trkpt lat="48.86899" lon="-0.45442">
        <ele>148.6</ele>
        <time>2024-04-07T08:09:20Z</time>
      </trkpt>
      <trkpt lat="48.86903" lon="-0.45463">
        <ele>148.6</ele>
        <time>2024-04-07T08:09:21Z</time>
      </trkpt>
      <trkpt lat="48.86903" lon="-0.45468">
        <ele>148.8</ele>
        <time>2024-04-07T08:09:22Z</time>
      </trkpt>
      <trkpt lat="48.86904" lon="-0.45473">
        <ele>149</ele>
        <time>2024-04-07T08:09:23Z</time>
      </trkpt>
      <trkpt lat="48.86906" lon="-0.45483">
        <ele>149.2</ele>
        <time>2024-04-07T08:09:24Z</time>
      </trkpt>
      <trkpt lat="48.86907" lon="-0.45494">
        <ele>149.6</ele>
        <time>2024-04-07T08:09:25Z</time>
      </trkpt>
      <trkpt lat="48.8691" lon="-0.45513">
        <ele>149.8</ele>
        <time>2024-04-07T08:09:26Z</time>
      </trkpt>
      <trkpt lat="48.86912" lon="-0.45524">
        <ele>150</ele>
        <time>2024-04-07T08:09:27Z</time>
      </trkpt>
      <trkpt lat="48.86912" lon="-0.45529">
        <ele>150</ele>
        <time>2024-04-07T08:09:28Z</time>
      </trkpt>
      <trkpt lat="48.86913" lon="-0.45534">
        <ele>150.2</ele>
        <time>2024-04-07T08:09:29Z</time>
      </trkpt>
      <trkpt lat="48.86914" lon="-0.45545">
        <ele>150.2</ele>
        <time>2024-04-07T08:09:30Z</time>
      </trkpt>
      <trkpt lat="48.86915" lon="-0.45554">
        <ele>150.2</ele>
        <time>2024-04-07T08:09:31Z</time>
      </trkpt>
      <trkpt lat="48.86917" lon="-0.45569">
        <ele>150.4</ele>
        <time>2024-04-07T08:09:32Z</time>
      </trkpt>
      <trkpt lat="48.86918" lon="-0.45575">
        <ele>150.4</ele>
        <time>2024-04-07T08:09:33Z</time>
      </trkpt>
      <trkpt lat="48.86919" lon="-0.45585">
        <ele>150.4</ele>
        <time>2024-04-07T08:09:34Z</time>
      </trkpt>
      <trkpt lat="48.86921" lon="-0.45595">
        <ele>150.2</ele>
        <time>2024-04-07T08:09:35Z</time>
      </trkpt>
      <trkpt lat="48.86922" lon="-0.45604">
        <ele>150</ele>
        <time>2024-04-07T08:09:36Z</time>
      </trkpt>
      <trkpt lat="48.86925" lon="-0.45614">
        <ele>150</ele>
        <time>2024-04-07T08:09:37Z</time>
      </trkpt>
      <trkpt lat="48.86927" lon="-0.45624">
        <ele>149.8</ele>
        <time>2024-04-07T08:09:38Z</time>
      </trkpt>
      <trkpt lat="48.8693" lon="-0.45633">
        <ele>149.8</ele>
        <time>2024-04-07T08:09:39Z</time>
      </trkpt>
      <trkpt lat="48.86933" lon="-0.45643">
        <ele>149.6</ele>
        <time>2024-04-07T08:09:40Z</time>
      </trkpt>
      <trkpt lat="48.86937" lon="-0.45653">
        <ele>149.6</ele>
        <time>2024-04-07T08:09:41Z</time>
      </trkpt>
      <trkpt lat="48.86945" lon="-0.45671">
        <ele>149.4</ele>
        <time>2024-04-07T08:09:42Z</time>
      </trkpt>
      <trkpt lat="48.86949" lon="-0.4568">
        <ele>149.4</ele>
        <time>2024-04-07T08:09:43Z</time>
      </trkpt>
      <trkpt lat="48.86952" lon="-0.4569">
        <ele>149.2</ele>
        <time>2024-04-07T08:09:44Z</time>
      </trkpt>
      <trkpt lat="48.86956" lon="-0.45699">
        <ele>149</ele>
        <time>2024-04-07T08:09:45Z</time>
      </trkpt>
      <trkpt lat="48.8696" lon="-0.45709">
        <ele>149</ele>
        <time>2024-04-07T08:09:46Z</time>
      </trkpt>
      <trkpt lat="48.86963" lon="-0.45718">
        <ele>149</ele>
        <time>2024-04-07T08:09:47Z</time>
      </trkpt>
      <trkpt lat="48.86967" lon="-0.45728">
        <ele>149</ele>
        <time>2024-04-07T08:09:48Z</time>
      </trkpt>
      <trkpt lat="48.8697" lon="-0.45738">
        <ele>149</ele>
        <time>2024-04-07T08:09:49Z</time>
      </trkpt>
      <trkpt lat="48.86974" lon="-0.45748">
        <ele>148.8</ele>
        <time>2024-04-07T08:09:50Z</time>
      </trkpt>
      <trkpt lat="48.86976" lon="-0.45756">
        <ele>148.6</ele>
        <time>2024-04-07T08:09:51Z</time>
      </trkpt>
      <trkpt lat="48.86978" lon="-0.45763">
        <ele>148.2</ele>
        <time>2024-04-07T08:09:52Z</time>
      </trkpt>
      <trkpt lat="48.86982" lon="-0.45778">
        <ele>147.8</ele>
        <time>2024-04-07T08:09:53Z</time>
      </trkpt>
      <trkpt lat="48.86983" lon="-0.45783">
        <ele>147.4</ele>
        <time>2024-04-07T08:09:54Z</time>
      </trkpt>
      <trkpt lat="48.86983" lon="-0.45788">
        <ele>147.2</ele>
        <time>2024-04-07T08:09:55Z</time>
      </trkpt>
      <trkpt lat="48.86986" lon="-0.45809">
        <ele>147.4</ele>
        <time>2024-04-07T08:09:56Z</time>
      </trkpt>
      <trkpt lat="48.86987" lon="-0.45819">
        <ele>147.4</ele>
        <time>2024-04-07T08:09:57Z</time>
      </trkpt>
      <trkpt lat="48.86988" lon="-0.45827">
        <ele>147.6</ele>
        <time>2024-04-07T08:09:58Z</time>
      </trkpt>
      <trkpt lat="48.86989" lon="-0.45834">
        <ele>148</ele>
        <time>2024-04-07T08:09:59Z</time>
      </trkpt>
      <trkpt lat="48.8699" lon="-0.45849">
        <ele>148.6</ele>
        <time>2024-04-07T08:10:00Z</time>
      </trkpt>
      <trkpt lat="48.8699" lon="-0.45849">
        <ele>149.2</ele>
        <time>2024-04-07T08:10:01Z</time>
      </trkpt>
      <trkpt lat="48.86991" lon="-0.4587">
        <ele>149.8</ele>
        <time>2024-04-07T08:10:02Z</time>
      </trkpt>
      <trkpt lat="48.86992" lon="-0.45881">
        <ele>150.2</ele>
        <time>2024-04-07T08:10:03Z</time>
      </trkpt>
      <trkpt lat="48.86993" lon="-0.45891">
        <ele>150.4</ele>
        <time>2024-04-07T08:10:04Z</time>
      </trkpt>
      <trkpt lat="48.86993" lon="-0.45901">
        <ele>150.4</ele>
        <time>2024-04-07T08:10:05Z</time>
      </trkpt>
      <trkpt lat="48.86994" lon="-0.45906">
        <ele>150.4</ele>
        <time>2024-04-07T08:10:06Z</time>
      </trkpt>
      <trkpt lat="48.86994" lon="-0.45911">
        <ele>150.4</ele>
        <time>2024-04-07T08:10:07Z</time>
      </trkpt>
      <trkpt lat="48.86996" lon="-0.45929">
        <ele>150</ele>
        <time>2024-04-07T08:10:08Z</time>
      </trkpt>
      <trkpt lat="48.86997" lon="-0.45936">
        <ele>149.6</ele>
        <time>2024-04-07T08:10:09Z</time>
      </trkpt>
      <trkpt lat="48.86998" lon="-0.45951">
        <ele>149.4</ele>
        <time>2024-04-07T08:10:10Z</time>
      </trkpt>
      <trkpt lat="48.86999" lon="-0.45961">
        <ele>149.4</ele>
        <time>2024-04-07T08:10:11Z</time>
      </trkpt>
      <trkpt lat="48.86999" lon="-0.45961">
        <ele>148.8</ele>
        <time>2024-04-07T08:10:12Z</time>
      </trkpt>
      <trkpt lat="48.87" lon="-0.45976">
        <ele>148.6</ele>
        <time>2024-04-07T08:10:13Z</time>
      </trkpt>
      <trkpt lat="48.87" lon="-0.45981">
        <ele>148.6</ele>
        <time>2024-04-07T08:10:14Z</time>
      </trkpt>
      <trkpt lat="48.87001" lon="-0.4599">
        <ele>148.8</ele>
        <time>2024-04-07T08:10:15Z</time>
      </trkpt>
      <trkpt lat="48.87001" lon="-0.46008">
        <ele>149</ele>
        <time>2024-04-07T08:10:16Z</time>
      </trkpt>
      <trkpt lat="48.87001" lon="-0.46013">
        <ele>149</ele>
        <time>2024-04-07T08:10:17Z</time>
      </trkpt>
      <trkpt lat="48.87002" lon="-0.46017">
        <ele>149.2</ele>
        <time>2024-04-07T08:10:18Z</time>
      </trkpt>
      <trkpt lat="48.87002" lon="-0.46026">
        <ele>149.4</ele>
        <time>2024-04-07T08:10:19Z</time>
      </trkpt>
      <trkpt lat="48.87003" lon="-0.46044">
        <ele>149.8</ele>
        <time>2024-04-07T08:10:20Z</time>
      </trkpt>
      <trkpt lat="48.87003" lon="-0.46053">
        <ele>150</ele>
        <time>2024-04-07T08:10:21Z</time>
      </trkpt>
      <trkpt lat="48.87004" lon="-0.46057">
        <ele>150.2</ele>
        <time>2024-04-07T08:10:22Z</time>
      </trkpt>
      <trkpt lat="48.87004" lon="-0.46061">
        <ele>150.6</ele>
        <time>2024-04-07T08:10:23Z</time>
      </trkpt>
      <trkpt lat="48.87003" lon="-0.46078">
        <ele>151.2</ele>
        <time>2024-04-07T08:10:24Z</time>
      </trkpt>
      <trkpt lat="48.87003" lon="-0.46087">
        <ele>151.8</ele>
        <time>2024-04-07T08:10:25Z</time>
      </trkpt>
      <trkpt lat="48.87003" lon="-0.46095">
        <ele>152.2</ele>
        <time>2024-04-07T08:10:26Z</time>
      </trkpt>
      <trkpt lat="48.87002" lon="-0.46104">
        <ele>152.8</ele>
        <time>2024-04-07T08:10:27Z</time>
      </trkpt>
      <trkpt lat="48.87002" lon="-0.46114">
        <ele>153</ele>
        <time>2024-04-07T08:10:28Z</time>
      </trkpt>
      <trkpt lat="48.87002" lon="-0.46118">
        <ele>153.2</ele>
        <time>2024-04-07T08:10:29Z</time>
      </trkpt>
      <trkpt lat="48.87002" lon="-0.46122">
        <ele>153.4</ele>
        <time>2024-04-07T08:10:30Z</time>
      </trkpt>
      <trkpt lat="48.87002" lon="-0.46136">
        <ele>153.6</ele>
        <time>2024-04-07T08:10:31Z</time>
      </trkpt>
      <trkpt lat="48.87002" lon="-0.4614">
        <ele>153.8</ele>
        <time>2024-04-07T08:10:32Z</time>
      </trkpt>
      <trkpt lat="48.87002" lon="-0.46149">
        <ele>153.8</ele>
        <time>2024-04-07T08:10:33Z</time>
      </trkpt>
      <trkpt lat="48.87001" lon="-0.46167">
        <ele>154</ele>
        <time>2024-04-07T08:10:34Z</time>
      </trkpt>
      <trkpt lat="48.87001" lon="-0.46176">
        <ele>154</ele>
        <time>2024-04-07T08:10:35Z</time>
      </trkpt>
      <trkpt lat="48.87001" lon="-0.46186">
        <ele>154.2</ele>
        <time>2024-04-07T08:10:36Z</time>
      </trkpt>
      <trkpt lat="48.87" lon="-0.46195">
        <ele>154.2</ele>
        <time>2024-04-07T08:10:37Z</time>
      </trkpt>
      <trkpt lat="48.87" lon="-0.46205">
        <ele>154.4</ele>
        <time>2024-04-07T08:10:38Z</time>
      </trkpt>
      <trkpt lat="48.86999" lon="-0.46214">
        <ele>154.4</ele>
        <time>2024-04-07T08:10:39Z</time>
      </trkpt>
      <trkpt lat="48.86999" lon="-0.46224">
        <ele>154.4</ele>
        <time>2024-04-07T08:10:40Z</time>
      </trkpt>
      <trkpt lat="48.86999" lon="-0.46228">
        <ele>154.6</ele>
        <time>2024-04-07T08:10:41Z</time>
      </trkpt>
      <trkpt lat="48.86998" lon="-0.46233">
        <ele>154.6</ele>
        <time>2024-04-07T08:10:42Z</time>
      </trkpt>
      <trkpt lat="48.86997" lon="-0.46252">
        <ele>154.8</ele>
        <time>2024-04-07T08:10:43Z</time>
      </trkpt>
      <trkpt lat="48.86996" lon="-0.46261">
        <ele>154.8</ele>
        <time>2024-04-07T08:10:44Z</time>
      </trkpt>
      <trkpt lat="48.86996" lon="-0.46269">
        <ele>154.8</ele>
        <time>2024-04-07T08:10:45Z</time>
      </trkpt>
      <trkpt lat="48.86996" lon="-0.46269">
        <ele>155</ele>
        <time>2024-04-07T08:10:46Z</time>
      </trkpt>
      <trkpt lat="48.86996" lon="-0.46282">
        <ele>155.2</ele>
        <time>2024-04-07T08:10:47Z</time>
      </trkpt>
      <trkpt lat="48.86996" lon="-0.46287">
        <ele>155.2</ele>
        <time>2024-04-07T08:10:48Z</time>
      </trkpt>
      <trkpt lat="48.86995" lon="-0.46305">
        <ele>155.4</ele>
        <time>2024-04-07T08:10:49Z</time>
      </trkpt>
      <trkpt lat="48.86995" lon="-0.46309">
        <ele>155.6</ele>
        <time>2024-04-07T08:10:50Z</time>
      </trkpt>
      <trkpt lat="48.86995" lon="-0.46314">
        <ele>155.6</ele>
        <time>2024-04-07T08:10:51Z</time>
      </trkpt>
      <trkpt lat="48.86997" lon="-0.46331">
        <ele>155.8</ele>
        <time>2024-04-07T08:10:52Z</time>
      </trkpt>
      <trkpt lat="48.86998" lon="-0.4634">
        <ele>155.8</ele>
        <time>2024-04-07T08:10:53Z</time>
      </trkpt>
      <trkpt lat="48.87" lon="-0.46349">
        <ele>155.8</ele>
        <time>2024-04-07T08:10:54Z</time>
      </trkpt>
      <trkpt lat="48.87" lon="-0.46353">
        <ele>155.8</ele>
        <time>2024-04-07T08:10:55Z</time>
      </trkpt>
      <trkpt lat="48.87001" lon="-0.46358">
        <ele>155.8</ele>
        <time>2024-04-07T08:10:56Z</time>
      </trkpt>
      <trkpt lat="48.87002" lon="-0.46366">
        <ele>156</ele>
        <time>2024-04-07T08:10:57Z</time>
      </trkpt>
      <trkpt lat="48.86999" lon="-0.46385">
        <ele>156</ele>
        <time>2024-04-07T08:10:58Z</time>
      </trkpt>
      <trkpt lat="48.86997" lon="-0.46395">
        <ele>156.2</ele>
        <time>2024-04-07T08:10:59Z</time>
      </trkpt>
      <trkpt lat="48.86995" lon="-0.46402">
        <ele>156.2</ele>
        <time>2024-04-07T08:11:00Z</time>
      </trkpt>
      <trkpt lat="48.86994" lon="-0.46406">
        <ele>156.4</ele>
        <time>2024-04-07T08:11:01Z</time>
      </trkpt>
      <trkpt lat="48.86993" lon="-0.4641">
        <ele>156.4</ele>
        <time>2024-04-07T08:11:02Z</time>
      </trkpt>
      <trkpt lat="48.86989" lon="-0.46424">
        <ele>156.4</ele>
        <time>2024-04-07T08:11:03Z</time>
      </trkpt>
      <trkpt lat="48.86987" lon="-0.46427">
        <ele>156.6</ele>
        <time>2024-04-07T08:11:04Z</time>
      </trkpt>
      <trkpt lat="48.86986" lon="-0.46431">
        <ele>156.8</ele>
        <time>2024-04-07T08:11:05Z</time>
      </trkpt>
      <trkpt lat="48.86984" lon="-0.46438">
        <ele>157</ele>
        <time>2024-04-07T08:11:06Z</time>
      </trkpt>
      <trkpt lat="48.86981" lon="-0.46445">
        <ele>157.4</ele>
        <time>2024-04-07T08:11:07Z</time>
      </trkpt>
      <trkpt lat="48.86976" lon="-0.46456">
        <ele>157.4</ele>
        <time>2024-04-07T08:11:08Z</time>
      </trkpt>
      <trkpt lat="48.86974" lon="-0.4646">
        <ele>157.6</ele>
        <time>2024-04-07T08:11:09Z</time>
      </trkpt>
      <trkpt lat="48.86971" lon="-0.46468">
        <ele>157.8</ele>
        <time>2024-04-07T08:11:10Z</time>
      </trkpt>
      <trkpt lat="48.86967" lon="-0.46476">
        <ele>157.8</ele>
        <time>2024-04-07T08:11:11Z</time>
      </trkpt>
      <trkpt lat="48.86962" lon="-0.46487">
        <ele>157.8</ele>
        <time>2024-04-07T08:11:12Z</time>
      </trkpt>
      <trkpt lat="48.8696" lon="-0.46491">
        <ele>157.8</ele>
        <time>2024-04-07T08:11:13Z</time>
      </trkpt>
      <trkpt lat="48.86951" lon="-0.46507">
        <ele>157.8</ele>
        <time>2024-04-07T08:11:14Z</time>
      </trkpt>
      <trkpt lat="48.86951" lon="-0.46507">
        <ele>157.8</ele>
        <time>2024-04-07T08:11:15Z</time>
      </trkpt>
      <trkpt lat="48.86946" lon="-0.4652">
        <ele>157.6</ele>
        <time>2024-04-07T08:11:16Z</time>
      </trkpt>
      <trkpt lat="48.86944" lon="-0.46524">
        <ele>157.2</ele>
        <time>2024-04-07T08:11:17Z</time>
      </trkpt>
      <trkpt lat="48.86936" lon="-0.46539">
        <ele>157</ele>
        <time>2024-04-07T08:11:18Z</time>
      </trkpt>
      <trkpt lat="48.86933" lon="-0.46546">
        <ele>156.8</ele>
        <time>2024-04-07T08:11:19Z</time>
      </trkpt>
      <trkpt lat="48.86925" lon="-0.4656">
        <ele>156.6</ele>
        <time>2024-04-07T08:11:20Z</time>
      </trkpt>
      <trkpt lat="48.8692" lon="-0.46569">
        <ele>156.4</ele>
        <time>2024-04-07T08:11:21Z</time>
      </trkpt>
      <trkpt lat="48.8692" lon="-0.46569">
        <ele>156.2</ele>
        <time>2024-04-07T08:11:22Z</time>
      </trkpt>
      <trkpt lat="48.86915" lon="-0.46578">
        <ele>156</ele>
        <time>2024-04-07T08:11:23Z</time>
      </trkpt>
      <trkpt lat="48.86906" lon="-0.46598">
        <ele>155.6</ele>
        <time>2024-04-07T08:11:24Z</time>
      </trkpt>
      <trkpt lat="48.869" lon="-0.46608">
        <ele>155</ele>
        <time>2024-04-07T08:11:25Z</time>
      </trkpt>
      <trkpt lat="48.86895" lon="-0.46618">
        <ele>154.4</ele>
        <time>2024-04-07T08:11:26Z</time>
      </trkpt>
      <trkpt lat="48.8689" lon="-0.46628">
        <ele>153.6</ele>
        <time>2024-04-07T08:11:27Z</time>
      </trkpt>
      <trkpt lat="48.86885" lon="-0.46638">
        <ele>153</ele>
        <time>2024-04-07T08:11:28Z</time>
      </trkpt>
      <trkpt lat="48.8688" lon="-0.46647">
        <ele>152.4</ele>
        <time>2024-04-07T08:11:29Z</time>
      </trkpt>
      <trkpt lat="48.86875" lon="-0.46658">
        <ele>152</ele>
        <time>2024-04-07T08:11:30Z</time>
      </trkpt>
      <trkpt lat="48.8687" lon="-0.46668">
        <ele>151.6</ele>
        <time>2024-04-07T08:11:31Z</time>
      </trkpt>
      <trkpt lat="48.86865" lon="-0.46679">
        <ele>151.2</ele>
        <time>2024-04-07T08:11:32Z</time>
      </trkpt>
      <trkpt lat="48.8686" lon="-0.46689">
        <ele>150.8</ele>
        <time>2024-04-07T08:11:33Z</time>
      </trkpt>
      <trkpt lat="48.86856" lon="-0.46697">
        <ele>150.2</ele>
        <time>2024-04-07T08:11:34Z</time>
      </trkpt>
      <trkpt lat="48.86852" lon="-0.46705">
        <ele>150</ele>
        <time>2024-04-07T08:11:35Z</time>
      </trkpt>
      <trkpt lat="48.86845" lon="-0.46721">
        <ele>149.8</ele>
        <time>2024-04-07T08:11:36Z</time>
      </trkpt>
      <trkpt lat="48.8684" lon="-0.4673">
        <ele>149.6</ele>
        <time>2024-04-07T08:11:37Z</time>
      </trkpt>
      <trkpt lat="48.86835" lon="-0.46739">
        <ele>149.4</ele>
        <time>2024-04-07T08:11:38Z</time>
      </trkpt>
      <trkpt lat="48.8683" lon="-0.46749">
        <ele>149.2</ele>
        <time>2024-04-07T08:11:39Z</time>
      </trkpt>
      <trkpt lat="48.86824" lon="-0.46758">
        <ele>148.8</ele>
        <time>2024-04-07T08:11:40Z</time>
      </trkpt>
      <trkpt lat="48.86819" lon="-0.46766">
        <ele>148.4</ele>
        <time>2024-04-07T08:11:41Z</time>
      </trkpt>
      <trkpt lat="48.86813" lon="-0.46774">
        <ele>148.2</ele>
        <time>2024-04-07T08:11:42Z</time>
      </trkpt>
      <trkpt lat="48.86806" lon="-0.4678">
        <ele>148</ele>
        <time>2024-04-07T08:11:43Z</time>
      </trkpt>
      <trkpt lat="48.868" lon="-0.46785">
        <ele>147.8</ele>
        <time>2024-04-07T08:11:44Z</time>
      </trkpt>
      <trkpt lat="48.86793" lon="-0.46789">
        <ele>147.8</ele>
        <time>2024-04-07T08:11:45Z</time>
      </trkpt>
      <trkpt lat="48.86786" lon="-0.46793">
        <ele>147.6</ele>
        <time>2024-04-07T08:11:46Z</time>
      </trkpt>
      <trkpt lat="48.8678" lon="-0.46796">
        <ele>147.6</ele>
        <time>2024-04-07T08:11:47Z</time>
      </trkpt>
      <trkpt lat="48.86774" lon="-0.46798">
        <ele>147.4</ele>
        <time>2024-04-07T08:11:48Z</time>
      </trkpt>
      <trkpt lat="48.86774" lon="-0.46798">
        <ele>147.6</ele>
        <time>2024-04-07T08:11:49Z</time>
      </trkpt>
      <trkpt lat="48.86762" lon="-0.46803">
        <ele>147.8</ele>
        <time>2024-04-07T08:11:50Z</time>
      </trkpt>
      <trkpt lat="48.86756" lon="-0.46806">
        <ele>148.4</ele>
        <time>2024-04-07T08:11:51Z</time>
      </trkpt>
      <trkpt lat="48.8675" lon="-0.46809">
        <ele>148.6</ele>
        <time>2024-04-07T08:11:52Z</time>
      </trkpt>
      <trkpt lat="48.86743" lon="-0.46812">
        <ele>149</ele>
        <time>2024-04-07T08:11:53Z</time>
      </trkpt>
      <trkpt lat="48.86741" lon="-0.46813">
        <ele>149.2</ele>
        <time>2024-04-07T08:11:54Z</time>
      </trkpt>
      <trkpt lat="48.86738" lon="-0.46814">
        <ele>149.4</ele>
        <time>2024-04-07T08:11:55Z</time>
      </trkpt>
      <trkpt lat="48.86732" lon="-0.46817">
        <ele>149.6</ele>
        <time>2024-04-07T08:11:56Z</time>
      </trkpt>
      <trkpt lat="48.86721" lon="-0.46821">
        <ele>149.8</ele>
        <time>2024-04-07T08:11:57Z</time>
      </trkpt>
      <trkpt lat="48.86717" lon="-0.46824">
        <ele>149.8</ele>
        <time>2024-04-07T08:11:58Z</time>
      </trkpt>
      <trkpt lat="48.86708" lon="-0.46828">
        <ele>149.8</ele>
        <time>2024-04-07T08:11:59Z</time>
      </trkpt>
      <trkpt lat="48.86702" lon="-0.46831">
        <ele>150</ele>
        <time>2024-04-07T08:12:00Z</time>
      </trkpt>
      <trkpt lat="48.86697" lon="-0.46834">
        <ele>150</ele>
        <time>2024-04-07T08:12:01Z</time>
      </trkpt>
      <trkpt lat="48.86691" lon="-0.46838">
        <ele>150.2</ele>
        <time>2024-04-07T08:12:02Z</time>
      </trkpt>
      <trkpt lat="48.86685" lon="-0.46842">
        <ele>150.2</ele>
        <time>2024-04-07T08:12:03Z</time>
      </trkpt>
      <trkpt lat="48.8668" lon="-0.46846">
        <ele>150.2</ele>
        <time>2024-04-07T08:12:04Z</time>
      </trkpt>
      <trkpt lat="48.86674" lon="-0.46851">
        <ele>150.2</ele>
        <time>2024-04-07T08:12:05Z</time>
      </trkpt>
      <trkpt lat="48.86669" lon="-0.46856">
        <ele>150.4</ele>
        <time>2024-04-07T08:12:06Z</time>
      </trkpt>
      <trkpt lat="48.86666" lon="-0.46859">
        <ele>150.2</ele>
        <time>2024-04-07T08:12:07Z</time>
      </trkpt>
      <trkpt lat="48.86663" lon="-0.46863">
        <ele>150.2</ele>
        <time>2024-04-07T08:12:08Z</time>
      </trkpt>
      <trkpt lat="48.86655" lon="-0.46873">
        <ele>150.2</ele>
        <time>2024-04-07T08:12:09Z</time>
      </trkpt>
      <trkpt lat="48.86652" lon="-0.46875">
        <ele>150.2</ele>
        <time>2024-04-07T08:12:10Z</time>
      </trkpt>
      <trkpt lat="48.86647" lon="-0.4688">
        <ele>150.2</ele>
        <time>2024-04-07T08:12:11Z</time>
      </trkpt>
      <trkpt lat="48.86634" lon="-0.46884">
        <ele>150.2</ele>
        <time>2024-04-07T08:12:12Z</time>
      </trkpt>
      <trkpt lat="48.86627" lon="-0.46884">
        <ele>150.2</ele>
        <time>2024-04-07T08:12:13Z</time>
      </trkpt>
      <trkpt lat="48.86621" lon="-0.46884">
        <ele>150.4</ele>
        <time>2024-04-07T08:12:14Z</time>
      </trkpt>
      <trkpt lat="48.86614" lon="-0.46884">
        <ele>150.8</ele>
        <time>2024-04-07T08:12:15Z</time>
      </trkpt>
      <trkpt lat="48.86608" lon="-0.46885">
        <ele>151.6</ele>
        <time>2024-04-07T08:12:16Z</time>
      </trkpt>
      <trkpt lat="48.86602" lon="-0.46886">
        <ele>152</ele>
        <time>2024-04-07T08:12:17Z</time>
      </trkpt>
      <trkpt lat="48.86596" lon="-0.46888">
        <ele>152.4</ele>
        <time>2024-04-07T08:12:18Z</time>
      </trkpt>
      <trkpt lat="48.8659" lon="-0.46889">
        <ele>152.8</ele>
        <time>2024-04-07T08:12:19Z</time>
      </trkpt>
      <trkpt lat="48.86584" lon="-0.46891">
        <ele>153</ele>
        <time>2024-04-07T08:12:20Z</time>
      </trkpt>
      <trkpt lat="48.86578" lon="-0.46893">
        <ele>153.2</ele>
        <time>2024-04-07T08:12:21Z</time>
      </trkpt>
      <trkpt lat="48.86573" lon="-0.46895">
        <ele>153.4</ele>
        <time>2024-04-07T08:12:22Z</time>
      </trkpt>
      <trkpt lat="48.86567" lon="-0.46898">
        <ele>153.6</ele>
        <time>2024-04-07T08:12:23Z</time>
      </trkpt>
      <trkpt lat="48.86561" lon="-0.469">
        <ele>153.8</ele>
        <time>2024-04-07T08:12:24Z</time>
      </trkpt>
      <trkpt lat="48.86555" lon="-0.46902">
        <ele>154</ele>
        <time>2024-04-07T08:12:25Z</time>
      </trkpt>
      <trkpt lat="48.8655" lon="-0.46904">
        <ele>154</ele>
        <time>2024-04-07T08:12:26Z</time>
      </trkpt>
      <trkpt lat="48.86546" lon="-0.46905">
        <ele>154.2</ele>
        <time>2024-04-07T08:12:27Z</time>
      </trkpt>
      <trkpt lat="48.86537" lon="-0.46909">
        <ele>154.6</ele>
        <time>2024-04-07T08:12:28Z</time>
      </trkpt>
      <trkpt lat="48.86534" lon="-0.4691">
        <ele>154.8</ele>
        <time>2024-04-07T08:12:29Z</time>
      </trkpt>
      <trkpt lat="48.86531" lon="-0.46911">
        <ele>155</ele>
        <time>2024-04-07T08:12:30Z</time>
      </trkpt>
      <trkpt lat="48.86519" lon="-0.46914">
        <ele>155.2</ele>
        <time>2024-04-07T08:12:31Z</time>
      </trkpt>
      <trkpt lat="48.86515" lon="-0.46915">
        <ele>155.2</ele>
        <time>2024-04-07T08:12:32Z</time>
      </trkpt>
      <trkpt lat="48.86512" lon="-0.46917">
        <ele>155.2</ele>
        <time>2024-04-07T08:12:33Z</time>
      </trkpt>
      <trkpt lat="48.86504" lon="-0.4692">
        <ele>155.2</ele>
        <time>2024-04-07T08:12:34Z</time>
      </trkpt>
      <trkpt lat="48.86501" lon="-0.46921">
        <ele>155</ele>
        <time>2024-04-07T08:12:35Z</time>
      </trkpt>
      <trkpt lat="48.86498" lon="-0.46922">
        <ele>155</ele>
        <time>2024-04-07T08:12:36Z</time>
      </trkpt>
      <trkpt lat="48.86493" lon="-0.46924">
        <ele>155</ele>
        <time>2024-04-07T08:12:37Z</time>
      </trkpt>
      <trkpt lat="48.86482" lon="-0.46926">
        <ele>155</ele>
        <time>2024-04-07T08:12:38Z</time>
      </trkpt>
      <trkpt lat="48.8648" lon="-0.46927">
        <ele>155</ele>
        <time>2024-04-07T08:12:39Z</time>
      </trkpt>
      <trkpt lat="48.86477" lon="-0.46928">
        <ele>155</ele>
        <time>2024-04-07T08:12:40Z</time>
      </trkpt>
      <trkpt lat="48.86467" lon="-0.46932">
        <ele>154.8</ele>
        <time>2024-04-07T08:12:41Z</time>
      </trkpt>
      <trkpt lat="48.86465" lon="-0.46933">
        <ele>154.8</ele>
        <time>2024-04-07T08:12:42Z</time>
      </trkpt>
      <trkpt lat="48.86462" lon="-0.46934">
        <ele>154.8</ele>
        <time>2024-04-07T08:12:43Z</time>
      </trkpt>
      <trkpt lat="48.86453" lon="-0.46937">
        <ele>155</ele>
        <time>2024-04-07T08:12:44Z</time>
      </trkpt>
      <trkpt lat="48.86449" lon="-0.46939">
        <ele>155.2</ele>
        <time>2024-04-07T08:12:45Z</time>
      </trkpt>
      <trkpt lat="48.86442" lon="-0.46943">
        <ele>155.6</ele>
        <time>2024-04-07T08:12:46Z</time>
      </trkpt>
      <trkpt lat="48.86438" lon="-0.46944">
        <ele>156.4</ele>
        <time>2024-04-07T08:12:47Z</time>
      </trkpt>
      <trkpt lat="48.86434" lon="-0.46946">
        <ele>156.8</ele>
        <time>2024-04-07T08:12:48Z</time>
      </trkpt>
      <trkpt lat="48.86426" lon="-0.46949">
        <ele>157.2</ele>
        <time>2024-04-07T08:12:49Z</time>
      </trkpt>
      <trkpt lat="48.86424" lon="-0.4695">
        <ele>157.6</ele>
        <time>2024-04-07T08:12:50Z</time>
      </trkpt>
      <trkpt lat="48.86421" lon="-0.4695">
        <ele>157.8</ele>
        <time>2024-04-07T08:12:51Z</time>
      </trkpt>
      <trkpt lat="48.86411" lon="-0.46954">
        <ele>158</ele>
        <time>2024-04-07T08:12:52Z</time>
      </trkpt>
      <trkpt lat="48.86405" lon="-0.46956">
        <ele>158.2</ele>
        <time>2024-04-07T08:12:53Z</time>
      </trkpt>
      <trkpt lat="48.864" lon="-0.46958">
        <ele>158.4</ele>
        <time>2024-04-07T08:12:54Z</time>
      </trkpt>
      <trkpt lat="48.86395" lon="-0.4696">
        <ele>159</ele>
        <time>2024-04-07T08:12:55Z</time>
      </trkpt>
      <trkpt lat="48.86389" lon="-0.46962">
        <ele>159.4</ele>
        <time>2024-04-07T08:12:56Z</time>
      </trkpt>
      <trkpt lat="48.86384" lon="-0.46964">
        <ele>159.8</ele>
        <time>2024-04-07T08:12:57Z</time>
      </trkpt>
      <trkpt lat="48.86381" lon="-0.46965">
        <ele>160.2</ele>
        <time>2024-04-07T08:12:58Z</time>
      </trkpt>
      <trkpt lat="48.86379" lon="-0.46966">
        <ele>160.4</ele>
        <time>2024-04-07T08:12:59Z</time>
      </trkpt>
      <trkpt lat="48.86368" lon="-0.46969">
        <ele>160.6</ele>
        <time>2024-04-07T08:13:00Z</time>
      </trkpt>
      <trkpt lat="48.86363" lon="-0.46971">
        <ele>160.8</ele>
        <time>2024-04-07T08:13:01Z</time>
      </trkpt>
      <trkpt lat="48.86359" lon="-0.46972">
        <ele>161</ele>
        <time>2024-04-07T08:13:02Z</time>
      </trkpt>
      <trkpt lat="48.86355" lon="-0.46974">
        <ele>161</ele>
        <time>2024-04-07T08:13:03Z</time>
      </trkpt>
      <trkpt lat="48.86347" lon="-0.46976">
        <ele>160.8</ele>
        <time>2024-04-07T08:13:04Z</time>
      </trkpt>
      <trkpt lat="48.86342" lon="-0.46978">
        <ele>160.6</ele>
        <time>2024-04-07T08:13:05Z</time>
      </trkpt>
      <trkpt lat="48.86336" lon="-0.4698">
        <ele>160.4</ele>
        <time>2024-04-07T08:13:06Z</time>
      </trkpt>
      <trkpt lat="48.86331" lon="-0.46982">
        <ele>160.2</ele>
        <time>2024-04-07T08:13:07Z</time>
      </trkpt>
      <trkpt lat="48.86326" lon="-0.46984">
        <ele>160.2</ele>
        <time>2024-04-07T08:13:08Z</time>
      </trkpt>
      <trkpt lat="48.8632" lon="-0.46986">
        <ele>160.4</ele>
        <time>2024-04-07T08:13:09Z</time>
      </trkpt>
      <trkpt lat="48.86315" lon="-0.46988">
        <ele>161.2</ele>
        <time>2024-04-07T08:13:10Z</time>
      </trkpt>
      <trkpt lat="48.86309" lon="-0.46989">
        <ele>162.2</ele>
        <time>2024-04-07T08:13:11Z</time>
      </trkpt>
      <trkpt lat="48.86304" lon="-0.46991">
        <ele>162.6</ele>
        <time>2024-04-07T08:13:12Z</time>
      </trkpt>
      <trkpt lat="48.863" lon="-0.46993">
        <ele>163</ele>
        <time>2024-04-07T08:13:13Z</time>
      </trkpt>
      <trkpt lat="48.86295" lon="-0.46994">
        <ele>163.4</ele>
        <time>2024-04-07T08:13:14Z</time>
      </trkpt>
      <trkpt lat="48.86287" lon="-0.46997">
        <ele>163.6</ele>
        <time>2024-04-07T08:13:15Z</time>
      </trkpt>
      <trkpt lat="48.86282" lon="-0.47">
        <ele>163.8</ele>
        <time>2024-04-07T08:13:16Z</time>
      </trkpt>
      <trkpt lat="48.86276" lon="-0.47002">
        <ele>163.8</ele>
        <time>2024-04-07T08:13:17Z</time>
      </trkpt>
      <trkpt lat="48.8627" lon="-0.47004">
        <ele>164</ele>
        <time>2024-04-07T08:13:18Z</time>
      </trkpt>
      <trkpt lat="48.86268" lon="-0.47005">
        <ele>164</ele>
        <time>2024-04-07T08:13:19Z</time>
      </trkpt>
      <trkpt lat="48.86265" lon="-0.47006">
        <ele>164</ele>
        <time>2024-04-07T08:13:20Z</time>
      </trkpt>
      <trkpt lat="48.86253" lon="-0.47009">
        <ele>164</ele>
        <time>2024-04-07T08:13:21Z</time>
      </trkpt>
      <trkpt lat="48.86247" lon="-0.47011">
        <ele>163.8</ele>
        <time>2024-04-07T08:13:22Z</time>
      </trkpt>
      <trkpt lat="48.86242" lon="-0.47013">
        <ele>163.4</ele>
        <time>2024-04-07T08:13:23Z</time>
      </trkpt>
      <trkpt lat="48.86239" lon="-0.47014">
        <ele>163.2</ele>
        <time>2024-04-07T08:13:24Z</time>
      </trkpt>
      <trkpt lat="48.86236" lon="-0.47016">
        <ele>163</ele>
        <time>2024-04-07T08:13:25Z</time>
      </trkpt>
      <trkpt lat="48.86224" lon="-0.4702">
        <ele>162.8</ele>
        <time>2024-04-07T08:13:26Z</time>
      </trkpt>
      <trkpt lat="48.86219" lon="-0.47023">
        <ele>162.8</ele>
        <time>2024-04-07T08:13:27Z</time>
      </trkpt>
      <trkpt lat="48.86213" lon="-0.47025">
        <ele>162.8</ele>
        <time>2024-04-07T08:13:28Z</time>
      </trkpt>
      <trkpt lat="48.86207" lon="-0.47028">
        <ele>162.8</ele>
        <time>2024-04-07T08:13:29Z</time>
      </trkpt>
      <trkpt lat="48.86201" lon="-0.47031">
        <ele>163</ele>
        <time>2024-04-07T08:13:30Z</time>
      </trkpt>
      <trkpt lat="48.86196" lon="-0.47033">
        <ele>163</ele>
        <time>2024-04-07T08:13:31Z</time>
      </trkpt>
      <trkpt lat="48.86192" lon="-0.47035">
        <ele>162.8</ele>
        <time>2024-04-07T08:13:32Z</time>
      </trkpt>
      <trkpt lat="48.86183" lon="-0.4704">
        <ele>162.8</ele>
        <time>2024-04-07T08:13:33Z</time>
      </trkpt>
      <trkpt lat="48.86177" lon="-0.47044">
        <ele>162.6</ele>
        <time>2024-04-07T08:13:34Z</time>
      </trkpt>
      <trkpt lat="48.86174" lon="-0.47046">
        <ele>162.6</ele>
        <time>2024-04-07T08:13:35Z</time>
      </trkpt>
      <trkpt lat="48.86171" lon="-0.47048">
        <ele>162.6</ele>
        <time>2024-04-07T08:13:36Z</time>
      </trkpt>
      <trkpt lat="48.86161" lon="-0.47056">
        <ele>162.6</ele>
        <time>2024-04-07T08:13:37Z</time>
      </trkpt>
      <trkpt lat="48.86157" lon="-0.47059">
        <ele>162.6</ele>
        <time>2024-04-07T08:13:38Z</time>
      </trkpt>
      <trkpt lat="48.86148" lon="-0.47066">
        <ele>162.6</ele>
        <time>2024-04-07T08:13:39Z</time>
      </trkpt>
      <trkpt lat="48.86142" lon="-0.47071">
        <ele>162.6</ele>
        <time>2024-04-07T08:13:40Z</time>
      </trkpt>
      <trkpt lat="48.86137" lon="-0.47076">
        <ele>162.6</ele>
        <time>2024-04-07T08:13:41Z</time>
      </trkpt>
      <trkpt lat="48.86131" lon="-0.47081">
        <ele>162.8</ele>
        <time>2024-04-07T08:13:42Z</time>
      </trkpt>
      <trkpt lat="48.86126" lon="-0.47087">
        <ele>162.8</ele>
        <time>2024-04-07T08:13:43Z</time>
      </trkpt>
      <trkpt lat="48.86121" lon="-0.47093">
        <ele>163</ele>
        <time>2024-04-07T08:13:44Z</time>
      </trkpt>
      <trkpt lat="48.86121" lon="-0.47093">
        <ele>163.4</ele>
        <time>2024-04-07T08:13:45Z</time>
      </trkpt>
      <trkpt lat="48.86112" lon="-0.47103">
        <ele>163.6</ele>
        <time>2024-04-07T08:13:46Z</time>
      </trkpt>
      <trkpt lat="48.86108" lon="-0.47107">
        <ele>163.8</ele>
        <time>2024-04-07T08:13:47Z</time>
      </trkpt>
      <trkpt lat="48.861" lon="-0.47116">
        <ele>163.8</ele>
        <time>2024-04-07T08:13:48Z</time>
      </trkpt>
      <trkpt lat="48.86098" lon="-0.47118">
        <ele>164</ele>
        <time>2024-04-07T08:13:49Z</time>
      </trkpt>
      <trkpt lat="48.86095" lon="-0.47121">
        <ele>164.2</ele>
        <time>2024-04-07T08:13:50Z</time>
      </trkpt>
      <trkpt lat="48.86086" lon="-0.47131">
        <ele>164.4</ele>
        <time>2024-04-07T08:13:51Z</time>
      </trkpt>
      <trkpt lat="48.86082" lon="-0.47135">
        <ele>164.4</ele>
        <time>2024-04-07T08:13:52Z</time>
      </trkpt>
      <trkpt lat="48.86075" lon="-0.47143">
        <ele>164.4</ele>
        <time>2024-04-07T08:13:53Z</time>
      </trkpt>
      <trkpt lat="48.86069" lon="-0.4715">
        <ele>164.4</ele>
        <time>2024-04-07T08:13:54Z</time>
      </trkpt>
      <trkpt lat="48.86064" lon="-0.47156">
        <ele>164.2</ele>
        <time>2024-04-07T08:13:55Z</time>
      </trkpt>
      <trkpt lat="48.86059" lon="-0.47163">
        <ele>164</ele>
        <time>2024-04-07T08:13:56Z</time>
      </trkpt>
      <trkpt lat="48.86055" lon="-0.47168">
        <ele>164</ele>
        <time>2024-04-07T08:13:57Z</time>
      </trkpt>
      <trkpt lat="48.86051" lon="-0.47173">
        <ele>163.8</ele>
        <time>2024-04-07T08:13:58Z</time>
      </trkpt>
      <trkpt lat="48.86043" lon="-0.47182">
        <ele>163.8</ele>
        <time>2024-04-07T08:13:59Z</time>
      </trkpt>
      <trkpt lat="48.8604" lon="-0.47187">
        <ele>163.8</ele>
        <time>2024-04-07T08:14:00Z</time>
      </trkpt>
      <trkpt lat="48.86036" lon="-0.47192">
        <ele>163.8</ele>
        <time>2024-04-07T08:14:01Z</time>
      </trkpt>
      <trkpt lat="48.86028" lon="-0.47202">
        <ele>164</ele>
        <time>2024-04-07T08:14:02Z</time>
      </trkpt>
      <trkpt lat="48.86023" lon="-0.47208">
        <ele>164.2</ele>
        <time>2024-04-07T08:14:03Z</time>
      </trkpt>
      <trkpt lat="48.86019" lon="-0.47213">
        <ele>164.2</ele>
        <time>2024-04-07T08:14:04Z</time>
      </trkpt>
      <trkpt lat="48.86015" lon="-0.47218">
        <ele>164.2</ele>
        <time>2024-04-07T08:14:05Z</time>
      </trkpt>
      <trkpt lat="48.86006" lon="-0.47228">
        <ele>164.4</ele>
        <time>2024-04-07T08:14:06Z</time>
      </trkpt>
      <trkpt lat="48.86004" lon="-0.47232">
        <ele>164.4</ele>
        <time>2024-04-07T08:14:07Z</time>
      </trkpt>
      <trkpt lat="48.86001" lon="-0.47235">
        <ele>164.2</ele>
        <time>2024-04-07T08:14:08Z</time>
      </trkpt>
      <trkpt lat="48.85995" lon="-0.47242">
        <ele>164.4</ele>
        <time>2024-04-07T08:14:09Z</time>
      </trkpt>
      <trkpt lat="48.85985" lon="-0.47255">
        <ele>164.4</ele>
        <time>2024-04-07T08:14:10Z</time>
      </trkpt>
      <trkpt lat="48.85982" lon="-0.47259">
        <ele>164.4</ele>
        <time>2024-04-07T08:14:11Z</time>
      </trkpt>
      <trkpt lat="48.8598" lon="-0.47262">
        <ele>164.4</ele>
        <time>2024-04-07T08:14:12Z</time>
      </trkpt>
      <trkpt lat="48.8597" lon="-0.47275">
        <ele>164.6</ele>
        <time>2024-04-07T08:14:13Z</time>
      </trkpt>
      <trkpt lat="48.85964" lon="-0.47282">
        <ele>164.6</ele>
        <time>2024-04-07T08:14:14Z</time>
      </trkpt>
      <trkpt lat="48.85961" lon="-0.47287">
        <ele>164.6</ele>
        <time>2024-04-07T08:14:15Z</time>
      </trkpt>
      <trkpt lat="48.85957" lon="-0.47292">
        <ele>164.8</ele>
        <time>2024-04-07T08:14:16Z</time>
      </trkpt>
      <trkpt lat="48.8595" lon="-0.47302">
        <ele>164.8</ele>
        <time>2024-04-07T08:14:17Z</time>
      </trkpt>
      <trkpt lat="48.85945" lon="-0.4731">
        <ele>164.8</ele>
        <time>2024-04-07T08:14:18Z</time>
      </trkpt>
      <trkpt lat="48.8594" lon="-0.47317">
        <ele>164.8</ele>
        <time>2024-04-07T08:14:19Z</time>
      </trkpt>
      <trkpt lat="48.85937" lon="-0.47323">
        <ele>164.8</ele>
        <time>2024-04-07T08:14:20Z</time>
      </trkpt>
      <trkpt lat="48.85933" lon="-0.47329">
        <ele>164.6</ele>
        <time>2024-04-07T08:14:21Z</time>
      </trkpt>
      <trkpt lat="48.85926" lon="-0.4734">
        <ele>164.4</ele>
        <time>2024-04-07T08:14:22Z</time>
      </trkpt>
      <trkpt lat="48.85922" lon="-0.47348">
        <ele>164.4</ele>
        <time>2024-04-07T08:14:23Z</time>
      </trkpt>
      <trkpt lat="48.85918" lon="-0.47356">
        <ele>164.2</ele>
        <time>2024-04-07T08:14:24Z</time>
      </trkpt>
      <trkpt lat="48.85914" lon="-0.47364">
        <ele>164</ele>
        <time>2024-04-07T08:14:25Z</time>
      </trkpt>
      <trkpt lat="48.8591" lon="-0.47373">
        <ele>164</ele>
        <time>2024-04-07T08:14:26Z</time>
      </trkpt>
      <trkpt lat="48.85906" lon="-0.47382">
        <ele>164</ele>
        <time>2024-04-07T08:14:27Z</time>
      </trkpt>
      <trkpt lat="48.85902" lon="-0.47391">
        <ele>164</ele>
        <time>2024-04-07T08:14:28Z</time>
      </trkpt>
      <trkpt lat="48.85899" lon="-0.47401">
        <ele>164.2</ele>
        <time>2024-04-07T08:14:29Z</time>
      </trkpt>
      <trkpt lat="48.85896" lon="-0.47411">
        <ele>164.4</ele>
        <time>2024-04-07T08:14:30Z</time>
      </trkpt>
      <trkpt lat="48.85893" lon="-0.47421">
        <ele>164.6</ele>
        <time>2024-04-07T08:14:31Z</time>
      </trkpt>
      <trkpt lat="48.8589" lon="-0.47429">
        <ele>164.8</ele>
        <time>2024-04-07T08:14:32Z</time>
      </trkpt>
      <trkpt lat="48.85887" lon="-0.47439">
        <ele>164.8</ele>
        <time>2024-04-07T08:14:33Z</time>
      </trkpt>
      <trkpt lat="48.85885" lon="-0.47448">
        <ele>165</ele>
        <time>2024-04-07T08:14:34Z</time>
      </trkpt>
      <trkpt lat="48.85882" lon="-0.47458">
        <ele>165</ele>
        <time>2024-04-07T08:14:35Z</time>
      </trkpt>
      <trkpt lat="48.8588" lon="-0.47469">
        <ele>165</ele>
        <time>2024-04-07T08:14:36Z</time>
      </trkpt>
      <trkpt lat="48.85877" lon="-0.4748">
        <ele>165</ele>
        <time>2024-04-07T08:14:37Z</time>
      </trkpt>
      <trkpt lat="48.85876" lon="-0.4749">
        <ele>165</ele>
        <time>2024-04-07T08:14:38Z</time>
      </trkpt>
      <trkpt lat="48.85874" lon="-0.47501">
        <ele>165</ele>
        <time>2024-04-07T08:14:39Z</time>
      </trkpt>
      <trkpt lat="48.85872" lon="-0.47512">
        <ele>165</ele>
        <time>2024-04-07T08:14:40Z</time>
      </trkpt>
      <trkpt lat="48.85872" lon="-0.47512">
        <ele>165</ele>
        <time>2024-04-07T08:14:41Z</time>
      </trkpt>
      <trkpt lat="48.85869" lon="-0.47534">
        <ele>164.8</ele>
        <time>2024-04-07T08:14:42Z</time>
      </trkpt>
      <trkpt lat="48.85868" lon="-0.47544">
        <ele>164.8</ele>
        <time>2024-04-07T08:14:43Z</time>
      </trkpt>
      <trkpt lat="48.85868" lon="-0.47555">
        <ele>164.8</ele>
        <time>2024-04-07T08:14:44Z</time>
      </trkpt>
      <trkpt lat="48.85866" lon="-0.47565">
        <ele>164.6</ele>
        <time>2024-04-07T08:14:45Z</time>
      </trkpt>
      <trkpt lat="48.85865" lon="-0.47576">
        <ele>164.6</ele>
        <time>2024-04-07T08:14:46Z</time>
      </trkpt>
      <trkpt lat="48.85863" lon="-0.47587">
        <ele>164.4</ele>
        <time>2024-04-07T08:14:47Z</time>
      </trkpt>
      <trkpt lat="48.85861" lon="-0.47598">
        <ele>164.4</ele>
        <time>2024-04-07T08:14:48Z</time>
      </trkpt>
      <trkpt lat="48.85859" lon="-0.47608">
        <ele>164.2</ele>
        <time>2024-04-07T08:14:49Z</time>
      </trkpt>
      <trkpt lat="48.85857" lon="-0.47619">
        <ele>164</ele>
        <time>2024-04-07T08:14:50Z</time>
      </trkpt>
      <trkpt lat="48.85856" lon="-0.4763">
        <ele>163.8</ele>
        <time>2024-04-07T08:14:51Z</time>
      </trkpt>
      <trkpt lat="48.85854" lon="-0.47641">
        <ele>163.6</ele>
        <time>2024-04-07T08:14:52Z</time>
      </trkpt>
      <trkpt lat="48.85853" lon="-0.4765">
        <ele>163.6</ele>
        <time>2024-04-07T08:14:53Z</time>
      </trkpt>
      <trkpt lat="48.85853" lon="-0.47659">
        <ele>163.4</ele>
        <time>2024-04-07T08:14:54Z</time>
      </trkpt>
      <trkpt lat="48.85851" lon="-0.47677">
        <ele>162.8</ele>
        <time>2024-04-07T08:14:55Z</time>
      </trkpt>
      <trkpt lat="48.8585" lon="-0.47689">
        <ele>162</ele>
        <time>2024-04-07T08:14:56Z</time>
      </trkpt>
      <trkpt lat="48.85849" lon="-0.47702">
        <ele>161.4</ele>
        <time>2024-04-07T08:14:57Z</time>
      </trkpt>
      <trkpt lat="48.85848" lon="-0.47716">
        <ele>161</ele>
        <time>2024-04-07T08:14:58Z</time>
      </trkpt>
      <trkpt lat="48.85848" lon="-0.47729">
        <ele>160.6</ele>
        <time>2024-04-07T08:14:59Z</time>
      </trkpt>
      <trkpt lat="48.85849" lon="-0.47743">
        <ele>160.4</ele>
        <time>2024-04-07T08:15:00Z</time>
      </trkpt>
      <trkpt lat="48.8585" lon="-0.47755">
        <ele>160.2</ele>
        <time>2024-04-07T08:15:01Z</time>
      </trkpt>
      <trkpt lat="48.8585" lon="-0.47767">
        <ele>160</ele>
        <time>2024-04-07T08:15:02Z</time>
      </trkpt>
      <trkpt lat="48.85849" lon="-0.47779">
        <ele>160</ele>
        <time>2024-04-07T08:15:03Z</time>
      </trkpt>
      <trkpt lat="48.8585" lon="-0.47792">
        <ele>159.8</ele>
        <time>2024-04-07T08:15:04Z</time>
      </trkpt>
      <trkpt lat="48.85851" lon="-0.47805">
        <ele>159.8</ele>
        <time>2024-04-07T08:15:05Z</time>
      </trkpt>
      <trkpt lat="48.85851" lon="-0.47817">
        <ele>159.8</ele>
        <time>2024-04-07T08:15:06Z</time>
      </trkpt>
      <trkpt lat="48.85853" lon="-0.4783">
        <ele>159.4</ele>
        <time>2024-04-07T08:15:07Z</time>
      </trkpt>
      <trkpt lat="48.85854" lon="-0.47842">
        <ele>159.2</ele>
        <time>2024-04-07T08:15:08Z</time>
      </trkpt>
      <trkpt lat="48.85855" lon="-0.47854">
        <ele>158.8</ele>
        <time>2024-04-07T08:15:09Z</time>
      </trkpt>
      <trkpt lat="48.85857" lon="-0.47867">
        <ele>158.4</ele>
        <time>2024-04-07T08:15:10Z</time>
      </trkpt>
      <trkpt lat="48.85859" lon="-0.4788">
        <ele>158.2</ele>
        <time>2024-04-07T08:15:11Z</time>
      </trkpt>
      <trkpt lat="48.85859" lon="-0.47893">
        <ele>158</ele>
        <time>2024-04-07T08:15:12Z</time>
      </trkpt>
      <trkpt lat="48.85861" lon="-0.47907">
        <ele>157.8</ele>
        <time>2024-04-07T08:15:13Z</time>
      </trkpt>
      <trkpt lat="48.85862" lon="-0.4792">
        <ele>157.8</ele>
        <time>2024-04-07T08:15:14Z</time>
      </trkpt>
      <trkpt lat="48.85864" lon="-0.47934">
        <ele>157.8</ele>
        <time>2024-04-07T08:15:15Z</time>
      </trkpt>
      <trkpt lat="48.85866" lon="-0.47946">
        <ele>157.8</ele>
        <time>2024-04-07T08:15:16Z</time>
      </trkpt>
      <trkpt lat="48.85868" lon="-0.47958">
        <ele>157.8</ele>
        <time>2024-04-07T08:15:17Z</time>
      </trkpt>
      <trkpt lat="48.8587" lon="-0.4797">
        <ele>157.8</ele>
        <time>2024-04-07T08:15:18Z</time>
      </trkpt>
      <trkpt lat="48.85872" lon="-0.47982">
        <ele>157.8</ele>
        <time>2024-04-07T08:15:19Z</time>
      </trkpt>
      <trkpt lat="48.85874" lon="-0.47994">
        <ele>157.8</ele>
        <time>2024-04-07T08:15:20Z</time>
      </trkpt>
      <trkpt lat="48.85876" lon="-0.48005">
        <ele>157.8</ele>
        <time>2024-04-07T08:15:21Z</time>
      </trkpt>
      <trkpt lat="48.85878" lon="-0.48017">
        <ele>158</ele>
        <time>2024-04-07T08:15:22Z</time>
      </trkpt>
      <trkpt lat="48.8588" lon="-0.48029">
        <ele>158</ele>
        <time>2024-04-07T08:15:23Z</time>
      </trkpt>
      <trkpt lat="48.85883" lon="-0.48041">
        <ele>157.8</ele>
        <time>2024-04-07T08:15:24Z</time>
      </trkpt>
      <trkpt lat="48.85885" lon="-0.48053">
        <ele>157.6</ele>
        <time>2024-04-07T08:15:25Z</time>
      </trkpt>
      <trkpt lat="48.85887" lon="-0.48066">
        <ele>157.2</ele>
        <time>2024-04-07T08:15:26Z</time>
      </trkpt>
      <trkpt lat="48.8589" lon="-0.48078">
        <ele>157</ele>
        <time>2024-04-07T08:15:27Z</time>
      </trkpt>
      <trkpt lat="48.85892" lon="-0.4809">
        <ele>157</ele>
        <time>2024-04-07T08:15:28Z</time>
      </trkpt>
      <trkpt lat="48.85895" lon="-0.48101">
        <ele>156.8</ele>
        <time>2024-04-07T08:15:29Z</time>
      </trkpt>
      <trkpt lat="48.85898" lon="-0.48113">
        <ele>157</ele>
        <time>2024-04-07T08:15:30Z</time>
      </trkpt>
      <trkpt lat="48.859" lon="-0.48126">
        <ele>157.2</ele>
        <time>2024-04-07T08:15:31Z</time>
      </trkpt>
      <trkpt lat="48.85902" lon="-0.48138">
        <ele>157.2</ele>
        <time>2024-04-07T08:15:32Z</time>
      </trkpt>
      <trkpt lat="48.85905" lon="-0.4815">
        <ele>157.2</ele>
        <time>2024-04-07T08:15:33Z</time>
      </trkpt>
      <trkpt lat="48.85907" lon="-0.48163">
        <ele>157.2</ele>
        <time>2024-04-07T08:15:34Z</time>
      </trkpt>
      <trkpt lat="48.85909" lon="-0.48177">
        <ele>156.8</ele>
        <time>2024-04-07T08:15:35Z</time>
      </trkpt>
      <trkpt lat="48.85911" lon="-0.48191">
        <ele>156</ele>
        <time>2024-04-07T08:15:36Z</time>
      </trkpt>
      <trkpt lat="48.85912" lon="-0.48205">
        <ele>155.2</ele>
        <time>2024-04-07T08:15:37Z</time>
      </trkpt>
      <trkpt lat="48.85912" lon="-0.48219">
        <ele>154.2</ele>
        <time>2024-04-07T08:15:38Z</time>
      </trkpt>
      <trkpt lat="48.85912" lon="-0.48233">
        <ele>153.4</ele>
        <time>2024-04-07T08:15:39Z</time>
      </trkpt>
      <trkpt lat="48.85911" lon="-0.48248">
        <ele>152.4</ele>
        <time>2024-04-07T08:15:40Z</time>
      </trkpt>
      <trkpt lat="48.8591" lon="-0.48263">
        <ele>151.8</ele>
        <time>2024-04-07T08:15:41Z</time>
      </trkpt>
      <trkpt lat="48.85908" lon="-0.48277">
        <ele>151.2</ele>
        <time>2024-04-07T08:15:42Z</time>
      </trkpt>
      <trkpt lat="48.85905" lon="-0.48291">
        <ele>150.8</ele>
        <time>2024-04-07T08:15:43Z</time>
      </trkpt>
      <trkpt lat="48.85902" lon="-0.48305">
        <ele>150.2</ele>
        <time>2024-04-07T08:15:44Z</time>
      </trkpt>
      <trkpt lat="48.85899" lon="-0.48318">
        <ele>149.6</ele>
        <time>2024-04-07T08:15:45Z</time>
      </trkpt>
      <trkpt lat="48.85896" lon="-0.48332">
        <ele>149.2</ele>
        <time>2024-04-07T08:15:46Z</time>
      </trkpt>
      <trkpt lat="48.85892" lon="-0.48345">
        <ele>149</ele>
        <time>2024-04-07T08:15:47Z</time>
      </trkpt>
      <trkpt lat="48.85888" lon="-0.48358">
        <ele>149</ele>
        <time>2024-04-07T08:15:48Z</time>
      </trkpt>
      <trkpt lat="48.85884" lon="-0.4837">
        <ele>149</ele>
        <time>2024-04-07T08:15:49Z</time>
      </trkpt>
      <trkpt lat="48.8588" lon="-0.48381">
        <ele>149</ele>
        <time>2024-04-07T08:15:50Z</time>
      </trkpt>
      <trkpt lat="48.85876" lon="-0.48392">
        <ele>149.2</ele>
        <time>2024-04-07T08:15:51Z</time>
      </trkpt>
      <trkpt lat="48.85871" lon="-0.48402">
        <ele>149.2</ele>
        <time>2024-04-07T08:15:52Z</time>
      </trkpt>
      <trkpt lat="48.85866" lon="-0.48411">
        <ele>149.2</ele>
        <time>2024-04-07T08:15:53Z</time>
      </trkpt>
      <trkpt lat="48.85861" lon="-0.48421">
        <ele>149.4</ele>
        <time>2024-04-07T08:15:54Z</time>
      </trkpt>
      <trkpt lat="48.85858" lon="-0.48431">
        <ele>149.2</ele>
        <time>2024-04-07T08:15:55Z</time>
      </trkpt>
      <trkpt lat="48.85856" lon="-0.4844">
        <ele>149.4</ele>
        <time>2024-04-07T08:15:56Z</time>
      </trkpt>
      <trkpt lat="48.85853" lon="-0.4845">
        <ele>149.6</ele>
        <time>2024-04-07T08:15:57Z</time>
      </trkpt>
      <trkpt lat="48.85849" lon="-0.48458">
        <ele>149.6</ele>
        <time>2024-04-07T08:15:58Z</time>
      </trkpt>
      <trkpt lat="48.85845" lon="-0.48467">
        <ele>150</ele>
        <time>2024-04-07T08:15:59Z</time>
      </trkpt>
      <trkpt lat="48.85841" lon="-0.48475">
        <ele>150.2</ele>
        <time>2024-04-07T08:16:00Z</time>
      </trkpt>
      <trkpt lat="48.85837" lon="-0.48483">
        <ele>150.6</ele>
        <time>2024-04-07T08:16:01Z</time>
      </trkpt>
      <trkpt lat="48.85833" lon="-0.48491">
        <ele>150.8</ele>
        <time>2024-04-07T08:16:02Z</time>
      </trkpt>
      <trkpt lat="48.8583" lon="-0.48499">
        <ele>150.8</ele>
        <time>2024-04-07T08:16:03Z</time>
      </trkpt>
      <trkpt lat="48.85827" lon="-0.48507">
        <ele>151</ele>
        <time>2024-04-07T08:16:04Z</time>
      </trkpt>
      <trkpt lat="48.85824" lon="-0.48515">
        <ele>151.2</ele>
        <time>2024-04-07T08:16:05Z</time>
      </trkpt>
      <trkpt lat="48.85821" lon="-0.48523">
        <ele>151.6</ele>
        <time>2024-04-07T08:16:06Z</time>
      </trkpt>
      <trkpt lat="48.85817" lon="-0.4853">
        <ele>152</ele>
        <time>2024-04-07T08:16:07Z</time>
      </trkpt>
      <trkpt lat="48.85813" lon="-0.48538">
        <ele>152.2</ele>
        <time>2024-04-07T08:16:08Z</time>
      </trkpt>
      <trkpt lat="48.85808" lon="-0.48545">
        <ele>152.6</ele>
        <time>2024-04-07T08:16:09Z</time>
      </trkpt>
      <trkpt lat="48.85805" lon="-0.48552">
        <ele>153</ele>
        <time>2024-04-07T08:16:10Z</time>
      </trkpt>
      <trkpt lat="48.85802" lon="-0.4856">
        <ele>153.2</ele>
        <time>2024-04-07T08:16:11Z</time>
      </trkpt>
      <trkpt lat="48.85798" lon="-0.48569">
        <ele>153.4</ele>
        <time>2024-04-07T08:16:12Z</time>
      </trkpt>
      <trkpt lat="48.85795" lon="-0.48579">
        <ele>153.4</ele>
        <time>2024-04-07T08:16:13Z</time>
      </trkpt>
      <trkpt lat="48.85791" lon="-0.48588">
        <ele>153.6</ele>
        <time>2024-04-07T08:16:14Z</time>
      </trkpt>
      <trkpt lat="48.85788" lon="-0.48598">
        <ele>154</ele>
        <time>2024-04-07T08:16:15Z</time>
      </trkpt>
      <trkpt lat="48.85785" lon="-0.48608">
        <ele>154.2</ele>
        <time>2024-04-07T08:16:16Z</time>
      </trkpt>
      <trkpt lat="48.85782" lon="-0.48618">
        <ele>154.4</ele>
        <time>2024-04-07T08:16:17Z</time>
      </trkpt>
      <trkpt lat="48.8578" lon="-0.48626">
        <ele>154.4</ele>
        <time>2024-04-07T08:16:18Z</time>
      </trkpt>
      <trkpt lat="48.85777" lon="-0.48635">
        <ele>154.6</ele>
        <time>2024-04-07T08:16:19Z</time>
      </trkpt>
      <trkpt lat="48.85773" lon="-0.48644">
        <ele>154.6</ele>
        <time>2024-04-07T08:16:20Z</time>
      </trkpt>
      <trkpt lat="48.8577" lon="-0.48654">
        <ele>154.6</ele>
        <time>2024-04-07T08:16:21Z</time>
      </trkpt>
      <trkpt lat="48.85768" lon="-0.48663">
        <ele>154.6</ele>
        <time>2024-04-07T08:16:22Z</time>
      </trkpt>
      <trkpt lat="48.85765" lon="-0.48672">
        <ele>154.8</ele>
        <time>2024-04-07T08:16:23Z</time>
      </trkpt>
      <trkpt lat="48.85763" lon="-0.48682">
        <ele>154.8</ele>
        <time>2024-04-07T08:16:24Z</time>
      </trkpt>
      <trkpt lat="48.8576" lon="-0.48691">
        <ele>154.8</ele>
        <time>2024-04-07T08:16:25Z</time>
      </trkpt>
      <trkpt lat="48.85757" lon="-0.48699">
        <ele>154.8</ele>
        <time>2024-04-07T08:16:26Z</time>
      </trkpt>
      <trkpt lat="48.85754" lon="-0.48708">
        <ele>155</ele>
        <time>2024-04-07T08:16:27Z</time>
      </trkpt>
      <trkpt lat="48.85752" lon="-0.48717">
        <ele>155.2</ele>
        <time>2024-04-07T08:16:28Z</time>
      </trkpt>
      <trkpt lat="48.8575" lon="-0.48727">
        <ele>155.4</ele>
        <time>2024-04-07T08:16:29Z</time>
      </trkpt>
      <trkpt lat="48.85748" lon="-0.48737">
        <ele>155.6</ele>
        <time>2024-04-07T08:16:30Z</time>
      </trkpt>
      <trkpt lat="48.85744" lon="-0.48747">
        <ele>155.6</ele>
        <time>2024-04-07T08:16:31Z</time>
      </trkpt>
      <trkpt lat="48.8574" lon="-0.48756">
        <ele>155.8</ele>
        <time>2024-04-07T08:16:32Z</time>
      </trkpt>
      <trkpt lat="48.85737" lon="-0.48766">
        <ele>156.2</ele>
        <time>2024-04-07T08:16:33Z</time>
      </trkpt>
      <trkpt lat="48.85734" lon="-0.48776">
        <ele>156.2</ele>
        <time>2024-04-07T08:16:34Z</time>
      </trkpt>
      <trkpt lat="48.85732" lon="-0.48787">
        <ele>156.6</ele>
        <time>2024-04-07T08:16:35Z</time>
      </trkpt>
      <trkpt lat="48.8573" lon="-0.48796">
        <ele>156.8</ele>
        <time>2024-04-07T08:16:36Z</time>
      </trkpt>
      <trkpt lat="48.8573" lon="-0.48806">
        <ele>157</ele>
        <time>2024-04-07T08:16:37Z</time>
      </trkpt>
      <trkpt lat="48.85726" lon="-0.48816">
        <ele>157.2</ele>
        <time>2024-04-07T08:16:38Z</time>
      </trkpt>
      <trkpt lat="48.85724" lon="-0.48826">
        <ele>157.2</ele>
        <time>2024-04-07T08:16:39Z</time>
      </trkpt>
      <trkpt lat="48.85723" lon="-0.48838">
        <ele>157.4</ele>
        <time>2024-04-07T08:16:40Z</time>
      </trkpt>
      <trkpt lat="48.85722" lon="-0.4885">
        <ele>157.2</ele>
        <time>2024-04-07T08:16:41Z</time>
      </trkpt>
      <trkpt lat="48.8572" lon="-0.4886">
        <ele>157.2</ele>
        <time>2024-04-07T08:16:42Z</time>
      </trkpt>
      <trkpt lat="48.85717" lon="-0.48872">
        <ele>157.2</ele>
        <time>2024-04-07T08:16:43Z</time>
      </trkpt>
      <trkpt lat="48.85716" lon="-0.48883">
        <ele>157</ele>
        <time>2024-04-07T08:16:44Z</time>
      </trkpt>
      <trkpt lat="48.85717" lon="-0.48895">
        <ele>156.6</ele>
        <time>2024-04-07T08:16:45Z</time>
      </trkpt>
      <trkpt lat="48.85718" lon="-0.48906">
        <ele>156.2</ele>
        <time>2024-04-07T08:16:46Z</time>
      </trkpt>
      <trkpt lat="48.85718" lon="-0.48917">
        <ele>156</ele>
        <time>2024-04-07T08:16:47Z</time>
      </trkpt>
      <trkpt lat="48.85719" lon="-0.48928">
        <ele>155.8</ele>
        <time>2024-04-07T08:16:48Z</time>
      </trkpt>
      <trkpt lat="48.85719" lon="-0.48939">
        <ele>155.4</ele>
        <time>2024-04-07T08:16:49Z</time>
      </trkpt>
      <trkpt lat="48.8572" lon="-0.4895">
        <ele>155.2</ele>
        <time>2024-04-07T08:16:50Z</time>
      </trkpt>
      <trkpt lat="48.85721" lon="-0.48961">
        <ele>155.4</ele>
        <time>2024-04-07T08:16:51Z</time>
      </trkpt>
      <trkpt lat="48.85723" lon="-0.48971">
        <ele>155.4</ele>
        <time>2024-04-07T08:16:52Z</time>
      </trkpt>
      <trkpt lat="48.85723" lon="-0.48982">
        <ele>155.6</ele>
        <time>2024-04-07T08:16:53Z</time>
      </trkpt>
      <trkpt lat="48.85724" lon="-0.48992">
        <ele>155.8</ele>
        <time>2024-04-07T08:16:54Z</time>
      </trkpt>
      <trkpt lat="48.85726" lon="-0.49002">
        <ele>156.4</ele>
        <time>2024-04-07T08:16:55Z</time>
      </trkpt>
      <trkpt lat="48.85726" lon="-0.4901">
        <ele>156.8</ele>
        <time>2024-04-07T08:16:56Z</time>
      </trkpt>
      <trkpt lat="48.85728" lon="-0.49018">
        <ele>157.2</ele>
        <time>2024-04-07T08:16:57Z</time>
      </trkpt>
      <trkpt lat="48.85728" lon="-0.49027">
        <ele>157.4</ele>
        <time>2024-04-07T08:16:58Z</time>
      </trkpt>
      <trkpt lat="48.85728" lon="-0.49035">
        <ele>157.6</ele>
        <time>2024-04-07T08:16:59Z</time>
      </trkpt>
      <trkpt lat="48.85729" lon="-0.49043">
        <ele>158</ele>
        <time>2024-04-07T08:17:00Z</time>
      </trkpt>
      <trkpt lat="48.8573" lon="-0.49051">
        <ele>158.4</ele>
        <time>2024-04-07T08:17:01Z</time>
      </trkpt>
      <trkpt lat="48.85731" lon="-0.4906">
        <ele>158.8</ele>
        <time>2024-04-07T08:17:02Z</time>
      </trkpt>
      <trkpt lat="48.85732" lon="-0.49069">
        <ele>159</ele>
        <time>2024-04-07T08:17:03Z</time>
      </trkpt>
      <trkpt lat="48.85732" lon="-0.49078">
        <ele>159.2</ele>
        <time>2024-04-07T08:17:04Z</time>
      </trkpt>
      <trkpt lat="48.85733" lon="-0.49086">
        <ele>159.4</ele>
        <time>2024-04-07T08:17:05Z</time>
      </trkpt>
      <trkpt lat="48.85734" lon="-0.49095">
        <ele>159.8</ele>
        <time>2024-04-07T08:17:06Z</time>
      </trkpt>
      <trkpt lat="48.85736" lon="-0.49103">
        <ele>160.2</ele>
        <time>2024-04-07T08:17:07Z</time>
      </trkpt>
      <trkpt lat="48.85737" lon="-0.49111">
        <ele>160.6</ele>
        <time>2024-04-07T08:17:08Z</time>
      </trkpt>
      <trkpt lat="48.85741" lon="-0.49119">
        <ele>161</ele>
        <time>2024-04-07T08:17:09Z</time>
      </trkpt>
      <trkpt lat="48.85745" lon="-0.49127">
        <ele>161.4</ele>
        <time>2024-04-07T08:17:10Z</time>
      </trkpt>
      <trkpt lat="48.85748" lon="-0.49135">
        <ele>161.6</ele>
        <time>2024-04-07T08:17:11Z</time>
      </trkpt>
      <trkpt lat="48.8575" lon="-0.49142">
        <ele>161.8</ele>
        <time>2024-04-07T08:17:12Z</time>
      </trkpt>
      <trkpt lat="48.85753" lon="-0.4915">
        <ele>162</ele>
        <time>2024-04-07T08:17:13Z</time>
      </trkpt>
      <trkpt lat="48.85755" lon="-0.49157">
        <ele>162</ele>
        <time>2024-04-07T08:17:14Z</time>
      </trkpt>
      <trkpt lat="48.85757" lon="-0.49165">
        <ele>162.2</ele>
        <time>2024-04-07T08:17:15Z</time>
      </trkpt>
      <trkpt lat="48.85759" lon="-0.49173">
        <ele>162.4</ele>
        <time>2024-04-07T08:17:16Z</time>
      </trkpt>
      <trkpt lat="48.8576" lon="-0.4918">
        <ele>162.8</ele>
        <time>2024-04-07T08:17:17Z</time>
      </trkpt>
      <trkpt lat="48.85762" lon="-0.49188">
        <ele>163</ele>
        <time>2024-04-07T08:17:18Z</time>
      </trkpt>
      <trkpt lat="48.85764" lon="-0.49196">
        <ele>163.2</ele>
        <time>2024-04-07T08:17:19Z</time>
      </trkpt>
      <trkpt lat="48.85766" lon="-0.49204">
        <ele>163.4</ele>
        <time>2024-04-07T08:17:20Z</time>
      </trkpt>
      <trkpt lat="48.85769" lon="-0.49212">
        <ele>163.4</ele>
        <time>2024-04-07T08:17:21Z</time>
      </trkpt>
      <trkpt lat="48.85771" lon="-0.49219">
        <ele>163.6</ele>
        <time>2024-04-07T08:17:22Z</time>
      </trkpt>
      <trkpt lat="48.85773" lon="-0.49227">
        <ele>163.6</ele>
        <time>2024-04-07T08:17:23Z</time>
      </trkpt>
      <trkpt lat="48.85775" lon="-0.49235">
        <ele>163.6</ele>
        <time>2024-04-07T08:17:24Z</time>
      </trkpt>
      <trkpt lat="48.85778" lon="-0.49242">
        <ele>163.4</ele>
        <time>2024-04-07T08:17:25Z</time>
      </trkpt>
      <trkpt lat="48.8578" lon="-0.4925">
        <ele>163.4</ele>
        <time>2024-04-07T08:17:26Z</time>
      </trkpt>
      <trkpt lat="48.85783" lon="-0.49258">
        <ele>163.4</ele>
        <time>2024-04-07T08:17:27Z</time>
      </trkpt>
      <trkpt lat="48.85785" lon="-0.49265">
        <ele>163.6</ele>
        <time>2024-04-07T08:17:28Z</time>
      </trkpt>
      <trkpt lat="48.85788" lon="-0.49273">
        <ele>163.8</ele>
        <time>2024-04-07T08:17:29Z</time>
      </trkpt>
      <trkpt lat="48.8579" lon="-0.4928">
        <ele>164</ele>
        <time>2024-04-07T08:17:30Z</time>
      </trkpt>
      <trkpt lat="48.85793" lon="-0.49288">
        <ele>164</ele>
        <time>2024-04-07T08:17:31Z</time>
      </trkpt>
      <trkpt lat="48.85795" lon="-0.49296">
        <ele>164</ele>
        <time>2024-04-07T08:17:32Z</time>
      </trkpt>
      <trkpt lat="48.85798" lon="-0.49305">
        <ele>164</ele>
        <time>2024-04-07T08:17:33Z</time>
      </trkpt>
      <trkpt lat="48.858" lon="-0.49314">
        <ele>164</ele>
        <time>2024-04-07T08:17:34Z</time>
      </trkpt>
      <trkpt lat="48.85802" lon="-0.49323">
        <ele>164</ele>
        <time>2024-04-07T08:17:35Z</time>
      </trkpt>
      <trkpt lat="48.85804" lon="-0.49332">
        <ele>163.8</ele>
        <time>2024-04-07T08:17:36Z</time>
      </trkpt>
      <trkpt lat="48.85806" lon="-0.49342">
        <ele>163.6</ele>
        <time>2024-04-07T08:17:37Z</time>
      </trkpt>
      <trkpt lat="48.85807" lon="-0.49352">
        <ele>163.2</ele>
        <time>2024-04-07T08:17:38Z</time>
      </trkpt>
      <trkpt lat="48.85808" lon="-0.49361">
        <ele>162.8</ele>
        <time>2024-04-07T08:17:39Z</time>
      </trkpt>
      <trkpt lat="48.85809" lon="-0.49371">
        <ele>162.4</ele>
        <time>2024-04-07T08:17:40Z</time>
      </trkpt>
      <trkpt lat="48.85809" lon="-0.49381">
        <ele>161.8</ele>
        <time>2024-04-07T08:17:41Z</time>
      </trkpt>
      <trkpt lat="48.8581" lon="-0.49391">
        <ele>161.6</ele>
        <time>2024-04-07T08:17:42Z</time>
      </trkpt>
      <trkpt lat="48.8581" lon="-0.49401">
        <ele>161.6</ele>
        <time>2024-04-07T08:17:43Z</time>
      </trkpt>
      <trkpt lat="48.85809" lon="-0.49411">
        <ele>161.4</ele>
        <time>2024-04-07T08:17:44Z</time>
      </trkpt>
      <trkpt lat="48.85809" lon="-0.49421">
        <ele>161.6</ele>
        <time>2024-04-07T08:17:45Z</time>
      </trkpt>
      <trkpt lat="48.85808" lon="-0.49431">
        <ele>161.6</ele>
        <time>2024-04-07T08:17:46Z</time>
      </trkpt>
      <trkpt lat="48.85807" lon="-0.49442">
        <ele>161.6</ele>
        <time>2024-04-07T08:17:47Z</time>
      </trkpt>
      <trkpt lat="48.85806" lon="-0.49453">
        <ele>161.6</ele>
        <time>2024-04-07T08:17:48Z</time>
      </trkpt>
      <trkpt lat="48.85806" lon="-0.49464">
        <ele>161.6</ele>
        <time>2024-04-07T08:17:49Z</time>
      </trkpt>
      <trkpt lat="48.85805" lon="-0.49475">
        <ele>161.4</ele>
        <time>2024-04-07T08:17:50Z</time>
      </trkpt>
      <trkpt lat="48.85806" lon="-0.49485">
        <ele>161</ele>
        <time>2024-04-07T08:17:51Z</time>
      </trkpt>
      <trkpt lat="48.85806" lon="-0.49497">
        <ele>160.6</ele>
        <time>2024-04-07T08:17:52Z</time>
      </trkpt>
      <trkpt lat="48.85807" lon="-0.49509">
        <ele>160.2</ele>
        <time>2024-04-07T08:17:53Z</time>
      </trkpt>
      <trkpt lat="48.85806" lon="-0.49522">
        <ele>159.8</ele>
        <time>2024-04-07T08:17:54Z</time>
      </trkpt>
      <trkpt lat="48.85804" lon="-0.49534">
        <ele>159.6</ele>
        <time>2024-04-07T08:17:55Z</time>
      </trkpt>
      <trkpt lat="48.85801" lon="-0.49546">
        <ele>159</ele>
        <time>2024-04-07T08:17:56Z</time>
      </trkpt>
      <trkpt lat="48.85797" lon="-0.49558">
        <ele>158.4</ele>
        <time>2024-04-07T08:17:57Z</time>
      </trkpt>
      <trkpt lat="48.85793" lon="-0.4957">
        <ele>157.4</ele>
        <time>2024-04-07T08:17:58Z</time>
      </trkpt>
      <trkpt lat="48.85788" lon="-0.49581">
        <ele>156.8</ele>
        <time>2024-04-07T08:17:59Z</time>
      </trkpt>
      <trkpt lat="48.85782" lon="-0.49593">
        <ele>156.2</ele>
        <time>2024-04-07T08:18:00Z</time>
      </trkpt>
      <trkpt lat="48.85776" lon="-0.49604">
        <ele>155.8</ele>
        <time>2024-04-07T08:18:01Z</time>
      </trkpt>
      <trkpt lat="48.85771" lon="-0.49616">
        <ele>155.4</ele>
        <time>2024-04-07T08:18:02Z</time>
      </trkpt>
      <trkpt lat="48.85765" lon="-0.49628">
        <ele>154.8</ele>
        <time>2024-04-07T08:18:03Z</time>
      </trkpt>
      <trkpt lat="48.85759" lon="-0.4964">
        <ele>154.2</ele>
        <time>2024-04-07T08:18:04Z</time>
      </trkpt>
      <trkpt lat="48.85753" lon="-0.49651">
        <ele>153.6</ele>
        <time>2024-04-07T08:18:05Z</time>
      </trkpt>
      <trkpt lat="48.85747" lon="-0.49661">
        <ele>153</ele>
        <time>2024-04-07T08:18:06Z</time>
      </trkpt>
      <trkpt lat="48.8574" lon="-0.49671">
        <ele>152.4</ele>
        <time>2024-04-07T08:18:07Z</time>
      </trkpt>
      <trkpt lat="48.85733" lon="-0.4968">
        <ele>151.8</ele>
        <time>2024-04-07T08:18:08Z</time>
      </trkpt>
      <trkpt lat="48.85725" lon="-0.49689">
        <ele>151.4</ele>
        <time>2024-04-07T08:18:09Z</time>
      </trkpt>
      <trkpt lat="48.85717" lon="-0.49696">
        <ele>151</ele>
        <time>2024-04-07T08:18:10Z</time>
      </trkpt>
      <trkpt lat="48.85709" lon="-0.49704">
        <ele>151</ele>
        <time>2024-04-07T08:18:11Z</time>
      </trkpt>
      <trkpt lat="48.85702" lon="-0.49711">
        <ele>151</ele>
        <time>2024-04-07T08:18:12Z</time>
      </trkpt>
      <trkpt lat="48.85695" lon="-0.49719">
        <ele>151.2</ele>
        <time>2024-04-07T08:18:13Z</time>
      </trkpt>
      <trkpt lat="48.85688" lon="-0.49726">
        <ele>151.2</ele>
        <time>2024-04-07T08:18:14Z</time>
      </trkpt>
      <trkpt lat="48.85681" lon="-0.49733">
        <ele>151</ele>
        <time>2024-04-07T08:18:15Z</time>
      </trkpt>
      <trkpt lat="48.85675" lon="-0.49739">
        <ele>151</ele>
        <time>2024-04-07T08:18:16Z</time>
      </trkpt>
      <trkpt lat="48.85668" lon="-0.49746">
        <ele>151</ele>
        <time>2024-04-07T08:18:17Z</time>
      </trkpt>
      <trkpt lat="48.85661" lon="-0.49752">
        <ele>151</ele>
        <time>2024-04-07T08:18:18Z</time>
      </trkpt>
      <trkpt lat="48.85654" lon="-0.49757">
        <ele>151</ele>
        <time>2024-04-07T08:18:19Z</time>
      </trkpt>
      <trkpt lat="48.85647" lon="-0.49762">
        <ele>151.2</ele>
        <time>2024-04-07T08:18:20Z</time>
      </trkpt>
      <trkpt lat="48.85641" lon="-0.49767">
        <ele>151.4</ele>
        <time>2024-04-07T08:18:21Z</time>
      </trkpt>
      <trkpt lat="48.85634" lon="-0.49772">
        <ele>151.4</ele>
        <time>2024-04-07T08:18:22Z</time>
      </trkpt>
      <trkpt lat="48.85627" lon="-0.49778">
        <ele>151.6</ele>
        <time>2024-04-07T08:18:23Z</time>
      </trkpt>
      <trkpt lat="48.8562" lon="-0.49784">
        <ele>151.6</ele>
        <time>2024-04-07T08:18:24Z</time>
      </trkpt>
      <trkpt lat="48.85613" lon="-0.4979">
        <ele>151.6</ele>
        <time>2024-04-07T08:18:25Z</time>
      </trkpt>
      <trkpt lat="48.85606" lon="-0.49796">
        <ele>151.6</ele>
        <time>2024-04-07T08:18:26Z</time>
      </trkpt>
      <trkpt lat="48.85599" lon="-0.49803">
        <ele>151.6</ele>
        <time>2024-04-07T08:18:27Z</time>
      </trkpt>
      <trkpt lat="48.85592" lon="-0.49808">
        <ele>151.4</ele>
        <time>2024-04-07T08:18:28Z</time>
      </trkpt>
      <trkpt lat="48.85585" lon="-0.49813">
        <ele>151</ele>
        <time>2024-04-07T08:18:29Z</time>
      </trkpt>
      <trkpt lat="48.85579" lon="-0.49819">
        <ele>150.4</ele>
        <time>2024-04-07T08:18:30Z</time>
      </trkpt>
      <trkpt lat="48.85572" lon="-0.49825">
        <ele>150</ele>
        <time>2024-04-07T08:18:31Z</time>
      </trkpt>
      <trkpt lat="48.85565" lon="-0.4983">
        <ele>149.8</ele>
        <time>2024-04-07T08:18:32Z</time>
      </trkpt>
      <trkpt lat="48.85559" lon="-0.49835">
        <ele>149.6</ele>
        <time>2024-04-07T08:18:33Z</time>
      </trkpt>
      <trkpt lat="48.85553" lon="-0.4984">
        <ele>149.8</ele>
        <time>2024-04-07T08:18:34Z</time>
      </trkpt>
      <trkpt lat="48.85546" lon="-0.49846">
        <ele>150.2</ele>
        <time>2024-04-07T08:18:35Z</time>
      </trkpt>
      <trkpt lat="48.8554" lon="-0.49846">
        <ele>151</ele>
        <time>2024-04-07T08:18:36Z</time>
      </trkpt>
      <trkpt lat="48.85534" lon="-0.49851">
        <ele>151.6</ele>
        <time>2024-04-07T08:18:37Z</time>
      </trkpt>
      <trkpt lat="48.85527" lon="-0.49857">
        <ele>152</ele>
        <time>2024-04-07T08:18:38Z</time>
      </trkpt>
      <trkpt lat="48.85521" lon="-0.49863">
        <ele>152</ele>
        <time>2024-04-07T08:18:39Z</time>
      </trkpt>
      <trkpt lat="48.85515" lon="-0.49869">
        <ele>152.2</ele>
        <time>2024-04-07T08:18:40Z</time>
      </trkpt>
      <trkpt lat="48.85509" lon="-0.49875">
        <ele>152</ele>
        <time>2024-04-07T08:18:41Z</time>
      </trkpt>
      <trkpt lat="48.85503" lon="-0.49882">
        <ele>152</ele>
        <time>2024-04-07T08:18:42Z</time>
      </trkpt>
      <trkpt lat="48.85497" lon="-0.4989">
        <ele>152</ele>
        <time>2024-04-07T08:18:43Z</time>
      </trkpt>
      <trkpt lat="48.85492" lon="-0.49897">
        <ele>152.2</ele>
        <time>2024-04-07T08:18:44Z</time>
      </trkpt>
      <trkpt lat="48.85486" lon="-0.49904">
        <ele>152.4</ele>
        <time>2024-04-07T08:18:45Z</time>
      </trkpt>
      <trkpt lat="48.8548" lon="-0.49912">
        <ele>152.6</ele>
        <time>2024-04-07T08:18:46Z</time>
      </trkpt>
      <trkpt lat="48.85474" lon="-0.49919">
        <ele>153</ele>
        <time>2024-04-07T08:18:47Z</time>
      </trkpt>
      <trkpt lat="48.85469" lon="-0.49928">
        <ele>153.2</ele>
        <time>2024-04-07T08:18:48Z</time>
      </trkpt>
      <trkpt lat="48.85463" lon="-0.49935">
        <ele>153.4</ele>
        <time>2024-04-07T08:18:49Z</time>
      </trkpt>
      <trkpt lat="48.85458" lon="-0.49943">
        <ele>153.4</ele>
        <time>2024-04-07T08:18:50Z</time>
      </trkpt>
      <trkpt lat="48.85452" lon="-0.4995">
        <ele>153.4</ele>
        <time>2024-04-07T08:18:51Z</time>
      </trkpt>
      <trkpt lat="48.85447" lon="-0.49957">
        <ele>153.4</ele>
        <time>2024-04-07T08:18:52Z</time>
      </trkpt>
      <trkpt lat="48.85441" lon="-0.49964">
        <ele>153.6</ele>
        <time>2024-04-07T08:18:53Z</time>
      </trkpt>
      <trkpt lat="48.85435" lon="-0.49971">
        <ele>153.6</ele>
        <time>2024-04-07T08:18:54Z</time>
      </trkpt>
      <trkpt lat="48.8543" lon="-0.49978">
        <ele>153.8</ele>
        <time>2024-04-07T08:18:55Z</time>
      </trkpt>
      <trkpt lat="48.85425" lon="-0.49985">
        <ele>154</ele>
        <time>2024-04-07T08:18:56Z</time>
      </trkpt>
      <trkpt lat="48.85419" lon="-0.49993">
        <ele>154</ele>
        <time>2024-04-07T08:18:57Z</time>
      </trkpt>
      <trkpt lat="48.85415" lon="-0.5">
        <ele>154.2</ele>
        <time>2024-04-07T08:18:58Z</time>
      </trkpt>
      <trkpt lat="48.85409" lon="-0.50008">
        <ele>154.2</ele>
        <time>2024-04-07T08:18:59Z</time>
      </trkpt>
      <trkpt lat="48.85404" lon="-0.50015">
        <ele>154.2</ele>
        <time>2024-04-07T08:19:00Z</time>
      </trkpt>
      <trkpt lat="48.85399" lon="-0.50022">
        <ele>154.2</ele>
        <time>2024-04-07T08:19:01Z</time>
      </trkpt>
      <trkpt lat="48.85394" lon="-0.50029">
        <ele>154.2</ele>
        <time>2024-04-07T08:19:02Z</time>
      </trkpt>
      <trkpt lat="48.8539" lon="-0.50037">
        <ele>154.2</ele>
        <time>2024-04-07T08:19:03Z</time>
      </trkpt>
      <trkpt lat="48.85384" lon="-0.50046">
        <ele>154.2</ele>
        <time>2024-04-07T08:19:04Z</time>
      </trkpt>
      <trkpt lat="48.8538" lon="-0.50054">
        <ele>154.2</ele>
        <time>2024-04-07T08:19:05Z</time>
      </trkpt>
      <trkpt lat="48.85375" lon="-0.50062">
        <ele>154.2</ele>
        <time>2024-04-07T08:19:06Z</time>
      </trkpt>
      <trkpt lat="48.85371" lon="-0.5007">
        <ele>154.4</ele>
        <time>2024-04-07T08:19:07Z</time>
      </trkpt>
      <trkpt lat="48.85367" lon="-0.50078">
        <ele>154.6</ele>
        <time>2024-04-07T08:19:08Z</time>
      </trkpt>
      <trkpt lat="48.85361" lon="-0.50086">
        <ele>154.8</ele>
        <time>2024-04-07T08:19:09Z</time>
      </trkpt>
      <trkpt lat="48.85355" lon="-0.50094">
        <ele>155</ele>
        <time>2024-04-07T08:19:10Z</time>
      </trkpt>
      <trkpt lat="48.8535" lon="-0.50101">
        <ele>155</ele>
        <time>2024-04-07T08:19:11Z</time>
      </trkpt>
      <trkpt lat="48.85344" lon="-0.50109">
        <ele>155</ele>
        <time>2024-04-07T08:19:12Z</time>
      </trkpt>
      <trkpt lat="48.85339" lon="-0.50117">
        <ele>154.8</ele>
        <time>2024-04-07T08:19:13Z</time>
      </trkpt>
      <trkpt lat="48.85334" lon="-0.50125">
        <ele>154.8</ele>
        <time>2024-04-07T08:19:14Z</time>
      </trkpt>
      <trkpt lat="48.85328" lon="-0.50133">
        <ele>154.6</ele>
        <time>2024-04-07T08:19:15Z</time>
      </trkpt>
      <trkpt lat="48.85323" lon="-0.50141">
        <ele>154.4</ele>
        <time>2024-04-07T08:19:16Z</time>
      </trkpt>
      <trkpt lat="48.85318" lon="-0.50148">
        <ele>154.4</ele>
        <time>2024-04-07T08:19:17Z</time>
      </trkpt>
      <trkpt lat="48.85313" lon="-0.50156">
        <ele>154.4</ele>
        <time>2024-04-07T08:19:18Z</time>
      </trkpt>
      <trkpt lat="48.85307" lon="-0.50164">
        <ele>154.2</ele>
        <time>2024-04-07T08:19:19Z</time>
      </trkpt>
      <trkpt lat="48.85302" lon="-0.50171">
        <ele>154</ele>
        <time>2024-04-07T08:19:20Z</time>
      </trkpt>
      <trkpt lat="48.85296" lon="-0.5018">
        <ele>153.8</ele>
        <time>2024-04-07T08:19:21Z</time>
      </trkpt>
      <trkpt lat="48.85291" lon="-0.50188">
        <ele>153.6</ele>
        <time>2024-04-07T08:19:22Z</time>
      </trkpt>
      <trkpt lat="48.85286" lon="-0.50197">
        <ele>153.4</ele>
        <time>2024-04-07T08:19:23Z</time>
      </trkpt>
      <trkpt lat="48.85281" lon="-0.50205">
        <ele>153.4</ele>
        <time>2024-04-07T08:19:24Z</time>
      </trkpt>
      <trkpt lat="48.85276" lon="-0.50213">
        <ele>153.2</ele>
        <time>2024-04-07T08:19:25Z</time>
      </trkpt>
      <trkpt lat="48.85271" lon="-0.50222">
        <ele>153.4</ele>
        <time>2024-04-07T08:19:26Z</time>
      </trkpt>
      <trkpt lat="48.85266" lon="-0.5023">
        <ele>153.6</ele>
        <time>2024-04-07T08:19:27Z</time>
      </trkpt>
      <trkpt lat="48.85262" lon="-0.50238">
        <ele>153.6</ele>
        <time>2024-04-07T08:19:28Z</time>
      </trkpt>
      <trkpt lat="48.85257" lon="-0.50247">
        <ele>153.8</ele>
        <time>2024-04-07T08:19:29Z</time>
      </trkpt>
      <trkpt lat="48.85253" lon="-0.50255">
        <ele>153.8</ele>
        <time>2024-04-07T08:19:30Z</time>
      </trkpt>
      <trkpt lat="48.85249" lon="-0.50263">
        <ele>153.6</ele>
        <time>2024-04-07T08:19:31Z</time>
      </trkpt>
      <trkpt lat="48.85245" lon="-0.50271">
        <ele>153.4</ele>
        <time>2024-04-07T08:19:32Z</time>
      </trkpt>
      <trkpt lat="48.85241" lon="-0.50279">
        <ele>153.2</ele>
        <time>2024-04-07T08:19:33Z</time>
      </trkpt>
      <trkpt lat="48.85237" lon="-0.50288">
        <ele>153</ele>
        <time>2024-04-07T08:19:34Z</time>
      </trkpt>
      <trkpt lat="48.85233" lon="-0.50297">
        <ele>153</ele>
        <time>2024-04-07T08:19:35Z</time>
      </trkpt>
      <trkpt lat="48.85229" lon="-0.50305">
        <ele>153.2</ele>
        <time>2024-04-07T08:19:36Z</time>
      </trkpt>
      <trkpt lat="48.85225" lon="-0.50313">
        <ele>153.4</ele>
        <time>2024-04-07T08:19:37Z</time>
      </trkpt>
      <trkpt lat="48.85221" lon="-0.50322">
        <ele>153.8</ele>
        <time>2024-04-07T08:19:38Z</time>
      </trkpt>
      <trkpt lat="48.85217" lon="-0.5033">
        <ele>153.8</ele>
        <time>2024-04-07T08:19:39Z</time>
      </trkpt>
      <trkpt lat="48.85212" lon="-0.50338">
        <ele>154</ele>
        <time>2024-04-07T08:19:40Z</time>
      </trkpt>
      <trkpt lat="48.85208" lon="-0.50347">
        <ele>153.8</ele>
        <time>2024-04-07T08:19:41Z</time>
      </trkpt>
      <trkpt lat="48.85203" lon="-0.50355">
        <ele>153.6</ele>
        <time>2024-04-07T08:19:42Z</time>
      </trkpt>
      <trkpt lat="48.85199" lon="-0.50363">
        <ele>153.4</ele>
        <time>2024-04-07T08:19:43Z</time>
      </trkpt>
      <trkpt lat="48.85194" lon="-0.50371">
        <ele>153.4</ele>
        <time>2024-04-07T08:19:44Z</time>
      </trkpt>
      <trkpt lat="48.85189" lon="-0.50379">
        <ele>153.2</ele>
        <time>2024-04-07T08:19:45Z</time>
      </trkpt>
      <trkpt lat="48.85184" lon="-0.50387">
        <ele>153.2</ele>
        <time>2024-04-07T08:19:46Z</time>
      </trkpt>
      <trkpt lat="48.85179" lon="-0.50395">
        <ele>153.2</ele>
        <time>2024-04-07T08:19:47Z</time>
      </trkpt>
      <trkpt lat="48.85175" lon="-0.50402">
        <ele>153.4</ele>
        <time>2024-04-07T08:19:48Z</time>
      </trkpt>
      <trkpt lat="48.8517" lon="-0.50409">
        <ele>153.4</ele>
        <time>2024-04-07T08:19:49Z</time>
      </trkpt>
      <trkpt lat="48.85166" lon="-0.50417">
        <ele>153.4</ele>
        <time>2024-04-07T08:19:50Z</time>
      </trkpt>
      <trkpt lat="48.85161" lon="-0.50424">
        <ele>153.4</ele>
        <time>2024-04-07T08:19:51Z</time>
      </trkpt>
      <trkpt lat="48.85157" lon="-0.50432">
        <ele>153.6</ele>
        <time>2024-04-07T08:19:52Z</time>
      </trkpt>
      <trkpt lat="48.85152" lon="-0.5044">
        <ele>153.6</ele>
        <time>2024-04-07T08:19:53Z</time>
      </trkpt>
      <trkpt lat="48.85147" lon="-0.50448">
        <ele>153.6</ele>
        <time>2024-04-07T08:19:54Z</time>
      </trkpt>
      <trkpt lat="48.85142" lon="-0.50456">
        <ele>153.6</ele>
        <time>2024-04-07T08:19:55Z</time>
      </trkpt>
      <trkpt lat="48.85137" lon="-0.50463">
        <ele>153.8</ele>
        <time>2024-04-07T08:19:56Z</time>
      </trkpt>
      <trkpt lat="48.85132" lon="-0.5047">
        <ele>154</ele>
        <time>2024-04-07T08:19:57Z</time>
      </trkpt>
      <trkpt lat="48.85127" lon="-0.50478">
        <ele>154.2</ele>
        <time>2024-04-07T08:19:58Z</time>
      </trkpt>
      <trkpt lat="48.85122" lon="-0.50485">
        <ele>154.4</ele>
        <time>2024-04-07T08:19:59Z</time>
      </trkpt>
      <trkpt lat="48.85118" lon="-0.50493">
        <ele>154.6</ele>
        <time>2024-04-07T08:20:00Z</time>
      </trkpt>
      <trkpt lat="48.85113" lon="-0.50501">
        <ele>154.6</ele>
        <time>2024-04-07T08:20:01Z</time>
      </trkpt>
      <trkpt lat="48.85109" lon="-0.50509">
        <ele>154.6</ele>
        <time>2024-04-07T08:20:02Z</time>
      </trkpt>
      <trkpt lat="48.85105" lon="-0.50518">
        <ele>154.6</ele>
        <time>2024-04-07T08:20:03Z</time>
      </trkpt>
      <trkpt lat="48.85101" lon="-0.50527">
        <ele>154.8</ele>
        <time>2024-04-07T08:20:04Z</time>
      </trkpt>
      <trkpt lat="48.85098" lon="-0.50536">
        <ele>155</ele>
        <time>2024-04-07T08:20:05Z</time>
      </trkpt>
      <trkpt lat="48.85095" lon="-0.50545">
        <ele>155</ele>
        <time>2024-04-07T08:20:06Z</time>
      </trkpt>
      <trkpt lat="48.85092" lon="-0.50553">
        <ele>155.2</ele>
        <time>2024-04-07T08:20:07Z</time>
      </trkpt>
      <trkpt lat="48.85089" lon="-0.50562">
        <ele>155.4</ele>
        <time>2024-04-07T08:20:08Z</time>
      </trkpt>
      <trkpt lat="48.85086" lon="-0.50571">
        <ele>155.4</ele>
        <time>2024-04-07T08:20:09Z</time>
      </trkpt>
      <trkpt lat="48.85084" lon="-0.5058">
        <ele>155.6</ele>
        <time>2024-04-07T08:20:10Z</time>
      </trkpt>
      <trkpt lat="48.85081" lon="-0.5059">
        <ele>155.6</ele>
        <time>2024-04-07T08:20:11Z</time>
      </trkpt>
      <trkpt lat="48.85079" lon="-0.506">
        <ele>155.6</ele>
        <time>2024-04-07T08:20:12Z</time>
      </trkpt>
      <trkpt lat="48.85077" lon="-0.5061">
        <ele>155.6</ele>
        <time>2024-04-07T08:20:13Z</time>
      </trkpt>
      <trkpt lat="48.85074" lon="-0.50619">
        <ele>155.8</ele>
        <time>2024-04-07T08:20:14Z</time>
      </trkpt>
      <trkpt lat="48.85072" lon="-0.50628">
        <ele>156</ele>
        <time>2024-04-07T08:20:15Z</time>
      </trkpt>
      <trkpt lat="48.8507" lon="-0.50636">
        <ele>156</ele>
        <time>2024-04-07T08:20:16Z</time>
      </trkpt>
      <trkpt lat="48.85069" lon="-0.50645">
        <ele>156.2</ele>
        <time>2024-04-07T08:20:17Z</time>
      </trkpt>
      <trkpt lat="48.85067" lon="-0.50654">
        <ele>156.4</ele>
        <time>2024-04-07T08:20:18Z</time>
      </trkpt>
      <trkpt lat="48.85065" lon="-0.50661">
        <ele>156.6</ele>
        <time>2024-04-07T08:20:19Z</time>
      </trkpt>
      <trkpt lat="48.85063" lon="-0.50669">
        <ele>157</ele>
        <time>2024-04-07T08:20:20Z</time>
      </trkpt>
      <trkpt lat="48.85061" lon="-0.50676">
        <ele>157.2</ele>
        <time>2024-04-07T08:20:21Z</time>
      </trkpt>
      <trkpt lat="48.85059" lon="-0.50685">
        <ele>157.4</ele>
        <time>2024-04-07T08:20:22Z</time>
      </trkpt>
      <trkpt lat="48.85057" lon="-0.50694">
        <ele>157.4</ele>
        <time>2024-04-07T08:20:23Z</time>
      </trkpt>
      <trkpt lat="48.85055" lon="-0.50702">
        <ele>157.6</ele>
        <time>2024-04-07T08:20:24Z</time>
      </trkpt>
      <trkpt lat="48.85053" lon="-0.50712">
        <ele>157.8</ele>
        <time>2024-04-07T08:20:25Z</time>
      </trkpt>
      <trkpt lat="48.85051" lon="-0.50721">
        <ele>158</ele>
        <time>2024-04-07T08:20:26Z</time>
      </trkpt>
      <trkpt lat="48.8505" lon="-0.50729">
        <ele>158.2</ele>
        <time>2024-04-07T08:20:27Z</time>
      </trkpt>
      <trkpt lat="48.85048" lon="-0.50737">
        <ele>158.4</ele>
        <time>2024-04-07T08:20:28Z</time>
      </trkpt>
      <trkpt lat="48.85046" lon="-0.50743">
        <ele>158.6</ele>
        <time>2024-04-07T08:20:29Z</time>
      </trkpt>
      <trkpt lat="48.85045" lon="-0.50752">
        <ele>158.8</ele>
        <time>2024-04-07T08:20:30Z</time>
      </trkpt>
      <trkpt lat="48.85045" lon="-0.50761">
        <ele>159</ele>
        <time>2024-04-07T08:20:31Z</time>
      </trkpt>
      <trkpt lat="48.85044" lon="-0.5077">
        <ele>159.2</ele>
        <time>2024-04-07T08:20:32Z</time>
      </trkpt>
      <trkpt lat="48.85043" lon="-0.50779">
        <ele>159.4</ele>
        <time>2024-04-07T08:20:33Z</time>
      </trkpt>
      <trkpt lat="48.85042" lon="-0.50788">
        <ele>159.4</ele>
        <time>2024-04-07T08:20:34Z</time>
      </trkpt>
      <trkpt lat="48.85042" lon="-0.50798">
        <ele>159.6</ele>
        <time>2024-04-07T08:20:35Z</time>
      </trkpt>
      <trkpt lat="48.85042" lon="-0.50807">
        <ele>159.6</ele>
        <time>2024-04-07T08:20:36Z</time>
      </trkpt>
      <trkpt lat="48.8504" lon="-0.50814">
        <ele>159.4</ele>
        <time>2024-04-07T08:20:37Z</time>
      </trkpt>
      <trkpt lat="48.8504" lon="-0.50822">
        <ele>159.4</ele>
        <time>2024-04-07T08:20:38Z</time>
      </trkpt>
      <trkpt lat="48.85041" lon="-0.50831">
        <ele>159.4</ele>
        <time>2024-04-07T08:20:39Z</time>
      </trkpt>
      <trkpt lat="48.85042" lon="-0.5084">
        <ele>159.4</ele>
        <time>2024-04-07T08:20:40Z</time>
      </trkpt>
      <trkpt lat="48.85044" lon="-0.5085">
        <ele>159.6</ele>
        <time>2024-04-07T08:20:41Z</time>
      </trkpt>
      <trkpt lat="48.85045" lon="-0.50859">
        <ele>160</ele>
        <time>2024-04-07T08:20:42Z</time>
      </trkpt>
      <trkpt lat="48.85046" lon="-0.50869">
        <ele>160.6</ele>
        <time>2024-04-07T08:20:43Z</time>
      </trkpt>
      <trkpt lat="48.85047" lon="-0.50879">
        <ele>160.8</ele>
        <time>2024-04-07T08:20:44Z</time>
      </trkpt>
      <trkpt lat="48.85045" lon="-0.50888">
        <ele>161</ele>
        <time>2024-04-07T08:20:45Z</time>
      </trkpt>
      <trkpt lat="48.85046" lon="-0.50897">
        <ele>161.2</ele>
        <time>2024-04-07T08:20:46Z</time>
      </trkpt>
      <trkpt lat="48.85046" lon="-0.50905">
        <ele>161.4</ele>
        <time>2024-04-07T08:20:47Z</time>
      </trkpt>
      <trkpt lat="48.85048" lon="-0.50914">
        <ele>161.8</ele>
        <time>2024-04-07T08:20:48Z</time>
      </trkpt>
      <trkpt lat="48.8505" lon="-0.50922">
        <ele>162</ele>
        <time>2024-04-07T08:20:49Z</time>
      </trkpt>
      <trkpt lat="48.85052" lon="-0.50931">
        <ele>162.2</ele>
        <time>2024-04-07T08:20:50Z</time>
      </trkpt>
      <trkpt lat="48.85055" lon="-0.5094">
        <ele>162.2</ele>
        <time>2024-04-07T08:20:51Z</time>
      </trkpt>
      <trkpt lat="48.85057" lon="-0.50949">
        <ele>162.2</ele>
        <time>2024-04-07T08:20:52Z</time>
      </trkpt>
      <trkpt lat="48.85058" lon="-0.50956">
        <ele>162.4</ele>
        <time>2024-04-07T08:20:53Z</time>
      </trkpt>
      <trkpt lat="48.8506" lon="-0.50964">
        <ele>162.4</ele>
        <time>2024-04-07T08:20:54Z</time>
      </trkpt>
      <trkpt lat="48.85062" lon="-0.50973">
        <ele>162.4</ele>
        <time>2024-04-07T08:20:55Z</time>
      </trkpt>
      <trkpt lat="48.85063" lon="-0.50981">
        <ele>162.6</ele>
        <time>2024-04-07T08:20:56Z</time>
      </trkpt>
      <trkpt lat="48.85065" lon="-0.50989">
        <ele>162.8</ele>
        <time>2024-04-07T08:20:57Z</time>
      </trkpt>
      <trkpt lat="48.85067" lon="-0.50997">
        <ele>162.8</ele>
        <time>2024-04-07T08:20:58Z</time>
      </trkpt>
      <trkpt lat="48.85067" lon="-0.51003">
        <ele>163</ele>
        <time>2024-04-07T08:20:59Z</time>
      </trkpt>
      <trkpt lat="48.85069" lon="-0.5101">
        <ele>163.2</ele>
        <time>2024-04-07T08:21:00Z</time>
      </trkpt>
      <trkpt lat="48.85071" lon="-0.51018">
        <ele>163.4</ele>
        <time>2024-04-07T08:21:01Z</time>
      </trkpt>
      <trkpt lat="48.85072" lon="-0.51027">
        <ele>163.6</ele>
        <time>2024-04-07T08:21:02Z</time>
      </trkpt>
      <trkpt lat="48.85073" lon="-0.51036">
        <ele>163.8</ele>
        <time>2024-04-07T08:21:03Z</time>
      </trkpt>
      <trkpt lat="48.85074" lon="-0.51046">
        <ele>163.8</ele>
        <time>2024-04-07T08:21:04Z</time>
      </trkpt>
      <trkpt lat="48.85076" lon="-0.51055">
        <ele>164</ele>
        <time>2024-04-07T08:21:05Z</time>
      </trkpt>
      <trkpt lat="48.85077" lon="-0.51065">
        <ele>164</ele>
        <time>2024-04-07T08:21:06Z</time>
      </trkpt>
      <trkpt lat="48.85079" lon="-0.51074">
        <ele>164.2</ele>
        <time>2024-04-07T08:21:07Z</time>
      </trkpt>
      <trkpt lat="48.85081" lon="-0.51083">
        <ele>164.2</ele>
        <time>2024-04-07T08:21:08Z</time>
      </trkpt>
      <trkpt lat="48.85083" lon="-0.51092">
        <ele>164.2</ele>
        <time>2024-04-07T08:21:09Z</time>
      </trkpt>
      <trkpt lat="48.85085" lon="-0.51101">
        <ele>164.4</ele>
        <time>2024-04-07T08:21:10Z</time>
      </trkpt>
      <trkpt lat="48.85086" lon="-0.51109">
        <ele>164.4</ele>
        <time>2024-04-07T08:21:11Z</time>
      </trkpt>
      <trkpt lat="48.85088" lon="-0.51118">
        <ele>164.6</ele>
        <time>2024-04-07T08:21:12Z</time>
      </trkpt>
      <trkpt lat="48.8509" lon="-0.51127">
        <ele>164.8</ele>
        <time>2024-04-07T08:21:13Z</time>
      </trkpt>
      <trkpt lat="48.85092" lon="-0.51135">
        <ele>165</ele>
        <time>2024-04-07T08:21:14Z</time>
      </trkpt>
      <trkpt lat="48.85095" lon="-0.51144">
        <ele>165.2</ele>
        <time>2024-04-07T08:21:15Z</time>
      </trkpt>
      <trkpt lat="48.85097" lon="-0.51153">
        <ele>165.4</ele>
        <time>2024-04-07T08:21:16Z</time>
      </trkpt>
      <trkpt lat="48.85098" lon="-0.51162">
        <ele>165.6</ele>
        <time>2024-04-07T08:21:17Z</time>
      </trkpt>
      <trkpt lat="48.851" lon="-0.51172">
        <ele>165.6</ele>
        <time>2024-04-07T08:21:18Z</time>
      </trkpt>
      <trkpt lat="48.85101" lon="-0.51181">
        <ele>165.8</ele>
        <time>2024-04-07T08:21:19Z</time>
      </trkpt>
      <trkpt lat="48.85103" lon="-0.5119">
        <ele>166</ele>
        <time>2024-04-07T08:21:20Z</time>
      </trkpt>
      <trkpt lat="48.85105" lon="-0.51199">
        <ele>166</ele>
        <time>2024-04-07T08:21:21Z</time>
      </trkpt>
      <trkpt lat="48.85106" lon="-0.51209">
        <ele>166.2</ele>
        <time>2024-04-07T08:21:22Z</time>
      </trkpt>
      <trkpt lat="48.85108" lon="-0.51218">
        <ele>166.2</ele>
        <time>2024-04-07T08:21:23Z</time>
      </trkpt>
      <trkpt lat="48.85109" lon="-0.51228">
        <ele>166.2</ele>
        <time>2024-04-07T08:21:24Z</time>
      </trkpt>
      <trkpt lat="48.8511" lon="-0.51237">
        <ele>166</ele>
        <time>2024-04-07T08:21:25Z</time>
      </trkpt>
      <trkpt lat="48.85112" lon="-0.51247">
        <ele>165.8</ele>
        <time>2024-04-07T08:21:26Z</time>
      </trkpt>
      <trkpt lat="48.85113" lon="-0.51256">
        <ele>165.6</ele>
        <time>2024-04-07T08:21:27Z</time>
      </trkpt>
      <trkpt lat="48.85115" lon="-0.51266">
        <ele>165.4</ele>
        <time>2024-04-07T08:21:28Z</time>
      </trkpt>
      <trkpt lat="48.85117" lon="-0.51276">
        <ele>165.2</ele>
        <time>2024-04-07T08:21:29Z</time>
      </trkpt>
      <trkpt lat="48.85119" lon="-0.51287">
        <ele>165</ele>
        <time>2024-04-07T08:21:30Z</time>
      </trkpt>
      <trkpt lat="48.85121" lon="-0.51297">
        <ele>165</ele>
        <time>2024-04-07T08:21:31Z</time>
      </trkpt>
      <trkpt lat="48.85123" lon="-0.51307">
        <ele>164.8</ele>
        <time>2024-04-07T08:21:32Z</time>
      </trkpt>
      <trkpt lat="48.85125" lon="-0.51317">
        <ele>164.8</ele>
        <time>2024-04-07T08:21:33Z</time>
      </trkpt>
      <trkpt lat="48.85127" lon="-0.51326">
        <ele>164.8</ele>
        <time>2024-04-07T08:21:34Z</time>
      </trkpt>
      <trkpt lat="48.85128" lon="-0.51336">
        <ele>164.8</ele>
        <time>2024-04-07T08:21:35Z</time>
      </trkpt>
      <trkpt lat="48.8513" lon="-0.51346">
        <ele>165</ele>
        <time>2024-04-07T08:21:36Z</time>
      </trkpt>
      <trkpt lat="48.85132" lon="-0.51356">
        <ele>165</ele>
        <time>2024-04-07T08:21:37Z</time>
      </trkpt>
      <trkpt lat="48.85134" lon="-0.51366">
        <ele>165.2</ele>
        <time>2024-04-07T08:21:38Z</time>
      </trkpt>
      <trkpt lat="48.85136" lon="-0.51375">
        <ele>165.6</ele>
        <time>2024-04-07T08:21:39Z</time>
      </trkpt>
      <trkpt lat="48.85138" lon="-0.51385">
        <ele>166</ele>
        <time>2024-04-07T08:21:40Z</time>
      </trkpt>
      <trkpt lat="48.8514" lon="-0.51394">
        <ele>166.2</ele>
        <time>2024-04-07T08:21:41Z</time>
      </trkpt>
      <trkpt lat="48.85142" lon="-0.51404">
        <ele>166.2</ele>
        <time>2024-04-07T08:21:42Z</time>
      </trkpt>
      <trkpt lat="48.85144" lon="-0.51414">
        <ele>166.2</ele>
        <time>2024-04-07T08:21:43Z</time>
      </trkpt>
      <trkpt lat="48.85146" lon="-0.51423">
        <ele>166.2</ele>
        <time>2024-04-07T08:21:44Z</time>
      </trkpt>
      <trkpt lat="48.85147" lon="-0.51433">
        <ele>166.2</ele>
        <time>2024-04-07T08:21:45Z</time>
      </trkpt>
      <trkpt lat="48.85148" lon="-0.51442">
        <ele>166</ele>
        <time>2024-04-07T08:21:46Z</time>
      </trkpt>
      <trkpt lat="48.8515" lon="-0.51452">
        <ele>166</ele>
        <time>2024-04-07T08:21:47Z</time>
      </trkpt>
      <trkpt lat="48.85151" lon="-0.51461">
        <ele>166</ele>
        <time>2024-04-07T08:21:48Z</time>
      </trkpt>
      <trkpt lat="48.85152" lon="-0.51472">
        <ele>166.2</ele>
        <time>2024-04-07T08:21:49Z</time>
      </trkpt>
      <trkpt lat="48.85153" lon="-0.51482">
        <ele>166.4</ele>
        <time>2024-04-07T08:21:50Z</time>
      </trkpt>
      <trkpt lat="48.85153" lon="-0.51492">
        <ele>166.4</ele>
        <time>2024-04-07T08:21:51Z</time>
      </trkpt>
      <trkpt lat="48.85153" lon="-0.51502">
        <ele>166.4</ele>
        <time>2024-04-07T08:21:52Z</time>
      </trkpt>
      <trkpt lat="48.85153" lon="-0.51511">
        <ele>166.4</ele>
        <time>2024-04-07T08:21:53Z</time>
      </trkpt>
      <trkpt lat="48.85152" lon="-0.5152">
        <ele>166.4</ele>
        <time>2024-04-07T08:21:54Z</time>
      </trkpt>
      <trkpt lat="48.85152" lon="-0.51529">
        <ele>166.4</ele>
        <time>2024-04-07T08:21:55Z</time>
      </trkpt>
      <trkpt lat="48.85151" lon="-0.51539">
        <ele>166.4</ele>
        <time>2024-04-07T08:21:56Z</time>
      </trkpt>
      <trkpt lat="48.85149" lon="-0.51549">
        <ele>166.4</ele>
        <time>2024-04-07T08:21:57Z</time>
      </trkpt>
      <trkpt lat="48.85147" lon="-0.51559">
        <ele>166.4</ele>
        <time>2024-04-07T08:21:58Z</time>
      </trkpt>
      <trkpt lat="48.85144" lon="-0.5157">
        <ele>166.4</ele>
        <time>2024-04-07T08:21:59Z</time>
      </trkpt>
      <trkpt lat="48.85142" lon="-0.51581">
        <ele>166.4</ele>
        <time>2024-04-07T08:22:00Z</time>
      </trkpt>
      <trkpt lat="48.85139" lon="-0.51591">
        <ele>166.4</ele>
        <time>2024-04-07T08:22:01Z</time>
      </trkpt>
      <trkpt lat="48.85136" lon="-0.51601">
        <ele>166.2</ele>
        <time>2024-04-07T08:22:02Z</time>
      </trkpt>
      <trkpt lat="48.85132" lon="-0.51611">
        <ele>165.4</ele>
        <time>2024-04-07T08:22:03Z</time>
      </trkpt>
      <trkpt lat="48.85128" lon="-0.51621">
        <ele>164.2</ele>
        <time>2024-04-07T08:22:04Z</time>
      </trkpt>
      <trkpt lat="48.85123" lon="-0.51631">
        <ele>163</ele>
        <time>2024-04-07T08:22:05Z</time>
      </trkpt>
      <trkpt lat="48.85118" lon="-0.51641">
        <ele>162</ele>
        <time>2024-04-07T08:22:06Z</time>
      </trkpt>
      <trkpt lat="48.85113" lon="-0.51651">
        <ele>161.4</ele>
        <time>2024-04-07T08:22:07Z</time>
      </trkpt>
      <trkpt lat="48.85108" lon="-0.51662">
        <ele>160.8</ele>
        <time>2024-04-07T08:22:08Z</time>
      </trkpt>
      <trkpt lat="48.85103" lon="-0.51672">
        <ele>159.8</ele>
        <time>2024-04-07T08:22:09Z</time>
      </trkpt>
      <trkpt lat="48.85098" lon="-0.51683">
        <ele>159</ele>
        <time>2024-04-07T08:22:10Z</time>
      </trkpt>
      <trkpt lat="48.85093" lon="-0.51694">
        <ele>158.2</ele>
        <time>2024-04-07T08:22:11Z</time>
      </trkpt>
      <trkpt lat="48.85087" lon="-0.51705">
        <ele>157.6</ele>
        <time>2024-04-07T08:22:12Z</time>
      </trkpt>
      <trkpt lat="48.85081" lon="-0.51716">
        <ele>157.2</ele>
        <time>2024-04-07T08:22:13Z</time>
      </trkpt>
      <trkpt lat="48.85075" lon="-0.51727">
        <ele>156.6</ele>
        <time>2024-04-07T08:22:14Z</time>
      </trkpt>
      <trkpt lat="48.85069" lon="-0.51739">
        <ele>156.2</ele>
        <time>2024-04-07T08:22:15Z</time>
      </trkpt>
      <trkpt lat="48.85063" lon="-0.5175">
        <ele>155.6</ele>
        <time>2024-04-07T08:22:16Z</time>
      </trkpt>
      <trkpt lat="48.85057" lon="-0.51761">
        <ele>155.4</ele>
        <time>2024-04-07T08:22:17Z</time>
      </trkpt>
      <trkpt lat="48.85051" lon="-0.51772">
        <ele>155.2</ele>
        <time>2024-04-07T08:22:18Z</time>
      </trkpt>
      <trkpt lat="48.85046" lon="-0.51782">
        <ele>155</ele>
        <time>2024-04-07T08:22:19Z</time>
      </trkpt>
      <trkpt lat="48.8504" lon="-0.51793">
        <ele>155</ele>
        <time>2024-04-07T08:22:20Z</time>
      </trkpt>
      <trkpt lat="48.85035" lon="-0.51802">
        <ele>154.8</ele>
        <time>2024-04-07T08:22:21Z</time>
      </trkpt>
      <trkpt lat="48.85031" lon="-0.51811">
        <ele>155</ele>
        <time>2024-04-07T08:22:22Z</time>
      </trkpt>
      <trkpt lat="48.85028" lon="-0.51821">
        <ele>155</ele>
        <time>2024-04-07T08:22:23Z</time>
      </trkpt>
      <trkpt lat="48.85026" lon="-0.51833">
        <ele>155</ele>
        <time>2024-04-07T08:22:24Z</time>
      </trkpt>
      <trkpt lat="48.85025" lon="-0.51845">
        <ele>155.4</ele>
        <time>2024-04-07T08:22:25Z</time>
      </trkpt>
      <trkpt lat="48.85024" lon="-0.51857">
        <ele>156</ele>
        <time>2024-04-07T08:22:26Z</time>
      </trkpt>
      <trkpt lat="48.85022" lon="-0.5187">
        <ele>156.4</ele>
        <time>2024-04-07T08:22:27Z</time>
      </trkpt>
      <trkpt lat="48.85021" lon="-0.51882">
        <ele>156.6</ele>
        <time>2024-04-07T08:22:28Z</time>
      </trkpt>
      <trkpt lat="48.8502" lon="-0.51893">
        <ele>156.6</ele>
        <time>2024-04-07T08:22:29Z</time>
      </trkpt>
      <trkpt lat="48.85019" lon="-0.51905">
        <ele>156.4</ele>
        <time>2024-04-07T08:22:30Z</time>
      </trkpt>
      <trkpt lat="48.85018" lon="-0.51917">
        <ele>156</ele>
        <time>2024-04-07T08:22:31Z</time>
      </trkpt>
      <trkpt lat="48.85017" lon="-0.51929">
        <ele>155.2</ele>
        <time>2024-04-07T08:22:32Z</time>
      </trkpt>
      <trkpt lat="48.85015" lon="-0.51941">
        <ele>154.8</ele>
        <time>2024-04-07T08:22:33Z</time>
      </trkpt>
      <trkpt lat="48.85013" lon="-0.51952">
        <ele>154.2</ele>
        <time>2024-04-07T08:22:34Z</time>
      </trkpt>
      <trkpt lat="48.85011" lon="-0.51963">
        <ele>153.6</ele>
        <time>2024-04-07T08:22:35Z</time>
      </trkpt>
      <trkpt lat="48.85009" lon="-0.51974">
        <ele>153.2</ele>
        <time>2024-04-07T08:22:36Z</time>
      </trkpt>
      <trkpt lat="48.85007" lon="-0.51986">
        <ele>153</ele>
        <time>2024-04-07T08:22:37Z</time>
      </trkpt>
      <trkpt lat="48.85004" lon="-0.51996">
        <ele>153.2</ele>
        <time>2024-04-07T08:22:38Z</time>
      </trkpt>
      <trkpt lat="48.85001" lon="-0.52007">
        <ele>153.8</ele>
        <time>2024-04-07T08:22:39Z</time>
      </trkpt>
      <trkpt lat="48.84997" lon="-0.52017">
        <ele>154.4</ele>
        <time>2024-04-07T08:22:40Z</time>
      </trkpt>
      <trkpt lat="48.84994" lon="-0.52027">
        <ele>154.8</ele>
        <time>2024-04-07T08:22:41Z</time>
      </trkpt>
      <trkpt lat="48.8499" lon="-0.52038">
        <ele>155</ele>
        <time>2024-04-07T08:22:42Z</time>
      </trkpt>
      <trkpt lat="48.84986" lon="-0.52048">
        <ele>155.2</ele>
        <time>2024-04-07T08:22:43Z</time>
      </trkpt>
      <trkpt lat="48.84983" lon="-0.52057">
        <ele>155.2</ele>
        <time>2024-04-07T08:22:44Z</time>
      </trkpt>
      <trkpt lat="48.8498" lon="-0.52068">
        <ele>155</ele>
        <time>2024-04-07T08:22:45Z</time>
      </trkpt>
      <trkpt lat="48.84978" lon="-0.52078">
        <ele>154.8</ele>
        <time>2024-04-07T08:22:46Z</time>
      </trkpt>
      <trkpt lat="48.84978" lon="-0.5209">
        <ele>154.8</ele>
        <time>2024-04-07T08:22:47Z</time>
      </trkpt>
      <trkpt lat="48.84979" lon="-0.521">
        <ele>154.6</ele>
        <time>2024-04-07T08:22:48Z</time>
      </trkpt>
      <trkpt lat="48.84981" lon="-0.5211">
        <ele>154.6</ele>
        <time>2024-04-07T08:22:49Z</time>
      </trkpt>
      <trkpt lat="48.84985" lon="-0.5212">
        <ele>154.6</ele>
        <time>2024-04-07T08:22:50Z</time>
      </trkpt>
      <trkpt lat="48.84989" lon="-0.52128">
        <ele>154.8</ele>
        <time>2024-04-07T08:22:51Z</time>
      </trkpt>
      <trkpt lat="48.84994" lon="-0.52136">
        <ele>154.8</ele>
        <time>2024-04-07T08:22:52Z</time>
      </trkpt>
      <trkpt lat="48.84999" lon="-0.52143">
        <ele>155</ele>
        <time>2024-04-07T08:22:53Z</time>
      </trkpt>
      <trkpt lat="48.85004" lon="-0.52151">
        <ele>155</ele>
        <time>2024-04-07T08:22:54Z</time>
      </trkpt>
      <trkpt lat="48.8501" lon="-0.52159">
        <ele>155.2</ele>
        <time>2024-04-07T08:22:55Z</time>
      </trkpt>
      <trkpt lat="48.85016" lon="-0.52167">
        <ele>155.2</ele>
        <time>2024-04-07T08:22:56Z</time>
      </trkpt>
      <trkpt lat="48.8502" lon="-0.52175">
        <ele>155.2</ele>
        <time>2024-04-07T08:22:57Z</time>
      </trkpt>
      <trkpt lat="48.85025" lon="-0.52183">
        <ele>155.2</ele>
        <time>2024-04-07T08:22:58Z</time>
      </trkpt>
      <trkpt lat="48.8503" lon="-0.52192">
        <ele>155.2</ele>
        <time>2024-04-07T08:22:59Z</time>
      </trkpt>
      <trkpt lat="48.85034" lon="-0.52201">
        <ele>155.4</ele>
        <time>2024-04-07T08:23:00Z</time>
      </trkpt>
      <trkpt lat="48.85038" lon="-0.52211">
        <ele>155.6</ele>
        <time>2024-04-07T08:23:01Z</time>
      </trkpt>
      <trkpt lat="48.85042" lon="-0.5222">
        <ele>155.4</ele>
        <time>2024-04-07T08:23:02Z</time>
      </trkpt>
      <trkpt lat="48.85046" lon="-0.52228">
        <ele>155.6</ele>
        <time>2024-04-07T08:23:03Z</time>
      </trkpt>
      <trkpt lat="48.8505" lon="-0.52238">
        <ele>155.6</ele>
        <time>2024-04-07T08:23:04Z</time>
      </trkpt>
      <trkpt lat="48.85054" lon="-0.52247">
        <ele>155.6</ele>
        <time>2024-04-07T08:23:05Z</time>
      </trkpt>
      <trkpt lat="48.85058" lon="-0.52256">
        <ele>155.6</ele>
        <time>2024-04-07T08:23:06Z</time>
      </trkpt>
      <trkpt lat="48.85062" lon="-0.52265">
        <ele>155.6</ele>
        <time>2024-04-07T08:23:07Z</time>
      </trkpt>
      <trkpt lat="48.85066" lon="-0.52274">
        <ele>155.8</ele>
        <time>2024-04-07T08:23:08Z</time>
      </trkpt>
      <trkpt lat="48.8507" lon="-0.52283">
        <ele>155.8</ele>
        <time>2024-04-07T08:23:09Z</time>
      </trkpt>
      <trkpt lat="48.85075" lon="-0.52292">
        <ele>156</ele>
        <time>2024-04-07T08:23:10Z</time>
      </trkpt>
      <trkpt lat="48.85079" lon="-0.52301">
        <ele>156.2</ele>
        <time>2024-04-07T08:23:11Z</time>
      </trkpt>
      <trkpt lat="48.85083" lon="-0.5231">
        <ele>156.4</ele>
        <time>2024-04-07T08:23:12Z</time>
      </trkpt>
      <trkpt lat="48.85087" lon="-0.5232">
        <ele>156.6</ele>
        <time>2024-04-07T08:23:13Z</time>
      </trkpt>
      <trkpt lat="48.8509" lon="-0.52329">
        <ele>156.6</ele>
        <time>2024-04-07T08:23:14Z</time>
      </trkpt>
      <trkpt lat="48.85094" lon="-0.52337">
        <ele>156.6</ele>
        <time>2024-04-07T08:23:15Z</time>
      </trkpt>
      <trkpt lat="48.85097" lon="-0.52346">
        <ele>156.6</ele>
        <time>2024-04-07T08:23:16Z</time>
      </trkpt>
      <trkpt lat="48.85101" lon="-0.52355">
        <ele>156.8</ele>
        <time>2024-04-07T08:23:17Z</time>
      </trkpt>
      <trkpt lat="48.85105" lon="-0.52365">
        <ele>157</ele>
        <time>2024-04-07T08:23:18Z</time>
      </trkpt>
      <trkpt lat="48.8511" lon="-0.52375">
        <ele>157.2</ele>
        <time>2024-04-07T08:23:19Z</time>
      </trkpt>
      <trkpt lat="48.85115" lon="-0.52384">
        <ele>157.4</ele>
        <time>2024-04-07T08:23:20Z</time>
      </trkpt>
      <trkpt lat="48.85118" lon="-0.52395">
        <ele>157.6</ele>
        <time>2024-04-07T08:23:21Z</time>
      </trkpt>
      <trkpt lat="48.85123" lon="-0.52404">
        <ele>157.6</ele>
        <time>2024-04-07T08:23:22Z</time>
      </trkpt>
      <trkpt lat="48.85127" lon="-0.52414">
        <ele>157.6</ele>
        <time>2024-04-07T08:23:23Z</time>
      </trkpt>
      <trkpt lat="48.85132" lon="-0.52423">
        <ele>157.4</ele>
        <time>2024-04-07T08:23:24Z</time>
      </trkpt>
      <trkpt lat="48.85136" lon="-0.52432">
        <ele>157</ele>
        <time>2024-04-07T08:23:25Z</time>
      </trkpt>
      <trkpt lat="48.85141" lon="-0.52441">
        <ele>156.8</ele>
        <time>2024-04-07T08:23:26Z</time>
      </trkpt>
      <trkpt lat="48.85145" lon="-0.52451">
        <ele>156.6</ele>
        <time>2024-04-07T08:23:27Z</time>
      </trkpt>
      <trkpt lat="48.85149" lon="-0.5246">
        <ele>156.6</ele>
        <time>2024-04-07T08:23:28Z</time>
      </trkpt>
      <trkpt lat="48.85153" lon="-0.52469">
        <ele>156.8</ele>
        <time>2024-04-07T08:23:29Z</time>
      </trkpt>
      <trkpt lat="48.85158" lon="-0.52478">
        <ele>157</ele>
        <time>2024-04-07T08:23:30Z</time>
      </trkpt>
      <trkpt lat="48.85162" lon="-0.52487">
        <ele>157</ele>
        <time>2024-04-07T08:23:31Z</time>
      </trkpt>
      <trkpt lat="48.85166" lon="-0.52496">
        <ele>157.2</ele>
        <time>2024-04-07T08:23:32Z</time>
      </trkpt>
      <trkpt lat="48.8517" lon="-0.52505">
        <ele>157.2</ele>
        <time>2024-04-07T08:23:33Z</time>
      </trkpt>
      <trkpt lat="48.85174" lon="-0.52514">
        <ele>157.2</ele>
        <time>2024-04-07T08:23:34Z</time>
      </trkpt>
      <trkpt lat="48.85178" lon="-0.52522">
        <ele>157.2</ele>
        <time>2024-04-07T08:23:35Z</time>
      </trkpt>
      <trkpt lat="48.85181" lon="-0.52531">
        <ele>157</ele>
        <time>2024-04-07T08:23:36Z</time>
      </trkpt>
      <trkpt lat="48.85184" lon="-0.5254">
        <ele>157</ele>
        <time>2024-04-07T08:23:37Z</time>
      </trkpt>
      <trkpt lat="48.85188" lon="-0.52548">
        <ele>157</ele>
        <time>2024-04-07T08:23:38Z</time>
      </trkpt>
      <trkpt lat="48.8519" lon="-0.52556">
        <ele>157</ele>
        <time>2024-04-07T08:23:39Z</time>
      </trkpt>
      <trkpt lat="48.85193" lon="-0.52565">
        <ele>157</ele>
        <time>2024-04-07T08:23:40Z</time>
      </trkpt>
      <trkpt lat="48.85195" lon="-0.52574">
        <ele>157</ele>
        <time>2024-04-07T08:23:41Z</time>
      </trkpt>
      <trkpt lat="48.85197" lon="-0.52582">
        <ele>157</ele>
        <time>2024-04-07T08:23:42Z</time>
      </trkpt>
      <trkpt lat="48.85199" lon="-0.5259">
        <ele>157</ele>
        <time>2024-04-07T08:23:43Z</time>
      </trkpt>
      <trkpt lat="48.85201" lon="-0.52599">
        <ele>157.2</ele>
        <time>2024-04-07T08:23:44Z</time>
      </trkpt>
      <trkpt lat="48.85203" lon="-0.52607">
        <ele>157.6</ele>
        <time>2024-04-07T08:23:45Z</time>
      </trkpt>
      <trkpt lat="48.85205" lon="-0.52615">
        <ele>158</ele>
        <time>2024-04-07T08:23:46Z</time>
      </trkpt>
      <trkpt lat="48.85207" lon="-0.52624">
        <ele>158.6</ele>
        <time>2024-04-07T08:23:47Z</time>
      </trkpt>
      <trkpt lat="48.8521" lon="-0.52633">
        <ele>158.8</ele>
        <time>2024-04-07T08:23:48Z</time>
      </trkpt>
      <trkpt lat="48.85211" lon="-0.52642">
        <ele>159</ele>
        <time>2024-04-07T08:23:49Z</time>
      </trkpt>
      <trkpt lat="48.85213" lon="-0.52651">
        <ele>159.2</ele>
        <time>2024-04-07T08:23:50Z</time>
      </trkpt>
      <trkpt lat="48.85215" lon="-0.52659">
        <ele>159.2</ele>
        <time>2024-04-07T08:23:51Z</time>
      </trkpt>
      <trkpt lat="48.85218" lon="-0.52668">
        <ele>159.2</ele>
        <time>2024-04-07T08:23:52Z</time>
      </trkpt>
      <trkpt lat="48.8522" lon="-0.52677">
        <ele>159.2</ele>
        <time>2024-04-07T08:23:53Z</time>
      </trkpt>
      <trkpt lat="48.85222" lon="-0.52685">
        <ele>159.2</ele>
        <time>2024-04-07T08:23:54Z</time>
      </trkpt>
      <trkpt lat="48.85225" lon="-0.52695">
        <ele>159.4</ele>
        <time>2024-04-07T08:23:55Z</time>
      </trkpt>
      <trkpt lat="48.85226" lon="-0.52704">
        <ele>159.6</ele>
        <time>2024-04-07T08:23:56Z</time>
      </trkpt>
      <trkpt lat="48.85228" lon="-0.52714">
        <ele>159.8</ele>
        <time>2024-04-07T08:23:57Z</time>
      </trkpt>
      <trkpt lat="48.8523" lon="-0.52723">
        <ele>160</ele>
        <time>2024-04-07T08:23:58Z</time>
      </trkpt>
      <trkpt lat="48.85232" lon="-0.52734">
        <ele>160.2</ele>
        <time>2024-04-07T08:23:59Z</time>
      </trkpt>
      <trkpt lat="48.85234" lon="-0.52743">
        <ele>160.8</ele>
        <time>2024-04-07T08:24:00Z</time>
      </trkpt>
      <trkpt lat="48.85235" lon="-0.52754">
        <ele>161.2</ele>
        <time>2024-04-07T08:24:01Z</time>
      </trkpt>
      <trkpt lat="48.85237" lon="-0.52763">
        <ele>161.4</ele>
        <time>2024-04-07T08:24:02Z</time>
      </trkpt>
      <trkpt lat="48.85238" lon="-0.52773">
        <ele>161.6</ele>
        <time>2024-04-07T08:24:03Z</time>
      </trkpt>
      <trkpt lat="48.85239" lon="-0.52784">
        <ele>161.4</ele>
        <time>2024-04-07T08:24:04Z</time>
      </trkpt>
      <trkpt lat="48.8524" lon="-0.52795">
        <ele>161.2</ele>
        <time>2024-04-07T08:24:05Z</time>
      </trkpt>
      <trkpt lat="48.8524" lon="-0.52805">
        <ele>161.2</ele>
        <time>2024-04-07T08:24:06Z</time>
      </trkpt>
      <trkpt lat="48.8524" lon="-0.52816">
        <ele>161</ele>
        <time>2024-04-07T08:24:07Z</time>
      </trkpt>
      <trkpt lat="48.8524" lon="-0.52826">
        <ele>160.8</ele>
        <time>2024-04-07T08:24:08Z</time>
      </trkpt>
      <trkpt lat="48.85239" lon="-0.52837">
        <ele>160.8</ele>
        <time>2024-04-07T08:24:09Z</time>
      </trkpt>
      <trkpt lat="48.85239" lon="-0.52846">
        <ele>160.8</ele>
        <time>2024-04-07T08:24:10Z</time>
      </trkpt>
      <trkpt lat="48.85238" lon="-0.52855">
        <ele>160.6</ele>
        <time>2024-04-07T08:24:11Z</time>
      </trkpt>
      <trkpt lat="48.85238" lon="-0.52865">
        <ele>160.8</ele>
        <time>2024-04-07T08:24:12Z</time>
      </trkpt>
      <trkpt lat="48.85236" lon="-0.52876">
        <ele>160.8</ele>
        <time>2024-04-07T08:24:13Z</time>
      </trkpt>
      <trkpt lat="48.85235" lon="-0.52886">
        <ele>160.8</ele>
        <time>2024-04-07T08:24:14Z</time>
      </trkpt>
      <trkpt lat="48.85234" lon="-0.52897">
        <ele>161</ele>
        <time>2024-04-07T08:24:15Z</time>
      </trkpt>
      <trkpt lat="48.85233" lon="-0.52907">
        <ele>161</ele>
        <time>2024-04-07T08:24:16Z</time>
      </trkpt>
      <trkpt lat="48.85231" lon="-0.52918">
        <ele>161</ele>
        <time>2024-04-07T08:24:17Z</time>
      </trkpt>
      <trkpt lat="48.85229" lon="-0.52929">
        <ele>161.2</ele>
        <time>2024-04-07T08:24:18Z</time>
      </trkpt>
      <trkpt lat="48.85228" lon="-0.52939">
        <ele>161.4</ele>
        <time>2024-04-07T08:24:19Z</time>
      </trkpt>
      <trkpt lat="48.85226" lon="-0.52951">
        <ele>161.8</ele>
        <time>2024-04-07T08:24:20Z</time>
      </trkpt>
      <trkpt lat="48.85225" lon="-0.52961">
        <ele>161.8</ele>
        <time>2024-04-07T08:24:21Z</time>
      </trkpt>
      <trkpt lat="48.85223" lon="-0.52972">
        <ele>162</ele>
        <time>2024-04-07T08:24:22Z</time>
      </trkpt>
      <trkpt lat="48.85221" lon="-0.52983">
        <ele>162</ele>
        <time>2024-04-07T08:24:23Z</time>
      </trkpt>
      <trkpt lat="48.8522" lon="-0.52994">
        <ele>162</ele>
        <time>2024-04-07T08:24:24Z</time>
      </trkpt>
      <trkpt lat="48.85218" lon="-0.53005">
        <ele>162</ele>
        <time>2024-04-07T08:24:25Z</time>
      </trkpt>
      <trkpt lat="48.85216" lon="-0.53016">
        <ele>162</ele>
        <time>2024-04-07T08:24:26Z</time>
      </trkpt>
      <trkpt lat="48.85214" lon="-0.53027">
        <ele>162</ele>
        <time>2024-04-07T08:24:27Z</time>
      </trkpt>
      <trkpt lat="48.85213" lon="-0.53037">
        <ele>162</ele>
        <time>2024-04-07T08:24:28Z</time>
      </trkpt>
      <trkpt lat="48.85211" lon="-0.53048">
        <ele>161.8</ele>
        <time>2024-04-07T08:24:29Z</time>
      </trkpt>
      <trkpt lat="48.85209" lon="-0.53058">
        <ele>161.8</ele>
        <time>2024-04-07T08:24:30Z</time>
      </trkpt>
      <trkpt lat="48.85208" lon="-0.53068">
        <ele>161.8</ele>
        <time>2024-04-07T08:24:31Z</time>
      </trkpt>
      <trkpt lat="48.85206" lon="-0.53079">
        <ele>161.8</ele>
        <time>2024-04-07T08:24:32Z</time>
      </trkpt>
      <trkpt lat="48.85204" lon="-0.53089">
        <ele>161.8</ele>
        <time>2024-04-07T08:24:33Z</time>
      </trkpt>
      <trkpt lat="48.85203" lon="-0.53099">
        <ele>161.8</ele>
        <time>2024-04-07T08:24:34Z</time>
      </trkpt>
      <trkpt lat="48.85202" lon="-0.53108">
        <ele>161.8</ele>
        <time>2024-04-07T08:24:35Z</time>
      </trkpt>
      <trkpt lat="48.852" lon="-0.53118">
        <ele>162</ele>
        <time>2024-04-07T08:24:36Z</time>
      </trkpt>
      <trkpt lat="48.85199" lon="-0.53127">
        <ele>162.2</ele>
        <time>2024-04-07T08:24:37Z</time>
      </trkpt>
      <trkpt lat="48.85197" lon="-0.53137">
        <ele>162.4</ele>
        <time>2024-04-07T08:24:38Z</time>
      </trkpt>
      <trkpt lat="48.85196" lon="-0.53147">
        <ele>162.4</ele>
        <time>2024-04-07T08:24:39Z</time>
      </trkpt>
      <trkpt lat="48.85195" lon="-0.53156">
        <ele>162.6</ele>
        <time>2024-04-07T08:24:40Z</time>
      </trkpt>
      <trkpt lat="48.85194" lon="-0.53166">
        <ele>162.6</ele>
        <time>2024-04-07T08:24:41Z</time>
      </trkpt>
      <trkpt lat="48.85192" lon="-0.53176">
        <ele>162.6</ele>
        <time>2024-04-07T08:24:42Z</time>
      </trkpt>
      <trkpt lat="48.85191" lon="-0.53186">
        <ele>162.6</ele>
        <time>2024-04-07T08:24:43Z</time>
      </trkpt>
      <trkpt lat="48.85189" lon="-0.53196">
        <ele>162.6</ele>
        <time>2024-04-07T08:24:44Z</time>
      </trkpt>
      <trkpt lat="48.85188" lon="-0.53206">
        <ele>162.8</ele>
        <time>2024-04-07T08:24:45Z</time>
      </trkpt>
      <trkpt lat="48.85187" lon="-0.53216">
        <ele>163</ele>
        <time>2024-04-07T08:24:46Z</time>
      </trkpt>
      <trkpt lat="48.85185" lon="-0.53226">
        <ele>163</ele>
        <time>2024-04-07T08:24:47Z</time>
      </trkpt>
      <trkpt lat="48.85183" lon="-0.53236">
        <ele>163</ele>
        <time>2024-04-07T08:24:48Z</time>
      </trkpt>
      <trkpt lat="48.85182" lon="-0.53246">
        <ele>163.2</ele>
        <time>2024-04-07T08:24:49Z</time>
      </trkpt>
      <trkpt lat="48.8518" lon="-0.53256">
        <ele>163.2</ele>
        <time>2024-04-07T08:24:50Z</time>
      </trkpt>
      <trkpt lat="48.85178" lon="-0.53265">
        <ele>163.2</ele>
        <time>2024-04-07T08:24:51Z</time>
      </trkpt>
      <trkpt lat="48.85177" lon="-0.53274">
        <ele>163.2</ele>
        <time>2024-04-07T08:24:52Z</time>
      </trkpt>
      <trkpt lat="48.85175" lon="-0.53283">
        <ele>163.2</ele>
        <time>2024-04-07T08:24:53Z</time>
      </trkpt>
      <trkpt lat="48.85174" lon="-0.53291">
        <ele>163.2</ele>
        <time>2024-04-07T08:24:54Z</time>
      </trkpt>
      <trkpt lat="48.85172" lon="-0.53301">
        <ele>163.4</ele>
        <time>2024-04-07T08:24:55Z</time>
      </trkpt>
      <trkpt lat="48.85171" lon="-0.53309">
        <ele>163.4</ele>
        <time>2024-04-07T08:24:56Z</time>
      </trkpt>
      <trkpt lat="48.85169" lon="-0.53318">
        <ele>163.6</ele>
        <time>2024-04-07T08:24:57Z</time>
      </trkpt>
      <trkpt lat="48.85167" lon="-0.53327">
        <ele>163.6</ele>
        <time>2024-04-07T08:24:58Z</time>
      </trkpt>
      <trkpt lat="48.85166" lon="-0.53336">
        <ele>163.8</ele>
        <time>2024-04-07T08:24:59Z</time>
      </trkpt>
      <trkpt lat="48.85164" lon="-0.53345">
        <ele>164</ele>
        <time>2024-04-07T08:25:00Z</time>
      </trkpt>
      <trkpt lat="48.85163" lon="-0.53355">
        <ele>164.2</ele>
        <time>2024-04-07T08:25:01Z</time>
      </trkpt>
      <trkpt lat="48.85161" lon="-0.53364">
        <ele>164.4</ele>
        <time>2024-04-07T08:25:02Z</time>
      </trkpt>
      <trkpt lat="48.8516" lon="-0.53373">
        <ele>164.4</ele>
        <time>2024-04-07T08:25:03Z</time>
      </trkpt>
      <trkpt lat="48.85159" lon="-0.53383">
        <ele>164.6</ele>
        <time>2024-04-07T08:25:04Z</time>
      </trkpt>
      <trkpt lat="48.85158" lon="-0.53393">
        <ele>164.8</ele>
        <time>2024-04-07T08:25:05Z</time>
      </trkpt>
      <trkpt lat="48.85156" lon="-0.53403">
        <ele>165</ele>
        <time>2024-04-07T08:25:06Z</time>
      </trkpt>
      <trkpt lat="48.85155" lon="-0.53413">
        <ele>165</ele>
        <time>2024-04-07T08:25:07Z</time>
      </trkpt>
      <trkpt lat="48.85153" lon="-0.53422">
        <ele>165</ele>
        <time>2024-04-07T08:25:08Z</time>
      </trkpt>
      <trkpt lat="48.85152" lon="-0.53431">
        <ele>165</ele>
        <time>2024-04-07T08:25:09Z</time>
      </trkpt>
      <trkpt lat="48.85151" lon="-0.5344">
        <ele>165</ele>
        <time>2024-04-07T08:25:10Z</time>
      </trkpt>
      <trkpt lat="48.85149" lon="-0.53449">
        <ele>164.8</ele>
        <time>2024-04-07T08:25:11Z</time>
      </trkpt>
      <trkpt lat="48.85148" lon="-0.53458">
        <ele>164.8</ele>
        <time>2024-04-07T08:25:12Z</time>
      </trkpt>
      <trkpt lat="48.85147" lon="-0.53466">
        <ele>164.8</ele>
        <time>2024-04-07T08:25:13Z</time>
      </trkpt>
      <trkpt lat="48.85146" lon="-0.53475">
        <ele>164.8</ele>
        <time>2024-04-07T08:25:14Z</time>
      </trkpt>
      <trkpt lat="48.85145" lon="-0.53483">
        <ele>165</ele>
        <time>2024-04-07T08:25:15Z</time>
      </trkpt>
      <trkpt lat="48.85144" lon="-0.5349">
        <ele>165</ele>
        <time>2024-04-07T08:25:16Z</time>
      </trkpt>
      <trkpt lat="48.85142" lon="-0.53497">
        <ele>165.2</ele>
        <time>2024-04-07T08:25:17Z</time>
      </trkpt>
      <trkpt lat="48.85138" lon="-0.53502">
        <ele>165.4</ele>
        <time>2024-04-07T08:25:18Z</time>
      </trkpt>
      <trkpt lat="48.85133" lon="-0.53506">
        <ele>165.4</ele>
        <time>2024-04-07T08:25:19Z</time>
      </trkpt>
      <trkpt lat="48.85128" lon="-0.53506">
        <ele>165.6</ele>
        <time>2024-04-07T08:25:20Z</time>
      </trkpt>
      <trkpt lat="48.85123" lon="-0.53502">
        <ele>165.6</ele>
        <time>2024-04-07T08:25:21Z</time>
      </trkpt>
      <trkpt lat="48.85117" lon="-0.53496">
        <ele>165.4</ele>
        <time>2024-04-07T08:25:22Z</time>
      </trkpt>
      <trkpt lat="48.85112" lon="-0.53488">
        <ele>165.2</ele>
        <time>2024-04-07T08:25:23Z</time>
      </trkpt>
      <trkpt lat="48.85107" lon="-0.53481">
        <ele>165.2</ele>
        <time>2024-04-07T08:25:24Z</time>
      </trkpt>
      <trkpt lat="48.85101" lon="-0.53472">
        <ele>165</ele>
        <time>2024-04-07T08:25:25Z</time>
      </trkpt>
      <trkpt lat="48.85095" lon="-0.53464">
        <ele>164.8</ele>
        <time>2024-04-07T08:25:26Z</time>
      </trkpt>
      <trkpt lat="48.85089" lon="-0.53455">
        <ele>164.4</ele>
        <time>2024-04-07T08:25:27Z</time>
      </trkpt>
      <trkpt lat="48.85083" lon="-0.53446">
        <ele>164.2</ele>
        <time>2024-04-07T08:25:28Z</time>
      </trkpt>
      <trkpt lat="48.85076" lon="-0.53438">
        <ele>163.8</ele>
        <time>2024-04-07T08:25:29Z</time>
      </trkpt>
      <trkpt lat="48.85069" lon="-0.53432">
        <ele>163.2</ele>
        <time>2024-04-07T08:25:30Z</time>
      </trkpt>
      <trkpt lat="48.85061" lon="-0.53426">
        <ele>162.6</ele>
        <time>2024-04-07T08:25:31Z</time>
      </trkpt>
      <trkpt lat="48.85052" lon="-0.53423">
        <ele>161.6</ele>
        <time>2024-04-07T08:25:32Z</time>
      </trkpt>
      <trkpt lat="48.85045" lon="-0.5342">
        <ele>160.8</ele>
        <time>2024-04-07T08:25:33Z</time>
      </trkpt>
      <trkpt lat="48.85037" lon="-0.53419">
        <ele>160.2</ele>
        <time>2024-04-07T08:25:34Z</time>
      </trkpt>
      <trkpt lat="48.85029" lon="-0.53418">
        <ele>159.8</ele>
        <time>2024-04-07T08:25:35Z</time>
      </trkpt>
      <trkpt lat="48.85021" lon="-0.53418">
        <ele>159.6</ele>
        <time>2024-04-07T08:25:36Z</time>
      </trkpt>
      <trkpt lat="48.85014" lon="-0.53418">
        <ele>159.6</ele>
        <time>2024-04-07T08:25:37Z</time>
      </trkpt>
      <trkpt lat="48.85007" lon="-0.53418">
        <ele>159.6</ele>
        <time>2024-04-07T08:25:38Z</time>
      </trkpt>
      <trkpt lat="48.84999" lon="-0.53419">
        <ele>159.8</ele>
        <time>2024-04-07T08:25:39Z</time>
      </trkpt>
      <trkpt lat="48.84992" lon="-0.53419">
        <ele>159.8</ele>
        <time>2024-04-07T08:25:40Z</time>
      </trkpt>
      <trkpt lat="48.84984" lon="-0.5342">
        <ele>160</ele>
        <time>2024-04-07T08:25:41Z</time>
      </trkpt>
      <trkpt lat="48.84976" lon="-0.53423">
        <ele>160.2</ele>
        <time>2024-04-07T08:25:42Z</time>
      </trkpt>
      <trkpt lat="48.84969" lon="-0.53426">
        <ele>160.2</ele>
        <time>2024-04-07T08:25:43Z</time>
      </trkpt>
      <trkpt lat="48.84962" lon="-0.53431">
        <ele>160.4</ele>
        <time>2024-04-07T08:25:44Z</time>
      </trkpt>
      <trkpt lat="48.84955" lon="-0.53437">
        <ele>160.4</ele>
        <time>2024-04-07T08:25:45Z</time>
      </trkpt>
      <trkpt lat="48.84949" lon="-0.53445">
        <ele>160.2</ele>
        <time>2024-04-07T08:25:46Z</time>
      </trkpt>
      <trkpt lat="48.84943" lon="-0.53453">
        <ele>160.2</ele>
        <time>2024-04-07T08:25:47Z</time>
      </trkpt>
      <trkpt lat="48.84938" lon="-0.53463">
        <ele>160</ele>
        <time>2024-04-07T08:25:48Z</time>
      </trkpt>
      <trkpt lat="48.84934" lon="-0.53473">
        <ele>159.8</ele>
        <time>2024-04-07T08:25:49Z</time>
      </trkpt>
      <trkpt lat="48.8493" lon="-0.53485">
        <ele>159.4</ele>
        <time>2024-04-07T08:25:50Z</time>
      </trkpt>
      <trkpt lat="48.84927" lon="-0.53496">
        <ele>159.4</ele>
        <time>2024-04-07T08:25:51Z</time>
      </trkpt>
      <trkpt lat="48.84924" lon="-0.53508">
        <ele>159.2</ele>
        <time>2024-04-07T08:25:52Z</time>
      </trkpt>
      <trkpt lat="48.84921" lon="-0.5352">
        <ele>159</ele>
        <time>2024-04-07T08:25:53Z</time>
      </trkpt>
      <trkpt lat="48.84918" lon="-0.53531">
        <ele>158.8</ele>
        <time>2024-04-07T08:25:54Z</time>
      </trkpt>
      <trkpt lat="48.84916" lon="-0.53542">
        <ele>158.8</ele>
        <time>2024-04-07T08:25:55Z</time>
      </trkpt>
      <trkpt lat="48.84913" lon="-0.53553">
        <ele>158.8</ele>
        <time>2024-04-07T08:25:56Z</time>
      </trkpt>
      <trkpt lat="48.8491" lon="-0.53564">
        <ele>159</ele>
        <time>2024-04-07T08:25:57Z</time>
      </trkpt>
      <trkpt lat="48.84907" lon="-0.53575">
        <ele>159</ele>
        <time>2024-04-07T08:25:58Z</time>
      </trkpt>
      <trkpt lat="48.84904" lon="-0.53587">
        <ele>159.2</ele>
        <time>2024-04-07T08:25:59Z</time>
      </trkpt>
      <trkpt lat="48.84902" lon="-0.53598">
        <ele>159.4</ele>
        <time>2024-04-07T08:26:00Z</time>
      </trkpt>
      <trkpt lat="48.84899" lon="-0.53609">
        <ele>159.6</ele>
        <time>2024-04-07T08:26:01Z</time>
      </trkpt>
      <trkpt lat="48.84896" lon="-0.5362">
        <ele>159.8</ele>
        <time>2024-04-07T08:26:02Z</time>
      </trkpt>
      <trkpt lat="48.84893" lon="-0.53632">
        <ele>160</ele>
        <time>2024-04-07T08:26:03Z</time>
      </trkpt>
      <trkpt lat="48.8489" lon="-0.53643">
        <ele>160</ele>
        <time>2024-04-07T08:26:04Z</time>
      </trkpt>
      <trkpt lat="48.84887" lon="-0.53654">
        <ele>160</ele>
        <time>2024-04-07T08:26:05Z</time>
      </trkpt>
      <trkpt lat="48.84884" lon="-0.53665">
        <ele>160</ele>
        <time>2024-04-07T08:26:06Z</time>
      </trkpt>
      <trkpt lat="48.84881" lon="-0.53676">
        <ele>160</ele>
        <time>2024-04-07T08:26:07Z</time>
      </trkpt>
      <trkpt lat="48.84878" lon="-0.53687">
        <ele>160</ele>
        <time>2024-04-07T08:26:08Z</time>
      </trkpt>
      <trkpt lat="48.84876" lon="-0.53697">
        <ele>160</ele>
        <time>2024-04-07T08:26:09Z</time>
      </trkpt>
      <trkpt lat="48.84873" lon="-0.53708">
        <ele>159.8</ele>
        <time>2024-04-07T08:26:10Z</time>
      </trkpt>
      <trkpt lat="48.8487" lon="-0.53719">
        <ele>159.8</ele>
        <time>2024-04-07T08:26:11Z</time>
      </trkpt>
      <trkpt lat="48.84867" lon="-0.53729">
        <ele>159.8</ele>
        <time>2024-04-07T08:26:12Z</time>
      </trkpt>
      <trkpt lat="48.84864" lon="-0.53739">
        <ele>159.8</ele>
        <time>2024-04-07T08:26:13Z</time>
      </trkpt>
      <trkpt lat="48.84861" lon="-0.5375">
        <ele>159.4</ele>
        <time>2024-04-07T08:26:14Z</time>
      </trkpt>
      <trkpt lat="48.84858" lon="-0.5376">
        <ele>159.2</ele>
        <time>2024-04-07T08:26:15Z</time>
      </trkpt>
      <trkpt lat="48.84856" lon="-0.5377">
        <ele>158.8</ele>
        <time>2024-04-07T08:26:16Z</time>
      </trkpt>
      <trkpt lat="48.84854" lon="-0.53781">
        <ele>158.8</ele>
        <time>2024-04-07T08:26:17Z</time>
      </trkpt>
      <trkpt lat="48.84851" lon="-0.53791">
        <ele>158.6</ele>
        <time>2024-04-07T08:26:18Z</time>
      </trkpt>
      <trkpt lat="48.84849" lon="-0.53802">
        <ele>158.8</ele>
        <time>2024-04-07T08:26:19Z</time>
      </trkpt>
      <trkpt lat="48.84846" lon="-0.53812">
        <ele>159.2</ele>
        <time>2024-04-07T08:26:20Z</time>
      </trkpt>
      <trkpt lat="48.84843" lon="-0.53822">
        <ele>159.6</ele>
        <time>2024-04-07T08:26:21Z</time>
      </trkpt>
      <trkpt lat="48.84841" lon="-0.53833">
        <ele>159.8</ele>
        <time>2024-04-07T08:26:22Z</time>
      </trkpt>
      <trkpt lat="48.84839" lon="-0.53844">
        <ele>159.8</ele>
        <time>2024-04-07T08:26:23Z</time>
      </trkpt>
      <trkpt lat="48.84837" lon="-0.53854">
        <ele>159.8</ele>
        <time>2024-04-07T08:26:24Z</time>
      </trkpt>
      <trkpt lat="48.84835" lon="-0.53865">
        <ele>159.4</ele>
        <time>2024-04-07T08:26:25Z</time>
      </trkpt>
      <trkpt lat="48.84833" lon="-0.53875">
        <ele>159.2</ele>
        <time>2024-04-07T08:26:26Z</time>
      </trkpt>
      <trkpt lat="48.84831" lon="-0.53886">
        <ele>159</ele>
        <time>2024-04-07T08:26:27Z</time>
      </trkpt>
      <trkpt lat="48.84829" lon="-0.53897">
        <ele>158.8</ele>
        <time>2024-04-07T08:26:28Z</time>
      </trkpt>
      <trkpt lat="48.84828" lon="-0.53907">
        <ele>158.8</ele>
        <time>2024-04-07T08:26:29Z</time>
      </trkpt>
      <trkpt lat="48.84826" lon="-0.53919">
        <ele>158.8</ele>
        <time>2024-04-07T08:26:30Z</time>
      </trkpt>
      <trkpt lat="48.84824" lon="-0.53929">
        <ele>159</ele>
        <time>2024-04-07T08:26:31Z</time>
      </trkpt>
      <trkpt lat="48.84822" lon="-0.5394">
        <ele>159</ele>
        <time>2024-04-07T08:26:32Z</time>
      </trkpt>
      <trkpt lat="48.8482" lon="-0.5395">
        <ele>159.2</ele>
        <time>2024-04-07T08:26:33Z</time>
      </trkpt>
      <trkpt lat="48.84818" lon="-0.53961">
        <ele>159.2</ele>
        <time>2024-04-07T08:26:34Z</time>
      </trkpt>
      <trkpt lat="48.84817" lon="-0.53971">
        <ele>159.4</ele>
        <time>2024-04-07T08:26:35Z</time>
      </trkpt>
      <trkpt lat="48.84816" lon="-0.53982">
        <ele>159.4</ele>
        <time>2024-04-07T08:26:36Z</time>
      </trkpt>
      <trkpt lat="48.84815" lon="-0.53993">
        <ele>159.4</ele>
        <time>2024-04-07T08:26:37Z</time>
      </trkpt>
      <trkpt lat="48.84814" lon="-0.54003">
        <ele>159.4</ele>
        <time>2024-04-07T08:26:38Z</time>
      </trkpt>
      <trkpt lat="48.84813" lon="-0.54014">
        <ele>159.2</ele>
        <time>2024-04-07T08:26:39Z</time>
      </trkpt>
      <trkpt lat="48.84812" lon="-0.54025">
        <ele>159</ele>
        <time>2024-04-07T08:26:40Z</time>
      </trkpt>
      <trkpt lat="48.84811" lon="-0.54036">
        <ele>159</ele>
        <time>2024-04-07T08:26:41Z</time>
      </trkpt>
      <trkpt lat="48.84811" lon="-0.54047">
        <ele>159</ele>
        <time>2024-04-07T08:26:42Z</time>
      </trkpt>
      <trkpt lat="48.8481" lon="-0.54058">
        <ele>159</ele>
        <time>2024-04-07T08:26:43Z</time>
      </trkpt>
      <trkpt lat="48.84809" lon="-0.54069">
        <ele>159</ele>
        <time>2024-04-07T08:26:44Z</time>
      </trkpt>
      <trkpt lat="48.84809" lon="-0.5408">
        <ele>159</ele>
        <time>2024-04-07T08:26:45Z</time>
      </trkpt>
      <trkpt lat="48.84808" lon="-0.54091">
        <ele>159</ele>
        <time>2024-04-07T08:26:46Z</time>
      </trkpt>
      <trkpt lat="48.84807" lon="-0.54102">
        <ele>159</ele>
        <time>2024-04-07T08:26:47Z</time>
      </trkpt>
      <trkpt lat="48.84807" lon="-0.54113">
        <ele>159</ele>
        <time>2024-04-07T08:26:48Z</time>
      </trkpt>
      <trkpt lat="48.84807" lon="-0.54124">
        <ele>159</ele>
        <time>2024-04-07T08:26:49Z</time>
      </trkpt>
      <trkpt lat="48.84806" lon="-0.54134">
        <ele>158.8</ele>
        <time>2024-04-07T08:26:50Z</time>
      </trkpt>
      <trkpt lat="48.84806" lon="-0.54145">
        <ele>158.8</ele>
        <time>2024-04-07T08:26:51Z</time>
      </trkpt>
      <trkpt lat="48.84806" lon="-0.54156">
        <ele>158.8</ele>
        <time>2024-04-07T08:26:52Z</time>
      </trkpt>
      <trkpt lat="48.84805" lon="-0.54167">
        <ele>158.6</ele>
        <time>2024-04-07T08:26:53Z</time>
      </trkpt>
      <trkpt lat="48.84805" lon="-0.54178">
        <ele>158.6</ele>
        <time>2024-04-07T08:26:54Z</time>
      </trkpt>
      <trkpt lat="48.84805" lon="-0.54189">
        <ele>158.6</ele>
        <time>2024-04-07T08:26:55Z</time>
      </trkpt>
      <trkpt lat="48.84804" lon="-0.542">
        <ele>158.6</ele>
        <time>2024-04-07T08:26:56Z</time>
      </trkpt>
      <trkpt lat="48.84804" lon="-0.54211">
        <ele>158.6</ele>
        <time>2024-04-07T08:26:57Z</time>
      </trkpt>
      <trkpt lat="48.84804" lon="-0.54222">
        <ele>158.8</ele>
        <time>2024-04-07T08:26:58Z</time>
      </trkpt>
      <trkpt lat="48.84804" lon="-0.54234">
        <ele>158.8</ele>
        <time>2024-04-07T08:26:59Z</time>
      </trkpt>
      <trkpt lat="48.84803" lon="-0.54245">
        <ele>159</ele>
        <time>2024-04-07T08:27:00Z</time>
      </trkpt>
      <trkpt lat="48.84803" lon="-0.54257">
        <ele>159.2</ele>
        <time>2024-04-07T08:27:01Z</time>
      </trkpt>
      <trkpt lat="48.84803" lon="-0.54268">
        <ele>159.4</ele>
        <time>2024-04-07T08:27:02Z</time>
      </trkpt>
      <trkpt lat="48.84802" lon="-0.54279">
        <ele>159.6</ele>
        <time>2024-04-07T08:27:03Z</time>
      </trkpt>
      <trkpt lat="48.84802" lon="-0.5429">
        <ele>159.6</ele>
        <time>2024-04-07T08:27:04Z</time>
      </trkpt>
      <trkpt lat="48.84802" lon="-0.54301">
        <ele>159.6</ele>
        <time>2024-04-07T08:27:05Z</time>
      </trkpt>
      <trkpt lat="48.84801" lon="-0.54312">
        <ele>159.6</ele>
        <time>2024-04-07T08:27:06Z</time>
      </trkpt>
      <trkpt lat="48.848" lon="-0.54323">
        <ele>159.8</ele>
        <time>2024-04-07T08:27:07Z</time>
      </trkpt>
      <trkpt lat="48.848" lon="-0.54334">
        <ele>159.8</ele>
        <time>2024-04-07T08:27:08Z</time>
      </trkpt>
      <trkpt lat="48.84799" lon="-0.54344">
        <ele>160</ele>
        <time>2024-04-07T08:27:09Z</time>
      </trkpt>
      <trkpt lat="48.84799" lon="-0.54355">
        <ele>160.2</ele>
        <time>2024-04-07T08:27:10Z</time>
      </trkpt>
      <trkpt lat="48.84798" lon="-0.54366">
        <ele>160.4</ele>
        <time>2024-04-07T08:27:11Z</time>
      </trkpt>
      <trkpt lat="48.84797" lon="-0.54376">
        <ele>160.6</ele>
        <time>2024-04-07T08:27:12Z</time>
      </trkpt>
      <trkpt lat="48.84796" lon="-0.54387">
        <ele>160.6</ele>
        <time>2024-04-07T08:27:13Z</time>
      </trkpt>
      <trkpt lat="48.84796" lon="-0.54397">
        <ele>160.6</ele>
        <time>2024-04-07T08:27:14Z</time>
      </trkpt>
      <trkpt lat="48.84796" lon="-0.54407">
        <ele>160.6</ele>
        <time>2024-04-07T08:27:15Z</time>
      </trkpt>
      <trkpt lat="48.84795" lon="-0.54417">
        <ele>160.6</ele>
        <time>2024-04-07T08:27:16Z</time>
      </trkpt>
      <trkpt lat="48.84795" lon="-0.54427">
        <ele>160.8</ele>
        <time>2024-04-07T08:27:17Z</time>
      </trkpt>
      <trkpt lat="48.84794" lon="-0.54438">
        <ele>160.6</ele>
        <time>2024-04-07T08:27:18Z</time>
      </trkpt>
      <trkpt lat="48.84794" lon="-0.54448">
        <ele>160.8</ele>
        <time>2024-04-07T08:27:19Z</time>
      </trkpt>
      <trkpt lat="48.84793" lon="-0.54459">
        <ele>161</ele>
        <time>2024-04-07T08:27:20Z</time>
      </trkpt>
      <trkpt lat="48.84793" lon="-0.5447">
        <ele>161.2</ele>
        <time>2024-04-07T08:27:21Z</time>
      </trkpt>
      <trkpt lat="48.84792" lon="-0.5448">
        <ele>161.4</ele>
        <time>2024-04-07T08:27:22Z</time>
      </trkpt>
      <trkpt lat="48.84792" lon="-0.54491">
        <ele>161.4</ele>
        <time>2024-04-07T08:27:23Z</time>
      </trkpt>
      <trkpt lat="48.84791" lon="-0.54502">
        <ele>161.2</ele>
        <time>2024-04-07T08:27:24Z</time>
      </trkpt>
      <trkpt lat="48.84791" lon="-0.54512">
        <ele>161.2</ele>
        <time>2024-04-07T08:27:25Z</time>
      </trkpt>
      <trkpt lat="48.8479" lon="-0.54523">
        <ele>161.4</ele>
        <time>2024-04-07T08:27:26Z</time>
      </trkpt>
      <trkpt lat="48.84789" lon="-0.54534">
        <ele>161.6</ele>
        <time>2024-04-07T08:27:27Z</time>
      </trkpt>
      <trkpt lat="48.84788" lon="-0.54545">
        <ele>161.6</ele>
        <time>2024-04-07T08:27:28Z</time>
      </trkpt>
      <trkpt lat="48.84787" lon="-0.54556">
        <ele>161.8</ele>
        <time>2024-04-07T08:27:29Z</time>
      </trkpt>
      <trkpt lat="48.84785" lon="-0.54566">
        <ele>161.8</ele>
        <time>2024-04-07T08:27:30Z</time>
      </trkpt>
      <trkpt lat="48.84783" lon="-0.54577">
        <ele>161.8</ele>
        <time>2024-04-07T08:27:31Z</time>
      </trkpt>
      <trkpt lat="48.84782" lon="-0.54587">
        <ele>162</ele>
        <time>2024-04-07T08:27:32Z</time>
      </trkpt>
      <trkpt lat="48.84781" lon="-0.54597">
        <ele>162</ele>
        <time>2024-04-07T08:27:33Z</time>
      </trkpt>
      <trkpt lat="48.84779" lon="-0.54608">
        <ele>162</ele>
        <time>2024-04-07T08:27:34Z</time>
      </trkpt>
      <trkpt lat="48.84778" lon="-0.54618">
        <ele>162</ele>
        <time>2024-04-07T08:27:35Z</time>
      </trkpt>
      <trkpt lat="48.84777" lon="-0.54628">
        <ele>162.2</ele>
        <time>2024-04-07T08:27:36Z</time>
      </trkpt>
      <trkpt lat="48.84776" lon="-0.54638">
        <ele>162.4</ele>
        <time>2024-04-07T08:27:37Z</time>
      </trkpt>
      <trkpt lat="48.84774" lon="-0.54647">
        <ele>162.6</ele>
        <time>2024-04-07T08:27:38Z</time>
      </trkpt>
      <trkpt lat="48.84773" lon="-0.54656">
        <ele>162.8</ele>
        <time>2024-04-07T08:27:39Z</time>
      </trkpt>
      <trkpt lat="48.84771" lon="-0.54665">
        <ele>163.2</ele>
        <time>2024-04-07T08:27:40Z</time>
      </trkpt>
      <trkpt lat="48.8477" lon="-0.54673">
        <ele>163.6</ele>
        <time>2024-04-07T08:27:41Z</time>
      </trkpt>
      <trkpt lat="48.84769" lon="-0.54682">
        <ele>163.8</ele>
        <time>2024-04-07T08:27:42Z</time>
      </trkpt>
      <trkpt lat="48.84768" lon="-0.5469">
        <ele>164</ele>
        <time>2024-04-07T08:27:43Z</time>
      </trkpt>
      <trkpt lat="48.84767" lon="-0.54698">
        <ele>164.2</ele>
        <time>2024-04-07T08:27:44Z</time>
      </trkpt>
      <trkpt lat="48.84766" lon="-0.54707">
        <ele>164.4</ele>
        <time>2024-04-07T08:27:45Z</time>
      </trkpt>
      <trkpt lat="48.84765" lon="-0.54715">
        <ele>164.4</ele>
        <time>2024-04-07T08:27:46Z</time>
      </trkpt>
      <trkpt lat="48.84764" lon="-0.54724">
        <ele>164.6</ele>
        <time>2024-04-07T08:27:47Z</time>
      </trkpt>
      <trkpt lat="48.84765" lon="-0.54733">
        <ele>164.8</ele>
        <time>2024-04-07T08:27:48Z</time>
      </trkpt>
      <trkpt lat="48.84765" lon="-0.54742">
        <ele>164.8</ele>
        <time>2024-04-07T08:27:49Z</time>
      </trkpt>
      <trkpt lat="48.84766" lon="-0.54751">
        <ele>164.8</ele>
        <time>2024-04-07T08:27:50Z</time>
      </trkpt>
      <trkpt lat="48.84767" lon="-0.5476">
        <ele>164.6</ele>
        <time>2024-04-07T08:27:51Z</time>
      </trkpt>
      <trkpt lat="48.84768" lon="-0.54769">
        <ele>164.4</ele>
        <time>2024-04-07T08:27:52Z</time>
      </trkpt>
      <trkpt lat="48.84768" lon="-0.54779">
        <ele>164.2</ele>
        <time>2024-04-07T08:27:53Z</time>
      </trkpt>
      <trkpt lat="48.84769" lon="-0.54788">
        <ele>164.2</ele>
        <time>2024-04-07T08:27:54Z</time>
      </trkpt>
      <trkpt lat="48.8477" lon="-0.54796">
        <ele>164</ele>
        <time>2024-04-07T08:27:55Z</time>
      </trkpt>
      <trkpt lat="48.84771" lon="-0.54805">
        <ele>164</ele>
        <time>2024-04-07T08:27:56Z</time>
      </trkpt>
      <trkpt lat="48.84772" lon="-0.54813">
        <ele>163.8</ele>
        <time>2024-04-07T08:27:57Z</time>
      </trkpt>
      <trkpt lat="48.84773" lon="-0.54821">
        <ele>163.8</ele>
        <time>2024-04-07T08:27:58Z</time>
      </trkpt>
      <trkpt lat="48.84774" lon="-0.54828">
        <ele>163.6</ele>
        <time>2024-04-07T08:27:59Z</time>
      </trkpt>
      <trkpt lat="48.84774" lon="-0.54835">
        <ele>163.6</ele>
        <time>2024-04-07T08:28:00Z</time>
      </trkpt>
      <trkpt lat="48.84775" lon="-0.54841">
        <ele>163.6</ele>
        <time>2024-04-07T08:28:01Z</time>
      </trkpt>
      <trkpt lat="48.84777" lon="-0.54846">
        <ele>163.6</ele>
        <time>2024-04-07T08:28:02Z</time>
      </trkpt>
      <trkpt lat="48.84778" lon="-0.54851">
        <ele>163.8</ele>
        <time>2024-04-07T08:28:03Z</time>
      </trkpt>
      <trkpt lat="48.84779" lon="-0.54856">
        <ele>164.2</ele>
        <time>2024-04-07T08:28:04Z</time>
      </trkpt>
      <trkpt lat="48.8478" lon="-0.54861">
        <ele>164.6</ele>
        <time>2024-04-07T08:28:05Z</time>
      </trkpt>
      <trkpt lat="48.84781" lon="-0.54866">
        <ele>164.8</ele>
        <time>2024-04-07T08:28:06Z</time>
      </trkpt>
      <trkpt lat="48.84782" lon="-0.54871">
        <ele>165</ele>
        <time>2024-04-07T08:28:07Z</time>
      </trkpt>
      <trkpt lat="48.84785" lon="-0.54875">
        <ele>165.2</ele>
        <time>2024-04-07T08:28:08Z</time>
      </trkpt>
      <trkpt lat="48.84788" lon="-0.54879">
        <ele>165.2</ele>
        <time>2024-04-07T08:28:09Z</time>
      </trkpt>
      <trkpt lat="48.84791" lon="-0.54882">
        <ele>165</ele>
        <time>2024-04-07T08:28:10Z</time>
      </trkpt>
      <trkpt lat="48.84795" lon="-0.54886">
        <ele>165</ele>
        <time>2024-04-07T08:28:11Z</time>
      </trkpt>
      <trkpt lat="48.84799" lon="-0.5489">
        <ele>164.8</ele>
        <time>2024-04-07T08:28:12Z</time>
      </trkpt>
      <trkpt lat="48.84804" lon="-0.54894">
        <ele>164.4</ele>
        <time>2024-04-07T08:28:13Z</time>
      </trkpt>
      <trkpt lat="48.84809" lon="-0.54898">
        <ele>164.2</ele>
        <time>2024-04-07T08:28:14Z</time>
      </trkpt>
      <trkpt lat="48.84814" lon="-0.54902">
        <ele>164</ele>
        <time>2024-04-07T08:28:15Z</time>
      </trkpt>
      <trkpt lat="48.84818" lon="-0.54908">
        <ele>163.8</ele>
        <time>2024-04-07T08:28:16Z</time>
      </trkpt>
      <trkpt lat="48.84823" lon="-0.54914">
        <ele>163.6</ele>
        <time>2024-04-07T08:28:17Z</time>
      </trkpt>
      <trkpt lat="48.84827" lon="-0.54921">
        <ele>163.6</ele>
        <time>2024-04-07T08:28:18Z</time>
      </trkpt>
      <trkpt lat="48.8483" lon="-0.54929">
        <ele>163.4</ele>
        <time>2024-04-07T08:28:19Z</time>
      </trkpt>
      <trkpt lat="48.84834" lon="-0.54937">
        <ele>163.2</ele>
        <time>2024-04-07T08:28:20Z</time>
      </trkpt>
      <trkpt lat="48.84836" lon="-0.54945">
        <ele>163</ele>
        <time>2024-04-07T08:28:21Z</time>
      </trkpt>
      <trkpt lat="48.84839" lon="-0.54954">
        <ele>162.8</ele>
        <time>2024-04-07T08:28:22Z</time>
      </trkpt>
      <trkpt lat="48.84842" lon="-0.54962">
        <ele>162.6</ele>
        <time>2024-04-07T08:28:23Z</time>
      </trkpt>
      <trkpt lat="48.84845" lon="-0.5497">
        <ele>162.4</ele>
        <time>2024-04-07T08:28:24Z</time>
      </trkpt>
      <trkpt lat="48.84848" lon="-0.54978">
        <ele>162.2</ele>
        <time>2024-04-07T08:28:25Z</time>
      </trkpt>
      <trkpt lat="48.8485" lon="-0.54986">
        <ele>162</ele>
        <time>2024-04-07T08:28:26Z</time>
      </trkpt>
      <trkpt lat="48.84853" lon="-0.54994">
        <ele>161.6</ele>
        <time>2024-04-07T08:28:27Z</time>
      </trkpt>
      <trkpt lat="48.84855" lon="-0.55002">
        <ele>161.6</ele>
        <time>2024-04-07T08:28:28Z</time>
      </trkpt>
      <trkpt lat="48.84858" lon="-0.5501">
        <ele>161.8</ele>
        <time>2024-04-07T08:28:29Z</time>
      </trkpt>
      <trkpt lat="48.84861" lon="-0.55018">
        <ele>161.8</ele>
        <time>2024-04-07T08:28:30Z</time>
      </trkpt>
      <trkpt lat="48.84864" lon="-0.55025">
        <ele>161.8</ele>
        <time>2024-04-07T08:28:31Z</time>
      </trkpt>
      <trkpt lat="48.84866" lon="-0.55032">
        <ele>162</ele>
        <time>2024-04-07T08:28:32Z</time>
      </trkpt>
      <trkpt lat="48.84869" lon="-0.55039">
        <ele>162.2</ele>
        <time>2024-04-07T08:28:33Z</time>
      </trkpt>
      <trkpt lat="48.84871" lon="-0.55044">
        <ele>162.2</ele>
        <time>2024-04-07T08:28:34Z</time>
      </trkpt>
      <trkpt lat="48.84873" lon="-0.55048">
        <ele>162.4</ele>
        <time>2024-04-07T08:28:35Z</time>
      </trkpt>
      <trkpt lat="48.84874" lon="-0.55051">
        <ele>162.6</ele>
        <time>2024-04-07T08:28:36Z</time>
      </trkpt>
      <trkpt lat="48.84876" lon="-0.55053">
        <ele>162.6</ele>
        <time>2024-04-07T08:28:37Z</time>
      </trkpt>
      <trkpt lat="48.84877" lon="-0.55056">
        <ele>162.8</ele>
        <time>2024-04-07T08:28:38Z</time>
      </trkpt>
      <trkpt lat="48.84879" lon="-0.55058">
        <ele>162.8</ele>
        <time>2024-04-07T08:28:39Z</time>
      </trkpt>
      <trkpt lat="48.84882" lon="-0.55061">
        <ele>162.8</ele>
        <time>2024-04-07T08:28:40Z</time>
      </trkpt>
      <trkpt lat="48.84885" lon="-0.55063">
        <ele>162.8</ele>
        <time>2024-04-07T08:28:41Z</time>
      </trkpt>
      <trkpt lat="48.84888" lon="-0.55067">
        <ele>162.8</ele>
        <time>2024-04-07T08:28:42Z</time>
      </trkpt>
      <trkpt lat="48.8489" lon="-0.55071">
        <ele>162.8</ele>
        <time>2024-04-07T08:28:43Z</time>
      </trkpt>
      <trkpt lat="48.84892" lon="-0.55076">
        <ele>162.8</ele>
        <time>2024-04-07T08:28:44Z</time>
      </trkpt>
      <trkpt lat="48.84893" lon="-0.55082">
        <ele>162.8</ele>
        <time>2024-04-07T08:28:45Z</time>
      </trkpt>
      <trkpt lat="48.84893" lon="-0.55089">
        <ele>162.8</ele>
        <time>2024-04-07T08:28:46Z</time>
      </trkpt>
      <trkpt lat="48.84893" lon="-0.55095">
        <ele>162.8</ele>
        <time>2024-04-07T08:28:47Z</time>
      </trkpt>
      <trkpt lat="48.84893" lon="-0.55101">
        <ele>163</ele>
        <time>2024-04-07T08:28:48Z</time>
      </trkpt>
      <trkpt lat="48.84893" lon="-0.55108">
        <ele>163</ele>
        <time>2024-04-07T08:28:49Z</time>
      </trkpt>
      <trkpt lat="48.84894" lon="-0.55115">
        <ele>163.2</ele>
        <time>2024-04-07T08:28:50Z</time>
      </trkpt>
      <trkpt lat="48.84895" lon="-0.5512">
        <ele>163</ele>
        <time>2024-04-07T08:28:51Z</time>
      </trkpt>
      <trkpt lat="48.84896" lon="-0.55124">
        <ele>163</ele>
        <time>2024-04-07T08:28:52Z</time>
      </trkpt>
      <trkpt lat="48.84899" lon="-0.55125">
        <ele>163</ele>
        <time>2024-04-07T08:28:53Z</time>
      </trkpt>
      <trkpt lat="48.84901" lon="-0.55126">
        <ele>163</ele>
        <time>2024-04-07T08:28:54Z</time>
      </trkpt>
      <trkpt lat="48.84903" lon="-0.55128">
        <ele>163</ele>
        <time>2024-04-07T08:28:55Z</time>
      </trkpt>
      <trkpt lat="48.84905" lon="-0.55131">
        <ele>163</ele>
        <time>2024-04-07T08:28:56Z</time>
      </trkpt>
      <trkpt lat="48.84906" lon="-0.55135">
        <ele>163.2</ele>
        <time>2024-04-07T08:28:57Z</time>
      </trkpt>
      <trkpt lat="48.84907" lon="-0.5514">
        <ele>163.4</ele>
        <time>2024-04-07T08:28:58Z</time>
      </trkpt>
      <trkpt lat="48.84908" lon="-0.55145">
        <ele>163.6</ele>
        <time>2024-04-07T08:28:59Z</time>
      </trkpt>
      <trkpt lat="48.84909" lon="-0.5515">
        <ele>163.6</ele>
        <time>2024-04-07T08:29:00Z</time>
      </trkpt>
      <trkpt lat="48.84909" lon="-0.55155">
        <ele>163.8</ele>
        <time>2024-04-07T08:29:01Z</time>
      </trkpt>
      <trkpt lat="48.8491" lon="-0.5516">
        <ele>163.8</ele>
        <time>2024-04-07T08:29:02Z</time>
      </trkpt>
      <trkpt lat="48.8491" lon="-0.55166">
        <ele>163.6</ele>
        <time>2024-04-07T08:29:03Z</time>
      </trkpt>
      <trkpt lat="48.84911" lon="-0.55172">
        <ele>163.6</ele>
        <time>2024-04-07T08:29:04Z</time>
      </trkpt>
      <trkpt lat="48.84911" lon="-0.55177">
        <ele>163.6</ele>
        <time>2024-04-07T08:29:05Z</time>
      </trkpt>
      <trkpt lat="48.84913" lon="-0.55183">
        <ele>163.6</ele>
        <time>2024-04-07T08:29:06Z</time>
      </trkpt>
      <trkpt lat="48.84914" lon="-0.55187">
        <ele>164</ele>
        <time>2024-04-07T08:29:07Z</time>
      </trkpt>
      <trkpt lat="48.84912" lon="-0.55194">
        <ele>164.4</ele>
        <time>2024-04-07T08:29:08Z</time>
      </trkpt>
      <trkpt lat="48.84911" lon="-0.55198">
        <ele>164.8</ele>
        <time>2024-04-07T08:29:09Z</time>
      </trkpt>
      <trkpt lat="48.84911" lon="-0.55201">
        <ele>165</ele>
        <time>2024-04-07T08:29:10Z</time>
      </trkpt>
      <trkpt lat="48.84912" lon="-0.55203">
        <ele>165.4</ele>
        <time>2024-04-07T08:29:11Z</time>
      </trkpt>
      <trkpt lat="48.8491" lon="-0.55205">
        <ele>165.6</ele>
        <time>2024-04-07T08:29:12Z</time>
      </trkpt>
      <trkpt lat="48.84911" lon="-0.55207">
        <ele>165.8</ele>
        <time>2024-04-07T08:29:13Z</time>
      </trkpt>
      <trkpt lat="48.84911" lon="-0.55207">
        <ele>165.8</ele>
        <time>2024-04-07T08:29:14Z</time>
      </trkpt>
      <trkpt lat="48.84911" lon="-0.55207">
        <ele>166</ele>
        <time>2024-04-07T08:29:15Z</time>
      </trkpt>
      <trkpt lat="48.84911" lon="-0.55206">
        <ele>165.8</ele>
        <time>2024-04-07T08:29:16Z</time>
      </trkpt>
      <trkpt lat="48.84911" lon="-0.55205">
        <ele>165.8</ele>
        <time>2024-04-07T08:29:17Z</time>
      </trkpt>
      <trkpt lat="48.84911" lon="-0.55204">
        <ele>165.6</ele>
        <time>2024-04-07T08:29:18Z</time>
      </trkpt>
      <trkpt lat="48.84911" lon="-0.55203">
        <ele>165.4</ele>
        <time>2024-04-07T08:29:19Z</time>
      </trkpt>
      <trkpt lat="48.84911" lon="-0.55203">
        <ele>165.4</ele>
        <time>2024-04-07T08:29:20Z</time>
      </trkpt>
      <trkpt lat="48.84909" lon="-0.55203">
        <ele>165.4</ele>
        <time>2024-04-07T08:29:21Z</time>
      </trkpt>
      <trkpt lat="48.84908" lon="-0.55203">
        <ele>165.2</ele>
        <time>2024-04-07T08:29:22Z</time>
      </trkpt>
      <trkpt lat="48.84907" lon="-0.55201">
        <ele>165.2</ele>
        <time>2024-04-07T08:29:23Z</time>
      </trkpt>
      <trkpt lat="48.84905" lon="-0.55199">
        <ele>165</ele>
        <time>2024-04-07T08:29:24Z</time>
      </trkpt>
      <trkpt lat="48.84905" lon="-0.55196">
        <ele>164.8</ele>
        <time>2024-04-07T08:29:25Z</time>
      </trkpt>
      <trkpt lat="48.84904" lon="-0.55194">
        <ele>164.4</ele>
        <time>2024-04-07T08:29:26Z</time>
      </trkpt>
      <trkpt lat="48.84904" lon="-0.55191">
        <ele>164</ele>
        <time>2024-04-07T08:29:27Z</time>
      </trkpt>
      <trkpt lat="48.84904" lon="-0.55189">
        <ele>164</ele>
        <time>2024-04-07T08:29:28Z</time>
      </trkpt>
      <trkpt lat="48.84904" lon="-0.55187">
        <ele>163.8</ele>
        <time>2024-04-07T08:29:29Z</time>
      </trkpt>
      <trkpt lat="48.84904" lon="-0.55187">
        <ele>164</ele>
        <time>2024-04-07T08:29:30Z</time>
      </trkpt>
      <trkpt lat="48.84904" lon="-0.55186">
        <ele>164.2</ele>
        <time>2024-04-07T08:29:31Z</time>
      </trkpt>
      <trkpt lat="48.84902" lon="-0.55174">
        <ele>165.2</ele>
        <time>2024-04-07T08:29:47Z</time>
      </trkpt>
      <trkpt lat="48.84902" lon="-0.55171">
        <ele>165.2</ele>
        <time>2024-04-07T08:29:48Z</time>
      </trkpt>
      <trkpt lat="48.84901" lon="-0.55168">
        <ele>165.2</ele>
        <time>2024-04-07T08:29:49Z</time>
      </trkpt>
      <trkpt lat="48.84901" lon="-0.55163">
        <ele>165.2</ele>
        <time>2024-04-07T08:29:50Z</time>
      </trkpt>
      <trkpt lat="48.84901" lon="-0.5516">
        <ele>165</ele>
        <time>2024-04-07T08:29:51Z</time>
      </trkpt>
      <trkpt lat="48.84901" lon="-0.55157">
        <ele>164.8</ele>
        <time>2024-04-07T08:29:52Z</time>
      </trkpt>
      <trkpt lat="48.849" lon="-0.55153">
        <ele>164.8</ele>
        <time>2024-04-07T08:29:53Z</time>
      </trkpt>
      <trkpt lat="48.849" lon="-0.55149">
        <ele>164.6</ele>
        <time>2024-04-07T08:29:54Z</time>
      </trkpt>
      <trkpt lat="48.849" lon="-0.55144">
        <ele>164.6</ele>
        <time>2024-04-07T08:29:55Z</time>
      </trkpt>
      <trkpt lat="48.849" lon="-0.55141">
        <ele>164.6</ele>
        <time>2024-04-07T08:29:56Z</time>
      </trkpt>
      <trkpt lat="48.84901" lon="-0.55139">
        <ele>164.6</ele>
        <time>2024-04-07T08:29:57Z</time>
      </trkpt>
      <trkpt lat="48.84902" lon="-0.55136">
        <ele>164.6</ele>
        <time>2024-04-07T08:29:58Z</time>
      </trkpt>
      <trkpt lat="48.84902" lon="-0.55134">
        <ele>164.6</ele>
        <time>2024-04-07T08:29:59Z</time>
      </trkpt>
      <trkpt lat="48.84901" lon="-0.55131">
        <ele>164.6</ele>
        <time>2024-04-07T08:30:00Z</time>
      </trkpt>
      <trkpt lat="48.849" lon="-0.55129">
        <ele>164.6</ele>
        <time>2024-04-07T08:30:01Z</time>
      </trkpt>
      <trkpt lat="48.84899" lon="-0.55125">
        <ele>164.6</ele>
        <time>2024-04-07T08:30:02Z</time>
      </trkpt>
      <trkpt lat="48.84899" lon="-0.55122">
        <ele>164.6</ele>
        <time>2024-04-07T08:30:03Z</time>
      </trkpt>
      <trkpt lat="48.84898" lon="-0.55118">
        <ele>164.6</ele>
        <time>2024-04-07T08:30:04Z</time>
      </trkpt>
      <trkpt lat="48.84899" lon="-0.55113">
        <ele>164.6</ele>
        <time>2024-04-07T08:30:05Z</time>
      </trkpt>
      <trkpt lat="48.849" lon="-0.55106">
        <ele>164.6</ele>
        <time>2024-04-07T08:30:06Z</time>
      </trkpt>
      <trkpt lat="48.84901" lon="-0.551">
        <ele>164.4</ele>
        <time>2024-04-07T08:30:07Z</time>
      </trkpt>
      <trkpt lat="48.84903" lon="-0.55094">
        <ele>164.2</ele>
        <time>2024-04-07T08:30:08Z</time>
      </trkpt>
      <trkpt lat="48.84905" lon="-0.55089">
        <ele>164</ele>
        <time>2024-04-07T08:30:09Z</time>
      </trkpt>
      <trkpt lat="48.84907" lon="-0.55084">
        <ele>163.8</ele>
        <time>2024-04-07T08:30:10Z</time>
      </trkpt>
      <trkpt lat="48.84905" lon="-0.55077">
        <ele>163.8</ele>
        <time>2024-04-07T08:30:11Z</time>
      </trkpt>
      <trkpt lat="48.84907" lon="-0.55072">
        <ele>163.6</ele>
        <time>2024-04-07T08:30:12Z</time>
      </trkpt>
      <trkpt lat="48.8491" lon="-0.55067">
        <ele>163.6</ele>
        <time>2024-04-07T08:30:13Z</time>
      </trkpt>
      <trkpt lat="48.84912" lon="-0.55063">
        <ele>163.8</ele>
        <time>2024-04-07T08:30:14Z</time>
      </trkpt>
      <trkpt lat="48.84916" lon="-0.55061">
        <ele>163.8</ele>
        <time>2024-04-07T08:30:15Z</time>
      </trkpt>
      <trkpt lat="48.84921" lon="-0.55061">
        <ele>164</ele>
        <time>2024-04-07T08:30:16Z</time>
      </trkpt>
      <trkpt lat="48.84925" lon="-0.55061">
        <ele>164</ele>
        <time>2024-04-07T08:30:17Z</time>
      </trkpt>
      <trkpt lat="48.8493" lon="-0.5506">
        <ele>164</ele>
        <time>2024-04-07T08:30:18Z</time>
      </trkpt>
      <trkpt lat="48.84934" lon="-0.55059">
        <ele>164.2</ele>
        <time>2024-04-07T08:30:19Z</time>
      </trkpt>
      <trkpt lat="48.84939" lon="-0.55057">
        <ele>164</ele>
        <time>2024-04-07T08:30:20Z</time>
      </trkpt>
      <trkpt lat="48.84939" lon="-0.55057">
        <ele>164</ele>
        <time>2024-04-07T08:30:21Z</time>
      </trkpt>
      <trkpt lat="48.84947" lon="-0.55052">
        <ele>163.8</ele>
        <time>2024-04-07T08:30:22Z</time>
      </trkpt>
      <trkpt lat="48.84951" lon="-0.55052">
        <ele>163.8</ele>
        <time>2024-04-07T08:30:23Z</time>
      </trkpt>
      <trkpt lat="48.84954" lon="-0.55052">
        <ele>163.8</ele>
        <time>2024-04-07T08:30:24Z</time>
      </trkpt>
      <trkpt lat="48.84954" lon="-0.55052">
        <ele>163.8</ele>
        <time>2024-04-07T08:30:25Z</time>
      </trkpt>
      <trkpt lat="48.84961" lon="-0.55052">
        <ele>164</ele>
        <time>2024-04-07T08:30:26Z</time>
      </trkpt>
      <trkpt lat="48.84965" lon="-0.55053">
        <ele>164</ele>
        <time>2024-04-07T08:30:27Z</time>
      </trkpt>
      <trkpt lat="48.84969" lon="-0.55053">
        <ele>164</ele>
        <time>2024-04-07T08:30:28Z</time>
      </trkpt>
      <trkpt lat="48.84972" lon="-0.55053">
        <ele>164.2</ele>
        <time>2024-04-07T08:30:29Z</time>
      </trkpt>
      <trkpt lat="48.84974" lon="-0.55053">
        <ele>164</ele>
        <time>2024-04-07T08:30:30Z</time>
      </trkpt>
      <trkpt lat="48.84976" lon="-0.55053">
        <ele>164</ele>
        <time>2024-04-07T08:30:31Z</time>
      </trkpt>
      <trkpt lat="48.84983" lon="-0.55054">
        <ele>163.8</ele>
        <time>2024-04-07T08:30:32Z</time>
      </trkpt>
      <trkpt lat="48.84988" lon="-0.55054">
        <ele>163.8</ele>
        <time>2024-04-07T08:30:33Z</time>
      </trkpt>
      <trkpt lat="48.84991" lon="-0.55054">
        <ele>163.8</ele>
        <time>2024-04-07T08:30:34Z</time>
      </trkpt>
      <trkpt lat="48.84994" lon="-0.55054">
        <ele>163.6</ele>
        <time>2024-04-07T08:30:35Z</time>
      </trkpt>
      <trkpt lat="48.84994" lon="-0.55054">
        <ele>163.8</ele>
        <time>2024-04-07T08:30:36Z</time>
      </trkpt>
      <trkpt lat="48.85001" lon="-0.55057">
        <ele>163.8</ele>
        <time>2024-04-07T08:30:37Z</time>
      </trkpt>
      <trkpt lat="48.85001" lon="-0.55057">
        <ele>163.8</ele>
        <time>2024-04-07T08:30:38Z</time>
      </trkpt>
      <trkpt lat="48.8501" lon="-0.55059">
        <ele>163.6</ele>
        <time>2024-04-07T08:30:39Z</time>
      </trkpt>
      <trkpt lat="48.85013" lon="-0.55059">
        <ele>163.8</ele>
        <time>2024-04-07T08:30:40Z</time>
      </trkpt>
      <trkpt lat="48.85017" lon="-0.55059">
        <ele>163.8</ele>
        <time>2024-04-07T08:30:41Z</time>
      </trkpt>
      <trkpt lat="48.85021" lon="-0.55059">
        <ele>164</ele>
        <time>2024-04-07T08:30:42Z</time>
      </trkpt>
      <trkpt lat="48.85024" lon="-0.55058">
        <ele>164</ele>
        <time>2024-04-07T08:30:43Z</time>
      </trkpt>
      <trkpt lat="48.85027" lon="-0.55057">
        <ele>164</ele>
        <time>2024-04-07T08:30:44Z</time>
      </trkpt>
      <trkpt lat="48.85031" lon="-0.55056">
        <ele>164.2</ele>
        <time>2024-04-07T08:30:45Z</time>
      </trkpt>
      <trkpt lat="48.85035" lon="-0.55054">
        <ele>164.4</ele>
        <time>2024-04-07T08:30:46Z</time>
      </trkpt>
      <trkpt lat="48.85039" lon="-0.55053">
        <ele>164.6</ele>
        <time>2024-04-07T08:30:47Z</time>
      </trkpt>
      <trkpt lat="48.85043" lon="-0.55051">
        <ele>164.6</ele>
        <time>2024-04-07T08:30:48Z</time>
      </trkpt>
      <trkpt lat="48.85046" lon="-0.5505">
        <ele>164.6</ele>
        <time>2024-04-07T08:30:49Z</time>
      </trkpt>
      <trkpt lat="48.85049" lon="-0.55048">
        <ele>164.6</ele>
        <time>2024-04-07T08:30:50Z</time>
      </trkpt>
      <trkpt lat="48.85052" lon="-0.55046">
        <ele>164.8</ele>
        <time>2024-04-07T08:30:51Z</time>
      </trkpt>
      <trkpt lat="48.85055" lon="-0.55043">
        <ele>164.8</ele>
        <time>2024-04-07T08:30:52Z</time>
      </trkpt>
      <trkpt lat="48.85058" lon="-0.5504">
        <ele>164.8</ele>
        <time>2024-04-07T08:30:53Z</time>
      </trkpt>
      <trkpt lat="48.85061" lon="-0.55038">
        <ele>165</ele>
        <time>2024-04-07T08:30:54Z</time>
      </trkpt>
      <trkpt lat="48.85064" lon="-0.55035">
        <ele>165</ele>
        <time>2024-04-07T08:30:55Z</time>
      </trkpt>
      <trkpt lat="48.85067" lon="-0.55032">
        <ele>165</ele>
        <time>2024-04-07T08:30:56Z</time>
      </trkpt>
      <trkpt lat="48.8507" lon="-0.55028">
        <ele>165.2</ele>
        <time>2024-04-07T08:30:57Z</time>
      </trkpt>
      <trkpt lat="48.85073" lon="-0.55025">
        <ele>165.2</ele>
        <time>2024-04-07T08:30:58Z</time>
      </trkpt>
      <trkpt lat="48.85077" lon="-0.55022">
        <ele>165</ele>
        <time>2024-04-07T08:30:59Z</time>
      </trkpt>
      <trkpt lat="48.85077" lon="-0.55022">
        <ele>165</ele>
        <time>2024-04-07T08:31:00Z</time>
      </trkpt>
      <trkpt lat="48.85083" lon="-0.55016">
        <ele>165</ele>
        <time>2024-04-07T08:31:01Z</time>
      </trkpt>
      <trkpt lat="48.85086" lon="-0.55013">
        <ele>164.8</ele>
        <time>2024-04-07T08:31:02Z</time>
      </trkpt>
      <trkpt lat="48.85089" lon="-0.55011">
        <ele>164.8</ele>
        <time>2024-04-07T08:31:03Z</time>
      </trkpt>
      <trkpt lat="48.85091" lon="-0.55008">
        <ele>164.8</ele>
        <time>2024-04-07T08:31:04Z</time>
      </trkpt>
      <trkpt lat="48.85094" lon="-0.55005">
        <ele>165</ele>
        <time>2024-04-07T08:31:05Z</time>
      </trkpt>
      <trkpt lat="48.85094" lon="-0.55005">
        <ele>165.2</ele>
        <time>2024-04-07T08:31:06Z</time>
      </trkpt>
      <trkpt lat="48.85101" lon="-0.54998">
        <ele>165.4</ele>
        <time>2024-04-07T08:31:07Z</time>
      </trkpt>
      <trkpt lat="48.85103" lon="-0.54994">
        <ele>165.6</ele>
        <time>2024-04-07T08:31:08Z</time>
      </trkpt>
      <trkpt lat="48.85106" lon="-0.54993">
        <ele>165.8</ele>
        <time>2024-04-07T08:31:09Z</time>
      </trkpt>
      <trkpt lat="48.85109" lon="-0.54991">
        <ele>166</ele>
        <time>2024-04-07T08:31:10Z</time>
      </trkpt>
      <trkpt lat="48.85113" lon="-0.5499">
        <ele>166.2</ele>
        <time>2024-04-07T08:31:11Z</time>
      </trkpt>
      <trkpt lat="48.85117" lon="-0.54988">
        <ele>166.4</ele>
        <time>2024-04-07T08:31:12Z</time>
      </trkpt>
      <trkpt lat="48.85122" lon="-0.54986">
        <ele>166.8</ele>
        <time>2024-04-07T08:31:13Z</time>
      </trkpt>
      <trkpt lat="48.85125" lon="-0.54984">
        <ele>167.2</ele>
        <time>2024-04-07T08:31:14Z</time>
      </trkpt>
      <trkpt lat="48.8513" lon="-0.54982">
        <ele>167.6</ele>
        <time>2024-04-07T08:31:15Z</time>
      </trkpt>
      <trkpt lat="48.85134" lon="-0.54981">
        <ele>167.8</ele>
        <time>2024-04-07T08:31:16Z</time>
      </trkpt>
      <trkpt lat="48.85138" lon="-0.54978">
        <ele>168.2</ele>
        <time>2024-04-07T08:31:17Z</time>
      </trkpt>
      <trkpt lat="48.85142" lon="-0.54976">
        <ele>168.8</ele>
        <time>2024-04-07T08:31:18Z</time>
      </trkpt>
      <trkpt lat="48.85146" lon="-0.54974">
        <ele>169</ele>
        <time>2024-04-07T08:31:19Z</time>
      </trkpt>
      <trkpt lat="48.85149" lon="-0.54974">
        <ele>169.2</ele>
        <time>2024-04-07T08:31:20Z</time>
      </trkpt>
      <trkpt lat="48.85152" lon="-0.54973">
        <ele>169.4</ele>
        <time>2024-04-07T08:31:21Z</time>
      </trkpt>
      <trkpt lat="48.85155" lon="-0.54972">
        <ele>169.6</ele>
        <time>2024-04-07T08:31:22Z</time>
      </trkpt>
      <trkpt lat="48.85157" lon="-0.54972">
        <ele>169.6</ele>
        <time>2024-04-07T08:31:23Z</time>
      </trkpt>
      <trkpt lat="48.85159" lon="-0.54972">
        <ele>169.8</ele>
        <time>2024-04-07T08:31:24Z</time>
      </trkpt>
      <trkpt lat="48.85161" lon="-0.54972">
        <ele>170</ele>
        <time>2024-04-07T08:31:25Z</time>
      </trkpt>
      <trkpt lat="48.85162" lon="-0.54972">
        <ele>170.2</ele>
        <time>2024-04-07T08:31:26Z</time>
      </trkpt>
      <trkpt lat="48.85164" lon="-0.54973">
        <ele>170.2</ele>
        <time>2024-04-07T08:31:27Z</time>
      </trkpt>
      <trkpt lat="48.85164" lon="-0.54973">
        <ele>170.4</ele>
        <time>2024-04-07T08:31:28Z</time>
      </trkpt>
      <trkpt lat="48.85165" lon="-0.54975">
        <ele>170.6</ele>
        <time>2024-04-07T08:31:29Z</time>
      </trkpt>
      <trkpt lat="48.85166" lon="-0.54977">
        <ele>170.8</ele>
        <time>2024-04-07T08:31:30Z</time>
      </trkpt>
      <trkpt lat="48.85167" lon="-0.5498">
        <ele>171</ele>
        <time>2024-04-07T08:31:31Z</time>
      </trkpt>
      <trkpt lat="48.85169" lon="-0.54983">
        <ele>171</ele>
        <time>2024-04-07T08:31:32Z</time>
      </trkpt>
      <trkpt lat="48.8517" lon="-0.54986">
        <ele>171</ele>
        <time>2024-04-07T08:31:33Z</time>
      </trkpt>
      <trkpt lat="48.8517" lon="-0.5499">
        <ele>170.8</ele>
        <time>2024-04-07T08:31:34Z</time>
      </trkpt>
      <trkpt lat="48.85168" lon="-0.54992">
        <ele>170.8</ele>
        <time>2024-04-07T08:31:35Z</time>
      </trkpt>
      <trkpt lat="48.85166" lon="-0.54992">
        <ele>170.6</ele>
        <time>2024-04-07T08:31:36Z</time>
      </trkpt>
      <trkpt lat="48.85164" lon="-0.54991">
        <ele>170.2</ele>
        <time>2024-04-07T08:31:37Z</time>
      </trkpt>
      <trkpt lat="48.85162" lon="-0.54991">
        <ele>170</ele>
        <time>2024-04-07T08:31:38Z</time>
      </trkpt>
      <trkpt lat="48.8516" lon="-0.54991">
        <ele>169.8</ele>
        <time>2024-04-07T08:31:39Z</time>
      </trkpt>
      <trkpt lat="48.85158" lon="-0.54991">
        <ele>169.6</ele>
        <time>2024-04-07T08:31:40Z</time>
      </trkpt>
      <trkpt lat="48.85157" lon="-0.54992">
        <ele>169.4</ele>
        <time>2024-04-07T08:31:41Z</time>
      </trkpt>
      <trkpt lat="48.85156" lon="-0.54992">
        <ele>169.4</ele>
        <time>2024-04-07T08:31:42Z</time>
      </trkpt>
      <trkpt lat="48.85153" lon="-0.54959">
        <ele>168.6</ele>
        <time>2024-04-07T08:42:35Z</time>
      </trkpt>
      <trkpt lat="48.85155" lon="-0.54957">
        <ele>168.8</ele>
        <time>2024-04-07T08:42:36Z</time>
      </trkpt>
      <trkpt lat="48.85158" lon="-0.54956">
        <ele>169.2</ele>
        <time>2024-04-07T08:42:37Z</time>
      </trkpt>
      <trkpt lat="48.8516" lon="-0.54954">
        <ele>169.6</ele>
        <time>2024-04-07T08:42:38Z</time>
      </trkpt>
      <trkpt lat="48.85161" lon="-0.54952">
        <ele>170</ele>
        <time>2024-04-07T08:42:39Z</time>
      </trkpt>
      <trkpt lat="48.85163" lon="-0.54949">
        <ele>170</ele>
        <time>2024-04-07T08:42:40Z</time>
      </trkpt>
      <trkpt lat="48.85164" lon="-0.54946">
        <ele>170.2</ele>
        <time>2024-04-07T08:42:41Z</time>
      </trkpt>
      <trkpt lat="48.85165" lon="-0.54943">
        <ele>170.2</ele>
        <time>2024-04-07T08:42:42Z</time>
      </trkpt>
      <trkpt lat="48.85165" lon="-0.54941">
        <ele>170.2</ele>
        <time>2024-04-07T08:42:43Z</time>
      </trkpt>
      <trkpt lat="48.85165" lon="-0.54939">
        <ele>170.2</ele>
        <time>2024-04-07T08:42:44Z</time>
      </trkpt>
      <trkpt lat="48.85165" lon="-0.5493">
        <ele>170.2</ele>
        <time>2024-04-07T08:42:45Z</time>
      </trkpt>
      <trkpt lat="48.85166" lon="-0.54925">
        <ele>170.4</ele>
        <time>2024-04-07T08:42:46Z</time>
      </trkpt>
      <trkpt lat="48.85166" lon="-0.5492">
        <ele>170.6</ele>
        <time>2024-04-07T08:42:47Z</time>
      </trkpt>
      <trkpt lat="48.85167" lon="-0.54916">
        <ele>170.6</ele>
        <time>2024-04-07T08:42:48Z</time>
      </trkpt>
      <trkpt lat="48.85168" lon="-0.54911">
        <ele>170.8</ele>
        <time>2024-04-07T08:42:49Z</time>
      </trkpt>
      <trkpt lat="48.8517" lon="-0.54905">
        <ele>171</ele>
        <time>2024-04-07T08:42:50Z</time>
      </trkpt>
      <trkpt lat="48.8517" lon="-0.54899">
        <ele>171</ele>
        <time>2024-04-07T08:42:51Z</time>
      </trkpt>
      <trkpt lat="48.85171" lon="-0.54893">
        <ele>171.2</ele>
        <time>2024-04-07T08:42:52Z</time>
      </trkpt>
      <trkpt lat="48.85171" lon="-0.54887">
        <ele>171.2</ele>
        <time>2024-04-07T08:42:53Z</time>
      </trkpt>
      <trkpt lat="48.85172" lon="-0.54881">
        <ele>171.4</ele>
        <time>2024-04-07T08:42:54Z</time>
      </trkpt>
      <trkpt lat="48.85172" lon="-0.54874">
        <ele>171.6</ele>
        <time>2024-04-07T08:42:55Z</time>
      </trkpt>
      <trkpt lat="48.85173" lon="-0.54868">
        <ele>171.6</ele>
        <time>2024-04-07T08:42:56Z</time>
      </trkpt>
      <trkpt lat="48.85173" lon="-0.54861">
        <ele>171.8</ele>
        <time>2024-04-07T08:42:57Z</time>
      </trkpt>
      <trkpt lat="48.85174" lon="-0.54854">
        <ele>171.8</ele>
        <time>2024-04-07T08:42:58Z</time>
      </trkpt>
      <trkpt lat="48.85175" lon="-0.54848">
        <ele>171.8</ele>
        <time>2024-04-07T08:42:59Z</time>
      </trkpt>
      <trkpt lat="48.85175" lon="-0.54842">
        <ele>171.8</ele>
        <time>2024-04-07T08:43:00Z</time>
      </trkpt>
      <trkpt lat="48.85175" lon="-0.54836">
        <ele>171.8</ele>
        <time>2024-04-07T08:43:01Z</time>
      </trkpt>
      <trkpt lat="48.85175" lon="-0.5483">
        <ele>172</ele>
        <time>2024-04-07T08:43:02Z</time>
      </trkpt>
      <trkpt lat="48.85175" lon="-0.54824">
        <ele>172</ele>
        <time>2024-04-07T08:43:03Z</time>
      </trkpt>
      <trkpt lat="48.85175" lon="-0.54819">
        <ele>172.2</ele>
        <time>2024-04-07T08:43:04Z</time>
      </trkpt>
      <trkpt lat="48.85175" lon="-0.54814">
        <ele>172.4</ele>
        <time>2024-04-07T08:43:05Z</time>
      </trkpt>
      <trkpt lat="48.85175" lon="-0.5481">
        <ele>172.6</ele>
        <time>2024-04-07T08:43:06Z</time>
      </trkpt>
      <trkpt lat="48.85176" lon="-0.54807">
        <ele>172.8</ele>
        <time>2024-04-07T08:43:07Z</time>
      </trkpt>
      <trkpt lat="48.85178" lon="-0.54804">
        <ele>173.2</ele>
        <time>2024-04-07T08:43:08Z</time>
      </trkpt>
      <trkpt lat="48.85179" lon="-0.54802">
        <ele>173.6</ele>
        <time>2024-04-07T08:43:09Z</time>
      </trkpt>
      <trkpt lat="48.85179" lon="-0.54797">
        <ele>174</ele>
        <time>2024-04-07T08:43:10Z</time>
      </trkpt>
      <trkpt lat="48.85179" lon="-0.54794">
        <ele>174.2</ele>
        <time>2024-04-07T08:43:11Z</time>
      </trkpt>
      <trkpt lat="48.8518" lon="-0.54791">
        <ele>174.2</ele>
        <time>2024-04-07T08:43:12Z</time>
      </trkpt>
      <trkpt lat="48.85182" lon="-0.54788">
        <ele>174.4</ele>
        <time>2024-04-07T08:43:13Z</time>
      </trkpt>
      <trkpt lat="48.85183" lon="-0.54786">
        <ele>174.4</ele>
        <time>2024-04-07T08:43:14Z</time>
      </trkpt>
      <trkpt lat="48.85183" lon="-0.54784">
        <ele>174.6</ele>
        <time>2024-04-07T08:43:15Z</time>
      </trkpt>
      <trkpt lat="48.85183" lon="-0.54782">
        <ele>174.6</ele>
        <time>2024-04-07T08:43:16Z</time>
      </trkpt>
      <trkpt lat="48.85182" lon="-0.54781">
        <ele>175</ele>
        <time>2024-04-07T08:43:17Z</time>
      </trkpt>
      <trkpt lat="48.85182" lon="-0.5478">
        <ele>175.4</ele>
        <time>2024-04-07T08:43:18Z</time>
      </trkpt>
      <trkpt lat="48.85178" lon="-0.54756">
        <ele>175.4</ele>
        <time>2024-04-07T09:13:04Z</time>
      </trkpt>
      <trkpt lat="48.85179" lon="-0.54754">
        <ele>175.4</ele>
        <time>2024-04-07T09:13:05Z</time>
      </trkpt>
      <trkpt lat="48.85181" lon="-0.54753">
        <ele>175.6</ele>
        <time>2024-04-07T09:13:06Z</time>
      </trkpt>
      <trkpt lat="48.85182" lon="-0.54751">
        <ele>175.8</ele>
        <time>2024-04-07T09:13:07Z</time>
      </trkpt>
      <trkpt lat="48.85184" lon="-0.5475">
        <ele>175.8</ele>
        <time>2024-04-07T09:13:08Z</time>
      </trkpt>
      <trkpt lat="48.85186" lon="-0.5475">
        <ele>176</ele>
        <time>2024-04-07T09:13:09Z</time>
      </trkpt>
      <trkpt lat="48.85188" lon="-0.54747">
        <ele>176</ele>
        <time>2024-04-07T09:13:10Z</time>
      </trkpt>
      <trkpt lat="48.8519" lon="-0.54747">
        <ele>176.2</ele>
        <time>2024-04-07T09:13:11Z</time>
      </trkpt>
      <trkpt lat="48.85191" lon="-0.54746">
        <ele>176.4</ele>
        <time>2024-04-07T09:13:12Z</time>
      </trkpt>
      <trkpt lat="48.85193" lon="-0.54746">
        <ele>176.6</ele>
        <time>2024-04-07T09:13:13Z</time>
      </trkpt>
      <trkpt lat="48.85193" lon="-0.54746">
        <ele>176.8</ele>
        <time>2024-04-07T09:13:14Z</time>
      </trkpt>
      <trkpt lat="48.85194" lon="-0.54746">
        <ele>177</ele>
        <time>2024-04-07T09:13:15Z</time>
      </trkpt>
      <trkpt lat="48.85194" lon="-0.54746">
        <ele>177</ele>
        <time>2024-04-07T09:13:16Z</time>
      </trkpt>
      <trkpt lat="48.85195" lon="-0.54748">
        <ele>177</ele>
        <time>2024-04-07T09:13:17Z</time>
      </trkpt>
      <trkpt lat="48.85196" lon="-0.5475">
        <ele>177</ele>
        <time>2024-04-07T09:13:18Z</time>
      </trkpt>
      <trkpt lat="48.85197" lon="-0.54754">
        <ele>177</ele>
        <time>2024-04-07T09:13:19Z</time>
      </trkpt>
      <trkpt lat="48.85198" lon="-0.54757">
        <ele>177.2</ele>
        <time>2024-04-07T09:13:20Z</time>
      </trkpt>
      <trkpt lat="48.852" lon="-0.54762">
        <ele>177</ele>
        <time>2024-04-07T09:13:21Z</time>
      </trkpt>
      <trkpt lat="48.85204" lon="-0.54765">
        <ele>177</ele>
        <time>2024-04-07T09:13:22Z</time>
      </trkpt>
      <trkpt lat="48.85207" lon="-0.54769">
        <ele>177.2</ele>
        <time>2024-04-07T09:13:23Z</time>
      </trkpt>
      <trkpt lat="48.8521" lon="-0.54772">
        <ele>177.2</ele>
        <time>2024-04-07T09:13:24Z</time>
      </trkpt>
      <trkpt lat="48.85212" lon="-0.54775">
        <ele>177</ele>
        <time>2024-04-07T09:13:25Z</time>
      </trkpt>
      <trkpt lat="48.85215" lon="-0.54776">
        <ele>177.2</ele>
        <time>2024-04-07T09:13:26Z</time>
      </trkpt>
      <trkpt lat="48.85217" lon="-0.54776">
        <ele>177.4</ele>
        <time>2024-04-07T09:13:27Z</time>
      </trkpt>
      <trkpt lat="48.85218" lon="-0.54777">
        <ele>177.6</ele>
        <time>2024-04-07T09:13:28Z</time>
      </trkpt>
      <trkpt lat="48.85218" lon="-0.54777">
        <ele>177.6</ele>
        <time>2024-04-07T09:13:29Z</time>
      </trkpt>
      <trkpt lat="48.85222" lon="-0.5478">
        <ele>177.4</ele>
        <time>2024-04-07T09:13:36Z</time>
      </trkpt>
      <trkpt lat="48.85224" lon="-0.54782">
        <ele>177.4</ele>
        <time>2024-04-07T09:13:37Z</time>
      </trkpt>
      <trkpt lat="48.85226" lon="-0.54786">
        <ele>177.4</ele>
        <time>2024-04-07T09:13:38Z</time>
      </trkpt>
      <trkpt lat="48.85228" lon="-0.5479">
        <ele>177.4</ele>
        <time>2024-04-07T09:13:39Z</time>
      </trkpt>
      <trkpt lat="48.8523" lon="-0.54795">
        <ele>177.2</ele>
        <time>2024-04-07T09:13:40Z</time>
      </trkpt>
      <trkpt lat="48.85231" lon="-0.54801">
        <ele>177.2</ele>
        <time>2024-04-07T09:13:41Z</time>
      </trkpt>
      <trkpt lat="48.85234" lon="-0.54808">
        <ele>177.2</ele>
        <time>2024-04-07T09:13:42Z</time>
      </trkpt>
      <trkpt lat="48.85236" lon="-0.54814">
        <ele>177.2</ele>
        <time>2024-04-07T09:13:43Z</time>
      </trkpt>
      <trkpt lat="48.85238" lon="-0.54821">
        <ele>177</ele>
        <time>2024-04-07T09:13:44Z</time>
      </trkpt>
      <trkpt lat="48.85241" lon="-0.54827">
        <ele>177</ele>
        <time>2024-04-07T09:13:45Z</time>
      </trkpt>
      <trkpt lat="48.85243" lon="-0.54833">
        <ele>177</ele>
        <time>2024-04-07T09:13:46Z</time>
      </trkpt>
      <trkpt lat="48.85245" lon="-0.54839">
        <ele>176.8</ele>
        <time>2024-04-07T09:13:47Z</time>
      </trkpt>
      <trkpt lat="48.85248" lon="-0.54845">
        <ele>176.8</ele>
        <time>2024-04-07T09:13:48Z</time>
      </trkpt>
      <trkpt lat="48.85251" lon="-0.54851">
        <ele>176.6</ele>
        <time>2024-04-07T09:13:49Z</time>
      </trkpt>
      <trkpt lat="48.85253" lon="-0.54857">
        <ele>176.6</ele>
        <time>2024-04-07T09:13:50Z</time>
      </trkpt>
      <trkpt lat="48.85256" lon="-0.54864">
        <ele>176.4</ele>
        <time>2024-04-07T09:13:51Z</time>
      </trkpt>
      <trkpt lat="48.85258" lon="-0.54871">
        <ele>176.4</ele>
        <time>2024-04-07T09:13:52Z</time>
      </trkpt>
      <trkpt lat="48.8526" lon="-0.54879">
        <ele>176.4</ele>
        <time>2024-04-07T09:13:53Z</time>
      </trkpt>
      <trkpt lat="48.85262" lon="-0.54886">
        <ele>176.4</ele>
        <time>2024-04-07T09:13:54Z</time>
      </trkpt>
      <trkpt lat="48.85263" lon="-0.54894">
        <ele>176.2</ele>
        <time>2024-04-07T09:13:55Z</time>
      </trkpt>
      <trkpt lat="48.85265" lon="-0.54902">
        <ele>176.2</ele>
        <time>2024-04-07T09:13:56Z</time>
      </trkpt>
      <trkpt lat="48.85266" lon="-0.5491">
        <ele>176.2</ele>
        <time>2024-04-07T09:13:57Z</time>
      </trkpt>
      <trkpt lat="48.85268" lon="-0.54918">
        <ele>176.4</ele>
        <time>2024-04-07T09:13:58Z</time>
      </trkpt>
      <trkpt lat="48.85269" lon="-0.54926">
        <ele>176.4</ele>
        <time>2024-04-07T09:13:59Z</time>
      </trkpt>
      <trkpt lat="48.85271" lon="-0.54934">
        <ele>176.6</ele>
        <time>2024-04-07T09:14:00Z</time>
      </trkpt>
      <trkpt lat="48.85273" lon="-0.54942">
        <ele>176.8</ele>
        <time>2024-04-07T09:14:01Z</time>
      </trkpt>
      <trkpt lat="48.85274" lon="-0.5495">
        <ele>176.8</ele>
        <time>2024-04-07T09:14:02Z</time>
      </trkpt>
      <trkpt lat="48.85276" lon="-0.54958">
        <ele>176.8</ele>
        <time>2024-04-07T09:14:03Z</time>
      </trkpt>
      <trkpt lat="48.85277" lon="-0.54966">
        <ele>176.8</ele>
        <time>2024-04-07T09:14:04Z</time>
      </trkpt>
      <trkpt lat="48.85278" lon="-0.54974">
        <ele>176.8</ele>
        <time>2024-04-07T09:14:05Z</time>
      </trkpt>
      <trkpt lat="48.85279" lon="-0.54982">
        <ele>176.6</ele>
        <time>2024-04-07T09:14:06Z</time>
      </trkpt>
      <trkpt lat="48.85281" lon="-0.5499">
        <ele>176.4</ele>
        <time>2024-04-07T09:14:07Z</time>
      </trkpt>
      <trkpt lat="48.85282" lon="-0.54998">
        <ele>176.4</ele>
        <time>2024-04-07T09:14:08Z</time>
      </trkpt>
      <trkpt lat="48.85283" lon="-0.55006">
        <ele>176.2</ele>
        <time>2024-04-07T09:14:09Z</time>
      </trkpt>
      <trkpt lat="48.85285" lon="-0.55014">
        <ele>176</ele>
        <time>2024-04-07T09:14:10Z</time>
      </trkpt>
      <trkpt lat="48.85286" lon="-0.55023">
        <ele>176</ele>
        <time>2024-04-07T09:14:11Z</time>
      </trkpt>
      <trkpt lat="48.85287" lon="-0.55031">
        <ele>175.8</ele>
        <time>2024-04-07T09:14:12Z</time>
      </trkpt>
      <trkpt lat="48.85288" lon="-0.55039">
        <ele>175.8</ele>
        <time>2024-04-07T09:14:13Z</time>
      </trkpt>
      <trkpt lat="48.85289" lon="-0.55047">
        <ele>176</ele>
        <time>2024-04-07T09:14:14Z</time>
      </trkpt>
      <trkpt lat="48.85291" lon="-0.55055">
        <ele>176.4</ele>
        <time>2024-04-07T09:14:15Z</time>
      </trkpt>
      <trkpt lat="48.85292" lon="-0.55063">
        <ele>176.6</ele>
        <time>2024-04-07T09:14:16Z</time>
      </trkpt>
      <trkpt lat="48.85293" lon="-0.55072">
        <ele>176.6</ele>
        <time>2024-04-07T09:14:17Z</time>
      </trkpt>
      <trkpt lat="48.85294" lon="-0.5508">
        <ele>176.8</ele>
        <time>2024-04-07T09:14:18Z</time>
      </trkpt>
      <trkpt lat="48.85295" lon="-0.55089">
        <ele>176.6</ele>
        <time>2024-04-07T09:14:19Z</time>
      </trkpt>
      <trkpt lat="48.85297" lon="-0.55097">
        <ele>176.4</ele>
        <time>2024-04-07T09:14:20Z</time>
      </trkpt>
      <trkpt lat="48.85297" lon="-0.55105">
        <ele>176.4</ele>
        <time>2024-04-07T09:14:21Z</time>
      </trkpt>
      <trkpt lat="48.85298" lon="-0.55113">
        <ele>176.2</ele>
        <time>2024-04-07T09:14:22Z</time>
      </trkpt>
      <trkpt lat="48.85298" lon="-0.55121">
        <ele>176.4</ele>
        <time>2024-04-07T09:14:23Z</time>
      </trkpt>
      <trkpt lat="48.85299" lon="-0.55128">
        <ele>176.6</ele>
        <time>2024-04-07T09:14:24Z</time>
      </trkpt>
      <trkpt lat="48.853" lon="-0.55136">
        <ele>177</ele>
        <time>2024-04-07T09:14:25Z</time>
      </trkpt>
      <trkpt lat="48.853" lon="-0.55144">
        <ele>177.2</ele>
        <time>2024-04-07T09:14:26Z</time>
      </trkpt>
      <trkpt lat="48.85302" lon="-0.55153">
        <ele>177.2</ele>
        <time>2024-04-07T09:14:27Z</time>
      </trkpt>
      <trkpt lat="48.85303" lon="-0.55161">
        <ele>177.2</ele>
        <time>2024-04-07T09:14:28Z</time>
      </trkpt>
      <trkpt lat="48.85304" lon="-0.5517">
        <ele>177.2</ele>
        <time>2024-04-07T09:14:29Z</time>
      </trkpt>
      <trkpt lat="48.85305" lon="-0.55178">
        <ele>177.2</ele>
        <time>2024-04-07T09:14:30Z</time>
      </trkpt>
      <trkpt lat="48.85307" lon="-0.55187">
        <ele>177.2</ele>
        <time>2024-04-07T09:14:31Z</time>
      </trkpt>
      <trkpt lat="48.85308" lon="-0.55195">
        <ele>177.2</ele>
        <time>2024-04-07T09:14:32Z</time>
      </trkpt>
      <trkpt lat="48.85309" lon="-0.55203">
        <ele>177.2</ele>
        <time>2024-04-07T09:14:33Z</time>
      </trkpt>
      <trkpt lat="48.8531" lon="-0.55211">
        <ele>177.2</ele>
        <time>2024-04-07T09:14:34Z</time>
      </trkpt>
      <trkpt lat="48.85311" lon="-0.55219">
        <ele>177.4</ele>
        <time>2024-04-07T09:14:35Z</time>
      </trkpt>
      <trkpt lat="48.85312" lon="-0.55226">
        <ele>177.2</ele>
        <time>2024-04-07T09:14:36Z</time>
      </trkpt>
      <trkpt lat="48.85312" lon="-0.55233">
        <ele>177.2</ele>
        <time>2024-04-07T09:14:37Z</time>
      </trkpt>
      <trkpt lat="48.85314" lon="-0.55239">
        <ele>177.2</ele>
        <time>2024-04-07T09:14:38Z</time>
      </trkpt>
      <trkpt lat="48.85314" lon="-0.55244">
        <ele>177</ele>
        <time>2024-04-07T09:14:39Z</time>
      </trkpt>
      <trkpt lat="48.85315" lon="-0.55249">
        <ele>177</ele>
        <time>2024-04-07T09:14:40Z</time>
      </trkpt>
      <trkpt lat="48.85316" lon="-0.55253">
        <ele>177.2</ele>
        <time>2024-04-07T09:14:41Z</time>
      </trkpt>
      <trkpt lat="48.85318" lon="-0.55258">
        <ele>177.4</ele>
        <time>2024-04-07T09:14:42Z</time>
      </trkpt>
      <trkpt lat="48.85319" lon="-0.55263">
        <ele>177.4</ele>
        <time>2024-04-07T09:14:43Z</time>
      </trkpt>
      <trkpt lat="48.8532" lon="-0.55269">
        <ele>177.6</ele>
        <time>2024-04-07T09:14:44Z</time>
      </trkpt>
      <trkpt lat="48.85322" lon="-0.55274">
        <ele>177.6</ele>
        <time>2024-04-07T09:14:45Z</time>
      </trkpt>
      <trkpt lat="48.85324" lon="-0.5528">
        <ele>177.8</ele>
        <time>2024-04-07T09:14:46Z</time>
      </trkpt>
      <trkpt lat="48.85325" lon="-0.55286">
        <ele>178</ele>
        <time>2024-04-07T09:14:47Z</time>
      </trkpt>
      <trkpt lat="48.85326" lon="-0.55293">
        <ele>178.2</ele>
        <time>2024-04-07T09:14:48Z</time>
      </trkpt>
      <trkpt lat="48.85328" lon="-0.55301">
        <ele>178.2</ele>
        <time>2024-04-07T09:14:49Z</time>
      </trkpt>
      <trkpt lat="48.8533" lon="-0.55309">
        <ele>178.2</ele>
        <time>2024-04-07T09:14:50Z</time>
      </trkpt>
      <trkpt lat="48.85332" lon="-0.55317">
        <ele>178.4</ele>
        <time>2024-04-07T09:14:51Z</time>
      </trkpt>
      <trkpt lat="48.85334" lon="-0.55324">
        <ele>178.4</ele>
        <time>2024-04-07T09:14:52Z</time>
      </trkpt>
      <trkpt lat="48.85337" lon="-0.55331">
        <ele>178.4</ele>
        <time>2024-04-07T09:14:53Z</time>
      </trkpt>
      <trkpt lat="48.85341" lon="-0.55339">
        <ele>178.4</ele>
        <time>2024-04-07T09:14:54Z</time>
      </trkpt>
      <trkpt lat="48.85343" lon="-0.55348">
        <ele>178.2</ele>
        <time>2024-04-07T09:14:55Z</time>
      </trkpt>
      <trkpt lat="48.85347" lon="-0.55356">
        <ele>178</ele>
        <time>2024-04-07T09:14:56Z</time>
      </trkpt>
      <trkpt lat="48.8535" lon="-0.55365">
        <ele>177.4</ele>
        <time>2024-04-07T09:14:57Z</time>
      </trkpt>
      <trkpt lat="48.85354" lon="-0.55374">
        <ele>176.8</ele>
        <time>2024-04-07T09:14:58Z</time>
      </trkpt>
      <trkpt lat="48.85358" lon="-0.55383">
        <ele>176.4</ele>
        <time>2024-04-07T09:14:59Z</time>
      </trkpt>
      <trkpt lat="48.85363" lon="-0.55392">
        <ele>176</ele>
        <time>2024-04-07T09:15:00Z</time>
      </trkpt>
      <trkpt lat="48.85367" lon="-0.55402">
        <ele>175.8</ele>
        <time>2024-04-07T09:15:01Z</time>
      </trkpt>
      <trkpt lat="48.85372" lon="-0.55411">
        <ele>175</ele>
        <time>2024-04-07T09:15:02Z</time>
      </trkpt>
      <trkpt lat="48.85378" lon="-0.5542">
        <ele>174</ele>
        <time>2024-04-07T09:15:03Z</time>
      </trkpt>
      <trkpt lat="48.85383" lon="-0.5543">
        <ele>173.4</ele>
        <time>2024-04-07T09:15:04Z</time>
      </trkpt>
      <trkpt lat="48.85389" lon="-0.5544">
        <ele>173</ele>
        <time>2024-04-07T09:15:05Z</time>
      </trkpt>
      <trkpt lat="48.85395" lon="-0.5545">
        <ele>172.6</ele>
        <time>2024-04-07T09:15:06Z</time>
      </trkpt>
      <trkpt lat="48.85401" lon="-0.5546">
        <ele>172.2</ele>
        <time>2024-04-07T09:15:07Z</time>
      </trkpt>
      <trkpt lat="48.85407" lon="-0.55469">
        <ele>172.2</ele>
        <time>2024-04-07T09:15:08Z</time>
      </trkpt>
      <trkpt lat="48.85414" lon="-0.55479">
        <ele>172</ele>
        <time>2024-04-07T09:15:09Z</time>
      </trkpt>
      <trkpt lat="48.8542" lon="-0.55489">
        <ele>171.8</ele>
        <time>2024-04-07T09:15:10Z</time>
      </trkpt>
      <trkpt lat="48.85427" lon="-0.55499">
        <ele>171.2</ele>
        <time>2024-04-07T09:15:11Z</time>
      </trkpt>
      <trkpt lat="48.85434" lon="-0.55509">
        <ele>170.6</ele>
        <time>2024-04-07T09:15:12Z</time>
      </trkpt>
      <trkpt lat="48.85441" lon="-0.55518">
        <ele>169.8</ele>
        <time>2024-04-07T09:15:13Z</time>
      </trkpt>
      <trkpt lat="48.85448" lon="-0.55528">
        <ele>169.4</ele>
        <time>2024-04-07T09:15:14Z</time>
      </trkpt>
      <trkpt lat="48.85455" lon="-0.55537">
        <ele>168.8</ele>
        <time>2024-04-07T09:15:15Z</time>
      </trkpt>
      <trkpt lat="48.85462" lon="-0.55546">
        <ele>168.6</ele>
        <time>2024-04-07T09:15:16Z</time>
      </trkpt>
      <trkpt lat="48.85469" lon="-0.55555">
        <ele>168.4</ele>
        <time>2024-04-07T09:15:17Z</time>
      </trkpt>
      <trkpt lat="48.85476" lon="-0.55564">
        <ele>168.2</ele>
        <time>2024-04-07T09:15:18Z</time>
      </trkpt>
      <trkpt lat="48.85483" lon="-0.55572">
        <ele>168</ele>
        <time>2024-04-07T09:15:19Z</time>
      </trkpt>
      <trkpt lat="48.8549" lon="-0.5558">
        <ele>167.8</ele>
        <time>2024-04-07T09:15:20Z</time>
      </trkpt>
      <trkpt lat="48.85498" lon="-0.55587">
        <ele>167.6</ele>
        <time>2024-04-07T09:15:21Z</time>
      </trkpt>
      <trkpt lat="48.85505" lon="-0.55593">
        <ele>167.4</ele>
        <time>2024-04-07T09:15:22Z</time>
      </trkpt>
      <trkpt lat="48.85512" lon="-0.556">
        <ele>167.4</ele>
        <time>2024-04-07T09:15:23Z</time>
      </trkpt>
      <trkpt lat="48.8552" lon="-0.55607">
        <ele>167.2</ele>
        <time>2024-04-07T09:15:24Z</time>
      </trkpt>
      <trkpt lat="48.85528" lon="-0.55613">
        <ele>167.2</ele>
        <time>2024-04-07T09:15:25Z</time>
      </trkpt>
      <trkpt lat="48.85535" lon="-0.55619">
        <ele>167.2</ele>
        <time>2024-04-07T09:15:26Z</time>
      </trkpt>
      <trkpt lat="48.85542" lon="-0.55625">
        <ele>167.2</ele>
        <time>2024-04-07T09:15:27Z</time>
      </trkpt>
      <trkpt lat="48.85548" lon="-0.5563">
        <ele>167.2</ele>
        <time>2024-04-07T09:15:28Z</time>
      </trkpt>
      <trkpt lat="48.85554" lon="-0.55635">
        <ele>167.2</ele>
        <time>2024-04-07T09:15:29Z</time>
      </trkpt>
      <trkpt lat="48.8556" lon="-0.5564">
        <ele>167.2</ele>
        <time>2024-04-07T09:15:30Z</time>
      </trkpt>
      <trkpt lat="48.85566" lon="-0.55645">
        <ele>167.6</ele>
        <time>2024-04-07T09:15:31Z</time>
      </trkpt>
      <trkpt lat="48.85571" lon="-0.55649">
        <ele>168.2</ele>
        <time>2024-04-07T09:15:32Z</time>
      </trkpt>
      <trkpt lat="48.85577" lon="-0.55653">
        <ele>169</ele>
        <time>2024-04-07T09:15:33Z</time>
      </trkpt>
      <trkpt lat="48.85582" lon="-0.55657">
        <ele>170</ele>
        <time>2024-04-07T09:15:34Z</time>
      </trkpt>
      <trkpt lat="48.85587" lon="-0.55661">
        <ele>170.6</ele>
        <time>2024-04-07T09:15:35Z</time>
      </trkpt>
      <trkpt lat="48.85591" lon="-0.55664">
        <ele>170.8</ele>
        <time>2024-04-07T09:15:36Z</time>
      </trkpt>
      <trkpt lat="48.85596" lon="-0.55668">
        <ele>171.2</ele>
        <time>2024-04-07T09:15:37Z</time>
      </trkpt>
      <trkpt lat="48.85601" lon="-0.55672">
        <ele>171.4</ele>
        <time>2024-04-07T09:15:38Z</time>
      </trkpt>
      <trkpt lat="48.85606" lon="-0.55676">
        <ele>171.6</ele>
        <time>2024-04-07T09:15:39Z</time>
      </trkpt>
      <trkpt lat="48.8561" lon="-0.55679">
        <ele>172</ele>
        <time>2024-04-07T09:15:40Z</time>
      </trkpt>
      <trkpt lat="48.85614" lon="-0.55682">
        <ele>172.4</ele>
        <time>2024-04-07T09:15:41Z</time>
      </trkpt>
      <trkpt lat="48.85618" lon="-0.55686">
        <ele>172.8</ele>
        <time>2024-04-07T09:15:42Z</time>
      </trkpt>
      <trkpt lat="48.85623" lon="-0.55689">
        <ele>173.4</ele>
        <time>2024-04-07T09:15:43Z</time>
      </trkpt>
      <trkpt lat="48.85627" lon="-0.55693">
        <ele>174</ele>
        <time>2024-04-07T09:15:44Z</time>
      </trkpt>
      <trkpt lat="48.85631" lon="-0.55697">
        <ele>174.4</ele>
        <time>2024-04-07T09:15:45Z</time>
      </trkpt>
      <trkpt lat="48.85635" lon="-0.557">
        <ele>174.6</ele>
        <time>2024-04-07T09:15:46Z</time>
      </trkpt>
      <trkpt lat="48.85639" lon="-0.55702">
        <ele>175</ele>
        <time>2024-04-07T09:15:47Z</time>
      </trkpt>
      <trkpt lat="48.85643" lon="-0.55705">
        <ele>175.4</ele>
        <time>2024-04-07T09:15:48Z</time>
      </trkpt>
      <trkpt lat="48.85648" lon="-0.55708">
        <ele>175.6</ele>
        <time>2024-04-07T09:15:49Z</time>
      </trkpt>
      <trkpt lat="48.85653" lon="-0.55711">
        <ele>176</ele>
        <time>2024-04-07T09:15:50Z</time>
      </trkpt>
      <trkpt lat="48.85657" lon="-0.55715">
        <ele>176.2</ele>
        <time>2024-04-07T09:15:51Z</time>
      </trkpt>
      <trkpt lat="48.85661" lon="-0.55718">
        <ele>176.4</ele>
        <time>2024-04-07T09:15:52Z</time>
      </trkpt>
      <trkpt lat="48.85666" lon="-0.5572">
        <ele>176.6</ele>
        <time>2024-04-07T09:15:53Z</time>
      </trkpt>
      <trkpt lat="48.8567" lon="-0.55721">
        <ele>176.8</ele>
        <time>2024-04-07T09:15:54Z</time>
      </trkpt>
      <trkpt lat="48.85675" lon="-0.55721">
        <ele>177</ele>
        <time>2024-04-07T09:15:55Z</time>
      </trkpt>
      <trkpt lat="48.85679" lon="-0.55722">
        <ele>177.4</ele>
        <time>2024-04-07T09:15:56Z</time>
      </trkpt>
      <trkpt lat="48.85683" lon="-0.55723">
        <ele>177.8</ele>
        <time>2024-04-07T09:15:57Z</time>
      </trkpt>
      <trkpt lat="48.85687" lon="-0.55723">
        <ele>178.2</ele>
        <time>2024-04-07T09:15:58Z</time>
      </trkpt>
      <trkpt lat="48.85691" lon="-0.55723">
        <ele>178.6</ele>
        <time>2024-04-07T09:15:59Z</time>
      </trkpt>
      <trkpt lat="48.85696" lon="-0.55723">
        <ele>179</ele>
        <time>2024-04-07T09:16:00Z</time>
      </trkpt>
      <trkpt lat="48.857" lon="-0.55723">
        <ele>179.4</ele>
        <time>2024-04-07T09:16:01Z</time>
      </trkpt>
      <trkpt lat="48.85703" lon="-0.55723">
        <ele>179.8</ele>
        <time>2024-04-07T09:16:02Z</time>
      </trkpt>
      <trkpt lat="48.85707" lon="-0.55722">
        <ele>180</ele>
        <time>2024-04-07T09:16:03Z</time>
      </trkpt>
      <trkpt lat="48.8571" lon="-0.55722">
        <ele>180.4</ele>
        <time>2024-04-07T09:16:04Z</time>
      </trkpt>
      <trkpt lat="48.85714" lon="-0.55722">
        <ele>180.8</ele>
        <time>2024-04-07T09:16:05Z</time>
      </trkpt>
      <trkpt lat="48.85717" lon="-0.55722">
        <ele>181.4</ele>
        <time>2024-04-07T09:16:06Z</time>
      </trkpt>
      <trkpt lat="48.85721" lon="-0.55723">
        <ele>181.8</ele>
        <time>2024-04-07T09:16:07Z</time>
      </trkpt>
      <trkpt lat="48.85724" lon="-0.55723">
        <ele>182</ele>
        <time>2024-04-07T09:16:08Z</time>
      </trkpt>
      <trkpt lat="48.85727" lon="-0.55723">
        <ele>182.2</ele>
        <time>2024-04-07T09:16:09Z</time>
      </trkpt>
      <trkpt lat="48.85729" lon="-0.55723">
        <ele>182.4</ele>
        <time>2024-04-07T09:16:10Z</time>
      </trkpt>
      <trkpt lat="48.85732" lon="-0.55723">
        <ele>182.6</ele>
        <time>2024-04-07T09:16:11Z</time>
      </trkpt>
      <trkpt lat="48.85736" lon="-0.55723">
        <ele>182.8</ele>
        <time>2024-04-07T09:16:12Z</time>
      </trkpt>
      <trkpt lat="48.85739" lon="-0.55722">
        <ele>183</ele>
        <time>2024-04-07T09:16:13Z</time>
      </trkpt>
      <trkpt lat="48.85743" lon="-0.55722">
        <ele>183.2</ele>
        <time>2024-04-07T09:16:14Z</time>
      </trkpt>
      <trkpt lat="48.85746" lon="-0.55722">
        <ele>183.4</ele>
        <time>2024-04-07T09:16:15Z</time>
      </trkpt>
      <trkpt lat="48.8575" lon="-0.55722">
        <ele>183.8</ele>
        <time>2024-04-07T09:16:16Z</time>
      </trkpt>
      <trkpt lat="48.85753" lon="-0.55722">
        <ele>184</ele>
        <time>2024-04-07T09:16:17Z</time>
      </trkpt>
      <trkpt lat="48.85756" lon="-0.55721">
        <ele>184.2</ele>
        <time>2024-04-07T09:16:18Z</time>
      </trkpt>
      <trkpt lat="48.8576" lon="-0.5572">
        <ele>184.2</ele>
        <time>2024-04-07T09:16:19Z</time>
      </trkpt>
      <trkpt lat="48.85763" lon="-0.5572">
        <ele>184.4</ele>
        <time>2024-04-07T09:16:20Z</time>
      </trkpt>
      <trkpt lat="48.85767" lon="-0.5572">
        <ele>184.6</ele>
        <time>2024-04-07T09:16:21Z</time>
      </trkpt>
      <trkpt lat="48.85771" lon="-0.5572">
        <ele>184.8</ele>
        <time>2024-04-07T09:16:22Z</time>
      </trkpt>
      <trkpt lat="48.85775" lon="-0.5572">
        <ele>185</ele>
        <time>2024-04-07T09:16:23Z</time>
      </trkpt>
      <trkpt lat="48.85778" lon="-0.55721">
        <ele>185.2</ele>
        <time>2024-04-07T09:16:24Z</time>
      </trkpt>
      <trkpt lat="48.85782" lon="-0.55721">
        <ele>185.4</ele>
        <time>2024-04-07T09:16:25Z</time>
      </trkpt>
      <trkpt lat="48.85786" lon="-0.55721">
        <ele>185.6</ele>
        <time>2024-04-07T09:16:26Z</time>
      </trkpt>
      <trkpt lat="48.8579" lon="-0.55721">
        <ele>186</ele>
        <time>2024-04-07T09:16:27Z</time>
      </trkpt>
      <trkpt lat="48.85793" lon="-0.5572">
        <ele>186.2</ele>
        <time>2024-04-07T09:16:28Z</time>
      </trkpt>
      <trkpt lat="48.85797" lon="-0.55719">
        <ele>186.6</ele>
        <time>2024-04-07T09:16:29Z</time>
      </trkpt>
      <trkpt lat="48.858" lon="-0.55719">
        <ele>186.8</ele>
        <time>2024-04-07T09:16:30Z</time>
      </trkpt>
      <trkpt lat="48.85804" lon="-0.55718">
        <ele>187.2</ele>
        <time>2024-04-07T09:16:31Z</time>
      </trkpt>
      <trkpt lat="48.85807" lon="-0.55718">
        <ele>187.6</ele>
        <time>2024-04-07T09:16:32Z</time>
      </trkpt>
      <trkpt lat="48.8581" lon="-0.55717">
        <ele>187.8</ele>
        <time>2024-04-07T09:16:33Z</time>
      </trkpt>
      <trkpt lat="48.85813" lon="-0.55716">
        <ele>188.2</ele>
        <time>2024-04-07T09:16:34Z</time>
      </trkpt>
      <trkpt lat="48.85816" lon="-0.55716">
        <ele>188.6</ele>
        <time>2024-04-07T09:16:35Z</time>
      </trkpt>
      <trkpt lat="48.85819" lon="-0.55716">
        <ele>188.8</ele>
        <time>2024-04-07T09:16:36Z</time>
      </trkpt>
      <trkpt lat="48.85822" lon="-0.55716">
        <ele>189</ele>
        <time>2024-04-07T09:16:37Z</time>
      </trkpt>
      <trkpt lat="48.85824" lon="-0.55715">
        <ele>189.2</ele>
        <time>2024-04-07T09:16:38Z</time>
      </trkpt>
      <trkpt lat="48.85827" lon="-0.55713">
        <ele>189.4</ele>
        <time>2024-04-07T09:16:39Z</time>
      </trkpt>
      <trkpt lat="48.8583" lon="-0.55712">
        <ele>189.8</ele>
        <time>2024-04-07T09:16:40Z</time>
      </trkpt>
      <trkpt lat="48.85834" lon="-0.55711">
        <ele>190.2</ele>
        <time>2024-04-07T09:16:41Z</time>
      </trkpt>
      <trkpt lat="48.85837" lon="-0.5571">
        <ele>190.6</ele>
        <time>2024-04-07T09:16:42Z</time>
      </trkpt>
      <trkpt lat="48.8584" lon="-0.55709">
        <ele>190.8</ele>
        <time>2024-04-07T09:16:43Z</time>
      </trkpt>
      <trkpt lat="48.85843" lon="-0.55708">
        <ele>191</ele>
        <time>2024-04-07T09:16:44Z</time>
      </trkpt>
      <trkpt lat="48.85847" lon="-0.55707">
        <ele>191.2</ele>
        <time>2024-04-07T09:16:45Z</time>
      </trkpt>
      <trkpt lat="48.8585" lon="-0.55706">
        <ele>191.4</ele>
        <time>2024-04-07T09:16:46Z</time>
      </trkpt>
      <trkpt lat="48.85853" lon="-0.55704">
        <ele>191.6</ele>
        <time>2024-04-07T09:16:47Z</time>
      </trkpt>
      <trkpt lat="48.85856" lon="-0.55703">
        <ele>191.8</ele>
        <time>2024-04-07T09:16:48Z</time>
      </trkpt>
      <trkpt lat="48.8586" lon="-0.55702">
        <ele>192</ele>
        <time>2024-04-07T09:16:49Z</time>
      </trkpt>
      <trkpt lat="48.85863" lon="-0.55701">
        <ele>192.2</ele>
        <time>2024-04-07T09:16:50Z</time>
      </trkpt>
      <trkpt lat="48.85866" lon="-0.557">
        <ele>192.4</ele>
        <time>2024-04-07T09:16:51Z</time>
      </trkpt>
      <trkpt lat="48.8587" lon="-0.557">
        <ele>192.4</ele>
        <time>2024-04-07T09:16:52Z</time>
      </trkpt>
      <trkpt lat="48.85873" lon="-0.557">
        <ele>192.6</ele>
        <time>2024-04-07T09:16:53Z</time>
      </trkpt>
      <trkpt lat="48.85877" lon="-0.557">
        <ele>192.8</ele>
        <time>2024-04-07T09:16:54Z</time>
      </trkpt>
      <trkpt lat="48.8588" lon="-0.557">
        <ele>193</ele>
        <time>2024-04-07T09:16:55Z</time>
      </trkpt>
      <trkpt lat="48.85884" lon="-0.55699">
        <ele>193.2</ele>
        <time>2024-04-07T09:16:56Z</time>
      </trkpt>
      <trkpt lat="48.85887" lon="-0.55699">
        <ele>193.4</ele>
        <time>2024-04-07T09:16:57Z</time>
      </trkpt>
      <trkpt lat="48.8589" lon="-0.557">
        <ele>193.6</ele>
        <time>2024-04-07T09:16:58Z</time>
      </trkpt>
      <trkpt lat="48.85894" lon="-0.557">
        <ele>193.8</ele>
        <time>2024-04-07T09:16:59Z</time>
      </trkpt>
      <trkpt lat="48.85897" lon="-0.557">
        <ele>194</ele>
        <time>2024-04-07T09:17:00Z</time>
      </trkpt>
      <trkpt lat="48.859" lon="-0.55701">
        <ele>194.2</ele>
        <time>2024-04-07T09:17:01Z</time>
      </trkpt>
      <trkpt lat="48.85904" lon="-0.55702">
        <ele>194.2</ele>
        <time>2024-04-07T09:17:02Z</time>
      </trkpt>
      <trkpt lat="48.85907" lon="-0.55703">
        <ele>194.4</ele>
        <time>2024-04-07T09:17:03Z</time>
      </trkpt>
      <trkpt lat="48.85911" lon="-0.55704">
        <ele>194.6</ele>
        <time>2024-04-07T09:17:04Z</time>
      </trkpt>
      <trkpt lat="48.85914" lon="-0.55705">
        <ele>195</ele>
        <time>2024-04-07T09:17:05Z</time>
      </trkpt>
      <trkpt lat="48.85918" lon="-0.55707">
        <ele>195.4</ele>
        <time>2024-04-07T09:17:06Z</time>
      </trkpt>
      <trkpt lat="48.85921" lon="-0.55709">
        <ele>195.6</ele>
        <time>2024-04-07T09:17:07Z</time>
      </trkpt>
      <trkpt lat="48.85924" lon="-0.5571">
        <ele>196</ele>
        <time>2024-04-07T09:17:08Z</time>
      </trkpt>
      <trkpt lat="48.85928" lon="-0.55712">
        <ele>196.2</ele>
        <time>2024-04-07T09:17:09Z</time>
      </trkpt>
      <trkpt lat="48.85931" lon="-0.55714">
        <ele>196.4</ele>
        <time>2024-04-07T09:17:10Z</time>
      </trkpt>
      <trkpt lat="48.85934" lon="-0.55715">
        <ele>196.6</ele>
        <time>2024-04-07T09:17:11Z</time>
      </trkpt>
      <trkpt lat="48.85937" lon="-0.55717">
        <ele>196.8</ele>
        <time>2024-04-07T09:17:12Z</time>
      </trkpt>
      <trkpt lat="48.8594" lon="-0.55718">
        <ele>197</ele>
        <time>2024-04-07T09:17:13Z</time>
      </trkpt>
      <trkpt lat="48.85942" lon="-0.55719">
        <ele>197.4</ele>
        <time>2024-04-07T09:17:14Z</time>
      </trkpt>
      <trkpt lat="48.85945" lon="-0.55721">
        <ele>197.6</ele>
        <time>2024-04-07T09:17:15Z</time>
      </trkpt>
      <trkpt lat="48.85948" lon="-0.55722">
        <ele>198</ele>
        <time>2024-04-07T09:17:16Z</time>
      </trkpt>
      <trkpt lat="48.85951" lon="-0.55724">
        <ele>198.2</ele>
        <time>2024-04-07T09:17:17Z</time>
      </trkpt>
      <trkpt lat="48.85954" lon="-0.55725">
        <ele>198.4</ele>
        <time>2024-04-07T09:17:18Z</time>
      </trkpt>
      <trkpt lat="48.85957" lon="-0.55727">
        <ele>198.6</ele>
        <time>2024-04-07T09:17:19Z</time>
      </trkpt>
      <trkpt lat="48.8596" lon="-0.55728">
        <ele>198.8</ele>
        <time>2024-04-07T09:17:20Z</time>
      </trkpt>
      <trkpt lat="48.85963" lon="-0.5573">
        <ele>199</ele>
        <time>2024-04-07T09:17:21Z</time>
      </trkpt>
      <trkpt lat="48.85966" lon="-0.55732">
        <ele>199.2</ele>
        <time>2024-04-07T09:17:22Z</time>
      </trkpt>
      <trkpt lat="48.85969" lon="-0.55733">
        <ele>199.6</ele>
        <time>2024-04-07T09:17:23Z</time>
      </trkpt>
      <trkpt lat="48.85972" lon="-0.55735">
        <ele>199.8</ele>
        <time>2024-04-07T09:17:24Z</time>
      </trkpt>
      <trkpt lat="48.85975" lon="-0.55737">
        <ele>200.2</ele>
        <time>2024-04-07T09:17:25Z</time>
      </trkpt>
      <trkpt lat="48.85979" lon="-0.55739">
        <ele>200.4</ele>
        <time>2024-04-07T09:17:26Z</time>
      </trkpt>
      <trkpt lat="48.85982" lon="-0.55741">
        <ele>200.6</ele>
        <time>2024-04-07T09:17:27Z</time>
      </trkpt>
      <trkpt lat="48.85985" lon="-0.55742">
        <ele>200.8</ele>
        <time>2024-04-07T09:17:28Z</time>
      </trkpt>
      <trkpt lat="48.85988" lon="-0.55744">
        <ele>201</ele>
        <time>2024-04-07T09:17:29Z</time>
      </trkpt>
      <trkpt lat="48.85991" lon="-0.55745">
        <ele>201.2</ele>
        <time>2024-04-07T09:17:30Z</time>
      </trkpt>
      <trkpt lat="48.85993" lon="-0.55745">
        <ele>201.6</ele>
        <time>2024-04-07T09:17:31Z</time>
      </trkpt>
      <trkpt lat="48.85996" lon="-0.55746">
        <ele>201.8</ele>
        <time>2024-04-07T09:17:32Z</time>
      </trkpt>
      <trkpt lat="48.85999" lon="-0.55747">
        <ele>202</ele>
        <time>2024-04-07T09:17:33Z</time>
      </trkpt>
      <trkpt lat="48.86002" lon="-0.55747">
        <ele>202.2</ele>
        <time>2024-04-07T09:17:34Z</time>
      </trkpt>
      <trkpt lat="48.86005" lon="-0.55748">
        <ele>202.6</ele>
        <time>2024-04-07T09:17:35Z</time>
      </trkpt>
      <trkpt lat="48.86008" lon="-0.55748">
        <ele>202.8</ele>
        <time>2024-04-07T09:17:36Z</time>
      </trkpt>
      <trkpt lat="48.86011" lon="-0.55748">
        <ele>203</ele>
        <time>2024-04-07T09:17:37Z</time>
      </trkpt>
      <trkpt lat="48.86014" lon="-0.55749">
        <ele>203.2</ele>
        <time>2024-04-07T09:17:38Z</time>
      </trkpt>
      <trkpt lat="48.86017" lon="-0.55749">
        <ele>203.4</ele>
        <time>2024-04-07T09:17:39Z</time>
      </trkpt>
      <trkpt lat="48.8602" lon="-0.5575">
        <ele>203.6</ele>
        <time>2024-04-07T09:17:40Z</time>
      </trkpt>
      <trkpt lat="48.86024" lon="-0.5575">
        <ele>203.8</ele>
        <time>2024-04-07T09:17:41Z</time>
      </trkpt>
      <trkpt lat="48.86027" lon="-0.55751">
        <ele>204</ele>
        <time>2024-04-07T09:17:42Z</time>
      </trkpt>
      <trkpt lat="48.86029" lon="-0.55751">
        <ele>204.2</ele>
        <time>2024-04-07T09:17:43Z</time>
      </trkpt>
      <trkpt lat="48.86032" lon="-0.55751">
        <ele>204.4</ele>
        <time>2024-04-07T09:17:44Z</time>
      </trkpt>
      <trkpt lat="48.86036" lon="-0.55751">
        <ele>204.6</ele>
        <time>2024-04-07T09:17:45Z</time>
      </trkpt>
      <trkpt lat="48.86039" lon="-0.55751">
        <ele>204.8</ele>
        <time>2024-04-07T09:17:46Z</time>
      </trkpt>
      <trkpt lat="48.86042" lon="-0.55751">
        <ele>205.2</ele>
        <time>2024-04-07T09:17:47Z</time>
      </trkpt>
      <trkpt lat="48.86045" lon="-0.5575">
        <ele>205.4</ele>
        <time>2024-04-07T09:17:48Z</time>
      </trkpt>
      <trkpt lat="48.86048" lon="-0.5575">
        <ele>205.6</ele>
        <time>2024-04-07T09:17:49Z</time>
      </trkpt>
      <trkpt lat="48.86051" lon="-0.5575">
        <ele>205.8</ele>
        <time>2024-04-07T09:17:50Z</time>
      </trkpt>
      <trkpt lat="48.86055" lon="-0.5575">
        <ele>206</ele>
        <time>2024-04-07T09:17:51Z</time>
      </trkpt>
      <trkpt lat="48.86058" lon="-0.5575">
        <ele>206.4</ele>
        <time>2024-04-07T09:17:52Z</time>
      </trkpt>
      <trkpt lat="48.8606" lon="-0.5575">
        <ele>206.6</ele>
        <time>2024-04-07T09:17:53Z</time>
      </trkpt>
      <trkpt lat="48.86063" lon="-0.5575">
        <ele>207</ele>
        <time>2024-04-07T09:17:54Z</time>
      </trkpt>
      <trkpt lat="48.86066" lon="-0.5575">
        <ele>207.4</ele>
        <time>2024-04-07T09:17:55Z</time>
      </trkpt>
      <trkpt lat="48.86069" lon="-0.55749">
        <ele>207.8</ele>
        <time>2024-04-07T09:17:56Z</time>
      </trkpt>
      <trkpt lat="48.86072" lon="-0.55747">
        <ele>208</ele>
        <time>2024-04-07T09:17:57Z</time>
      </trkpt>
      <trkpt lat="48.86075" lon="-0.55746">
        <ele>208.2</ele>
        <time>2024-04-07T09:17:58Z</time>
      </trkpt>
      <trkpt lat="48.86078" lon="-0.55745">
        <ele>208.4</ele>
        <time>2024-04-07T09:17:59Z</time>
      </trkpt>
      <trkpt lat="48.86081" lon="-0.55744">
        <ele>208.6</ele>
        <time>2024-04-07T09:18:00Z</time>
      </trkpt>
      <trkpt lat="48.86084" lon="-0.55743">
        <ele>208.8</ele>
        <time>2024-04-07T09:18:01Z</time>
      </trkpt>
      <trkpt lat="48.86086" lon="-0.55743">
        <ele>209.2</ele>
        <time>2024-04-07T09:18:02Z</time>
      </trkpt>
      <trkpt lat="48.86089" lon="-0.55742">
        <ele>209.4</ele>
        <time>2024-04-07T09:18:03Z</time>
      </trkpt>
      <trkpt lat="48.86092" lon="-0.55741">
        <ele>209.8</ele>
        <time>2024-04-07T09:18:04Z</time>
      </trkpt>
      <trkpt lat="48.86095" lon="-0.55741">
        <ele>210.2</ele>
        <time>2024-04-07T09:18:05Z</time>
      </trkpt>
      <trkpt lat="48.86098" lon="-0.55739">
        <ele>210.6</ele>
        <time>2024-04-07T09:18:06Z</time>
      </trkpt>
      <trkpt lat="48.86101" lon="-0.55739">
        <ele>210.8</ele>
        <time>2024-04-07T09:18:07Z</time>
      </trkpt>
      <trkpt lat="48.86103" lon="-0.55738">
        <ele>211.2</ele>
        <time>2024-04-07T09:18:08Z</time>
      </trkpt>
      <trkpt lat="48.86106" lon="-0.55737">
        <ele>211.4</ele>
        <time>2024-04-07T09:18:09Z</time>
      </trkpt>
      <trkpt lat="48.86109" lon="-0.55736">
        <ele>211.6</ele>
        <time>2024-04-07T09:18:10Z</time>
      </trkpt>
      <trkpt lat="48.86112" lon="-0.55735">
        <ele>211.8</ele>
        <time>2024-04-07T09:18:11Z</time>
      </trkpt>
      <trkpt lat="48.86115" lon="-0.55734">
        <ele>212</ele>
        <time>2024-04-07T09:18:12Z</time>
      </trkpt>
      <trkpt lat="48.86118" lon="-0.55733">
        <ele>212.2</ele>
        <time>2024-04-07T09:18:13Z</time>
      </trkpt>
      <trkpt lat="48.86121" lon="-0.55732">
        <ele>212.6</ele>
        <time>2024-04-07T09:18:14Z</time>
      </trkpt>
      <trkpt lat="48.86124" lon="-0.55731">
        <ele>213</ele>
        <time>2024-04-07T09:18:15Z</time>
      </trkpt>
      <trkpt lat="48.86127" lon="-0.5573">
        <ele>213.2</ele>
        <time>2024-04-07T09:18:16Z</time>
      </trkpt>
      <trkpt lat="48.8613" lon="-0.55729">
        <ele>213.4</ele>
        <time>2024-04-07T09:18:17Z</time>
      </trkpt>
      <trkpt lat="48.86133" lon="-0.55728">
        <ele>213.8</ele>
        <time>2024-04-07T09:18:18Z</time>
      </trkpt>
      <trkpt lat="48.86137" lon="-0.55728">
        <ele>214</ele>
        <time>2024-04-07T09:18:19Z</time>
      </trkpt>
      <trkpt lat="48.8614" lon="-0.55727">
        <ele>214.2</ele>
        <time>2024-04-07T09:18:20Z</time>
      </trkpt>
      <trkpt lat="48.86143" lon="-0.55726">
        <ele>214.6</ele>
        <time>2024-04-07T09:18:21Z</time>
      </trkpt>
      <trkpt lat="48.86146" lon="-0.55725">
        <ele>214.8</ele>
        <time>2024-04-07T09:18:22Z</time>
      </trkpt>
      <trkpt lat="48.86149" lon="-0.55724">
        <ele>215</ele>
        <time>2024-04-07T09:18:23Z</time>
      </trkpt>
      <trkpt lat="48.86152" lon="-0.55724">
        <ele>215.2</ele>
        <time>2024-04-07T09:18:24Z</time>
      </trkpt>
      <trkpt lat="48.86155" lon="-0.55723">
        <ele>215.6</ele>
        <time>2024-04-07T09:18:25Z</time>
      </trkpt>
      <trkpt lat="48.86158" lon="-0.55722">
        <ele>215.8</ele>
        <time>2024-04-07T09:18:26Z</time>
      </trkpt>
      <trkpt lat="48.86161" lon="-0.55721">
        <ele>216.2</ele>
        <time>2024-04-07T09:18:27Z</time>
      </trkpt>
      <trkpt lat="48.86164" lon="-0.55721">
        <ele>216.4</ele>
        <time>2024-04-07T09:18:28Z</time>
      </trkpt>
      <trkpt lat="48.86167" lon="-0.55721">
        <ele>216.6</ele>
        <time>2024-04-07T09:18:29Z</time>
      </trkpt>
      <trkpt lat="48.8617" lon="-0.5572">
        <ele>216.8</ele>
        <time>2024-04-07T09:18:30Z</time>
      </trkpt>
      <trkpt lat="48.86173" lon="-0.55718">
        <ele>216.8</ele>
        <time>2024-04-07T09:18:31Z</time>
      </trkpt>
      <trkpt lat="48.86176" lon="-0.55717">
        <ele>217</ele>
        <time>2024-04-07T09:18:32Z</time>
      </trkpt>
      <trkpt lat="48.86179" lon="-0.55715">
        <ele>217.2</ele>
        <time>2024-04-07T09:18:33Z</time>
      </trkpt>
      <trkpt lat="48.86182" lon="-0.55714">
        <ele>217.4</ele>
        <time>2024-04-07T09:18:34Z</time>
      </trkpt>
      <trkpt lat="48.86185" lon="-0.55713">
        <ele>217.6</ele>
        <time>2024-04-07T09:18:35Z</time>
      </trkpt>
      <trkpt lat="48.86188" lon="-0.55712">
        <ele>217.8</ele>
        <time>2024-04-07T09:18:36Z</time>
      </trkpt>
      <trkpt lat="48.86191" lon="-0.5571">
        <ele>218</ele>
        <time>2024-04-07T09:18:37Z</time>
      </trkpt>
      <trkpt lat="48.86194" lon="-0.55708">
        <ele>218.2</ele>
        <time>2024-04-07T09:18:38Z</time>
      </trkpt>
      <trkpt lat="48.86197" lon="-0.55707">
        <ele>218.6</ele>
        <time>2024-04-07T09:18:39Z</time>
      </trkpt>
      <trkpt lat="48.86201" lon="-0.55705">
        <ele>218.8</ele>
        <time>2024-04-07T09:18:40Z</time>
      </trkpt>
      <trkpt lat="48.86204" lon="-0.55704">
        <ele>218.8</ele>
        <time>2024-04-07T09:18:41Z</time>
      </trkpt>
      <trkpt lat="48.86207" lon="-0.55702">
        <ele>219</ele>
        <time>2024-04-07T09:18:42Z</time>
      </trkpt>
      <trkpt lat="48.8621" lon="-0.55701">
        <ele>219.2</ele>
        <time>2024-04-07T09:18:43Z</time>
      </trkpt>
      <trkpt lat="48.86213" lon="-0.55699">
        <ele>219.4</ele>
        <time>2024-04-07T09:18:44Z</time>
      </trkpt>
      <trkpt lat="48.86216" lon="-0.55697">
        <ele>219.8</ele>
        <time>2024-04-07T09:18:45Z</time>
      </trkpt>
      <trkpt lat="48.86219" lon="-0.55695">
        <ele>220</ele>
        <time>2024-04-07T09:18:46Z</time>
      </trkpt>
      <trkpt lat="48.86222" lon="-0.55692">
        <ele>220.2</ele>
        <time>2024-04-07T09:18:47Z</time>
      </trkpt>
      <trkpt lat="48.86225" lon="-0.5569">
        <ele>220.4</ele>
        <time>2024-04-07T09:18:48Z</time>
      </trkpt>
      <trkpt lat="48.86228" lon="-0.55688">
        <ele>220.6</ele>
        <time>2024-04-07T09:18:49Z</time>
      </trkpt>
      <trkpt lat="48.86231" lon="-0.55686">
        <ele>220.8</ele>
        <time>2024-04-07T09:18:50Z</time>
      </trkpt>
      <trkpt lat="48.86234" lon="-0.55684">
        <ele>221</ele>
        <time>2024-04-07T09:18:51Z</time>
      </trkpt>
      <trkpt lat="48.86237" lon="-0.55682">
        <ele>221.2</ele>
        <time>2024-04-07T09:18:52Z</time>
      </trkpt>
      <trkpt lat="48.8624" lon="-0.55681">
        <ele>221.4</ele>
        <time>2024-04-07T09:18:53Z</time>
      </trkpt>
      <trkpt lat="48.86243" lon="-0.5568">
        <ele>221.6</ele>
        <time>2024-04-07T09:18:54Z</time>
      </trkpt>
      <trkpt lat="48.86246" lon="-0.55678">
        <ele>222</ele>
        <time>2024-04-07T09:18:55Z</time>
      </trkpt>
      <trkpt lat="48.86248" lon="-0.55676">
        <ele>222.2</ele>
        <time>2024-04-07T09:18:56Z</time>
      </trkpt>
      <trkpt lat="48.86251" lon="-0.55674">
        <ele>222.4</ele>
        <time>2024-04-07T09:18:57Z</time>
      </trkpt>
      <trkpt lat="48.86254" lon="-0.55671">
        <ele>222.8</ele>
        <time>2024-04-07T09:18:58Z</time>
      </trkpt>
      <trkpt lat="48.86257" lon="-0.55668">
        <ele>223</ele>
        <time>2024-04-07T09:18:59Z</time>
      </trkpt>
      <trkpt lat="48.8626" lon="-0.55665">
        <ele>223.2</ele>
        <time>2024-04-07T09:19:00Z</time>
      </trkpt>
      <trkpt lat="48.86263" lon="-0.55663">
        <ele>223.4</ele>
        <time>2024-04-07T09:19:01Z</time>
      </trkpt>
      <trkpt lat="48.86266" lon="-0.5566">
        <ele>223.6</ele>
        <time>2024-04-07T09:19:02Z</time>
      </trkpt>
      <trkpt lat="48.86269" lon="-0.55657">
        <ele>223.8</ele>
        <time>2024-04-07T09:19:03Z</time>
      </trkpt>
      <trkpt lat="48.86273" lon="-0.55655">
        <ele>224</ele>
        <time>2024-04-07T09:19:04Z</time>
      </trkpt>
      <trkpt lat="48.86276" lon="-0.55652">
        <ele>224.2</ele>
        <time>2024-04-07T09:19:05Z</time>
      </trkpt>
      <trkpt lat="48.86279" lon="-0.5565">
        <ele>224.4</ele>
        <time>2024-04-07T09:19:06Z</time>
      </trkpt>
      <trkpt lat="48.86283" lon="-0.55647">
        <ele>224.6</ele>
        <time>2024-04-07T09:19:07Z</time>
      </trkpt>
      <trkpt lat="48.86286" lon="-0.55644">
        <ele>224.8</ele>
        <time>2024-04-07T09:19:08Z</time>
      </trkpt>
      <trkpt lat="48.86289" lon="-0.55642">
        <ele>225</ele>
        <time>2024-04-07T09:19:09Z</time>
      </trkpt>
      <trkpt lat="48.86293" lon="-0.55639">
        <ele>225.2</ele>
        <time>2024-04-07T09:19:10Z</time>
      </trkpt>
      <trkpt lat="48.86296" lon="-0.55637">
        <ele>225.4</ele>
        <time>2024-04-07T09:19:11Z</time>
      </trkpt>
      <trkpt lat="48.86299" lon="-0.55634">
        <ele>225.8</ele>
        <time>2024-04-07T09:19:12Z</time>
      </trkpt>
      <trkpt lat="48.86303" lon="-0.55632">
        <ele>226</ele>
        <time>2024-04-07T09:19:13Z</time>
      </trkpt>
      <trkpt lat="48.86307" lon="-0.5563">
        <ele>226.2</ele>
        <time>2024-04-07T09:19:14Z</time>
      </trkpt>
      <trkpt lat="48.8631" lon="-0.55628">
        <ele>226.4</ele>
        <time>2024-04-07T09:19:15Z</time>
      </trkpt>
      <trkpt lat="48.86314" lon="-0.55625">
        <ele>226.6</ele>
        <time>2024-04-07T09:19:16Z</time>
      </trkpt>
      <trkpt lat="48.86318" lon="-0.55623">
        <ele>226.8</ele>
        <time>2024-04-07T09:19:17Z</time>
      </trkpt>
      <trkpt lat="48.86322" lon="-0.55622">
        <ele>227</ele>
        <time>2024-04-07T09:19:18Z</time>
      </trkpt>
      <trkpt lat="48.86327" lon="-0.5562">
        <ele>227.2</ele>
        <time>2024-04-07T09:19:19Z</time>
      </trkpt>
      <trkpt lat="48.86331" lon="-0.55618">
        <ele>227.2</ele>
        <time>2024-04-07T09:19:20Z</time>
      </trkpt>
      <trkpt lat="48.86335" lon="-0.55616">
        <ele>227.2</ele>
        <time>2024-04-07T09:19:21Z</time>
      </trkpt>
      <trkpt lat="48.8634" lon="-0.55614">
        <ele>227.4</ele>
        <time>2024-04-07T09:19:22Z</time>
      </trkpt>
      <trkpt lat="48.86345" lon="-0.55613">
        <ele>227.4</ele>
        <time>2024-04-07T09:19:23Z</time>
      </trkpt>
      <trkpt lat="48.8635" lon="-0.55611">
        <ele>227.6</ele>
        <time>2024-04-07T09:19:24Z</time>
      </trkpt>
      <trkpt lat="48.86356" lon="-0.55609">
        <ele>227.6</ele>
        <time>2024-04-07T09:19:25Z</time>
      </trkpt>
      <trkpt lat="48.86361" lon="-0.55607">
        <ele>227.8</ele>
        <time>2024-04-07T09:19:26Z</time>
      </trkpt>
      <trkpt lat="48.86366" lon="-0.55605">
        <ele>227.8</ele>
        <time>2024-04-07T09:19:27Z</time>
      </trkpt>
      <trkpt lat="48.86372" lon="-0.55602">
        <ele>228</ele>
        <time>2024-04-07T09:19:28Z</time>
      </trkpt>
      <trkpt lat="48.86377" lon="-0.556">
        <ele>228</ele>
        <time>2024-04-07T09:19:29Z</time>
      </trkpt>
      <trkpt lat="48.86382" lon="-0.55597">
        <ele>228</ele>
        <time>2024-04-07T09:19:30Z</time>
      </trkpt>
      <trkpt lat="48.86388" lon="-0.55594">
        <ele>228</ele>
        <time>2024-04-07T09:19:31Z</time>
      </trkpt>
      <trkpt lat="48.86393" lon="-0.55591">
        <ele>228</ele>
        <time>2024-04-07T09:19:32Z</time>
      </trkpt>
      <trkpt lat="48.86399" lon="-0.55588">
        <ele>228.2</ele>
        <time>2024-04-07T09:19:33Z</time>
      </trkpt>
      <trkpt lat="48.86404" lon="-0.55585">
        <ele>228.2</ele>
        <time>2024-04-07T09:19:34Z</time>
      </trkpt>
      <trkpt lat="48.8641" lon="-0.55582">
        <ele>228.2</ele>
        <time>2024-04-07T09:19:35Z</time>
      </trkpt>
      <trkpt lat="48.86415" lon="-0.55579">
        <ele>228.4</ele>
        <time>2024-04-07T09:19:36Z</time>
      </trkpt>
      <trkpt lat="48.86421" lon="-0.55576">
        <ele>228.6</ele>
        <time>2024-04-07T09:19:37Z</time>
      </trkpt>
      <trkpt lat="48.86427" lon="-0.55573">
        <ele>228.6</ele>
        <time>2024-04-07T09:19:38Z</time>
      </trkpt>
      <trkpt lat="48.86432" lon="-0.5557">
        <ele>228.8</ele>
        <time>2024-04-07T09:19:39Z</time>
      </trkpt>
      <trkpt lat="48.86438" lon="-0.55567">
        <ele>229</ele>
        <time>2024-04-07T09:19:40Z</time>
      </trkpt>
      <trkpt lat="48.86444" lon="-0.55563">
        <ele>229</ele>
        <time>2024-04-07T09:19:41Z</time>
      </trkpt>
      <trkpt lat="48.86449" lon="-0.5556">
        <ele>229</ele>
        <time>2024-04-07T09:19:42Z</time>
      </trkpt>
      <trkpt lat="48.86455" lon="-0.55557">
        <ele>229.2</ele>
        <time>2024-04-07T09:19:43Z</time>
      </trkpt>
      <trkpt lat="48.86461" lon="-0.55554">
        <ele>229.4</ele>
        <time>2024-04-07T09:19:44Z</time>
      </trkpt>
      <trkpt lat="48.86466" lon="-0.5555">
        <ele>229.6</ele>
        <time>2024-04-07T09:19:45Z</time>
      </trkpt>
      <trkpt lat="48.86472" lon="-0.55547">
        <ele>230</ele>
        <time>2024-04-07T09:19:46Z</time>
      </trkpt>
      <trkpt lat="48.86478" lon="-0.55544">
        <ele>230.2</ele>
        <time>2024-04-07T09:19:47Z</time>
      </trkpt>
      <trkpt lat="48.86483" lon="-0.55541">
        <ele>230.2</ele>
        <time>2024-04-07T09:19:48Z</time>
      </trkpt>
      <trkpt lat="48.86489" lon="-0.55537">
        <ele>230.4</ele>
        <time>2024-04-07T09:19:49Z</time>
      </trkpt>
      <trkpt lat="48.86495" lon="-0.55535">
        <ele>230.6</ele>
        <time>2024-04-07T09:19:50Z</time>
      </trkpt>
      <trkpt lat="48.865" lon="-0.55532">
        <ele>230.6</ele>
        <time>2024-04-07T09:19:51Z</time>
      </trkpt>
      <trkpt lat="48.86506" lon="-0.55529">
        <ele>230.8</ele>
        <time>2024-04-07T09:19:52Z</time>
      </trkpt>
      <trkpt lat="48.86512" lon="-0.55527">
        <ele>231</ele>
        <time>2024-04-07T09:19:53Z</time>
      </trkpt>
      <trkpt lat="48.86518" lon="-0.55524">
        <ele>231.2</ele>
        <time>2024-04-07T09:19:54Z</time>
      </trkpt>
      <trkpt lat="48.86524" lon="-0.55522">
        <ele>231.4</ele>
        <time>2024-04-07T09:19:55Z</time>
      </trkpt>
      <trkpt lat="48.8653" lon="-0.5552">
        <ele>231.6</ele>
        <time>2024-04-07T09:19:56Z</time>
      </trkpt>
      <trkpt lat="48.86536" lon="-0.55518">
        <ele>231.8</ele>
        <time>2024-04-07T09:19:57Z</time>
      </trkpt>
      <trkpt lat="48.86542" lon="-0.55516">
        <ele>232</ele>
        <time>2024-04-07T09:19:58Z</time>
      </trkpt>
      <trkpt lat="48.86548" lon="-0.55514">
        <ele>232.2</ele>
        <time>2024-04-07T09:19:59Z</time>
      </trkpt>
      <trkpt lat="48.86555" lon="-0.55512">
        <ele>232.4</ele>
        <time>2024-04-07T09:20:00Z</time>
      </trkpt>
      <trkpt lat="48.86561" lon="-0.5551">
        <ele>232.4</ele>
        <time>2024-04-07T09:20:01Z</time>
      </trkpt>
      <trkpt lat="48.86567" lon="-0.55508">
        <ele>232.4</ele>
        <time>2024-04-07T09:20:02Z</time>
      </trkpt>
      <trkpt lat="48.86573" lon="-0.55505">
        <ele>232.6</ele>
        <time>2024-04-07T09:20:03Z</time>
      </trkpt>
      <trkpt lat="48.8658" lon="-0.55503">
        <ele>232.4</ele>
        <time>2024-04-07T09:20:04Z</time>
      </trkpt>
      <trkpt lat="48.86586" lon="-0.55501">
        <ele>232.4</ele>
        <time>2024-04-07T09:20:05Z</time>
      </trkpt>
      <trkpt lat="48.86593" lon="-0.55499">
        <ele>232.4</ele>
        <time>2024-04-07T09:20:06Z</time>
      </trkpt>
      <trkpt lat="48.866" lon="-0.55497">
        <ele>232.2</ele>
        <time>2024-04-07T09:20:07Z</time>
      </trkpt>
      <trkpt lat="48.86607" lon="-0.55494">
        <ele>232.2</ele>
        <time>2024-04-07T09:20:08Z</time>
      </trkpt>
      <trkpt lat="48.86614" lon="-0.55492">
        <ele>232</ele>
        <time>2024-04-07T09:20:09Z</time>
      </trkpt>
      <trkpt lat="48.86621" lon="-0.5549">
        <ele>232</ele>
        <time>2024-04-07T09:20:10Z</time>
      </trkpt>
      <trkpt lat="48.86628" lon="-0.55487">
        <ele>232</ele>
        <time>2024-04-07T09:20:11Z</time>
      </trkpt>
      <trkpt lat="48.86635" lon="-0.55485">
        <ele>231.8</ele>
        <time>2024-04-07T09:20:12Z</time>
      </trkpt>
      <trkpt lat="48.86642" lon="-0.55483">
        <ele>231.8</ele>
        <time>2024-04-07T09:20:13Z</time>
      </trkpt>
      <trkpt lat="48.86648" lon="-0.5548">
        <ele>231.6</ele>
        <time>2024-04-07T09:20:14Z</time>
      </trkpt>
      <trkpt lat="48.86656" lon="-0.55476">
        <ele>231.4</ele>
        <time>2024-04-07T09:20:15Z</time>
      </trkpt>
      <trkpt lat="48.86663" lon="-0.55473">
        <ele>231.2</ele>
        <time>2024-04-07T09:20:16Z</time>
      </trkpt>
      <trkpt lat="48.8667" lon="-0.55469">
        <ele>231.2</ele>
        <time>2024-04-07T09:20:17Z</time>
      </trkpt>
      <trkpt lat="48.86677" lon="-0.55465">
        <ele>231</ele>
        <time>2024-04-07T09:20:18Z</time>
      </trkpt>
      <trkpt lat="48.86684" lon="-0.55461">
        <ele>231</ele>
        <time>2024-04-07T09:20:19Z</time>
      </trkpt>
      <trkpt lat="48.86691" lon="-0.55456">
        <ele>230.8</ele>
        <time>2024-04-07T09:20:20Z</time>
      </trkpt>
      <trkpt lat="48.86698" lon="-0.55452">
        <ele>230.8</ele>
        <time>2024-04-07T09:20:21Z</time>
      </trkpt>
      <trkpt lat="48.86705" lon="-0.55447">
        <ele>230.8</ele>
        <time>2024-04-07T09:20:22Z</time>
      </trkpt>
      <trkpt lat="48.86713" lon="-0.55442">
        <ele>230.8</ele>
        <time>2024-04-07T09:20:23Z</time>
      </trkpt>
      <trkpt lat="48.8672" lon="-0.55438">
        <ele>230.8</ele>
        <time>2024-04-07T09:20:24Z</time>
      </trkpt>
      <trkpt lat="48.86727" lon="-0.55433">
        <ele>230.8</ele>
        <time>2024-04-07T09:20:25Z</time>
      </trkpt>
      <trkpt lat="48.86734" lon="-0.55428">
        <ele>230.8</ele>
        <time>2024-04-07T09:20:26Z</time>
      </trkpt>
      <trkpt lat="48.86741" lon="-0.55423">
        <ele>230.8</ele>
        <time>2024-04-07T09:20:27Z</time>
      </trkpt>
      <trkpt lat="48.86748" lon="-0.55418">
        <ele>231</ele>
        <time>2024-04-07T09:20:28Z</time>
      </trkpt>
      <trkpt lat="48.86755" lon="-0.55413">
        <ele>231</ele>
        <time>2024-04-07T09:20:29Z</time>
      </trkpt>
      <trkpt lat="48.86763" lon="-0.55409">
        <ele>231</ele>
        <time>2024-04-07T09:20:30Z</time>
      </trkpt>
      <trkpt lat="48.8677" lon="-0.55404">
        <ele>231</ele>
        <time>2024-04-07T09:20:31Z</time>
      </trkpt>
      <trkpt lat="48.86777" lon="-0.554">
        <ele>231</ele>
        <time>2024-04-07T09:20:32Z</time>
      </trkpt>
      <trkpt lat="48.86785" lon="-0.55395">
        <ele>230.8</ele>
        <time>2024-04-07T09:20:33Z</time>
      </trkpt>
      <trkpt lat="48.86792" lon="-0.55391">
        <ele>230.6</ele>
        <time>2024-04-07T09:20:34Z</time>
      </trkpt>
      <trkpt lat="48.86799" lon="-0.55387">
        <ele>230.4</ele>
        <time>2024-04-07T09:20:35Z</time>
      </trkpt>
      <trkpt lat="48.86807" lon="-0.55383">
        <ele>230.2</ele>
        <time>2024-04-07T09:20:36Z</time>
      </trkpt>
      <trkpt lat="48.86814" lon="-0.55379">
        <ele>230.2</ele>
        <time>2024-04-07T09:20:37Z</time>
      </trkpt>
      <trkpt lat="48.86822" lon="-0.55376">
        <ele>230.2</ele>
        <time>2024-04-07T09:20:38Z</time>
      </trkpt>
      <trkpt lat="48.8683" lon="-0.55373">
        <ele>230.2</ele>
        <time>2024-04-07T09:20:39Z</time>
      </trkpt>
      <trkpt lat="48.86837" lon="-0.55369">
        <ele>230.2</ele>
        <time>2024-04-07T09:20:40Z</time>
      </trkpt>
      <trkpt lat="48.86845" lon="-0.55366">
        <ele>230.2</ele>
        <time>2024-04-07T09:20:41Z</time>
      </trkpt>
      <trkpt lat="48.86852" lon="-0.55362">
        <ele>230.2</ele>
        <time>2024-04-07T09:20:42Z</time>
      </trkpt>
      <trkpt lat="48.8686" lon="-0.55359">
        <ele>230.2</ele>
        <time>2024-04-07T09:20:43Z</time>
      </trkpt>
      <trkpt lat="48.86868" lon="-0.55355">
        <ele>230.2</ele>
        <time>2024-04-07T09:20:44Z</time>
      </trkpt>
      <trkpt lat="48.86875" lon="-0.55352">
        <ele>230.2</ele>
        <time>2024-04-07T09:20:45Z</time>
      </trkpt>
      <trkpt lat="48.86882" lon="-0.5535">
        <ele>230.2</ele>
        <time>2024-04-07T09:20:46Z</time>
      </trkpt>
      <trkpt lat="48.86888" lon="-0.55347">
        <ele>230.2</ele>
        <time>2024-04-07T09:20:47Z</time>
      </trkpt>
      <trkpt lat="48.86895" lon="-0.55344">
        <ele>230.2</ele>
        <time>2024-04-07T09:20:48Z</time>
      </trkpt>
      <trkpt lat="48.86901" lon="-0.55341">
        <ele>230.4</ele>
        <time>2024-04-07T09:20:49Z</time>
      </trkpt>
      <trkpt lat="48.86907" lon="-0.55337">
        <ele>230.6</ele>
        <time>2024-04-07T09:20:50Z</time>
      </trkpt>
      <trkpt lat="48.86914" lon="-0.55334">
        <ele>231</ele>
        <time>2024-04-07T09:20:51Z</time>
      </trkpt>
      <trkpt lat="48.8692" lon="-0.55331">
        <ele>231.2</ele>
        <time>2024-04-07T09:20:52Z</time>
      </trkpt>
      <trkpt lat="48.86926" lon="-0.55327">
        <ele>231.6</ele>
        <time>2024-04-07T09:20:53Z</time>
      </trkpt>
      <trkpt lat="48.86931" lon="-0.55322">
        <ele>231.8</ele>
        <time>2024-04-07T09:20:54Z</time>
      </trkpt>
      <trkpt lat="48.86937" lon="-0.55318">
        <ele>232.2</ele>
        <time>2024-04-07T09:20:55Z</time>
      </trkpt>
      <trkpt lat="48.86942" lon="-0.55314">
        <ele>232.4</ele>
        <time>2024-04-07T09:20:56Z</time>
      </trkpt>
      <trkpt lat="48.86947" lon="-0.5531">
        <ele>232.6</ele>
        <time>2024-04-07T09:20:57Z</time>
      </trkpt>
      <trkpt lat="48.86952" lon="-0.55305">
        <ele>232.8</ele>
        <time>2024-04-07T09:20:58Z</time>
      </trkpt>
      <trkpt lat="48.86958" lon="-0.55301">
        <ele>233</ele>
        <time>2024-04-07T09:20:59Z</time>
      </trkpt>
      <trkpt lat="48.86963" lon="-0.55296">
        <ele>233.2</ele>
        <time>2024-04-07T09:21:00Z</time>
      </trkpt>
      <trkpt lat="48.86968" lon="-0.55292">
        <ele>233.4</ele>
        <time>2024-04-07T09:21:01Z</time>
      </trkpt>
      <trkpt lat="48.86973" lon="-0.55287">
        <ele>233.6</ele>
        <time>2024-04-07T09:21:02Z</time>
      </trkpt>
      <trkpt lat="48.86978" lon="-0.55282">
        <ele>233.8</ele>
        <time>2024-04-07T09:21:03Z</time>
      </trkpt>
      <trkpt lat="48.86983" lon="-0.55277">
        <ele>233.8</ele>
        <time>2024-04-07T09:21:04Z</time>
      </trkpt>
      <trkpt lat="48.86988" lon="-0.55273">
        <ele>234</ele>
        <time>2024-04-07T09:21:05Z</time>
      </trkpt>
      <trkpt lat="48.86993" lon="-0.55268">
        <ele>234.2</ele>
        <time>2024-04-07T09:21:06Z</time>
      </trkpt>
      <trkpt lat="48.86998" lon="-0.55264">
        <ele>234.4</ele>
        <time>2024-04-07T09:21:07Z</time>
      </trkpt>
      <trkpt lat="48.87004" lon="-0.55259">
        <ele>234.8</ele>
        <time>2024-04-07T09:21:08Z</time>
      </trkpt>
      <trkpt lat="48.87009" lon="-0.55255">
        <ele>235</ele>
        <time>2024-04-07T09:21:09Z</time>
      </trkpt>
      <trkpt lat="48.87014" lon="-0.55251">
        <ele>235.2</ele>
        <time>2024-04-07T09:21:10Z</time>
      </trkpt>
      <trkpt lat="48.87019" lon="-0.55246">
        <ele>235.4</ele>
        <time>2024-04-07T09:21:11Z</time>
      </trkpt>
      <trkpt lat="48.87024" lon="-0.55242">
        <ele>235.6</ele>
        <time>2024-04-07T09:21:12Z</time>
      </trkpt>
      <trkpt lat="48.87029" lon="-0.55238">
        <ele>235.6</ele>
        <time>2024-04-07T09:21:13Z</time>
      </trkpt>
      <trkpt lat="48.87034" lon="-0.55233">
        <ele>235.8</ele>
        <time>2024-04-07T09:21:14Z</time>
      </trkpt>
      <trkpt lat="48.87039" lon="-0.55229">
        <ele>236</ele>
        <time>2024-04-07T09:21:15Z</time>
      </trkpt>
      <trkpt lat="48.87044" lon="-0.55224">
        <ele>236</ele>
        <time>2024-04-07T09:21:16Z</time>
      </trkpt>
      <trkpt lat="48.87049" lon="-0.5522">
        <ele>236.2</ele>
        <time>2024-04-07T09:21:17Z</time>
      </trkpt>
      <trkpt lat="48.87053" lon="-0.55215">
        <ele>236.6</ele>
        <time>2024-04-07T09:21:18Z</time>
      </trkpt>
      <trkpt lat="48.87058" lon="-0.5521">
        <ele>237</ele>
        <time>2024-04-07T09:21:19Z</time>
      </trkpt>
      <trkpt lat="48.87063" lon="-0.55205">
        <ele>237.4</ele>
        <time>2024-04-07T09:21:20Z</time>
      </trkpt>
      <trkpt lat="48.87067" lon="-0.552">
        <ele>237.6</ele>
        <time>2024-04-07T09:21:21Z</time>
      </trkpt>
      <trkpt lat="48.87072" lon="-0.55196">
        <ele>237.8</ele>
        <time>2024-04-07T09:21:22Z</time>
      </trkpt>
      <trkpt lat="48.87077" lon="-0.55191">
        <ele>238</ele>
        <time>2024-04-07T09:21:23Z</time>
      </trkpt>
      <trkpt lat="48.87081" lon="-0.55186">
        <ele>238.2</ele>
        <time>2024-04-07T09:21:24Z</time>
      </trkpt>
      <trkpt lat="48.87086" lon="-0.55181">
        <ele>238.4</ele>
        <time>2024-04-07T09:21:25Z</time>
      </trkpt>
      <trkpt lat="48.87089" lon="-0.55175">
        <ele>238.6</ele>
        <time>2024-04-07T09:21:26Z</time>
      </trkpt>
      <trkpt lat="48.87093" lon="-0.5517">
        <ele>238.8</ele>
        <time>2024-04-07T09:21:27Z</time>
      </trkpt>
      <trkpt lat="48.87098" lon="-0.55165">
        <ele>239</ele>
        <time>2024-04-07T09:21:28Z</time>
      </trkpt>
      <trkpt lat="48.87101" lon="-0.55159">
        <ele>239.4</ele>
        <time>2024-04-07T09:21:29Z</time>
      </trkpt>
      <trkpt lat="48.87105" lon="-0.55154">
        <ele>239.6</ele>
        <time>2024-04-07T09:21:30Z</time>
      </trkpt>
      <trkpt lat="48.87109" lon="-0.55149">
        <ele>240</ele>
        <time>2024-04-07T09:21:31Z</time>
      </trkpt>
      <trkpt lat="48.87113" lon="-0.55144">
        <ele>240.2</ele>
        <time>2024-04-07T09:21:32Z</time>
      </trkpt>
      <trkpt lat="48.87117" lon="-0.55139">
        <ele>240.6</ele>
        <time>2024-04-07T09:21:33Z</time>
      </trkpt>
      <trkpt lat="48.87121" lon="-0.55134">
        <ele>240.8</ele>
        <time>2024-04-07T09:21:34Z</time>
      </trkpt>
      <trkpt lat="48.87124" lon="-0.55129">
        <ele>241</ele>
        <time>2024-04-07T09:21:35Z</time>
      </trkpt>
      <trkpt lat="48.87128" lon="-0.55124">
        <ele>241.2</ele>
        <time>2024-04-07T09:21:36Z</time>
      </trkpt>
      <trkpt lat="48.87132" lon="-0.55119">
        <ele>241.6</ele>
        <time>2024-04-07T09:21:37Z</time>
      </trkpt>
      <trkpt lat="48.87137" lon="-0.55114">
        <ele>241.8</ele>
        <time>2024-04-07T09:21:38Z</time>
      </trkpt>
      <trkpt lat="48.87141" lon="-0.55109">
        <ele>242.2</ele>
        <time>2024-04-07T09:21:39Z</time>
      </trkpt>
      <trkpt lat="48.87145" lon="-0.55104">
        <ele>242.6</ele>
        <time>2024-04-07T09:21:40Z</time>
      </trkpt>
      <trkpt lat="48.87149" lon="-0.55098">
        <ele>242.8</ele>
        <time>2024-04-07T09:21:41Z</time>
      </trkpt>
      <trkpt lat="48.87153" lon="-0.55093">
        <ele>243</ele>
        <time>2024-04-07T09:21:42Z</time>
      </trkpt>
      <trkpt lat="48.87157" lon="-0.55088">
        <ele>243.2</ele>
        <time>2024-04-07T09:21:43Z</time>
      </trkpt>
      <trkpt lat="48.87161" lon="-0.55083">
        <ele>243.4</ele>
        <time>2024-04-07T09:21:44Z</time>
      </trkpt>
      <trkpt lat="48.87165" lon="-0.55078">
        <ele>244</ele>
        <time>2024-04-07T09:21:45Z</time>
      </trkpt>
      <trkpt lat="48.87169" lon="-0.55073">
        <ele>244.4</ele>
        <time>2024-04-07T09:21:46Z</time>
      </trkpt>
      <trkpt lat="48.87172" lon="-0.55067">
        <ele>244.6</ele>
        <time>2024-04-07T09:21:47Z</time>
      </trkpt>
      <trkpt lat="48.87176" lon="-0.55062">
        <ele>244.8</ele>
        <time>2024-04-07T09:21:48Z</time>
      </trkpt>
      <trkpt lat="48.8718" lon="-0.55057">
        <ele>244.8</ele>
        <time>2024-04-07T09:21:49Z</time>
      </trkpt>
      <trkpt lat="48.87184" lon="-0.55052">
        <ele>245</ele>
        <time>2024-04-07T09:21:50Z</time>
      </trkpt>
      <trkpt lat="48.87188" lon="-0.55046">
        <ele>245.4</ele>
        <time>2024-04-07T09:21:51Z</time>
      </trkpt>
      <trkpt lat="48.87192" lon="-0.55041">
        <ele>245.6</ele>
        <time>2024-04-07T09:21:52Z</time>
      </trkpt>
      <trkpt lat="48.87196" lon="-0.55036">
        <ele>245.8</ele>
        <time>2024-04-07T09:21:53Z</time>
      </trkpt>
      <trkpt lat="48.87201" lon="-0.5503">
        <ele>246</ele>
        <time>2024-04-07T09:21:54Z</time>
      </trkpt>
      <trkpt lat="48.87205" lon="-0.55025">
        <ele>246.2</ele>
        <time>2024-04-07T09:21:55Z</time>
      </trkpt>
      <trkpt lat="48.87209" lon="-0.5502">
        <ele>246.4</ele>
        <time>2024-04-07T09:21:56Z</time>
      </trkpt>
      <trkpt lat="48.87213" lon="-0.55015">
        <ele>246.6</ele>
        <time>2024-04-07T09:21:57Z</time>
      </trkpt>
      <trkpt lat="48.87217" lon="-0.5501">
        <ele>247</ele>
        <time>2024-04-07T09:21:58Z</time>
      </trkpt>
      <trkpt lat="48.87221" lon="-0.55005">
        <ele>247.2</ele>
        <time>2024-04-07T09:21:59Z</time>
      </trkpt>
      <trkpt lat="48.87225" lon="-0.55">
        <ele>247.6</ele>
        <time>2024-04-07T09:22:00Z</time>
      </trkpt>
      <trkpt lat="48.87229" lon="-0.54994">
        <ele>247.8</ele>
        <time>2024-04-07T09:22:01Z</time>
      </trkpt>
      <trkpt lat="48.87233" lon="-0.54989">
        <ele>248</ele>
        <time>2024-04-07T09:22:02Z</time>
      </trkpt>
      <trkpt lat="48.87237" lon="-0.54984">
        <ele>248.2</ele>
        <time>2024-04-07T09:22:03Z</time>
      </trkpt>
      <trkpt lat="48.8724" lon="-0.54979">
        <ele>248.4</ele>
        <time>2024-04-07T09:22:04Z</time>
      </trkpt>
      <trkpt lat="48.87244" lon="-0.54973">
        <ele>248.8</ele>
        <time>2024-04-07T09:22:05Z</time>
      </trkpt>
      <trkpt lat="48.87248" lon="-0.54968">
        <ele>249</ele>
        <time>2024-04-07T09:22:06Z</time>
      </trkpt>
      <trkpt lat="48.87252" lon="-0.54963">
        <ele>249.2</ele>
        <time>2024-04-07T09:22:07Z</time>
      </trkpt>
      <trkpt lat="48.87256" lon="-0.54958">
        <ele>249.6</ele>
        <time>2024-04-07T09:22:08Z</time>
      </trkpt>
      <trkpt lat="48.8726" lon="-0.54952">
        <ele>250</ele>
        <time>2024-04-07T09:22:09Z</time>
      </trkpt>
      <trkpt lat="48.87264" lon="-0.54947">
        <ele>250.2</ele>
        <time>2024-04-07T09:22:10Z</time>
      </trkpt>
      <trkpt lat="48.87268" lon="-0.54942">
        <ele>250.6</ele>
        <time>2024-04-07T09:22:11Z</time>
      </trkpt>
      <trkpt lat="48.87272" lon="-0.54937">
        <ele>250.8</ele>
        <time>2024-04-07T09:22:12Z</time>
      </trkpt>
      <trkpt lat="48.87276" lon="-0.54932">
        <ele>251</ele>
        <time>2024-04-07T09:22:13Z</time>
      </trkpt>
      <trkpt lat="48.8728" lon="-0.54926">
        <ele>251.4</ele>
        <time>2024-04-07T09:22:14Z</time>
      </trkpt>
      <trkpt lat="48.87285" lon="-0.54921">
        <ele>251.6</ele>
        <time>2024-04-07T09:22:15Z</time>
      </trkpt>
      <trkpt lat="48.87289" lon="-0.54916">
        <ele>251.8</ele>
        <time>2024-04-07T09:22:16Z</time>
      </trkpt>
      <trkpt lat="48.87293" lon="-0.5491">
        <ele>252</ele>
        <time>2024-04-07T09:22:17Z</time>
      </trkpt>
      <trkpt lat="48.87297" lon="-0.54905">
        <ele>252.4</ele>
        <time>2024-04-07T09:22:18Z</time>
      </trkpt>
      <trkpt lat="48.873" lon="-0.549">
        <ele>252.6</ele>
        <time>2024-04-07T09:22:19Z</time>
      </trkpt>
      <trkpt lat="48.87304" lon="-0.54894">
        <ele>252.8</ele>
        <time>2024-04-07T09:22:20Z</time>
      </trkpt>
      <trkpt lat="48.87309" lon="-0.5489">
        <ele>253</ele>
        <time>2024-04-07T09:22:21Z</time>
      </trkpt>
      <trkpt lat="48.87313" lon="-0.54885">
        <ele>253</ele>
        <time>2024-04-07T09:22:22Z</time>
      </trkpt>
      <trkpt lat="48.87316" lon="-0.5488">
        <ele>253</ele>
        <time>2024-04-07T09:22:23Z</time>
      </trkpt>
      <trkpt lat="48.8732" lon="-0.54875">
        <ele>253.2</ele>
        <time>2024-04-07T09:22:24Z</time>
      </trkpt>
      <trkpt lat="48.87324" lon="-0.5487">
        <ele>253.6</ele>
        <time>2024-04-07T09:22:25Z</time>
      </trkpt>
      <trkpt lat="48.87329" lon="-0.54864">
        <ele>253.8</ele>
        <time>2024-04-07T09:22:26Z</time>
      </trkpt>
      <trkpt lat="48.87333" lon="-0.54859">
        <ele>254</ele>
        <time>2024-04-07T09:22:27Z</time>
      </trkpt>
      <trkpt lat="48.87337" lon="-0.54854">
        <ele>254.2</ele>
        <time>2024-04-07T09:22:28Z</time>
      </trkpt>
      <trkpt lat="48.87341" lon="-0.54849">
        <ele>254.4</ele>
        <time>2024-04-07T09:22:29Z</time>
      </trkpt>
      <trkpt lat="48.87345" lon="-0.54844">
        <ele>254.6</ele>
        <time>2024-04-07T09:22:30Z</time>
      </trkpt>
      <trkpt lat="48.87349" lon="-0.54838">
        <ele>255</ele>
        <time>2024-04-07T09:22:31Z</time>
      </trkpt>
      <trkpt lat="48.87353" lon="-0.54833">
        <ele>255.2</ele>
        <time>2024-04-07T09:22:32Z</time>
      </trkpt>
      <trkpt lat="48.87358" lon="-0.54827">
        <ele>255.4</ele>
        <time>2024-04-07T09:22:33Z</time>
      </trkpt>
      <trkpt lat="48.87362" lon="-0.54822">
        <ele>255.6</ele>
        <time>2024-04-07T09:22:34Z</time>
      </trkpt>
      <trkpt lat="48.87366" lon="-0.54816">
        <ele>256</ele>
        <time>2024-04-07T09:22:35Z</time>
      </trkpt>
      <trkpt lat="48.8737" lon="-0.54811">
        <ele>256.2</ele>
        <time>2024-04-07T09:22:36Z</time>
      </trkpt>
      <trkpt lat="48.87375" lon="-0.54805">
        <ele>256.4</ele>
        <time>2024-04-07T09:22:37Z</time>
      </trkpt>
      <trkpt lat="48.87379" lon="-0.548">
        <ele>256.8</ele>
        <time>2024-04-07T09:22:38Z</time>
      </trkpt>
      <trkpt lat="48.87383" lon="-0.54795">
        <ele>257</ele>
        <time>2024-04-07T09:22:39Z</time>
      </trkpt>
      <trkpt lat="48.87387" lon="-0.54789">
        <ele>257.2</ele>
        <time>2024-04-07T09:22:40Z</time>
      </trkpt>
      <trkpt lat="48.87391" lon="-0.54784">
        <ele>257.6</ele>
        <time>2024-04-07T09:22:41Z</time>
      </trkpt>
      <trkpt lat="48.87394" lon="-0.54778">
        <ele>257.8</ele>
        <time>2024-04-07T09:22:42Z</time>
      </trkpt>
      <trkpt lat="48.87399" lon="-0.54772">
        <ele>258</ele>
        <time>2024-04-07T09:22:43Z</time>
      </trkpt>
      <trkpt lat="48.87403" lon="-0.54766">
        <ele>258.2</ele>
        <time>2024-04-07T09:22:44Z</time>
      </trkpt>
      <trkpt lat="48.87407" lon="-0.54761">
        <ele>258.4</ele>
        <time>2024-04-07T09:22:45Z</time>
      </trkpt>
      <trkpt lat="48.87411" lon="-0.54755">
        <ele>258.4</ele>
        <time>2024-04-07T09:22:46Z</time>
      </trkpt>
      <trkpt lat="48.87416" lon="-0.5475">
        <ele>258.6</ele>
        <time>2024-04-07T09:22:47Z</time>
      </trkpt>
      <trkpt lat="48.8742" lon="-0.54744">
        <ele>258.6</ele>
        <time>2024-04-07T09:22:48Z</time>
      </trkpt>
      <trkpt lat="48.87424" lon="-0.54739">
        <ele>259</ele>
        <time>2024-04-07T09:22:49Z</time>
      </trkpt>
      <trkpt lat="48.87428" lon="-0.54733">
        <ele>259.2</ele>
        <time>2024-04-07T09:22:50Z</time>
      </trkpt>
      <trkpt lat="48.87433" lon="-0.54728">
        <ele>259.6</ele>
        <time>2024-04-07T09:22:51Z</time>
      </trkpt>
      <trkpt lat="48.87437" lon="-0.54722">
        <ele>259.8</ele>
        <time>2024-04-07T09:22:52Z</time>
      </trkpt>
      <trkpt lat="48.87441" lon="-0.54716">
        <ele>260</ele>
        <time>2024-04-07T09:22:53Z</time>
      </trkpt>
      <trkpt lat="48.87446" lon="-0.54711">
        <ele>260.2</ele>
        <time>2024-04-07T09:22:54Z</time>
      </trkpt>
      <trkpt lat="48.8745" lon="-0.54705">
        <ele>260.4</ele>
        <time>2024-04-07T09:22:55Z</time>
      </trkpt>
      <trkpt lat="48.87454" lon="-0.54699">
        <ele>260.6</ele>
        <time>2024-04-07T09:22:56Z</time>
      </trkpt>
      <trkpt lat="48.87459" lon="-0.54694">
        <ele>260.6</ele>
        <time>2024-04-07T09:22:57Z</time>
      </trkpt>
      <trkpt lat="48.87463" lon="-0.54689">
        <ele>260.8</ele>
        <time>2024-04-07T09:22:58Z</time>
      </trkpt>
      <trkpt lat="48.87467" lon="-0.54684">
        <ele>261</ele>
        <time>2024-04-07T09:22:59Z</time>
      </trkpt>
      <trkpt lat="48.87472" lon="-0.54679">
        <ele>261.2</ele>
        <time>2024-04-07T09:23:00Z</time>
      </trkpt>
      <trkpt lat="48.87475" lon="-0.54673">
        <ele>261.6</ele>
        <time>2024-04-07T09:23:01Z</time>
      </trkpt>
      <trkpt lat="48.87479" lon="-0.54668">
        <ele>261.8</ele>
        <time>2024-04-07T09:23:02Z</time>
      </trkpt>
      <trkpt lat="48.87483" lon="-0.54663">
        <ele>262</ele>
        <time>2024-04-07T09:23:03Z</time>
      </trkpt>
      <trkpt lat="48.87487" lon="-0.54657">
        <ele>262.2</ele>
        <time>2024-04-07T09:23:04Z</time>
      </trkpt>
      <trkpt lat="48.87491" lon="-0.54652">
        <ele>262.2</ele>
        <time>2024-04-07T09:23:05Z</time>
      </trkpt>
      <trkpt lat="48.87495" lon="-0.54647">
        <ele>262.4</ele>
        <time>2024-04-07T09:23:06Z</time>
      </trkpt>
      <trkpt lat="48.87499" lon="-0.54642">
        <ele>262.6</ele>
        <time>2024-04-07T09:23:07Z</time>
      </trkpt>
      <trkpt lat="48.87503" lon="-0.54637">
        <ele>262.6</ele>
        <time>2024-04-07T09:23:08Z</time>
      </trkpt>
      <trkpt lat="48.87507" lon="-0.54632">
        <ele>262.8</ele>
        <time>2024-04-07T09:23:09Z</time>
      </trkpt>
      <trkpt lat="48.8751" lon="-0.54627">
        <ele>263</ele>
        <time>2024-04-07T09:23:10Z</time>
      </trkpt>
      <trkpt lat="48.87514" lon="-0.54622">
        <ele>263.2</ele>
        <time>2024-04-07T09:23:11Z</time>
      </trkpt>
      <trkpt lat="48.87518" lon="-0.54617">
        <ele>263.6</ele>
        <time>2024-04-07T09:23:12Z</time>
      </trkpt>
      <trkpt lat="48.87522" lon="-0.54612">
        <ele>263.8</ele>
        <time>2024-04-07T09:23:13Z</time>
      </trkpt>
      <trkpt lat="48.87526" lon="-0.54606">
        <ele>264</ele>
        <time>2024-04-07T09:23:14Z</time>
      </trkpt>
      <trkpt lat="48.8753" lon="-0.54601">
        <ele>264</ele>
        <time>2024-04-07T09:23:15Z</time>
      </trkpt>
      <trkpt lat="48.87535" lon="-0.54596">
        <ele>264.2</ele>
        <time>2024-04-07T09:23:16Z</time>
      </trkpt>
      <trkpt lat="48.87539" lon="-0.54591">
        <ele>264.2</ele>
        <time>2024-04-07T09:23:17Z</time>
      </trkpt>
      <trkpt lat="48.87543" lon="-0.54586">
        <ele>264.4</ele>
        <time>2024-04-07T09:23:18Z</time>
      </trkpt>
      <trkpt lat="48.87547" lon="-0.54581">
        <ele>264.4</ele>
        <time>2024-04-07T09:23:19Z</time>
      </trkpt>
      <trkpt lat="48.87551" lon="-0.54575">
        <ele>264.6</ele>
        <time>2024-04-07T09:23:20Z</time>
      </trkpt>
      <trkpt lat="48.87555" lon="-0.5457">
        <ele>264.6</ele>
        <time>2024-04-07T09:23:21Z</time>
      </trkpt>
      <trkpt lat="48.87559" lon="-0.54564">
        <ele>264.6</ele>
        <time>2024-04-07T09:23:22Z</time>
      </trkpt>
      <trkpt lat="48.87564" lon="-0.54559">
        <ele>264.8</ele>
        <time>2024-04-07T09:23:23Z</time>
      </trkpt>
      <trkpt lat="48.87568" lon="-0.54554">
        <ele>264.8</ele>
        <time>2024-04-07T09:23:24Z</time>
      </trkpt>
      <trkpt lat="48.87572" lon="-0.54548">
        <ele>264.8</ele>
        <time>2024-04-07T09:23:25Z</time>
      </trkpt>
      <trkpt lat="48.87576" lon="-0.54543">
        <ele>264.8</ele>
        <time>2024-04-07T09:23:26Z</time>
      </trkpt>
      <trkpt lat="48.8758" lon="-0.54537">
        <ele>264.8</ele>
        <time>2024-04-07T09:23:27Z</time>
      </trkpt>
      <trkpt lat="48.87584" lon="-0.54532">
        <ele>264.8</ele>
        <time>2024-04-07T09:23:28Z</time>
      </trkpt>
      <trkpt lat="48.87589" lon="-0.54526">
        <ele>265</ele>
        <time>2024-04-07T09:23:29Z</time>
      </trkpt>
      <trkpt lat="48.87593" lon="-0.54521">
        <ele>265</ele>
        <time>2024-04-07T09:23:30Z</time>
      </trkpt>
      <trkpt lat="48.87597" lon="-0.54515">
        <ele>265.2</ele>
        <time>2024-04-07T09:23:31Z</time>
      </trkpt>
      <trkpt lat="48.87601" lon="-0.54509">
        <ele>265.2</ele>
        <time>2024-04-07T09:23:32Z</time>
      </trkpt>
      <trkpt lat="48.87606" lon="-0.54504">
        <ele>265.2</ele>
        <time>2024-04-07T09:23:33Z</time>
      </trkpt>
      <trkpt lat="48.8761" lon="-0.54498">
        <ele>265.2</ele>
        <time>2024-04-07T09:23:34Z</time>
      </trkpt>
      <trkpt lat="48.87615" lon="-0.54492">
        <ele>265.4</ele>
        <time>2024-04-07T09:23:35Z</time>
      </trkpt>
      <trkpt lat="48.87619" lon="-0.54486">
        <ele>265.4</ele>
        <time>2024-04-07T09:23:36Z</time>
      </trkpt>
      <trkpt lat="48.87624" lon="-0.5448">
        <ele>265.4</ele>
        <time>2024-04-07T09:23:37Z</time>
      </trkpt>
      <trkpt lat="48.87629" lon="-0.54474">
        <ele>265.4</ele>
        <time>2024-04-07T09:23:38Z</time>
      </trkpt>
      <trkpt lat="48.87633" lon="-0.54468">
        <ele>265.6</ele>
        <time>2024-04-07T09:23:39Z</time>
      </trkpt>
      <trkpt lat="48.87638" lon="-0.54462">
        <ele>265.6</ele>
        <time>2024-04-07T09:23:40Z</time>
      </trkpt>
      <trkpt lat="48.87643" lon="-0.54455">
        <ele>265.8</ele>
        <time>2024-04-07T09:23:41Z</time>
      </trkpt>
      <trkpt lat="48.87647" lon="-0.54449">
        <ele>266</ele>
        <time>2024-04-07T09:23:42Z</time>
      </trkpt>
      <trkpt lat="48.87652" lon="-0.54442">
        <ele>266</ele>
        <time>2024-04-07T09:23:43Z</time>
      </trkpt>
      <trkpt lat="48.87657" lon="-0.54436">
        <ele>266</ele>
        <time>2024-04-07T09:23:44Z</time>
      </trkpt>
      <trkpt lat="48.87662" lon="-0.5443">
        <ele>266</ele>
        <time>2024-04-07T09:23:45Z</time>
      </trkpt>
      <trkpt lat="48.87667" lon="-0.54423">
        <ele>266.2</ele>
        <time>2024-04-07T09:23:46Z</time>
      </trkpt>
      <trkpt lat="48.87673" lon="-0.54417">
        <ele>266</ele>
        <time>2024-04-07T09:23:47Z</time>
      </trkpt>
      <trkpt lat="48.87678" lon="-0.54411">
        <ele>266</ele>
        <time>2024-04-07T09:23:48Z</time>
      </trkpt>
      <trkpt lat="48.87683" lon="-0.54404">
        <ele>266</ele>
        <time>2024-04-07T09:23:49Z</time>
      </trkpt>
      <trkpt lat="48.87689" lon="-0.54398">
        <ele>265.8</ele>
        <time>2024-04-07T09:23:50Z</time>
      </trkpt>
      <trkpt lat="48.87695" lon="-0.54392">
        <ele>265.8</ele>
        <time>2024-04-07T09:23:51Z</time>
      </trkpt>
      <trkpt lat="48.87701" lon="-0.54386">
        <ele>265.8</ele>
        <time>2024-04-07T09:23:52Z</time>
      </trkpt>
      <trkpt lat="48.87707" lon="-0.5438">
        <ele>265.8</ele>
        <time>2024-04-07T09:23:53Z</time>
      </trkpt>
      <trkpt lat="48.87713" lon="-0.54374">
        <ele>265.6</ele>
        <time>2024-04-07T09:23:54Z</time>
      </trkpt>
      <trkpt lat="48.87719" lon="-0.54368">
        <ele>265.6</ele>
        <time>2024-04-07T09:23:55Z</time>
      </trkpt>
      <trkpt lat="48.87725" lon="-0.54363">
        <ele>265.4</ele>
        <time>2024-04-07T09:23:56Z</time>
      </trkpt>
      <trkpt lat="48.87732" lon="-0.54357">
        <ele>265.4</ele>
        <time>2024-04-07T09:23:57Z</time>
      </trkpt>
      <trkpt lat="48.87739" lon="-0.54351">
        <ele>265.4</ele>
        <time>2024-04-07T09:23:58Z</time>
      </trkpt>
      <trkpt lat="48.87746" lon="-0.54345">
        <ele>265</ele>
        <time>2024-04-07T09:23:59Z</time>
      </trkpt>
      <trkpt lat="48.87753" lon="-0.54339">
        <ele>264.8</ele>
        <time>2024-04-07T09:24:00Z</time>
      </trkpt>
      <trkpt lat="48.8776" lon="-0.54332">
        <ele>264.6</ele>
        <time>2024-04-07T09:24:01Z</time>
      </trkpt>
      <trkpt lat="48.87768" lon="-0.54326">
        <ele>264.2</ele>
        <time>2024-04-07T09:24:02Z</time>
      </trkpt>
      <trkpt lat="48.87775" lon="-0.54319">
        <ele>263.8</ele>
        <time>2024-04-07T09:24:03Z</time>
      </trkpt>
      <trkpt lat="48.87783" lon="-0.54313">
        <ele>263.4</ele>
        <time>2024-04-07T09:24:04Z</time>
      </trkpt>
      <trkpt lat="48.87791" lon="-0.54306">
        <ele>263.2</ele>
        <time>2024-04-07T09:24:05Z</time>
      </trkpt>
      <trkpt lat="48.878" lon="-0.543">
        <ele>263</ele>
        <time>2024-04-07T09:24:06Z</time>
      </trkpt>
      <trkpt lat="48.87808" lon="-0.54293">
        <ele>262.8</ele>
        <time>2024-04-07T09:24:07Z</time>
      </trkpt>
      <trkpt lat="48.87816" lon="-0.54286">
        <ele>262.6</ele>
        <time>2024-04-07T09:24:08Z</time>
      </trkpt>
      <trkpt lat="48.87825" lon="-0.54279">
        <ele>262.2</ele>
        <time>2024-04-07T09:24:09Z</time>
      </trkpt>
      <trkpt lat="48.87834" lon="-0.54271">
        <ele>261.4</ele>
        <time>2024-04-07T09:24:10Z</time>
      </trkpt>
      <trkpt lat="48.87843" lon="-0.54263">
        <ele>261</ele>
        <time>2024-04-07T09:24:11Z</time>
      </trkpt>
      <trkpt lat="48.87851" lon="-0.54254">
        <ele>260.6</ele>
        <time>2024-04-07T09:24:12Z</time>
      </trkpt>
      <trkpt lat="48.8786" lon="-0.54245">
        <ele>260</ele>
        <time>2024-04-07T09:24:13Z</time>
      </trkpt>
      <trkpt lat="48.87868" lon="-0.54235">
        <ele>259.4</ele>
        <time>2024-04-07T09:24:14Z</time>
      </trkpt>
      <trkpt lat="48.87875" lon="-0.54223">
        <ele>258.6</ele>
        <time>2024-04-07T09:24:15Z</time>
      </trkpt>
      <trkpt lat="48.87881" lon="-0.5421">
        <ele>258</ele>
        <time>2024-04-07T09:24:16Z</time>
      </trkpt>
      <trkpt lat="48.87885" lon="-0.54197">
        <ele>257</ele>
        <time>2024-04-07T09:24:17Z</time>
      </trkpt>
      <trkpt lat="48.87889" lon="-0.54182">
        <ele>256.2</ele>
        <time>2024-04-07T09:24:18Z</time>
      </trkpt>
      <trkpt lat="48.87891" lon="-0.54167">
        <ele>255.6</ele>
        <time>2024-04-07T09:24:19Z</time>
      </trkpt>
      <trkpt lat="48.87893" lon="-0.54156">
        <ele>255.4</ele>
        <time>2024-04-07T09:24:20Z</time>
      </trkpt>
      <trkpt lat="48.87894" lon="-0.54145">
        <ele>255.2</ele>
        <time>2024-04-07T09:24:21Z</time>
      </trkpt>
      <trkpt lat="48.87897" lon="-0.54123">
        <ele>255.2</ele>
        <time>2024-04-07T09:24:22Z</time>
      </trkpt>
      <trkpt lat="48.87899" lon="-0.54109">
        <ele>255.2</ele>
        <time>2024-04-07T09:24:23Z</time>
      </trkpt>
      <trkpt lat="48.87902" lon="-0.54094">
        <ele>255.2</ele>
        <time>2024-04-07T09:24:24Z</time>
      </trkpt>
      <trkpt lat="48.87904" lon="-0.5408">
        <ele>255.2</ele>
        <time>2024-04-07T09:24:25Z</time>
      </trkpt>
      <trkpt lat="48.87907" lon="-0.54066">
        <ele>255</ele>
        <time>2024-04-07T09:24:26Z</time>
      </trkpt>
      <trkpt lat="48.8791" lon="-0.54053">
        <ele>255</ele>
        <time>2024-04-07T09:24:27Z</time>
      </trkpt>
      <trkpt lat="48.87913" lon="-0.54041">
        <ele>254.8</ele>
        <time>2024-04-07T09:24:28Z</time>
      </trkpt>
      <trkpt lat="48.87918" lon="-0.54029">
        <ele>254.8</ele>
        <time>2024-04-07T09:24:29Z</time>
      </trkpt>
      <trkpt lat="48.87923" lon="-0.54019">
        <ele>255.2</ele>
        <time>2024-04-07T09:24:30Z</time>
      </trkpt>
      <trkpt lat="48.87929" lon="-0.54008">
        <ele>255.4</ele>
        <time>2024-04-07T09:24:31Z</time>
      </trkpt>
      <trkpt lat="48.87934" lon="-0.53999">
        <ele>255.6</ele>
        <time>2024-04-07T09:24:32Z</time>
      </trkpt>
      <trkpt lat="48.8794" lon="-0.53989">
        <ele>255.8</ele>
        <time>2024-04-07T09:24:33Z</time>
      </trkpt>
      <trkpt lat="48.87946" lon="-0.53981">
        <ele>256.2</ele>
        <time>2024-04-07T09:24:34Z</time>
      </trkpt>
      <trkpt lat="48.87953" lon="-0.53973">
        <ele>256.2</ele>
        <time>2024-04-07T09:24:35Z</time>
      </trkpt>
      <trkpt lat="48.8796" lon="-0.53965">
        <ele>256.4</ele>
        <time>2024-04-07T09:24:36Z</time>
      </trkpt>
      <trkpt lat="48.87967" lon="-0.5396">
        <ele>256.6</ele>
        <time>2024-04-07T09:24:37Z</time>
      </trkpt>
      <trkpt lat="48.87974" lon="-0.53954">
        <ele>256.6</ele>
        <time>2024-04-07T09:24:38Z</time>
      </trkpt>
      <trkpt lat="48.87982" lon="-0.53949">
        <ele>256.8</ele>
        <time>2024-04-07T09:24:39Z</time>
      </trkpt>
      <trkpt lat="48.87989" lon="-0.53943">
        <ele>256.8</ele>
        <time>2024-04-07T09:24:40Z</time>
      </trkpt>
      <trkpt lat="48.87996" lon="-0.53936">
        <ele>256.8</ele>
        <time>2024-04-07T09:24:41Z</time>
      </trkpt>
      <trkpt lat="48.88003" lon="-0.53928">
        <ele>256.8</ele>
        <time>2024-04-07T09:24:42Z</time>
      </trkpt>
      <trkpt lat="48.88009" lon="-0.5392">
        <ele>256.8</ele>
        <time>2024-04-07T09:24:43Z</time>
      </trkpt>
      <trkpt lat="48.88015" lon="-0.53911">
        <ele>256.8</ele>
        <time>2024-04-07T09:24:44Z</time>
      </trkpt>
      <trkpt lat="48.88021" lon="-0.53901">
        <ele>256.6</ele>
        <time>2024-04-07T09:24:45Z</time>
      </trkpt>
      <trkpt lat="48.88027" lon="-0.53891">
        <ele>256.6</ele>
        <time>2024-04-07T09:24:46Z</time>
      </trkpt>
      <trkpt lat="48.88032" lon="-0.53881">
        <ele>256.4</ele>
        <time>2024-04-07T09:24:47Z</time>
      </trkpt>
      <trkpt lat="48.88038" lon="-0.53872">
        <ele>256.6</ele>
        <time>2024-04-07T09:24:48Z</time>
      </trkpt>
      <trkpt lat="48.88043" lon="-0.53862">
        <ele>256.6</ele>
        <time>2024-04-07T09:24:49Z</time>
      </trkpt>
      <trkpt lat="48.88049" lon="-0.53853">
        <ele>256.6</ele>
        <time>2024-04-07T09:24:50Z</time>
      </trkpt>
      <trkpt lat="48.88055" lon="-0.53844">
        <ele>256.8</ele>
        <time>2024-04-07T09:24:51Z</time>
      </trkpt>
      <trkpt lat="48.88061" lon="-0.53836">
        <ele>257.2</ele>
        <time>2024-04-07T09:24:52Z</time>
      </trkpt>
      <trkpt lat="48.88067" lon="-0.53829">
        <ele>257.8</ele>
        <time>2024-04-07T09:24:53Z</time>
      </trkpt>
      <trkpt lat="48.88073" lon="-0.53822">
        <ele>258.4</ele>
        <time>2024-04-07T09:24:54Z</time>
      </trkpt>
      <trkpt lat="48.88079" lon="-0.53816">
        <ele>258.8</ele>
        <time>2024-04-07T09:24:55Z</time>
      </trkpt>
      <trkpt lat="48.88085" lon="-0.5381">
        <ele>259.2</ele>
        <time>2024-04-07T09:24:56Z</time>
      </trkpt>
      <trkpt lat="48.88092" lon="-0.53804">
        <ele>259.6</ele>
        <time>2024-04-07T09:24:57Z</time>
      </trkpt>
      <trkpt lat="48.88098" lon="-0.53799">
        <ele>260</ele>
        <time>2024-04-07T09:24:58Z</time>
      </trkpt>
      <trkpt lat="48.88105" lon="-0.53794">
        <ele>260.2</ele>
        <time>2024-04-07T09:24:59Z</time>
      </trkpt>
      <trkpt lat="48.88111" lon="-0.5379">
        <ele>260.6</ele>
        <time>2024-04-07T09:25:00Z</time>
      </trkpt>
      <trkpt lat="48.88117" lon="-0.53785">
        <ele>260.8</ele>
        <time>2024-04-07T09:25:01Z</time>
      </trkpt>
      <trkpt lat="48.88123" lon="-0.5378">
        <ele>261.2</ele>
        <time>2024-04-07T09:25:02Z</time>
      </trkpt>
      <trkpt lat="48.88129" lon="-0.53776">
        <ele>261.6</ele>
        <time>2024-04-07T09:25:03Z</time>
      </trkpt>
      <trkpt lat="48.88135" lon="-0.53772">
        <ele>262</ele>
        <time>2024-04-07T09:25:04Z</time>
      </trkpt>
      <trkpt lat="48.8814" lon="-0.53768">
        <ele>262.4</ele>
        <time>2024-04-07T09:25:05Z</time>
      </trkpt>
      <trkpt lat="48.88145" lon="-0.53764">
        <ele>262.6</ele>
        <time>2024-04-07T09:25:06Z</time>
      </trkpt>
      <trkpt lat="48.88151" lon="-0.5376">
        <ele>263</ele>
        <time>2024-04-07T09:25:07Z</time>
      </trkpt>
      <trkpt lat="48.88157" lon="-0.53756">
        <ele>263.2</ele>
        <time>2024-04-07T09:25:08Z</time>
      </trkpt>
      <trkpt lat="48.88162" lon="-0.53752">
        <ele>263.4</ele>
        <time>2024-04-07T09:25:09Z</time>
      </trkpt>
      <trkpt lat="48.88168" lon="-0.53748">
        <ele>263.8</ele>
        <time>2024-04-07T09:25:10Z</time>
      </trkpt>
      <trkpt lat="48.88173" lon="-0.53743">
        <ele>264.4</ele>
        <time>2024-04-07T09:25:11Z</time>
      </trkpt>
      <trkpt lat="48.88177" lon="-0.53739">
        <ele>264.6</ele>
        <time>2024-04-07T09:25:12Z</time>
      </trkpt>
      <trkpt lat="48.88183" lon="-0.53735">
        <ele>265</ele>
        <time>2024-04-07T09:25:13Z</time>
      </trkpt>
      <trkpt lat="48.88188" lon="-0.53731">
        <ele>265.4</ele>
        <time>2024-04-07T09:25:14Z</time>
      </trkpt>
      <trkpt lat="48.88193" lon="-0.53727">
        <ele>265.8</ele>
        <time>2024-04-07T09:25:15Z</time>
      </trkpt>
      <trkpt lat="48.88198" lon="-0.53723">
        <ele>266</ele>
        <time>2024-04-07T09:25:16Z</time>
      </trkpt>
      <trkpt lat="48.88203" lon="-0.53719">
        <ele>266.4</ele>
        <time>2024-04-07T09:25:17Z</time>
      </trkpt>
      <trkpt lat="48.88208" lon="-0.53715">
        <ele>266.6</ele>
        <time>2024-04-07T09:25:18Z</time>
      </trkpt>
      <trkpt lat="48.88213" lon="-0.53711">
        <ele>266.6</ele>
        <time>2024-04-07T09:25:19Z</time>
      </trkpt>
      <trkpt lat="48.88218" lon="-0.53708">
        <ele>266.8</ele>
        <time>2024-04-07T09:25:20Z</time>
      </trkpt>
      <trkpt lat="48.88223" lon="-0.53705">
        <ele>266.8</ele>
        <time>2024-04-07T09:25:21Z</time>
      </trkpt>
      <trkpt lat="48.88228" lon="-0.53702">
        <ele>267</ele>
        <time>2024-04-07T09:25:22Z</time>
      </trkpt>
      <trkpt lat="48.88233" lon="-0.537">
        <ele>267.2</ele>
        <time>2024-04-07T09:25:23Z</time>
      </trkpt>
      <trkpt lat="48.88238" lon="-0.53698">
        <ele>267.4</ele>
        <time>2024-04-07T09:25:24Z</time>
      </trkpt>
      <trkpt lat="48.88243" lon="-0.53696">
        <ele>267.8</ele>
        <time>2024-04-07T09:25:25Z</time>
      </trkpt>
      <trkpt lat="48.88248" lon="-0.53695">
        <ele>268</ele>
        <time>2024-04-07T09:25:26Z</time>
      </trkpt>
      <trkpt lat="48.88252" lon="-0.53693">
        <ele>268.2</ele>
        <time>2024-04-07T09:25:27Z</time>
      </trkpt>
      <trkpt lat="48.88257" lon="-0.53692">
        <ele>268.6</ele>
        <time>2024-04-07T09:25:28Z</time>
      </trkpt>
      <trkpt lat="48.88261" lon="-0.53691">
        <ele>268.8</ele>
        <time>2024-04-07T09:25:29Z</time>
      </trkpt>
      <trkpt lat="48.88266" lon="-0.5369">
        <ele>269.2</ele>
        <time>2024-04-07T09:25:30Z</time>
      </trkpt>
      <trkpt lat="48.8827" lon="-0.53689">
        <ele>269.4</ele>
        <time>2024-04-07T09:25:31Z</time>
      </trkpt>
      <trkpt lat="48.88275" lon="-0.53688">
        <ele>269.6</ele>
        <time>2024-04-07T09:25:32Z</time>
      </trkpt>
      <trkpt lat="48.88279" lon="-0.53688">
        <ele>269.8</ele>
        <time>2024-04-07T09:25:33Z</time>
      </trkpt>
      <trkpt lat="48.88284" lon="-0.53687">
        <ele>270</ele>
        <time>2024-04-07T09:25:34Z</time>
      </trkpt>
      <trkpt lat="48.88288" lon="-0.53687">
        <ele>270.2</ele>
        <time>2024-04-07T09:25:35Z</time>
      </trkpt>
      <trkpt lat="48.88292" lon="-0.53686">
        <ele>270.6</ele>
        <time>2024-04-07T09:25:36Z</time>
      </trkpt>
      <trkpt lat="48.88296" lon="-0.53686">
        <ele>271</ele>
        <time>2024-04-07T09:25:37Z</time>
      </trkpt>
      <trkpt lat="48.88296" lon="-0.53686">
        <ele>271.2</ele>
        <time>2024-04-07T09:25:38Z</time>
      </trkpt>
      <trkpt lat="48.88304" lon="-0.53685">
        <ele>271.4</ele>
        <time>2024-04-07T09:25:39Z</time>
      </trkpt>
      <trkpt lat="48.88308" lon="-0.53685">
        <ele>272</ele>
        <time>2024-04-07T09:25:40Z</time>
      </trkpt>
      <trkpt lat="48.88312" lon="-0.53684">
        <ele>272.6</ele>
        <time>2024-04-07T09:25:41Z</time>
      </trkpt>
      <trkpt lat="48.88316" lon="-0.53684">
        <ele>273.2</ele>
        <time>2024-04-07T09:25:42Z</time>
      </trkpt>
      <trkpt lat="48.8832" lon="-0.53684">
        <ele>273.6</ele>
        <time>2024-04-07T09:25:43Z</time>
      </trkpt>
      <trkpt lat="48.88324" lon="-0.53684">
        <ele>274.2</ele>
        <time>2024-04-07T09:25:44Z</time>
      </trkpt>
      <trkpt lat="48.88324" lon="-0.53684">
        <ele>274.6</ele>
        <time>2024-04-07T09:25:45Z</time>
      </trkpt>
      <trkpt lat="48.88331" lon="-0.53683">
        <ele>274.8</ele>
        <time>2024-04-07T09:25:46Z</time>
      </trkpt>
      <trkpt lat="48.88335" lon="-0.53682">
        <ele>275</ele>
        <time>2024-04-07T09:25:47Z</time>
      </trkpt>
      <trkpt lat="48.88339" lon="-0.53682">
        <ele>275.2</ele>
        <time>2024-04-07T09:25:48Z</time>
      </trkpt>
      <trkpt lat="48.88343" lon="-0.53681">
        <ele>275.6</ele>
        <time>2024-04-07T09:25:49Z</time>
      </trkpt>
      <trkpt lat="48.88347" lon="-0.53681">
        <ele>276</ele>
        <time>2024-04-07T09:25:50Z</time>
      </trkpt>
      <trkpt lat="48.88351" lon="-0.5368">
        <ele>276.4</ele>
        <time>2024-04-07T09:25:51Z</time>
      </trkpt>
      <trkpt lat="48.88355" lon="-0.5368">
        <ele>276.8</ele>
        <time>2024-04-07T09:25:52Z</time>
      </trkpt>
      <trkpt lat="48.88359" lon="-0.53679">
        <ele>277.2</ele>
        <time>2024-04-07T09:25:53Z</time>
      </trkpt>
      <trkpt lat="48.88363" lon="-0.53676">
        <ele>277.6</ele>
        <time>2024-04-07T09:25:54Z</time>
      </trkpt>
      <trkpt lat="48.88366" lon="-0.53673">
        <ele>277.8</ele>
        <time>2024-04-07T09:25:55Z</time>
      </trkpt>
      <trkpt lat="48.88368" lon="-0.53668">
        <ele>278</ele>
        <time>2024-04-07T09:25:56Z</time>
      </trkpt>
      <trkpt lat="48.88372" lon="-0.53664">
        <ele>278.2</ele>
        <time>2024-04-07T09:25:57Z</time>
      </trkpt>
      <trkpt lat="48.88376" lon="-0.53659">
        <ele>278.4</ele>
        <time>2024-04-07T09:25:58Z</time>
      </trkpt>
      <trkpt lat="48.8838" lon="-0.53656">
        <ele>278.4</ele>
        <time>2024-04-07T09:25:59Z</time>
      </trkpt>
      <trkpt lat="48.88384" lon="-0.53653">
        <ele>278.6</ele>
        <time>2024-04-07T09:26:00Z</time>
      </trkpt>
      <trkpt lat="48.88389" lon="-0.5365">
        <ele>278.8</ele>
        <time>2024-04-07T09:26:01Z</time>
      </trkpt>
      <trkpt lat="48.88394" lon="-0.53647">
        <ele>279</ele>
        <time>2024-04-07T09:26:02Z</time>
      </trkpt>
      <trkpt lat="48.88399" lon="-0.53646">
        <ele>279.2</ele>
        <time>2024-04-07T09:26:03Z</time>
      </trkpt>
      <trkpt lat="48.88404" lon="-0.53644">
        <ele>279.4</ele>
        <time>2024-04-07T09:26:04Z</time>
      </trkpt>
      <trkpt lat="48.88409" lon="-0.53641">
        <ele>279.6</ele>
        <time>2024-04-07T09:26:05Z</time>
      </trkpt>
      <trkpt lat="48.88414" lon="-0.53638">
        <ele>279.8</ele>
        <time>2024-04-07T09:26:06Z</time>
      </trkpt>
      <trkpt lat="48.88418" lon="-0.53634">
        <ele>280.2</ele>
        <time>2024-04-07T09:26:07Z</time>
      </trkpt>
      <trkpt lat="48.88422" lon="-0.53628">
        <ele>280.4</ele>
        <time>2024-04-07T09:26:08Z</time>
      </trkpt>
      <trkpt lat="48.88425" lon="-0.53621">
        <ele>280.4</ele>
        <time>2024-04-07T09:26:09Z</time>
      </trkpt>
      <trkpt lat="48.88426" lon="-0.53614">
        <ele>280.6</ele>
        <time>2024-04-07T09:26:10Z</time>
      </trkpt>
      <trkpt lat="48.88426" lon="-0.53605">
        <ele>280.6</ele>
        <time>2024-04-07T09:26:11Z</time>
      </trkpt>
      <trkpt lat="48.88426" lon="-0.53598">
        <ele>280.8</ele>
        <time>2024-04-07T09:26:12Z</time>
      </trkpt>
      <trkpt lat="48.88424" lon="-0.53589">
        <ele>280.8</ele>
        <time>2024-04-07T09:26:13Z</time>
      </trkpt>
      <trkpt lat="48.88423" lon="-0.53581">
        <ele>281</ele>
        <time>2024-04-07T09:26:14Z</time>
      </trkpt>
      <trkpt lat="48.88422" lon="-0.53572">
        <ele>281</ele>
        <time>2024-04-07T09:26:15Z</time>
      </trkpt>
      <trkpt lat="48.88422" lon="-0.53564">
        <ele>281</ele>
        <time>2024-04-07T09:26:16Z</time>
      </trkpt>
      <trkpt lat="48.88421" lon="-0.53555">
        <ele>281.2</ele>
        <time>2024-04-07T09:26:17Z</time>
      </trkpt>
      <trkpt lat="48.88422" lon="-0.53546">
        <ele>281.2</ele>
        <time>2024-04-07T09:26:18Z</time>
      </trkpt>
      <trkpt lat="48.88423" lon="-0.53536">
        <ele>281.2</ele>
        <time>2024-04-07T09:26:19Z</time>
      </trkpt>
      <trkpt lat="48.88424" lon="-0.53527">
        <ele>281.2</ele>
        <time>2024-04-07T09:26:20Z</time>
      </trkpt>
      <trkpt lat="48.88426" lon="-0.53517">
        <ele>281.2</ele>
        <time>2024-04-07T09:26:21Z</time>
      </trkpt>
      <trkpt lat="48.88428" lon="-0.53508">
        <ele>281</ele>
        <time>2024-04-07T09:26:22Z</time>
      </trkpt>
      <trkpt lat="48.8843" lon="-0.53499">
        <ele>281</ele>
        <time>2024-04-07T09:26:23Z</time>
      </trkpt>
      <trkpt lat="48.88432" lon="-0.5349">
        <ele>281</ele>
        <time>2024-04-07T09:26:24Z</time>
      </trkpt>
      <trkpt lat="48.88434" lon="-0.5348">
        <ele>281</ele>
        <time>2024-04-07T09:26:25Z</time>
      </trkpt>
      <trkpt lat="48.88436" lon="-0.53471">
        <ele>281.2</ele>
        <time>2024-04-07T09:26:26Z</time>
      </trkpt>
      <trkpt lat="48.88438" lon="-0.53462">
        <ele>281.4</ele>
        <time>2024-04-07T09:26:27Z</time>
      </trkpt>
      <trkpt lat="48.88441" lon="-0.53454">
        <ele>281.4</ele>
        <time>2024-04-07T09:26:28Z</time>
      </trkpt>
      <trkpt lat="48.88444" lon="-0.53445">
        <ele>281.6</ele>
        <time>2024-04-07T09:26:29Z</time>
      </trkpt>
      <trkpt lat="48.88447" lon="-0.53436">
        <ele>281.6</ele>
        <time>2024-04-07T09:26:30Z</time>
      </trkpt>
      <trkpt lat="48.88451" lon="-0.53427">
        <ele>281.8</ele>
        <time>2024-04-07T09:26:31Z</time>
      </trkpt>
      <trkpt lat="48.88454" lon="-0.53419">
        <ele>281.8</ele>
        <time>2024-04-07T09:26:32Z</time>
      </trkpt>
      <trkpt lat="48.88457" lon="-0.5341">
        <ele>281.8</ele>
        <time>2024-04-07T09:26:33Z</time>
      </trkpt>
      <trkpt lat="48.88461" lon="-0.53402">
        <ele>281.8</ele>
        <time>2024-04-07T09:26:34Z</time>
      </trkpt>
      <trkpt lat="48.88464" lon="-0.53393">
        <ele>281.8</ele>
        <time>2024-04-07T09:26:35Z</time>
      </trkpt>
      <trkpt lat="48.88467" lon="-0.53384">
        <ele>281.8</ele>
        <time>2024-04-07T09:26:36Z</time>
      </trkpt>
      <trkpt lat="48.8847" lon="-0.53376">
        <ele>281.8</ele>
        <time>2024-04-07T09:26:37Z</time>
      </trkpt>
      <trkpt lat="48.88473" lon="-0.53367">
        <ele>281.8</ele>
        <time>2024-04-07T09:26:38Z</time>
      </trkpt>
      <trkpt lat="48.88477" lon="-0.53358">
        <ele>282</ele>
        <time>2024-04-07T09:26:39Z</time>
      </trkpt>
      <trkpt lat="48.8848" lon="-0.5335">
        <ele>282</ele>
        <time>2024-04-07T09:26:40Z</time>
      </trkpt>
      <trkpt lat="48.88483" lon="-0.53341">
        <ele>282.2</ele>
        <time>2024-04-07T09:26:41Z</time>
      </trkpt>
      <trkpt lat="48.88486" lon="-0.53332">
        <ele>282.2</ele>
        <time>2024-04-07T09:26:42Z</time>
      </trkpt>
      <trkpt lat="48.88489" lon="-0.53322">
        <ele>282.2</ele>
        <time>2024-04-07T09:26:43Z</time>
      </trkpt>
      <trkpt lat="48.88491" lon="-0.53313">
        <ele>282.2</ele>
        <time>2024-04-07T09:26:44Z</time>
      </trkpt>
      <trkpt lat="48.88495" lon="-0.53304">
        <ele>282</ele>
        <time>2024-04-07T09:26:45Z</time>
      </trkpt>
      <trkpt lat="48.88498" lon="-0.53295">
        <ele>282</ele>
        <time>2024-04-07T09:26:46Z</time>
      </trkpt>
      <trkpt lat="48.88501" lon="-0.53286">
        <ele>282</ele>
        <time>2024-04-07T09:26:47Z</time>
      </trkpt>
      <trkpt lat="48.88504" lon="-0.53277">
        <ele>282</ele>
        <time>2024-04-07T09:26:48Z</time>
      </trkpt>
      <trkpt lat="48.88508" lon="-0.53267">
        <ele>282.2</ele>
        <time>2024-04-07T09:26:49Z</time>
      </trkpt>
      <trkpt lat="48.88508" lon="-0.53267">
        <ele>282.2</ele>
        <time>2024-04-07T09:26:50Z</time>
      </trkpt>
      <trkpt lat="48.88515" lon="-0.53248">
        <ele>282.2</ele>
        <time>2024-04-07T09:26:51Z</time>
      </trkpt>
      <trkpt lat="48.88518" lon="-0.53238">
        <ele>282.2</ele>
        <time>2024-04-07T09:26:52Z</time>
      </trkpt>
      <trkpt lat="48.88522" lon="-0.53227">
        <ele>282</ele>
        <time>2024-04-07T09:26:53Z</time>
      </trkpt>
      <trkpt lat="48.88524" lon="-0.53218">
        <ele>281.4</ele>
        <time>2024-04-07T09:26:54Z</time>
      </trkpt>
      <trkpt lat="48.88527" lon="-0.53208">
        <ele>280.6</ele>
        <time>2024-04-07T09:26:55Z</time>
      </trkpt>
      <trkpt lat="48.88532" lon="-0.5319">
        <ele>279.6</ele>
        <time>2024-04-07T09:26:56Z</time>
      </trkpt>
      <trkpt lat="48.88535" lon="-0.53177">
        <ele>278.8</ele>
        <time>2024-04-07T09:26:57Z</time>
      </trkpt>
      <trkpt lat="48.88538" lon="-0.53163">
        <ele>278</ele>
        <time>2024-04-07T09:26:58Z</time>
      </trkpt>
      <trkpt lat="48.88541" lon="-0.53148">
        <ele>277.2</ele>
        <time>2024-04-07T09:26:59Z</time>
      </trkpt>
      <trkpt lat="48.88543" lon="-0.53133">
        <ele>276.4</ele>
        <time>2024-04-07T09:27:00Z</time>
      </trkpt>
      <trkpt lat="48.88544" lon="-0.53118">
        <ele>275.8</ele>
        <time>2024-04-07T09:27:01Z</time>
      </trkpt>
      <trkpt lat="48.88544" lon="-0.53104">
        <ele>275.4</ele>
        <time>2024-04-07T09:27:02Z</time>
      </trkpt>
      <trkpt lat="48.88543" lon="-0.5309">
        <ele>275.2</ele>
        <time>2024-04-07T09:27:03Z</time>
      </trkpt>
      <trkpt lat="48.88543" lon="-0.5309">
        <ele>275.2</ele>
        <time>2024-04-07T09:27:04Z</time>
      </trkpt>
      <trkpt lat="48.88541" lon="-0.53065">
        <ele>275.2</ele>
        <time>2024-04-07T09:27:05Z</time>
      </trkpt>
      <trkpt lat="48.8854" lon="-0.53059">
        <ele>275.4</ele>
        <time>2024-04-07T09:27:06Z</time>
      </trkpt>
      <trkpt lat="48.8854" lon="-0.53053">
        <ele>275.4</ele>
        <time>2024-04-07T09:27:07Z</time>
      </trkpt>
      <trkpt lat="48.88538" lon="-0.53032">
        <ele>276</ele>
        <time>2024-04-07T09:27:08Z</time>
      </trkpt>
      <trkpt lat="48.88538" lon="-0.53021">
        <ele>276.6</ele>
        <time>2024-04-07T09:27:09Z</time>
      </trkpt>
      <trkpt lat="48.88537" lon="-0.5301">
        <ele>277.2</ele>
        <time>2024-04-07T09:27:10Z</time>
      </trkpt>
      <trkpt lat="48.88536" lon="-0.53">
        <ele>278</ele>
        <time>2024-04-07T09:27:11Z</time>
      </trkpt>
      <trkpt lat="48.88535" lon="-0.52991">
        <ele>278.8</ele>
        <time>2024-04-07T09:27:12Z</time>
      </trkpt>
      <trkpt lat="48.88535" lon="-0.52984">
        <ele>279.4</ele>
        <time>2024-04-07T09:27:13Z</time>
      </trkpt>
      <trkpt lat="48.88534" lon="-0.52977">
        <ele>280</ele>
        <time>2024-04-07T09:27:14Z</time>
      </trkpt>
      <trkpt lat="48.88534" lon="-0.52964">
        <ele>280.6</ele>
        <time>2024-04-07T09:27:15Z</time>
      </trkpt>
      <trkpt lat="48.88533" lon="-0.52956">
        <ele>281</ele>
        <time>2024-04-07T09:27:16Z</time>
      </trkpt>
      <trkpt lat="48.88533" lon="-0.52952">
        <ele>281.2</ele>
        <time>2024-04-07T09:27:17Z</time>
      </trkpt>
      <trkpt lat="48.88533" lon="-0.52948">
        <ele>281.4</ele>
        <time>2024-04-07T09:27:18Z</time>
      </trkpt>
      <trkpt lat="48.88533" lon="-0.52935">
        <ele>281.6</ele>
        <time>2024-04-07T09:27:19Z</time>
      </trkpt>
      <trkpt lat="48.88533" lon="-0.52929">
        <ele>282</ele>
        <time>2024-04-07T09:27:20Z</time>
      </trkpt>
      <trkpt lat="48.88533" lon="-0.52917">
        <ele>282.6</ele>
        <time>2024-04-07T09:27:21Z</time>
      </trkpt>
      <trkpt lat="48.88533" lon="-0.5291">
        <ele>283.4</ele>
        <time>2024-04-07T09:27:22Z</time>
      </trkpt>
      <trkpt lat="48.88533" lon="-0.52902">
        <ele>284.2</ele>
        <time>2024-04-07T09:27:23Z</time>
      </trkpt>
      <trkpt lat="48.88533" lon="-0.52895">
        <ele>284.6</ele>
        <time>2024-04-07T09:27:24Z</time>
      </trkpt>
      <trkpt lat="48.88533" lon="-0.52887">
        <ele>285</ele>
        <time>2024-04-07T09:27:25Z</time>
      </trkpt>
      <trkpt lat="48.88533" lon="-0.5288">
        <ele>285.4</ele>
        <time>2024-04-07T09:27:26Z</time>
      </trkpt>
      <trkpt lat="48.88533" lon="-0.52873">
        <ele>285.6</ele>
        <time>2024-04-07T09:27:27Z</time>
      </trkpt>
      <trkpt lat="48.88533" lon="-0.52867">
        <ele>285.8</ele>
        <time>2024-04-07T09:27:28Z</time>
      </trkpt>
      <trkpt lat="48.88534" lon="-0.52861">
        <ele>286</ele>
        <time>2024-04-07T09:27:29Z</time>
      </trkpt>
      <trkpt lat="48.88534" lon="-0.5285">
        <ele>286.4</ele>
        <time>2024-04-07T09:27:30Z</time>
      </trkpt>
      <trkpt lat="48.88535" lon="-0.52843">
        <ele>286.6</ele>
        <time>2024-04-07T09:27:31Z</time>
      </trkpt>
      <trkpt lat="48.88535" lon="-0.52835">
        <ele>287.2</ele>
        <time>2024-04-07T09:27:32Z</time>
      </trkpt>
      <trkpt lat="48.88536" lon="-0.52828">
        <ele>287.6</ele>
        <time>2024-04-07T09:27:33Z</time>
      </trkpt>
      <trkpt lat="48.88537" lon="-0.5282">
        <ele>288</ele>
        <time>2024-04-07T09:27:34Z</time>
      </trkpt>
      <trkpt lat="48.88538" lon="-0.52812">
        <ele>288.4</ele>
        <time>2024-04-07T09:27:35Z</time>
      </trkpt>
      <trkpt lat="48.88538" lon="-0.52812">
        <ele>288.6</ele>
        <time>2024-04-07T09:27:36Z</time>
      </trkpt>
      <trkpt lat="48.8854" lon="-0.52794">
        <ele>288.6</ele>
        <time>2024-04-07T09:27:37Z</time>
      </trkpt>
      <trkpt lat="48.88542" lon="-0.52785">
        <ele>288.6</ele>
        <time>2024-04-07T09:27:38Z</time>
      </trkpt>
      <trkpt lat="48.88543" lon="-0.52781">
        <ele>288.6</ele>
        <time>2024-04-07T09:27:39Z</time>
      </trkpt>
      <trkpt lat="48.88544" lon="-0.52776">
        <ele>288.6</ele>
        <time>2024-04-07T09:27:40Z</time>
      </trkpt>
      <trkpt lat="48.88546" lon="-0.52767">
        <ele>288.6</ele>
        <time>2024-04-07T09:27:41Z</time>
      </trkpt>
      <trkpt lat="48.88549" lon="-0.52748">
        <ele>288.8</ele>
        <time>2024-04-07T09:27:42Z</time>
      </trkpt>
      <trkpt lat="48.88549" lon="-0.52748">
        <ele>288.8</ele>
        <time>2024-04-07T09:27:43Z</time>
      </trkpt>
      <trkpt lat="48.88551" lon="-0.52738">
        <ele>288.8</ele>
        <time>2024-04-07T09:27:44Z</time>
      </trkpt>
      <trkpt lat="48.88554" lon="-0.52721">
        <ele>289</ele>
        <time>2024-04-07T09:27:45Z</time>
      </trkpt>
      <trkpt lat="48.88555" lon="-0.52714">
        <ele>289</ele>
        <time>2024-04-07T09:27:46Z</time>
      </trkpt>
      <trkpt lat="48.88557" lon="-0.52699">
        <ele>289</ele>
        <time>2024-04-07T09:27:47Z</time>
      </trkpt>
      <trkpt lat="48.88558" lon="-0.52694">
        <ele>289.2</ele>
        <time>2024-04-07T09:27:48Z</time>
      </trkpt>
      <trkpt lat="48.88558" lon="-0.52689">
        <ele>289.2</ele>
        <time>2024-04-07T09:27:49Z</time>
      </trkpt>
      <trkpt lat="48.8856" lon="-0.52679">
        <ele>289.4</ele>
        <time>2024-04-07T09:27:50Z</time>
      </trkpt>
      <trkpt lat="48.88563" lon="-0.52659">
        <ele>289.4</ele>
        <time>2024-04-07T09:27:51Z</time>
      </trkpt>
      <trkpt lat="48.88564" lon="-0.5265">
        <ele>289.4</ele>
        <time>2024-04-07T09:27:52Z</time>
      </trkpt>
      <trkpt lat="48.88565" lon="-0.5264">
        <ele>289.4</ele>
        <time>2024-04-07T09:27:53Z</time>
      </trkpt>
      <trkpt lat="48.88567" lon="-0.5263">
        <ele>289.4</ele>
        <time>2024-04-07T09:27:54Z</time>
      </trkpt>
      <trkpt lat="48.88568" lon="-0.52621">
        <ele>289.2</ele>
        <time>2024-04-07T09:27:55Z</time>
      </trkpt>
      <trkpt lat="48.88568" lon="-0.52611">
        <ele>289.2</ele>
        <time>2024-04-07T09:27:56Z</time>
      </trkpt>
      <trkpt lat="48.88569" lon="-0.526">
        <ele>289</ele>
        <time>2024-04-07T09:27:57Z</time>
      </trkpt>
      <trkpt lat="48.88569" lon="-0.5259">
        <ele>288.8</ele>
        <time>2024-04-07T09:27:58Z</time>
      </trkpt>
      <trkpt lat="48.88569" lon="-0.5258">
        <ele>288.6</ele>
        <time>2024-04-07T09:27:59Z</time>
      </trkpt>
      <trkpt lat="48.88569" lon="-0.52572">
        <ele>288.4</ele>
        <time>2024-04-07T09:28:00Z</time>
      </trkpt>
      <trkpt lat="48.88569" lon="-0.52564">
        <ele>288.4</ele>
        <time>2024-04-07T09:28:01Z</time>
      </trkpt>
      <trkpt lat="48.88569" lon="-0.52548">
        <ele>288.2</ele>
        <time>2024-04-07T09:28:02Z</time>
      </trkpt>
      <trkpt lat="48.88569" lon="-0.52538">
        <ele>288.2</ele>
        <time>2024-04-07T09:28:03Z</time>
      </trkpt>
      <trkpt lat="48.88569" lon="-0.52538">
        <ele>288</ele>
        <time>2024-04-07T09:28:04Z</time>
      </trkpt>
      <trkpt lat="48.88568" lon="-0.52515">
        <ele>288</ele>
        <time>2024-04-07T09:28:05Z</time>
      </trkpt>
      <trkpt lat="48.88568" lon="-0.52504">
        <ele>288</ele>
        <time>2024-04-07T09:28:06Z</time>
      </trkpt>
      <trkpt lat="48.88567" lon="-0.52492">
        <ele>288</ele>
        <time>2024-04-07T09:28:07Z</time>
      </trkpt>
      <trkpt lat="48.88567" lon="-0.52481">
        <ele>287.8</ele>
        <time>2024-04-07T09:28:08Z</time>
      </trkpt>
      <trkpt lat="48.88567" lon="-0.5247">
        <ele>287.8</ele>
        <time>2024-04-07T09:28:09Z</time>
      </trkpt>
      <trkpt lat="48.88566" lon="-0.52458">
        <ele>287.8</ele>
        <time>2024-04-07T09:28:10Z</time>
      </trkpt>
      <trkpt lat="48.88566" lon="-0.52449">
        <ele>287.6</ele>
        <time>2024-04-07T09:28:11Z</time>
      </trkpt>
      <trkpt lat="48.88566" lon="-0.52441">
        <ele>287.6</ele>
        <time>2024-04-07T09:28:12Z</time>
      </trkpt>
      <trkpt lat="48.88566" lon="-0.52423">
        <ele>287.6</ele>
        <time>2024-04-07T09:28:13Z</time>
      </trkpt>
      <trkpt lat="48.88565" lon="-0.52412">
        <ele>287.6</ele>
        <time>2024-04-07T09:28:14Z</time>
      </trkpt>
      <trkpt lat="48.88565" lon="-0.524">
        <ele>287.4</ele>
        <time>2024-04-07T09:28:15Z</time>
      </trkpt>
      <trkpt lat="48.88566" lon="-0.52388">
        <ele>287.4</ele>
        <time>2024-04-07T09:28:16Z</time>
      </trkpt>
      <trkpt lat="48.88567" lon="-0.52377">
        <ele>287.4</ele>
        <time>2024-04-07T09:28:17Z</time>
      </trkpt>
      <trkpt lat="48.88568" lon="-0.52366">
        <ele>287.4</ele>
        <time>2024-04-07T09:28:18Z</time>
      </trkpt>
      <trkpt lat="48.88569" lon="-0.52361">
        <ele>287.6</ele>
        <time>2024-04-07T09:28:19Z</time>
      </trkpt>
      <trkpt lat="48.8857" lon="-0.52355">
        <ele>288</ele>
        <time>2024-04-07T09:28:20Z</time>
      </trkpt>
      <trkpt lat="48.88573" lon="-0.52345">
        <ele>288.2</ele>
        <time>2024-04-07T09:28:21Z</time>
      </trkpt>
      <trkpt lat="48.88581" lon="-0.52327">
        <ele>288.4</ele>
        <time>2024-04-07T09:28:22Z</time>
      </trkpt>
      <trkpt lat="48.88585" lon="-0.52318">
        <ele>288.4</ele>
        <time>2024-04-07T09:28:23Z</time>
      </trkpt>
      <trkpt lat="48.88589" lon="-0.5231">
        <ele>288.4</ele>
        <time>2024-04-07T09:28:24Z</time>
      </trkpt>
      <trkpt lat="48.88594" lon="-0.52302">
        <ele>288.4</ele>
        <time>2024-04-07T09:28:25Z</time>
      </trkpt>
      <trkpt lat="48.88595" lon="-0.52298">
        <ele>288.2</ele>
        <time>2024-04-07T09:28:26Z</time>
      </trkpt>
      <trkpt lat="48.88597" lon="-0.52293">
        <ele>288.2</ele>
        <time>2024-04-07T09:28:27Z</time>
      </trkpt>
      <trkpt lat="48.886" lon="-0.52284">
        <ele>288.2</ele>
        <time>2024-04-07T09:28:28Z</time>
      </trkpt>
      <trkpt lat="48.88602" lon="-0.52275">
        <ele>288.4</ele>
        <time>2024-04-07T09:28:29Z</time>
      </trkpt>
      <trkpt lat="48.88604" lon="-0.52256">
        <ele>288.4</ele>
        <time>2024-04-07T09:28:30Z</time>
      </trkpt>
      <trkpt lat="48.88604" lon="-0.52251">
        <ele>288.6</ele>
        <time>2024-04-07T09:28:31Z</time>
      </trkpt>
      <trkpt lat="48.88604" lon="-0.52246">
        <ele>288.8</ele>
        <time>2024-04-07T09:28:32Z</time>
      </trkpt>
      <trkpt lat="48.88603" lon="-0.52231">
        <ele>288.8</ele>
        <time>2024-04-07T09:28:33Z</time>
      </trkpt>
      <trkpt lat="48.88603" lon="-0.52226">
        <ele>289.2</ele>
        <time>2024-04-07T09:28:34Z</time>
      </trkpt>
      <trkpt lat="48.88603" lon="-0.52216">
        <ele>289.2</ele>
        <time>2024-04-07T09:28:35Z</time>
      </trkpt>
      <trkpt lat="48.88602" lon="-0.52195">
        <ele>289.4</ele>
        <time>2024-04-07T09:28:36Z</time>
      </trkpt>
      <trkpt lat="48.88602" lon="-0.52187">
        <ele>289.4</ele>
        <time>2024-04-07T09:28:37Z</time>
      </trkpt>
      <trkpt lat="48.88601" lon="-0.52179">
        <ele>289.2</ele>
        <time>2024-04-07T09:28:38Z</time>
      </trkpt>
      <trkpt lat="48.88601" lon="-0.52163">
        <ele>289</ele>
        <time>2024-04-07T09:28:39Z</time>
      </trkpt>
      <trkpt lat="48.886" lon="-0.52151">
        <ele>288.6</ele>
        <time>2024-04-07T09:28:40Z</time>
      </trkpt>
      <trkpt lat="48.886" lon="-0.52142">
        <ele>288.2</ele>
        <time>2024-04-07T09:28:41Z</time>
      </trkpt>
      <trkpt lat="48.886" lon="-0.52134">
        <ele>287.8</ele>
        <time>2024-04-07T09:28:42Z</time>
      </trkpt>
      <trkpt lat="48.886" lon="-0.52116">
        <ele>287.4</ele>
        <time>2024-04-07T09:28:43Z</time>
      </trkpt>
      <trkpt lat="48.886" lon="-0.52104">
        <ele>287.2</ele>
        <time>2024-04-07T09:28:44Z</time>
      </trkpt>
      <trkpt lat="48.886" lon="-0.52104">
        <ele>286.8</ele>
        <time>2024-04-07T09:28:45Z</time>
      </trkpt>
      <trkpt lat="48.88601" lon="-0.52083">
        <ele>286.6</ele>
        <time>2024-04-07T09:28:46Z</time>
      </trkpt>
      <trkpt lat="48.88602" lon="-0.52074">
        <ele>286.2</ele>
        <time>2024-04-07T09:28:47Z</time>
      </trkpt>
      <trkpt lat="48.88603" lon="-0.52055">
        <ele>286</ele>
        <time>2024-04-07T09:28:48Z</time>
      </trkpt>
      <trkpt lat="48.88604" lon="-0.52043">
        <ele>285.8</ele>
        <time>2024-04-07T09:28:49Z</time>
      </trkpt>
      <trkpt lat="48.88605" lon="-0.5203">
        <ele>285.6</ele>
        <time>2024-04-07T09:28:50Z</time>
      </trkpt>
      <trkpt lat="48.88607" lon="-0.52017">
        <ele>285.4</ele>
        <time>2024-04-07T09:28:51Z</time>
      </trkpt>
      <trkpt lat="48.88608" lon="-0.52005">
        <ele>285.2</ele>
        <time>2024-04-07T09:28:52Z</time>
      </trkpt>
      <trkpt lat="48.88609" lon="-0.51992">
        <ele>285</ele>
        <time>2024-04-07T09:28:53Z</time>
      </trkpt>
      <trkpt lat="48.8861" lon="-0.51979">
        <ele>284.4</ele>
        <time>2024-04-07T09:28:54Z</time>
      </trkpt>
      <trkpt lat="48.88612" lon="-0.51967">
        <ele>284.2</ele>
        <time>2024-04-07T09:28:55Z</time>
      </trkpt>
      <trkpt lat="48.88613" lon="-0.51954">
        <ele>284</ele>
        <time>2024-04-07T09:28:56Z</time>
      </trkpt>
      <trkpt lat="48.88614" lon="-0.51942">
        <ele>284</ele>
        <time>2024-04-07T09:28:57Z</time>
      </trkpt>
      <trkpt lat="48.88615" lon="-0.51929">
        <ele>284</ele>
        <time>2024-04-07T09:28:58Z</time>
      </trkpt>
      <trkpt lat="48.88616" lon="-0.51916">
        <ele>284.2</ele>
        <time>2024-04-07T09:28:59Z</time>
      </trkpt>
      <trkpt lat="48.88618" lon="-0.51905">
        <ele>284.6</ele>
        <time>2024-04-07T09:29:00Z</time>
      </trkpt>
      <trkpt lat="48.8862" lon="-0.51893">
        <ele>284.6</ele>
        <time>2024-04-07T09:29:01Z</time>
      </trkpt>
      <trkpt lat="48.88622" lon="-0.51881">
        <ele>284.8</ele>
        <time>2024-04-07T09:29:02Z</time>
      </trkpt>
      <trkpt lat="48.88624" lon="-0.51869">
        <ele>284.8</ele>
        <time>2024-04-07T09:29:03Z</time>
      </trkpt>
      <trkpt lat="48.88626" lon="-0.51857">
        <ele>284.8</ele>
        <time>2024-04-07T09:29:04Z</time>
      </trkpt>
      <trkpt lat="48.88628" lon="-0.51846">
        <ele>285</ele>
        <time>2024-04-07T09:29:05Z</time>
      </trkpt>
      <trkpt lat="48.88631" lon="-0.51834">
        <ele>285.2</ele>
        <time>2024-04-07T09:29:06Z</time>
      </trkpt>
      <trkpt lat="48.88633" lon="-0.51822">
        <ele>285.2</ele>
        <time>2024-04-07T09:29:07Z</time>
      </trkpt>
      <trkpt lat="48.88636" lon="-0.51811">
        <ele>285.2</ele>
        <time>2024-04-07T09:29:08Z</time>
      </trkpt>
      <trkpt lat="48.88638" lon="-0.518">
        <ele>285.4</ele>
        <time>2024-04-07T09:29:09Z</time>
      </trkpt>
      <trkpt lat="48.8864" lon="-0.51788">
        <ele>285.4</ele>
        <time>2024-04-07T09:29:10Z</time>
      </trkpt>
      <trkpt lat="48.88642" lon="-0.51777">
        <ele>285.6</ele>
        <time>2024-04-07T09:29:11Z</time>
      </trkpt>
      <trkpt lat="48.88644" lon="-0.51769">
        <ele>285.6</ele>
        <time>2024-04-07T09:29:12Z</time>
      </trkpt>
      <trkpt lat="48.88645" lon="-0.51761">
        <ele>285.8</ele>
        <time>2024-04-07T09:29:13Z</time>
      </trkpt>
      <trkpt lat="48.88648" lon="-0.51744">
        <ele>285.8</ele>
        <time>2024-04-07T09:29:14Z</time>
      </trkpt>
      <trkpt lat="48.88649" lon="-0.51734">
        <ele>286</ele>
        <time>2024-04-07T09:29:15Z</time>
      </trkpt>
      <trkpt lat="48.88651" lon="-0.51723">
        <ele>286</ele>
        <time>2024-04-07T09:29:16Z</time>
      </trkpt>
      <trkpt lat="48.88652" lon="-0.51717">
        <ele>286.2</ele>
        <time>2024-04-07T09:29:17Z</time>
      </trkpt>
      <trkpt lat="48.88652" lon="-0.51711">
        <ele>286.2</ele>
        <time>2024-04-07T09:29:18Z</time>
      </trkpt>
      <trkpt lat="48.88655" lon="-0.51689">
        <ele>286.2</ele>
        <time>2024-04-07T09:29:19Z</time>
      </trkpt>
      <trkpt lat="48.88657" lon="-0.51678">
        <ele>286.2</ele>
        <time>2024-04-07T09:29:20Z</time>
      </trkpt>
      <trkpt lat="48.88658" lon="-0.51667">
        <ele>286.4</ele>
        <time>2024-04-07T09:29:21Z</time>
      </trkpt>
      <trkpt lat="48.88659" lon="-0.51662">
        <ele>286.4</ele>
        <time>2024-04-07T09:29:22Z</time>
      </trkpt>
      <trkpt lat="48.8866" lon="-0.51656">
        <ele>286.6</ele>
        <time>2024-04-07T09:29:23Z</time>
      </trkpt>
      <trkpt lat="48.88662" lon="-0.51637">
        <ele>286.8</ele>
        <time>2024-04-07T09:29:24Z</time>
      </trkpt>
      <trkpt lat="48.88663" lon="-0.51629">
        <ele>287</ele>
        <time>2024-04-07T09:29:25Z</time>
      </trkpt>
      <trkpt lat="48.88665" lon="-0.51613">
        <ele>287</ele>
        <time>2024-04-07T09:29:26Z</time>
      </trkpt>
      <trkpt lat="48.88666" lon="-0.51607">
        <ele>287.2</ele>
        <time>2024-04-07T09:29:27Z</time>
      </trkpt>
      <trkpt lat="48.88667" lon="-0.51602">
        <ele>287.2</ele>
        <time>2024-04-07T09:29:28Z</time>
      </trkpt>
      <trkpt lat="48.88668" lon="-0.51591">
        <ele>287.2</ele>
        <time>2024-04-07T09:29:29Z</time>
      </trkpt>
      <trkpt lat="48.8867" lon="-0.5158">
        <ele>287.2</ele>
        <time>2024-04-07T09:29:30Z</time>
      </trkpt>
      <trkpt lat="48.88672" lon="-0.51569">
        <ele>287.2</ele>
        <time>2024-04-07T09:29:31Z</time>
      </trkpt>
      <trkpt lat="48.88673" lon="-0.51558">
        <ele>287.2</ele>
        <time>2024-04-07T09:29:32Z</time>
      </trkpt>
      <trkpt lat="48.88676" lon="-0.51536">
        <ele>287.4</ele>
        <time>2024-04-07T09:29:33Z</time>
      </trkpt>
      <trkpt lat="48.88678" lon="-0.51525">
        <ele>287.4</ele>
        <time>2024-04-07T09:29:34Z</time>
      </trkpt>
      <trkpt lat="48.8868" lon="-0.51514">
        <ele>287.6</ele>
        <time>2024-04-07T09:29:35Z</time>
      </trkpt>
      <trkpt lat="48.88682" lon="-0.51504">
        <ele>287.8</ele>
        <time>2024-04-07T09:29:36Z</time>
      </trkpt>
      <trkpt lat="48.88684" lon="-0.51493">
        <ele>288</ele>
        <time>2024-04-07T09:29:37Z</time>
      </trkpt>
      <trkpt lat="48.88686" lon="-0.51482">
        <ele>288</ele>
        <time>2024-04-07T09:29:38Z</time>
      </trkpt>
      <trkpt lat="48.88688" lon="-0.51472">
        <ele>288.4</ele>
        <time>2024-04-07T09:29:39Z</time>
      </trkpt>
      <trkpt lat="48.8869" lon="-0.51464">
        <ele>288.8</ele>
        <time>2024-04-07T09:29:40Z</time>
      </trkpt>
      <trkpt lat="48.88692" lon="-0.51456">
        <ele>289.6</ele>
        <time>2024-04-07T09:29:41Z</time>
      </trkpt>
      <trkpt lat="48.88696" lon="-0.5144">
        <ele>290</ele>
        <time>2024-04-07T09:29:42Z</time>
      </trkpt>
      <trkpt lat="48.88696" lon="-0.5144">
        <ele>290.2</ele>
        <time>2024-04-07T09:29:43Z</time>
      </trkpt>
      <trkpt lat="48.88701" lon="-0.51419">
        <ele>290.4</ele>
        <time>2024-04-07T09:29:44Z</time>
      </trkpt>
      <trkpt lat="48.88703" lon="-0.51408">
        <ele>290.2</ele>
        <time>2024-04-07T09:29:45Z</time>
      </trkpt>
      <trkpt lat="48.88706" lon="-0.51398">
        <ele>290</ele>
        <time>2024-04-07T09:29:46Z</time>
      </trkpt>
      <trkpt lat="48.88708" lon="-0.51388">
        <ele>289.6</ele>
        <time>2024-04-07T09:29:47Z</time>
      </trkpt>
      <trkpt lat="48.88711" lon="-0.51378">
        <ele>289.6</ele>
        <time>2024-04-07T09:29:48Z</time>
      </trkpt>
      <trkpt lat="48.88713" lon="-0.51367">
        <ele>289.4</ele>
        <time>2024-04-07T09:29:49Z</time>
      </trkpt>
      <trkpt lat="48.88714" lon="-0.51356">
        <ele>289.4</ele>
        <time>2024-04-07T09:29:50Z</time>
      </trkpt>
      <trkpt lat="48.88715" lon="-0.51348">
        <ele>289.4</ele>
        <time>2024-04-07T09:29:51Z</time>
      </trkpt>
      <trkpt lat="48.88716" lon="-0.5134">
        <ele>289.2</ele>
        <time>2024-04-07T09:29:52Z</time>
      </trkpt>
      <trkpt lat="48.88717" lon="-0.51323">
        <ele>289.2</ele>
        <time>2024-04-07T09:29:53Z</time>
      </trkpt>
      <trkpt lat="48.88717" lon="-0.51312">
        <ele>289</ele>
        <time>2024-04-07T09:29:54Z</time>
      </trkpt>
      <trkpt lat="48.88717" lon="-0.51301">
        <ele>289</ele>
        <time>2024-04-07T09:29:55Z</time>
      </trkpt>
      <trkpt lat="48.88717" lon="-0.51289">
        <ele>289</ele>
        <time>2024-04-07T09:29:56Z</time>
      </trkpt>
      <trkpt lat="48.88717" lon="-0.51278">
        <ele>288.8</ele>
        <time>2024-04-07T09:29:57Z</time>
      </trkpt>
      <trkpt lat="48.88717" lon="-0.51267">
        <ele>288.8</ele>
        <time>2024-04-07T09:29:58Z</time>
      </trkpt>
      <trkpt lat="48.88716" lon="-0.51259">
        <ele>288.8</ele>
        <time>2024-04-07T09:29:59Z</time>
      </trkpt>
      <trkpt lat="48.88715" lon="-0.51251">
        <ele>288.8</ele>
        <time>2024-04-07T09:30:00Z</time>
      </trkpt>
      <trkpt lat="48.88714" lon="-0.51234">
        <ele>288.6</ele>
        <time>2024-04-07T09:30:01Z</time>
      </trkpt>
      <trkpt lat="48.88713" lon="-0.51223">
        <ele>288.4</ele>
        <time>2024-04-07T09:30:02Z</time>
      </trkpt>
      <trkpt lat="48.88712" lon="-0.51215">
        <ele>288.2</ele>
        <time>2024-04-07T09:30:03Z</time>
      </trkpt>
      <trkpt lat="48.88712" lon="-0.51206">
        <ele>288</ele>
        <time>2024-04-07T09:30:04Z</time>
      </trkpt>
      <trkpt lat="48.88711" lon="-0.51189">
        <ele>287.8</ele>
        <time>2024-04-07T09:30:05Z</time>
      </trkpt>
      <trkpt lat="48.8871" lon="-0.51183">
        <ele>287.4</ele>
        <time>2024-04-07T09:30:06Z</time>
      </trkpt>
      <trkpt lat="48.88709" lon="-0.51177">
        <ele>287</ele>
        <time>2024-04-07T09:30:07Z</time>
      </trkpt>
      <trkpt lat="48.88708" lon="-0.51165">
        <ele>286.8</ele>
        <time>2024-04-07T09:30:08Z</time>
      </trkpt>
      <trkpt lat="48.88701" lon="-0.51143">
        <ele>286.6</ele>
        <time>2024-04-07T09:30:09Z</time>
      </trkpt>
      <trkpt lat="48.88698" lon="-0.51133">
        <ele>286.4</ele>
        <time>2024-04-07T09:30:10Z</time>
      </trkpt>
      <trkpt lat="48.88696" lon="-0.51129">
        <ele>286.4</ele>
        <time>2024-04-07T09:30:11Z</time>
      </trkpt>
      <trkpt lat="48.88694" lon="-0.51124">
        <ele>286.4</ele>
        <time>2024-04-07T09:30:12Z</time>
      </trkpt>
      <trkpt lat="48.88685" lon="-0.51106">
        <ele>286.4</ele>
        <time>2024-04-07T09:30:13Z</time>
      </trkpt>
      <trkpt lat="48.8868" lon="-0.51098">
        <ele>286.8</ele>
        <time>2024-04-07T09:30:14Z</time>
      </trkpt>
      <trkpt lat="48.8868" lon="-0.51098">
        <ele>287</ele>
        <time>2024-04-07T09:30:15Z</time>
      </trkpt>
      <trkpt lat="48.88671" lon="-0.5108">
        <ele>287.2</ele>
        <time>2024-04-07T09:30:16Z</time>
      </trkpt>
      <trkpt lat="48.88667" lon="-0.51072">
        <ele>287.4</ele>
        <time>2024-04-07T09:30:17Z</time>
      </trkpt>
      <trkpt lat="48.88662" lon="-0.51063">
        <ele>287.6</ele>
        <time>2024-04-07T09:30:18Z</time>
      </trkpt>
      <trkpt lat="48.88658" lon="-0.51055">
        <ele>287.6</ele>
        <time>2024-04-07T09:30:19Z</time>
      </trkpt>
      <trkpt lat="48.88654" lon="-0.51046">
        <ele>287.6</ele>
        <time>2024-04-07T09:30:20Z</time>
      </trkpt>
      <trkpt lat="48.88651" lon="-0.5104">
        <ele>287.6</ele>
        <time>2024-04-07T09:30:21Z</time>
      </trkpt>
      <trkpt lat="48.88647" lon="-0.51033">
        <ele>287.6</ele>
        <time>2024-04-07T09:30:22Z</time>
      </trkpt>
      <trkpt lat="48.88641" lon="-0.5102">
        <ele>287.6</ele>
        <time>2024-04-07T09:30:23Z</time>
      </trkpt>
      <trkpt lat="48.88639" lon="-0.51016">
        <ele>287.6</ele>
        <time>2024-04-07T09:30:24Z</time>
      </trkpt>
      <trkpt lat="48.88637" lon="-0.51011">
        <ele>287.6</ele>
        <time>2024-04-07T09:30:25Z</time>
      </trkpt>
      <trkpt lat="48.88629" lon="-0.50993">
        <ele>287.6</ele>
        <time>2024-04-07T09:30:26Z</time>
      </trkpt>
      <trkpt lat="48.88627" lon="-0.50988">
        <ele>287.6</ele>
        <time>2024-04-07T09:30:27Z</time>
      </trkpt>
      <trkpt lat="48.88625" lon="-0.50983">
        <ele>287.6</ele>
        <time>2024-04-07T09:30:28Z</time>
      </trkpt>
      <trkpt lat="48.88621" lon="-0.50974">
        <ele>287.8</ele>
        <time>2024-04-07T09:30:29Z</time>
      </trkpt>
      <trkpt lat="48.88617" lon="-0.50964">
        <ele>287.8</ele>
        <time>2024-04-07T09:30:30Z</time>
      </trkpt>
      <trkpt lat="48.88613" lon="-0.50954">
        <ele>287.8</ele>
        <time>2024-04-07T09:30:31Z</time>
      </trkpt>
      <trkpt lat="48.88609" lon="-0.50944">
        <ele>287.6</ele>
        <time>2024-04-07T09:30:32Z</time>
      </trkpt>
      <trkpt lat="48.88605" lon="-0.50933">
        <ele>287.6</ele>
        <time>2024-04-07T09:30:33Z</time>
      </trkpt>
      <trkpt lat="48.88601" lon="-0.50923">
        <ele>287.4</ele>
        <time>2024-04-07T09:30:34Z</time>
      </trkpt>
      <trkpt lat="48.88597" lon="-0.50913">
        <ele>287.4</ele>
        <time>2024-04-07T09:30:35Z</time>
      </trkpt>
      <trkpt lat="48.88593" lon="-0.50902">
        <ele>287.2</ele>
        <time>2024-04-07T09:30:36Z</time>
      </trkpt>
      <trkpt lat="48.88589" lon="-0.50892">
        <ele>287.2</ele>
        <time>2024-04-07T09:30:37Z</time>
      </trkpt>
      <trkpt lat="48.88582" lon="-0.50876">
        <ele>287.2</ele>
        <time>2024-04-07T09:30:38Z</time>
      </trkpt>
      <trkpt lat="48.8858" lon="-0.5087">
        <ele>287</ele>
        <time>2024-04-07T09:30:39Z</time>
      </trkpt>
      <trkpt lat="48.88572" lon="-0.50849">
        <ele>287</ele>
        <time>2024-04-07T09:30:40Z</time>
      </trkpt>
      <trkpt lat="48.88568" lon="-0.50838">
        <ele>286.8</ele>
        <time>2024-04-07T09:30:41Z</time>
      </trkpt>
      <trkpt lat="48.88564" lon="-0.50827">
        <ele>286.4</ele>
        <time>2024-04-07T09:30:42Z</time>
      </trkpt>
      <trkpt lat="48.8856" lon="-0.50816">
        <ele>286</ele>
        <time>2024-04-07T09:30:43Z</time>
      </trkpt>
      <trkpt lat="48.88558" lon="-0.50807">
        <ele>285.8</ele>
        <time>2024-04-07T09:30:44Z</time>
      </trkpt>
      <trkpt lat="48.88556" lon="-0.50799">
        <ele>285.6</ele>
        <time>2024-04-07T09:30:45Z</time>
      </trkpt>
      <trkpt lat="48.88551" lon="-0.50782">
        <ele>285.4</ele>
        <time>2024-04-07T09:30:46Z</time>
      </trkpt>
      <trkpt lat="48.88549" lon="-0.5077">
        <ele>285.2</ele>
        <time>2024-04-07T09:30:47Z</time>
      </trkpt>
      <trkpt lat="48.88547" lon="-0.50761">
        <ele>285</ele>
        <time>2024-04-07T09:30:48Z</time>
      </trkpt>
      <trkpt lat="48.88545" lon="-0.50751">
        <ele>285</ele>
        <time>2024-04-07T09:30:49Z</time>
      </trkpt>
      <trkpt lat="48.88541" lon="-0.50733">
        <ele>284.8</ele>
        <time>2024-04-07T09:30:50Z</time>
      </trkpt>
      <trkpt lat="48.88539" lon="-0.50721">
        <ele>284.6</ele>
        <time>2024-04-07T09:30:51Z</time>
      </trkpt>
      <trkpt lat="48.88537" lon="-0.50709">
        <ele>284.4</ele>
        <time>2024-04-07T09:30:52Z</time>
      </trkpt>
      <trkpt lat="48.88534" lon="-0.50697">
        <ele>284.2</ele>
        <time>2024-04-07T09:30:53Z</time>
      </trkpt>
      <trkpt lat="48.88532" lon="-0.50684">
        <ele>283.6</ele>
        <time>2024-04-07T09:30:54Z</time>
      </trkpt>
      <trkpt lat="48.8853" lon="-0.50672">
        <ele>283.2</ele>
        <time>2024-04-07T09:30:55Z</time>
      </trkpt>
      <trkpt lat="48.88527" lon="-0.5066">
        <ele>282.8</ele>
        <time>2024-04-07T09:30:56Z</time>
      </trkpt>
      <trkpt lat="48.88526" lon="-0.50647">
        <ele>282.4</ele>
        <time>2024-04-07T09:30:57Z</time>
      </trkpt>
      <trkpt lat="48.88524" lon="-0.50634">
        <ele>282</ele>
        <time>2024-04-07T09:30:58Z</time>
      </trkpt>
      <trkpt lat="48.88523" lon="-0.50622">
        <ele>281.8</ele>
        <time>2024-04-07T09:30:59Z</time>
      </trkpt>
      <trkpt lat="48.88522" lon="-0.50609">
        <ele>281.4</ele>
        <time>2024-04-07T09:31:00Z</time>
      </trkpt>
      <trkpt lat="48.88521" lon="-0.50596">
        <ele>281</ele>
        <time>2024-04-07T09:31:01Z</time>
      </trkpt>
      <trkpt lat="48.88521" lon="-0.50589">
        <ele>280.8</ele>
        <time>2024-04-07T09:31:02Z</time>
      </trkpt>
      <trkpt lat="48.88521" lon="-0.50582">
        <ele>280.6</ele>
        <time>2024-04-07T09:31:03Z</time>
      </trkpt>
      <trkpt lat="48.88521" lon="-0.50553">
        <ele>280.4</ele>
        <time>2024-04-07T09:31:04Z</time>
      </trkpt>
      <trkpt lat="48.88521" lon="-0.50553">
        <ele>280.2</ele>
        <time>2024-04-07T09:31:05Z</time>
      </trkpt>
      <trkpt lat="48.88522" lon="-0.50526">
        <ele>280</ele>
        <time>2024-04-07T09:31:06Z</time>
      </trkpt>
      <trkpt lat="48.88523" lon="-0.5052">
        <ele>279.6</ele>
        <time>2024-04-07T09:31:07Z</time>
      </trkpt>
      <trkpt lat="48.88523" lon="-0.50513">
        <ele>279.4</ele>
        <time>2024-04-07T09:31:08Z</time>
      </trkpt>
      <trkpt lat="48.88523" lon="-0.50494">
        <ele>279.2</ele>
        <time>2024-04-07T09:31:09Z</time>
      </trkpt>
      <trkpt lat="48.88523" lon="-0.50488">
        <ele>279.2</ele>
        <time>2024-04-07T09:31:10Z</time>
      </trkpt>
      <trkpt lat="48.88524" lon="-0.5047">
        <ele>279.2</ele>
        <time>2024-04-07T09:31:11Z</time>
      </trkpt>
      <trkpt lat="48.88524" lon="-0.50464">
        <ele>279.2</ele>
        <time>2024-04-07T09:31:12Z</time>
      </trkpt>
      <trkpt lat="48.88525" lon="-0.50454">
        <ele>279.4</ele>
        <time>2024-04-07T09:31:13Z</time>
      </trkpt>
      <trkpt lat="48.88527" lon="-0.50444">
        <ele>279.6</ele>
        <time>2024-04-07T09:31:14Z</time>
      </trkpt>
      <trkpt lat="48.88529" lon="-0.50436">
        <ele>279.8</ele>
        <time>2024-04-07T09:31:15Z</time>
      </trkpt>
      <trkpt lat="48.8853" lon="-0.50428">
        <ele>280</ele>
        <time>2024-04-07T09:31:16Z</time>
      </trkpt>
      <trkpt lat="48.8853" lon="-0.5042">
        <ele>280</ele>
        <time>2024-04-07T09:31:17Z</time>
      </trkpt>
      <trkpt lat="48.88529" lon="-0.50413">
        <ele>280.2</ele>
        <time>2024-04-07T09:31:18Z</time>
      </trkpt>
      <trkpt lat="48.88528" lon="-0.50408">
        <ele>280.2</ele>
        <time>2024-04-07T09:31:19Z</time>
      </trkpt>
      <trkpt lat="48.88526" lon="-0.50402">
        <ele>280.4</ele>
        <time>2024-04-07T09:31:20Z</time>
      </trkpt>
      <trkpt lat="48.88524" lon="-0.50399">
        <ele>280.6</ele>
        <time>2024-04-07T09:31:21Z</time>
      </trkpt>
      <trkpt lat="48.88524" lon="-0.50399">
        <ele>280.6</ele>
        <time>2024-04-07T09:31:22Z</time>
      </trkpt>
      <trkpt lat="48.88522" lon="-0.50395">
        <ele>280.8</ele>
        <time>2024-04-07T09:31:23Z</time>
      </trkpt>
      <trkpt lat="48.8852" lon="-0.50384">
        <ele>280.8</ele>
        <time>2024-04-07T09:31:24Z</time>
      </trkpt>
      <trkpt lat="48.8852" lon="-0.50378">
        <ele>280.8</ele>
        <time>2024-04-07T09:31:25Z</time>
      </trkpt>
      <trkpt lat="48.88519" lon="-0.50371">
        <ele>280.8</ele>
        <time>2024-04-07T09:31:26Z</time>
      </trkpt>
      <trkpt lat="48.88519" lon="-0.50366">
        <ele>280.8</ele>
        <time>2024-04-07T09:31:27Z</time>
      </trkpt>
      <trkpt lat="48.88519" lon="-0.50361">
        <ele>281</ele>
        <time>2024-04-07T09:31:28Z</time>
      </trkpt>
      <trkpt lat="48.88519" lon="-0.50361">
        <ele>281.2</ele>
        <time>2024-04-07T09:31:29Z</time>
      </trkpt>
      <trkpt lat="48.88519" lon="-0.5035">
        <ele>281.2</ele>
        <time>2024-04-07T09:31:30Z</time>
      </trkpt>
      <trkpt lat="48.88519" lon="-0.50344">
        <ele>281.2</ele>
        <time>2024-04-07T09:31:31Z</time>
      </trkpt>
      <trkpt lat="48.88519" lon="-0.50344">
        <ele>281.2</ele>
        <time>2024-04-07T09:31:32Z</time>
      </trkpt>
      <trkpt lat="48.88518" lon="-0.50333">
        <ele>281.2</ele>
        <time>2024-04-07T09:31:33Z</time>
      </trkpt>
      <trkpt lat="48.88518" lon="-0.50327">
        <ele>281.2</ele>
        <time>2024-04-07T09:31:34Z</time>
      </trkpt>
      <trkpt lat="48.88519" lon="-0.50321">
        <ele>281</ele>
        <time>2024-04-07T09:31:35Z</time>
      </trkpt>
      <trkpt lat="48.88519" lon="-0.50315">
        <ele>281</ele>
        <time>2024-04-07T09:31:36Z</time>
      </trkpt>
      <trkpt lat="48.88519" lon="-0.50308">
        <ele>281</ele>
        <time>2024-04-07T09:31:37Z</time>
      </trkpt>
      <trkpt lat="48.88519" lon="-0.50302">
        <ele>281</ele>
        <time>2024-04-07T09:31:38Z</time>
      </trkpt>
      <trkpt lat="48.88519" lon="-0.50295">
        <ele>281</ele>
        <time>2024-04-07T09:31:39Z</time>
      </trkpt>
      <trkpt lat="48.88519" lon="-0.50287">
        <ele>281</ele>
        <time>2024-04-07T09:31:40Z</time>
      </trkpt>
      <trkpt lat="48.88519" lon="-0.5028">
        <ele>281</ele>
        <time>2024-04-07T09:31:41Z</time>
      </trkpt>
      <trkpt lat="48.88519" lon="-0.50272">
        <ele>281</ele>
        <time>2024-04-07T09:31:42Z</time>
      </trkpt>
      <trkpt lat="48.88519" lon="-0.50272">
        <ele>281</ele>
        <time>2024-04-07T09:31:43Z</time>
      </trkpt>
      <trkpt lat="48.88518" lon="-0.50257">
        <ele>281</ele>
        <time>2024-04-07T09:31:44Z</time>
      </trkpt>
      <trkpt lat="48.88517" lon="-0.50249">
        <ele>281</ele>
        <time>2024-04-07T09:31:45Z</time>
      </trkpt>
      <trkpt lat="48.88517" lon="-0.50245">
        <ele>281</ele>
        <time>2024-04-07T09:31:46Z</time>
      </trkpt>
      <trkpt lat="48.88517" lon="-0.5024">
        <ele>281</ele>
        <time>2024-04-07T09:31:47Z</time>
      </trkpt>
      <trkpt lat="48.88516" lon="-0.50232">
        <ele>281</ele>
        <time>2024-04-07T09:31:48Z</time>
      </trkpt>
      <trkpt lat="48.88516" lon="-0.50224">
        <ele>281</ele>
        <time>2024-04-07T09:31:49Z</time>
      </trkpt>
      <trkpt lat="48.88515" lon="-0.50206">
        <ele>281.2</ele>
        <time>2024-04-07T09:31:50Z</time>
      </trkpt>
      <trkpt lat="48.88515" lon="-0.50201">
        <ele>281.2</ele>
        <time>2024-04-07T09:31:51Z</time>
      </trkpt>
      <trkpt lat="48.88515" lon="-0.50197">
        <ele>281.4</ele>
        <time>2024-04-07T09:31:52Z</time>
      </trkpt>
      <trkpt lat="48.88515" lon="-0.50183">
        <ele>281.4</ele>
        <time>2024-04-07T09:31:53Z</time>
      </trkpt>
      <trkpt lat="48.88515" lon="-0.50179">
        <ele>281.4</ele>
        <time>2024-04-07T09:31:54Z</time>
      </trkpt>
      <trkpt lat="48.88515" lon="-0.50163">
        <ele>281.4</ele>
        <time>2024-04-07T09:31:55Z</time>
      </trkpt>
      <trkpt lat="48.88515" lon="-0.50155">
        <ele>281.6</ele>
        <time>2024-04-07T09:31:56Z</time>
      </trkpt>
      <trkpt lat="48.88515" lon="-0.50141">
        <ele>281.6</ele>
        <time>2024-04-07T09:31:57Z</time>
      </trkpt>
      <trkpt lat="48.88515" lon="-0.50136">
        <ele>281.6</ele>
        <time>2024-04-07T09:31:58Z</time>
      </trkpt>
      <trkpt lat="48.88515" lon="-0.50131">
        <ele>281.8</ele>
        <time>2024-04-07T09:31:59Z</time>
      </trkpt>
      <trkpt lat="48.88515" lon="-0.50122">
        <ele>282</ele>
        <time>2024-04-07T09:32:00Z</time>
      </trkpt>
      <trkpt lat="48.88515" lon="-0.50102">
        <ele>282.2</ele>
        <time>2024-04-07T09:32:01Z</time>
      </trkpt>
      <trkpt lat="48.88515" lon="-0.50098">
        <ele>282.4</ele>
        <time>2024-04-07T09:32:02Z</time>
      </trkpt>
      <trkpt lat="48.88515" lon="-0.50093">
        <ele>282.4</ele>
        <time>2024-04-07T09:32:03Z</time>
      </trkpt>
      <trkpt lat="48.88514" lon="-0.50074">
        <ele>282.4</ele>
        <time>2024-04-07T09:32:04Z</time>
      </trkpt>
      <trkpt lat="48.88514" lon="-0.50064">
        <ele>282.4</ele>
        <time>2024-04-07T09:32:05Z</time>
      </trkpt>
      <trkpt lat="48.88514" lon="-0.50057">
        <ele>282.4</ele>
        <time>2024-04-07T09:32:06Z</time>
      </trkpt>
      <trkpt lat="48.88514" lon="-0.5005">
        <ele>282.4</ele>
        <time>2024-04-07T09:32:07Z</time>
      </trkpt>
      <trkpt lat="48.88515" lon="-0.50036">
        <ele>282.4</ele>
        <time>2024-04-07T09:32:08Z</time>
      </trkpt>
      <trkpt lat="48.88514" lon="-0.50026">
        <ele>282.4</ele>
        <time>2024-04-07T09:32:09Z</time>
      </trkpt>
      <trkpt lat="48.88514" lon="-0.50026">
        <ele>282.4</ele>
        <time>2024-04-07T09:32:10Z</time>
      </trkpt>
      <trkpt lat="48.88514" lon="-0.50007">
        <ele>282.4</ele>
        <time>2024-04-07T09:32:11Z</time>
      </trkpt>
      <trkpt lat="48.88514" lon="-0.49997">
        <ele>282.6</ele>
        <time>2024-04-07T09:32:12Z</time>
      </trkpt>
      <trkpt lat="48.88514" lon="-0.49987">
        <ele>282.6</ele>
        <time>2024-04-07T09:32:13Z</time>
      </trkpt>
      <trkpt lat="48.88515" lon="-0.49979">
        <ele>282.8</ele>
        <time>2024-04-07T09:32:14Z</time>
      </trkpt>
      <trkpt lat="48.88515" lon="-0.49974">
        <ele>282.8</ele>
        <time>2024-04-07T09:32:15Z</time>
      </trkpt>
      <trkpt lat="48.88515" lon="-0.4997">
        <ele>282.8</ele>
        <time>2024-04-07T09:32:16Z</time>
      </trkpt>
      <trkpt lat="48.88515" lon="-0.49956">
        <ele>283</ele>
        <time>2024-04-07T09:32:17Z</time>
      </trkpt>
      <trkpt lat="48.88515" lon="-0.49951">
        <ele>283</ele>
        <time>2024-04-07T09:32:18Z</time>
      </trkpt>
      <trkpt lat="48.88514" lon="-0.49934">
        <ele>283</ele>
        <time>2024-04-07T09:32:19Z</time>
      </trkpt>
      <trkpt lat="48.88514" lon="-0.49927">
        <ele>283.2</ele>
        <time>2024-04-07T09:32:20Z</time>
      </trkpt>
      <trkpt lat="48.88513" lon="-0.49912">
        <ele>283.4</ele>
        <time>2024-04-07T09:32:21Z</time>
      </trkpt>
      <trkpt lat="48.88512" lon="-0.49902">
        <ele>283.8</ele>
        <time>2024-04-07T09:32:22Z</time>
      </trkpt>
      <trkpt lat="48.88512" lon="-0.49892">
        <ele>284.2</ele>
        <time>2024-04-07T09:32:23Z</time>
      </trkpt>
      <trkpt lat="48.88512" lon="-0.49881">
        <ele>284.4</ele>
        <time>2024-04-07T09:32:24Z</time>
      </trkpt>
      <trkpt lat="48.88512" lon="-0.49876">
        <ele>284.4</ele>
        <time>2024-04-07T09:32:25Z</time>
      </trkpt>
      <trkpt lat="48.88512" lon="-0.4987">
        <ele>284.6</ele>
        <time>2024-04-07T09:32:26Z</time>
      </trkpt>
      <trkpt lat="48.88511" lon="-0.49855">
        <ele>284.6</ele>
        <time>2024-04-07T09:32:27Z</time>
      </trkpt>
      <trkpt lat="48.88511" lon="-0.4985">
        <ele>284.6</ele>
        <time>2024-04-07T09:32:28Z</time>
      </trkpt>
      <trkpt lat="48.88511" lon="-0.49839">
        <ele>284.8</ele>
        <time>2024-04-07T09:32:29Z</time>
      </trkpt>
      <trkpt lat="48.8851" lon="-0.49821">
        <ele>284.8</ele>
        <time>2024-04-07T09:32:30Z</time>
      </trkpt>
      <trkpt lat="48.8851" lon="-0.49813">
        <ele>284.6</ele>
        <time>2024-04-07T09:32:31Z</time>
      </trkpt>
      <trkpt lat="48.8851" lon="-0.49797">
        <ele>284.6</ele>
        <time>2024-04-07T09:32:32Z</time>
      </trkpt>
      <trkpt lat="48.8851" lon="-0.49786">
        <ele>284.6</ele>
        <time>2024-04-07T09:32:33Z</time>
      </trkpt>
      <trkpt lat="48.8851" lon="-0.49774">
        <ele>284.4</ele>
        <time>2024-04-07T09:32:34Z</time>
      </trkpt>
      <trkpt lat="48.8851" lon="-0.49763">
        <ele>284.2</ele>
        <time>2024-04-07T09:32:35Z</time>
      </trkpt>
      <trkpt lat="48.88509" lon="-0.49752">
        <ele>284.2</ele>
        <time>2024-04-07T09:32:36Z</time>
      </trkpt>
      <trkpt lat="48.88509" lon="-0.4974">
        <ele>283.8</ele>
        <time>2024-04-07T09:32:37Z</time>
      </trkpt>
      <trkpt lat="48.88508" lon="-0.49729">
        <ele>283.6</ele>
        <time>2024-04-07T09:32:38Z</time>
      </trkpt>
      <trkpt lat="48.88508" lon="-0.49717">
        <ele>283.4</ele>
        <time>2024-04-07T09:32:39Z</time>
      </trkpt>
      <trkpt lat="48.88508" lon="-0.49706">
        <ele>283.2</ele>
        <time>2024-04-07T09:32:40Z</time>
      </trkpt>
      <trkpt lat="48.88508" lon="-0.49695">
        <ele>283.2</ele>
        <time>2024-04-07T09:32:41Z</time>
      </trkpt>
      <trkpt lat="48.88508" lon="-0.49683">
        <ele>283.2</ele>
        <time>2024-04-07T09:32:42Z</time>
      </trkpt>
      <trkpt lat="48.88507" lon="-0.49674">
        <ele>283.4</ele>
        <time>2024-04-07T09:32:43Z</time>
      </trkpt>
      <trkpt lat="48.88507" lon="-0.49665">
        <ele>283.6</ele>
        <time>2024-04-07T09:32:44Z</time>
      </trkpt>
      <trkpt lat="48.88507" lon="-0.49648">
        <ele>283.6</ele>
        <time>2024-04-07T09:32:45Z</time>
      </trkpt>
      <trkpt lat="48.88507" lon="-0.49636">
        <ele>283.6</ele>
        <time>2024-04-07T09:32:46Z</time>
      </trkpt>
      <trkpt lat="48.88506" lon="-0.49627">
        <ele>283.6</ele>
        <time>2024-04-07T09:32:47Z</time>
      </trkpt>
      <trkpt lat="48.88506" lon="-0.49618">
        <ele>283.4</ele>
        <time>2024-04-07T09:32:48Z</time>
      </trkpt>
      <trkpt lat="48.88506" lon="-0.496">
        <ele>283</ele>
        <time>2024-04-07T09:32:49Z</time>
      </trkpt>
      <trkpt lat="48.88506" lon="-0.49588">
        <ele>282.8</ele>
        <time>2024-04-07T09:32:50Z</time>
      </trkpt>
      <trkpt lat="48.88505" lon="-0.49576">
        <ele>282.4</ele>
        <time>2024-04-07T09:32:51Z</time>
      </trkpt>
      <trkpt lat="48.88505" lon="-0.49563">
        <ele>282.4</ele>
        <time>2024-04-07T09:32:52Z</time>
      </trkpt>
      <trkpt lat="48.88505" lon="-0.4955">
        <ele>282.2</ele>
        <time>2024-04-07T09:32:53Z</time>
      </trkpt>
      <trkpt lat="48.88504" lon="-0.49538">
        <ele>282.2</ele>
        <time>2024-04-07T09:32:54Z</time>
      </trkpt>
      <trkpt lat="48.88504" lon="-0.49525">
        <ele>282.2</ele>
        <time>2024-04-07T09:32:55Z</time>
      </trkpt>
      <trkpt lat="48.88504" lon="-0.49525">
        <ele>282.2</ele>
        <time>2024-04-07T09:32:56Z</time>
      </trkpt>
      <trkpt lat="48.88503" lon="-0.49501">
        <ele>282.2</ele>
        <time>2024-04-07T09:32:57Z</time>
      </trkpt>
      <trkpt lat="48.88503" lon="-0.49489">
        <ele>282.2</ele>
        <time>2024-04-07T09:32:58Z</time>
      </trkpt>
      <trkpt lat="48.88503" lon="-0.49483">
        <ele>282.2</ele>
        <time>2024-04-07T09:32:59Z</time>
      </trkpt>
      <trkpt lat="48.88503" lon="-0.49477">
        <ele>282</ele>
        <time>2024-04-07T09:33:00Z</time>
      </trkpt>
      <trkpt lat="48.88502" lon="-0.49453">
        <ele>281.8</ele>
        <time>2024-04-07T09:33:01Z</time>
      </trkpt>
      <trkpt lat="48.88502" lon="-0.49447">
        <ele>281.6</ele>
        <time>2024-04-07T09:33:02Z</time>
      </trkpt>
      <trkpt lat="48.88502" lon="-0.49441">
        <ele>281.4</ele>
        <time>2024-04-07T09:33:03Z</time>
      </trkpt>
      <trkpt lat="48.88501" lon="-0.49417">
        <ele>281.4</ele>
        <time>2024-04-07T09:33:04Z</time>
      </trkpt>
      <trkpt lat="48.885" lon="-0.49405">
        <ele>281.4</ele>
        <time>2024-04-07T09:33:05Z</time>
      </trkpt>
      <trkpt lat="48.88499" lon="-0.49393">
        <ele>281.4</ele>
        <time>2024-04-07T09:33:06Z</time>
      </trkpt>
      <trkpt lat="48.88499" lon="-0.49387">
        <ele>281.6</ele>
        <time>2024-04-07T09:33:07Z</time>
      </trkpt>
      <trkpt lat="48.88499" lon="-0.49382">
        <ele>281.6</ele>
        <time>2024-04-07T09:33:08Z</time>
      </trkpt>
      <trkpt lat="48.88495" lon="-0.49359">
        <ele>281.8</ele>
        <time>2024-04-07T09:33:09Z</time>
      </trkpt>
      <trkpt lat="48.88493" lon="-0.49349">
        <ele>282</ele>
        <time>2024-04-07T09:33:10Z</time>
      </trkpt>
      <trkpt lat="48.88492" lon="-0.49343">
        <ele>282</ele>
        <time>2024-04-07T09:33:11Z</time>
      </trkpt>
      <trkpt lat="48.88492" lon="-0.49338">
        <ele>282.2</ele>
        <time>2024-04-07T09:33:12Z</time>
      </trkpt>
      <trkpt lat="48.88489" lon="-0.49323">
        <ele>282.2</ele>
        <time>2024-04-07T09:33:13Z</time>
      </trkpt>
      <trkpt lat="48.88488" lon="-0.49319">
        <ele>282.4</ele>
        <time>2024-04-07T09:33:14Z</time>
      </trkpt>
      <trkpt lat="48.88485" lon="-0.49309">
        <ele>282.4</ele>
        <time>2024-04-07T09:33:15Z</time>
      </trkpt>
      <trkpt lat="48.88482" lon="-0.49299">
        <ele>282.8</ele>
        <time>2024-04-07T09:33:16Z</time>
      </trkpt>
      <trkpt lat="48.8848" lon="-0.49291">
        <ele>283</ele>
        <time>2024-04-07T09:33:17Z</time>
      </trkpt>
      <trkpt lat="48.88477" lon="-0.49283">
        <ele>283.2</ele>
        <time>2024-04-07T09:33:18Z</time>
      </trkpt>
      <trkpt lat="48.88474" lon="-0.49275">
        <ele>283.4</ele>
        <time>2024-04-07T09:33:19Z</time>
      </trkpt>
      <trkpt lat="48.88471" lon="-0.49266">
        <ele>284</ele>
        <time>2024-04-07T09:33:20Z</time>
      </trkpt>
      <trkpt lat="48.88468" lon="-0.49259">
        <ele>284.6</ele>
        <time>2024-04-07T09:33:21Z</time>
      </trkpt>
      <trkpt lat="48.88465" lon="-0.49251">
        <ele>285.2</ele>
        <time>2024-04-07T09:33:22Z</time>
      </trkpt>
      <trkpt lat="48.88461" lon="-0.49244">
        <ele>285.6</ele>
        <time>2024-04-07T09:33:23Z</time>
      </trkpt>
      <trkpt lat="48.88454" lon="-0.49229">
        <ele>286</ele>
        <time>2024-04-07T09:33:24Z</time>
      </trkpt>
      <trkpt lat="48.88452" lon="-0.49226">
        <ele>286.2</ele>
        <time>2024-04-07T09:33:25Z</time>
      </trkpt>
      <trkpt lat="48.8845" lon="-0.49222">
        <ele>286.2</ele>
        <time>2024-04-07T09:33:26Z</time>
      </trkpt>
      <trkpt lat="48.88443" lon="-0.49208">
        <ele>286.4</ele>
        <time>2024-04-07T09:33:27Z</time>
      </trkpt>
      <trkpt lat="48.8844" lon="-0.49203">
        <ele>286.6</ele>
        <time>2024-04-07T09:33:28Z</time>
      </trkpt>
      <trkpt lat="48.88438" lon="-0.49198">
        <ele>286.8</ele>
        <time>2024-04-07T09:33:29Z</time>
      </trkpt>
      <trkpt lat="48.88433" lon="-0.49187">
        <ele>286.8</ele>
        <time>2024-04-07T09:33:30Z</time>
      </trkpt>
      <trkpt lat="48.88433" lon="-0.49187">
        <ele>287</ele>
        <time>2024-04-07T09:33:31Z</time>
      </trkpt>
      <trkpt lat="48.88429" lon="-0.4918">
        <ele>287</ele>
        <time>2024-04-07T09:33:32Z</time>
      </trkpt>
      <trkpt lat="48.88423" lon="-0.49166">
        <ele>287.2</ele>
        <time>2024-04-07T09:33:33Z</time>
      </trkpt>
      <trkpt lat="48.8842" lon="-0.49159">
        <ele>287.4</ele>
        <time>2024-04-07T09:33:34Z</time>
      </trkpt>
      <trkpt lat="48.88418" lon="-0.49155">
        <ele>287.4</ele>
        <time>2024-04-07T09:33:35Z</time>
      </trkpt>
      <trkpt lat="48.88417" lon="-0.49152">
        <ele>287.6</ele>
        <time>2024-04-07T09:33:36Z</time>
      </trkpt>
      <trkpt lat="48.88414" lon="-0.49145">
        <ele>287.8</ele>
        <time>2024-04-07T09:33:37Z</time>
      </trkpt>
      <trkpt lat="48.88409" lon="-0.4913">
        <ele>287.8</ele>
        <time>2024-04-07T09:33:38Z</time>
      </trkpt>
      <trkpt lat="48.88407" lon="-0.49125">
        <ele>288</ele>
        <time>2024-04-07T09:33:39Z</time>
      </trkpt>
      <trkpt lat="48.88405" lon="-0.49119">
        <ele>288.2</ele>
        <time>2024-04-07T09:33:40Z</time>
      </trkpt>
      <trkpt lat="48.88401" lon="-0.49108">
        <ele>288.4</ele>
        <time>2024-04-07T09:33:41Z</time>
      </trkpt>
      <trkpt lat="48.88399" lon="-0.491">
        <ele>288.6</ele>
        <time>2024-04-07T09:33:42Z</time>
      </trkpt>
      <trkpt lat="48.88396" lon="-0.49092">
        <ele>289</ele>
        <time>2024-04-07T09:33:43Z</time>
      </trkpt>
      <trkpt lat="48.88394" lon="-0.49085">
        <ele>289.2</ele>
        <time>2024-04-07T09:33:44Z</time>
      </trkpt>
      <trkpt lat="48.88392" lon="-0.49077">
        <ele>289.4</ele>
        <time>2024-04-07T09:33:45Z</time>
      </trkpt>
      <trkpt lat="48.8839" lon="-0.49069">
        <ele>289.6</ele>
        <time>2024-04-07T09:33:46Z</time>
      </trkpt>
      <trkpt lat="48.88388" lon="-0.49061">
        <ele>289.8</ele>
        <time>2024-04-07T09:33:47Z</time>
      </trkpt>
      <trkpt lat="48.88386" lon="-0.49053">
        <ele>289.8</ele>
        <time>2024-04-07T09:33:48Z</time>
      </trkpt>
      <trkpt lat="48.88386" lon="-0.49053">
        <ele>290</ele>
        <time>2024-04-07T09:33:49Z</time>
      </trkpt>
      <trkpt lat="48.88383" lon="-0.49036">
        <ele>290.2</ele>
        <time>2024-04-07T09:33:50Z</time>
      </trkpt>
      <trkpt lat="48.88381" lon="-0.49028">
        <ele>290.6</ele>
        <time>2024-04-07T09:33:51Z</time>
      </trkpt>
      <trkpt lat="48.8838" lon="-0.4902">
        <ele>290.8</ele>
        <time>2024-04-07T09:33:52Z</time>
      </trkpt>
      <trkpt lat="48.88379" lon="-0.49011">
        <ele>291.2</ele>
        <time>2024-04-07T09:33:53Z</time>
      </trkpt>
      <trkpt lat="48.88378" lon="-0.49004">
        <ele>291.4</ele>
        <time>2024-04-07T09:33:54Z</time>
      </trkpt>
      <trkpt lat="48.88377" lon="-0.48997">
        <ele>291.6</ele>
        <time>2024-04-07T09:33:55Z</time>
      </trkpt>
      <trkpt lat="48.88375" lon="-0.48984">
        <ele>291.8</ele>
        <time>2024-04-07T09:33:56Z</time>
      </trkpt>
      <trkpt lat="48.88374" lon="-0.48975">
        <ele>292</ele>
        <time>2024-04-07T09:33:57Z</time>
      </trkpt>
      <trkpt lat="48.88373" lon="-0.48966">
        <ele>292</ele>
        <time>2024-04-07T09:33:58Z</time>
      </trkpt>
      <trkpt lat="48.88372" lon="-0.48956">
        <ele>292.2</ele>
        <time>2024-04-07T09:33:59Z</time>
      </trkpt>
      <trkpt lat="48.88372" lon="-0.48947">
        <ele>292.2</ele>
        <time>2024-04-07T09:34:00Z</time>
      </trkpt>
      <trkpt lat="48.88371" lon="-0.48943">
        <ele>292.2</ele>
        <time>2024-04-07T09:34:01Z</time>
      </trkpt>
      <trkpt lat="48.88371" lon="-0.48938">
        <ele>292.4</ele>
        <time>2024-04-07T09:34:02Z</time>
      </trkpt>
      <trkpt lat="48.8837" lon="-0.48925">
        <ele>292.6</ele>
        <time>2024-04-07T09:34:03Z</time>
      </trkpt>
      <trkpt lat="48.8837" lon="-0.48921">
        <ele>292.8</ele>
        <time>2024-04-07T09:34:04Z</time>
      </trkpt>
      <trkpt lat="48.88369" lon="-0.48905">
        <ele>293</ele>
        <time>2024-04-07T09:34:05Z</time>
      </trkpt>
      <trkpt lat="48.88369" lon="-0.48898">
        <ele>293.2</ele>
        <time>2024-04-07T09:34:06Z</time>
      </trkpt>
      <trkpt lat="48.88368" lon="-0.48884">
        <ele>293.4</ele>
        <time>2024-04-07T09:34:07Z</time>
      </trkpt>
      <trkpt lat="48.88368" lon="-0.48875">
        <ele>293.4</ele>
        <time>2024-04-07T09:34:08Z</time>
      </trkpt>
      <trkpt lat="48.88367" lon="-0.48868">
        <ele>293.4</ele>
        <time>2024-04-07T09:34:09Z</time>
      </trkpt>
      <trkpt lat="48.88367" lon="-0.48861">
        <ele>293.4</ele>
        <time>2024-04-07T09:34:10Z</time>
      </trkpt>
      <trkpt lat="48.88366" lon="-0.48847">
        <ele>293.6</ele>
        <time>2024-04-07T09:34:11Z</time>
      </trkpt>
      <trkpt lat="48.88365" lon="-0.48838">
        <ele>293.6</ele>
        <time>2024-04-07T09:34:12Z</time>
      </trkpt>
      <trkpt lat="48.88365" lon="-0.48838">
        <ele>293.6</ele>
        <time>2024-04-07T09:34:13Z</time>
      </trkpt>
      <trkpt lat="48.88364" lon="-0.48818">
        <ele>294</ele>
        <time>2024-04-07T09:34:14Z</time>
      </trkpt>
      <trkpt lat="48.88363" lon="-0.48808">
        <ele>294.4</ele>
        <time>2024-04-07T09:34:15Z</time>
      </trkpt>
      <trkpt lat="48.88363" lon="-0.48798">
        <ele>294.6</ele>
        <time>2024-04-07T09:34:16Z</time>
      </trkpt>
      <trkpt lat="48.88362" lon="-0.48788">
        <ele>294.6</ele>
        <time>2024-04-07T09:34:17Z</time>
      </trkpt>
      <trkpt lat="48.88362" lon="-0.4878">
        <ele>294.8</ele>
        <time>2024-04-07T09:34:18Z</time>
      </trkpt>
      <trkpt lat="48.88361" lon="-0.48772">
        <ele>295</ele>
        <time>2024-04-07T09:34:19Z</time>
      </trkpt>
      <trkpt lat="48.8836" lon="-0.48756">
        <ele>295</ele>
        <time>2024-04-07T09:34:20Z</time>
      </trkpt>
      <trkpt lat="48.8836" lon="-0.48756">
        <ele>295</ele>
        <time>2024-04-07T09:34:21Z</time>
      </trkpt>
      <trkpt lat="48.88359" lon="-0.48735">
        <ele>295</ele>
        <time>2024-04-07T09:34:22Z</time>
      </trkpt>
      <trkpt lat="48.88358" lon="-0.48725">
        <ele>295</ele>
        <time>2024-04-07T09:34:23Z</time>
      </trkpt>
      <trkpt lat="48.88357" lon="-0.48714">
        <ele>295</ele>
        <time>2024-04-07T09:34:24Z</time>
      </trkpt>
      <trkpt lat="48.88356" lon="-0.48704">
        <ele>295</ele>
        <time>2024-04-07T09:34:25Z</time>
      </trkpt>
      <trkpt lat="48.88356" lon="-0.48699">
        <ele>295</ele>
        <time>2024-04-07T09:34:26Z</time>
      </trkpt>
      <trkpt lat="48.88356" lon="-0.48694">
        <ele>295</ele>
        <time>2024-04-07T09:34:27Z</time>
      </trkpt>
      <trkpt lat="48.88355" lon="-0.48684">
        <ele>295</ele>
        <time>2024-04-07T09:34:28Z</time>
      </trkpt>
      <trkpt lat="48.88355" lon="-0.48674">
        <ele>295.2</ele>
        <time>2024-04-07T09:34:29Z</time>
      </trkpt>
      <trkpt lat="48.88355" lon="-0.48663">
        <ele>295.2</ele>
        <time>2024-04-07T09:34:30Z</time>
      </trkpt>
      <trkpt lat="48.88355" lon="-0.48653">
        <ele>295.2</ele>
        <time>2024-04-07T09:34:31Z</time>
      </trkpt>
      <trkpt lat="48.88355" lon="-0.48643">
        <ele>295.2</ele>
        <time>2024-04-07T09:34:32Z</time>
      </trkpt>
      <trkpt lat="48.88355" lon="-0.48632">
        <ele>295.4</ele>
        <time>2024-04-07T09:34:33Z</time>
      </trkpt>
      <trkpt lat="48.88355" lon="-0.48621">
        <ele>295.4</ele>
        <time>2024-04-07T09:34:34Z</time>
      </trkpt>
      <trkpt lat="48.88356" lon="-0.4861">
        <ele>295.6</ele>
        <time>2024-04-07T09:34:35Z</time>
      </trkpt>
      <trkpt lat="48.88356" lon="-0.48599">
        <ele>295.6</ele>
        <time>2024-04-07T09:34:36Z</time>
      </trkpt>
      <trkpt lat="48.88356" lon="-0.48588">
        <ele>295.8</ele>
        <time>2024-04-07T09:34:37Z</time>
      </trkpt>
      <trkpt lat="48.88357" lon="-0.48577">
        <ele>295.8</ele>
        <time>2024-04-07T09:34:38Z</time>
      </trkpt>
      <trkpt lat="48.88357" lon="-0.48566">
        <ele>296</ele>
        <time>2024-04-07T09:34:39Z</time>
      </trkpt>
      <trkpt lat="48.88358" lon="-0.48554">
        <ele>295.8</ele>
        <time>2024-04-07T09:34:40Z</time>
      </trkpt>
      <trkpt lat="48.88359" lon="-0.48543">
        <ele>295.8</ele>
        <time>2024-04-07T09:34:41Z</time>
      </trkpt>
      <trkpt lat="48.88359" lon="-0.48531">
        <ele>295.6</ele>
        <time>2024-04-07T09:34:42Z</time>
      </trkpt>
      <trkpt lat="48.8836" lon="-0.48518">
        <ele>295.4</ele>
        <time>2024-04-07T09:34:43Z</time>
      </trkpt>
      <trkpt lat="48.88361" lon="-0.48506">
        <ele>295.2</ele>
        <time>2024-04-07T09:34:44Z</time>
      </trkpt>
      <trkpt lat="48.88362" lon="-0.48494">
        <ele>295</ele>
        <time>2024-04-07T09:34:45Z</time>
      </trkpt>
      <trkpt lat="48.88363" lon="-0.48481">
        <ele>294.6</ele>
        <time>2024-04-07T09:34:46Z</time>
      </trkpt>
      <trkpt lat="48.88364" lon="-0.48469">
        <ele>294.2</ele>
        <time>2024-04-07T09:34:47Z</time>
      </trkpt>
      <trkpt lat="48.88367" lon="-0.48444">
        <ele>293.8</ele>
        <time>2024-04-07T09:34:48Z</time>
      </trkpt>
      <trkpt lat="48.88367" lon="-0.48437">
        <ele>293.4</ele>
        <time>2024-04-07T09:34:49Z</time>
      </trkpt>
      <trkpt lat="48.88368" lon="-0.48431">
        <ele>293</ele>
        <time>2024-04-07T09:34:50Z</time>
      </trkpt>
      <trkpt lat="48.88369" lon="-0.48417">
        <ele>292.8</ele>
        <time>2024-04-07T09:34:51Z</time>
      </trkpt>
      <trkpt lat="48.8837" lon="-0.48404">
        <ele>292.6</ele>
        <time>2024-04-07T09:34:52Z</time>
      </trkpt>
      <trkpt lat="48.88372" lon="-0.4839">
        <ele>292.4</ele>
        <time>2024-04-07T09:34:53Z</time>
      </trkpt>
      <trkpt lat="48.88373" lon="-0.48377">
        <ele>292</ele>
        <time>2024-04-07T09:34:54Z</time>
      </trkpt>
      <trkpt lat="48.88374" lon="-0.48363">
        <ele>291.8</ele>
        <time>2024-04-07T09:34:55Z</time>
      </trkpt>
      <trkpt lat="48.88375" lon="-0.48349">
        <ele>291.4</ele>
        <time>2024-04-07T09:34:56Z</time>
      </trkpt>
      <trkpt lat="48.88376" lon="-0.48336">
        <ele>291.2</ele>
        <time>2024-04-07T09:34:57Z</time>
      </trkpt>
      <trkpt lat="48.88378" lon="-0.48322">
        <ele>291.2</ele>
        <time>2024-04-07T09:34:58Z</time>
      </trkpt>
      <trkpt lat="48.88379" lon="-0.48307">
        <ele>290.8</ele>
        <time>2024-04-07T09:34:59Z</time>
      </trkpt>
      <trkpt lat="48.8838" lon="-0.48293">
        <ele>290.6</ele>
        <time>2024-04-07T09:35:00Z</time>
      </trkpt>
      <trkpt lat="48.88382" lon="-0.48279">
        <ele>290</ele>
        <time>2024-04-07T09:35:01Z</time>
      </trkpt>
      <trkpt lat="48.88383" lon="-0.48264">
        <ele>289.4</ele>
        <time>2024-04-07T09:35:02Z</time>
      </trkpt>
      <trkpt lat="48.88384" lon="-0.4825">
        <ele>289</ele>
        <time>2024-04-07T09:35:03Z</time>
      </trkpt>
      <trkpt lat="48.88385" lon="-0.48235">
        <ele>288.4</ele>
        <time>2024-04-07T09:35:04Z</time>
      </trkpt>
      <trkpt lat="48.88387" lon="-0.48219">
        <ele>288</ele>
        <time>2024-04-07T09:35:05Z</time>
      </trkpt>
      <trkpt lat="48.88389" lon="-0.48197">
        <ele>287.6</ele>
        <time>2024-04-07T09:35:06Z</time>
      </trkpt>
      <trkpt lat="48.8839" lon="-0.48189">
        <ele>287.2</ele>
        <time>2024-04-07T09:35:07Z</time>
      </trkpt>
      <trkpt lat="48.88391" lon="-0.48174">
        <ele>286.6</ele>
        <time>2024-04-07T09:35:08Z</time>
      </trkpt>
      <trkpt lat="48.88393" lon="-0.48159">
        <ele>286</ele>
        <time>2024-04-07T09:35:09Z</time>
      </trkpt>
      <trkpt lat="48.88395" lon="-0.48144">
        <ele>285.6</ele>
        <time>2024-04-07T09:35:10Z</time>
      </trkpt>
      <trkpt lat="48.88396" lon="-0.48129">
        <ele>285.4</ele>
        <time>2024-04-07T09:35:11Z</time>
      </trkpt>
      <trkpt lat="48.88398" lon="-0.48114">
        <ele>285.2</ele>
        <time>2024-04-07T09:35:12Z</time>
      </trkpt>
      <trkpt lat="48.88399" lon="-0.48099">
        <ele>285</ele>
        <time>2024-04-07T09:35:13Z</time>
      </trkpt>
      <trkpt lat="48.88401" lon="-0.48076">
        <ele>284.8</ele>
        <time>2024-04-07T09:35:14Z</time>
      </trkpt>
      <trkpt lat="48.88403" lon="-0.48053">
        <ele>284.4</ele>
        <time>2024-04-07T09:35:15Z</time>
      </trkpt>
      <trkpt lat="48.88404" lon="-0.48046">
        <ele>283.8</ele>
        <time>2024-04-07T09:35:16Z</time>
      </trkpt>
      <trkpt lat="48.88405" lon="-0.48039">
        <ele>283</ele>
        <time>2024-04-07T09:35:17Z</time>
      </trkpt>
      <trkpt lat="48.88406" lon="-0.48024">
        <ele>282.4</ele>
        <time>2024-04-07T09:35:18Z</time>
      </trkpt>
      <trkpt lat="48.88408" lon="-0.4801">
        <ele>282.2</ele>
        <time>2024-04-07T09:35:19Z</time>
      </trkpt>
      <trkpt lat="48.88409" lon="-0.47995">
        <ele>282</ele>
        <time>2024-04-07T09:35:20Z</time>
      </trkpt>
      <trkpt lat="48.88411" lon="-0.47981">
        <ele>281.8</ele>
        <time>2024-04-07T09:35:21Z</time>
      </trkpt>
      <trkpt lat="48.88412" lon="-0.47968">
        <ele>281.8</ele>
        <time>2024-04-07T09:35:22Z</time>
      </trkpt>
      <trkpt lat="48.88414" lon="-0.47954">
        <ele>281.6</ele>
        <time>2024-04-07T09:35:23Z</time>
      </trkpt>
      <trkpt lat="48.88416" lon="-0.47933">
        <ele>281.6</ele>
        <time>2024-04-07T09:35:24Z</time>
      </trkpt>
      <trkpt lat="48.88417" lon="-0.47927">
        <ele>281.8</ele>
        <time>2024-04-07T09:35:25Z</time>
      </trkpt>
      <trkpt lat="48.8842" lon="-0.479">
        <ele>281.6</ele>
        <time>2024-04-07T09:35:26Z</time>
      </trkpt>
      <trkpt lat="48.8842" lon="-0.47893">
        <ele>281.4</ele>
        <time>2024-04-07T09:35:27Z</time>
      </trkpt>
      <trkpt lat="48.88421" lon="-0.47886">
        <ele>281.2</ele>
        <time>2024-04-07T09:35:28Z</time>
      </trkpt>
      <trkpt lat="48.88423" lon="-0.47873">
        <ele>281</ele>
        <time>2024-04-07T09:35:29Z</time>
      </trkpt>
      <trkpt lat="48.88426" lon="-0.47847">
        <ele>281</ele>
        <time>2024-04-07T09:35:30Z</time>
      </trkpt>
      <trkpt lat="48.88427" lon="-0.47837">
        <ele>280.8</ele>
        <time>2024-04-07T09:35:31Z</time>
      </trkpt>
      <trkpt lat="48.88427" lon="-0.47828">
        <ele>280.8</ele>
        <time>2024-04-07T09:35:32Z</time>
      </trkpt>
      <trkpt lat="48.88429" lon="-0.47809">
        <ele>281</ele>
        <time>2024-04-07T09:35:33Z</time>
      </trkpt>
      <trkpt lat="48.8843" lon="-0.47803">
        <ele>281</ele>
        <time>2024-04-07T09:35:34Z</time>
      </trkpt>
      <trkpt lat="48.88431" lon="-0.47798">
        <ele>281.2</ele>
        <time>2024-04-07T09:35:35Z</time>
      </trkpt>
      <trkpt lat="48.88435" lon="-0.47789">
        <ele>281.4</ele>
        <time>2024-04-07T09:35:36Z</time>
      </trkpt>
      <trkpt lat="48.8844" lon="-0.47781">
        <ele>281.8</ele>
        <time>2024-04-07T09:35:37Z</time>
      </trkpt>
      <trkpt lat="48.88452" lon="-0.47768">
        <ele>282.2</ele>
        <time>2024-04-07T09:35:38Z</time>
      </trkpt>
      <trkpt lat="48.88459" lon="-0.47762">
        <ele>282.4</ele>
        <time>2024-04-07T09:35:39Z</time>
      </trkpt>
      <trkpt lat="48.88459" lon="-0.47762">
        <ele>282.6</ele>
        <time>2024-04-07T09:35:40Z</time>
      </trkpt>
      <trkpt lat="48.88472" lon="-0.47747">
        <ele>282.6</ele>
        <time>2024-04-07T09:35:41Z</time>
      </trkpt>
      <trkpt lat="48.88479" lon="-0.4774">
        <ele>282.8</ele>
        <time>2024-04-07T09:35:42Z</time>
      </trkpt>
      <trkpt lat="48.88485" lon="-0.47732">
        <ele>282.8</ele>
        <time>2024-04-07T09:35:43Z</time>
      </trkpt>
      <trkpt lat="48.88491" lon="-0.47726">
        <ele>282.6</ele>
        <time>2024-04-07T09:35:44Z</time>
      </trkpt>
      <trkpt lat="48.88496" lon="-0.4772">
        <ele>282.4</ele>
        <time>2024-04-07T09:35:45Z</time>
      </trkpt>
      <trkpt lat="48.88507" lon="-0.47709">
        <ele>282.2</ele>
        <time>2024-04-07T09:35:46Z</time>
      </trkpt>
      <trkpt lat="48.88514" lon="-0.477">
        <ele>281.8</ele>
        <time>2024-04-07T09:35:47Z</time>
      </trkpt>
      <trkpt lat="48.88521" lon="-0.4769">
        <ele>281.4</ele>
        <time>2024-04-07T09:35:48Z</time>
      </trkpt>
      <trkpt lat="48.8853" lon="-0.47681">
        <ele>280.8</ele>
        <time>2024-04-07T09:35:49Z</time>
      </trkpt>
      <trkpt lat="48.8853" lon="-0.47681">
        <ele>279.6</ele>
        <time>2024-04-07T09:35:50Z</time>
      </trkpt>
      <trkpt lat="48.88538" lon="-0.47671">
        <ele>278.6</ele>
        <time>2024-04-07T09:35:51Z</time>
      </trkpt>
      <trkpt lat="48.88553" lon="-0.47654">
        <ele>277.4</ele>
        <time>2024-04-07T09:35:52Z</time>
      </trkpt>
      <trkpt lat="48.88559" lon="-0.47646">
        <ele>276.6</ele>
        <time>2024-04-07T09:35:53Z</time>
      </trkpt>
      <trkpt lat="48.88572" lon="-0.4763">
        <ele>275.8</ele>
        <time>2024-04-07T09:35:54Z</time>
      </trkpt>
      <trkpt lat="48.88581" lon="-0.4762">
        <ele>274.6</ele>
        <time>2024-04-07T09:35:55Z</time>
      </trkpt>
      <trkpt lat="48.88581" lon="-0.4762">
        <ele>273.4</ele>
        <time>2024-04-07T09:35:56Z</time>
      </trkpt>
      <trkpt lat="48.88595" lon="-0.476">
        <ele>272.2</ele>
        <time>2024-04-07T09:35:57Z</time>
      </trkpt>
      <trkpt lat="48.886" lon="-0.47591">
        <ele>271.4</ele>
        <time>2024-04-07T09:35:58Z</time>
      </trkpt>
      <trkpt lat="48.88611" lon="-0.47572">
        <ele>270.8</ele>
        <time>2024-04-07T09:35:59Z</time>
      </trkpt>
      <trkpt lat="48.88614" lon="-0.47562">
        <ele>270</ele>
        <time>2024-04-07T09:36:00Z</time>
      </trkpt>
      <trkpt lat="48.88617" lon="-0.47553">
        <ele>269.2</ele>
        <time>2024-04-07T09:36:01Z</time>
      </trkpt>
      <trkpt lat="48.88624" lon="-0.47533">
        <ele>268.2</ele>
        <time>2024-04-07T09:36:02Z</time>
      </trkpt>
      <trkpt lat="48.88631" lon="-0.47514">
        <ele>267.6</ele>
        <time>2024-04-07T09:36:03Z</time>
      </trkpt>
      <trkpt lat="48.88636" lon="-0.47499">
        <ele>266.8</ele>
        <time>2024-04-07T09:36:04Z</time>
      </trkpt>
      <trkpt lat="48.88639" lon="-0.47492">
        <ele>266</ele>
        <time>2024-04-07T09:36:05Z</time>
      </trkpt>
      <trkpt lat="48.88642" lon="-0.47485">
        <ele>265.2</ele>
        <time>2024-04-07T09:36:06Z</time>
      </trkpt>
      <trkpt lat="48.88648" lon="-0.47471">
        <ele>264.4</ele>
        <time>2024-04-07T09:36:07Z</time>
      </trkpt>
      <trkpt lat="48.88655" lon="-0.47457">
        <ele>263.4</ele>
        <time>2024-04-07T09:36:08Z</time>
      </trkpt>
      <trkpt lat="48.8867" lon="-0.47435">
        <ele>262.6</ele>
        <time>2024-04-07T09:36:09Z</time>
      </trkpt>
      <trkpt lat="48.88677" lon="-0.47424">
        <ele>262</ele>
        <time>2024-04-07T09:36:10Z</time>
      </trkpt>
      <trkpt lat="48.88684" lon="-0.47413">
        <ele>261.2</ele>
        <time>2024-04-07T09:36:11Z</time>
      </trkpt>
      <trkpt lat="48.88691" lon="-0.47404">
        <ele>260.2</ele>
        <time>2024-04-07T09:36:12Z</time>
      </trkpt>
      <trkpt lat="48.88697" lon="-0.47396">
        <ele>259</ele>
        <time>2024-04-07T09:36:13Z</time>
      </trkpt>
      <trkpt lat="48.88709" lon="-0.47379">
        <ele>257.6</ele>
        <time>2024-04-07T09:36:14Z</time>
      </trkpt>
      <trkpt lat="48.88719" lon="-0.47368">
        <ele>256</ele>
        <time>2024-04-07T09:36:15Z</time>
      </trkpt>
      <trkpt lat="48.88727" lon="-0.47361">
        <ele>254.2</ele>
        <time>2024-04-07T09:36:16Z</time>
      </trkpt>
      <trkpt lat="48.88734" lon="-0.47354">
        <ele>252.6</ele>
        <time>2024-04-07T09:36:17Z</time>
      </trkpt>
      <trkpt lat="48.8875" lon="-0.47339">
        <ele>250.8</ele>
        <time>2024-04-07T09:36:18Z</time>
      </trkpt>
      <trkpt lat="48.88765" lon="-0.47324">
        <ele>248.6</ele>
        <time>2024-04-07T09:36:19Z</time>
      </trkpt>
      <trkpt lat="48.88778" lon="-0.47313">
        <ele>246.2</ele>
        <time>2024-04-07T09:36:20Z</time>
      </trkpt>
      <trkpt lat="48.88792" lon="-0.47302">
        <ele>243.8</ele>
        <time>2024-04-07T09:36:21Z</time>
      </trkpt>
      <trkpt lat="48.88805" lon="-0.4729">
        <ele>241.4</ele>
        <time>2024-04-07T09:36:22Z</time>
      </trkpt>
      <trkpt lat="48.88818" lon="-0.47278">
        <ele>239.2</ele>
        <time>2024-04-07T09:36:23Z</time>
      </trkpt>
      <trkpt lat="48.88832" lon="-0.47266">
        <ele>236.8</ele>
        <time>2024-04-07T09:36:24Z</time>
      </trkpt>
      <trkpt lat="48.88846" lon="-0.47254">
        <ele>234.4</ele>
        <time>2024-04-07T09:36:25Z</time>
      </trkpt>
      <trkpt lat="48.88859" lon="-0.47243">
        <ele>232.2</ele>
        <time>2024-04-07T09:36:26Z</time>
      </trkpt>
      <trkpt lat="48.8887" lon="-0.47232">
        <ele>230.2</ele>
        <time>2024-04-07T09:36:27Z</time>
      </trkpt>
      <trkpt lat="48.88882" lon="-0.47221">
        <ele>228.6</ele>
        <time>2024-04-07T09:36:28Z</time>
      </trkpt>
      <trkpt lat="48.88893" lon="-0.4721">
        <ele>227.2</ele>
        <time>2024-04-07T09:36:29Z</time>
      </trkpt>
      <trkpt lat="48.88905" lon="-0.472">
        <ele>226</ele>
        <time>2024-04-07T09:36:30Z</time>
      </trkpt>
      <trkpt lat="48.88917" lon="-0.47189">
        <ele>224.4</ele>
        <time>2024-04-07T09:36:31Z</time>
      </trkpt>
      <trkpt lat="48.8893" lon="-0.47178">
        <ele>223</ele>
        <time>2024-04-07T09:36:32Z</time>
      </trkpt>
      <trkpt lat="48.88939" lon="-0.4717">
        <ele>221.6</ele>
        <time>2024-04-07T09:36:33Z</time>
      </trkpt>
      <trkpt lat="48.88948" lon="-0.47162">
        <ele>220.4</ele>
        <time>2024-04-07T09:36:34Z</time>
      </trkpt>
      <trkpt lat="48.88966" lon="-0.47146">
        <ele>219</ele>
        <time>2024-04-07T09:36:35Z</time>
      </trkpt>
      <trkpt lat="48.88977" lon="-0.47136">
        <ele>217.8</ele>
        <time>2024-04-07T09:36:36Z</time>
      </trkpt>
      <trkpt lat="48.88989" lon="-0.47127">
        <ele>217</ele>
        <time>2024-04-07T09:36:37Z</time>
      </trkpt>
      <trkpt lat="48.89" lon="-0.47118">
        <ele>216</ele>
        <time>2024-04-07T09:36:38Z</time>
      </trkpt>
      <trkpt lat="48.89011" lon="-0.47109">
        <ele>215.2</ele>
        <time>2024-04-07T09:36:39Z</time>
      </trkpt>
      <trkpt lat="48.89022" lon="-0.47101">
        <ele>214.2</ele>
        <time>2024-04-07T09:36:40Z</time>
      </trkpt>
      <trkpt lat="48.89031" lon="-0.47097">
        <ele>213.2</ele>
        <time>2024-04-07T09:36:41Z</time>
      </trkpt>
      <trkpt lat="48.89039" lon="-0.47094">
        <ele>212.4</ele>
        <time>2024-04-07T09:36:42Z</time>
      </trkpt>
      <trkpt lat="48.89056" lon="-0.47086">
        <ele>211.8</ele>
        <time>2024-04-07T09:36:43Z</time>
      </trkpt>
      <trkpt lat="48.89068" lon="-0.47085">
        <ele>211.2</ele>
        <time>2024-04-07T09:36:44Z</time>
      </trkpt>
      <trkpt lat="48.89079" lon="-0.47086">
        <ele>210.6</ele>
        <time>2024-04-07T09:36:45Z</time>
      </trkpt>
      <trkpt lat="48.89091" lon="-0.47089">
        <ele>209.8</ele>
        <time>2024-04-07T09:36:46Z</time>
      </trkpt>
      <trkpt lat="48.89101" lon="-0.47093">
        <ele>208.8</ele>
        <time>2024-04-07T09:36:47Z</time>
      </trkpt>
      <trkpt lat="48.8911" lon="-0.47097">
        <ele>207.2</ele>
        <time>2024-04-07T09:36:48Z</time>
      </trkpt>
      <trkpt lat="48.89129" lon="-0.47105">
        <ele>205.4</ele>
        <time>2024-04-07T09:36:49Z</time>
      </trkpt>
      <trkpt lat="48.89141" lon="-0.47111">
        <ele>203.4</ele>
        <time>2024-04-07T09:36:50Z</time>
      </trkpt>
      <trkpt lat="48.89141" lon="-0.47111">
        <ele>201.6</ele>
        <time>2024-04-07T09:36:51Z</time>
      </trkpt>
      <trkpt lat="48.89165" lon="-0.47123">
        <ele>200</ele>
        <time>2024-04-07T09:36:52Z</time>
      </trkpt>
      <trkpt lat="48.89171" lon="-0.47125">
        <ele>198.8</ele>
        <time>2024-04-07T09:36:53Z</time>
      </trkpt>
      <trkpt lat="48.89176" lon="-0.47127">
        <ele>198</ele>
        <time>2024-04-07T09:36:54Z</time>
      </trkpt>
      <trkpt lat="48.89192" lon="-0.47133">
        <ele>197.4</ele>
        <time>2024-04-07T09:36:55Z</time>
      </trkpt>
      <trkpt lat="48.89197" lon="-0.47133">
        <ele>197</ele>
        <time>2024-04-07T09:36:56Z</time>
      </trkpt>
      <trkpt lat="48.89206" lon="-0.47134">
        <ele>196.6</ele>
        <time>2024-04-07T09:36:57Z</time>
      </trkpt>
      <trkpt lat="48.89214" lon="-0.4713">
        <ele>196.2</ele>
        <time>2024-04-07T09:36:58Z</time>
      </trkpt>
      <trkpt lat="48.89219" lon="-0.47121">
        <ele>196</ele>
        <time>2024-04-07T09:36:59Z</time>
      </trkpt>
      <trkpt lat="48.89223" lon="-0.47111">
        <ele>195.8</ele>
        <time>2024-04-07T09:37:00Z</time>
      </trkpt>
      <trkpt lat="48.89231" lon="-0.4709">
        <ele>195.8</ele>
        <time>2024-04-07T09:37:01Z</time>
      </trkpt>
      <trkpt lat="48.89233" lon="-0.47084">
        <ele>195.6</ele>
        <time>2024-04-07T09:37:02Z</time>
      </trkpt>
      <trkpt lat="48.89235" lon="-0.47079">
        <ele>195.4</ele>
        <time>2024-04-07T09:37:03Z</time>
      </trkpt>
      <trkpt lat="48.89242" lon="-0.47063">
        <ele>195.4</ele>
        <time>2024-04-07T09:37:04Z</time>
      </trkpt>
      <trkpt lat="48.89244" lon="-0.47057">
        <ele>195.4</ele>
        <time>2024-04-07T09:37:05Z</time>
      </trkpt>
      <trkpt lat="48.89248" lon="-0.47047">
        <ele>195.4</ele>
        <time>2024-04-07T09:37:06Z</time>
      </trkpt>
      <trkpt lat="48.89253" lon="-0.47036">
        <ele>195.6</ele>
        <time>2024-04-07T09:37:07Z</time>
      </trkpt>
      <trkpt lat="48.89263" lon="-0.47014">
        <ele>195.8</ele>
        <time>2024-04-07T09:37:08Z</time>
      </trkpt>
      <trkpt lat="48.89269" lon="-0.47004">
        <ele>196.4</ele>
        <time>2024-04-07T09:37:09Z</time>
      </trkpt>
      <trkpt lat="48.89276" lon="-0.46994">
        <ele>196.6</ele>
        <time>2024-04-07T09:37:10Z</time>
      </trkpt>
      <trkpt lat="48.89282" lon="-0.46983">
        <ele>196.8</ele>
        <time>2024-04-07T09:37:11Z</time>
      </trkpt>
      <trkpt lat="48.89288" lon="-0.46971">
        <ele>196.8</ele>
        <time>2024-04-07T09:37:12Z</time>
      </trkpt>
      <trkpt lat="48.89295" lon="-0.4696">
        <ele>196.6</ele>
        <time>2024-04-07T09:37:13Z</time>
      </trkpt>
      <trkpt lat="48.893" lon="-0.46951">
        <ele>196</ele>
        <time>2024-04-07T09:37:14Z</time>
      </trkpt>
      <trkpt lat="48.89306" lon="-0.46942">
        <ele>195.2</ele>
        <time>2024-04-07T09:37:15Z</time>
      </trkpt>
      <trkpt lat="48.89316" lon="-0.46924">
        <ele>194.4</ele>
        <time>2024-04-07T09:37:16Z</time>
      </trkpt>
      <trkpt lat="48.89323" lon="-0.46912">
        <ele>193.2</ele>
        <time>2024-04-07T09:37:17Z</time>
      </trkpt>
      <trkpt lat="48.89327" lon="-0.46906">
        <ele>192</ele>
        <time>2024-04-07T09:37:18Z</time>
      </trkpt>
      <trkpt lat="48.89331" lon="-0.46899">
        <ele>190.6</ele>
        <time>2024-04-07T09:37:19Z</time>
      </trkpt>
      <trkpt lat="48.89338" lon="-0.46887">
        <ele>189.2</ele>
        <time>2024-04-07T09:37:20Z</time>
      </trkpt>
      <trkpt lat="48.89348" lon="-0.46869">
        <ele>188.2</ele>
        <time>2024-04-07T09:37:21Z</time>
      </trkpt>
      <trkpt lat="48.89359" lon="-0.46851">
        <ele>187.4</ele>
        <time>2024-04-07T09:37:22Z</time>
      </trkpt>
      <trkpt lat="48.89365" lon="-0.46838">
        <ele>186.8</ele>
        <time>2024-04-07T09:37:23Z</time>
      </trkpt>
      <trkpt lat="48.89372" lon="-0.46826">
        <ele>186.2</ele>
        <time>2024-04-07T09:37:24Z</time>
      </trkpt>
      <trkpt lat="48.89376" lon="-0.46818">
        <ele>186</ele>
        <time>2024-04-07T09:37:25Z</time>
      </trkpt>
      <trkpt lat="48.89381" lon="-0.46809">
        <ele>185.8</ele>
        <time>2024-04-07T09:37:26Z</time>
      </trkpt>
      <trkpt lat="48.8939" lon="-0.46792">
        <ele>185.8</ele>
        <time>2024-04-07T09:37:27Z</time>
      </trkpt>
      <trkpt lat="48.89396" lon="-0.4678">
        <ele>185.6</ele>
        <time>2024-04-07T09:37:28Z</time>
      </trkpt>
      <trkpt lat="48.89403" lon="-0.46768">
        <ele>185.6</ele>
        <time>2024-04-07T09:37:29Z</time>
      </trkpt>
      <trkpt lat="48.89409" lon="-0.46757">
        <ele>185.4</ele>
        <time>2024-04-07T09:37:30Z</time>
      </trkpt>
      <trkpt lat="48.89416" lon="-0.46745">
        <ele>185.2</ele>
        <time>2024-04-07T09:37:31Z</time>
      </trkpt>
      <trkpt lat="48.89422" lon="-0.46734">
        <ele>185.2</ele>
        <time>2024-04-07T09:37:32Z</time>
      </trkpt>
      <trkpt lat="48.89429" lon="-0.46723">
        <ele>185</ele>
        <time>2024-04-07T09:37:33Z</time>
      </trkpt>
      <trkpt lat="48.89429" lon="-0.46723">
        <ele>184.8</ele>
        <time>2024-04-07T09:37:34Z</time>
      </trkpt>
      <trkpt lat="48.89442" lon="-0.467">
        <ele>184.6</ele>
        <time>2024-04-07T09:37:35Z</time>
      </trkpt>
      <trkpt lat="48.89449" lon="-0.46688">
        <ele>184.4</ele>
        <time>2024-04-07T09:37:36Z</time>
      </trkpt>
      <trkpt lat="48.89449" lon="-0.46688">
        <ele>184.2</ele>
        <time>2024-04-07T09:37:37Z</time>
      </trkpt>
      <trkpt lat="48.89463" lon="-0.46664">
        <ele>184</ele>
        <time>2024-04-07T09:37:38Z</time>
      </trkpt>
      <trkpt lat="48.89469" lon="-0.46653">
        <ele>183.8</ele>
        <time>2024-04-07T09:37:39Z</time>
      </trkpt>
      <trkpt lat="48.89476" lon="-0.46641">
        <ele>183.6</ele>
        <time>2024-04-07T09:37:40Z</time>
      </trkpt>
      <trkpt lat="48.89484" lon="-0.46629">
        <ele>183.4</ele>
        <time>2024-04-07T09:37:41Z</time>
      </trkpt>
      <trkpt lat="48.89491" lon="-0.46617">
        <ele>183</ele>
        <time>2024-04-07T09:37:42Z</time>
      </trkpt>
      <trkpt lat="48.89499" lon="-0.46605">
        <ele>182</ele>
        <time>2024-04-07T09:37:43Z</time>
      </trkpt>
      <trkpt lat="48.89507" lon="-0.46594">
        <ele>181</ele>
        <time>2024-04-07T09:37:44Z</time>
      </trkpt>
      <trkpt lat="48.89516" lon="-0.46583">
        <ele>180.2</ele>
        <time>2024-04-07T09:37:45Z</time>
      </trkpt>
      <trkpt lat="48.89516" lon="-0.46583">
        <ele>179.4</ele>
        <time>2024-04-07T09:37:46Z</time>
      </trkpt>
      <trkpt lat="48.89535" lon="-0.46565">
        <ele>178.6</ele>
        <time>2024-04-07T09:37:47Z</time>
      </trkpt>
      <trkpt lat="48.89546" lon="-0.46557">
        <ele>177.8</ele>
        <time>2024-04-07T09:37:48Z</time>
      </trkpt>
      <trkpt lat="48.89556" lon="-0.4655">
        <ele>176.8</ele>
        <time>2024-04-07T09:37:49Z</time>
      </trkpt>
      <trkpt lat="48.89565" lon="-0.46543">
        <ele>175.8</ele>
        <time>2024-04-07T09:37:50Z</time>
      </trkpt>
      <trkpt lat="48.89575" lon="-0.46538">
        <ele>174.8</ele>
        <time>2024-04-07T09:37:51Z</time>
      </trkpt>
      <trkpt lat="48.89584" lon="-0.46533">
        <ele>174.2</ele>
        <time>2024-04-07T09:37:52Z</time>
      </trkpt>
      <trkpt lat="48.89593" lon="-0.4653">
        <ele>173.6</ele>
        <time>2024-04-07T09:37:53Z</time>
      </trkpt>
      <trkpt lat="48.89602" lon="-0.46528">
        <ele>173.2</ele>
        <time>2024-04-07T09:37:54Z</time>
      </trkpt>
      <trkpt lat="48.8961" lon="-0.46529">
        <ele>172.6</ele>
        <time>2024-04-07T09:37:55Z</time>
      </trkpt>
      <trkpt lat="48.89617" lon="-0.4653">
        <ele>171.8</ele>
        <time>2024-04-07T09:37:56Z</time>
      </trkpt>
      <trkpt lat="48.89632" lon="-0.46531">
        <ele>171.2</ele>
        <time>2024-04-07T09:37:57Z</time>
      </trkpt>
      <trkpt lat="48.89641" lon="-0.46533">
        <ele>170.2</ele>
        <time>2024-04-07T09:37:58Z</time>
      </trkpt>
      <trkpt lat="48.8965" lon="-0.46534">
        <ele>169.2</ele>
        <time>2024-04-07T09:37:59Z</time>
      </trkpt>
      <trkpt lat="48.89659" lon="-0.46533">
        <ele>168.6</ele>
        <time>2024-04-07T09:38:00Z</time>
      </trkpt>
      <trkpt lat="48.89667" lon="-0.46528">
        <ele>168</ele>
        <time>2024-04-07T09:38:01Z</time>
      </trkpt>
      <trkpt lat="48.89676" lon="-0.4652">
        <ele>167.6</ele>
        <time>2024-04-07T09:38:02Z</time>
      </trkpt>
      <trkpt lat="48.89676" lon="-0.4652">
        <ele>167</ele>
        <time>2024-04-07T09:38:03Z</time>
      </trkpt>
      <trkpt lat="48.89683" lon="-0.46511">
        <ele>166</ele>
        <time>2024-04-07T09:38:04Z</time>
      </trkpt>
      <trkpt lat="48.89696" lon="-0.46486">
        <ele>164.4</ele>
        <time>2024-04-07T09:38:05Z</time>
      </trkpt>
      <trkpt lat="48.89703" lon="-0.46473">
        <ele>163</ele>
        <time>2024-04-07T09:38:06Z</time>
      </trkpt>
      <trkpt lat="48.8971" lon="-0.4646">
        <ele>161.8</ele>
        <time>2024-04-07T09:38:07Z</time>
      </trkpt>
      <trkpt lat="48.89716" lon="-0.46447">
        <ele>160.8</ele>
        <time>2024-04-07T09:38:08Z</time>
      </trkpt>
      <trkpt lat="48.89723" lon="-0.46434">
        <ele>159.8</ele>
        <time>2024-04-07T09:38:09Z</time>
      </trkpt>
      <trkpt lat="48.8973" lon="-0.46422">
        <ele>159.2</ele>
        <time>2024-04-07T09:38:10Z</time>
      </trkpt>
      <trkpt lat="48.89739" lon="-0.46412">
        <ele>158.6</ele>
        <time>2024-04-07T09:38:11Z</time>
      </trkpt>
      <trkpt lat="48.89747" lon="-0.46403">
        <ele>158.4</ele>
        <time>2024-04-07T09:38:12Z</time>
      </trkpt>
      <trkpt lat="48.89756" lon="-0.46398">
        <ele>158.2</ele>
        <time>2024-04-07T09:38:13Z</time>
      </trkpt>
      <trkpt lat="48.89764" lon="-0.46393">
        <ele>158</ele>
        <time>2024-04-07T09:38:14Z</time>
      </trkpt>
      <trkpt lat="48.89772" lon="-0.4639">
        <ele>158</ele>
        <time>2024-04-07T09:38:15Z</time>
      </trkpt>
      <trkpt lat="48.8978" lon="-0.46387">
        <ele>158.2</ele>
        <time>2024-04-07T09:38:16Z</time>
      </trkpt>
      <trkpt lat="48.89788" lon="-0.46385">
        <ele>158.4</ele>
        <time>2024-04-07T09:38:17Z</time>
      </trkpt>
      <trkpt lat="48.89795" lon="-0.46385">
        <ele>158.6</ele>
        <time>2024-04-07T09:38:18Z</time>
      </trkpt>
      <trkpt lat="48.898" lon="-0.46389">
        <ele>159</ele>
        <time>2024-04-07T09:38:19Z</time>
      </trkpt>
      <trkpt lat="48.89806" lon="-0.46396">
        <ele>159.2</ele>
        <time>2024-04-07T09:38:20Z</time>
      </trkpt>
      <trkpt lat="48.8981" lon="-0.46404">
        <ele>159.4</ele>
        <time>2024-04-07T09:38:21Z</time>
      </trkpt>
      <trkpt lat="48.89815" lon="-0.46413">
        <ele>159.6</ele>
        <time>2024-04-07T09:38:22Z</time>
      </trkpt>
      <trkpt lat="48.89818" lon="-0.46423">
        <ele>159.6</ele>
        <time>2024-04-07T09:38:23Z</time>
      </trkpt>
      <trkpt lat="48.89821" lon="-0.46429">
        <ele>159.6</ele>
        <time>2024-04-07T09:38:24Z</time>
      </trkpt>
      <trkpt lat="48.89824" lon="-0.46435">
        <ele>159.4</ele>
        <time>2024-04-07T09:38:25Z</time>
      </trkpt>
      <trkpt lat="48.89829" lon="-0.46448">
        <ele>159.2</ele>
        <time>2024-04-07T09:38:26Z</time>
      </trkpt>
      <trkpt lat="48.89829" lon="-0.46448">
        <ele>159</ele>
        <time>2024-04-07T09:38:27Z</time>
      </trkpt>
      <trkpt lat="48.89841" lon="-0.4646">
        <ele>158.6</ele>
        <time>2024-04-07T09:38:28Z</time>
      </trkpt>
      <trkpt lat="48.89849" lon="-0.46463">
        <ele>158.4</ele>
        <time>2024-04-07T09:38:29Z</time>
      </trkpt>
      <trkpt lat="48.89857" lon="-0.46464">
        <ele>158.2</ele>
        <time>2024-04-07T09:38:30Z</time>
      </trkpt>
      <trkpt lat="48.89866" lon="-0.46462">
        <ele>157.6</ele>
        <time>2024-04-07T09:38:31Z</time>
      </trkpt>
      <trkpt lat="48.89875" lon="-0.4646">
        <ele>156.8</ele>
        <time>2024-04-07T09:38:32Z</time>
      </trkpt>
      <trkpt lat="48.89884" lon="-0.46459">
        <ele>156.2</ele>
        <time>2024-04-07T09:38:33Z</time>
      </trkpt>
      <trkpt lat="48.89893" lon="-0.46458">
        <ele>155.8</ele>
        <time>2024-04-07T09:38:34Z</time>
      </trkpt>
      <trkpt lat="48.89903" lon="-0.46461">
        <ele>155.6</ele>
        <time>2024-04-07T09:38:35Z</time>
      </trkpt>
      <trkpt lat="48.89912" lon="-0.46464">
        <ele>155</ele>
        <time>2024-04-07T09:38:36Z</time>
      </trkpt>
      <trkpt lat="48.89921" lon="-0.46469">
        <ele>154.4</ele>
        <time>2024-04-07T09:38:37Z</time>
      </trkpt>
      <trkpt lat="48.8993" lon="-0.46473">
        <ele>154</ele>
        <time>2024-04-07T09:38:38Z</time>
      </trkpt>
      <trkpt lat="48.89939" lon="-0.46476">
        <ele>153.6</ele>
        <time>2024-04-07T09:38:39Z</time>
      </trkpt>
      <trkpt lat="48.89949" lon="-0.46479">
        <ele>153.4</ele>
        <time>2024-04-07T09:38:40Z</time>
      </trkpt>
      <trkpt lat="48.89958" lon="-0.4648">
        <ele>153.2</ele>
        <time>2024-04-07T09:38:41Z</time>
      </trkpt>
      <trkpt lat="48.89967" lon="-0.46482">
        <ele>153</ele>
        <time>2024-04-07T09:38:42Z</time>
      </trkpt>
      <trkpt lat="48.89976" lon="-0.46483">
        <ele>152.6</ele>
        <time>2024-04-07T09:38:43Z</time>
      </trkpt>
      <trkpt lat="48.89983" lon="-0.46485">
        <ele>152.4</ele>
        <time>2024-04-07T09:38:44Z</time>
      </trkpt>
      <trkpt lat="48.8999" lon="-0.46486">
        <ele>152</ele>
        <time>2024-04-07T09:38:45Z</time>
      </trkpt>
      <trkpt lat="48.90004" lon="-0.46488">
        <ele>151.8</ele>
        <time>2024-04-07T09:38:46Z</time>
      </trkpt>
      <trkpt lat="48.90013" lon="-0.4649">
        <ele>151.6</ele>
        <time>2024-04-07T09:38:47Z</time>
      </trkpt>
      <trkpt lat="48.90022" lon="-0.46491">
        <ele>151.6</ele>
        <time>2024-04-07T09:38:48Z</time>
      </trkpt>
      <trkpt lat="48.90031" lon="-0.46492">
        <ele>151.4</ele>
        <time>2024-04-07T09:38:49Z</time>
      </trkpt>
      <trkpt lat="48.90038" lon="-0.46493">
        <ele>151.6</ele>
        <time>2024-04-07T09:38:50Z</time>
      </trkpt>
      <trkpt lat="48.90044" lon="-0.46494">
        <ele>151.6</ele>
        <time>2024-04-07T09:38:51Z</time>
      </trkpt>
      <trkpt lat="48.90058" lon="-0.46497">
        <ele>151.8</ele>
        <time>2024-04-07T09:38:52Z</time>
      </trkpt>
      <trkpt lat="48.90067" lon="-0.46498">
        <ele>151.8</ele>
        <time>2024-04-07T09:38:53Z</time>
      </trkpt>
      <trkpt lat="48.90076" lon="-0.465">
        <ele>151.6</ele>
        <time>2024-04-07T09:38:54Z</time>
      </trkpt>
      <trkpt lat="48.90085" lon="-0.46502">
        <ele>151.4</ele>
        <time>2024-04-07T09:38:55Z</time>
      </trkpt>
      <trkpt lat="48.90094" lon="-0.46503">
        <ele>150.8</ele>
        <time>2024-04-07T09:38:56Z</time>
      </trkpt>
      <trkpt lat="48.90103" lon="-0.46504">
        <ele>150.4</ele>
        <time>2024-04-07T09:38:57Z</time>
      </trkpt>
      <trkpt lat="48.90112" lon="-0.46506">
        <ele>149.8</ele>
        <time>2024-04-07T09:38:58Z</time>
      </trkpt>
      <trkpt lat="48.90121" lon="-0.46508">
        <ele>149.6</ele>
        <time>2024-04-07T09:38:59Z</time>
      </trkpt>
      <trkpt lat="48.9013" lon="-0.4651">
        <ele>149.6</ele>
        <time>2024-04-07T09:39:00Z</time>
      </trkpt>
      <trkpt lat="48.90139" lon="-0.46513">
        <ele>149.6</ele>
        <time>2024-04-07T09:39:01Z</time>
      </trkpt>
      <trkpt lat="48.90149" lon="-0.46515">
        <ele>149.8</ele>
        <time>2024-04-07T09:39:02Z</time>
      </trkpt>
      <trkpt lat="48.90158" lon="-0.46518">
        <ele>150</ele>
        <time>2024-04-07T09:39:03Z</time>
      </trkpt>
      <trkpt lat="48.90158" lon="-0.46518">
        <ele>150</ele>
        <time>2024-04-07T09:39:04Z</time>
      </trkpt>
      <trkpt lat="48.90177" lon="-0.46524">
        <ele>150</ele>
        <time>2024-04-07T09:39:05Z</time>
      </trkpt>
      <trkpt lat="48.90186" lon="-0.46528">
        <ele>149.8</ele>
        <time>2024-04-07T09:39:06Z</time>
      </trkpt>
      <trkpt lat="48.90196" lon="-0.46533">
        <ele>149.4</ele>
        <time>2024-04-07T09:39:07Z</time>
      </trkpt>
      <trkpt lat="48.90196" lon="-0.46533">
        <ele>149.2</ele>
        <time>2024-04-07T09:39:08Z</time>
      </trkpt>
      <trkpt lat="48.90214" lon="-0.46543">
        <ele>148.8</ele>
        <time>2024-04-07T09:39:09Z</time>
      </trkpt>
      <trkpt lat="48.90224" lon="-0.46549">
        <ele>148.4</ele>
        <time>2024-04-07T09:39:10Z</time>
      </trkpt>
      <trkpt lat="48.90234" lon="-0.46554">
        <ele>147.6</ele>
        <time>2024-04-07T09:39:11Z</time>
      </trkpt>
      <trkpt lat="48.90243" lon="-0.4656">
        <ele>146.8</ele>
        <time>2024-04-07T09:39:12Z</time>
      </trkpt>
      <trkpt lat="48.9025" lon="-0.46566">
        <ele>146.2</ele>
        <time>2024-04-07T09:39:13Z</time>
      </trkpt>
      <trkpt lat="48.90257" lon="-0.46571">
        <ele>145.6</ele>
        <time>2024-04-07T09:39:14Z</time>
      </trkpt>
      <trkpt lat="48.90272" lon="-0.46582">
        <ele>145.2</ele>
        <time>2024-04-07T09:39:15Z</time>
      </trkpt>
      <trkpt lat="48.90281" lon="-0.46591">
        <ele>145</ele>
        <time>2024-04-07T09:39:16Z</time>
      </trkpt>
      <trkpt lat="48.9029" lon="-0.46599">
        <ele>144.8</ele>
        <time>2024-04-07T09:39:17Z</time>
      </trkpt>
      <trkpt lat="48.90299" lon="-0.46608">
        <ele>144.8</ele>
        <time>2024-04-07T09:39:18Z</time>
      </trkpt>
      <trkpt lat="48.90308" lon="-0.46616">
        <ele>144.6</ele>
        <time>2024-04-07T09:39:19Z</time>
      </trkpt>
      <trkpt lat="48.90317" lon="-0.46624">
        <ele>144.8</ele>
        <time>2024-04-07T09:39:20Z</time>
      </trkpt>
      <trkpt lat="48.90326" lon="-0.46632">
        <ele>144.8</ele>
        <time>2024-04-07T09:39:21Z</time>
      </trkpt>
      <trkpt lat="48.90326" lon="-0.46632">
        <ele>145</ele>
        <time>2024-04-07T09:39:22Z</time>
      </trkpt>
      <trkpt lat="48.90344" lon="-0.46647">
        <ele>145</ele>
        <time>2024-04-07T09:39:23Z</time>
      </trkpt>
      <trkpt lat="48.90352" lon="-0.46654">
        <ele>145</ele>
        <time>2024-04-07T09:39:24Z</time>
      </trkpt>
      <trkpt lat="48.90352" lon="-0.46654">
        <ele>145.2</ele>
        <time>2024-04-07T09:39:25Z</time>
      </trkpt>
      <trkpt lat="48.9037" lon="-0.46666">
        <ele>145.2</ele>
        <time>2024-04-07T09:39:26Z</time>
      </trkpt>
      <trkpt lat="48.90379" lon="-0.46672">
        <ele>145.4</ele>
        <time>2024-04-07T09:39:27Z</time>
      </trkpt>
      <trkpt lat="48.90388" lon="-0.46678">
        <ele>145.4</ele>
        <time>2024-04-07T09:39:28Z</time>
      </trkpt>
      <trkpt lat="48.90397" lon="-0.46684">
        <ele>145.6</ele>
        <time>2024-04-07T09:39:29Z</time>
      </trkpt>
      <trkpt lat="48.90406" lon="-0.4669">
        <ele>145.6</ele>
        <time>2024-04-07T09:39:30Z</time>
      </trkpt>
      <trkpt lat="48.90415" lon="-0.46696">
        <ele>145.8</ele>
        <time>2024-04-07T09:39:31Z</time>
      </trkpt>
      <trkpt lat="48.90424" lon="-0.46702">
        <ele>145.8</ele>
        <time>2024-04-07T09:39:32Z</time>
      </trkpt>
      <trkpt lat="48.90432" lon="-0.46708">
        <ele>145.8</ele>
        <time>2024-04-07T09:39:33Z</time>
      </trkpt>
      <trkpt lat="48.9044" lon="-0.46713">
        <ele>145.6</ele>
        <time>2024-04-07T09:39:34Z</time>
      </trkpt>
      <trkpt lat="48.90448" lon="-0.46719">
        <ele>145.4</ele>
        <time>2024-04-07T09:39:35Z</time>
      </trkpt>
      <trkpt lat="48.90456" lon="-0.46724">
        <ele>145.4</ele>
        <time>2024-04-07T09:39:36Z</time>
      </trkpt>
      <trkpt lat="48.90461" lon="-0.46728">
        <ele>145.4</ele>
        <time>2024-04-07T09:39:37Z</time>
      </trkpt>
      <trkpt lat="48.90466" lon="-0.46732">
        <ele>145.4</ele>
        <time>2024-04-07T09:39:38Z</time>
      </trkpt>
      <trkpt lat="48.90477" lon="-0.4674">
        <ele>145.6</ele>
        <time>2024-04-07T09:39:39Z</time>
      </trkpt>
      <trkpt lat="48.90484" lon="-0.46746">
        <ele>145.8</ele>
        <time>2024-04-07T09:39:40Z</time>
      </trkpt>
      <trkpt lat="48.90489" lon="-0.4675">
        <ele>146</ele>
        <time>2024-04-07T09:39:41Z</time>
      </trkpt>
      <trkpt lat="48.90493" lon="-0.46755">
        <ele>146.4</ele>
        <time>2024-04-07T09:39:42Z</time>
      </trkpt>
      <trkpt lat="48.90503" lon="-0.46763">
        <ele>146.6</ele>
        <time>2024-04-07T09:39:43Z</time>
      </trkpt>
      <trkpt lat="48.9051" lon="-0.46769">
        <ele>147</ele>
        <time>2024-04-07T09:39:44Z</time>
      </trkpt>
      <trkpt lat="48.90513" lon="-0.46772">
        <ele>147.2</ele>
        <time>2024-04-07T09:39:45Z</time>
      </trkpt>
      <trkpt lat="48.90516" lon="-0.46775">
        <ele>147.4</ele>
        <time>2024-04-07T09:39:46Z</time>
      </trkpt>
      <trkpt lat="48.90522" lon="-0.46781">
        <ele>147.4</ele>
        <time>2024-04-07T09:39:47Z</time>
      </trkpt>
      <trkpt lat="48.90529" lon="-0.46786">
        <ele>147.6</ele>
        <time>2024-04-07T09:39:48Z</time>
      </trkpt>
      <trkpt lat="48.90537" lon="-0.46788">
        <ele>147.6</ele>
        <time>2024-04-07T09:39:49Z</time>
      </trkpt>
      <trkpt lat="48.90544" lon="-0.46788">
        <ele>147.6</ele>
        <time>2024-04-07T09:39:50Z</time>
      </trkpt>
      <trkpt lat="48.90551" lon="-0.46784">
        <ele>147.6</ele>
        <time>2024-04-07T09:39:51Z</time>
      </trkpt>
      <trkpt lat="48.90563" lon="-0.46773">
        <ele>147.6</ele>
        <time>2024-04-07T09:39:52Z</time>
      </trkpt>
      <trkpt lat="48.90566" lon="-0.4677">
        <ele>147.8</ele>
        <time>2024-04-07T09:39:53Z</time>
      </trkpt>
      <trkpt lat="48.90569" lon="-0.46768">
        <ele>147.8</ele>
        <time>2024-04-07T09:39:54Z</time>
      </trkpt>
      <trkpt lat="48.90574" lon="-0.46764">
        <ele>147.8</ele>
        <time>2024-04-07T09:39:55Z</time>
      </trkpt>
      <trkpt lat="48.90579" lon="-0.46764">
        <ele>147.8</ele>
        <time>2024-04-07T09:39:56Z</time>
      </trkpt>
      <trkpt lat="48.90585" lon="-0.46768">
        <ele>148</ele>
        <time>2024-04-07T09:39:57Z</time>
      </trkpt>
      <trkpt lat="48.9059" lon="-0.46775">
        <ele>148</ele>
        <time>2024-04-07T09:39:58Z</time>
      </trkpt>
      <trkpt lat="48.90599" lon="-0.46793">
        <ele>148.2</ele>
        <time>2024-04-07T09:39:59Z</time>
      </trkpt>
      <trkpt lat="48.90605" lon="-0.46804">
        <ele>148</ele>
        <time>2024-04-07T09:40:00Z</time>
      </trkpt>
      <trkpt lat="48.9061" lon="-0.46815">
        <ele>147.8</ele>
        <time>2024-04-07T09:40:01Z</time>
      </trkpt>
      <trkpt lat="48.90615" lon="-0.46826">
        <ele>147.4</ele>
        <time>2024-04-07T09:40:02Z</time>
      </trkpt>
      <trkpt lat="48.9062" lon="-0.46838">
        <ele>147.2</ele>
        <time>2024-04-07T09:40:03Z</time>
      </trkpt>
      <trkpt lat="48.90626" lon="-0.46849">
        <ele>147</ele>
        <time>2024-04-07T09:40:04Z</time>
      </trkpt>
      <trkpt lat="48.90632" lon="-0.46859">
        <ele>146.8</ele>
        <time>2024-04-07T09:40:05Z</time>
      </trkpt>
      <trkpt lat="48.90635" lon="-0.46864">
        <ele>146.4</ele>
        <time>2024-04-07T09:40:06Z</time>
      </trkpt>
      <trkpt lat="48.90639" lon="-0.46868">
        <ele>146</ele>
        <time>2024-04-07T09:40:07Z</time>
      </trkpt>
      <trkpt lat="48.90655" lon="-0.46882">
        <ele>145.6</ele>
        <time>2024-04-07T09:40:08Z</time>
      </trkpt>
      <trkpt lat="48.90664" lon="-0.46887">
        <ele>145.2</ele>
        <time>2024-04-07T09:40:09Z</time>
      </trkpt>
      <trkpt lat="48.90673" lon="-0.46891">
        <ele>145</ele>
        <time>2024-04-07T09:40:10Z</time>
      </trkpt>
      <trkpt lat="48.90682" lon="-0.46896">
        <ele>144.6</ele>
        <time>2024-04-07T09:40:11Z</time>
      </trkpt>
      <trkpt lat="48.90688" lon="-0.46899">
        <ele>144.2</ele>
        <time>2024-04-07T09:40:12Z</time>
      </trkpt>
      <trkpt lat="48.90695" lon="-0.46903">
        <ele>143.8</ele>
        <time>2024-04-07T09:40:13Z</time>
      </trkpt>
      <trkpt lat="48.90709" lon="-0.4691">
        <ele>143.2</ele>
        <time>2024-04-07T09:40:14Z</time>
      </trkpt>
      <trkpt lat="48.90718" lon="-0.46914">
        <ele>142.8</ele>
        <time>2024-04-07T09:40:15Z</time>
      </trkpt>
      <trkpt lat="48.90727" lon="-0.46919">
        <ele>142.2</ele>
        <time>2024-04-07T09:40:16Z</time>
      </trkpt>
      <trkpt lat="48.90737" lon="-0.46924">
        <ele>141.8</ele>
        <time>2024-04-07T09:40:17Z</time>
      </trkpt>
      <trkpt lat="48.90744" lon="-0.46928">
        <ele>141.6</ele>
        <time>2024-04-07T09:40:18Z</time>
      </trkpt>
      <trkpt lat="48.90752" lon="-0.46932">
        <ele>141.2</ele>
        <time>2024-04-07T09:40:19Z</time>
      </trkpt>
      <trkpt lat="48.90766" lon="-0.4694">
        <ele>140.6</ele>
        <time>2024-04-07T09:40:20Z</time>
      </trkpt>
      <trkpt lat="48.90776" lon="-0.46945">
        <ele>139.8</ele>
        <time>2024-04-07T09:40:21Z</time>
      </trkpt>
      <trkpt lat="48.90786" lon="-0.46951">
        <ele>138.8</ele>
        <time>2024-04-07T09:40:22Z</time>
      </trkpt>
      <trkpt lat="48.90795" lon="-0.46956">
        <ele>138.2</ele>
        <time>2024-04-07T09:40:23Z</time>
      </trkpt>
      <trkpt lat="48.90804" lon="-0.46961">
        <ele>137.6</ele>
        <time>2024-04-07T09:40:24Z</time>
      </trkpt>
      <trkpt lat="48.90813" lon="-0.46966">
        <ele>136.8</ele>
        <time>2024-04-07T09:40:25Z</time>
      </trkpt>
      <trkpt lat="48.90822" lon="-0.46971">
        <ele>136.4</ele>
        <time>2024-04-07T09:40:26Z</time>
      </trkpt>
      <trkpt lat="48.90831" lon="-0.46976">
        <ele>135.8</ele>
        <time>2024-04-07T09:40:27Z</time>
      </trkpt>
      <trkpt lat="48.90839" lon="-0.46981">
        <ele>135.2</ele>
        <time>2024-04-07T09:40:28Z</time>
      </trkpt>
      <trkpt lat="48.90844" lon="-0.46985">
        <ele>134.6</ele>
        <time>2024-04-07T09:40:29Z</time>
      </trkpt>
      <trkpt lat="48.90849" lon="-0.46989">
        <ele>134.2</ele>
        <time>2024-04-07T09:40:30Z</time>
      </trkpt>
      <trkpt lat="48.90859" lon="-0.46996">
        <ele>133.6</ele>
        <time>2024-04-07T09:40:31Z</time>
      </trkpt>
      <trkpt lat="48.90866" lon="-0.47001">
        <ele>133.2</ele>
        <time>2024-04-07T09:40:32Z</time>
      </trkpt>
      <trkpt lat="48.90872" lon="-0.47007">
        <ele>133</ele>
        <time>2024-04-07T09:40:33Z</time>
      </trkpt>
      <trkpt lat="48.90878" lon="-0.47015">
        <ele>132.4</ele>
        <time>2024-04-07T09:40:34Z</time>
      </trkpt>
      <trkpt lat="48.90883" lon="-0.47025">
        <ele>132</ele>
        <time>2024-04-07T09:40:35Z</time>
      </trkpt>
      <trkpt lat="48.90888" lon="-0.47037">
        <ele>131.2</ele>
        <time>2024-04-07T09:40:36Z</time>
      </trkpt>
      <trkpt lat="48.90891" lon="-0.4705">
        <ele>130.2</ele>
        <time>2024-04-07T09:40:37Z</time>
      </trkpt>
      <trkpt lat="48.90894" lon="-0.47064">
        <ele>129.2</ele>
        <time>2024-04-07T09:40:38Z</time>
      </trkpt>
      <trkpt lat="48.90897" lon="-0.47079">
        <ele>128.2</ele>
        <time>2024-04-07T09:40:39Z</time>
      </trkpt>
      <trkpt lat="48.909" lon="-0.47094">
        <ele>127</ele>
        <time>2024-04-07T09:40:40Z</time>
      </trkpt>
      <trkpt lat="48.90902" lon="-0.47109">
        <ele>125.6</ele>
        <time>2024-04-07T09:40:41Z</time>
      </trkpt>
      <trkpt lat="48.90902" lon="-0.47124">
        <ele>124</ele>
        <time>2024-04-07T09:40:42Z</time>
      </trkpt>
      <trkpt lat="48.90901" lon="-0.47138">
        <ele>122.2</ele>
        <time>2024-04-07T09:40:43Z</time>
      </trkpt>
      <trkpt lat="48.90899" lon="-0.47152">
        <ele>121</ele>
        <time>2024-04-07T09:40:44Z</time>
      </trkpt>
      <trkpt lat="48.90896" lon="-0.47166">
        <ele>120</ele>
        <time>2024-04-07T09:40:45Z</time>
      </trkpt>
      <trkpt lat="48.90894" lon="-0.4718">
        <ele>119.6</ele>
        <time>2024-04-07T09:40:46Z</time>
      </trkpt>
      <trkpt lat="48.90892" lon="-0.47194">
        <ele>119.4</ele>
        <time>2024-04-07T09:40:47Z</time>
      </trkpt>
      <trkpt lat="48.90891" lon="-0.47207">
        <ele>119.6</ele>
        <time>2024-04-07T09:40:48Z</time>
      </trkpt>
      <trkpt lat="48.90891" lon="-0.4722">
        <ele>119.8</ele>
        <time>2024-04-07T09:40:49Z</time>
      </trkpt>
      <trkpt lat="48.90889" lon="-0.47232">
        <ele>120.2</ele>
        <time>2024-04-07T09:40:50Z</time>
      </trkpt>
      <trkpt lat="48.90889" lon="-0.47244">
        <ele>120.6</ele>
        <time>2024-04-07T09:40:51Z</time>
      </trkpt>
      <trkpt lat="48.90888" lon="-0.47254">
        <ele>121</ele>
        <time>2024-04-07T09:40:52Z</time>
      </trkpt>
      <trkpt lat="48.90887" lon="-0.47264">
        <ele>121.4</ele>
        <time>2024-04-07T09:40:53Z</time>
      </trkpt>
      <trkpt lat="48.90886" lon="-0.47274">
        <ele>122.2</ele>
        <time>2024-04-07T09:40:54Z</time>
      </trkpt>
      <trkpt lat="48.90886" lon="-0.47283">
        <ele>122.8</ele>
        <time>2024-04-07T09:40:55Z</time>
      </trkpt>
      <trkpt lat="48.90885" lon="-0.47293">
        <ele>123.8</ele>
        <time>2024-04-07T09:40:56Z</time>
      </trkpt>
      <trkpt lat="48.90884" lon="-0.47303">
        <ele>124.8</ele>
        <time>2024-04-07T09:40:57Z</time>
      </trkpt>
      <trkpt lat="48.90883" lon="-0.47312">
        <ele>125.6</ele>
        <time>2024-04-07T09:40:58Z</time>
      </trkpt>
      <trkpt lat="48.90883" lon="-0.47321">
        <ele>126</ele>
        <time>2024-04-07T09:40:59Z</time>
      </trkpt>
      <trkpt lat="48.90882" lon="-0.47331">
        <ele>126.4</ele>
        <time>2024-04-07T09:41:00Z</time>
      </trkpt>
      <trkpt lat="48.90882" lon="-0.4734">
        <ele>126.8</ele>
        <time>2024-04-07T09:41:01Z</time>
      </trkpt>
      <trkpt lat="48.90882" lon="-0.4735">
        <ele>126.8</ele>
        <time>2024-04-07T09:41:02Z</time>
      </trkpt>
      <trkpt lat="48.90882" lon="-0.4736">
        <ele>127</ele>
        <time>2024-04-07T09:41:03Z</time>
      </trkpt>
      <trkpt lat="48.90882" lon="-0.4737">
        <ele>127</ele>
        <time>2024-04-07T09:41:04Z</time>
      </trkpt>
      <trkpt lat="48.90882" lon="-0.47381">
        <ele>127</ele>
        <time>2024-04-07T09:41:05Z</time>
      </trkpt>
      <trkpt lat="48.90881" lon="-0.47392">
        <ele>126.6</ele>
        <time>2024-04-07T09:41:06Z</time>
      </trkpt>
      <trkpt lat="48.90881" lon="-0.47403">
        <ele>126.4</ele>
        <time>2024-04-07T09:41:07Z</time>
      </trkpt>
      <trkpt lat="48.90881" lon="-0.47415">
        <ele>126.2</ele>
        <time>2024-04-07T09:41:08Z</time>
      </trkpt>
      <trkpt lat="48.90881" lon="-0.47428">
        <ele>126</ele>
        <time>2024-04-07T09:41:09Z</time>
      </trkpt>
      <trkpt lat="48.90881" lon="-0.4744">
        <ele>125.8</ele>
        <time>2024-04-07T09:41:10Z</time>
      </trkpt>
      <trkpt lat="48.90882" lon="-0.47454">
        <ele>125.4</ele>
        <time>2024-04-07T09:41:11Z</time>
      </trkpt>
      <trkpt lat="48.90883" lon="-0.47467">
        <ele>124.8</ele>
        <time>2024-04-07T09:41:12Z</time>
      </trkpt>
      <trkpt lat="48.90885" lon="-0.4748">
        <ele>124.2</ele>
        <time>2024-04-07T09:41:13Z</time>
      </trkpt>
      <trkpt lat="48.90886" lon="-0.47493">
        <ele>123.8</ele>
        <time>2024-04-07T09:41:14Z</time>
      </trkpt>
      <trkpt lat="48.90889" lon="-0.47506">
        <ele>123.2</ele>
        <time>2024-04-07T09:41:15Z</time>
      </trkpt>
      <trkpt lat="48.90891" lon="-0.47518">
        <ele>122.8</ele>
        <time>2024-04-07T09:41:16Z</time>
      </trkpt>
      <trkpt lat="48.90894" lon="-0.47531">
        <ele>122.6</ele>
        <time>2024-04-07T09:41:17Z</time>
      </trkpt>
      <trkpt lat="48.90897" lon="-0.47542">
        <ele>122.4</ele>
        <time>2024-04-07T09:41:18Z</time>
      </trkpt>
      <trkpt lat="48.909" lon="-0.47553">
        <ele>122.4</ele>
        <time>2024-04-07T09:41:19Z</time>
      </trkpt>
      <trkpt lat="48.90903" lon="-0.47563">
        <ele>122.2</ele>
        <time>2024-04-07T09:41:20Z</time>
      </trkpt>
      <trkpt lat="48.90907" lon="-0.47573">
        <ele>122.2</ele>
        <time>2024-04-07T09:41:21Z</time>
      </trkpt>
      <trkpt lat="48.90912" lon="-0.47582">
        <ele>122</ele>
        <time>2024-04-07T09:41:22Z</time>
      </trkpt>
      <trkpt lat="48.90918" lon="-0.47591">
        <ele>122</ele>
        <time>2024-04-07T09:41:23Z</time>
      </trkpt>
      <trkpt lat="48.90923" lon="-0.47598">
        <ele>122</ele>
        <time>2024-04-07T09:41:24Z</time>
      </trkpt>
      <trkpt lat="48.90929" lon="-0.47605">
        <ele>121.8</ele>
        <time>2024-04-07T09:41:25Z</time>
      </trkpt>
      <trkpt lat="48.90935" lon="-0.47611">
        <ele>121.8</ele>
        <time>2024-04-07T09:41:26Z</time>
      </trkpt>
      <trkpt lat="48.90941" lon="-0.47617">
        <ele>121.8</ele>
        <time>2024-04-07T09:41:27Z</time>
      </trkpt>
      <trkpt lat="48.90948" lon="-0.47622">
        <ele>121.8</ele>
        <time>2024-04-07T09:41:28Z</time>
      </trkpt>
      <trkpt lat="48.90954" lon="-0.47627">
        <ele>121.8</ele>
        <time>2024-04-07T09:41:29Z</time>
      </trkpt>
      <trkpt lat="48.90961" lon="-0.47631">
        <ele>121.6</ele>
        <time>2024-04-07T09:41:30Z</time>
      </trkpt>
      <trkpt lat="48.90968" lon="-0.47634">
        <ele>121.4</ele>
        <time>2024-04-07T09:41:31Z</time>
      </trkpt>
      <trkpt lat="48.90974" lon="-0.47637">
        <ele>121.2</ele>
        <time>2024-04-07T09:41:32Z</time>
      </trkpt>
      <trkpt lat="48.9098" lon="-0.47639">
        <ele>121.2</ele>
        <time>2024-04-07T09:41:33Z</time>
      </trkpt>
      <trkpt lat="48.90987" lon="-0.4764">
        <ele>121.2</ele>
        <time>2024-04-07T09:41:34Z</time>
      </trkpt>
      <trkpt lat="48.90993" lon="-0.47641">
        <ele>121.4</ele>
        <time>2024-04-07T09:41:35Z</time>
      </trkpt>
      <trkpt lat="48.90999" lon="-0.4764">
        <ele>121.6</ele>
        <time>2024-04-07T09:41:36Z</time>
      </trkpt>
      <trkpt lat="48.91004" lon="-0.4764">
        <ele>121.8</ele>
        <time>2024-04-07T09:41:37Z</time>
      </trkpt>
      <trkpt lat="48.9101" lon="-0.4764">
        <ele>122</ele>
        <time>2024-04-07T09:41:38Z</time>
      </trkpt>
      <trkpt lat="48.91016" lon="-0.47639">
        <ele>122</ele>
        <time>2024-04-07T09:41:39Z</time>
      </trkpt>
      <trkpt lat="48.9102" lon="-0.47638">
        <ele>122.2</ele>
        <time>2024-04-07T09:41:40Z</time>
      </trkpt>
      <trkpt lat="48.91024" lon="-0.47639">
        <ele>122.2</ele>
        <time>2024-04-07T09:41:41Z</time>
      </trkpt>
      <trkpt lat="48.91027" lon="-0.47638">
        <ele>122.2</ele>
        <time>2024-04-07T09:41:42Z</time>
      </trkpt>
      <trkpt lat="48.91029" lon="-0.47638">
        <ele>122.2</ele>
        <time>2024-04-07T09:41:43Z</time>
      </trkpt>
      <trkpt lat="48.9103" lon="-0.47638">
        <ele>122.2</ele>
        <time>2024-04-07T09:41:44Z</time>
      </trkpt>
      <trkpt lat="48.9103" lon="-0.47638">
        <ele>122.4</ele>
        <time>2024-04-07T09:41:45Z</time>
      </trkpt>
      <trkpt lat="48.9103" lon="-0.47639">
        <ele>122.6</ele>
        <time>2024-04-07T09:41:46Z</time>
      </trkpt>
      <trkpt lat="48.91038" lon="-0.47639">
        <ele>122.6</ele>
        <time>2024-04-07T09:51:10Z</time>
      </trkpt>
      <trkpt lat="48.9104" lon="-0.4764">
        <ele>122.6</ele>
        <time>2024-04-07T09:51:11Z</time>
      </trkpt>
      <trkpt lat="48.91042" lon="-0.47639">
        <ele>122.6</ele>
        <time>2024-04-07T09:51:12Z</time>
      </trkpt>
      <trkpt lat="48.91044" lon="-0.47639">
        <ele>122.6</ele>
        <time>2024-04-07T09:51:13Z</time>
      </trkpt>
      <trkpt lat="48.91047" lon="-0.47638">
        <ele>122.6</ele>
        <time>2024-04-07T09:51:14Z</time>
      </trkpt>
      <trkpt lat="48.9105" lon="-0.47638">
        <ele>122.6</ele>
        <time>2024-04-07T09:51:15Z</time>
      </trkpt>
      <trkpt lat="48.91054" lon="-0.47638">
        <ele>122.6</ele>
        <time>2024-04-07T09:51:16Z</time>
      </trkpt>
      <trkpt lat="48.91057" lon="-0.47638">
        <ele>122.6</ele>
        <time>2024-04-07T09:51:17Z</time>
      </trkpt>
      <trkpt lat="48.91061" lon="-0.47638">
        <ele>122.4</ele>
        <time>2024-04-07T09:51:18Z</time>
      </trkpt>
      <trkpt lat="48.91066" lon="-0.47637">
        <ele>122.2</ele>
        <time>2024-04-07T09:51:19Z</time>
      </trkpt>
      <trkpt lat="48.91071" lon="-0.47635">
        <ele>122</ele>
        <time>2024-04-07T09:51:20Z</time>
      </trkpt>
      <trkpt lat="48.91075" lon="-0.47634">
        <ele>121.8</ele>
        <time>2024-04-07T09:51:21Z</time>
      </trkpt>
      <trkpt lat="48.9108" lon="-0.47633">
        <ele>121.6</ele>
        <time>2024-04-07T09:51:22Z</time>
      </trkpt>
      <trkpt lat="48.91086" lon="-0.47633">
        <ele>121.6</ele>
        <time>2024-04-07T09:51:23Z</time>
      </trkpt>
      <trkpt lat="48.91091" lon="-0.47632">
        <ele>121.4</ele>
        <time>2024-04-07T09:51:24Z</time>
      </trkpt>
      <trkpt lat="48.91097" lon="-0.47631">
        <ele>121.4</ele>
        <time>2024-04-07T09:51:25Z</time>
      </trkpt>
      <trkpt lat="48.91104" lon="-0.4763">
        <ele>121.4</ele>
        <time>2024-04-07T09:51:26Z</time>
      </trkpt>
      <trkpt lat="48.9111" lon="-0.47629">
        <ele>121.2</ele>
        <time>2024-04-07T09:51:27Z</time>
      </trkpt>
      <trkpt lat="48.91116" lon="-0.47628">
        <ele>121</ele>
        <time>2024-04-07T09:51:28Z</time>
      </trkpt>
      <trkpt lat="48.91123" lon="-0.47627">
        <ele>120.8</ele>
        <time>2024-04-07T09:51:29Z</time>
      </trkpt>
      <trkpt lat="48.9113" lon="-0.47626">
        <ele>120.6</ele>
        <time>2024-04-07T09:51:30Z</time>
      </trkpt>
      <trkpt lat="48.91137" lon="-0.47626">
        <ele>120.6</ele>
        <time>2024-04-07T09:51:31Z</time>
      </trkpt>
      <trkpt lat="48.91144" lon="-0.47626">
        <ele>120.6</ele>
        <time>2024-04-07T09:51:32Z</time>
      </trkpt>
      <trkpt lat="48.91151" lon="-0.47626">
        <ele>120.6</ele>
        <time>2024-04-07T09:51:33Z</time>
      </trkpt>
      <trkpt lat="48.91157" lon="-0.47626">
        <ele>120.6</ele>
        <time>2024-04-07T09:51:34Z</time>
      </trkpt>
      <trkpt lat="48.91164" lon="-0.47625">
        <ele>120.6</ele>
        <time>2024-04-07T09:51:35Z</time>
      </trkpt>
      <trkpt lat="48.9117" lon="-0.47625">
        <ele>120.6</ele>
        <time>2024-04-07T09:51:36Z</time>
      </trkpt>
      <trkpt lat="48.91176" lon="-0.47625">
        <ele>120.6</ele>
        <time>2024-04-07T09:51:37Z</time>
      </trkpt>
      <trkpt lat="48.91182" lon="-0.47625">
        <ele>120.6</ele>
        <time>2024-04-07T09:51:38Z</time>
      </trkpt>
      <trkpt lat="48.91189" lon="-0.47624">
        <ele>120.6</ele>
        <time>2024-04-07T09:51:39Z</time>
      </trkpt>
      <trkpt lat="48.91195" lon="-0.47624">
        <ele>120.6</ele>
        <time>2024-04-07T09:51:40Z</time>
      </trkpt>
      <trkpt lat="48.91202" lon="-0.47622">
        <ele>120.4</ele>
        <time>2024-04-07T09:51:41Z</time>
      </trkpt>
      <trkpt lat="48.91208" lon="-0.47621">
        <ele>120.4</ele>
        <time>2024-04-07T09:51:42Z</time>
      </trkpt>
      <trkpt lat="48.91214" lon="-0.47619">
        <ele>120.2</ele>
        <time>2024-04-07T09:51:43Z</time>
      </trkpt>
      <trkpt lat="48.91221" lon="-0.47618">
        <ele>120</ele>
        <time>2024-04-07T09:51:44Z</time>
      </trkpt>
      <trkpt lat="48.91228" lon="-0.47615">
        <ele>119.8</ele>
        <time>2024-04-07T09:51:45Z</time>
      </trkpt>
      <trkpt lat="48.91235" lon="-0.47613">
        <ele>119.8</ele>
        <time>2024-04-07T09:51:46Z</time>
      </trkpt>
      <trkpt lat="48.91242" lon="-0.47612">
        <ele>119.8</ele>
        <time>2024-04-07T09:51:47Z</time>
      </trkpt>
      <trkpt lat="48.9125" lon="-0.47611">
        <ele>119.8</ele>
        <time>2024-04-07T09:51:48Z</time>
      </trkpt>
      <trkpt lat="48.91256" lon="-0.47611">
        <ele>119.6</ele>
        <time>2024-04-07T09:51:49Z</time>
      </trkpt>
      <trkpt lat="48.91263" lon="-0.4761">
        <ele>119.6</ele>
        <time>2024-04-07T09:51:50Z</time>
      </trkpt>
      <trkpt lat="48.9127" lon="-0.47609">
        <ele>119.4</ele>
        <time>2024-04-07T09:51:51Z</time>
      </trkpt>
      <trkpt lat="48.91277" lon="-0.47607">
        <ele>119.2</ele>
        <time>2024-04-07T09:51:52Z</time>
      </trkpt>
      <trkpt lat="48.91284" lon="-0.47606">
        <ele>119.2</ele>
        <time>2024-04-07T09:51:53Z</time>
      </trkpt>
      <trkpt lat="48.91291" lon="-0.47605">
        <ele>119.2</ele>
        <time>2024-04-07T09:51:54Z</time>
      </trkpt>
      <trkpt lat="48.91298" lon="-0.47605">
        <ele>119.4</ele>
        <time>2024-04-07T09:51:55Z</time>
      </trkpt>
      <trkpt lat="48.91305" lon="-0.47606">
        <ele>119.4</ele>
        <time>2024-04-07T09:51:56Z</time>
      </trkpt>
      <trkpt lat="48.91311" lon="-0.47607">
        <ele>119.6</ele>
        <time>2024-04-07T09:51:57Z</time>
      </trkpt>
      <trkpt lat="48.91317" lon="-0.47608">
        <ele>119.6</ele>
        <time>2024-04-07T09:51:58Z</time>
      </trkpt>
      <trkpt lat="48.91323" lon="-0.47609">
        <ele>119.6</ele>
        <time>2024-04-07T09:51:59Z</time>
      </trkpt>
      <trkpt lat="48.91329" lon="-0.4761">
        <ele>119.8</ele>
        <time>2024-04-07T09:52:00Z</time>
      </trkpt>
      <trkpt lat="48.91334" lon="-0.47612">
        <ele>120</ele>
        <time>2024-04-07T09:52:01Z</time>
      </trkpt>
      <trkpt lat="48.91339" lon="-0.47614">
        <ele>120.4</ele>
        <time>2024-04-07T09:52:02Z</time>
      </trkpt>
      <trkpt lat="48.91344" lon="-0.47616">
        <ele>120.8</ele>
        <time>2024-04-07T09:52:03Z</time>
      </trkpt>
      <trkpt lat="48.91349" lon="-0.47618">
        <ele>121.2</ele>
        <time>2024-04-07T09:52:04Z</time>
      </trkpt>
      <trkpt lat="48.91355" lon="-0.4762">
        <ele>121.4</ele>
        <time>2024-04-07T09:52:05Z</time>
      </trkpt>
      <trkpt lat="48.9136" lon="-0.47621">
        <ele>121.6</ele>
        <time>2024-04-07T09:52:06Z</time>
      </trkpt>
      <trkpt lat="48.91366" lon="-0.47621">
        <ele>121.6</ele>
        <time>2024-04-07T09:52:07Z</time>
      </trkpt>
      <trkpt lat="48.91371" lon="-0.4762">
        <ele>121.6</ele>
        <time>2024-04-07T09:52:08Z</time>
      </trkpt>
      <trkpt lat="48.91377" lon="-0.47619">
        <ele>121.4</ele>
        <time>2024-04-07T09:52:09Z</time>
      </trkpt>
      <trkpt lat="48.91384" lon="-0.47617">
        <ele>121.4</ele>
        <time>2024-04-07T09:52:10Z</time>
      </trkpt>
      <trkpt lat="48.9139" lon="-0.47615">
        <ele>121.2</ele>
        <time>2024-04-07T09:52:11Z</time>
      </trkpt>
      <trkpt lat="48.91396" lon="-0.47614">
        <ele>121.2</ele>
        <time>2024-04-07T09:52:12Z</time>
      </trkpt>
      <trkpt lat="48.91403" lon="-0.47612">
        <ele>121.2</ele>
        <time>2024-04-07T09:52:13Z</time>
      </trkpt>
      <trkpt lat="48.91409" lon="-0.47611">
        <ele>121</ele>
        <time>2024-04-07T09:52:14Z</time>
      </trkpt>
      <trkpt lat="48.91414" lon="-0.4761">
        <ele>121</ele>
        <time>2024-04-07T09:52:15Z</time>
      </trkpt>
      <trkpt lat="48.9142" lon="-0.4761">
        <ele>121</ele>
        <time>2024-04-07T09:52:16Z</time>
      </trkpt>
      <trkpt lat="48.91426" lon="-0.4761">
        <ele>121</ele>
        <time>2024-04-07T09:52:17Z</time>
      </trkpt>
      <trkpt lat="48.91432" lon="-0.4761">
        <ele>121</ele>
        <time>2024-04-07T09:52:18Z</time>
      </trkpt>
      <trkpt lat="48.91439" lon="-0.47611">
        <ele>121</ele>
        <time>2024-04-07T09:52:19Z</time>
      </trkpt>
      <trkpt lat="48.91445" lon="-0.47611">
        <ele>121</ele>
        <time>2024-04-07T09:52:20Z</time>
      </trkpt>
      <trkpt lat="48.91451" lon="-0.47612">
        <ele>120.6</ele>
        <time>2024-04-07T09:52:21Z</time>
      </trkpt>
      <trkpt lat="48.91458" lon="-0.47612">
        <ele>120.4</ele>
        <time>2024-04-07T09:52:22Z</time>
      </trkpt>
      <trkpt lat="48.91465" lon="-0.47613">
        <ele>120.2</ele>
        <time>2024-04-07T09:52:23Z</time>
      </trkpt>
      <trkpt lat="48.91472" lon="-0.47614">
        <ele>119.8</ele>
        <time>2024-04-07T09:52:24Z</time>
      </trkpt>
      <trkpt lat="48.91478" lon="-0.47616">
        <ele>119.6</ele>
        <time>2024-04-07T09:52:25Z</time>
      </trkpt>
      <trkpt lat="48.91486" lon="-0.47617">
        <ele>119.4</ele>
        <time>2024-04-07T09:52:26Z</time>
      </trkpt>
      <trkpt lat="48.91493" lon="-0.47619">
        <ele>119.4</ele>
        <time>2024-04-07T09:52:27Z</time>
      </trkpt>
      <trkpt lat="48.91499" lon="-0.4762">
        <ele>119.2</ele>
        <time>2024-04-07T09:52:28Z</time>
      </trkpt>
      <trkpt lat="48.91505" lon="-0.47622">
        <ele>119.2</ele>
        <time>2024-04-07T09:52:29Z</time>
      </trkpt>
      <trkpt lat="48.91512" lon="-0.47624">
        <ele>119.2</ele>
        <time>2024-04-07T09:52:30Z</time>
      </trkpt>
      <trkpt lat="48.91518" lon="-0.47626">
        <ele>119.4</ele>
        <time>2024-04-07T09:52:31Z</time>
      </trkpt>
      <trkpt lat="48.91524" lon="-0.47628">
        <ele>119.6</ele>
        <time>2024-04-07T09:52:32Z</time>
      </trkpt>
      <trkpt lat="48.9153" lon="-0.4763">
        <ele>119.6</ele>
        <time>2024-04-07T09:52:33Z</time>
      </trkpt>
      <trkpt lat="48.91535" lon="-0.47632">
        <ele>120</ele>
        <time>2024-04-07T09:52:34Z</time>
      </trkpt>
      <trkpt lat="48.9154" lon="-0.47633">
        <ele>120.4</ele>
        <time>2024-04-07T09:52:35Z</time>
      </trkpt>
      <trkpt lat="48.91546" lon="-0.47635">
        <ele>120.8</ele>
        <time>2024-04-07T09:52:36Z</time>
      </trkpt>
      <trkpt lat="48.9155" lon="-0.47637">
        <ele>121</ele>
        <time>2024-04-07T09:52:37Z</time>
      </trkpt>
      <trkpt lat="48.91555" lon="-0.47638">
        <ele>121.2</ele>
        <time>2024-04-07T09:52:38Z</time>
      </trkpt>
      <trkpt lat="48.9156" lon="-0.47639">
        <ele>121.4</ele>
        <time>2024-04-07T09:52:39Z</time>
      </trkpt>
      <trkpt lat="48.91565" lon="-0.4764">
        <ele>121.6</ele>
        <time>2024-04-07T09:52:40Z</time>
      </trkpt>
      <trkpt lat="48.9157" lon="-0.47641">
        <ele>122</ele>
        <time>2024-04-07T09:52:41Z</time>
      </trkpt>
      <trkpt lat="48.91575" lon="-0.47642">
        <ele>122.4</ele>
        <time>2024-04-07T09:52:42Z</time>
      </trkpt>
      <trkpt lat="48.9158" lon="-0.47642">
        <ele>122.8</ele>
        <time>2024-04-07T09:52:43Z</time>
      </trkpt>
      <trkpt lat="48.91584" lon="-0.47643">
        <ele>123</ele>
        <time>2024-04-07T09:52:44Z</time>
      </trkpt>
      <trkpt lat="48.91589" lon="-0.47644">
        <ele>123.2</ele>
        <time>2024-04-07T09:52:45Z</time>
      </trkpt>
      <trkpt lat="48.91593" lon="-0.47645">
        <ele>123.4</ele>
        <time>2024-04-07T09:52:46Z</time>
      </trkpt>
      <trkpt lat="48.91599" lon="-0.47645">
        <ele>123.6</ele>
        <time>2024-04-07T09:52:47Z</time>
      </trkpt>
      <trkpt lat="48.91604" lon="-0.47646">
        <ele>123.6</ele>
        <time>2024-04-07T09:52:48Z</time>
      </trkpt>
      <trkpt lat="48.91609" lon="-0.47647">
        <ele>123.6</ele>
        <time>2024-04-07T09:52:49Z</time>
      </trkpt>
      <trkpt lat="48.91615" lon="-0.47648">
        <ele>123.6</ele>
        <time>2024-04-07T09:52:50Z</time>
      </trkpt>
      <trkpt lat="48.9162" lon="-0.47648">
        <ele>123.6</ele>
        <time>2024-04-07T09:52:51Z</time>
      </trkpt>
      <trkpt lat="48.91625" lon="-0.47648">
        <ele>123.6</ele>
        <time>2024-04-07T09:52:52Z</time>
      </trkpt>
      <trkpt lat="48.9163" lon="-0.47648">
        <ele>123.6</ele>
        <time>2024-04-07T09:52:53Z</time>
      </trkpt>
      <trkpt lat="48.91634" lon="-0.47649">
        <ele>123.6</ele>
        <time>2024-04-07T09:52:54Z</time>
      </trkpt>
      <trkpt lat="48.91638" lon="-0.47649">
        <ele>123.4</ele>
        <time>2024-04-07T09:52:55Z</time>
      </trkpt>
      <trkpt lat="48.91642" lon="-0.47645">
        <ele>123.4</ele>
        <time>2024-04-07T09:52:56Z</time>
      </trkpt>
      <trkpt lat="48.91644" lon="-0.47639">
        <ele>123.2</ele>
        <time>2024-04-07T09:52:57Z</time>
      </trkpt>
      <trkpt lat="48.91645" lon="-0.47631">
        <ele>123.2</ele>
        <time>2024-04-07T09:52:58Z</time>
      </trkpt>
      <trkpt lat="48.91646" lon="-0.47622">
        <ele>123.2</ele>
        <time>2024-04-07T09:52:59Z</time>
      </trkpt>
      <trkpt lat="48.91646" lon="-0.47612">
        <ele>123</ele>
        <time>2024-04-07T09:53:00Z</time>
      </trkpt>
      <trkpt lat="48.91647" lon="-0.47602">
        <ele>122.6</ele>
        <time>2024-04-07T09:53:01Z</time>
      </trkpt>
      <trkpt lat="48.91648" lon="-0.47592">
        <ele>122.2</ele>
        <time>2024-04-07T09:53:02Z</time>
      </trkpt>
      <trkpt lat="48.91648" lon="-0.47582">
        <ele>122</ele>
        <time>2024-04-07T09:53:03Z</time>
      </trkpt>
      <trkpt lat="48.91649" lon="-0.47571">
        <ele>121.8</ele>
        <time>2024-04-07T09:53:04Z</time>
      </trkpt>
      <trkpt lat="48.91649" lon="-0.47561">
        <ele>121.6</ele>
        <time>2024-04-07T09:53:05Z</time>
      </trkpt>
      <trkpt lat="48.91649" lon="-0.4755">
        <ele>121.6</ele>
        <time>2024-04-07T09:53:06Z</time>
      </trkpt>
      <trkpt lat="48.91649" lon="-0.4754">
        <ele>121.6</ele>
        <time>2024-04-07T09:53:07Z</time>
      </trkpt>
      <trkpt lat="48.9165" lon="-0.4753">
        <ele>121.6</ele>
        <time>2024-04-07T09:53:08Z</time>
      </trkpt>
      <trkpt lat="48.9165" lon="-0.4752">
        <ele>121.6</ele>
        <time>2024-04-07T09:53:09Z</time>
      </trkpt>
      <trkpt lat="48.91651" lon="-0.4751">
        <ele>121.6</ele>
        <time>2024-04-07T09:53:10Z</time>
      </trkpt>
      <trkpt lat="48.91652" lon="-0.47501">
        <ele>121.6</ele>
        <time>2024-04-07T09:53:11Z</time>
      </trkpt>
      <trkpt lat="48.91652" lon="-0.47491">
        <ele>121.6</ele>
        <time>2024-04-07T09:53:12Z</time>
      </trkpt>
      <trkpt lat="48.91653" lon="-0.47481">
        <ele>121.4</ele>
        <time>2024-04-07T09:53:13Z</time>
      </trkpt>
      <trkpt lat="48.91653" lon="-0.47471">
        <ele>121.2</ele>
        <time>2024-04-07T09:53:14Z</time>
      </trkpt>
      <trkpt lat="48.91654" lon="-0.4746">
        <ele>121.2</ele>
        <time>2024-04-07T09:53:15Z</time>
      </trkpt>
      <trkpt lat="48.91655" lon="-0.4745">
        <ele>121</ele>
        <time>2024-04-07T09:53:16Z</time>
      </trkpt>
      <trkpt lat="48.91656" lon="-0.47439">
        <ele>121</ele>
        <time>2024-04-07T09:53:17Z</time>
      </trkpt>
      <trkpt lat="48.91657" lon="-0.47429">
        <ele>120.8</ele>
        <time>2024-04-07T09:53:18Z</time>
      </trkpt>
      <trkpt lat="48.91658" lon="-0.47419">
        <ele>120.6</ele>
        <time>2024-04-07T09:53:19Z</time>
      </trkpt>
      <trkpt lat="48.9166" lon="-0.47408">
        <ele>120.4</ele>
        <time>2024-04-07T09:53:20Z</time>
      </trkpt>
      <trkpt lat="48.91662" lon="-0.47399">
        <ele>120.4</ele>
        <time>2024-04-07T09:53:21Z</time>
      </trkpt>
      <trkpt lat="48.91664" lon="-0.47389">
        <ele>120.2</ele>
        <time>2024-04-07T09:53:22Z</time>
      </trkpt>
      <trkpt lat="48.91666" lon="-0.47379">
        <ele>120.2</ele>
        <time>2024-04-07T09:53:23Z</time>
      </trkpt>
      <trkpt lat="48.91669" lon="-0.47369">
        <ele>120.2</ele>
        <time>2024-04-07T09:53:24Z</time>
      </trkpt>
      <trkpt lat="48.91672" lon="-0.47359">
        <ele>120</ele>
        <time>2024-04-07T09:53:25Z</time>
      </trkpt>
      <trkpt lat="48.91675" lon="-0.4735">
        <ele>120</ele>
        <time>2024-04-07T09:53:26Z</time>
      </trkpt>
      <trkpt lat="48.91677" lon="-0.47341">
        <ele>120.2</ele>
        <time>2024-04-07T09:53:27Z</time>
      </trkpt>
      <trkpt lat="48.9168" lon="-0.47332">
        <ele>120.6</ele>
        <time>2024-04-07T09:53:28Z</time>
      </trkpt>
      <trkpt lat="48.91682" lon="-0.47323">
        <ele>121</ele>
        <time>2024-04-07T09:53:29Z</time>
      </trkpt>
      <trkpt lat="48.91685" lon="-0.47315">
        <ele>121.4</ele>
        <time>2024-04-07T09:53:30Z</time>
      </trkpt>
      <trkpt lat="48.91685" lon="-0.47315">
        <ele>121.6</ele>
        <time>2024-04-07T09:53:31Z</time>
      </trkpt>
      <trkpt lat="48.91689" lon="-0.47298">
        <ele>121.8</ele>
        <time>2024-04-07T09:53:32Z</time>
      </trkpt>
      <trkpt lat="48.91691" lon="-0.4729">
        <ele>122.2</ele>
        <time>2024-04-07T09:53:33Z</time>
      </trkpt>
      <trkpt lat="48.91693" lon="-0.47286">
        <ele>122.4</ele>
        <time>2024-04-07T09:53:34Z</time>
      </trkpt>
      <trkpt lat="48.91695" lon="-0.47281">
        <ele>122.6</ele>
        <time>2024-04-07T09:53:35Z</time>
      </trkpt>
      <trkpt lat="48.91698" lon="-0.47271">
        <ele>122.8</ele>
        <time>2024-04-07T09:53:36Z</time>
      </trkpt>
      <trkpt lat="48.91701" lon="-0.47265">
        <ele>123.2</ele>
        <time>2024-04-07T09:53:37Z</time>
      </trkpt>
      <trkpt lat="48.91703" lon="-0.4726">
        <ele>123.6</ele>
        <time>2024-04-07T09:53:38Z</time>
      </trkpt>
      <trkpt lat="48.91706" lon="-0.47255">
        <ele>123.8</ele>
        <time>2024-04-07T09:53:39Z</time>
      </trkpt>
      <trkpt lat="48.91708" lon="-0.4725">
        <ele>124.2</ele>
        <time>2024-04-07T09:53:40Z</time>
      </trkpt>
      <trkpt lat="48.91709" lon="-0.47246">
        <ele>124.4</ele>
        <time>2024-04-07T09:53:41Z</time>
      </trkpt>
      <trkpt lat="48.91711" lon="-0.47241">
        <ele>124.6</ele>
        <time>2024-04-07T09:53:42Z</time>
      </trkpt>
      <trkpt lat="48.91712" lon="-0.47237">
        <ele>124.8</ele>
        <time>2024-04-07T09:53:43Z</time>
      </trkpt>
      <trkpt lat="48.91712" lon="-0.47232">
        <ele>125</ele>
        <time>2024-04-07T09:53:44Z</time>
      </trkpt>
      <trkpt lat="48.91712" lon="-0.47227">
        <ele>125.2</ele>
        <time>2024-04-07T09:53:45Z</time>
      </trkpt>
      <trkpt lat="48.91712" lon="-0.47227">
        <ele>125.2</ele>
        <time>2024-04-07T09:53:46Z</time>
      </trkpt>
      <trkpt lat="48.91712" lon="-0.47222">
        <ele>125.4</ele>
        <time>2024-04-07T09:53:47Z</time>
      </trkpt>
      <trkpt lat="48.91712" lon="-0.47213">
        <ele>125.6</ele>
        <time>2024-04-07T09:53:48Z</time>
      </trkpt>
      <trkpt lat="48.91712" lon="-0.47207">
        <ele>125.8</ele>
        <time>2024-04-07T09:53:49Z</time>
      </trkpt>
      <trkpt lat="48.91712" lon="-0.47201">
        <ele>126</ele>
        <time>2024-04-07T09:53:50Z</time>
      </trkpt>
      <trkpt lat="48.91712" lon="-0.47195">
        <ele>126.2</ele>
        <time>2024-04-07T09:53:51Z</time>
      </trkpt>
      <trkpt lat="48.91712" lon="-0.47191">
        <ele>126.4</ele>
        <time>2024-04-07T09:53:52Z</time>
      </trkpt>
      <trkpt lat="48.91712" lon="-0.47187">
        <ele>126.4</ele>
        <time>2024-04-07T09:53:53Z</time>
      </trkpt>
      <trkpt lat="48.91712" lon="-0.47184">
        <ele>126.6</ele>
        <time>2024-04-07T09:53:54Z</time>
      </trkpt>
      <trkpt lat="48.91714" lon="-0.47182">
        <ele>126.6</ele>
        <time>2024-04-07T09:53:55Z</time>
      </trkpt>
      <trkpt lat="48.91715" lon="-0.47183">
        <ele>126.6</ele>
        <time>2024-04-07T09:53:56Z</time>
      </trkpt>
      <trkpt lat="48.91718" lon="-0.47183">
        <ele>126.6</ele>
        <time>2024-04-07T09:53:57Z</time>
      </trkpt>
      <trkpt lat="48.9172" lon="-0.47183">
        <ele>126.8</ele>
        <time>2024-04-07T09:53:58Z</time>
      </trkpt>
      <trkpt lat="48.91723" lon="-0.47184">
        <ele>127</ele>
        <time>2024-04-07T09:53:59Z</time>
      </trkpt>
      <trkpt lat="48.91727" lon="-0.47184">
        <ele>127</ele>
        <time>2024-04-07T09:54:00Z</time>
      </trkpt>
      <trkpt lat="48.9173" lon="-0.47183">
        <ele>127.2</ele>
        <time>2024-04-07T09:54:01Z</time>
      </trkpt>
      <trkpt lat="48.91734" lon="-0.47183">
        <ele>127.2</ele>
        <time>2024-04-07T09:54:02Z</time>
      </trkpt>
      <trkpt lat="48.91739" lon="-0.47183">
        <ele>127.4</ele>
        <time>2024-04-07T09:54:03Z</time>
      </trkpt>
      <trkpt lat="48.91743" lon="-0.47183">
        <ele>127.6</ele>
        <time>2024-04-07T09:54:04Z</time>
      </trkpt>
      <trkpt lat="48.91748" lon="-0.47182">
        <ele>127.6</ele>
        <time>2024-04-07T09:54:05Z</time>
      </trkpt>
      <trkpt lat="48.91752" lon="-0.47182">
        <ele>127.6</ele>
        <time>2024-04-07T09:54:06Z</time>
      </trkpt>
      <trkpt lat="48.91757" lon="-0.47181">
        <ele>127.8</ele>
        <time>2024-04-07T09:54:07Z</time>
      </trkpt>
      <trkpt lat="48.91761" lon="-0.47181">
        <ele>127.8</ele>
        <time>2024-04-07T09:54:08Z</time>
      </trkpt>
      <trkpt lat="48.91766" lon="-0.47181">
        <ele>128</ele>
        <time>2024-04-07T09:54:09Z</time>
      </trkpt>
      <trkpt lat="48.9177" lon="-0.47181">
        <ele>128</ele>
        <time>2024-04-07T09:54:10Z</time>
      </trkpt>
      <trkpt lat="48.91775" lon="-0.47181">
        <ele>128</ele>
        <time>2024-04-07T09:54:11Z</time>
      </trkpt>
      <trkpt lat="48.9178" lon="-0.4718">
        <ele>128</ele>
        <time>2024-04-07T09:54:12Z</time>
      </trkpt>
      <trkpt lat="48.91786" lon="-0.4718">
        <ele>128.2</ele>
        <time>2024-04-07T09:54:13Z</time>
      </trkpt>
      <trkpt lat="48.91789" lon="-0.4718">
        <ele>128.2</ele>
        <time>2024-04-07T09:54:14Z</time>
      </trkpt>
      <trkpt lat="48.91792" lon="-0.4718">
        <ele>128.2</ele>
        <time>2024-04-07T09:54:15Z</time>
      </trkpt>
      <trkpt lat="48.91801" lon="-0.47179">
        <ele>128.2</ele>
        <time>2024-04-07T09:54:16Z</time>
      </trkpt>
      <trkpt lat="48.91806" lon="-0.47179">
        <ele>128.2</ele>
        <time>2024-04-07T09:54:17Z</time>
      </trkpt>
      <trkpt lat="48.91811" lon="-0.47179">
        <ele>128.2</ele>
        <time>2024-04-07T09:54:18Z</time>
      </trkpt>
      <trkpt lat="48.91816" lon="-0.47179">
        <ele>128.2</ele>
        <time>2024-04-07T09:54:19Z</time>
      </trkpt>
      <trkpt lat="48.91822" lon="-0.47179">
        <ele>128.2</ele>
        <time>2024-04-07T09:54:20Z</time>
      </trkpt>
      <trkpt lat="48.91827" lon="-0.47179">
        <ele>128.2</ele>
        <time>2024-04-07T09:54:21Z</time>
      </trkpt>
      <trkpt lat="48.91833" lon="-0.47178">
        <ele>128.2</ele>
        <time>2024-04-07T09:54:22Z</time>
      </trkpt>
      <trkpt lat="48.91837" lon="-0.47178">
        <ele>128.2</ele>
        <time>2024-04-07T09:54:23Z</time>
      </trkpt>
      <trkpt lat="48.91842" lon="-0.47178">
        <ele>128.4</ele>
        <time>2024-04-07T09:54:24Z</time>
      </trkpt>
      <trkpt lat="48.91847" lon="-0.47177">
        <ele>128.4</ele>
        <time>2024-04-07T09:54:25Z</time>
      </trkpt>
      <trkpt lat="48.91853" lon="-0.47176">
        <ele>128.6</ele>
        <time>2024-04-07T09:54:26Z</time>
      </trkpt>
      <trkpt lat="48.91858" lon="-0.47175">
        <ele>128.6</ele>
        <time>2024-04-07T09:54:27Z</time>
      </trkpt>
      <trkpt lat="48.91863" lon="-0.47175">
        <ele>128.6</ele>
        <time>2024-04-07T09:54:28Z</time>
      </trkpt>
      <trkpt lat="48.91866" lon="-0.47174">
        <ele>128.6</ele>
        <time>2024-04-07T09:54:29Z</time>
      </trkpt>
      <trkpt lat="48.91871" lon="-0.47173">
        <ele>128.6</ele>
        <time>2024-04-07T09:54:30Z</time>
      </trkpt>
      <trkpt lat="48.91875" lon="-0.47172">
        <ele>128.8</ele>
        <time>2024-04-07T09:54:31Z</time>
      </trkpt>
      <trkpt lat="48.91879" lon="-0.47172">
        <ele>128.8</ele>
        <time>2024-04-07T09:54:32Z</time>
      </trkpt>
      <trkpt lat="48.91881" lon="-0.47174">
        <ele>129</ele>
        <time>2024-04-07T09:54:33Z</time>
      </trkpt>
      <trkpt lat="48.91881" lon="-0.47174">
        <ele>129.4</ele>
        <time>2024-04-07T09:54:34Z</time>
      </trkpt>
      <trkpt lat="48.91882" lon="-0.47177">
        <ele>129.6</ele>
        <time>2024-04-07T09:54:35Z</time>
      </trkpt>
      <trkpt lat="48.91883" lon="-0.47177">
        <ele>129.8</ele>
        <time>2024-04-07T09:54:36Z</time>
      </trkpt>
      <trkpt lat="48.91883" lon="-0.47177">
        <ele>130</ele>
        <time>2024-04-07T09:54:37Z</time>
      </trkpt>
      <trkpt lat="48.91888" lon="-0.47179">
        <ele>130</ele>
        <time>2024-04-07T09:54:41Z</time>
      </trkpt>
      <trkpt lat="48.9189" lon="-0.47178">
        <ele>129.8</ele>
        <time>2024-04-07T09:54:42Z</time>
      </trkpt>
      <trkpt lat="48.91892" lon="-0.47177">
        <ele>129.8</ele>
        <time>2024-04-07T09:54:43Z</time>
      </trkpt>
      <trkpt lat="48.91895" lon="-0.47176">
        <ele>129.6</ele>
        <time>2024-04-07T09:54:44Z</time>
      </trkpt>
      <trkpt lat="48.91898" lon="-0.47176">
        <ele>129.6</ele>
        <time>2024-04-07T09:54:45Z</time>
      </trkpt>
      <trkpt lat="48.91901" lon="-0.47177">
        <ele>129.6</ele>
        <time>2024-04-07T09:54:46Z</time>
      </trkpt>
      <trkpt lat="48.91904" lon="-0.47177">
        <ele>129.4</ele>
        <time>2024-04-07T09:54:47Z</time>
      </trkpt>
      <trkpt lat="48.91908" lon="-0.47177">
        <ele>129.4</ele>
        <time>2024-04-07T09:54:48Z</time>
      </trkpt>
      <trkpt lat="48.91912" lon="-0.47177">
        <ele>129.4</ele>
        <time>2024-04-07T09:54:49Z</time>
      </trkpt>
      <trkpt lat="48.91916" lon="-0.47177">
        <ele>129.2</ele>
        <time>2024-04-07T09:54:50Z</time>
      </trkpt>
      <trkpt lat="48.9192" lon="-0.47177">
        <ele>129</ele>
        <time>2024-04-07T09:54:51Z</time>
      </trkpt>
      <trkpt lat="48.91925" lon="-0.47176">
        <ele>128.8</ele>
        <time>2024-04-07T09:54:52Z</time>
      </trkpt>
      <trkpt lat="48.91933" lon="-0.47176">
        <ele>128.6</ele>
        <time>2024-04-07T09:54:53Z</time>
      </trkpt>
      <trkpt lat="48.9194" lon="-0.47175">
        <ele>128.4</ele>
        <time>2024-04-07T09:54:54Z</time>
      </trkpt>
      <trkpt lat="48.91946" lon="-0.47174">
        <ele>128</ele>
        <time>2024-04-07T09:54:55Z</time>
      </trkpt>
      <trkpt lat="48.91952" lon="-0.47174">
        <ele>127.8</ele>
        <time>2024-04-07T09:54:56Z</time>
      </trkpt>
      <trkpt lat="48.91958" lon="-0.47173">
        <ele>127.8</ele>
        <time>2024-04-07T09:54:57Z</time>
      </trkpt>
      <trkpt lat="48.91964" lon="-0.47173">
        <ele>127.6</ele>
        <time>2024-04-07T09:54:58Z</time>
      </trkpt>
      <trkpt lat="48.91971" lon="-0.47172">
        <ele>127.4</ele>
        <time>2024-04-07T09:54:59Z</time>
      </trkpt>
      <trkpt lat="48.91975" lon="-0.47171">
        <ele>127.2</ele>
        <time>2024-04-07T09:55:00Z</time>
      </trkpt>
      <trkpt lat="48.9198" lon="-0.4717">
        <ele>127.2</ele>
        <time>2024-04-07T09:55:01Z</time>
      </trkpt>
      <trkpt lat="48.91989" lon="-0.47169">
        <ele>127</ele>
        <time>2024-04-07T09:55:02Z</time>
      </trkpt>
      <trkpt lat="48.91989" lon="-0.47169">
        <ele>127</ele>
        <time>2024-04-07T09:55:03Z</time>
      </trkpt>
      <trkpt lat="48.92003" lon="-0.47166">
        <ele>127</ele>
        <time>2024-04-07T09:55:04Z</time>
      </trkpt>
      <trkpt lat="48.92009" lon="-0.47165">
        <ele>127</ele>
        <time>2024-04-07T09:55:05Z</time>
      </trkpt>
      <trkpt lat="48.92014" lon="-0.47163">
        <ele>126.8</ele>
        <time>2024-04-07T09:55:06Z</time>
      </trkpt>
      <trkpt lat="48.92025" lon="-0.47161">
        <ele>126.8</ele>
        <time>2024-04-07T09:55:07Z</time>
      </trkpt>
      <trkpt lat="48.92029" lon="-0.47159">
        <ele>126.8</ele>
        <time>2024-04-07T09:55:08Z</time>
      </trkpt>
      <trkpt lat="48.92033" lon="-0.47158">
        <ele>126.6</ele>
        <time>2024-04-07T09:55:09Z</time>
      </trkpt>
      <trkpt lat="48.92048" lon="-0.47154">
        <ele>126.4</ele>
        <time>2024-04-07T09:55:10Z</time>
      </trkpt>
      <trkpt lat="48.92055" lon="-0.47152">
        <ele>126.2</ele>
        <time>2024-04-07T09:55:11Z</time>
      </trkpt>
      <trkpt lat="48.92062" lon="-0.4715">
        <ele>126.2</ele>
        <time>2024-04-07T09:55:12Z</time>
      </trkpt>
      <trkpt lat="48.92069" lon="-0.47149">
        <ele>126</ele>
        <time>2024-04-07T09:55:13Z</time>
      </trkpt>
      <trkpt lat="48.92077" lon="-0.47147">
        <ele>126</ele>
        <time>2024-04-07T09:55:14Z</time>
      </trkpt>
      <trkpt lat="48.92084" lon="-0.47144">
        <ele>125.8</ele>
        <time>2024-04-07T09:55:15Z</time>
      </trkpt>
      <trkpt lat="48.92092" lon="-0.47141">
        <ele>125.8</ele>
        <time>2024-04-07T09:55:16Z</time>
      </trkpt>
      <trkpt lat="48.921" lon="-0.47138">
        <ele>125.8</ele>
        <time>2024-04-07T09:55:17Z</time>
      </trkpt>
      <trkpt lat="48.92107" lon="-0.47134">
        <ele>125.6</ele>
        <time>2024-04-07T09:55:18Z</time>
      </trkpt>
      <trkpt lat="48.92115" lon="-0.47131">
        <ele>125.6</ele>
        <time>2024-04-07T09:55:19Z</time>
      </trkpt>
      <trkpt lat="48.92122" lon="-0.47127">
        <ele>125.6</ele>
        <time>2024-04-07T09:55:20Z</time>
      </trkpt>
      <trkpt lat="48.92129" lon="-0.47124">
        <ele>125.6</ele>
        <time>2024-04-07T09:55:21Z</time>
      </trkpt>
      <trkpt lat="48.92137" lon="-0.47122">
        <ele>125.6</ele>
        <time>2024-04-07T09:55:22Z</time>
      </trkpt>
      <trkpt lat="48.92144" lon="-0.47119">
        <ele>125.6</ele>
        <time>2024-04-07T09:55:23Z</time>
      </trkpt>
      <trkpt lat="48.92152" lon="-0.47116">
        <ele>125.6</ele>
        <time>2024-04-07T09:55:24Z</time>
      </trkpt>
      <trkpt lat="48.92159" lon="-0.47113">
        <ele>125.6</ele>
        <time>2024-04-07T09:55:25Z</time>
      </trkpt>
      <trkpt lat="48.92168" lon="-0.47109">
        <ele>125.6</ele>
        <time>2024-04-07T09:55:26Z</time>
      </trkpt>
      <trkpt lat="48.92177" lon="-0.47106">
        <ele>125.4</ele>
        <time>2024-04-07T09:55:27Z</time>
      </trkpt>
      <trkpt lat="48.92186" lon="-0.47103">
        <ele>125.2</ele>
        <time>2024-04-07T09:55:28Z</time>
      </trkpt>
      <trkpt lat="48.92194" lon="-0.471">
        <ele>125</ele>
        <time>2024-04-07T09:55:29Z</time>
      </trkpt>
      <trkpt lat="48.92202" lon="-0.47097">
        <ele>124.8</ele>
        <time>2024-04-07T09:55:30Z</time>
      </trkpt>
      <trkpt lat="48.92211" lon="-0.47095">
        <ele>124.4</ele>
        <time>2024-04-07T09:55:31Z</time>
      </trkpt>
      <trkpt lat="48.92219" lon="-0.47092">
        <ele>124.2</ele>
        <time>2024-04-07T09:55:32Z</time>
      </trkpt>
      <trkpt lat="48.92227" lon="-0.4709">
        <ele>124.2</ele>
        <time>2024-04-07T09:55:33Z</time>
      </trkpt>
      <trkpt lat="48.92235" lon="-0.47088">
        <ele>124.2</ele>
        <time>2024-04-07T09:55:34Z</time>
      </trkpt>
      <trkpt lat="48.92242" lon="-0.47085">
        <ele>124.2</ele>
        <time>2024-04-07T09:55:35Z</time>
      </trkpt>
      <trkpt lat="48.9225" lon="-0.47083">
        <ele>124.2</ele>
        <time>2024-04-07T09:55:36Z</time>
      </trkpt>
      <trkpt lat="48.92259" lon="-0.4708">
        <ele>124.2</ele>
        <time>2024-04-07T09:55:37Z</time>
      </trkpt>
      <trkpt lat="48.92268" lon="-0.47078">
        <ele>124.2</ele>
        <time>2024-04-07T09:55:38Z</time>
      </trkpt>
      <trkpt lat="48.92275" lon="-0.47076">
        <ele>124.2</ele>
        <time>2024-04-07T09:55:39Z</time>
      </trkpt>
      <trkpt lat="48.92283" lon="-0.47073">
        <ele>124</ele>
        <time>2024-04-07T09:55:40Z</time>
      </trkpt>
      <trkpt lat="48.9229" lon="-0.47071">
        <ele>123.8</ele>
        <time>2024-04-07T09:55:41Z</time>
      </trkpt>
      <trkpt lat="48.92298" lon="-0.47069">
        <ele>123.6</ele>
        <time>2024-04-07T09:55:42Z</time>
      </trkpt>
      <trkpt lat="48.92307" lon="-0.47067">
        <ele>123.6</ele>
        <time>2024-04-07T09:55:43Z</time>
      </trkpt>
      <trkpt lat="48.92315" lon="-0.47064">
        <ele>123.4</ele>
        <time>2024-04-07T09:55:44Z</time>
      </trkpt>
      <trkpt lat="48.92323" lon="-0.47062">
        <ele>123.2</ele>
        <time>2024-04-07T09:55:45Z</time>
      </trkpt>
      <trkpt lat="48.9233" lon="-0.4706">
        <ele>123</ele>
        <time>2024-04-07T09:55:46Z</time>
      </trkpt>
      <trkpt lat="48.92337" lon="-0.47057">
        <ele>122.8</ele>
        <time>2024-04-07T09:55:47Z</time>
      </trkpt>
      <trkpt lat="48.92344" lon="-0.47054">
        <ele>122.8</ele>
        <time>2024-04-07T09:55:48Z</time>
      </trkpt>
      <trkpt lat="48.92351" lon="-0.47052">
        <ele>122.8</ele>
        <time>2024-04-07T09:55:49Z</time>
      </trkpt>
      <trkpt lat="48.92358" lon="-0.4705">
        <ele>122.6</ele>
        <time>2024-04-07T09:55:50Z</time>
      </trkpt>
      <trkpt lat="48.92365" lon="-0.47048">
        <ele>122.6</ele>
        <time>2024-04-07T09:55:51Z</time>
      </trkpt>
      <trkpt lat="48.92373" lon="-0.47046">
        <ele>122.6</ele>
        <time>2024-04-07T09:55:52Z</time>
      </trkpt>
      <trkpt lat="48.92382" lon="-0.47044">
        <ele>122.4</ele>
        <time>2024-04-07T09:55:53Z</time>
      </trkpt>
      <trkpt lat="48.92389" lon="-0.47041">
        <ele>122.4</ele>
        <time>2024-04-07T09:55:54Z</time>
      </trkpt>
      <trkpt lat="48.92396" lon="-0.47039">
        <ele>122.4</ele>
        <time>2024-04-07T09:55:55Z</time>
      </trkpt>
      <trkpt lat="48.92403" lon="-0.47037">
        <ele>122.2</ele>
        <time>2024-04-07T09:55:56Z</time>
      </trkpt>
      <trkpt lat="48.92411" lon="-0.47035">
        <ele>122</ele>
        <time>2024-04-07T09:55:57Z</time>
      </trkpt>
      <trkpt lat="48.92419" lon="-0.47034">
        <ele>122</ele>
        <time>2024-04-07T09:55:58Z</time>
      </trkpt>
      <trkpt lat="48.92427" lon="-0.47032">
        <ele>121.8</ele>
        <time>2024-04-07T09:55:59Z</time>
      </trkpt>
      <trkpt lat="48.92434" lon="-0.4703">
        <ele>121.8</ele>
        <time>2024-04-07T09:56:00Z</time>
      </trkpt>
      <trkpt lat="48.92442" lon="-0.47028">
        <ele>121.8</ele>
        <time>2024-04-07T09:56:01Z</time>
      </trkpt>
      <trkpt lat="48.92449" lon="-0.47027">
        <ele>122</ele>
        <time>2024-04-07T09:56:02Z</time>
      </trkpt>
      <trkpt lat="48.92456" lon="-0.47025">
        <ele>122</ele>
        <time>2024-04-07T09:56:03Z</time>
      </trkpt>
      <trkpt lat="48.92464" lon="-0.47024">
        <ele>122.2</ele>
        <time>2024-04-07T09:56:04Z</time>
      </trkpt>
      <trkpt lat="48.9247" lon="-0.47022">
        <ele>122.2</ele>
        <time>2024-04-07T09:56:05Z</time>
      </trkpt>
      <trkpt lat="48.92477" lon="-0.47021">
        <ele>122.2</ele>
        <time>2024-04-07T09:56:06Z</time>
      </trkpt>
      <trkpt lat="48.92484" lon="-0.47019">
        <ele>122</ele>
        <time>2024-04-07T09:56:07Z</time>
      </trkpt>
      <trkpt lat="48.92491" lon="-0.47018">
        <ele>122</ele>
        <time>2024-04-07T09:56:08Z</time>
      </trkpt>
      <trkpt lat="48.92498" lon="-0.47017">
        <ele>121.8</ele>
        <time>2024-04-07T09:56:09Z</time>
      </trkpt>
      <trkpt lat="48.92506" lon="-0.47017">
        <ele>121.6</ele>
        <time>2024-04-07T09:56:10Z</time>
      </trkpt>
      <trkpt lat="48.92513" lon="-0.47016">
        <ele>121.6</ele>
        <time>2024-04-07T09:56:11Z</time>
      </trkpt>
      <trkpt lat="48.92521" lon="-0.47016">
        <ele>121.4</ele>
        <time>2024-04-07T09:56:12Z</time>
      </trkpt>
      <trkpt lat="48.92528" lon="-0.47016">
        <ele>121.4</ele>
        <time>2024-04-07T09:56:13Z</time>
      </trkpt>
      <trkpt lat="48.92535" lon="-0.47017">
        <ele>121.4</ele>
        <time>2024-04-07T09:56:14Z</time>
      </trkpt>
      <trkpt lat="48.92542" lon="-0.47019">
        <ele>121.4</ele>
        <time>2024-04-07T09:56:15Z</time>
      </trkpt>
      <trkpt lat="48.92549" lon="-0.47019">
        <ele>121.2</ele>
        <time>2024-04-07T09:56:16Z</time>
      </trkpt>
      <trkpt lat="48.92556" lon="-0.47021">
        <ele>121.4</ele>
        <time>2024-04-07T09:56:17Z</time>
      </trkpt>
      <trkpt lat="48.92562" lon="-0.47022">
        <ele>121.4</ele>
        <time>2024-04-07T09:56:18Z</time>
      </trkpt>
      <trkpt lat="48.9257" lon="-0.47023">
        <ele>121.2</ele>
        <time>2024-04-07T09:56:19Z</time>
      </trkpt>
      <trkpt lat="48.92577" lon="-0.47025">
        <ele>121.2</ele>
        <time>2024-04-07T09:56:20Z</time>
      </trkpt>
      <trkpt lat="48.92584" lon="-0.47027">
        <ele>121.2</ele>
        <time>2024-04-07T09:56:21Z</time>
      </trkpt>
      <trkpt lat="48.92591" lon="-0.47029">
        <ele>121.2</ele>
        <time>2024-04-07T09:56:22Z</time>
      </trkpt>
      <trkpt lat="48.92598" lon="-0.47031">
        <ele>121</ele>
        <time>2024-04-07T09:56:23Z</time>
      </trkpt>
      <trkpt lat="48.92605" lon="-0.47034">
        <ele>120.8</ele>
        <time>2024-04-07T09:56:24Z</time>
      </trkpt>
      <trkpt lat="48.92612" lon="-0.47037">
        <ele>120.6</ele>
        <time>2024-04-07T09:56:25Z</time>
      </trkpt>
      <trkpt lat="48.92619" lon="-0.47041">
        <ele>120.4</ele>
        <time>2024-04-07T09:56:26Z</time>
      </trkpt>
      <trkpt lat="48.92626" lon="-0.47046">
        <ele>120.2</ele>
        <time>2024-04-07T09:56:27Z</time>
      </trkpt>
      <trkpt lat="48.92633" lon="-0.47051">
        <ele>120</ele>
        <time>2024-04-07T09:56:28Z</time>
      </trkpt>
      <trkpt lat="48.92639" lon="-0.47055">
        <ele>119.8</ele>
        <time>2024-04-07T09:56:29Z</time>
      </trkpt>
      <trkpt lat="48.92646" lon="-0.4706">
        <ele>119.8</ele>
        <time>2024-04-07T09:56:30Z</time>
      </trkpt>
      <trkpt lat="48.92653" lon="-0.47066">
        <ele>119.6</ele>
        <time>2024-04-07T09:56:31Z</time>
      </trkpt>
      <trkpt lat="48.92659" lon="-0.47071">
        <ele>119.6</ele>
        <time>2024-04-07T09:56:32Z</time>
      </trkpt>
      <trkpt lat="48.92665" lon="-0.47078">
        <ele>119.4</ele>
        <time>2024-04-07T09:56:33Z</time>
      </trkpt>
      <trkpt lat="48.9267" lon="-0.47083">
        <ele>119.4</ele>
        <time>2024-04-07T09:56:34Z</time>
      </trkpt>
      <trkpt lat="48.92675" lon="-0.47089">
        <ele>119.2</ele>
        <time>2024-04-07T09:56:35Z</time>
      </trkpt>
      <trkpt lat="48.92681" lon="-0.47095">
        <ele>118.8</ele>
        <time>2024-04-07T09:56:36Z</time>
      </trkpt>
      <trkpt lat="48.92688" lon="-0.47102">
        <ele>118.6</ele>
        <time>2024-04-07T09:56:37Z</time>
      </trkpt>
      <trkpt lat="48.92695" lon="-0.47109">
        <ele>118.4</ele>
        <time>2024-04-07T09:56:38Z</time>
      </trkpt>
      <trkpt lat="48.927" lon="-0.47116">
        <ele>118.4</ele>
        <time>2024-04-07T09:56:39Z</time>
      </trkpt>
      <trkpt lat="48.92706" lon="-0.47124">
        <ele>118.4</ele>
        <time>2024-04-07T09:56:40Z</time>
      </trkpt>
      <trkpt lat="48.92712" lon="-0.47132">
        <ele>118.4</ele>
        <time>2024-04-07T09:56:41Z</time>
      </trkpt>
      <trkpt lat="48.92718" lon="-0.4714">
        <ele>118.6</ele>
        <time>2024-04-07T09:56:42Z</time>
      </trkpt>
      <trkpt lat="48.92724" lon="-0.47148">
        <ele>118.6</ele>
        <time>2024-04-07T09:56:43Z</time>
      </trkpt>
      <trkpt lat="48.9273" lon="-0.47157">
        <ele>118.8</ele>
        <time>2024-04-07T09:56:44Z</time>
      </trkpt>
      <trkpt lat="48.92736" lon="-0.47165">
        <ele>119</ele>
        <time>2024-04-07T09:56:45Z</time>
      </trkpt>
      <trkpt lat="48.92741" lon="-0.47174">
        <ele>119</ele>
        <time>2024-04-07T09:56:46Z</time>
      </trkpt>
      <trkpt lat="48.92746" lon="-0.47183">
        <ele>119</ele>
        <time>2024-04-07T09:56:47Z</time>
      </trkpt>
      <trkpt lat="48.92751" lon="-0.47193">
        <ele>119</ele>
        <time>2024-04-07T09:56:48Z</time>
      </trkpt>
      <trkpt lat="48.92755" lon="-0.47202">
        <ele>118.8</ele>
        <time>2024-04-07T09:56:49Z</time>
      </trkpt>
      <trkpt lat="48.9276" lon="-0.47212">
        <ele>118.6</ele>
        <time>2024-04-07T09:56:50Z</time>
      </trkpt>
      <trkpt lat="48.92765" lon="-0.47221">
        <ele>118.4</ele>
        <time>2024-04-07T09:56:51Z</time>
      </trkpt>
      <trkpt lat="48.92769" lon="-0.47231">
        <ele>118.4</ele>
        <time>2024-04-07T09:56:52Z</time>
      </trkpt>
      <trkpt lat="48.92773" lon="-0.47241">
        <ele>118.4</ele>
        <time>2024-04-07T09:56:53Z</time>
      </trkpt>
      <trkpt lat="48.92775" lon="-0.4725">
        <ele>118.2</ele>
        <time>2024-04-07T09:56:54Z</time>
      </trkpt>
      <trkpt lat="48.92778" lon="-0.47259">
        <ele>118.2</ele>
        <time>2024-04-07T09:56:55Z</time>
      </trkpt>
      <trkpt lat="48.92781" lon="-0.47269">
        <ele>118.4</ele>
        <time>2024-04-07T09:56:56Z</time>
      </trkpt>
      <trkpt lat="48.92785" lon="-0.47279">
        <ele>118.4</ele>
        <time>2024-04-07T09:56:57Z</time>
      </trkpt>
      <trkpt lat="48.92788" lon="-0.4729">
        <ele>118.6</ele>
        <time>2024-04-07T09:56:58Z</time>
      </trkpt>
      <trkpt lat="48.92791" lon="-0.473">
        <ele>118.6</ele>
        <time>2024-04-07T09:56:59Z</time>
      </trkpt>
      <trkpt lat="48.92794" lon="-0.4731">
        <ele>118.6</ele>
        <time>2024-04-07T09:57:00Z</time>
      </trkpt>
      <trkpt lat="48.92796" lon="-0.4732">
        <ele>118.6</ele>
        <time>2024-04-07T09:57:01Z</time>
      </trkpt>
      <trkpt lat="48.92799" lon="-0.4733">
        <ele>118.6</ele>
        <time>2024-04-07T09:57:02Z</time>
      </trkpt>
      <trkpt lat="48.92802" lon="-0.4734">
        <ele>118.4</ele>
        <time>2024-04-07T09:57:03Z</time>
      </trkpt>
      <trkpt lat="48.92804" lon="-0.4735">
        <ele>118.4</ele>
        <time>2024-04-07T09:57:04Z</time>
      </trkpt>
      <trkpt lat="48.92806" lon="-0.4736">
        <ele>118.4</ele>
        <time>2024-04-07T09:57:05Z</time>
      </trkpt>
      <trkpt lat="48.92808" lon="-0.47371">
        <ele>118.4</ele>
        <time>2024-04-07T09:57:06Z</time>
      </trkpt>
      <trkpt lat="48.92811" lon="-0.47381">
        <ele>118.2</ele>
        <time>2024-04-07T09:57:07Z</time>
      </trkpt>
      <trkpt lat="48.92813" lon="-0.47392">
        <ele>118</ele>
        <time>2024-04-07T09:57:08Z</time>
      </trkpt>
      <trkpt lat="48.92814" lon="-0.47403">
        <ele>117.8</ele>
        <time>2024-04-07T09:57:09Z</time>
      </trkpt>
      <trkpt lat="48.92815" lon="-0.47414">
        <ele>117.8</ele>
        <time>2024-04-07T09:57:10Z</time>
      </trkpt>
      <trkpt lat="48.92816" lon="-0.47425">
        <ele>117.8</ele>
        <time>2024-04-07T09:57:11Z</time>
      </trkpt>
      <trkpt lat="48.92817" lon="-0.47436">
        <ele>117.8</ele>
        <time>2024-04-07T09:57:12Z</time>
      </trkpt>
      <trkpt lat="48.92818" lon="-0.47446">
        <ele>117.8</ele>
        <time>2024-04-07T09:57:13Z</time>
      </trkpt>
      <trkpt lat="48.92819" lon="-0.47457">
        <ele>118</ele>
        <time>2024-04-07T09:57:14Z</time>
      </trkpt>
      <trkpt lat="48.9282" lon="-0.47468">
        <ele>118.2</ele>
        <time>2024-04-07T09:57:15Z</time>
      </trkpt>
      <trkpt lat="48.92819" lon="-0.4748">
        <ele>118.2</ele>
        <time>2024-04-07T09:57:16Z</time>
      </trkpt>
      <trkpt lat="48.92819" lon="-0.4749">
        <ele>118.2</ele>
        <time>2024-04-07T09:57:17Z</time>
      </trkpt>
      <trkpt lat="48.92819" lon="-0.47501">
        <ele>118</ele>
        <time>2024-04-07T09:57:18Z</time>
      </trkpt>
      <trkpt lat="48.92819" lon="-0.47512">
        <ele>118</ele>
        <time>2024-04-07T09:57:19Z</time>
      </trkpt>
      <trkpt lat="48.92818" lon="-0.47523">
        <ele>118</ele>
        <time>2024-04-07T09:57:20Z</time>
      </trkpt>
      <trkpt lat="48.92816" lon="-0.47534">
        <ele>118</ele>
        <time>2024-04-07T09:57:21Z</time>
      </trkpt>
      <trkpt lat="48.92815" lon="-0.47545">
        <ele>118</ele>
        <time>2024-04-07T09:57:22Z</time>
      </trkpt>
      <trkpt lat="48.92814" lon="-0.47556">
        <ele>118</ele>
        <time>2024-04-07T09:57:23Z</time>
      </trkpt>
      <trkpt lat="48.92813" lon="-0.47567">
        <ele>118.2</ele>
        <time>2024-04-07T09:57:24Z</time>
      </trkpt>
      <trkpt lat="48.92812" lon="-0.47579">
        <ele>118.4</ele>
        <time>2024-04-07T09:57:25Z</time>
      </trkpt>
      <trkpt lat="48.92811" lon="-0.4759">
        <ele>118.6</ele>
        <time>2024-04-07T09:57:26Z</time>
      </trkpt>
      <trkpt lat="48.92809" lon="-0.47601">
        <ele>118.6</ele>
        <time>2024-04-07T09:57:27Z</time>
      </trkpt>
      <trkpt lat="48.92807" lon="-0.47611">
        <ele>118.8</ele>
        <time>2024-04-07T09:57:28Z</time>
      </trkpt>
      <trkpt lat="48.92806" lon="-0.47622">
        <ele>118.8</ele>
        <time>2024-04-07T09:57:29Z</time>
      </trkpt>
      <trkpt lat="48.92804" lon="-0.47632">
        <ele>119</ele>
        <time>2024-04-07T09:57:30Z</time>
      </trkpt>
      <trkpt lat="48.92802" lon="-0.47642">
        <ele>119</ele>
        <time>2024-04-07T09:57:31Z</time>
      </trkpt>
      <trkpt lat="48.92801" lon="-0.47653">
        <ele>119.2</ele>
        <time>2024-04-07T09:57:32Z</time>
      </trkpt>
      <trkpt lat="48.92799" lon="-0.47664">
        <ele>119.2</ele>
        <time>2024-04-07T09:57:33Z</time>
      </trkpt>
      <trkpt lat="48.92798" lon="-0.47675">
        <ele>119.4</ele>
        <time>2024-04-07T09:57:34Z</time>
      </trkpt>
      <trkpt lat="48.92796" lon="-0.47686">
        <ele>119.4</ele>
        <time>2024-04-07T09:57:35Z</time>
      </trkpt>
      <trkpt lat="48.92794" lon="-0.47696">
        <ele>119.4</ele>
        <time>2024-04-07T09:57:36Z</time>
      </trkpt>
      <trkpt lat="48.92793" lon="-0.47707">
        <ele>119.2</ele>
        <time>2024-04-07T09:57:37Z</time>
      </trkpt>
      <trkpt lat="48.92791" lon="-0.47717">
        <ele>119.2</ele>
        <time>2024-04-07T09:57:38Z</time>
      </trkpt>
      <trkpt lat="48.92789" lon="-0.47727">
        <ele>119</ele>
        <time>2024-04-07T09:57:39Z</time>
      </trkpt>
      <trkpt lat="48.92787" lon="-0.47738">
        <ele>119</ele>
        <time>2024-04-07T09:57:40Z</time>
      </trkpt>
      <trkpt lat="48.92785" lon="-0.47748">
        <ele>119</ele>
        <time>2024-04-07T09:57:41Z</time>
      </trkpt>
      <trkpt lat="48.92783" lon="-0.47758">
        <ele>119</ele>
        <time>2024-04-07T09:57:42Z</time>
      </trkpt>
      <trkpt lat="48.92781" lon="-0.47769">
        <ele>119.2</ele>
        <time>2024-04-07T09:57:43Z</time>
      </trkpt>
      <trkpt lat="48.92778" lon="-0.4778">
        <ele>119.2</ele>
        <time>2024-04-07T09:57:44Z</time>
      </trkpt>
      <trkpt lat="48.92776" lon="-0.4779">
        <ele>119.4</ele>
        <time>2024-04-07T09:57:45Z</time>
      </trkpt>
      <trkpt lat="48.92774" lon="-0.478">
        <ele>119.6</ele>
        <time>2024-04-07T09:57:46Z</time>
      </trkpt>
      <trkpt lat="48.92773" lon="-0.47811">
        <ele>119.8</ele>
        <time>2024-04-07T09:57:47Z</time>
      </trkpt>
      <trkpt lat="48.92771" lon="-0.47821">
        <ele>119.8</ele>
        <time>2024-04-07T09:57:48Z</time>
      </trkpt>
      <trkpt lat="48.9277" lon="-0.47832">
        <ele>119.8</ele>
        <time>2024-04-07T09:57:49Z</time>
      </trkpt>
      <trkpt lat="48.92768" lon="-0.47843">
        <ele>119.8</ele>
        <time>2024-04-07T09:57:50Z</time>
      </trkpt>
      <trkpt lat="48.92767" lon="-0.47854">
        <ele>119.8</ele>
        <time>2024-04-07T09:57:51Z</time>
      </trkpt>
      <trkpt lat="48.92766" lon="-0.47865">
        <ele>119.8</ele>
        <time>2024-04-07T09:57:52Z</time>
      </trkpt>
      <trkpt lat="48.92765" lon="-0.47875">
        <ele>119.8</ele>
        <time>2024-04-07T09:57:53Z</time>
      </trkpt>
      <trkpt lat="48.92763" lon="-0.47886">
        <ele>119.8</ele>
        <time>2024-04-07T09:57:54Z</time>
      </trkpt>
      <trkpt lat="48.92763" lon="-0.47896">
        <ele>120</ele>
        <time>2024-04-07T09:57:55Z</time>
      </trkpt>
      <trkpt lat="48.92762" lon="-0.47906">
        <ele>120.2</ele>
        <time>2024-04-07T09:57:56Z</time>
      </trkpt>
      <trkpt lat="48.9276" lon="-0.47916">
        <ele>120.4</ele>
        <time>2024-04-07T09:57:57Z</time>
      </trkpt>
      <trkpt lat="48.92759" lon="-0.47925">
        <ele>120.4</ele>
        <time>2024-04-07T09:57:58Z</time>
      </trkpt>
      <trkpt lat="48.92758" lon="-0.47935">
        <ele>120.6</ele>
        <time>2024-04-07T09:57:59Z</time>
      </trkpt>
      <trkpt lat="48.92757" lon="-0.47945">
        <ele>120.6</ele>
        <time>2024-04-07T09:58:00Z</time>
      </trkpt>
      <trkpt lat="48.92757" lon="-0.47955">
        <ele>120.6</ele>
        <time>2024-04-07T09:58:01Z</time>
      </trkpt>
      <trkpt lat="48.92757" lon="-0.47965">
        <ele>120.6</ele>
        <time>2024-04-07T09:58:02Z</time>
      </trkpt>
      <trkpt lat="48.92757" lon="-0.47975">
        <ele>120.4</ele>
        <time>2024-04-07T09:58:03Z</time>
      </trkpt>
      <trkpt lat="48.92757" lon="-0.47975">
        <ele>120.4</ele>
        <time>2024-04-07T09:58:04Z</time>
      </trkpt>
      <trkpt lat="48.92757" lon="-0.47984">
        <ele>120.2</ele>
        <time>2024-04-07T09:58:05Z</time>
      </trkpt>
      <trkpt lat="48.92759" lon="-0.48005">
        <ele>120.2</ele>
        <time>2024-04-07T09:58:06Z</time>
      </trkpt>
      <trkpt lat="48.9276" lon="-0.48015">
        <ele>120.2</ele>
        <time>2024-04-07T09:58:07Z</time>
      </trkpt>
      <trkpt lat="48.92762" lon="-0.48024">
        <ele>120.2</ele>
        <time>2024-04-07T09:58:08Z</time>
      </trkpt>
      <trkpt lat="48.92762" lon="-0.48034">
        <ele>120.4</ele>
        <time>2024-04-07T09:58:09Z</time>
      </trkpt>
      <trkpt lat="48.92763" lon="-0.48044">
        <ele>120.6</ele>
        <time>2024-04-07T09:58:10Z</time>
      </trkpt>
      <trkpt lat="48.92764" lon="-0.48055">
        <ele>120.6</ele>
        <time>2024-04-07T09:58:11Z</time>
      </trkpt>
      <trkpt lat="48.92764" lon="-0.48064">
        <ele>120.8</ele>
        <time>2024-04-07T09:58:12Z</time>
      </trkpt>
      <trkpt lat="48.92765" lon="-0.48074">
        <ele>120.8</ele>
        <time>2024-04-07T09:58:13Z</time>
      </trkpt>
      <trkpt lat="48.92766" lon="-0.48083">
        <ele>120.8</ele>
        <time>2024-04-07T09:58:14Z</time>
      </trkpt>
      <trkpt lat="48.92767" lon="-0.48092">
        <ele>121</ele>
        <time>2024-04-07T09:58:15Z</time>
      </trkpt>
      <trkpt lat="48.92767" lon="-0.48101">
        <ele>121</ele>
        <time>2024-04-07T09:58:16Z</time>
      </trkpt>
      <trkpt lat="48.92768" lon="-0.48111">
        <ele>120.8</ele>
        <time>2024-04-07T09:58:17Z</time>
      </trkpt>
      <trkpt lat="48.92768" lon="-0.48121">
        <ele>121</ele>
        <time>2024-04-07T09:58:18Z</time>
      </trkpt>
      <trkpt lat="48.92769" lon="-0.4813">
        <ele>121</ele>
        <time>2024-04-07T09:58:19Z</time>
      </trkpt>
      <trkpt lat="48.92769" lon="-0.48139">
        <ele>121</ele>
        <time>2024-04-07T09:58:20Z</time>
      </trkpt>
      <trkpt lat="48.92769" lon="-0.48144">
        <ele>121.2</ele>
        <time>2024-04-07T09:58:21Z</time>
      </trkpt>
      <trkpt lat="48.92769" lon="-0.4815">
        <ele>121.2</ele>
        <time>2024-04-07T09:58:22Z</time>
      </trkpt>
      <trkpt lat="48.92769" lon="-0.48162">
        <ele>121.4</ele>
        <time>2024-04-07T09:58:23Z</time>
      </trkpt>
      <trkpt lat="48.92769" lon="-0.48168">
        <ele>121.4</ele>
        <time>2024-04-07T09:58:24Z</time>
      </trkpt>
      <trkpt lat="48.92769" lon="-0.48168">
        <ele>121.8</ele>
        <time>2024-04-07T09:58:25Z</time>
      </trkpt>
      <trkpt lat="48.92769" lon="-0.48173">
        <ele>122</ele>
        <time>2024-04-07T09:58:26Z</time>
      </trkpt>
      <trkpt lat="48.9277" lon="-0.48178">
        <ele>122.2</ele>
        <time>2024-04-07T09:58:27Z</time>
      </trkpt>
      <trkpt lat="48.92771" lon="-0.48188">
        <ele>122.2</ele>
        <time>2024-04-07T09:58:28Z</time>
      </trkpt>
      <trkpt lat="48.92772" lon="-0.48193">
        <ele>122.2</ele>
        <time>2024-04-07T09:58:29Z</time>
      </trkpt>
      <trkpt lat="48.92772" lon="-0.48193">
        <ele>122.2</ele>
        <time>2024-04-07T09:58:30Z</time>
      </trkpt>
      <trkpt lat="48.92773" lon="-0.48203">
        <ele>122.4</ele>
        <time>2024-04-07T09:58:31Z</time>
      </trkpt>
      <trkpt lat="48.92774" lon="-0.48209">
        <ele>122.4</ele>
        <time>2024-04-07T09:58:32Z</time>
      </trkpt>
      <trkpt lat="48.92775" lon="-0.48215">
        <ele>122.4</ele>
        <time>2024-04-07T09:58:33Z</time>
      </trkpt>
      <trkpt lat="48.92775" lon="-0.48222">
        <ele>122.4</ele>
        <time>2024-04-07T09:58:34Z</time>
      </trkpt>
      <trkpt lat="48.92776" lon="-0.48228">
        <ele>122.4</ele>
        <time>2024-04-07T09:58:35Z</time>
      </trkpt>
      <trkpt lat="48.92776" lon="-0.48236">
        <ele>122.4</ele>
        <time>2024-04-07T09:58:36Z</time>
      </trkpt>
      <trkpt lat="48.92776" lon="-0.48243">
        <ele>122.4</ele>
        <time>2024-04-07T09:58:37Z</time>
      </trkpt>
      <trkpt lat="48.92776" lon="-0.48251">
        <ele>122.4</ele>
        <time>2024-04-07T09:58:38Z</time>
      </trkpt>
      <trkpt lat="48.92776" lon="-0.48259">
        <ele>122.4</ele>
        <time>2024-04-07T09:58:39Z</time>
      </trkpt>
      <trkpt lat="48.92777" lon="-0.48266">
        <ele>122.4</ele>
        <time>2024-04-07T09:58:40Z</time>
      </trkpt>
      <trkpt lat="48.92778" lon="-0.48274">
        <ele>122.2</ele>
        <time>2024-04-07T09:58:41Z</time>
      </trkpt>
      <trkpt lat="48.92778" lon="-0.48283">
        <ele>122.2</ele>
        <time>2024-04-07T09:58:42Z</time>
      </trkpt>
      <trkpt lat="48.92779" lon="-0.48291">
        <ele>122.2</ele>
        <time>2024-04-07T09:58:43Z</time>
      </trkpt>
      <trkpt lat="48.92779" lon="-0.483">
        <ele>122.2</ele>
        <time>2024-04-07T09:58:44Z</time>
      </trkpt>
      <trkpt lat="48.92779" lon="-0.48309">
        <ele>122.2</ele>
        <time>2024-04-07T09:58:45Z</time>
      </trkpt>
      <trkpt lat="48.92779" lon="-0.48318">
        <ele>122.2</ele>
        <time>2024-04-07T09:58:46Z</time>
      </trkpt>
      <trkpt lat="48.9278" lon="-0.48327">
        <ele>122.2</ele>
        <time>2024-04-07T09:58:47Z</time>
      </trkpt>
      <trkpt lat="48.9278" lon="-0.48335">
        <ele>122.2</ele>
        <time>2024-04-07T09:58:48Z</time>
      </trkpt>
      <trkpt lat="48.92781" lon="-0.48344">
        <ele>122.2</ele>
        <time>2024-04-07T09:58:49Z</time>
      </trkpt>
      <trkpt lat="48.92781" lon="-0.48344">
        <ele>122.2</ele>
        <time>2024-04-07T09:58:50Z</time>
      </trkpt>
      <trkpt lat="48.92782" lon="-0.48362">
        <ele>122.2</ele>
        <time>2024-04-07T09:58:51Z</time>
      </trkpt>
      <trkpt lat="48.92783" lon="-0.48372">
        <ele>122.2</ele>
        <time>2024-04-07T09:58:52Z</time>
      </trkpt>
      <trkpt lat="48.92783" lon="-0.48382">
        <ele>122.2</ele>
        <time>2024-04-07T09:58:53Z</time>
      </trkpt>
      <trkpt lat="48.92784" lon="-0.48391">
        <ele>122.2</ele>
        <time>2024-04-07T09:58:54Z</time>
      </trkpt>
      <trkpt lat="48.92784" lon="-0.48401">
        <ele>122.4</ele>
        <time>2024-04-07T09:58:55Z</time>
      </trkpt>
      <trkpt lat="48.92785" lon="-0.48411">
        <ele>122.2</ele>
        <time>2024-04-07T09:58:56Z</time>
      </trkpt>
      <trkpt lat="48.92785" lon="-0.4842">
        <ele>122.2</ele>
        <time>2024-04-07T09:58:57Z</time>
      </trkpt>
      <trkpt lat="48.92786" lon="-0.4843">
        <ele>122.2</ele>
        <time>2024-04-07T09:58:58Z</time>
      </trkpt>
      <trkpt lat="48.92787" lon="-0.4844">
        <ele>122.2</ele>
        <time>2024-04-07T09:58:59Z</time>
      </trkpt>
      <trkpt lat="48.92787" lon="-0.48449">
        <ele>122.2</ele>
        <time>2024-04-07T09:59:00Z</time>
      </trkpt>
      <trkpt lat="48.92788" lon="-0.48459">
        <ele>122.2</ele>
        <time>2024-04-07T09:59:01Z</time>
      </trkpt>
      <trkpt lat="48.92788" lon="-0.4847">
        <ele>122.2</ele>
        <time>2024-04-07T09:59:02Z</time>
      </trkpt>
      <trkpt lat="48.92788" lon="-0.4848">
        <ele>122.2</ele>
        <time>2024-04-07T09:59:03Z</time>
      </trkpt>
      <trkpt lat="48.92788" lon="-0.48489">
        <ele>122.2</ele>
        <time>2024-04-07T09:59:04Z</time>
      </trkpt>
      <trkpt lat="48.92788" lon="-0.48489">
        <ele>122.4</ele>
        <time>2024-04-07T09:59:05Z</time>
      </trkpt>
      <trkpt lat="48.92789" lon="-0.48509">
        <ele>122.4</ele>
        <time>2024-04-07T09:59:06Z</time>
      </trkpt>
      <trkpt lat="48.92789" lon="-0.48519">
        <ele>122.4</ele>
        <time>2024-04-07T09:59:07Z</time>
      </trkpt>
      <trkpt lat="48.9279" lon="-0.48529">
        <ele>122.4</ele>
        <time>2024-04-07T09:59:08Z</time>
      </trkpt>
      <trkpt lat="48.9279" lon="-0.48529">
        <ele>122.6</ele>
        <time>2024-04-07T09:59:09Z</time>
      </trkpt>
      <trkpt lat="48.9279" lon="-0.48549">
        <ele>122.6</ele>
        <time>2024-04-07T09:59:10Z</time>
      </trkpt>
      <trkpt lat="48.9279" lon="-0.48559">
        <ele>122.6</ele>
        <time>2024-04-07T09:59:11Z</time>
      </trkpt>
      <trkpt lat="48.92791" lon="-0.48567">
        <ele>122.8</ele>
        <time>2024-04-07T09:59:12Z</time>
      </trkpt>
      <trkpt lat="48.92791" lon="-0.48574">
        <ele>122.8</ele>
        <time>2024-04-07T09:59:13Z</time>
      </trkpt>
      <trkpt lat="48.92792" lon="-0.48589">
        <ele>123</ele>
        <time>2024-04-07T09:59:14Z</time>
      </trkpt>
      <trkpt lat="48.92793" lon="-0.486">
        <ele>123</ele>
        <time>2024-04-07T09:59:15Z</time>
      </trkpt>
      <trkpt lat="48.92794" lon="-0.4861">
        <ele>123</ele>
        <time>2024-04-07T09:59:16Z</time>
      </trkpt>
      <trkpt lat="48.92794" lon="-0.4862">
        <ele>123</ele>
        <time>2024-04-07T09:59:17Z</time>
      </trkpt>
      <trkpt lat="48.92794" lon="-0.4863">
        <ele>123</ele>
        <time>2024-04-07T09:59:18Z</time>
      </trkpt>
      <trkpt lat="48.92795" lon="-0.4864">
        <ele>123</ele>
        <time>2024-04-07T09:59:19Z</time>
      </trkpt>
      <trkpt lat="48.92795" lon="-0.48651">
        <ele>123</ele>
        <time>2024-04-07T09:59:20Z</time>
      </trkpt>
      <trkpt lat="48.92796" lon="-0.48659">
        <ele>123</ele>
        <time>2024-04-07T09:59:21Z</time>
      </trkpt>
      <trkpt lat="48.92797" lon="-0.48667">
        <ele>123</ele>
        <time>2024-04-07T09:59:22Z</time>
      </trkpt>
      <trkpt lat="48.92798" lon="-0.48684">
        <ele>123</ele>
        <time>2024-04-07T09:59:23Z</time>
      </trkpt>
      <trkpt lat="48.92798" lon="-0.48694">
        <ele>123</ele>
        <time>2024-04-07T09:59:24Z</time>
      </trkpt>
      <trkpt lat="48.92799" lon="-0.48705">
        <ele>123</ele>
        <time>2024-04-07T09:59:25Z</time>
      </trkpt>
      <trkpt lat="48.92799" lon="-0.48716">
        <ele>123</ele>
        <time>2024-04-07T09:59:26Z</time>
      </trkpt>
      <trkpt lat="48.92799" lon="-0.48727">
        <ele>123</ele>
        <time>2024-04-07T09:59:27Z</time>
      </trkpt>
      <trkpt lat="48.92799" lon="-0.48739">
        <ele>123</ele>
        <time>2024-04-07T09:59:28Z</time>
      </trkpt>
      <trkpt lat="48.92799" lon="-0.4875">
        <ele>123</ele>
        <time>2024-04-07T09:59:29Z</time>
      </trkpt>
      <trkpt lat="48.92799" lon="-0.48761">
        <ele>123</ele>
        <time>2024-04-07T09:59:30Z</time>
      </trkpt>
      <trkpt lat="48.92799" lon="-0.48772">
        <ele>122.8</ele>
        <time>2024-04-07T09:59:31Z</time>
      </trkpt>
      <trkpt lat="48.928" lon="-0.48783">
        <ele>122.8</ele>
        <time>2024-04-07T09:59:32Z</time>
      </trkpt>
      <trkpt lat="48.928" lon="-0.48793">
        <ele>122.8</ele>
        <time>2024-04-07T09:59:33Z</time>
      </trkpt>
      <trkpt lat="48.92801" lon="-0.48804">
        <ele>122.6</ele>
        <time>2024-04-07T09:59:34Z</time>
      </trkpt>
      <trkpt lat="48.92801" lon="-0.48814">
        <ele>122.6</ele>
        <time>2024-04-07T09:59:35Z</time>
      </trkpt>
      <trkpt lat="48.92802" lon="-0.48824">
        <ele>122.6</ele>
        <time>2024-04-07T09:59:36Z</time>
      </trkpt>
      <trkpt lat="48.92802" lon="-0.48834">
        <ele>122.6</ele>
        <time>2024-04-07T09:59:37Z</time>
      </trkpt>
      <trkpt lat="48.92802" lon="-0.48834">
        <ele>122.6</ele>
        <time>2024-04-07T09:59:38Z</time>
      </trkpt>
      <trkpt lat="48.92804" lon="-0.48855">
        <ele>122.6</ele>
        <time>2024-04-07T09:59:39Z</time>
      </trkpt>
      <trkpt lat="48.92804" lon="-0.48865">
        <ele>122.4</ele>
        <time>2024-04-07T09:59:40Z</time>
      </trkpt>
      <trkpt lat="48.92805" lon="-0.48875">
        <ele>122.4</ele>
        <time>2024-04-07T09:59:41Z</time>
      </trkpt>
      <trkpt lat="48.92805" lon="-0.48885">
        <ele>122.4</ele>
        <time>2024-04-07T09:59:42Z</time>
      </trkpt>
      <trkpt lat="48.92806" lon="-0.4889">
        <ele>122.4</ele>
        <time>2024-04-07T09:59:43Z</time>
      </trkpt>
      <trkpt lat="48.92806" lon="-0.48895">
        <ele>122.4</ele>
        <time>2024-04-07T09:59:44Z</time>
      </trkpt>
      <trkpt lat="48.92807" lon="-0.48916">
        <ele>122.2</ele>
        <time>2024-04-07T09:59:45Z</time>
      </trkpt>
      <trkpt lat="48.92807" lon="-0.48926">
        <ele>122</ele>
        <time>2024-04-07T09:59:46Z</time>
      </trkpt>
      <trkpt lat="48.92808" lon="-0.48931">
        <ele>122</ele>
        <time>2024-04-07T09:59:47Z</time>
      </trkpt>
      <trkpt lat="48.92808" lon="-0.48936">
        <ele>121.8</ele>
        <time>2024-04-07T09:59:48Z</time>
      </trkpt>
      <trkpt lat="48.92809" lon="-0.48956">
        <ele>121.6</ele>
        <time>2024-04-07T09:59:49Z</time>
      </trkpt>
      <trkpt lat="48.92809" lon="-0.48966">
        <ele>121.6</ele>
        <time>2024-04-07T09:59:50Z</time>
      </trkpt>
      <trkpt lat="48.9281" lon="-0.48976">
        <ele>121.6</ele>
        <time>2024-04-07T09:59:51Z</time>
      </trkpt>
      <trkpt lat="48.9281" lon="-0.48976">
        <ele>121.8</ele>
        <time>2024-04-07T09:59:52Z</time>
      </trkpt>
      <trkpt lat="48.92811" lon="-0.48998">
        <ele>122</ele>
        <time>2024-04-07T09:59:53Z</time>
      </trkpt>
      <trkpt lat="48.92812" lon="-0.49008">
        <ele>122</ele>
        <time>2024-04-07T09:59:54Z</time>
      </trkpt>
      <trkpt lat="48.92812" lon="-0.49014">
        <ele>122.2</ele>
        <time>2024-04-07T09:59:55Z</time>
      </trkpt>
      <trkpt lat="48.92812" lon="-0.49019">
        <ele>122.4</ele>
        <time>2024-04-07T09:59:56Z</time>
      </trkpt>
      <trkpt lat="48.92813" lon="-0.49041">
        <ele>122.2</ele>
        <time>2024-04-07T09:59:57Z</time>
      </trkpt>
      <trkpt lat="48.92813" lon="-0.49052">
        <ele>122.2</ele>
        <time>2024-04-07T09:59:58Z</time>
      </trkpt>
      <trkpt lat="48.92813" lon="-0.49063">
        <ele>122.4</ele>
        <time>2024-04-07T09:59:59Z</time>
      </trkpt>
      <trkpt lat="48.92814" lon="-0.49074">
        <ele>122.4</ele>
        <time>2024-04-07T10:00:00Z</time>
      </trkpt>
      <trkpt lat="48.92814" lon="-0.49085">
        <ele>122.4</ele>
        <time>2024-04-07T10:00:01Z</time>
      </trkpt>
      <trkpt lat="48.92814" lon="-0.49091">
        <ele>122.2</ele>
        <time>2024-04-07T10:00:02Z</time>
      </trkpt>
      <trkpt lat="48.92815" lon="-0.49096">
        <ele>122.2</ele>
        <time>2024-04-07T10:00:03Z</time>
      </trkpt>
      <trkpt lat="48.92816" lon="-0.49113">
        <ele>122.2</ele>
        <time>2024-04-07T10:00:04Z</time>
      </trkpt>
      <trkpt lat="48.92816" lon="-0.49119">
        <ele>122.2</ele>
        <time>2024-04-07T10:00:05Z</time>
      </trkpt>
      <trkpt lat="48.92818" lon="-0.4913">
        <ele>122</ele>
        <time>2024-04-07T10:00:06Z</time>
      </trkpt>
      <trkpt lat="48.92818" lon="-0.49141">
        <ele>121.8</ele>
        <time>2024-04-07T10:00:07Z</time>
      </trkpt>
      <trkpt lat="48.92819" lon="-0.49163">
        <ele>121.8</ele>
        <time>2024-04-07T10:00:08Z</time>
      </trkpt>
      <trkpt lat="48.9282" lon="-0.49169">
        <ele>121.6</ele>
        <time>2024-04-07T10:00:09Z</time>
      </trkpt>
      <trkpt lat="48.9282" lon="-0.49174">
        <ele>121.6</ele>
        <time>2024-04-07T10:00:10Z</time>
      </trkpt>
      <trkpt lat="48.92821" lon="-0.49185">
        <ele>121.4</ele>
        <time>2024-04-07T10:00:11Z</time>
      </trkpt>
      <trkpt lat="48.92822" lon="-0.49207">
        <ele>121.4</ele>
        <time>2024-04-07T10:00:12Z</time>
      </trkpt>
      <trkpt lat="48.92822" lon="-0.49216">
        <ele>121.4</ele>
        <time>2024-04-07T10:00:13Z</time>
      </trkpt>
      <trkpt lat="48.92823" lon="-0.49224">
        <ele>121.6</ele>
        <time>2024-04-07T10:00:14Z</time>
      </trkpt>
      <trkpt lat="48.92823" lon="-0.49242">
        <ele>121.6</ele>
        <time>2024-04-07T10:00:15Z</time>
      </trkpt>
      <trkpt lat="48.92824" lon="-0.49247">
        <ele>121.6</ele>
        <time>2024-04-07T10:00:16Z</time>
      </trkpt>
      <trkpt lat="48.92824" lon="-0.49253">
        <ele>121.6</ele>
        <time>2024-04-07T10:00:17Z</time>
      </trkpt>
      <trkpt lat="48.92825" lon="-0.49264">
        <ele>121.6</ele>
        <time>2024-04-07T10:00:18Z</time>
      </trkpt>
      <trkpt lat="48.92826" lon="-0.49275">
        <ele>121.6</ele>
        <time>2024-04-07T10:00:19Z</time>
      </trkpt>
      <trkpt lat="48.92827" lon="-0.49286">
        <ele>121.6</ele>
        <time>2024-04-07T10:00:20Z</time>
      </trkpt>
      <trkpt lat="48.92829" lon="-0.49307">
        <ele>121.6</ele>
        <time>2024-04-07T10:00:21Z</time>
      </trkpt>
      <trkpt lat="48.9283" lon="-0.49318">
        <ele>121.6</ele>
        <time>2024-04-07T10:00:22Z</time>
      </trkpt>
      <trkpt lat="48.92831" lon="-0.49329">
        <ele>121.4</ele>
        <time>2024-04-07T10:00:23Z</time>
      </trkpt>
      <trkpt lat="48.92831" lon="-0.49338">
        <ele>121.4</ele>
        <time>2024-04-07T10:00:24Z</time>
      </trkpt>
      <trkpt lat="48.92831" lon="-0.49346">
        <ele>121.6</ele>
        <time>2024-04-07T10:00:25Z</time>
      </trkpt>
      <trkpt lat="48.92832" lon="-0.49363">
        <ele>121.6</ele>
        <time>2024-04-07T10:00:26Z</time>
      </trkpt>
      <trkpt lat="48.92833" lon="-0.49374">
        <ele>121.6</ele>
        <time>2024-04-07T10:00:27Z</time>
      </trkpt>
      <trkpt lat="48.92833" lon="-0.49381">
        <ele>121.6</ele>
        <time>2024-04-07T10:00:28Z</time>
      </trkpt>
      <trkpt lat="48.92833" lon="-0.49388">
        <ele>121.6</ele>
        <time>2024-04-07T10:00:29Z</time>
      </trkpt>
      <trkpt lat="48.92833" lon="-0.49403">
        <ele>121.6</ele>
        <time>2024-04-07T10:00:30Z</time>
      </trkpt>
      <trkpt lat="48.92834" lon="-0.49407">
        <ele>121.6</ele>
        <time>2024-04-07T10:00:31Z</time>
      </trkpt>
      <trkpt lat="48.92834" lon="-0.49412">
        <ele>121.6</ele>
        <time>2024-04-07T10:00:32Z</time>
      </trkpt>
      <trkpt lat="48.92834" lon="-0.49419">
        <ele>121.6</ele>
        <time>2024-04-07T10:00:33Z</time>
      </trkpt>
      <trkpt lat="48.92834" lon="-0.49425">
        <ele>122</ele>
        <time>2024-04-07T10:00:34Z</time>
      </trkpt>
      <trkpt lat="48.92835" lon="-0.49434">
        <ele>122.4</ele>
        <time>2024-04-07T10:00:35Z</time>
      </trkpt>
      <trkpt lat="48.92835" lon="-0.49438">
        <ele>122.8</ele>
        <time>2024-04-07T10:00:36Z</time>
      </trkpt>
      <trkpt lat="48.92835" lon="-0.49442">
        <ele>123.2</ele>
        <time>2024-04-07T10:00:37Z</time>
      </trkpt>
      <trkpt lat="48.92835" lon="-0.49442">
        <ele>123.2</ele>
        <time>2024-04-07T10:00:38Z</time>
      </trkpt>
      <trkpt lat="48.92835" lon="-0.49446">
        <ele>123.4</ele>
        <time>2024-04-07T10:00:39Z</time>
      </trkpt>
      <trkpt lat="48.92835" lon="-0.49455">
        <ele>123.4</ele>
        <time>2024-04-07T10:00:40Z</time>
      </trkpt>
      <trkpt lat="48.92835" lon="-0.49455">
        <ele>123.4</ele>
        <time>2024-04-07T10:00:41Z</time>
      </trkpt>
      <trkpt lat="48.92836" lon="-0.49464">
        <ele>123.2</ele>
        <time>2024-04-07T10:00:42Z</time>
      </trkpt>
      <trkpt lat="48.92836" lon="-0.49467">
        <ele>123</ele>
        <time>2024-04-07T10:00:43Z</time>
      </trkpt>
      <trkpt lat="48.92836" lon="-0.49482">
        <ele>123</ele>
        <time>2024-04-07T10:00:44Z</time>
      </trkpt>
      <trkpt lat="48.92836" lon="-0.4949">
        <ele>122.8</ele>
        <time>2024-04-07T10:00:45Z</time>
      </trkpt>
      <trkpt lat="48.92836" lon="-0.49499">
        <ele>122.8</ele>
        <time>2024-04-07T10:00:46Z</time>
      </trkpt>
      <trkpt lat="48.92836" lon="-0.49508">
        <ele>122.8</ele>
        <time>2024-04-07T10:00:47Z</time>
      </trkpt>
      <trkpt lat="48.92836" lon="-0.49513">
        <ele>122.6</ele>
        <time>2024-04-07T10:00:48Z</time>
      </trkpt>
      <trkpt lat="48.92836" lon="-0.49518">
        <ele>122.6</ele>
        <time>2024-04-07T10:00:49Z</time>
      </trkpt>
      <trkpt lat="48.92836" lon="-0.49538">
        <ele>122.6</ele>
        <time>2024-04-07T10:00:50Z</time>
      </trkpt>
      <trkpt lat="48.92836" lon="-0.49543">
        <ele>122.4</ele>
        <time>2024-04-07T10:00:51Z</time>
      </trkpt>
      <trkpt lat="48.92836" lon="-0.49548">
        <ele>122.2</ele>
        <time>2024-04-07T10:00:52Z</time>
      </trkpt>
      <trkpt lat="48.92837" lon="-0.49557">
        <ele>122</ele>
        <time>2024-04-07T10:00:53Z</time>
      </trkpt>
      <trkpt lat="48.92839" lon="-0.49578">
        <ele>121.8</ele>
        <time>2024-04-07T10:00:54Z</time>
      </trkpt>
      <trkpt lat="48.9284" lon="-0.49588">
        <ele>121.6</ele>
        <time>2024-04-07T10:00:55Z</time>
      </trkpt>
      <trkpt lat="48.9284" lon="-0.49598">
        <ele>121.2</ele>
        <time>2024-04-07T10:00:56Z</time>
      </trkpt>
      <trkpt lat="48.92841" lon="-0.49604">
        <ele>121</ele>
        <time>2024-04-07T10:00:57Z</time>
      </trkpt>
      <trkpt lat="48.92841" lon="-0.49609">
        <ele>120.8</ele>
        <time>2024-04-07T10:00:58Z</time>
      </trkpt>
      <trkpt lat="48.92842" lon="-0.49625">
        <ele>120.6</ele>
        <time>2024-04-07T10:00:59Z</time>
      </trkpt>
      <trkpt lat="48.92842" lon="-0.4963">
        <ele>120.6</ele>
        <time>2024-04-07T10:01:00Z</time>
      </trkpt>
      <trkpt lat="48.92843" lon="-0.49641">
        <ele>120.6</ele>
        <time>2024-04-07T10:01:01Z</time>
      </trkpt>
      <trkpt lat="48.92845" lon="-0.49663">
        <ele>120.4</ele>
        <time>2024-04-07T10:01:02Z</time>
      </trkpt>
      <trkpt lat="48.92845" lon="-0.49669">
        <ele>120.2</ele>
        <time>2024-04-07T10:01:03Z</time>
      </trkpt>
      <trkpt lat="48.92846" lon="-0.49674">
        <ele>120.2</ele>
        <time>2024-04-07T10:01:04Z</time>
      </trkpt>
      <trkpt lat="48.92847" lon="-0.49694">
        <ele>120</ele>
        <time>2024-04-07T10:01:05Z</time>
      </trkpt>
      <trkpt lat="48.92847" lon="-0.49702">
        <ele>119.8</ele>
        <time>2024-04-07T10:01:06Z</time>
      </trkpt>
      <trkpt lat="48.92848" lon="-0.49719">
        <ele>119.6</ele>
        <time>2024-04-07T10:01:07Z</time>
      </trkpt>
      <trkpt lat="48.92848" lon="-0.49725">
        <ele>119.6</ele>
        <time>2024-04-07T10:01:08Z</time>
      </trkpt>
      <trkpt lat="48.92849" lon="-0.4973">
        <ele>119.4</ele>
        <time>2024-04-07T10:01:09Z</time>
      </trkpt>
      <trkpt lat="48.92849" lon="-0.49742">
        <ele>119.4</ele>
        <time>2024-04-07T10:01:10Z</time>
      </trkpt>
      <trkpt lat="48.9285" lon="-0.49759">
        <ele>119.4</ele>
        <time>2024-04-07T10:01:11Z</time>
      </trkpt>
      <trkpt lat="48.92851" lon="-0.49764">
        <ele>119.6</ele>
        <time>2024-04-07T10:01:12Z</time>
      </trkpt>
      <trkpt lat="48.92851" lon="-0.49776">
        <ele>119.6</ele>
        <time>2024-04-07T10:01:13Z</time>
      </trkpt>
      <trkpt lat="48.92852" lon="-0.49788">
        <ele>119.6</ele>
        <time>2024-04-07T10:01:14Z</time>
      </trkpt>
      <trkpt lat="48.92853" lon="-0.49799">
        <ele>119.6</ele>
        <time>2024-04-07T10:01:15Z</time>
      </trkpt>
      <trkpt lat="48.92854" lon="-0.4981">
        <ele>119.6</ele>
        <time>2024-04-07T10:01:16Z</time>
      </trkpt>
      <trkpt lat="48.92856" lon="-0.49833">
        <ele>119.6</ele>
        <time>2024-04-07T10:01:17Z</time>
      </trkpt>
      <trkpt lat="48.92856" lon="-0.49838">
        <ele>119.4</ele>
        <time>2024-04-07T10:01:18Z</time>
      </trkpt>
      <trkpt lat="48.92857" lon="-0.49844">
        <ele>119.4</ele>
        <time>2024-04-07T10:01:19Z</time>
      </trkpt>
      <trkpt lat="48.92858" lon="-0.49854">
        <ele>119.4</ele>
        <time>2024-04-07T10:01:20Z</time>
      </trkpt>
      <trkpt lat="48.92859" lon="-0.49865">
        <ele>119.2</ele>
        <time>2024-04-07T10:01:21Z</time>
      </trkpt>
      <trkpt lat="48.9286" lon="-0.49876">
        <ele>119.2</ele>
        <time>2024-04-07T10:01:22Z</time>
      </trkpt>
      <trkpt lat="48.9286" lon="-0.49887">
        <ele>119.2</ele>
        <time>2024-04-07T10:01:23Z</time>
      </trkpt>
      <trkpt lat="48.92861" lon="-0.49897">
        <ele>119</ele>
        <time>2024-04-07T10:01:24Z</time>
      </trkpt>
      <trkpt lat="48.92862" lon="-0.49909">
        <ele>118.8</ele>
        <time>2024-04-07T10:01:25Z</time>
      </trkpt>
      <trkpt lat="48.92862" lon="-0.49919">
        <ele>118.8</ele>
        <time>2024-04-07T10:01:26Z</time>
      </trkpt>
      <trkpt lat="48.92863" lon="-0.49942">
        <ele>118.8</ele>
        <time>2024-04-07T10:01:27Z</time>
      </trkpt>
      <trkpt lat="48.92864" lon="-0.49947">
        <ele>119</ele>
        <time>2024-04-07T10:01:28Z</time>
      </trkpt>
      <trkpt lat="48.92864" lon="-0.49953">
        <ele>119.4</ele>
        <time>2024-04-07T10:01:29Z</time>
      </trkpt>
      <trkpt lat="48.92865" lon="-0.49964">
        <ele>119.8</ele>
        <time>2024-04-07T10:01:30Z</time>
      </trkpt>
      <trkpt lat="48.92867" lon="-0.49987">
        <ele>119.8</ele>
        <time>2024-04-07T10:01:31Z</time>
      </trkpt>
      <trkpt lat="48.92867" lon="-0.49987">
        <ele>120</ele>
        <time>2024-04-07T10:01:32Z</time>
      </trkpt>
      <trkpt lat="48.9287" lon="-0.50004">
        <ele>120</ele>
        <time>2024-04-07T10:01:33Z</time>
      </trkpt>
      <trkpt lat="48.92871" lon="-0.50009">
        <ele>119.8</ele>
        <time>2024-04-07T10:01:34Z</time>
      </trkpt>
      <trkpt lat="48.92874" lon="-0.50026">
        <ele>119.4</ele>
        <time>2024-04-07T10:01:35Z</time>
      </trkpt>
      <trkpt lat="48.92874" lon="-0.50032">
        <ele>119.2</ele>
        <time>2024-04-07T10:01:36Z</time>
      </trkpt>
      <trkpt lat="48.92877" lon="-0.50049">
        <ele>119</ele>
        <time>2024-04-07T10:01:37Z</time>
      </trkpt>
      <trkpt lat="48.92878" lon="-0.50054">
        <ele>118.8</ele>
        <time>2024-04-07T10:01:38Z</time>
      </trkpt>
      <trkpt lat="48.92882" lon="-0.50076">
        <ele>118.8</ele>
        <time>2024-04-07T10:01:39Z</time>
      </trkpt>
      <trkpt lat="48.92884" lon="-0.50087">
        <ele>118.6</ele>
        <time>2024-04-07T10:01:40Z</time>
      </trkpt>
      <trkpt lat="48.92885" lon="-0.50098">
        <ele>118.4</ele>
        <time>2024-04-07T10:01:41Z</time>
      </trkpt>
      <trkpt lat="48.92886" lon="-0.5011">
        <ele>118.2</ele>
        <time>2024-04-07T10:01:42Z</time>
      </trkpt>
      <trkpt lat="48.92889" lon="-0.50121">
        <ele>118</ele>
        <time>2024-04-07T10:01:43Z</time>
      </trkpt>
      <trkpt lat="48.92892" lon="-0.50131">
        <ele>117.8</ele>
        <time>2024-04-07T10:01:44Z</time>
      </trkpt>
      <trkpt lat="48.92894" lon="-0.50142">
        <ele>117.8</ele>
        <time>2024-04-07T10:01:45Z</time>
      </trkpt>
      <trkpt lat="48.92895" lon="-0.50154">
        <ele>117.6</ele>
        <time>2024-04-07T10:01:46Z</time>
      </trkpt>
      <trkpt lat="48.92897" lon="-0.50166">
        <ele>117.6</ele>
        <time>2024-04-07T10:01:47Z</time>
      </trkpt>
      <trkpt lat="48.92899" lon="-0.50178">
        <ele>117.6</ele>
        <time>2024-04-07T10:01:48Z</time>
      </trkpt>
      <trkpt lat="48.929" lon="-0.50189">
        <ele>117.4</ele>
        <time>2024-04-07T10:01:49Z</time>
      </trkpt>
      <trkpt lat="48.92902" lon="-0.502">
        <ele>117.4</ele>
        <time>2024-04-07T10:01:50Z</time>
      </trkpt>
      <trkpt lat="48.92904" lon="-0.50211">
        <ele>117.2</ele>
        <time>2024-04-07T10:01:51Z</time>
      </trkpt>
      <trkpt lat="48.92906" lon="-0.50222">
        <ele>117</ele>
        <time>2024-04-07T10:01:52Z</time>
      </trkpt>
      <trkpt lat="48.92907" lon="-0.50233">
        <ele>116.6</ele>
        <time>2024-04-07T10:01:53Z</time>
      </trkpt>
      <trkpt lat="48.92909" lon="-0.50244">
        <ele>116.6</ele>
        <time>2024-04-07T10:01:54Z</time>
      </trkpt>
      <trkpt lat="48.9291" lon="-0.50252">
        <ele>116.4</ele>
        <time>2024-04-07T10:01:55Z</time>
      </trkpt>
      <trkpt lat="48.92912" lon="-0.5026">
        <ele>116.4</ele>
        <time>2024-04-07T10:01:56Z</time>
      </trkpt>
      <trkpt lat="48.92914" lon="-0.50276">
        <ele>116.4</ele>
        <time>2024-04-07T10:01:57Z</time>
      </trkpt>
      <trkpt lat="48.92914" lon="-0.50276">
        <ele>116.4</ele>
        <time>2024-04-07T10:01:58Z</time>
      </trkpt>
      <trkpt lat="48.92917" lon="-0.50298">
        <ele>116.4</ele>
        <time>2024-04-07T10:01:59Z</time>
      </trkpt>
      <trkpt lat="48.92919" lon="-0.5031">
        <ele>116.4</ele>
        <time>2024-04-07T10:02:00Z</time>
      </trkpt>
      <trkpt lat="48.92921" lon="-0.5032">
        <ele>116.4</ele>
        <time>2024-04-07T10:02:01Z</time>
      </trkpt>
      <trkpt lat="48.92923" lon="-0.50331">
        <ele>116.4</ele>
        <time>2024-04-07T10:02:02Z</time>
      </trkpt>
      <trkpt lat="48.92924" lon="-0.50342">
        <ele>116.6</ele>
        <time>2024-04-07T10:02:03Z</time>
      </trkpt>
      <trkpt lat="48.92926" lon="-0.50353">
        <ele>116.4</ele>
        <time>2024-04-07T10:02:04Z</time>
      </trkpt>
      <trkpt lat="48.92927" lon="-0.50365">
        <ele>116.4</ele>
        <time>2024-04-07T10:02:05Z</time>
      </trkpt>
      <trkpt lat="48.92929" lon="-0.50376">
        <ele>116.4</ele>
        <time>2024-04-07T10:02:06Z</time>
      </trkpt>
      <trkpt lat="48.9293" lon="-0.50387">
        <ele>116.4</ele>
        <time>2024-04-07T10:02:07Z</time>
      </trkpt>
      <trkpt lat="48.92932" lon="-0.50397">
        <ele>116.2</ele>
        <time>2024-04-07T10:02:08Z</time>
      </trkpt>
      <trkpt lat="48.92933" lon="-0.50408">
        <ele>116.2</ele>
        <time>2024-04-07T10:02:09Z</time>
      </trkpt>
      <trkpt lat="48.92934" lon="-0.50416">
        <ele>116</ele>
        <time>2024-04-07T10:02:10Z</time>
      </trkpt>
      <trkpt lat="48.92935" lon="-0.50424">
        <ele>116</ele>
        <time>2024-04-07T10:02:11Z</time>
      </trkpt>
      <trkpt lat="48.92937" lon="-0.50441">
        <ele>116</ele>
        <time>2024-04-07T10:02:12Z</time>
      </trkpt>
      <trkpt lat="48.92937" lon="-0.50441">
        <ele>116</ele>
        <time>2024-04-07T10:02:13Z</time>
      </trkpt>
      <trkpt lat="48.92938" lon="-0.50452">
        <ele>116</ele>
        <time>2024-04-07T10:02:14Z</time>
      </trkpt>
      <trkpt lat="48.92941" lon="-0.50473">
        <ele>116</ele>
        <time>2024-04-07T10:02:15Z</time>
      </trkpt>
      <trkpt lat="48.92942" lon="-0.50483">
        <ele>116.2</ele>
        <time>2024-04-07T10:02:16Z</time>
      </trkpt>
      <trkpt lat="48.92943" lon="-0.50493">
        <ele>116.4</ele>
        <time>2024-04-07T10:02:17Z</time>
      </trkpt>
      <trkpt lat="48.92944" lon="-0.50501">
        <ele>116.4</ele>
        <time>2024-04-07T10:02:18Z</time>
      </trkpt>
      <trkpt lat="48.92945" lon="-0.50508">
        <ele>116.6</ele>
        <time>2024-04-07T10:02:19Z</time>
      </trkpt>
      <trkpt lat="48.92947" lon="-0.50523">
        <ele>116.6</ele>
        <time>2024-04-07T10:02:20Z</time>
      </trkpt>
      <trkpt lat="48.92948" lon="-0.50534">
        <ele>116.6</ele>
        <time>2024-04-07T10:02:21Z</time>
      </trkpt>
      <trkpt lat="48.9295" lon="-0.50543">
        <ele>116.8</ele>
        <time>2024-04-07T10:02:22Z</time>
      </trkpt>
      <trkpt lat="48.92952" lon="-0.50552">
        <ele>116.8</ele>
        <time>2024-04-07T10:02:23Z</time>
      </trkpt>
      <trkpt lat="48.92953" lon="-0.50561">
        <ele>117</ele>
        <time>2024-04-07T10:02:24Z</time>
      </trkpt>
      <trkpt lat="48.92955" lon="-0.50572">
        <ele>117.2</ele>
        <time>2024-04-07T10:02:25Z</time>
      </trkpt>
      <trkpt lat="48.92956" lon="-0.50582">
        <ele>117.4</ele>
        <time>2024-04-07T10:02:26Z</time>
      </trkpt>
      <trkpt lat="48.92957" lon="-0.50593">
        <ele>117.6</ele>
        <time>2024-04-07T10:02:27Z</time>
      </trkpt>
      <trkpt lat="48.92958" lon="-0.50603">
        <ele>117.6</ele>
        <time>2024-04-07T10:02:28Z</time>
      </trkpt>
      <trkpt lat="48.92959" lon="-0.50614">
        <ele>117.8</ele>
        <time>2024-04-07T10:02:29Z</time>
      </trkpt>
      <trkpt lat="48.9296" lon="-0.50625">
        <ele>118</ele>
        <time>2024-04-07T10:02:30Z</time>
      </trkpt>
      <trkpt lat="48.92962" lon="-0.50635">
        <ele>118.2</ele>
        <time>2024-04-07T10:02:31Z</time>
      </trkpt>
      <trkpt lat="48.92963" lon="-0.50645">
        <ele>118.6</ele>
        <time>2024-04-07T10:02:32Z</time>
      </trkpt>
      <trkpt lat="48.92964" lon="-0.50655">
        <ele>118.8</ele>
        <time>2024-04-07T10:02:33Z</time>
      </trkpt>
      <trkpt lat="48.92966" lon="-0.50665">
        <ele>118.8</ele>
        <time>2024-04-07T10:02:34Z</time>
      </trkpt>
      <trkpt lat="48.92967" lon="-0.50676">
        <ele>119</ele>
        <time>2024-04-07T10:02:35Z</time>
      </trkpt>
      <trkpt lat="48.92969" lon="-0.50686">
        <ele>119</ele>
        <time>2024-04-07T10:02:36Z</time>
      </trkpt>
      <trkpt lat="48.92971" lon="-0.50696">
        <ele>119</ele>
        <time>2024-04-07T10:02:37Z</time>
      </trkpt>
      <trkpt lat="48.92974" lon="-0.50706">
        <ele>119</ele>
        <time>2024-04-07T10:02:38Z</time>
      </trkpt>
      <trkpt lat="48.92976" lon="-0.50716">
        <ele>119</ele>
        <time>2024-04-07T10:02:39Z</time>
      </trkpt>
      <trkpt lat="48.92976" lon="-0.50716">
        <ele>119</ele>
        <time>2024-04-07T10:02:40Z</time>
      </trkpt>
      <trkpt lat="48.92981" lon="-0.50736">
        <ele>119</ele>
        <time>2024-04-07T10:02:41Z</time>
      </trkpt>
      <trkpt lat="48.92983" lon="-0.50747">
        <ele>119.2</ele>
        <time>2024-04-07T10:02:42Z</time>
      </trkpt>
      <trkpt lat="48.92983" lon="-0.50747">
        <ele>119.4</ele>
        <time>2024-04-07T10:02:43Z</time>
      </trkpt>
      <trkpt lat="48.92988" lon="-0.50768">
        <ele>119.6</ele>
        <time>2024-04-07T10:02:44Z</time>
      </trkpt>
      <trkpt lat="48.92992" lon="-0.50778">
        <ele>119.8</ele>
        <time>2024-04-07T10:02:45Z</time>
      </trkpt>
      <trkpt lat="48.92995" lon="-0.50789">
        <ele>119.8</ele>
        <time>2024-04-07T10:02:46Z</time>
      </trkpt>
      <trkpt lat="48.92998" lon="-0.50799">
        <ele>120</ele>
        <time>2024-04-07T10:02:47Z</time>
      </trkpt>
      <trkpt lat="48.93001" lon="-0.50809">
        <ele>120</ele>
        <time>2024-04-07T10:02:48Z</time>
      </trkpt>
      <trkpt lat="48.93005" lon="-0.50819">
        <ele>120</ele>
        <time>2024-04-07T10:02:49Z</time>
      </trkpt>
      <trkpt lat="48.93008" lon="-0.50829">
        <ele>120</ele>
        <time>2024-04-07T10:02:50Z</time>
      </trkpt>
      <trkpt lat="48.93011" lon="-0.50836">
        <ele>119.8</ele>
        <time>2024-04-07T10:02:51Z</time>
      </trkpt>
      <trkpt lat="48.93014" lon="-0.50843">
        <ele>119.6</ele>
        <time>2024-04-07T10:02:52Z</time>
      </trkpt>
      <trkpt lat="48.9302" lon="-0.50857">
        <ele>119.4</ele>
        <time>2024-04-07T10:02:53Z</time>
      </trkpt>
      <trkpt lat="48.93024" lon="-0.50866">
        <ele>119.4</ele>
        <time>2024-04-07T10:02:54Z</time>
      </trkpt>
      <trkpt lat="48.93028" lon="-0.50875">
        <ele>119.4</ele>
        <time>2024-04-07T10:02:55Z</time>
      </trkpt>
      <trkpt lat="48.93033" lon="-0.50884">
        <ele>119.2</ele>
        <time>2024-04-07T10:02:56Z</time>
      </trkpt>
      <trkpt lat="48.93037" lon="-0.50893">
        <ele>119.2</ele>
        <time>2024-04-07T10:02:57Z</time>
      </trkpt>
      <trkpt lat="48.93037" lon="-0.50893">
        <ele>119.2</ele>
        <time>2024-04-07T10:02:58Z</time>
      </trkpt>
      <trkpt lat="48.93042" lon="-0.50901">
        <ele>119.2</ele>
        <time>2024-04-07T10:02:59Z</time>
      </trkpt>
      <trkpt lat="48.93051" lon="-0.50915">
        <ele>119.2</ele>
        <time>2024-04-07T10:03:00Z</time>
      </trkpt>
      <trkpt lat="48.93055" lon="-0.50921">
        <ele>119.2</ele>
        <time>2024-04-07T10:03:01Z</time>
      </trkpt>
      <trkpt lat="48.93062" lon="-0.50933">
        <ele>119.2</ele>
        <time>2024-04-07T10:03:02Z</time>
      </trkpt>
      <trkpt lat="48.93067" lon="-0.50941">
        <ele>119.2</ele>
        <time>2024-04-07T10:03:03Z</time>
      </trkpt>
      <trkpt lat="48.93071" lon="-0.50948">
        <ele>119.2</ele>
        <time>2024-04-07T10:03:04Z</time>
      </trkpt>
      <trkpt lat="48.93076" lon="-0.50955">
        <ele>119.2</ele>
        <time>2024-04-07T10:03:05Z</time>
      </trkpt>
      <trkpt lat="48.93081" lon="-0.50962">
        <ele>119.2</ele>
        <time>2024-04-07T10:03:06Z</time>
      </trkpt>
      <trkpt lat="48.93087" lon="-0.50968">
        <ele>119.2</ele>
        <time>2024-04-07T10:03:07Z</time>
      </trkpt>
      <trkpt lat="48.93092" lon="-0.50974">
        <ele>119</ele>
        <time>2024-04-07T10:03:08Z</time>
      </trkpt>
      <trkpt lat="48.93098" lon="-0.5098">
        <ele>119</ele>
        <time>2024-04-07T10:03:09Z</time>
      </trkpt>
      <trkpt lat="48.93103" lon="-0.50986">
        <ele>119</ele>
        <time>2024-04-07T10:03:10Z</time>
      </trkpt>
      <trkpt lat="48.93103" lon="-0.50986">
        <ele>119</ele>
        <time>2024-04-07T10:03:11Z</time>
      </trkpt>
      <trkpt lat="48.9311" lon="-0.50993">
        <ele>119</ele>
        <time>2024-04-07T10:03:12Z</time>
      </trkpt>
      <trkpt lat="48.93112" lon="-0.50996">
        <ele>119</ele>
        <time>2024-04-07T10:03:13Z</time>
      </trkpt>
      <trkpt lat="48.93116" lon="-0.51">
        <ele>119.2</ele>
        <time>2024-04-07T10:03:14Z</time>
      </trkpt>
      <trkpt lat="48.93122" lon="-0.51007">
        <ele>119.2</ele>
        <time>2024-04-07T10:03:15Z</time>
      </trkpt>
      <trkpt lat="48.93122" lon="-0.51007">
        <ele>119.4</ele>
        <time>2024-04-07T10:03:16Z</time>
      </trkpt>
      <trkpt lat="48.93126" lon="-0.51008">
        <ele>119.6</ele>
        <time>2024-04-07T10:03:17Z</time>
      </trkpt>
      <trkpt lat="48.93129" lon="-0.51011">
        <ele>119.6</ele>
        <time>2024-04-07T10:03:18Z</time>
      </trkpt>
      <trkpt lat="48.93128" lon="-0.51014">
        <ele>119.8</ele>
        <time>2024-04-07T10:03:19Z</time>
      </trkpt>
      <trkpt lat="48.93129" lon="-0.51019">
        <ele>119.8</ele>
        <time>2024-04-07T10:03:20Z</time>
      </trkpt>
      <trkpt lat="48.93131" lon="-0.51021">
        <ele>119.8</ele>
        <time>2024-04-07T10:03:21Z</time>
      </trkpt>
      <trkpt lat="48.93134" lon="-0.51022">
        <ele>120</ele>
        <time>2024-04-07T10:03:22Z</time>
      </trkpt>
      <trkpt lat="48.93138" lon="-0.51022">
        <ele>120</ele>
        <time>2024-04-07T10:03:23Z</time>
      </trkpt>
      <trkpt lat="48.93141" lon="-0.51024">
        <ele>120</ele>
        <time>2024-04-07T10:03:24Z</time>
      </trkpt>
      <trkpt lat="48.93143" lon="-0.51028">
        <ele>120.2</ele>
        <time>2024-04-07T10:03:25Z</time>
      </trkpt>
      <trkpt lat="48.93145" lon="-0.51031">
        <ele>120.4</ele>
        <time>2024-04-07T10:03:26Z</time>
      </trkpt>
      <trkpt lat="48.93146" lon="-0.51033">
        <ele>120.4</ele>
        <time>2024-04-07T10:03:27Z</time>
      </trkpt>
      <trkpt lat="48.93149" lon="-0.51033">
        <ele>120.4</ele>
        <time>2024-04-07T10:03:28Z</time>
      </trkpt>
      <trkpt lat="48.93153" lon="-0.51031">
        <ele>120.6</ele>
        <time>2024-04-07T10:03:29Z</time>
      </trkpt>
      <trkpt lat="48.93159" lon="-0.51034">
        <ele>120.6</ele>
        <time>2024-04-07T10:03:30Z</time>
      </trkpt>
      <trkpt lat="48.93159" lon="-0.51034">
        <ele>120.6</ele>
        <time>2024-04-07T10:03:31Z</time>
      </trkpt>
      <trkpt lat="48.93161" lon="-0.51038">
        <ele>120.4</ele>
        <time>2024-04-07T10:03:32Z</time>
      </trkpt>
      <trkpt lat="48.93163" lon="-0.51043">
        <ele>120.2</ele>
        <time>2024-04-07T10:03:33Z</time>
      </trkpt>
      <trkpt lat="48.93166" lon="-0.51046">
        <ele>120.2</ele>
        <time>2024-04-07T10:03:34Z</time>
      </trkpt>
      <trkpt lat="48.93171" lon="-0.51046">
        <ele>120</ele>
        <time>2024-04-07T10:03:35Z</time>
      </trkpt>
      <trkpt lat="48.93174" lon="-0.51046">
        <ele>120</ele>
        <time>2024-04-07T10:03:36Z</time>
      </trkpt>
      <trkpt lat="48.93178" lon="-0.51047">
        <ele>120</ele>
        <time>2024-04-07T10:03:37Z</time>
      </trkpt>
      <trkpt lat="48.93182" lon="-0.51048">
        <ele>120</ele>
        <time>2024-04-07T10:03:38Z</time>
      </trkpt>
      <trkpt lat="48.93191" lon="-0.51052">
        <ele>120</ele>
        <time>2024-04-07T10:03:39Z</time>
      </trkpt>
      <trkpt lat="48.93196" lon="-0.51055">
        <ele>119.8</ele>
        <time>2024-04-07T10:03:40Z</time>
      </trkpt>
      <trkpt lat="48.93199" lon="-0.51056">
        <ele>119.8</ele>
        <time>2024-04-07T10:03:41Z</time>
      </trkpt>
      <trkpt lat="48.93201" lon="-0.51058">
        <ele>119.8</ele>
        <time>2024-04-07T10:03:42Z</time>
      </trkpt>
      <trkpt lat="48.93207" lon="-0.5106">
        <ele>119.8</ele>
        <time>2024-04-07T10:03:43Z</time>
      </trkpt>
      <trkpt lat="48.93213" lon="-0.51063">
        <ele>119.8</ele>
        <time>2024-04-07T10:03:44Z</time>
      </trkpt>
      <trkpt lat="48.93219" lon="-0.51066">
        <ele>119.8</ele>
        <time>2024-04-07T10:03:45Z</time>
      </trkpt>
      <trkpt lat="48.93225" lon="-0.51068">
        <ele>119.8</ele>
        <time>2024-04-07T10:03:46Z</time>
      </trkpt>
      <trkpt lat="48.93231" lon="-0.5107">
        <ele>119.6</ele>
        <time>2024-04-07T10:03:47Z</time>
      </trkpt>
      <trkpt lat="48.93238" lon="-0.51072">
        <ele>119.6</ele>
        <time>2024-04-07T10:03:48Z</time>
      </trkpt>
      <trkpt lat="48.93247" lon="-0.51075">
        <ele>119.6</ele>
        <time>2024-04-07T10:03:49Z</time>
      </trkpt>
      <trkpt lat="48.93251" lon="-0.51076">
        <ele>119.8</ele>
        <time>2024-04-07T10:03:50Z</time>
      </trkpt>
      <trkpt lat="48.93257" lon="-0.51077">
        <ele>119.8</ele>
        <time>2024-04-07T10:03:51Z</time>
      </trkpt>
      <trkpt lat="48.93263" lon="-0.51078">
        <ele>119.8</ele>
        <time>2024-04-07T10:03:52Z</time>
      </trkpt>
      <trkpt lat="48.93269" lon="-0.51079">
        <ele>120</ele>
        <time>2024-04-07T10:03:53Z</time>
      </trkpt>
      <trkpt lat="48.93275" lon="-0.5108">
        <ele>120</ele>
        <time>2024-04-07T10:03:54Z</time>
      </trkpt>
      <trkpt lat="48.93281" lon="-0.5108">
        <ele>120</ele>
        <time>2024-04-07T10:03:55Z</time>
      </trkpt>
      <trkpt lat="48.93292" lon="-0.51082">
        <ele>120</ele>
        <time>2024-04-07T10:03:56Z</time>
      </trkpt>
      <trkpt lat="48.93298" lon="-0.51082">
        <ele>120</ele>
        <time>2024-04-07T10:03:57Z</time>
      </trkpt>
      <trkpt lat="48.93303" lon="-0.51082">
        <ele>120</ele>
        <time>2024-04-07T10:03:58Z</time>
      </trkpt>
      <trkpt lat="48.93308" lon="-0.51082">
        <ele>120</ele>
        <time>2024-04-07T10:03:59Z</time>
      </trkpt>
      <trkpt lat="48.93318" lon="-0.51082">
        <ele>119.8</ele>
        <time>2024-04-07T10:04:00Z</time>
      </trkpt>
      <trkpt lat="48.93318" lon="-0.51082">
        <ele>119.8</ele>
        <time>2024-04-07T10:04:01Z</time>
      </trkpt>
      <trkpt lat="48.93325" lon="-0.51082">
        <ele>119.8</ele>
        <time>2024-04-07T10:04:02Z</time>
      </trkpt>
      <trkpt lat="48.93339" lon="-0.51081">
        <ele>119.6</ele>
        <time>2024-04-07T10:04:03Z</time>
      </trkpt>
      <trkpt lat="48.93346" lon="-0.5108">
        <ele>119.6</ele>
        <time>2024-04-07T10:04:04Z</time>
      </trkpt>
      <trkpt lat="48.93353" lon="-0.5108">
        <ele>119.6</ele>
        <time>2024-04-07T10:04:05Z</time>
      </trkpt>
      <trkpt lat="48.9336" lon="-0.51079">
        <ele>119.4</ele>
        <time>2024-04-07T10:04:06Z</time>
      </trkpt>
      <trkpt lat="48.93367" lon="-0.51077">
        <ele>119.4</ele>
        <time>2024-04-07T10:04:07Z</time>
      </trkpt>
      <trkpt lat="48.9337" lon="-0.51077">
        <ele>119.4</ele>
        <time>2024-04-07T10:04:08Z</time>
      </trkpt>
      <trkpt lat="48.93374" lon="-0.51076">
        <ele>119.4</ele>
        <time>2024-04-07T10:04:09Z</time>
      </trkpt>
      <trkpt lat="48.93381" lon="-0.51074">
        <ele>119.4</ele>
        <time>2024-04-07T10:04:10Z</time>
      </trkpt>
      <trkpt lat="48.93395" lon="-0.51069">
        <ele>119.2</ele>
        <time>2024-04-07T10:04:11Z</time>
      </trkpt>
      <trkpt lat="48.93402" lon="-0.51066">
        <ele>119.2</ele>
        <time>2024-04-07T10:04:12Z</time>
      </trkpt>
      <trkpt lat="48.93407" lon="-0.51064">
        <ele>119.2</ele>
        <time>2024-04-07T10:04:13Z</time>
      </trkpt>
      <trkpt lat="48.93412" lon="-0.51062">
        <ele>119.4</ele>
        <time>2024-04-07T10:04:14Z</time>
      </trkpt>
      <trkpt lat="48.93423" lon="-0.51057">
        <ele>119.4</ele>
        <time>2024-04-07T10:04:15Z</time>
      </trkpt>
      <trkpt lat="48.93429" lon="-0.51053">
        <ele>119.4</ele>
        <time>2024-04-07T10:04:16Z</time>
      </trkpt>
      <trkpt lat="48.93433" lon="-0.51051">
        <ele>119.2</ele>
        <time>2024-04-07T10:04:17Z</time>
      </trkpt>
      <trkpt lat="48.93436" lon="-0.5105">
        <ele>119.2</ele>
        <time>2024-04-07T10:04:18Z</time>
      </trkpt>
      <trkpt lat="48.93447" lon="-0.51043">
        <ele>119.2</ele>
        <time>2024-04-07T10:04:19Z</time>
      </trkpt>
      <trkpt lat="48.93452" lon="-0.5104">
        <ele>119</ele>
        <time>2024-04-07T10:04:20Z</time>
      </trkpt>
      <trkpt lat="48.93462" lon="-0.51034">
        <ele>119</ele>
        <time>2024-04-07T10:04:21Z</time>
      </trkpt>
      <trkpt lat="48.93467" lon="-0.5103">
        <ele>118.8</ele>
        <time>2024-04-07T10:04:22Z</time>
      </trkpt>
      <trkpt lat="48.93472" lon="-0.51027">
        <ele>118.8</ele>
        <time>2024-04-07T10:04:23Z</time>
      </trkpt>
      <trkpt lat="48.93481" lon="-0.5102">
        <ele>118.6</ele>
        <time>2024-04-07T10:04:24Z</time>
      </trkpt>
      <trkpt lat="48.93486" lon="-0.51016">
        <ele>118.6</ele>
        <time>2024-04-07T10:04:25Z</time>
      </trkpt>
      <trkpt lat="48.9349" lon="-0.51012">
        <ele>118.6</ele>
        <time>2024-04-07T10:04:26Z</time>
      </trkpt>
      <trkpt lat="48.93499" lon="-0.51004">
        <ele>118.6</ele>
        <time>2024-04-07T10:04:27Z</time>
      </trkpt>
      <trkpt lat="48.93506" lon="-0.50998">
        <ele>118.4</ele>
        <time>2024-04-07T10:04:28Z</time>
      </trkpt>
      <trkpt lat="48.93512" lon="-0.50992">
        <ele>118.6</ele>
        <time>2024-04-07T10:04:29Z</time>
      </trkpt>
      <trkpt lat="48.93515" lon="-0.50989">
        <ele>118.6</ele>
        <time>2024-04-07T10:04:30Z</time>
      </trkpt>
      <trkpt lat="48.93518" lon="-0.50986">
        <ele>118.8</ele>
        <time>2024-04-07T10:04:31Z</time>
      </trkpt>
      <trkpt lat="48.93531" lon="-0.50975">
        <ele>118.8</ele>
        <time>2024-04-07T10:04:32Z</time>
      </trkpt>
      <trkpt lat="48.93537" lon="-0.50969">
        <ele>118.8</ele>
        <time>2024-04-07T10:04:33Z</time>
      </trkpt>
      <trkpt lat="48.9354" lon="-0.50965">
        <ele>119</ele>
        <time>2024-04-07T10:04:34Z</time>
      </trkpt>
      <trkpt lat="48.93543" lon="-0.50962">
        <ele>119</ele>
        <time>2024-04-07T10:04:35Z</time>
      </trkpt>
      <trkpt lat="48.93555" lon="-0.50949">
        <ele>119</ele>
        <time>2024-04-07T10:04:36Z</time>
      </trkpt>
      <trkpt lat="48.93561" lon="-0.50942">
        <ele>119</ele>
        <time>2024-04-07T10:04:37Z</time>
      </trkpt>
      <trkpt lat="48.93566" lon="-0.50936">
        <ele>119.2</ele>
        <time>2024-04-07T10:04:38Z</time>
      </trkpt>
      <trkpt lat="48.93572" lon="-0.5093">
        <ele>119.2</ele>
        <time>2024-04-07T10:04:39Z</time>
      </trkpt>
      <trkpt lat="48.93578" lon="-0.50923">
        <ele>119.4</ele>
        <time>2024-04-07T10:04:40Z</time>
      </trkpt>
      <trkpt lat="48.93584" lon="-0.50917">
        <ele>119.4</ele>
        <time>2024-04-07T10:04:41Z</time>
      </trkpt>
      <trkpt lat="48.93587" lon="-0.50914">
        <ele>119.4</ele>
        <time>2024-04-07T10:04:42Z</time>
      </trkpt>
      <trkpt lat="48.9359" lon="-0.5091">
        <ele>119.6</ele>
        <time>2024-04-07T10:04:43Z</time>
      </trkpt>
      <trkpt lat="48.936" lon="-0.50901">
        <ele>119.6</ele>
        <time>2024-04-07T10:04:44Z</time>
      </trkpt>
      <trkpt lat="48.93602" lon="-0.50897">
        <ele>119.8</ele>
        <time>2024-04-07T10:04:45Z</time>
      </trkpt>
      <trkpt lat="48.93608" lon="-0.50891">
        <ele>120</ele>
        <time>2024-04-07T10:04:46Z</time>
      </trkpt>
      <trkpt lat="48.93621" lon="-0.50879">
        <ele>120.4</ele>
        <time>2024-04-07T10:04:47Z</time>
      </trkpt>
      <trkpt lat="48.93626" lon="-0.50874">
        <ele>120.4</ele>
        <time>2024-04-07T10:04:48Z</time>
      </trkpt>
      <trkpt lat="48.9363" lon="-0.50869">
        <ele>120.6</ele>
        <time>2024-04-07T10:04:49Z</time>
      </trkpt>
      <trkpt lat="48.9364" lon="-0.5086">
        <ele>120.6</ele>
        <time>2024-04-07T10:04:50Z</time>
      </trkpt>
      <trkpt lat="48.93646" lon="-0.50854">
        <ele>120.6</ele>
        <time>2024-04-07T10:04:51Z</time>
      </trkpt>
      <trkpt lat="48.9365" lon="-0.5085">
        <ele>120.6</ele>
        <time>2024-04-07T10:04:52Z</time>
      </trkpt>
      <trkpt lat="48.93653" lon="-0.50847">
        <ele>120.6</ele>
        <time>2024-04-07T10:04:53Z</time>
      </trkpt>
      <trkpt lat="48.93662" lon="-0.50838">
        <ele>120.4</ele>
        <time>2024-04-07T10:04:54Z</time>
      </trkpt>
      <trkpt lat="48.93665" lon="-0.50835">
        <ele>120.4</ele>
        <time>2024-04-07T10:04:55Z</time>
      </trkpt>
      <trkpt lat="48.93674" lon="-0.50826">
        <ele>120.4</ele>
        <time>2024-04-07T10:04:56Z</time>
      </trkpt>
      <trkpt lat="48.93677" lon="-0.50823">
        <ele>120.4</ele>
        <time>2024-04-07T10:04:57Z</time>
      </trkpt>
      <trkpt lat="48.93684" lon="-0.50816">
        <ele>120.4</ele>
        <time>2024-04-07T10:04:58Z</time>
      </trkpt>
      <trkpt lat="48.9369" lon="-0.5081">
        <ele>120.6</ele>
        <time>2024-04-07T10:04:59Z</time>
      </trkpt>
      <trkpt lat="48.93703" lon="-0.50797">
        <ele>120.6</ele>
        <time>2024-04-07T10:05:00Z</time>
      </trkpt>
      <trkpt lat="48.93703" lon="-0.50797">
        <ele>120.8</ele>
        <time>2024-04-07T10:05:01Z</time>
      </trkpt>
      <trkpt lat="48.93716" lon="-0.50785">
        <ele>120.8</ele>
        <time>2024-04-07T10:05:02Z</time>
      </trkpt>
      <trkpt lat="48.93722" lon="-0.50779">
        <ele>120.8</ele>
        <time>2024-04-07T10:05:03Z</time>
      </trkpt>
      <trkpt lat="48.93727" lon="-0.50774">
        <ele>120.8</ele>
        <time>2024-04-07T10:05:04Z</time>
      </trkpt>
      <trkpt lat="48.93731" lon="-0.50769">
        <ele>120.8</ele>
        <time>2024-04-07T10:05:05Z</time>
      </trkpt>
      <trkpt lat="48.9374" lon="-0.5076">
        <ele>120.8</ele>
        <time>2024-04-07T10:05:06Z</time>
      </trkpt>
      <trkpt lat="48.93746" lon="-0.50754">
        <ele>120.8</ele>
        <time>2024-04-07T10:05:07Z</time>
      </trkpt>
      <trkpt lat="48.93752" lon="-0.50747">
        <ele>120.8</ele>
        <time>2024-04-07T10:05:08Z</time>
      </trkpt>
      <trkpt lat="48.93758" lon="-0.50741">
        <ele>120.6</ele>
        <time>2024-04-07T10:05:09Z</time>
      </trkpt>
      <trkpt lat="48.93764" lon="-0.50735">
        <ele>120.4</ele>
        <time>2024-04-07T10:05:10Z</time>
      </trkpt>
      <trkpt lat="48.9377" lon="-0.50729">
        <ele>120.4</ele>
        <time>2024-04-07T10:05:11Z</time>
      </trkpt>
      <trkpt lat="48.9377" lon="-0.50729">
        <ele>120.4</ele>
        <time>2024-04-07T10:05:12Z</time>
      </trkpt>
      <trkpt lat="48.93775" lon="-0.50723">
        <ele>120.4</ele>
        <time>2024-04-07T10:05:13Z</time>
      </trkpt>
      <trkpt lat="48.93782" lon="-0.50715">
        <ele>120.4</ele>
        <time>2024-04-07T10:05:14Z</time>
      </trkpt>
      <trkpt lat="48.93785" lon="-0.50712">
        <ele>120.6</ele>
        <time>2024-04-07T10:05:15Z</time>
      </trkpt>
      <trkpt lat="48.93792" lon="-0.50705">
        <ele>120.6</ele>
        <time>2024-04-07T10:05:16Z</time>
      </trkpt>
      <trkpt lat="48.93794" lon="-0.50703">
        <ele>120.8</ele>
        <time>2024-04-07T10:05:17Z</time>
      </trkpt>
      <trkpt lat="48.938" lon="-0.50697">
        <ele>120.8</ele>
        <time>2024-04-07T10:05:18Z</time>
      </trkpt>
      <trkpt lat="48.938" lon="-0.50697">
        <ele>121</ele>
        <time>2024-04-07T10:05:19Z</time>
      </trkpt>
      <trkpt lat="48.93802" lon="-0.50693">
        <ele>121.2</ele>
        <time>2024-04-07T10:05:20Z</time>
      </trkpt>
      <trkpt lat="48.93807" lon="-0.50688">
        <ele>121.2</ele>
        <time>2024-04-07T10:05:21Z</time>
      </trkpt>
      <trkpt lat="48.9381" lon="-0.50686">
        <ele>121.4</ele>
        <time>2024-04-07T10:05:22Z</time>
      </trkpt>
      <trkpt lat="48.9381" lon="-0.50686">
        <ele>121.4</ele>
        <time>2024-04-07T10:05:23Z</time>
      </trkpt>
      <trkpt lat="48.93812" lon="-0.50684">
        <ele>121.4</ele>
        <time>2024-04-07T10:05:24Z</time>
      </trkpt>
      <trkpt lat="48.93814" lon="-0.50681">
        <ele>121.4</ele>
        <time>2024-04-07T10:05:25Z</time>
      </trkpt>
      <trkpt lat="48.93817" lon="-0.50677">
        <ele>121.4</ele>
        <time>2024-04-07T10:05:26Z</time>
      </trkpt>
      <trkpt lat="48.93824" lon="-0.50669">
        <ele>121.4</ele>
        <time>2024-04-07T10:05:27Z</time>
      </trkpt>
      <trkpt lat="48.93829" lon="-0.50664">
        <ele>121.4</ele>
        <time>2024-04-07T10:05:28Z</time>
      </trkpt>
      <trkpt lat="48.93834" lon="-0.5066">
        <ele>121.4</ele>
        <time>2024-04-07T10:05:29Z</time>
      </trkpt>
      <trkpt lat="48.93837" lon="-0.50656">
        <ele>121.2</ele>
        <time>2024-04-07T10:05:30Z</time>
      </trkpt>
      <trkpt lat="48.93841" lon="-0.50652">
        <ele>121</ele>
        <time>2024-04-07T10:05:31Z</time>
      </trkpt>
      <trkpt lat="48.93848" lon="-0.50645">
        <ele>120.8</ele>
        <time>2024-04-07T10:05:32Z</time>
      </trkpt>
      <trkpt lat="48.93851" lon="-0.50642">
        <ele>120.6</ele>
        <time>2024-04-07T10:05:33Z</time>
      </trkpt>
      <trkpt lat="48.93853" lon="-0.50639">
        <ele>120.6</ele>
        <time>2024-04-07T10:05:34Z</time>
      </trkpt>
      <trkpt lat="48.93857" lon="-0.50633">
        <ele>120.4</ele>
        <time>2024-04-07T10:05:35Z</time>
      </trkpt>
      <trkpt lat="48.9386" lon="-0.50626">
        <ele>120.4</ele>
        <time>2024-04-07T10:05:36Z</time>
      </trkpt>
      <trkpt lat="48.93864" lon="-0.50619">
        <ele>120.4</ele>
        <time>2024-04-07T10:05:37Z</time>
      </trkpt>
      <trkpt lat="48.93876" lon="-0.50607">
        <ele>120.4</ele>
        <time>2024-04-07T10:05:38Z</time>
      </trkpt>
      <trkpt lat="48.93882" lon="-0.506">
        <ele>120.4</ele>
        <time>2024-04-07T10:05:39Z</time>
      </trkpt>
      <trkpt lat="48.93888" lon="-0.50594">
        <ele>120.4</ele>
        <time>2024-04-07T10:05:40Z</time>
      </trkpt>
      <trkpt lat="48.93894" lon="-0.50588">
        <ele>120.4</ele>
        <time>2024-04-07T10:05:41Z</time>
      </trkpt>
      <trkpt lat="48.939" lon="-0.50582">
        <ele>120.4</ele>
        <time>2024-04-07T10:05:42Z</time>
      </trkpt>
      <trkpt lat="48.93906" lon="-0.50576">
        <ele>120.4</ele>
        <time>2024-04-07T10:05:43Z</time>
      </trkpt>
      <trkpt lat="48.93906" lon="-0.50576">
        <ele>120.4</ele>
        <time>2024-04-07T10:05:44Z</time>
      </trkpt>
      <trkpt lat="48.93919" lon="-0.50563">
        <ele>120.4</ele>
        <time>2024-04-07T10:05:45Z</time>
      </trkpt>
      <trkpt lat="48.93925" lon="-0.50556">
        <ele>120.4</ele>
        <time>2024-04-07T10:05:46Z</time>
      </trkpt>
      <trkpt lat="48.9393" lon="-0.50552">
        <ele>120.4</ele>
        <time>2024-04-07T10:05:47Z</time>
      </trkpt>
      <trkpt lat="48.93934" lon="-0.50547">
        <ele>120.4</ele>
        <time>2024-04-07T10:05:48Z</time>
      </trkpt>
      <trkpt lat="48.93944" lon="-0.50537">
        <ele>120.6</ele>
        <time>2024-04-07T10:05:49Z</time>
      </trkpt>
      <trkpt lat="48.93951" lon="-0.5053">
        <ele>120.6</ele>
        <time>2024-04-07T10:05:50Z</time>
      </trkpt>
      <trkpt lat="48.93957" lon="-0.50523">
        <ele>120.6</ele>
        <time>2024-04-07T10:05:51Z</time>
      </trkpt>
      <trkpt lat="48.93962" lon="-0.50519">
        <ele>120.6</ele>
        <time>2024-04-07T10:05:52Z</time>
      </trkpt>
      <trkpt lat="48.93967" lon="-0.50514">
        <ele>120.6</ele>
        <time>2024-04-07T10:05:53Z</time>
      </trkpt>
      <trkpt lat="48.93977" lon="-0.50504">
        <ele>120.6</ele>
        <time>2024-04-07T10:05:54Z</time>
      </trkpt>
      <trkpt lat="48.93983" lon="-0.50497">
        <ele>120.6</ele>
        <time>2024-04-07T10:05:55Z</time>
      </trkpt>
      <trkpt lat="48.93987" lon="-0.50494">
        <ele>120.4</ele>
        <time>2024-04-07T10:05:56Z</time>
      </trkpt>
      <trkpt lat="48.9399" lon="-0.50491">
        <ele>120.4</ele>
        <time>2024-04-07T10:05:57Z</time>
      </trkpt>
      <trkpt lat="48.93997" lon="-0.50484">
        <ele>120.2</ele>
        <time>2024-04-07T10:05:58Z</time>
      </trkpt>
      <trkpt lat="48.94009" lon="-0.5047">
        <ele>120.4</ele>
        <time>2024-04-07T10:05:59Z</time>
      </trkpt>
      <trkpt lat="48.94009" lon="-0.5047">
        <ele>120.4</ele>
        <time>2024-04-07T10:06:00Z</time>
      </trkpt>
      <trkpt lat="48.94019" lon="-0.5046">
        <ele>120.4</ele>
        <time>2024-04-07T10:06:01Z</time>
      </trkpt>
      <trkpt lat="48.94023" lon="-0.50457">
        <ele>120.4</ele>
        <time>2024-04-07T10:06:02Z</time>
      </trkpt>
      <trkpt lat="48.9403" lon="-0.5045">
        <ele>120.4</ele>
        <time>2024-04-07T10:06:03Z</time>
      </trkpt>
      <trkpt lat="48.9404" lon="-0.5044">
        <ele>120.2</ele>
        <time>2024-04-07T10:06:04Z</time>
      </trkpt>
      <trkpt lat="48.94043" lon="-0.50437">
        <ele>120.4</ele>
        <time>2024-04-07T10:06:05Z</time>
      </trkpt>
      <trkpt lat="48.94049" lon="-0.5043">
        <ele>120.4</ele>
        <time>2024-04-07T10:06:06Z</time>
      </trkpt>
      <trkpt lat="48.94061" lon="-0.50418">
        <ele>120.6</ele>
        <time>2024-04-07T10:06:07Z</time>
      </trkpt>
      <trkpt lat="48.94065" lon="-0.50413">
        <ele>120.6</ele>
        <time>2024-04-07T10:06:08Z</time>
      </trkpt>
      <trkpt lat="48.94075" lon="-0.50403">
        <ele>120.8</ele>
        <time>2024-04-07T10:06:09Z</time>
      </trkpt>
      <trkpt lat="48.94078" lon="-0.504">
        <ele>120.8</ele>
        <time>2024-04-07T10:06:10Z</time>
      </trkpt>
      <trkpt lat="48.94082" lon="-0.50396">
        <ele>120.8</ele>
        <time>2024-04-07T10:06:11Z</time>
      </trkpt>
      <trkpt lat="48.94088" lon="-0.5039">
        <ele>120.8</ele>
        <time>2024-04-07T10:06:12Z</time>
      </trkpt>
      <trkpt lat="48.94095" lon="-0.50383">
        <ele>120.6</ele>
        <time>2024-04-07T10:06:13Z</time>
      </trkpt>
      <trkpt lat="48.94102" lon="-0.50377">
        <ele>120.6</ele>
        <time>2024-04-07T10:06:14Z</time>
      </trkpt>
      <trkpt lat="48.94114" lon="-0.50364">
        <ele>120.6</ele>
        <time>2024-04-07T10:06:15Z</time>
      </trkpt>
      <trkpt lat="48.94119" lon="-0.50359">
        <ele>120.6</ele>
        <time>2024-04-07T10:06:16Z</time>
      </trkpt>
      <trkpt lat="48.94124" lon="-0.50354">
        <ele>120.8</ele>
        <time>2024-04-07T10:06:17Z</time>
      </trkpt>
      <trkpt lat="48.94133" lon="-0.50344">
        <ele>120.8</ele>
        <time>2024-04-07T10:06:18Z</time>
      </trkpt>
      <trkpt lat="48.94133" lon="-0.50344">
        <ele>120.8</ele>
        <time>2024-04-07T10:06:19Z</time>
      </trkpt>
      <trkpt lat="48.94143" lon="-0.50335">
        <ele>120.8</ele>
        <time>2024-04-07T10:06:20Z</time>
      </trkpt>
      <trkpt lat="48.94146" lon="-0.50331">
        <ele>120.8</ele>
        <time>2024-04-07T10:06:21Z</time>
      </trkpt>
      <trkpt lat="48.94153" lon="-0.50325">
        <ele>120.8</ele>
        <time>2024-04-07T10:06:22Z</time>
      </trkpt>
      <trkpt lat="48.94163" lon="-0.50315">
        <ele>120.6</ele>
        <time>2024-04-07T10:06:23Z</time>
      </trkpt>
      <trkpt lat="48.94166" lon="-0.50311">
        <ele>120.6</ele>
        <time>2024-04-07T10:06:24Z</time>
      </trkpt>
      <trkpt lat="48.94172" lon="-0.50305">
        <ele>120.6</ele>
        <time>2024-04-07T10:06:25Z</time>
      </trkpt>
      <trkpt lat="48.94184" lon="-0.50291">
        <ele>120.6</ele>
        <time>2024-04-07T10:06:26Z</time>
      </trkpt>
      <trkpt lat="48.94191" lon="-0.50284">
        <ele>120.6</ele>
        <time>2024-04-07T10:06:27Z</time>
      </trkpt>
      <trkpt lat="48.94194" lon="-0.50282">
        <ele>120.6</ele>
        <time>2024-04-07T10:06:28Z</time>
      </trkpt>
      <trkpt lat="48.94197" lon="-0.50279">
        <ele>120.6</ele>
        <time>2024-04-07T10:06:29Z</time>
      </trkpt>
      <trkpt lat="48.94203" lon="-0.50275">
        <ele>120.6</ele>
        <time>2024-04-07T10:06:30Z</time>
      </trkpt>
      <trkpt lat="48.94209" lon="-0.50273">
        <ele>120.6</ele>
        <time>2024-04-07T10:06:31Z</time>
      </trkpt>
      <trkpt lat="48.94215" lon="-0.5027">
        <ele>120.6</ele>
        <time>2024-04-07T10:06:32Z</time>
      </trkpt>
      <trkpt lat="48.94221" lon="-0.50265">
        <ele>120.6</ele>
        <time>2024-04-07T10:06:33Z</time>
      </trkpt>
      <trkpt lat="48.94227" lon="-0.50259">
        <ele>120.6</ele>
        <time>2024-04-07T10:06:34Z</time>
      </trkpt>
      <trkpt lat="48.94239" lon="-0.50247">
        <ele>120.6</ele>
        <time>2024-04-07T10:06:35Z</time>
      </trkpt>
      <trkpt lat="48.94244" lon="-0.50241">
        <ele>120.6</ele>
        <time>2024-04-07T10:06:36Z</time>
      </trkpt>
      <trkpt lat="48.94248" lon="-0.50237">
        <ele>120.6</ele>
        <time>2024-04-07T10:06:37Z</time>
      </trkpt>
      <trkpt lat="48.94252" lon="-0.50233">
        <ele>120.6</ele>
        <time>2024-04-07T10:06:38Z</time>
      </trkpt>
      <trkpt lat="48.9426" lon="-0.50226">
        <ele>120.6</ele>
        <time>2024-04-07T10:06:39Z</time>
      </trkpt>
      <trkpt lat="48.94262" lon="-0.50224">
        <ele>120.6</ele>
        <time>2024-04-07T10:06:40Z</time>
      </trkpt>
      <trkpt lat="48.94264" lon="-0.50221">
        <ele>120.6</ele>
        <time>2024-04-07T10:06:41Z</time>
      </trkpt>
      <trkpt lat="48.94268" lon="-0.50218">
        <ele>120.6</ele>
        <time>2024-04-07T10:06:42Z</time>
      </trkpt>
      <trkpt lat="48.9427" lon="-0.50215">
        <ele>120.8</ele>
        <time>2024-04-07T10:06:43Z</time>
      </trkpt>
      <trkpt lat="48.94272" lon="-0.50212">
        <ele>121</ele>
        <time>2024-04-07T10:06:44Z</time>
      </trkpt>
      <trkpt lat="48.94274" lon="-0.50209">
        <ele>121</ele>
        <time>2024-04-07T10:06:45Z</time>
      </trkpt>
      <trkpt lat="48.94277" lon="-0.50208">
        <ele>121.2</ele>
        <time>2024-04-07T10:06:46Z</time>
      </trkpt>
      <trkpt lat="48.9428" lon="-0.50208">
        <ele>121.2</ele>
        <time>2024-04-07T10:06:47Z</time>
      </trkpt>
      <trkpt lat="48.94283" lon="-0.50206">
        <ele>121.2</ele>
        <time>2024-04-07T10:06:48Z</time>
      </trkpt>
      <trkpt lat="48.94286" lon="-0.50202">
        <ele>121.2</ele>
        <time>2024-04-07T10:06:49Z</time>
      </trkpt>
      <trkpt lat="48.9429" lon="-0.50198">
        <ele>121.2</ele>
        <time>2024-04-07T10:06:50Z</time>
      </trkpt>
      <trkpt lat="48.94294" lon="-0.50194">
        <ele>121</ele>
        <time>2024-04-07T10:06:51Z</time>
      </trkpt>
      <trkpt lat="48.94299" lon="-0.50191">
        <ele>121</ele>
        <time>2024-04-07T10:06:52Z</time>
      </trkpt>
      <trkpt lat="48.94304" lon="-0.50187">
        <ele>121</ele>
        <time>2024-04-07T10:06:53Z</time>
      </trkpt>
      <trkpt lat="48.94315" lon="-0.50179">
        <ele>120.8</ele>
        <time>2024-04-07T10:06:54Z</time>
      </trkpt>
      <trkpt lat="48.94318" lon="-0.50177">
        <ele>120.8</ele>
        <time>2024-04-07T10:06:55Z</time>
      </trkpt>
      <trkpt lat="48.94321" lon="-0.50175">
        <ele>120.8</ele>
        <time>2024-04-07T10:06:56Z</time>
      </trkpt>
      <trkpt lat="48.94328" lon="-0.50171">
        <ele>120.8</ele>
        <time>2024-04-07T10:06:57Z</time>
      </trkpt>
      <trkpt lat="48.94334" lon="-0.50168">
        <ele>120.8</ele>
        <time>2024-04-07T10:06:58Z</time>
      </trkpt>
      <trkpt lat="48.9434" lon="-0.50164">
        <ele>120.8</ele>
        <time>2024-04-07T10:06:59Z</time>
      </trkpt>
      <trkpt lat="48.94347" lon="-0.50162">
        <ele>120.8</ele>
        <time>2024-04-07T10:07:00Z</time>
      </trkpt>
      <trkpt lat="48.94354" lon="-0.5016">
        <ele>120.8</ele>
        <time>2024-04-07T10:07:01Z</time>
      </trkpt>
      <trkpt lat="48.9437" lon="-0.50155">
        <ele>120.8</ele>
        <time>2024-04-07T10:07:02Z</time>
      </trkpt>
      <trkpt lat="48.94373" lon="-0.50154">
        <ele>120.8</ele>
        <time>2024-04-07T10:07:03Z</time>
      </trkpt>
      <trkpt lat="48.94377" lon="-0.50153">
        <ele>120.6</ele>
        <time>2024-04-07T10:07:04Z</time>
      </trkpt>
      <trkpt lat="48.94384" lon="-0.50151">
        <ele>120.4</ele>
        <time>2024-04-07T10:07:05Z</time>
      </trkpt>
      <trkpt lat="48.94392" lon="-0.50149">
        <ele>120.4</ele>
        <time>2024-04-07T10:07:06Z</time>
      </trkpt>
      <trkpt lat="48.944" lon="-0.50149">
        <ele>120.2</ele>
        <time>2024-04-07T10:07:07Z</time>
      </trkpt>
      <trkpt lat="48.94407" lon="-0.50149">
        <ele>120.2</ele>
        <time>2024-04-07T10:07:08Z</time>
      </trkpt>
      <trkpt lat="48.94415" lon="-0.50149">
        <ele>120.2</ele>
        <time>2024-04-07T10:07:09Z</time>
      </trkpt>
      <trkpt lat="48.9443" lon="-0.5015">
        <ele>120</ele>
        <time>2024-04-07T10:07:10Z</time>
      </trkpt>
      <trkpt lat="48.94438" lon="-0.5015">
        <ele>119.8</ele>
        <time>2024-04-07T10:07:11Z</time>
      </trkpt>
      <trkpt lat="48.94446" lon="-0.50151">
        <ele>119.6</ele>
        <time>2024-04-07T10:07:12Z</time>
      </trkpt>
      <trkpt lat="48.94454" lon="-0.50152">
        <ele>119.4</ele>
        <time>2024-04-07T10:07:13Z</time>
      </trkpt>
      <trkpt lat="48.94458" lon="-0.50153">
        <ele>119.4</ele>
        <time>2024-04-07T10:07:14Z</time>
      </trkpt>
      <trkpt lat="48.94462" lon="-0.50154">
        <ele>119.4</ele>
        <time>2024-04-07T10:07:15Z</time>
      </trkpt>
      <trkpt lat="48.94475" lon="-0.50158">
        <ele>119.4</ele>
        <time>2024-04-07T10:07:16Z</time>
      </trkpt>
      <trkpt lat="48.94479" lon="-0.50159">
        <ele>119.4</ele>
        <time>2024-04-07T10:07:17Z</time>
      </trkpt>
      <trkpt lat="48.94484" lon="-0.50162">
        <ele>119.4</ele>
        <time>2024-04-07T10:07:18Z</time>
      </trkpt>
      <trkpt lat="48.94492" lon="-0.50166">
        <ele>119.2</ele>
        <time>2024-04-07T10:07:19Z</time>
      </trkpt>
      <trkpt lat="48.94499" lon="-0.50169">
        <ele>119.2</ele>
        <time>2024-04-07T10:07:20Z</time>
      </trkpt>
      <trkpt lat="48.94506" lon="-0.50173">
        <ele>119</ele>
        <time>2024-04-07T10:07:21Z</time>
      </trkpt>
      <trkpt lat="48.94517" lon="-0.50179">
        <ele>118.8</ele>
        <time>2024-04-07T10:07:22Z</time>
      </trkpt>
      <trkpt lat="48.94521" lon="-0.50181">
        <ele>118.6</ele>
        <time>2024-04-07T10:07:23Z</time>
      </trkpt>
      <trkpt lat="48.94528" lon="-0.50185">
        <ele>118.6</ele>
        <time>2024-04-07T10:07:24Z</time>
      </trkpt>
      <trkpt lat="48.94536" lon="-0.50189">
        <ele>118.4</ele>
        <time>2024-04-07T10:07:25Z</time>
      </trkpt>
      <trkpt lat="48.94543" lon="-0.50193">
        <ele>118.2</ele>
        <time>2024-04-07T10:07:26Z</time>
      </trkpt>
      <trkpt lat="48.94558" lon="-0.50203">
        <ele>118</ele>
        <time>2024-04-07T10:07:27Z</time>
      </trkpt>
      <trkpt lat="48.94558" lon="-0.50203">
        <ele>118</ele>
        <time>2024-04-07T10:07:28Z</time>
      </trkpt>
      <trkpt lat="48.9457" lon="-0.50212">
        <ele>117.6</ele>
        <time>2024-04-07T10:07:29Z</time>
      </trkpt>
      <trkpt lat="48.94575" lon="-0.50216">
        <ele>117.4</ele>
        <time>2024-04-07T10:07:30Z</time>
      </trkpt>
      <trkpt lat="48.94586" lon="-0.50225">
        <ele>117</ele>
        <time>2024-04-07T10:07:31Z</time>
      </trkpt>
      <trkpt lat="48.94586" lon="-0.50225">
        <ele>116.8</ele>
        <time>2024-04-07T10:07:32Z</time>
      </trkpt>
      <trkpt lat="48.94593" lon="-0.50231">
        <ele>116.6</ele>
        <time>2024-04-07T10:07:33Z</time>
      </trkpt>
      <trkpt lat="48.94608" lon="-0.50243">
        <ele>116.4</ele>
        <time>2024-04-07T10:07:34Z</time>
      </trkpt>
      <trkpt lat="48.94616" lon="-0.50249">
        <ele>116.2</ele>
        <time>2024-04-07T10:07:35Z</time>
      </trkpt>
      <trkpt lat="48.9462" lon="-0.50252">
        <ele>116.2</ele>
        <time>2024-04-07T10:07:36Z</time>
      </trkpt>
      <trkpt lat="48.94624" lon="-0.50255">
        <ele>116</ele>
        <time>2024-04-07T10:07:37Z</time>
      </trkpt>
      <trkpt lat="48.9464" lon="-0.50264">
        <ele>115.8</ele>
        <time>2024-04-07T10:07:38Z</time>
      </trkpt>
      <trkpt lat="48.94647" lon="-0.50268">
        <ele>115.6</ele>
        <time>2024-04-07T10:07:39Z</time>
      </trkpt>
      <trkpt lat="48.94662" lon="-0.50275">
        <ele>115.4</ele>
        <time>2024-04-07T10:07:40Z</time>
      </trkpt>
      <trkpt lat="48.94671" lon="-0.50279">
        <ele>115.2</ele>
        <time>2024-04-07T10:07:41Z</time>
      </trkpt>
      <trkpt lat="48.94678" lon="-0.50281">
        <ele>114.8</ele>
        <time>2024-04-07T10:07:42Z</time>
      </trkpt>
      <trkpt lat="48.94686" lon="-0.50283">
        <ele>114.4</ele>
        <time>2024-04-07T10:07:43Z</time>
      </trkpt>
      <trkpt lat="48.94702" lon="-0.50288">
        <ele>113.8</ele>
        <time>2024-04-07T10:07:44Z</time>
      </trkpt>
      <trkpt lat="48.94712" lon="-0.50289">
        <ele>113.2</ele>
        <time>2024-04-07T10:07:45Z</time>
      </trkpt>
      <trkpt lat="48.94723" lon="-0.50289">
        <ele>112.8</ele>
        <time>2024-04-07T10:07:46Z</time>
      </trkpt>
      <trkpt lat="48.94733" lon="-0.50289">
        <ele>112.6</ele>
        <time>2024-04-07T10:07:47Z</time>
      </trkpt>
      <trkpt lat="48.94743" lon="-0.50288">
        <ele>112.4</ele>
        <time>2024-04-07T10:07:48Z</time>
      </trkpt>
      <trkpt lat="48.94753" lon="-0.50287">
        <ele>112.4</ele>
        <time>2024-04-07T10:07:49Z</time>
      </trkpt>
      <trkpt lat="48.94763" lon="-0.50287">
        <ele>112.4</ele>
        <time>2024-04-07T10:07:50Z</time>
      </trkpt>
      <trkpt lat="48.94773" lon="-0.50287">
        <ele>112.4</ele>
        <time>2024-04-07T10:07:51Z</time>
      </trkpt>
      <trkpt lat="48.94782" lon="-0.50287">
        <ele>112.4</ele>
        <time>2024-04-07T10:07:52Z</time>
      </trkpt>
      <trkpt lat="48.94791" lon="-0.50288">
        <ele>112.4</ele>
        <time>2024-04-07T10:07:53Z</time>
      </trkpt>
      <trkpt lat="48.94801" lon="-0.50289">
        <ele>112.2</ele>
        <time>2024-04-07T10:07:54Z</time>
      </trkpt>
      <trkpt lat="48.9481" lon="-0.5029">
        <ele>112</ele>
        <time>2024-04-07T10:07:55Z</time>
      </trkpt>
      <trkpt lat="48.94819" lon="-0.50291">
        <ele>111.8</ele>
        <time>2024-04-07T10:07:56Z</time>
      </trkpt>
      <trkpt lat="48.94829" lon="-0.5029">
        <ele>111.6</ele>
        <time>2024-04-07T10:07:57Z</time>
      </trkpt>
      <trkpt lat="48.94838" lon="-0.5029">
        <ele>111.6</ele>
        <time>2024-04-07T10:07:58Z</time>
      </trkpt>
      <trkpt lat="48.94845" lon="-0.5029">
        <ele>111.6</ele>
        <time>2024-04-07T10:07:59Z</time>
      </trkpt>
      <trkpt lat="48.94853" lon="-0.5029">
        <ele>111.6</ele>
        <time>2024-04-07T10:08:00Z</time>
      </trkpt>
      <trkpt lat="48.94867" lon="-0.50289">
        <ele>111.6</ele>
        <time>2024-04-07T10:08:01Z</time>
      </trkpt>
      <trkpt lat="48.94876" lon="-0.50291">
        <ele>111.6</ele>
        <time>2024-04-07T10:08:02Z</time>
      </trkpt>
      <trkpt lat="48.94886" lon="-0.50293">
        <ele>111.6</ele>
        <time>2024-04-07T10:08:03Z</time>
      </trkpt>
      <trkpt lat="48.94895" lon="-0.50295">
        <ele>111.4</ele>
        <time>2024-04-07T10:08:04Z</time>
      </trkpt>
      <trkpt lat="48.94904" lon="-0.50297">
        <ele>111.4</ele>
        <time>2024-04-07T10:08:05Z</time>
      </trkpt>
      <trkpt lat="48.94913" lon="-0.503">
        <ele>111.4</ele>
        <time>2024-04-07T10:08:06Z</time>
      </trkpt>
      <trkpt lat="48.94922" lon="-0.50303">
        <ele>111.4</ele>
        <time>2024-04-07T10:08:07Z</time>
      </trkpt>
      <trkpt lat="48.9493" lon="-0.50307">
        <ele>111.4</ele>
        <time>2024-04-07T10:08:08Z</time>
      </trkpt>
      <trkpt lat="48.94939" lon="-0.5031">
        <ele>111.6</ele>
        <time>2024-04-07T10:08:09Z</time>
      </trkpt>
      <trkpt lat="48.94947" lon="-0.50312">
        <ele>111.8</ele>
        <time>2024-04-07T10:08:10Z</time>
      </trkpt>
      <trkpt lat="48.94955" lon="-0.50315">
        <ele>112</ele>
        <time>2024-04-07T10:08:11Z</time>
      </trkpt>
      <trkpt lat="48.94963" lon="-0.50317">
        <ele>112.2</ele>
        <time>2024-04-07T10:08:12Z</time>
      </trkpt>
      <trkpt lat="48.94969" lon="-0.5032">
        <ele>112.2</ele>
        <time>2024-04-07T10:08:13Z</time>
      </trkpt>
      <trkpt lat="48.94978" lon="-0.50323">
        <ele>112.2</ele>
        <time>2024-04-07T10:08:14Z</time>
      </trkpt>
      <trkpt lat="48.94984" lon="-0.50326">
        <ele>112.2</ele>
        <time>2024-04-07T10:08:15Z</time>
      </trkpt>
      <trkpt lat="48.94991" lon="-0.50329">
        <ele>112.2</ele>
        <time>2024-04-07T10:08:16Z</time>
      </trkpt>
      <trkpt lat="48.94999" lon="-0.50332">
        <ele>112.2</ele>
        <time>2024-04-07T10:08:17Z</time>
      </trkpt>
      <trkpt lat="48.95008" lon="-0.50336">
        <ele>112.2</ele>
        <time>2024-04-07T10:08:18Z</time>
      </trkpt>
      <trkpt lat="48.95012" lon="-0.50338">
        <ele>112</ele>
        <time>2024-04-07T10:08:19Z</time>
      </trkpt>
      <trkpt lat="48.95016" lon="-0.5034">
        <ele>112</ele>
        <time>2024-04-07T10:08:20Z</time>
      </trkpt>
      <trkpt lat="48.95029" lon="-0.50345">
        <ele>112</ele>
        <time>2024-04-07T10:08:21Z</time>
      </trkpt>
      <trkpt lat="48.95033" lon="-0.50347">
        <ele>111.8</ele>
        <time>2024-04-07T10:08:22Z</time>
      </trkpt>
      <trkpt lat="48.9505" lon="-0.50353">
        <ele>111.6</ele>
        <time>2024-04-07T10:08:23Z</time>
      </trkpt>
      <trkpt lat="48.95059" lon="-0.50355">
        <ele>111.6</ele>
        <time>2024-04-07T10:08:24Z</time>
      </trkpt>
      <trkpt lat="48.95066" lon="-0.50356">
        <ele>111.6</ele>
        <time>2024-04-07T10:08:25Z</time>
      </trkpt>
      <trkpt lat="48.95073" lon="-0.50357">
        <ele>111.8</ele>
        <time>2024-04-07T10:08:26Z</time>
      </trkpt>
      <trkpt lat="48.9508" lon="-0.50358">
        <ele>112</ele>
        <time>2024-04-07T10:08:27Z</time>
      </trkpt>
      <trkpt lat="48.95087" lon="-0.5036">
        <ele>112.4</ele>
        <time>2024-04-07T10:08:28Z</time>
      </trkpt>
      <trkpt lat="48.95093" lon="-0.50361">
        <ele>113.2</ele>
        <time>2024-04-07T10:08:29Z</time>
      </trkpt>
      <trkpt lat="48.95096" lon="-0.50361">
        <ele>114</ele>
        <time>2024-04-07T10:08:30Z</time>
      </trkpt>
      <trkpt lat="48.951" lon="-0.50361">
        <ele>114.6</ele>
        <time>2024-04-07T10:08:31Z</time>
      </trkpt>
      <trkpt lat="48.95106" lon="-0.50361">
        <ele>115</ele>
        <time>2024-04-07T10:08:32Z</time>
      </trkpt>
      <trkpt lat="48.95113" lon="-0.50361">
        <ele>115.4</ele>
        <time>2024-04-07T10:08:33Z</time>
      </trkpt>
      <trkpt lat="48.95126" lon="-0.50359">
        <ele>115.6</ele>
        <time>2024-04-07T10:08:34Z</time>
      </trkpt>
      <trkpt lat="48.95129" lon="-0.50358">
        <ele>116</ele>
        <time>2024-04-07T10:08:35Z</time>
      </trkpt>
      <trkpt lat="48.95132" lon="-0.50358">
        <ele>116.4</ele>
        <time>2024-04-07T10:08:36Z</time>
      </trkpt>
      <trkpt lat="48.95144" lon="-0.50353">
        <ele>116.6</ele>
        <time>2024-04-07T10:08:37Z</time>
      </trkpt>
      <trkpt lat="48.95151" lon="-0.50351">
        <ele>116.8</ele>
        <time>2024-04-07T10:08:38Z</time>
      </trkpt>
      <trkpt lat="48.95158" lon="-0.50348">
        <ele>117.2</ele>
        <time>2024-04-07T10:08:39Z</time>
      </trkpt>
      <trkpt lat="48.95166" lon="-0.50345">
        <ele>117.2</ele>
        <time>2024-04-07T10:08:40Z</time>
      </trkpt>
      <trkpt lat="48.95173" lon="-0.50343">
        <ele>117.4</ele>
        <time>2024-04-07T10:08:41Z</time>
      </trkpt>
      <trkpt lat="48.9518" lon="-0.5034">
        <ele>117.4</ele>
        <time>2024-04-07T10:08:42Z</time>
      </trkpt>
      <trkpt lat="48.95187" lon="-0.50338">
        <ele>117.4</ele>
        <time>2024-04-07T10:08:43Z</time>
      </trkpt>
      <trkpt lat="48.95194" lon="-0.50335">
        <ele>117.4</ele>
        <time>2024-04-07T10:08:44Z</time>
      </trkpt>
      <trkpt lat="48.95194" lon="-0.50335">
        <ele>117.6</ele>
        <time>2024-04-07T10:08:45Z</time>
      </trkpt>
      <trkpt lat="48.95208" lon="-0.50326">
        <ele>117.6</ele>
        <time>2024-04-07T10:08:46Z</time>
      </trkpt>
      <trkpt lat="48.95215" lon="-0.50322">
        <ele>117.8</ele>
        <time>2024-04-07T10:08:47Z</time>
      </trkpt>
      <trkpt lat="48.95222" lon="-0.50318">
        <ele>118</ele>
        <time>2024-04-07T10:08:48Z</time>
      </trkpt>
      <trkpt lat="48.95228" lon="-0.50313">
        <ele>118</ele>
        <time>2024-04-07T10:08:49Z</time>
      </trkpt>
      <trkpt lat="48.95234" lon="-0.50309">
        <ele>118</ele>
        <time>2024-04-07T10:08:50Z</time>
      </trkpt>
      <trkpt lat="48.95239" lon="-0.50304">
        <ele>117.8</ele>
        <time>2024-04-07T10:08:51Z</time>
      </trkpt>
      <trkpt lat="48.95244" lon="-0.50299">
        <ele>117.8</ele>
        <time>2024-04-07T10:08:52Z</time>
      </trkpt>
      <trkpt lat="48.95249" lon="-0.50295">
        <ele>117.6</ele>
        <time>2024-04-07T10:08:53Z</time>
      </trkpt>
      <trkpt lat="48.95249" lon="-0.50295">
        <ele>117.6</ele>
        <time>2024-04-07T10:08:54Z</time>
      </trkpt>
      <trkpt lat="48.95259" lon="-0.50285">
        <ele>117.6</ele>
        <time>2024-04-07T10:08:55Z</time>
      </trkpt>
      <trkpt lat="48.95262" lon="-0.50281">
        <ele>117.8</ele>
        <time>2024-04-07T10:08:56Z</time>
      </trkpt>
      <trkpt lat="48.95264" lon="-0.50279">
        <ele>118</ele>
        <time>2024-04-07T10:08:57Z</time>
      </trkpt>
      <trkpt lat="48.95266" lon="-0.50277">
        <ele>118</ele>
        <time>2024-04-07T10:08:58Z</time>
      </trkpt>
      <trkpt lat="48.95269" lon="-0.50273">
        <ele>118.4</ele>
        <time>2024-04-07T10:08:59Z</time>
      </trkpt>
      <trkpt lat="48.95271" lon="-0.5027">
        <ele>118.6</ele>
        <time>2024-04-07T10:09:00Z</time>
      </trkpt>
      <trkpt lat="48.95277" lon="-0.50265">
        <ele>118.8</ele>
        <time>2024-04-07T10:09:01Z</time>
      </trkpt>
      <trkpt lat="48.95277" lon="-0.50265">
        <ele>119</ele>
        <time>2024-04-07T10:09:02Z</time>
      </trkpt>
      <trkpt lat="48.95279" lon="-0.50263">
        <ele>119.2</ele>
        <time>2024-04-07T10:09:03Z</time>
      </trkpt>
      <trkpt lat="48.95281" lon="-0.50261">
        <ele>119.2</ele>
        <time>2024-04-07T10:09:04Z</time>
      </trkpt>
      <trkpt lat="48.95282" lon="-0.50259">
        <ele>119.2</ele>
        <time>2024-04-07T10:09:05Z</time>
      </trkpt>
      <trkpt lat="48.95283" lon="-0.50256">
        <ele>119.2</ele>
        <time>2024-04-07T10:09:06Z</time>
      </trkpt>
      <trkpt lat="48.95285" lon="-0.50254">
        <ele>119.2</ele>
        <time>2024-04-07T10:09:07Z</time>
      </trkpt>
      <trkpt lat="48.95287" lon="-0.50252">
        <ele>119.2</ele>
        <time>2024-04-07T10:09:08Z</time>
      </trkpt>
      <trkpt lat="48.95289" lon="-0.5025">
        <ele>119.2</ele>
        <time>2024-04-07T10:09:09Z</time>
      </trkpt>
      <trkpt lat="48.9529" lon="-0.50247">
        <ele>119.2</ele>
        <time>2024-04-07T10:09:10Z</time>
      </trkpt>
      <trkpt lat="48.95293" lon="-0.5024">
        <ele>119.2</ele>
        <time>2024-04-07T10:09:11Z</time>
      </trkpt>
      <trkpt lat="48.95296" lon="-0.50236">
        <ele>119.2</ele>
        <time>2024-04-07T10:09:12Z</time>
      </trkpt>
      <trkpt lat="48.95298" lon="-0.50234">
        <ele>119.2</ele>
        <time>2024-04-07T10:09:13Z</time>
      </trkpt>
      <trkpt lat="48.953" lon="-0.50232">
        <ele>119</ele>
        <time>2024-04-07T10:09:14Z</time>
      </trkpt>
      <trkpt lat="48.95303" lon="-0.50228">
        <ele>119</ele>
        <time>2024-04-07T10:09:15Z</time>
      </trkpt>
      <trkpt lat="48.95309" lon="-0.50218">
        <ele>119</ele>
        <time>2024-04-07T10:09:16Z</time>
      </trkpt>
      <trkpt lat="48.95311" lon="-0.50213">
        <ele>118.8</ele>
        <time>2024-04-07T10:09:17Z</time>
      </trkpt>
      <trkpt lat="48.95314" lon="-0.50209">
        <ele>118.8</ele>
        <time>2024-04-07T10:09:18Z</time>
      </trkpt>
      <trkpt lat="48.95319" lon="-0.502">
        <ele>118.6</ele>
        <time>2024-04-07T10:09:19Z</time>
      </trkpt>
      <trkpt lat="48.95322" lon="-0.50193">
        <ele>118.6</ele>
        <time>2024-04-07T10:09:20Z</time>
      </trkpt>
      <trkpt lat="48.95326" lon="-0.50186">
        <ele>118.4</ele>
        <time>2024-04-07T10:09:21Z</time>
      </trkpt>
      <trkpt lat="48.95329" lon="-0.5018">
        <ele>118.4</ele>
        <time>2024-04-07T10:09:22Z</time>
      </trkpt>
      <trkpt lat="48.95331" lon="-0.50175">
        <ele>118.2</ele>
        <time>2024-04-07T10:09:23Z</time>
      </trkpt>
      <trkpt lat="48.95337" lon="-0.50164">
        <ele>118.2</ele>
        <time>2024-04-07T10:09:24Z</time>
      </trkpt>
      <trkpt lat="48.95341" lon="-0.50156">
        <ele>118.2</ele>
        <time>2024-04-07T10:09:25Z</time>
      </trkpt>
      <trkpt lat="48.95344" lon="-0.50148">
        <ele>118.2</ele>
        <time>2024-04-07T10:09:26Z</time>
      </trkpt>
      <trkpt lat="48.95348" lon="-0.5014">
        <ele>118.2</ele>
        <time>2024-04-07T10:09:27Z</time>
      </trkpt>
      <trkpt lat="48.95352" lon="-0.50132">
        <ele>118.2</ele>
        <time>2024-04-07T10:09:28Z</time>
      </trkpt>
      <trkpt lat="48.95356" lon="-0.50124">
        <ele>118</ele>
        <time>2024-04-07T10:09:29Z</time>
      </trkpt>
      <trkpt lat="48.95359" lon="-0.50115">
        <ele>118</ele>
        <time>2024-04-07T10:09:30Z</time>
      </trkpt>
      <trkpt lat="48.95363" lon="-0.50106">
        <ele>117.8</ele>
        <time>2024-04-07T10:09:31Z</time>
      </trkpt>
      <trkpt lat="48.95365" lon="-0.50096">
        <ele>117.8</ele>
        <time>2024-04-07T10:09:32Z</time>
      </trkpt>
      <trkpt lat="48.95368" lon="-0.50086">
        <ele>117.6</ele>
        <time>2024-04-07T10:09:33Z</time>
      </trkpt>
      <trkpt lat="48.9537" lon="-0.50076">
        <ele>117.6</ele>
        <time>2024-04-07T10:09:34Z</time>
      </trkpt>
      <trkpt lat="48.95372" lon="-0.50067">
        <ele>117.4</ele>
        <time>2024-04-07T10:09:35Z</time>
      </trkpt>
      <trkpt lat="48.95374" lon="-0.50057">
        <ele>117.4</ele>
        <time>2024-04-07T10:09:36Z</time>
      </trkpt>
      <trkpt lat="48.95376" lon="-0.50046">
        <ele>117.2</ele>
        <time>2024-04-07T10:09:37Z</time>
      </trkpt>
      <trkpt lat="48.95377" lon="-0.50036">
        <ele>117</ele>
        <time>2024-04-07T10:09:38Z</time>
      </trkpt>
      <trkpt lat="48.95379" lon="-0.50025">
        <ele>116.6</ele>
        <time>2024-04-07T10:09:39Z</time>
      </trkpt>
      <trkpt lat="48.95381" lon="-0.50013">
        <ele>116.4</ele>
        <time>2024-04-07T10:09:40Z</time>
      </trkpt>
      <trkpt lat="48.95382" lon="-0.50002">
        <ele>116.4</ele>
        <time>2024-04-07T10:09:41Z</time>
      </trkpt>
      <trkpt lat="48.95384" lon="-0.49993">
        <ele>116.2</ele>
        <time>2024-04-07T10:09:42Z</time>
      </trkpt>
      <trkpt lat="48.95386" lon="-0.49983">
        <ele>116.2</ele>
        <time>2024-04-07T10:09:43Z</time>
      </trkpt>
      <trkpt lat="48.95387" lon="-0.49973">
        <ele>116.2</ele>
        <time>2024-04-07T10:09:44Z</time>
      </trkpt>
      <trkpt lat="48.95388" lon="-0.49965">
        <ele>116</ele>
        <time>2024-04-07T10:09:45Z</time>
      </trkpt>
      <trkpt lat="48.95389" lon="-0.49957">
        <ele>116</ele>
        <time>2024-04-07T10:09:46Z</time>
      </trkpt>
      <trkpt lat="48.95391" lon="-0.49942">
        <ele>116</ele>
        <time>2024-04-07T10:09:47Z</time>
      </trkpt>
      <trkpt lat="48.95392" lon="-0.49931">
        <ele>116</ele>
        <time>2024-04-07T10:09:48Z</time>
      </trkpt>
      <trkpt lat="48.95394" lon="-0.4992">
        <ele>116</ele>
        <time>2024-04-07T10:09:49Z</time>
      </trkpt>
      <trkpt lat="48.95395" lon="-0.49908">
        <ele>116</ele>
        <time>2024-04-07T10:09:50Z</time>
      </trkpt>
      <trkpt lat="48.95397" lon="-0.49897">
        <ele>116</ele>
        <time>2024-04-07T10:09:51Z</time>
      </trkpt>
      <trkpt lat="48.95399" lon="-0.49886">
        <ele>116</ele>
        <time>2024-04-07T10:09:52Z</time>
      </trkpt>
      <trkpt lat="48.954" lon="-0.49876">
        <ele>116</ele>
        <time>2024-04-07T10:09:53Z</time>
      </trkpt>
      <trkpt lat="48.95402" lon="-0.49865">
        <ele>116</ele>
        <time>2024-04-07T10:09:54Z</time>
      </trkpt>
      <trkpt lat="48.95404" lon="-0.49854">
        <ele>116</ele>
        <time>2024-04-07T10:09:55Z</time>
      </trkpt>
      <trkpt lat="48.95406" lon="-0.49844">
        <ele>116.2</ele>
        <time>2024-04-07T10:09:56Z</time>
      </trkpt>
      <trkpt lat="48.95408" lon="-0.49834">
        <ele>116.4</ele>
        <time>2024-04-07T10:09:57Z</time>
      </trkpt>
      <trkpt lat="48.9541" lon="-0.49823">
        <ele>116.4</ele>
        <time>2024-04-07T10:09:58Z</time>
      </trkpt>
      <trkpt lat="48.95412" lon="-0.49812">
        <ele>116.6</ele>
        <time>2024-04-07T10:09:59Z</time>
      </trkpt>
      <trkpt lat="48.95414" lon="-0.49801">
        <ele>116.6</ele>
        <time>2024-04-07T10:10:00Z</time>
      </trkpt>
      <trkpt lat="48.95416" lon="-0.4979">
        <ele>116.6</ele>
        <time>2024-04-07T10:10:01Z</time>
      </trkpt>
      <trkpt lat="48.95418" lon="-0.49778">
        <ele>116.6</ele>
        <time>2024-04-07T10:10:02Z</time>
      </trkpt>
      <trkpt lat="48.9542" lon="-0.49767">
        <ele>116.6</ele>
        <time>2024-04-07T10:10:03Z</time>
      </trkpt>
      <trkpt lat="48.95421" lon="-0.49755">
        <ele>116.6</ele>
        <time>2024-04-07T10:10:04Z</time>
      </trkpt>
      <trkpt lat="48.95423" lon="-0.49744">
        <ele>116.6</ele>
        <time>2024-04-07T10:10:05Z</time>
      </trkpt>
      <trkpt lat="48.95425" lon="-0.49733">
        <ele>116.6</ele>
        <time>2024-04-07T10:10:06Z</time>
      </trkpt>
      <trkpt lat="48.95427" lon="-0.49722">
        <ele>116.6</ele>
        <time>2024-04-07T10:10:07Z</time>
      </trkpt>
      <trkpt lat="48.95428" lon="-0.49711">
        <ele>116.6</ele>
        <time>2024-04-07T10:10:08Z</time>
      </trkpt>
      <trkpt lat="48.9543" lon="-0.49699">
        <ele>116.6</ele>
        <time>2024-04-07T10:10:09Z</time>
      </trkpt>
      <trkpt lat="48.95431" lon="-0.49688">
        <ele>116.6</ele>
        <time>2024-04-07T10:10:10Z</time>
      </trkpt>
      <trkpt lat="48.95433" lon="-0.49677">
        <ele>116.6</ele>
        <time>2024-04-07T10:10:11Z</time>
      </trkpt>
      <trkpt lat="48.95435" lon="-0.49666">
        <ele>116.6</ele>
        <time>2024-04-07T10:10:12Z</time>
      </trkpt>
      <trkpt lat="48.95437" lon="-0.49654">
        <ele>116.6</ele>
        <time>2024-04-07T10:10:13Z</time>
      </trkpt>
      <trkpt lat="48.95439" lon="-0.49643">
        <ele>116.6</ele>
        <time>2024-04-07T10:10:14Z</time>
      </trkpt>
      <trkpt lat="48.95441" lon="-0.49632">
        <ele>116.4</ele>
        <time>2024-04-07T10:10:15Z</time>
      </trkpt>
      <trkpt lat="48.95442" lon="-0.49626">
        <ele>116.2</ele>
        <time>2024-04-07T10:10:16Z</time>
      </trkpt>
      <trkpt lat="48.95443" lon="-0.49621">
        <ele>116</ele>
        <time>2024-04-07T10:10:17Z</time>
      </trkpt>
      <trkpt lat="48.95446" lon="-0.49601">
        <ele>116</ele>
        <time>2024-04-07T10:10:18Z</time>
      </trkpt>
      <trkpt lat="48.95447" lon="-0.49592">
        <ele>115.8</ele>
        <time>2024-04-07T10:10:19Z</time>
      </trkpt>
      <trkpt lat="48.9545" lon="-0.49576">
        <ele>115.8</ele>
        <time>2024-04-07T10:10:20Z</time>
      </trkpt>
      <trkpt lat="48.95452" lon="-0.49565">
        <ele>115.6</ele>
        <time>2024-04-07T10:10:21Z</time>
      </trkpt>
      <trkpt lat="48.95453" lon="-0.49556">
        <ele>115.6</ele>
        <time>2024-04-07T10:10:22Z</time>
      </trkpt>
      <trkpt lat="48.95454" lon="-0.49548">
        <ele>115.6</ele>
        <time>2024-04-07T10:10:23Z</time>
      </trkpt>
      <trkpt lat="48.95456" lon="-0.49531">
        <ele>115.6</ele>
        <time>2024-04-07T10:10:24Z</time>
      </trkpt>
      <trkpt lat="48.95458" lon="-0.49519">
        <ele>115.6</ele>
        <time>2024-04-07T10:10:25Z</time>
      </trkpt>
      <trkpt lat="48.95459" lon="-0.49508">
        <ele>115.6</ele>
        <time>2024-04-07T10:10:26Z</time>
      </trkpt>
      <trkpt lat="48.95461" lon="-0.49496">
        <ele>115.6</ele>
        <time>2024-04-07T10:10:27Z</time>
      </trkpt>
      <trkpt lat="48.95463" lon="-0.49484">
        <ele>115.8</ele>
        <time>2024-04-07T10:10:28Z</time>
      </trkpt>
      <trkpt lat="48.95464" lon="-0.49473">
        <ele>115.8</ele>
        <time>2024-04-07T10:10:29Z</time>
      </trkpt>
      <trkpt lat="48.95466" lon="-0.49461">
        <ele>115.8</ele>
        <time>2024-04-07T10:10:30Z</time>
      </trkpt>
      <trkpt lat="48.95468" lon="-0.4945">
        <ele>115.6</ele>
        <time>2024-04-07T10:10:31Z</time>
      </trkpt>
      <trkpt lat="48.9547" lon="-0.49438">
        <ele>115.6</ele>
        <time>2024-04-07T10:10:32Z</time>
      </trkpt>
      <trkpt lat="48.95471" lon="-0.49427">
        <ele>115.6</ele>
        <time>2024-04-07T10:10:33Z</time>
      </trkpt>
      <trkpt lat="48.95473" lon="-0.49416">
        <ele>115.6</ele>
        <time>2024-04-07T10:10:34Z</time>
      </trkpt>
      <trkpt lat="48.95475" lon="-0.49404">
        <ele>115.6</ele>
        <time>2024-04-07T10:10:35Z</time>
      </trkpt>
      <trkpt lat="48.95477" lon="-0.49393">
        <ele>115.4</ele>
        <time>2024-04-07T10:10:36Z</time>
      </trkpt>
      <trkpt lat="48.95478" lon="-0.49382">
        <ele>115.4</ele>
        <time>2024-04-07T10:10:37Z</time>
      </trkpt>
      <trkpt lat="48.9548" lon="-0.49371">
        <ele>115.4</ele>
        <time>2024-04-07T10:10:38Z</time>
      </trkpt>
      <trkpt lat="48.95482" lon="-0.4936">
        <ele>115.4</ele>
        <time>2024-04-07T10:10:39Z</time>
      </trkpt>
      <trkpt lat="48.95484" lon="-0.49348">
        <ele>115.4</ele>
        <time>2024-04-07T10:10:40Z</time>
      </trkpt>
      <trkpt lat="48.95486" lon="-0.49336">
        <ele>115.4</ele>
        <time>2024-04-07T10:10:41Z</time>
      </trkpt>
      <trkpt lat="48.95488" lon="-0.49324">
        <ele>115.4</ele>
        <time>2024-04-07T10:10:42Z</time>
      </trkpt>
      <trkpt lat="48.95489" lon="-0.49312">
        <ele>115.4</ele>
        <time>2024-04-07T10:10:43Z</time>
      </trkpt>
      <trkpt lat="48.95491" lon="-0.49301">
        <ele>115.4</ele>
        <time>2024-04-07T10:10:44Z</time>
      </trkpt>
      <trkpt lat="48.95493" lon="-0.49289">
        <ele>115.4</ele>
        <time>2024-04-07T10:10:45Z</time>
      </trkpt>
      <trkpt lat="48.95496" lon="-0.49277">
        <ele>115.4</ele>
        <time>2024-04-07T10:10:46Z</time>
      </trkpt>
      <trkpt lat="48.95498" lon="-0.49266">
        <ele>115.4</ele>
        <time>2024-04-07T10:10:47Z</time>
      </trkpt>
      <trkpt lat="48.95501" lon="-0.49254">
        <ele>115.4</ele>
        <time>2024-04-07T10:10:48Z</time>
      </trkpt>
      <trkpt lat="48.95503" lon="-0.49246">
        <ele>115.2</ele>
        <time>2024-04-07T10:10:49Z</time>
      </trkpt>
      <trkpt lat="48.95505" lon="-0.49238">
        <ele>115.2</ele>
        <time>2024-04-07T10:10:50Z</time>
      </trkpt>
      <trkpt lat="48.95509" lon="-0.49221">
        <ele>115.2</ele>
        <time>2024-04-07T10:10:51Z</time>
      </trkpt>
      <trkpt lat="48.95511" lon="-0.49213">
        <ele>115.2</ele>
        <time>2024-04-07T10:10:52Z</time>
      </trkpt>
      <trkpt lat="48.95513" lon="-0.49205">
        <ele>115.2</ele>
        <time>2024-04-07T10:10:53Z</time>
      </trkpt>
      <trkpt lat="48.95517" lon="-0.49189">
        <ele>115.2</ele>
        <time>2024-04-07T10:10:54Z</time>
      </trkpt>
      <trkpt lat="48.95517" lon="-0.49189">
        <ele>115.2</ele>
        <time>2024-04-07T10:10:55Z</time>
      </trkpt>
      <trkpt lat="48.95522" lon="-0.49168">
        <ele>115.4</ele>
        <time>2024-04-07T10:10:56Z</time>
      </trkpt>
      <trkpt lat="48.95525" lon="-0.49158">
        <ele>115.6</ele>
        <time>2024-04-07T10:10:57Z</time>
      </trkpt>
      <trkpt lat="48.95528" lon="-0.4915">
        <ele>115.6</ele>
        <time>2024-04-07T10:10:58Z</time>
      </trkpt>
      <trkpt lat="48.9553" lon="-0.49142">
        <ele>115.6</ele>
        <time>2024-04-07T10:10:59Z</time>
      </trkpt>
      <trkpt lat="48.95535" lon="-0.49127">
        <ele>115.6</ele>
        <time>2024-04-07T10:11:00Z</time>
      </trkpt>
      <trkpt lat="48.95538" lon="-0.49116">
        <ele>115.6</ele>
        <time>2024-04-07T10:11:01Z</time>
      </trkpt>
      <trkpt lat="48.95542" lon="-0.49105">
        <ele>115.6</ele>
        <time>2024-04-07T10:11:02Z</time>
      </trkpt>
      <trkpt lat="48.95545" lon="-0.49097">
        <ele>115.6</ele>
        <time>2024-04-07T10:11:03Z</time>
      </trkpt>
      <trkpt lat="48.95548" lon="-0.49089">
        <ele>115.8</ele>
        <time>2024-04-07T10:11:04Z</time>
      </trkpt>
      <trkpt lat="48.95554" lon="-0.49072">
        <ele>115.8</ele>
        <time>2024-04-07T10:11:05Z</time>
      </trkpt>
      <trkpt lat="48.95558" lon="-0.4906">
        <ele>116</ele>
        <time>2024-04-07T10:11:06Z</time>
      </trkpt>
      <trkpt lat="48.9556" lon="-0.49055">
        <ele>116</ele>
        <time>2024-04-07T10:11:07Z</time>
      </trkpt>
      <trkpt lat="48.95562" lon="-0.4905">
        <ele>116</ele>
        <time>2024-04-07T10:11:08Z</time>
      </trkpt>
      <trkpt lat="48.95567" lon="-0.49039">
        <ele>116</ele>
        <time>2024-04-07T10:11:09Z</time>
      </trkpt>
      <trkpt lat="48.95574" lon="-0.49023">
        <ele>116</ele>
        <time>2024-04-07T10:11:10Z</time>
      </trkpt>
      <trkpt lat="48.95576" lon="-0.49018">
        <ele>115.8</ele>
        <time>2024-04-07T10:11:11Z</time>
      </trkpt>
      <trkpt lat="48.95584" lon="-0.49001">
        <ele>116</ele>
        <time>2024-04-07T10:11:12Z</time>
      </trkpt>
      <trkpt lat="48.95588" lon="-0.48994">
        <ele>116</ele>
        <time>2024-04-07T10:11:13Z</time>
      </trkpt>
      <trkpt lat="48.95595" lon="-0.48979">
        <ele>116</ele>
        <time>2024-04-07T10:11:14Z</time>
      </trkpt>
      <trkpt lat="48.95599" lon="-0.48972">
        <ele>116</ele>
        <time>2024-04-07T10:11:15Z</time>
      </trkpt>
      <trkpt lat="48.95603" lon="-0.48965">
        <ele>116</ele>
        <time>2024-04-07T10:11:16Z</time>
      </trkpt>
      <trkpt lat="48.9561" lon="-0.48951">
        <ele>115.8</ele>
        <time>2024-04-07T10:11:17Z</time>
      </trkpt>
      <trkpt lat="48.95615" lon="-0.48941">
        <ele>115.8</ele>
        <time>2024-04-07T10:11:18Z</time>
      </trkpt>
      <trkpt lat="48.9562" lon="-0.48932">
        <ele>115.4</ele>
        <time>2024-04-07T10:11:19Z</time>
      </trkpt>
      <trkpt lat="48.95624" lon="-0.48925">
        <ele>115.2</ele>
        <time>2024-04-07T10:11:20Z</time>
      </trkpt>
      <trkpt lat="48.95628" lon="-0.48918">
        <ele>115</ele>
        <time>2024-04-07T10:11:21Z</time>
      </trkpt>
      <trkpt lat="48.95635" lon="-0.48904">
        <ele>115</ele>
        <time>2024-04-07T10:11:22Z</time>
      </trkpt>
      <trkpt lat="48.9564" lon="-0.48895">
        <ele>115.2</ele>
        <time>2024-04-07T10:11:23Z</time>
      </trkpt>
      <trkpt lat="48.95644" lon="-0.48888">
        <ele>115.2</ele>
        <time>2024-04-07T10:11:24Z</time>
      </trkpt>
      <trkpt lat="48.95649" lon="-0.48882">
        <ele>115.4</ele>
        <time>2024-04-07T10:11:25Z</time>
      </trkpt>
      <trkpt lat="48.95657" lon="-0.48868">
        <ele>115.4</ele>
        <time>2024-04-07T10:11:26Z</time>
      </trkpt>
      <trkpt lat="48.95662" lon="-0.48859">
        <ele>115.4</ele>
        <time>2024-04-07T10:11:27Z</time>
      </trkpt>
      <trkpt lat="48.95668" lon="-0.48849">
        <ele>115</ele>
        <time>2024-04-07T10:11:28Z</time>
      </trkpt>
      <trkpt lat="48.95674" lon="-0.48839">
        <ele>114.8</ele>
        <time>2024-04-07T10:11:29Z</time>
      </trkpt>
      <trkpt lat="48.95679" lon="-0.48829">
        <ele>114.6</ele>
        <time>2024-04-07T10:11:30Z</time>
      </trkpt>
      <trkpt lat="48.95685" lon="-0.48819">
        <ele>114.6</ele>
        <time>2024-04-07T10:11:31Z</time>
      </trkpt>
      <trkpt lat="48.9569" lon="-0.48808">
        <ele>114.6</ele>
        <time>2024-04-07T10:11:32Z</time>
      </trkpt>
      <trkpt lat="48.95696" lon="-0.48799">
        <ele>114.8</ele>
        <time>2024-04-07T10:11:33Z</time>
      </trkpt>
      <trkpt lat="48.95702" lon="-0.48789">
        <ele>115.2</ele>
        <time>2024-04-07T10:11:34Z</time>
      </trkpt>
      <trkpt lat="48.95708" lon="-0.4878">
        <ele>115.6</ele>
        <time>2024-04-07T10:11:35Z</time>
      </trkpt>
      <trkpt lat="48.95712" lon="-0.48772">
        <ele>115.8</ele>
        <time>2024-04-07T10:11:36Z</time>
      </trkpt>
      <trkpt lat="48.95716" lon="-0.48765">
        <ele>115.8</ele>
        <time>2024-04-07T10:11:37Z</time>
      </trkpt>
      <trkpt lat="48.95725" lon="-0.48751">
        <ele>115.8</ele>
        <time>2024-04-07T10:11:38Z</time>
      </trkpt>
      <trkpt lat="48.9573" lon="-0.48741">
        <ele>115.6</ele>
        <time>2024-04-07T10:11:39Z</time>
      </trkpt>
      <trkpt lat="48.95736" lon="-0.48732">
        <ele>115.4</ele>
        <time>2024-04-07T10:11:40Z</time>
      </trkpt>
      <trkpt lat="48.95741" lon="-0.48723">
        <ele>115.2</ele>
        <time>2024-04-07T10:11:41Z</time>
      </trkpt>
      <trkpt lat="48.95747" lon="-0.48714">
        <ele>115</ele>
        <time>2024-04-07T10:11:42Z</time>
      </trkpt>
      <trkpt lat="48.95752" lon="-0.48705">
        <ele>114.8</ele>
        <time>2024-04-07T10:11:43Z</time>
      </trkpt>
      <trkpt lat="48.95752" lon="-0.48705">
        <ele>114.8</ele>
        <time>2024-04-07T10:11:44Z</time>
      </trkpt>
      <trkpt lat="48.95763" lon="-0.48686">
        <ele>114.8</ele>
        <time>2024-04-07T10:11:45Z</time>
      </trkpt>
      <trkpt lat="48.95768" lon="-0.48677">
        <ele>114.8</ele>
        <time>2024-04-07T10:11:46Z</time>
      </trkpt>
      <trkpt lat="48.95773" lon="-0.48668">
        <ele>115</ele>
        <time>2024-04-07T10:11:47Z</time>
      </trkpt>
      <trkpt lat="48.95778" lon="-0.48659">
        <ele>115</ele>
        <time>2024-04-07T10:11:48Z</time>
      </trkpt>
      <trkpt lat="48.95783" lon="-0.4865">
        <ele>115</ele>
        <time>2024-04-07T10:11:49Z</time>
      </trkpt>
      <trkpt lat="48.95788" lon="-0.48641">
        <ele>115</ele>
        <time>2024-04-07T10:11:50Z</time>
      </trkpt>
      <trkpt lat="48.95794" lon="-0.48631">
        <ele>115.2</ele>
        <time>2024-04-07T10:11:51Z</time>
      </trkpt>
      <trkpt lat="48.95799" lon="-0.48621">
        <ele>115.2</ele>
        <time>2024-04-07T10:11:52Z</time>
      </trkpt>
      <trkpt lat="48.95801" lon="-0.48617">
        <ele>115.2</ele>
        <time>2024-04-07T10:11:53Z</time>
      </trkpt>
      <trkpt lat="48.95804" lon="-0.48612">
        <ele>115.2</ele>
        <time>2024-04-07T10:11:54Z</time>
      </trkpt>
      <trkpt lat="48.95811" lon="-0.48598">
        <ele>115.2</ele>
        <time>2024-04-07T10:11:55Z</time>
      </trkpt>
      <trkpt lat="48.95813" lon="-0.48593">
        <ele>115.2</ele>
        <time>2024-04-07T10:11:56Z</time>
      </trkpt>
      <trkpt lat="48.95823" lon="-0.48575">
        <ele>115.4</ele>
        <time>2024-04-07T10:11:57Z</time>
      </trkpt>
      <trkpt lat="48.95827" lon="-0.48568">
        <ele>115.4</ele>
        <time>2024-04-07T10:11:58Z</time>
      </trkpt>
      <trkpt lat="48.95831" lon="-0.48562">
        <ele>115.4</ele>
        <time>2024-04-07T10:11:59Z</time>
      </trkpt>
      <trkpt lat="48.95839" lon="-0.48549">
        <ele>115.4</ele>
        <time>2024-04-07T10:12:00Z</time>
      </trkpt>
      <trkpt lat="48.95842" lon="-0.48545">
        <ele>115.4</ele>
        <time>2024-04-07T10:12:01Z</time>
      </trkpt>
      <trkpt lat="48.95844" lon="-0.4854">
        <ele>115.4</ele>
        <time>2024-04-07T10:12:02Z</time>
      </trkpt>
      <trkpt lat="48.95854" lon="-0.48523">
        <ele>115.4</ele>
        <time>2024-04-07T10:12:03Z</time>
      </trkpt>
      <trkpt lat="48.95857" lon="-0.48518">
        <ele>115.4</ele>
        <time>2024-04-07T10:12:04Z</time>
      </trkpt>
      <trkpt lat="48.9586" lon="-0.48514">
        <ele>115.6</ele>
        <time>2024-04-07T10:12:05Z</time>
      </trkpt>
      <trkpt lat="48.9587" lon="-0.48498">
        <ele>115.6</ele>
        <time>2024-04-07T10:12:06Z</time>
      </trkpt>
      <trkpt lat="48.95876" lon="-0.4849">
        <ele>115.6</ele>
        <time>2024-04-07T10:12:07Z</time>
      </trkpt>
      <trkpt lat="48.95881" lon="-0.48481">
        <ele>115.6</ele>
        <time>2024-04-07T10:12:08Z</time>
      </trkpt>
      <trkpt lat="48.95886" lon="-0.48473">
        <ele>115.6</ele>
        <time>2024-04-07T10:12:09Z</time>
      </trkpt>
      <trkpt lat="48.95891" lon="-0.48464">
        <ele>115.6</ele>
        <time>2024-04-07T10:12:10Z</time>
      </trkpt>
      <trkpt lat="48.95896" lon="-0.48455">
        <ele>115.6</ele>
        <time>2024-04-07T10:12:11Z</time>
      </trkpt>
      <trkpt lat="48.95901" lon="-0.48446">
        <ele>115.6</ele>
        <time>2024-04-07T10:12:12Z</time>
      </trkpt>
      <trkpt lat="48.95904" lon="-0.48439">
        <ele>115.6</ele>
        <time>2024-04-07T10:12:13Z</time>
      </trkpt>
      <trkpt lat="48.95908" lon="-0.48432">
        <ele>115.6</ele>
        <time>2024-04-07T10:12:14Z</time>
      </trkpt>
      <trkpt lat="48.95916" lon="-0.48419">
        <ele>115.6</ele>
        <time>2024-04-07T10:12:15Z</time>
      </trkpt>
      <trkpt lat="48.95921" lon="-0.4841">
        <ele>115.6</ele>
        <time>2024-04-07T10:12:16Z</time>
      </trkpt>
      <trkpt lat="48.95927" lon="-0.48401">
        <ele>115.6</ele>
        <time>2024-04-07T10:12:17Z</time>
      </trkpt>
      <trkpt lat="48.95932" lon="-0.48392">
        <ele>115.8</ele>
        <time>2024-04-07T10:12:18Z</time>
      </trkpt>
      <trkpt lat="48.95937" lon="-0.48383">
        <ele>115.8</ele>
        <time>2024-04-07T10:12:19Z</time>
      </trkpt>
      <trkpt lat="48.95941" lon="-0.48376">
        <ele>115.8</ele>
        <time>2024-04-07T10:12:20Z</time>
      </trkpt>
      <trkpt lat="48.95945" lon="-0.48369">
        <ele>115.8</ele>
        <time>2024-04-07T10:12:21Z</time>
      </trkpt>
      <trkpt lat="48.95953" lon="-0.48356">
        <ele>115.8</ele>
        <time>2024-04-07T10:12:22Z</time>
      </trkpt>
      <trkpt lat="48.95958" lon="-0.48347">
        <ele>116</ele>
        <time>2024-04-07T10:12:23Z</time>
      </trkpt>
      <trkpt lat="48.95963" lon="-0.48338">
        <ele>116</ele>
        <time>2024-04-07T10:12:24Z</time>
      </trkpt>
      <trkpt lat="48.95967" lon="-0.48331">
        <ele>116</ele>
        <time>2024-04-07T10:12:25Z</time>
      </trkpt>
      <trkpt lat="48.95971" lon="-0.48324">
        <ele>116</ele>
        <time>2024-04-07T10:12:26Z</time>
      </trkpt>
      <trkpt lat="48.95979" lon="-0.4831">
        <ele>116</ele>
        <time>2024-04-07T10:12:27Z</time>
      </trkpt>
      <trkpt lat="48.95984" lon="-0.48301">
        <ele>115.8</ele>
        <time>2024-04-07T10:12:28Z</time>
      </trkpt>
      <trkpt lat="48.95984" lon="-0.48301">
        <ele>115.8</ele>
        <time>2024-04-07T10:12:29Z</time>
      </trkpt>
      <trkpt lat="48.95995" lon="-0.48284">
        <ele>115.6</ele>
        <time>2024-04-07T10:12:30Z</time>
      </trkpt>
      <trkpt lat="48.95999" lon="-0.48278">
        <ele>115.4</ele>
        <time>2024-04-07T10:12:31Z</time>
      </trkpt>
      <trkpt lat="48.96003" lon="-0.48272">
        <ele>115.4</ele>
        <time>2024-04-07T10:12:32Z</time>
      </trkpt>
      <trkpt lat="48.96011" lon="-0.48259">
        <ele>115.4</ele>
        <time>2024-04-07T10:12:33Z</time>
      </trkpt>
      <trkpt lat="48.96014" lon="-0.48255">
        <ele>115.4</ele>
        <time>2024-04-07T10:12:34Z</time>
      </trkpt>
      <trkpt lat="48.96017" lon="-0.48251">
        <ele>115.4</ele>
        <time>2024-04-07T10:12:35Z</time>
      </trkpt>
      <trkpt lat="48.96025" lon="-0.48239">
        <ele>115.6</ele>
        <time>2024-04-07T10:12:36Z</time>
      </trkpt>
      <trkpt lat="48.96028" lon="-0.48235">
        <ele>115.6</ele>
        <time>2024-04-07T10:12:37Z</time>
      </trkpt>
      <trkpt lat="48.9604" lon="-0.48219">
        <ele>115.6</ele>
        <time>2024-04-07T10:12:38Z</time>
      </trkpt>
      <trkpt lat="48.9604" lon="-0.48219">
        <ele>115.6</ele>
        <time>2024-04-07T10:12:39Z</time>
      </trkpt>
      <trkpt lat="48.96051" lon="-0.48205">
        <ele>115.6</ele>
        <time>2024-04-07T10:12:40Z</time>
      </trkpt>
      <trkpt lat="48.96057" lon="-0.48197">
        <ele>115.6</ele>
        <time>2024-04-07T10:12:41Z</time>
      </trkpt>
      <trkpt lat="48.96062" lon="-0.48192">
        <ele>115.6</ele>
        <time>2024-04-07T10:12:42Z</time>
      </trkpt>
      <trkpt lat="48.96066" lon="-0.48186">
        <ele>115.6</ele>
        <time>2024-04-07T10:12:43Z</time>
      </trkpt>
      <trkpt lat="48.96076" lon="-0.48176">
        <ele>115.8</ele>
        <time>2024-04-07T10:12:44Z</time>
      </trkpt>
      <trkpt lat="48.96079" lon="-0.48172">
        <ele>115.8</ele>
        <time>2024-04-07T10:12:45Z</time>
      </trkpt>
      <trkpt lat="48.96082" lon="-0.48169">
        <ele>115.8</ele>
        <time>2024-04-07T10:12:46Z</time>
      </trkpt>
      <trkpt lat="48.96089" lon="-0.48163">
        <ele>116</ele>
        <time>2024-04-07T10:12:47Z</time>
      </trkpt>
      <trkpt lat="48.96095" lon="-0.48156">
        <ele>116</ele>
        <time>2024-04-07T10:12:48Z</time>
      </trkpt>
      <trkpt lat="48.96108" lon="-0.48143">
        <ele>116</ele>
        <time>2024-04-07T10:12:49Z</time>
      </trkpt>
      <trkpt lat="48.96116" lon="-0.48137">
        <ele>116.2</ele>
        <time>2024-04-07T10:12:50Z</time>
      </trkpt>
      <trkpt lat="48.96121" lon="-0.48133">
        <ele>116.4</ele>
        <time>2024-04-07T10:12:51Z</time>
      </trkpt>
      <trkpt lat="48.96126" lon="-0.48128">
        <ele>116.4</ele>
        <time>2024-04-07T10:12:52Z</time>
      </trkpt>
      <trkpt lat="48.96137" lon="-0.4812">
        <ele>116.6</ele>
        <time>2024-04-07T10:12:53Z</time>
      </trkpt>
      <trkpt lat="48.96141" lon="-0.48117">
        <ele>116.4</ele>
        <time>2024-04-07T10:12:54Z</time>
      </trkpt>
      <trkpt lat="48.96145" lon="-0.48115">
        <ele>116.4</ele>
        <time>2024-04-07T10:12:55Z</time>
      </trkpt>
      <trkpt lat="48.96152" lon="-0.4811">
        <ele>116.4</ele>
        <time>2024-04-07T10:12:56Z</time>
      </trkpt>
      <trkpt lat="48.96166" lon="-0.48101">
        <ele>116.2</ele>
        <time>2024-04-07T10:12:57Z</time>
      </trkpt>
      <trkpt lat="48.9617" lon="-0.48099">
        <ele>116</ele>
        <time>2024-04-07T10:12:58Z</time>
      </trkpt>
      <trkpt lat="48.96173" lon="-0.48097">
        <ele>116</ele>
        <time>2024-04-07T10:12:59Z</time>
      </trkpt>
      <trkpt lat="48.96184" lon="-0.48092">
        <ele>115.8</ele>
        <time>2024-04-07T10:13:00Z</time>
      </trkpt>
      <trkpt lat="48.96188" lon="-0.4809">
        <ele>115.8</ele>
        <time>2024-04-07T10:13:01Z</time>
      </trkpt>
      <trkpt lat="48.96195" lon="-0.48086">
        <ele>115.8</ele>
        <time>2024-04-07T10:13:02Z</time>
      </trkpt>
      <trkpt lat="48.96211" lon="-0.4808">
        <ele>115.8</ele>
        <time>2024-04-07T10:13:03Z</time>
      </trkpt>
      <trkpt lat="48.96218" lon="-0.48077">
        <ele>115.8</ele>
        <time>2024-04-07T10:13:04Z</time>
      </trkpt>
      <trkpt lat="48.96222" lon="-0.48076">
        <ele>116</ele>
        <time>2024-04-07T10:13:05Z</time>
      </trkpt>
      <trkpt lat="48.96226" lon="-0.48074">
        <ele>116</ele>
        <time>2024-04-07T10:13:06Z</time>
      </trkpt>
      <trkpt lat="48.9624" lon="-0.4807">
        <ele>116</ele>
        <time>2024-04-07T10:13:07Z</time>
      </trkpt>
      <trkpt lat="48.96244" lon="-0.48069">
        <ele>116.2</ele>
        <time>2024-04-07T10:13:08Z</time>
      </trkpt>
      <trkpt lat="48.96248" lon="-0.48068">
        <ele>116.2</ele>
        <time>2024-04-07T10:13:09Z</time>
      </trkpt>
      <trkpt lat="48.96262" lon="-0.48065">
        <ele>116.2</ele>
        <time>2024-04-07T10:13:10Z</time>
      </trkpt>
      <trkpt lat="48.96268" lon="-0.48063">
        <ele>116.2</ele>
        <time>2024-04-07T10:13:11Z</time>
      </trkpt>
      <trkpt lat="48.9628" lon="-0.48061">
        <ele>116.2</ele>
        <time>2024-04-07T10:13:12Z</time>
      </trkpt>
      <trkpt lat="48.96288" lon="-0.4806">
        <ele>116.2</ele>
        <time>2024-04-07T10:13:13Z</time>
      </trkpt>
      <trkpt lat="48.96296" lon="-0.48059">
        <ele>116.2</ele>
        <time>2024-04-07T10:13:14Z</time>
      </trkpt>
      <trkpt lat="48.96304" lon="-0.48058">
        <ele>116.2</ele>
        <time>2024-04-07T10:13:15Z</time>
      </trkpt>
      <trkpt lat="48.96312" lon="-0.48057">
        <ele>116.2</ele>
        <time>2024-04-07T10:13:16Z</time>
      </trkpt>
      <trkpt lat="48.9632" lon="-0.48057">
        <ele>116.2</ele>
        <time>2024-04-07T10:13:17Z</time>
      </trkpt>
      <trkpt lat="48.96324" lon="-0.48057">
        <ele>116.2</ele>
        <time>2024-04-07T10:13:18Z</time>
      </trkpt>
      <trkpt lat="48.96328" lon="-0.48056">
        <ele>116.2</ele>
        <time>2024-04-07T10:13:19Z</time>
      </trkpt>
      <trkpt lat="48.96335" lon="-0.48057">
        <ele>116.2</ele>
        <time>2024-04-07T10:13:20Z</time>
      </trkpt>
      <trkpt lat="48.96348" lon="-0.48056">
        <ele>116.2</ele>
        <time>2024-04-07T10:13:21Z</time>
      </trkpt>
      <trkpt lat="48.96353" lon="-0.48057">
        <ele>116.4</ele>
        <time>2024-04-07T10:13:22Z</time>
      </trkpt>
      <trkpt lat="48.96357" lon="-0.48058">
        <ele>116.6</ele>
        <time>2024-04-07T10:13:23Z</time>
      </trkpt>
      <trkpt lat="48.96366" lon="-0.4806">
        <ele>116.8</ele>
        <time>2024-04-07T10:13:24Z</time>
      </trkpt>
      <trkpt lat="48.96369" lon="-0.4806">
        <ele>116.8</ele>
        <time>2024-04-07T10:13:25Z</time>
      </trkpt>
      <trkpt lat="48.96371" lon="-0.48061">
        <ele>117</ele>
        <time>2024-04-07T10:13:26Z</time>
      </trkpt>
      <trkpt lat="48.96376" lon="-0.48061">
        <ele>117.2</ele>
        <time>2024-04-07T10:13:27Z</time>
      </trkpt>
      <trkpt lat="48.96382" lon="-0.48059">
        <ele>117.6</ele>
        <time>2024-04-07T10:13:28Z</time>
      </trkpt>
      <trkpt lat="48.96386" lon="-0.48056">
        <ele>117.8</ele>
        <time>2024-04-07T10:13:29Z</time>
      </trkpt>
      <trkpt lat="48.96391" lon="-0.48051">
        <ele>118.2</ele>
        <time>2024-04-07T10:13:30Z</time>
      </trkpt>
      <trkpt lat="48.96393" lon="-0.4805">
        <ele>118.6</ele>
        <time>2024-04-07T10:13:31Z</time>
      </trkpt>
      <trkpt lat="48.96397" lon="-0.48049">
        <ele>118.8</ele>
        <time>2024-04-07T10:13:32Z</time>
      </trkpt>
      <trkpt lat="48.96406" lon="-0.4805">
        <ele>119</ele>
        <time>2024-04-07T10:13:33Z</time>
      </trkpt>
      <trkpt lat="48.96409" lon="-0.4805">
        <ele>119</ele>
        <time>2024-04-07T10:13:34Z</time>
      </trkpt>
      <trkpt lat="48.96412" lon="-0.48051">
        <ele>119</ele>
        <time>2024-04-07T10:13:35Z</time>
      </trkpt>
      <trkpt lat="48.96417" lon="-0.48052">
        <ele>119.2</ele>
        <time>2024-04-07T10:13:36Z</time>
      </trkpt>
      <trkpt lat="48.96423" lon="-0.48053">
        <ele>119</ele>
        <time>2024-04-07T10:13:37Z</time>
      </trkpt>
      <trkpt lat="48.96429" lon="-0.48054">
        <ele>118.8</ele>
        <time>2024-04-07T10:13:38Z</time>
      </trkpt>
      <trkpt lat="48.96438" lon="-0.48056">
        <ele>118.4</ele>
        <time>2024-04-07T10:13:39Z</time>
      </trkpt>
      <trkpt lat="48.96442" lon="-0.48057">
        <ele>118.2</ele>
        <time>2024-04-07T10:13:40Z</time>
      </trkpt>
      <trkpt lat="48.96449" lon="-0.48059">
        <ele>117.8</ele>
        <time>2024-04-07T10:13:41Z</time>
      </trkpt>
      <trkpt lat="48.96456" lon="-0.4806">
        <ele>117.8</ele>
        <time>2024-04-07T10:13:42Z</time>
      </trkpt>
      <trkpt lat="48.96463" lon="-0.48062">
        <ele>117.8</ele>
        <time>2024-04-07T10:13:43Z</time>
      </trkpt>
      <trkpt lat="48.9647" lon="-0.48063">
        <ele>117.6</ele>
        <time>2024-04-07T10:13:44Z</time>
      </trkpt>
      <trkpt lat="48.96481" lon="-0.48066">
        <ele>117.6</ele>
        <time>2024-04-07T10:13:45Z</time>
      </trkpt>
      <trkpt lat="48.96484" lon="-0.48067">
        <ele>117.6</ele>
        <time>2024-04-07T10:13:46Z</time>
      </trkpt>
      <trkpt lat="48.96491" lon="-0.48069">
        <ele>117.6</ele>
        <time>2024-04-07T10:13:47Z</time>
      </trkpt>
      <trkpt lat="48.96504" lon="-0.48072">
        <ele>117.8</ele>
        <time>2024-04-07T10:13:48Z</time>
      </trkpt>
      <trkpt lat="48.96511" lon="-0.48074">
        <ele>117.8</ele>
        <time>2024-04-07T10:13:49Z</time>
      </trkpt>
      <trkpt lat="48.96518" lon="-0.48076">
        <ele>117.8</ele>
        <time>2024-04-07T10:13:50Z</time>
      </trkpt>
      <trkpt lat="48.96522" lon="-0.48077">
        <ele>118</ele>
        <time>2024-04-07T10:13:51Z</time>
      </trkpt>
      <trkpt lat="48.96525" lon="-0.48078">
        <ele>118</ele>
        <time>2024-04-07T10:13:52Z</time>
      </trkpt>
      <trkpt lat="48.96539" lon="-0.48082">
        <ele>117.8</ele>
        <time>2024-04-07T10:13:53Z</time>
      </trkpt>
      <trkpt lat="48.96547" lon="-0.48084">
        <ele>117.8</ele>
        <time>2024-04-07T10:13:54Z</time>
      </trkpt>
      <trkpt lat="48.9655" lon="-0.48085">
        <ele>117.6</ele>
        <time>2024-04-07T10:13:55Z</time>
      </trkpt>
      <trkpt lat="48.96554" lon="-0.48085">
        <ele>117.6</ele>
        <time>2024-04-07T10:13:56Z</time>
      </trkpt>
      <trkpt lat="48.96562" lon="-0.48087">
        <ele>117.6</ele>
        <time>2024-04-07T10:13:57Z</time>
      </trkpt>
      <trkpt lat="48.96569" lon="-0.48089">
        <ele>117.6</ele>
        <time>2024-04-07T10:13:58Z</time>
      </trkpt>
      <trkpt lat="48.9658" lon="-0.48092">
        <ele>117.8</ele>
        <time>2024-04-07T10:13:59Z</time>
      </trkpt>
      <trkpt lat="48.96584" lon="-0.48093">
        <ele>117.8</ele>
        <time>2024-04-07T10:14:00Z</time>
      </trkpt>
      <trkpt lat="48.96591" lon="-0.48095">
        <ele>117.8</ele>
        <time>2024-04-07T10:14:01Z</time>
      </trkpt>
      <trkpt lat="48.96598" lon="-0.48096">
        <ele>118</ele>
        <time>2024-04-07T10:14:02Z</time>
      </trkpt>
      <trkpt lat="48.96605" lon="-0.48098">
        <ele>118</ele>
        <time>2024-04-07T10:14:03Z</time>
      </trkpt>
      <trkpt lat="48.96615" lon="-0.481">
        <ele>118.2</ele>
        <time>2024-04-07T10:14:04Z</time>
      </trkpt>
      <trkpt lat="48.96618" lon="-0.48101">
        <ele>118.4</ele>
        <time>2024-04-07T10:14:05Z</time>
      </trkpt>
      <trkpt lat="48.96633" lon="-0.48105">
        <ele>118.4</ele>
        <time>2024-04-07T10:14:06Z</time>
      </trkpt>
      <trkpt lat="48.9664" lon="-0.48107">
        <ele>118.4</ele>
        <time>2024-04-07T10:14:07Z</time>
      </trkpt>
      <trkpt lat="48.96647" lon="-0.4811">
        <ele>118.4</ele>
        <time>2024-04-07T10:14:08Z</time>
      </trkpt>
      <trkpt lat="48.96654" lon="-0.48112">
        <ele>118.4</ele>
        <time>2024-04-07T10:14:09Z</time>
      </trkpt>
      <trkpt lat="48.96661" lon="-0.48114">
        <ele>118.4</ele>
        <time>2024-04-07T10:14:10Z</time>
      </trkpt>
      <trkpt lat="48.96664" lon="-0.48115">
        <ele>118.4</ele>
        <time>2024-04-07T10:14:11Z</time>
      </trkpt>
      <trkpt lat="48.96667" lon="-0.48116">
        <ele>118.2</ele>
        <time>2024-04-07T10:14:12Z</time>
      </trkpt>
      <trkpt lat="48.96677" lon="-0.48119">
        <ele>118.2</ele>
        <time>2024-04-07T10:14:13Z</time>
      </trkpt>
      <trkpt lat="48.96681" lon="-0.48119">
        <ele>118</ele>
        <time>2024-04-07T10:14:14Z</time>
      </trkpt>
      <trkpt lat="48.96688" lon="-0.48121">
        <ele>117.6</ele>
        <time>2024-04-07T10:14:15Z</time>
      </trkpt>
      <trkpt lat="48.96694" lon="-0.48123">
        <ele>117.2</ele>
        <time>2024-04-07T10:14:16Z</time>
      </trkpt>
      <trkpt lat="48.96702" lon="-0.48125">
        <ele>116.8</ele>
        <time>2024-04-07T10:14:17Z</time>
      </trkpt>
      <trkpt lat="48.9671" lon="-0.48127">
        <ele>116.4</ele>
        <time>2024-04-07T10:14:18Z</time>
      </trkpt>
      <trkpt lat="48.96717" lon="-0.48128">
        <ele>116.4</ele>
        <time>2024-04-07T10:14:19Z</time>
      </trkpt>
      <trkpt lat="48.96725" lon="-0.48129">
        <ele>116.2</ele>
        <time>2024-04-07T10:14:20Z</time>
      </trkpt>
      <trkpt lat="48.96732" lon="-0.48128">
        <ele>116.2</ele>
        <time>2024-04-07T10:14:21Z</time>
      </trkpt>
      <trkpt lat="48.96739" lon="-0.48127">
        <ele>116.2</ele>
        <time>2024-04-07T10:14:22Z</time>
      </trkpt>
      <trkpt lat="48.96747" lon="-0.48126">
        <ele>116.4</ele>
        <time>2024-04-07T10:14:23Z</time>
      </trkpt>
      <trkpt lat="48.96754" lon="-0.48126">
        <ele>116.6</ele>
        <time>2024-04-07T10:14:24Z</time>
      </trkpt>
      <trkpt lat="48.9676" lon="-0.48128">
        <ele>117</ele>
        <time>2024-04-07T10:14:25Z</time>
      </trkpt>
      <trkpt lat="48.96764" lon="-0.48132">
        <ele>117.2</ele>
        <time>2024-04-07T10:14:26Z</time>
      </trkpt>
      <trkpt lat="48.96765" lon="-0.48137">
        <ele>117.4</ele>
        <time>2024-04-07T10:14:27Z</time>
      </trkpt>
      <trkpt lat="48.96766" lon="-0.48142">
        <ele>117.6</ele>
        <time>2024-04-07T10:14:28Z</time>
      </trkpt>
      <trkpt lat="48.96769" lon="-0.48145">
        <ele>117.8</ele>
        <time>2024-04-07T10:14:29Z</time>
      </trkpt>
      <trkpt lat="48.96773" lon="-0.48147">
        <ele>117.8</ele>
        <time>2024-04-07T10:14:30Z</time>
      </trkpt>
      <trkpt lat="48.96777" lon="-0.48148">
        <ele>117.8</ele>
        <time>2024-04-07T10:14:31Z</time>
      </trkpt>
      <trkpt lat="48.96781" lon="-0.48149">
        <ele>117.8</ele>
        <time>2024-04-07T10:14:32Z</time>
      </trkpt>
      <trkpt lat="48.96786" lon="-0.48151">
        <ele>117.8</ele>
        <time>2024-04-07T10:14:33Z</time>
      </trkpt>
      <trkpt lat="48.96795" lon="-0.48154">
        <ele>117.6</ele>
        <time>2024-04-07T10:14:34Z</time>
      </trkpt>
      <trkpt lat="48.96798" lon="-0.48154">
        <ele>117.6</ele>
        <time>2024-04-07T10:14:35Z</time>
      </trkpt>
      <trkpt lat="48.96805" lon="-0.48156">
        <ele>117.4</ele>
        <time>2024-04-07T10:14:36Z</time>
      </trkpt>
      <trkpt lat="48.96817" lon="-0.48159">
        <ele>117.4</ele>
        <time>2024-04-07T10:14:37Z</time>
      </trkpt>
      <trkpt lat="48.96822" lon="-0.4816">
        <ele>117.2</ele>
        <time>2024-04-07T10:14:38Z</time>
      </trkpt>
      <trkpt lat="48.96833" lon="-0.48162">
        <ele>117</ele>
        <time>2024-04-07T10:14:39Z</time>
      </trkpt>
      <trkpt lat="48.96836" lon="-0.48163">
        <ele>117</ele>
        <time>2024-04-07T10:14:40Z</time>
      </trkpt>
      <trkpt lat="48.9684" lon="-0.48164">
        <ele>116.8</ele>
        <time>2024-04-07T10:14:41Z</time>
      </trkpt>
      <trkpt lat="48.96847" lon="-0.48166">
        <ele>116.8</ele>
        <time>2024-04-07T10:14:42Z</time>
      </trkpt>
      <trkpt lat="48.96854" lon="-0.48168">
        <ele>116.8</ele>
        <time>2024-04-07T10:14:43Z</time>
      </trkpt>
      <trkpt lat="48.96862" lon="-0.48169">
        <ele>116.8</ele>
        <time>2024-04-07T10:14:44Z</time>
      </trkpt>
      <trkpt lat="48.96875" lon="-0.48172">
        <ele>116.8</ele>
        <time>2024-04-07T10:14:45Z</time>
      </trkpt>
      <trkpt lat="48.96881" lon="-0.48174">
        <ele>116.6</ele>
        <time>2024-04-07T10:14:46Z</time>
      </trkpt>
      <trkpt lat="48.96893" lon="-0.48176">
        <ele>116.6</ele>
        <time>2024-04-07T10:14:47Z</time>
      </trkpt>
      <trkpt lat="48.96893" lon="-0.48176">
        <ele>116.6</ele>
        <time>2024-04-07T10:14:48Z</time>
      </trkpt>
      <trkpt lat="48.96907" lon="-0.48179">
        <ele>116.6</ele>
        <time>2024-04-07T10:14:49Z</time>
      </trkpt>
      <trkpt lat="48.96912" lon="-0.48181">
        <ele>116.4</ele>
        <time>2024-04-07T10:14:50Z</time>
      </trkpt>
      <trkpt lat="48.96924" lon="-0.48184">
        <ele>116.2</ele>
        <time>2024-04-07T10:14:51Z</time>
      </trkpt>
      <trkpt lat="48.96928" lon="-0.48185">
        <ele>116</ele>
        <time>2024-04-07T10:14:52Z</time>
      </trkpt>
      <trkpt lat="48.96932" lon="-0.48186">
        <ele>116</ele>
        <time>2024-04-07T10:14:53Z</time>
      </trkpt>
      <trkpt lat="48.96939" lon="-0.48188">
        <ele>116</ele>
        <time>2024-04-07T10:14:54Z</time>
      </trkpt>
      <trkpt lat="48.96946" lon="-0.4819">
        <ele>116</ele>
        <time>2024-04-07T10:14:55Z</time>
      </trkpt>
      <trkpt lat="48.96961" lon="-0.48196">
        <ele>116</ele>
        <time>2024-04-07T10:14:56Z</time>
      </trkpt>
      <trkpt lat="48.96965" lon="-0.48198">
        <ele>116</ele>
        <time>2024-04-07T10:14:57Z</time>
      </trkpt>
      <trkpt lat="48.96968" lon="-0.482">
        <ele>116</ele>
        <time>2024-04-07T10:14:58Z</time>
      </trkpt>
      <trkpt lat="48.96974" lon="-0.48204">
        <ele>116</ele>
        <time>2024-04-07T10:14:59Z</time>
      </trkpt>
      <trkpt lat="48.96982" lon="-0.48208">
        <ele>116</ele>
        <time>2024-04-07T10:15:00Z</time>
      </trkpt>
      <trkpt lat="48.96998" lon="-0.48214">
        <ele>115.8</ele>
        <time>2024-04-07T10:15:01Z</time>
      </trkpt>
      <trkpt lat="48.97006" lon="-0.48216">
        <ele>115.8</ele>
        <time>2024-04-07T10:15:02Z</time>
      </trkpt>
      <trkpt lat="48.97013" lon="-0.48218">
        <ele>115.6</ele>
        <time>2024-04-07T10:15:03Z</time>
      </trkpt>
      <trkpt lat="48.97021" lon="-0.4822">
        <ele>115.6</ele>
        <time>2024-04-07T10:15:04Z</time>
      </trkpt>
      <trkpt lat="48.9703" lon="-0.48221">
        <ele>115.6</ele>
        <time>2024-04-07T10:15:05Z</time>
      </trkpt>
      <trkpt lat="48.97038" lon="-0.48223">
        <ele>115.6</ele>
        <time>2024-04-07T10:15:06Z</time>
      </trkpt>
      <trkpt lat="48.97046" lon="-0.48225">
        <ele>115.6</ele>
        <time>2024-04-07T10:15:07Z</time>
      </trkpt>
      <trkpt lat="48.97055" lon="-0.48227">
        <ele>115.6</ele>
        <time>2024-04-07T10:15:08Z</time>
      </trkpt>
      <trkpt lat="48.97063" lon="-0.48229">
        <ele>115.6</ele>
        <time>2024-04-07T10:15:09Z</time>
      </trkpt>
      <trkpt lat="48.97072" lon="-0.48231">
        <ele>115.4</ele>
        <time>2024-04-07T10:15:10Z</time>
      </trkpt>
      <trkpt lat="48.97081" lon="-0.48233">
        <ele>115.2</ele>
        <time>2024-04-07T10:15:11Z</time>
      </trkpt>
      <trkpt lat="48.97089" lon="-0.48235">
        <ele>115</ele>
        <time>2024-04-07T10:15:12Z</time>
      </trkpt>
      <trkpt lat="48.97098" lon="-0.48238">
        <ele>114.8</ele>
        <time>2024-04-07T10:15:13Z</time>
      </trkpt>
      <trkpt lat="48.97106" lon="-0.4824">
        <ele>114.6</ele>
        <time>2024-04-07T10:15:14Z</time>
      </trkpt>
      <trkpt lat="48.97115" lon="-0.48243">
        <ele>114.6</ele>
        <time>2024-04-07T10:15:15Z</time>
      </trkpt>
      <trkpt lat="48.97124" lon="-0.48246">
        <ele>114.6</ele>
        <time>2024-04-07T10:15:16Z</time>
      </trkpt>
      <trkpt lat="48.97133" lon="-0.48248">
        <ele>114.6</ele>
        <time>2024-04-07T10:15:17Z</time>
      </trkpt>
      <trkpt lat="48.97142" lon="-0.48251">
        <ele>114.6</ele>
        <time>2024-04-07T10:15:18Z</time>
      </trkpt>
      <trkpt lat="48.97152" lon="-0.48253">
        <ele>114.6</ele>
        <time>2024-04-07T10:15:19Z</time>
      </trkpt>
      <trkpt lat="48.97161" lon="-0.48255">
        <ele>114.6</ele>
        <time>2024-04-07T10:15:20Z</time>
      </trkpt>
      <trkpt lat="48.9717" lon="-0.48258">
        <ele>114.6</ele>
        <time>2024-04-07T10:15:21Z</time>
      </trkpt>
      <trkpt lat="48.97179" lon="-0.4826">
        <ele>114.4</ele>
        <time>2024-04-07T10:15:22Z</time>
      </trkpt>
      <trkpt lat="48.97187" lon="-0.48262">
        <ele>114.2</ele>
        <time>2024-04-07T10:15:23Z</time>
      </trkpt>
      <trkpt lat="48.97197" lon="-0.48263">
        <ele>114</ele>
        <time>2024-04-07T10:15:24Z</time>
      </trkpt>
      <trkpt lat="48.97206" lon="-0.48265">
        <ele>113.8</ele>
        <time>2024-04-07T10:15:25Z</time>
      </trkpt>
      <trkpt lat="48.97215" lon="-0.48267">
        <ele>113.8</ele>
        <time>2024-04-07T10:15:26Z</time>
      </trkpt>
      <trkpt lat="48.97224" lon="-0.48268">
        <ele>113.6</ele>
        <time>2024-04-07T10:15:27Z</time>
      </trkpt>
      <trkpt lat="48.97232" lon="-0.4827">
        <ele>113.6</ele>
        <time>2024-04-07T10:15:28Z</time>
      </trkpt>
      <trkpt lat="48.97241" lon="-0.48271">
        <ele>113.4</ele>
        <time>2024-04-07T10:15:29Z</time>
      </trkpt>
      <trkpt lat="48.9725" lon="-0.48271">
        <ele>113.4</ele>
        <time>2024-04-07T10:15:30Z</time>
      </trkpt>
      <trkpt lat="48.97259" lon="-0.48272">
        <ele>113.2</ele>
        <time>2024-04-07T10:15:31Z</time>
      </trkpt>
      <trkpt lat="48.97268" lon="-0.48272">
        <ele>113</ele>
        <time>2024-04-07T10:15:32Z</time>
      </trkpt>
      <trkpt lat="48.97277" lon="-0.48272">
        <ele>113</ele>
        <time>2024-04-07T10:15:33Z</time>
      </trkpt>
      <trkpt lat="48.97286" lon="-0.48271">
        <ele>113</ele>
        <time>2024-04-07T10:15:34Z</time>
      </trkpt>
      <trkpt lat="48.97295" lon="-0.4827">
        <ele>113</ele>
        <time>2024-04-07T10:15:35Z</time>
      </trkpt>
      <trkpt lat="48.97304" lon="-0.48269">
        <ele>113.2</ele>
        <time>2024-04-07T10:15:36Z</time>
      </trkpt>
      <trkpt lat="48.97313" lon="-0.48267">
        <ele>113.2</ele>
        <time>2024-04-07T10:15:37Z</time>
      </trkpt>
      <trkpt lat="48.97322" lon="-0.48265">
        <ele>113.2</ele>
        <time>2024-04-07T10:15:38Z</time>
      </trkpt>
      <trkpt lat="48.97331" lon="-0.48263">
        <ele>113.2</ele>
        <time>2024-04-07T10:15:39Z</time>
      </trkpt>
      <trkpt lat="48.97339" lon="-0.48261">
        <ele>113</ele>
        <time>2024-04-07T10:15:40Z</time>
      </trkpt>
      <trkpt lat="48.97347" lon="-0.48257">
        <ele>113</ele>
        <time>2024-04-07T10:15:41Z</time>
      </trkpt>
      <trkpt lat="48.97355" lon="-0.48254">
        <ele>113</ele>
        <time>2024-04-07T10:15:42Z</time>
      </trkpt>
      <trkpt lat="48.97364" lon="-0.4825">
        <ele>113</ele>
        <time>2024-04-07T10:15:43Z</time>
      </trkpt>
      <trkpt lat="48.97372" lon="-0.48246">
        <ele>113</ele>
        <time>2024-04-07T10:15:44Z</time>
      </trkpt>
      <trkpt lat="48.9738" lon="-0.48242">
        <ele>113</ele>
        <time>2024-04-07T10:15:45Z</time>
      </trkpt>
      <trkpt lat="48.97388" lon="-0.48238">
        <ele>113.2</ele>
        <time>2024-04-07T10:15:46Z</time>
      </trkpt>
      <trkpt lat="48.97396" lon="-0.48233">
        <ele>113.2</ele>
        <time>2024-04-07T10:15:47Z</time>
      </trkpt>
      <trkpt lat="48.97404" lon="-0.48227">
        <ele>113.2</ele>
        <time>2024-04-07T10:15:48Z</time>
      </trkpt>
      <trkpt lat="48.97411" lon="-0.48222">
        <ele>113</ele>
        <time>2024-04-07T10:15:49Z</time>
      </trkpt>
      <trkpt lat="48.97419" lon="-0.48216">
        <ele>113</ele>
        <time>2024-04-07T10:15:50Z</time>
      </trkpt>
      <trkpt lat="48.97426" lon="-0.48211">
        <ele>113</ele>
        <time>2024-04-07T10:15:51Z</time>
      </trkpt>
      <trkpt lat="48.97433" lon="-0.48206">
        <ele>113</ele>
        <time>2024-04-07T10:15:52Z</time>
      </trkpt>
      <trkpt lat="48.9744" lon="-0.48201">
        <ele>113</ele>
        <time>2024-04-07T10:15:53Z</time>
      </trkpt>
      <trkpt lat="48.97448" lon="-0.48196">
        <ele>113.2</ele>
        <time>2024-04-07T10:15:54Z</time>
      </trkpt>
      <trkpt lat="48.97455" lon="-0.4819">
        <ele>113.2</ele>
        <time>2024-04-07T10:15:55Z</time>
      </trkpt>
      <trkpt lat="48.97462" lon="-0.48185">
        <ele>113.2</ele>
        <time>2024-04-07T10:15:56Z</time>
      </trkpt>
      <trkpt lat="48.97469" lon="-0.48179">
        <ele>113.2</ele>
        <time>2024-04-07T10:15:57Z</time>
      </trkpt>
      <trkpt lat="48.97477" lon="-0.48174">
        <ele>113.4</ele>
        <time>2024-04-07T10:15:58Z</time>
      </trkpt>
      <trkpt lat="48.97484" lon="-0.48168">
        <ele>113.6</ele>
        <time>2024-04-07T10:15:59Z</time>
      </trkpt>
      <trkpt lat="48.97491" lon="-0.48163">
        <ele>113.6</ele>
        <time>2024-04-07T10:16:00Z</time>
      </trkpt>
      <trkpt lat="48.97498" lon="-0.48157">
        <ele>113.8</ele>
        <time>2024-04-07T10:16:01Z</time>
      </trkpt>
      <trkpt lat="48.97505" lon="-0.48152">
        <ele>113.8</ele>
        <time>2024-04-07T10:16:02Z</time>
      </trkpt>
      <trkpt lat="48.97512" lon="-0.48147">
        <ele>114</ele>
        <time>2024-04-07T10:16:03Z</time>
      </trkpt>
      <trkpt lat="48.97519" lon="-0.48141">
        <ele>114.2</ele>
        <time>2024-04-07T10:16:04Z</time>
      </trkpt>
      <trkpt lat="48.97526" lon="-0.48136">
        <ele>114.2</ele>
        <time>2024-04-07T10:16:05Z</time>
      </trkpt>
      <trkpt lat="48.97532" lon="-0.4813">
        <ele>114.4</ele>
        <time>2024-04-07T10:16:06Z</time>
      </trkpt>
      <trkpt lat="48.97538" lon="-0.48125">
        <ele>114.8</ele>
        <time>2024-04-07T10:16:07Z</time>
      </trkpt>
      <trkpt lat="48.97545" lon="-0.4812">
        <ele>114.8</ele>
        <time>2024-04-07T10:16:08Z</time>
      </trkpt>
      <trkpt lat="48.97552" lon="-0.48115">
        <ele>115</ele>
        <time>2024-04-07T10:16:09Z</time>
      </trkpt>
      <trkpt lat="48.97559" lon="-0.4811">
        <ele>115.2</ele>
        <time>2024-04-07T10:16:10Z</time>
      </trkpt>
      <trkpt lat="48.97567" lon="-0.48106">
        <ele>115.2</ele>
        <time>2024-04-07T10:16:11Z</time>
      </trkpt>
      <trkpt lat="48.97575" lon="-0.48103">
        <ele>115.2</ele>
        <time>2024-04-07T10:16:12Z</time>
      </trkpt>
      <trkpt lat="48.97583" lon="-0.48099">
        <ele>115.2</ele>
        <time>2024-04-07T10:16:13Z</time>
      </trkpt>
      <trkpt lat="48.9759" lon="-0.48096">
        <ele>115.2</ele>
        <time>2024-04-07T10:16:14Z</time>
      </trkpt>
      <trkpt lat="48.97598" lon="-0.48093">
        <ele>115.2</ele>
        <time>2024-04-07T10:16:15Z</time>
      </trkpt>
      <trkpt lat="48.97606" lon="-0.4809">
        <ele>115.2</ele>
        <time>2024-04-07T10:16:16Z</time>
      </trkpt>
      <trkpt lat="48.97613" lon="-0.48088">
        <ele>115</ele>
        <time>2024-04-07T10:16:17Z</time>
      </trkpt>
      <trkpt lat="48.97621" lon="-0.48086">
        <ele>114.8</ele>
        <time>2024-04-07T10:16:18Z</time>
      </trkpt>
      <trkpt lat="48.9763" lon="-0.48084">
        <ele>114.8</ele>
        <time>2024-04-07T10:16:19Z</time>
      </trkpt>
      <trkpt lat="48.97638" lon="-0.48082">
        <ele>114.6</ele>
        <time>2024-04-07T10:16:20Z</time>
      </trkpt>
      <trkpt lat="48.97646" lon="-0.48081">
        <ele>114.4</ele>
        <time>2024-04-07T10:16:21Z</time>
      </trkpt>
      <trkpt lat="48.97655" lon="-0.4808">
        <ele>114.4</ele>
        <time>2024-04-07T10:16:22Z</time>
      </trkpt>
      <trkpt lat="48.97663" lon="-0.48079">
        <ele>114.2</ele>
        <time>2024-04-07T10:16:23Z</time>
      </trkpt>
      <trkpt lat="48.97672" lon="-0.48079">
        <ele>114</ele>
        <time>2024-04-07T10:16:24Z</time>
      </trkpt>
      <trkpt lat="48.9768" lon="-0.48079">
        <ele>113.8</ele>
        <time>2024-04-07T10:16:25Z</time>
      </trkpt>
      <trkpt lat="48.97689" lon="-0.4808">
        <ele>113.4</ele>
        <time>2024-04-07T10:16:26Z</time>
      </trkpt>
      <trkpt lat="48.97698" lon="-0.4808">
        <ele>113.2</ele>
        <time>2024-04-07T10:16:27Z</time>
      </trkpt>
      <trkpt lat="48.97706" lon="-0.48082">
        <ele>113</ele>
        <time>2024-04-07T10:16:28Z</time>
      </trkpt>
      <trkpt lat="48.97715" lon="-0.48085">
        <ele>113</ele>
        <time>2024-04-07T10:16:29Z</time>
      </trkpt>
      <trkpt lat="48.97723" lon="-0.48087">
        <ele>113</ele>
        <time>2024-04-07T10:16:30Z</time>
      </trkpt>
      <trkpt lat="48.97731" lon="-0.4809">
        <ele>113</ele>
        <time>2024-04-07T10:16:31Z</time>
      </trkpt>
      <trkpt lat="48.9774" lon="-0.48092">
        <ele>113.2</ele>
        <time>2024-04-07T10:16:32Z</time>
      </trkpt>
      <trkpt lat="48.97748" lon="-0.48093">
        <ele>113.2</ele>
        <time>2024-04-07T10:16:33Z</time>
      </trkpt>
      <trkpt lat="48.97757" lon="-0.48095">
        <ele>113.2</ele>
        <time>2024-04-07T10:16:34Z</time>
      </trkpt>
      <trkpt lat="48.97766" lon="-0.48097">
        <ele>113.2</ele>
        <time>2024-04-07T10:16:35Z</time>
      </trkpt>
      <trkpt lat="48.97775" lon="-0.48099">
        <ele>113</ele>
        <time>2024-04-07T10:16:36Z</time>
      </trkpt>
      <trkpt lat="48.97784" lon="-0.48101">
        <ele>112.8</ele>
        <time>2024-04-07T10:16:37Z</time>
      </trkpt>
      <trkpt lat="48.97792" lon="-0.48103">
        <ele>112.6</ele>
        <time>2024-04-07T10:16:38Z</time>
      </trkpt>
      <trkpt lat="48.978" lon="-0.48105">
        <ele>112.8</ele>
        <time>2024-04-07T10:16:39Z</time>
      </trkpt>
      <trkpt lat="48.97809" lon="-0.48107">
        <ele>112.8</ele>
        <time>2024-04-07T10:16:40Z</time>
      </trkpt>
      <trkpt lat="48.97818" lon="-0.48109">
        <ele>112.8</ele>
        <time>2024-04-07T10:16:41Z</time>
      </trkpt>
      <trkpt lat="48.97827" lon="-0.4811">
        <ele>113</ele>
        <time>2024-04-07T10:16:42Z</time>
      </trkpt>
      <trkpt lat="48.97836" lon="-0.48112">
        <ele>113.2</ele>
        <time>2024-04-07T10:16:43Z</time>
      </trkpt>
      <trkpt lat="48.97845" lon="-0.48114">
        <ele>113.4</ele>
        <time>2024-04-07T10:16:44Z</time>
      </trkpt>
      <trkpt lat="48.97855" lon="-0.48116">
        <ele>113.4</ele>
        <time>2024-04-07T10:16:45Z</time>
      </trkpt>
      <trkpt lat="48.97863" lon="-0.48118">
        <ele>113.4</ele>
        <time>2024-04-07T10:16:46Z</time>
      </trkpt>
      <trkpt lat="48.97872" lon="-0.48119">
        <ele>113.2</ele>
        <time>2024-04-07T10:16:47Z</time>
      </trkpt>
      <trkpt lat="48.9788" lon="-0.48121">
        <ele>113</ele>
        <time>2024-04-07T10:16:48Z</time>
      </trkpt>
      <trkpt lat="48.97889" lon="-0.48123">
        <ele>112.6</ele>
        <time>2024-04-07T10:16:49Z</time>
      </trkpt>
      <trkpt lat="48.97898" lon="-0.48125">
        <ele>112.4</ele>
        <time>2024-04-07T10:16:50Z</time>
      </trkpt>
      <trkpt lat="48.97907" lon="-0.48127">
        <ele>112.2</ele>
        <time>2024-04-07T10:16:51Z</time>
      </trkpt>
      <trkpt lat="48.97916" lon="-0.48128">
        <ele>112.2</ele>
        <time>2024-04-07T10:16:52Z</time>
      </trkpt>
      <trkpt lat="48.97925" lon="-0.4813">
        <ele>112.2</ele>
        <time>2024-04-07T10:16:53Z</time>
      </trkpt>
      <trkpt lat="48.97933" lon="-0.48132">
        <ele>112.4</ele>
        <time>2024-04-07T10:16:54Z</time>
      </trkpt>
      <trkpt lat="48.97942" lon="-0.48134">
        <ele>112.4</ele>
        <time>2024-04-07T10:16:55Z</time>
      </trkpt>
      <trkpt lat="48.97951" lon="-0.48137">
        <ele>112.6</ele>
        <time>2024-04-07T10:16:56Z</time>
      </trkpt>
      <trkpt lat="48.97959" lon="-0.4814">
        <ele>112.4</ele>
        <time>2024-04-07T10:16:57Z</time>
      </trkpt>
      <trkpt lat="48.97968" lon="-0.48142">
        <ele>112.2</ele>
        <time>2024-04-07T10:16:58Z</time>
      </trkpt>
      <trkpt lat="48.97977" lon="-0.48144">
        <ele>112.2</ele>
        <time>2024-04-07T10:16:59Z</time>
      </trkpt>
      <trkpt lat="48.97985" lon="-0.48146">
        <ele>112</ele>
        <time>2024-04-07T10:17:00Z</time>
      </trkpt>
      <trkpt lat="48.97994" lon="-0.48148">
        <ele>112</ele>
        <time>2024-04-07T10:17:01Z</time>
      </trkpt>
      <trkpt lat="48.98003" lon="-0.4815">
        <ele>112.2</ele>
        <time>2024-04-07T10:17:02Z</time>
      </trkpt>
      <trkpt lat="48.98012" lon="-0.48152">
        <ele>112.2</ele>
        <time>2024-04-07T10:17:03Z</time>
      </trkpt>
      <trkpt lat="48.98021" lon="-0.48154">
        <ele>112.2</ele>
        <time>2024-04-07T10:17:04Z</time>
      </trkpt>
      <trkpt lat="48.98029" lon="-0.48155">
        <ele>112.2</ele>
        <time>2024-04-07T10:17:05Z</time>
      </trkpt>
      <trkpt lat="48.98038" lon="-0.48157">
        <ele>112.2</ele>
        <time>2024-04-07T10:17:06Z</time>
      </trkpt>
      <trkpt lat="48.98047" lon="-0.48159">
        <ele>112.2</ele>
        <time>2024-04-07T10:17:07Z</time>
      </trkpt>
      <trkpt lat="48.98055" lon="-0.48161">
        <ele>112</ele>
        <time>2024-04-07T10:17:08Z</time>
      </trkpt>
      <trkpt lat="48.98064" lon="-0.48163">
        <ele>111.8</ele>
        <time>2024-04-07T10:17:09Z</time>
      </trkpt>
      <trkpt lat="48.98073" lon="-0.48164">
        <ele>111.8</ele>
        <time>2024-04-07T10:17:10Z</time>
      </trkpt>
      <trkpt lat="48.98082" lon="-0.48165">
        <ele>111.8</ele>
        <time>2024-04-07T10:17:11Z</time>
      </trkpt>
      <trkpt lat="48.9809" lon="-0.48166">
        <ele>111.8</ele>
        <time>2024-04-07T10:17:12Z</time>
      </trkpt>
      <trkpt lat="48.98099" lon="-0.48167">
        <ele>111.8</ele>
        <time>2024-04-07T10:17:13Z</time>
      </trkpt>
      <trkpt lat="48.98108" lon="-0.4817">
        <ele>111.6</ele>
        <time>2024-04-07T10:17:14Z</time>
      </trkpt>
      <trkpt lat="48.98117" lon="-0.48172">
        <ele>111.8</ele>
        <time>2024-04-07T10:17:15Z</time>
      </trkpt>
      <trkpt lat="48.98126" lon="-0.48175">
        <ele>111.8</ele>
        <time>2024-04-07T10:17:16Z</time>
      </trkpt>
      <trkpt lat="48.98134" lon="-0.48177">
        <ele>111.8</ele>
        <time>2024-04-07T10:17:17Z</time>
      </trkpt>
      <trkpt lat="48.98143" lon="-0.48179">
        <ele>111.8</ele>
        <time>2024-04-07T10:17:18Z</time>
      </trkpt>
      <trkpt lat="48.98153" lon="-0.48181">
        <ele>111.8</ele>
        <time>2024-04-07T10:17:19Z</time>
      </trkpt>
      <trkpt lat="48.98162" lon="-0.48183">
        <ele>111.8</ele>
        <time>2024-04-07T10:17:20Z</time>
      </trkpt>
      <trkpt lat="48.98171" lon="-0.48185">
        <ele>111.6</ele>
        <time>2024-04-07T10:17:21Z</time>
      </trkpt>
      <trkpt lat="48.9818" lon="-0.48187">
        <ele>111.4</ele>
        <time>2024-04-07T10:17:22Z</time>
      </trkpt>
      <trkpt lat="48.98188" lon="-0.48189">
        <ele>111.4</ele>
        <time>2024-04-07T10:17:23Z</time>
      </trkpt>
      <trkpt lat="48.98198" lon="-0.48191">
        <ele>111.4</ele>
        <time>2024-04-07T10:17:24Z</time>
      </trkpt>
      <trkpt lat="48.98206" lon="-0.48193">
        <ele>111.4</ele>
        <time>2024-04-07T10:17:25Z</time>
      </trkpt>
      <trkpt lat="48.98215" lon="-0.48194">
        <ele>111.4</ele>
        <time>2024-04-07T10:17:26Z</time>
      </trkpt>
      <trkpt lat="48.98224" lon="-0.48196">
        <ele>111.4</ele>
        <time>2024-04-07T10:17:27Z</time>
      </trkpt>
      <trkpt lat="48.98233" lon="-0.48199">
        <ele>111.4</ele>
        <time>2024-04-07T10:17:28Z</time>
      </trkpt>
      <trkpt lat="48.98241" lon="-0.48201">
        <ele>111.4</ele>
        <time>2024-04-07T10:17:29Z</time>
      </trkpt>
      <trkpt lat="48.9825" lon="-0.48203">
        <ele>111.4</ele>
        <time>2024-04-07T10:17:30Z</time>
      </trkpt>
      <trkpt lat="48.98259" lon="-0.48205">
        <ele>111.2</ele>
        <time>2024-04-07T10:17:31Z</time>
      </trkpt>
      <trkpt lat="48.98267" lon="-0.48207">
        <ele>111.4</ele>
        <time>2024-04-07T10:17:32Z</time>
      </trkpt>
      <trkpt lat="48.98274" lon="-0.48208">
        <ele>111.4</ele>
        <time>2024-04-07T10:17:33Z</time>
      </trkpt>
      <trkpt lat="48.98282" lon="-0.48209">
        <ele>111.6</ele>
        <time>2024-04-07T10:17:34Z</time>
      </trkpt>
      <trkpt lat="48.98289" lon="-0.48209">
        <ele>111.6</ele>
        <time>2024-04-07T10:17:35Z</time>
      </trkpt>
      <trkpt lat="48.98297" lon="-0.48211">
        <ele>111.6</ele>
        <time>2024-04-07T10:17:36Z</time>
      </trkpt>
      <trkpt lat="48.98306" lon="-0.48212">
        <ele>111.6</ele>
        <time>2024-04-07T10:17:37Z</time>
      </trkpt>
      <trkpt lat="48.98315" lon="-0.48214">
        <ele>111.6</ele>
        <time>2024-04-07T10:17:38Z</time>
      </trkpt>
      <trkpt lat="48.98325" lon="-0.48216">
        <ele>111.4</ele>
        <time>2024-04-07T10:17:39Z</time>
      </trkpt>
      <trkpt lat="48.98334" lon="-0.48217">
        <ele>111</ele>
        <time>2024-04-07T10:17:40Z</time>
      </trkpt>
      <trkpt lat="48.98343" lon="-0.48219">
        <ele>110.6</ele>
        <time>2024-04-07T10:17:41Z</time>
      </trkpt>
      <trkpt lat="48.98352" lon="-0.48222">
        <ele>110.2</ele>
        <time>2024-04-07T10:17:42Z</time>
      </trkpt>
      <trkpt lat="48.98361" lon="-0.48223">
        <ele>110</ele>
        <time>2024-04-07T10:17:43Z</time>
      </trkpt>
      <trkpt lat="48.9837" lon="-0.48225">
        <ele>109.8</ele>
        <time>2024-04-07T10:17:44Z</time>
      </trkpt>
      <trkpt lat="48.98379" lon="-0.48227">
        <ele>109.8</ele>
        <time>2024-04-07T10:17:45Z</time>
      </trkpt>
      <trkpt lat="48.98387" lon="-0.48228">
        <ele>109.8</ele>
        <time>2024-04-07T10:17:46Z</time>
      </trkpt>
      <trkpt lat="48.98396" lon="-0.48229">
        <ele>109.8</ele>
        <time>2024-04-07T10:17:47Z</time>
      </trkpt>
      <trkpt lat="48.98404" lon="-0.48231">
        <ele>110</ele>
        <time>2024-04-07T10:17:48Z</time>
      </trkpt>
      <trkpt lat="48.98412" lon="-0.48233">
        <ele>110.2</ele>
        <time>2024-04-07T10:17:49Z</time>
      </trkpt>
      <trkpt lat="48.9842" lon="-0.48234">
        <ele>110.2</ele>
        <time>2024-04-07T10:17:50Z</time>
      </trkpt>
      <trkpt lat="48.98428" lon="-0.48236">
        <ele>110.4</ele>
        <time>2024-04-07T10:17:51Z</time>
      </trkpt>
      <trkpt lat="48.98436" lon="-0.48237">
        <ele>110.6</ele>
        <time>2024-04-07T10:17:52Z</time>
      </trkpt>
      <trkpt lat="48.98444" lon="-0.48239">
        <ele>111</ele>
        <time>2024-04-07T10:17:53Z</time>
      </trkpt>
      <trkpt lat="48.98452" lon="-0.4824">
        <ele>111.4</ele>
        <time>2024-04-07T10:17:54Z</time>
      </trkpt>
      <trkpt lat="48.9846" lon="-0.48241">
        <ele>111.8</ele>
        <time>2024-04-07T10:17:55Z</time>
      </trkpt>
      <trkpt lat="48.98468" lon="-0.48243">
        <ele>111.8</ele>
        <time>2024-04-07T10:17:56Z</time>
      </trkpt>
      <trkpt lat="48.98476" lon="-0.48243">
        <ele>111.8</ele>
        <time>2024-04-07T10:17:57Z</time>
      </trkpt>
      <trkpt lat="48.98484" lon="-0.48244">
        <ele>111.8</ele>
        <time>2024-04-07T10:17:58Z</time>
      </trkpt>
      <trkpt lat="48.98492" lon="-0.48245">
        <ele>111.8</ele>
        <time>2024-04-07T10:17:59Z</time>
      </trkpt>
      <trkpt lat="48.985" lon="-0.48245">
        <ele>111.8</ele>
        <time>2024-04-07T10:18:00Z</time>
      </trkpt>
      <trkpt lat="48.98508" lon="-0.48246">
        <ele>111.8</ele>
        <time>2024-04-07T10:18:01Z</time>
      </trkpt>
      <trkpt lat="48.98516" lon="-0.48246">
        <ele>111.8</ele>
        <time>2024-04-07T10:18:02Z</time>
      </trkpt>
      <trkpt lat="48.98525" lon="-0.48246">
        <ele>111.8</ele>
        <time>2024-04-07T10:18:03Z</time>
      </trkpt>
      <trkpt lat="48.98533" lon="-0.48246">
        <ele>111.8</ele>
        <time>2024-04-07T10:18:04Z</time>
      </trkpt>
      <trkpt lat="48.98541" lon="-0.48246">
        <ele>111.6</ele>
        <time>2024-04-07T10:18:05Z</time>
      </trkpt>
      <trkpt lat="48.98549" lon="-0.48246">
        <ele>111.4</ele>
        <time>2024-04-07T10:18:06Z</time>
      </trkpt>
      <trkpt lat="48.98557" lon="-0.48246">
        <ele>111.2</ele>
        <time>2024-04-07T10:18:07Z</time>
      </trkpt>
      <trkpt lat="48.98566" lon="-0.48246">
        <ele>111.2</ele>
        <time>2024-04-07T10:18:08Z</time>
      </trkpt>
      <trkpt lat="48.98574" lon="-0.48245">
        <ele>111.2</ele>
        <time>2024-04-07T10:18:09Z</time>
      </trkpt>
      <trkpt lat="48.98583" lon="-0.48245">
        <ele>111.2</ele>
        <time>2024-04-07T10:18:10Z</time>
      </trkpt>
      <trkpt lat="48.98591" lon="-0.48244">
        <ele>111.4</ele>
        <time>2024-04-07T10:18:11Z</time>
      </trkpt>
      <trkpt lat="48.98599" lon="-0.48243">
        <ele>111.4</ele>
        <time>2024-04-07T10:18:12Z</time>
      </trkpt>
      <trkpt lat="48.98608" lon="-0.48243">
        <ele>111.4</ele>
        <time>2024-04-07T10:18:13Z</time>
      </trkpt>
      <trkpt lat="48.98616" lon="-0.48242">
        <ele>111.4</ele>
        <time>2024-04-07T10:18:14Z</time>
      </trkpt>
      <trkpt lat="48.98624" lon="-0.48241">
        <ele>111.2</ele>
        <time>2024-04-07T10:18:15Z</time>
      </trkpt>
      <trkpt lat="48.98632" lon="-0.4824">
        <ele>111.2</ele>
        <time>2024-04-07T10:18:16Z</time>
      </trkpt>
      <trkpt lat="48.9864" lon="-0.48239">
        <ele>111.2</ele>
        <time>2024-04-07T10:18:17Z</time>
      </trkpt>
      <trkpt lat="48.98649" lon="-0.48238">
        <ele>111.2</ele>
        <time>2024-04-07T10:18:18Z</time>
      </trkpt>
      <trkpt lat="48.98656" lon="-0.48236">
        <ele>111.2</ele>
        <time>2024-04-07T10:18:19Z</time>
      </trkpt>
      <trkpt lat="48.98664" lon="-0.48234">
        <ele>111.4</ele>
        <time>2024-04-07T10:18:20Z</time>
      </trkpt>
      <trkpt lat="48.98671" lon="-0.48232">
        <ele>111.6</ele>
        <time>2024-04-07T10:18:21Z</time>
      </trkpt>
      <trkpt lat="48.98679" lon="-0.4823">
        <ele>111.6</ele>
        <time>2024-04-07T10:18:22Z</time>
      </trkpt>
      <trkpt lat="48.98686" lon="-0.48228">
        <ele>111.8</ele>
        <time>2024-04-07T10:18:23Z</time>
      </trkpt>
      <trkpt lat="48.98693" lon="-0.48226">
        <ele>112</ele>
        <time>2024-04-07T10:18:24Z</time>
      </trkpt>
      <trkpt lat="48.987" lon="-0.48224">
        <ele>112</ele>
        <time>2024-04-07T10:18:25Z</time>
      </trkpt>
      <trkpt lat="48.98708" lon="-0.48221">
        <ele>111.8</ele>
        <time>2024-04-07T10:18:26Z</time>
      </trkpt>
      <trkpt lat="48.98716" lon="-0.48219">
        <ele>111.8</ele>
        <time>2024-04-07T10:18:27Z</time>
      </trkpt>
      <trkpt lat="48.98723" lon="-0.48217">
        <ele>111.8</ele>
        <time>2024-04-07T10:18:28Z</time>
      </trkpt>
      <trkpt lat="48.9873" lon="-0.48214">
        <ele>112</ele>
        <time>2024-04-07T10:18:29Z</time>
      </trkpt>
      <trkpt lat="48.98736" lon="-0.48211">
        <ele>112</ele>
        <time>2024-04-07T10:18:30Z</time>
      </trkpt>
      <trkpt lat="48.98742" lon="-0.48208">
        <ele>112</ele>
        <time>2024-04-07T10:18:31Z</time>
      </trkpt>
      <trkpt lat="48.98749" lon="-0.48206">
        <ele>112.2</ele>
        <time>2024-04-07T10:18:32Z</time>
      </trkpt>
      <trkpt lat="48.98757" lon="-0.48202">
        <ele>112.2</ele>
        <time>2024-04-07T10:18:33Z</time>
      </trkpt>
      <trkpt lat="48.98764" lon="-0.48199">
        <ele>112.2</ele>
        <time>2024-04-07T10:18:34Z</time>
      </trkpt>
      <trkpt lat="48.98772" lon="-0.48196">
        <ele>112.2</ele>
        <time>2024-04-07T10:18:35Z</time>
      </trkpt>
      <trkpt lat="48.9878" lon="-0.48193">
        <ele>112.2</ele>
        <time>2024-04-07T10:18:36Z</time>
      </trkpt>
      <trkpt lat="48.98787" lon="-0.48191">
        <ele>112</ele>
        <time>2024-04-07T10:18:37Z</time>
      </trkpt>
      <trkpt lat="48.98794" lon="-0.48188">
        <ele>112</ele>
        <time>2024-04-07T10:18:38Z</time>
      </trkpt>
      <trkpt lat="48.98799" lon="-0.48186">
        <ele>112</ele>
        <time>2024-04-07T10:18:39Z</time>
      </trkpt>
      <trkpt lat="48.98805" lon="-0.48183">
        <ele>112</ele>
        <time>2024-04-07T10:18:40Z</time>
      </trkpt>
      <trkpt lat="48.98811" lon="-0.4818">
        <ele>112</ele>
        <time>2024-04-07T10:18:41Z</time>
      </trkpt>
      <trkpt lat="48.98818" lon="-0.48177">
        <ele>112.2</ele>
        <time>2024-04-07T10:18:42Z</time>
      </trkpt>
      <trkpt lat="48.98825" lon="-0.48175">
        <ele>112.2</ele>
        <time>2024-04-07T10:18:43Z</time>
      </trkpt>
      <trkpt lat="48.98832" lon="-0.48172">
        <ele>112.2</ele>
        <time>2024-04-07T10:18:44Z</time>
      </trkpt>
      <trkpt lat="48.98838" lon="-0.4817">
        <ele>112.2</ele>
        <time>2024-04-07T10:18:45Z</time>
      </trkpt>
      <trkpt lat="48.98844" lon="-0.48171">
        <ele>112.2</ele>
        <time>2024-04-07T10:18:46Z</time>
      </trkpt>
      <trkpt lat="48.98851" lon="-0.48171">
        <ele>112.4</ele>
        <time>2024-04-07T10:18:47Z</time>
      </trkpt>
      <trkpt lat="48.98854" lon="-0.4817">
        <ele>112.4</ele>
        <time>2024-04-07T10:18:48Z</time>
      </trkpt>
      <trkpt lat="48.98858" lon="-0.4817">
        <ele>112.4</ele>
        <time>2024-04-07T10:18:49Z</time>
      </trkpt>
      <trkpt lat="48.98862" lon="-0.48169">
        <ele>112.4</ele>
        <time>2024-04-07T10:18:50Z</time>
      </trkpt>
      <trkpt lat="48.98866" lon="-0.48168">
        <ele>112.6</ele>
        <time>2024-04-07T10:18:51Z</time>
      </trkpt>
      <trkpt lat="48.9887" lon="-0.48166">
        <ele>112.8</ele>
        <time>2024-04-07T10:18:52Z</time>
      </trkpt>
      <trkpt lat="48.98874" lon="-0.48164">
        <ele>113</ele>
        <time>2024-04-07T10:18:53Z</time>
      </trkpt>
      <trkpt lat="48.98878" lon="-0.48163">
        <ele>113.2</ele>
        <time>2024-04-07T10:18:54Z</time>
      </trkpt>
      <trkpt lat="48.98883" lon="-0.48164">
        <ele>113.2</ele>
        <time>2024-04-07T10:18:55Z</time>
      </trkpt>
      <trkpt lat="48.98887" lon="-0.48163">
        <ele>113.4</ele>
        <time>2024-04-07T10:18:56Z</time>
      </trkpt>
      <trkpt lat="48.98892" lon="-0.48163">
        <ele>113.4</ele>
        <time>2024-04-07T10:18:57Z</time>
      </trkpt>
      <trkpt lat="48.98896" lon="-0.48163">
        <ele>113.4</ele>
        <time>2024-04-07T10:18:58Z</time>
      </trkpt>
      <trkpt lat="48.98901" lon="-0.48161">
        <ele>113.4</ele>
        <time>2024-04-07T10:18:59Z</time>
      </trkpt>
      <trkpt lat="48.98905" lon="-0.4816">
        <ele>113.4</ele>
        <time>2024-04-07T10:19:00Z</time>
      </trkpt>
      <trkpt lat="48.98909" lon="-0.4816">
        <ele>113.4</ele>
        <time>2024-04-07T10:19:01Z</time>
      </trkpt>
      <trkpt lat="48.98913" lon="-0.4816">
        <ele>113.4</ele>
        <time>2024-04-07T10:19:02Z</time>
      </trkpt>
      <trkpt lat="48.98915" lon="-0.48159">
        <ele>113.4</ele>
        <time>2024-04-07T10:19:03Z</time>
      </trkpt>
      <trkpt lat="48.98917" lon="-0.48158">
        <ele>113.4</ele>
        <time>2024-04-07T10:19:04Z</time>
      </trkpt>
      <trkpt lat="48.98919" lon="-0.48158">
        <ele>113.4</ele>
        <time>2024-04-07T10:19:05Z</time>
      </trkpt>
      <trkpt lat="48.98921" lon="-0.48158">
        <ele>113.4</ele>
        <time>2024-04-07T10:19:06Z</time>
      </trkpt>
      <trkpt lat="48.98921" lon="-0.48159">
        <ele>113.4</ele>
        <time>2024-04-07T10:19:07Z</time>
      </trkpt>
      <trkpt lat="48.98922" lon="-0.48159">
        <ele>113.4</ele>
        <time>2024-04-07T10:19:08Z</time>
      </trkpt>
      <trkpt lat="48.98922" lon="-0.48159">
        <ele>113.4</ele>
        <time>2024-04-07T10:19:09Z</time>
      </trkpt>
      <trkpt lat="48.98925" lon="-0.48161">
        <ele>113.6</ele>
        <time>2024-04-07T10:19:17Z</time>
      </trkpt>
      <trkpt lat="48.98926" lon="-0.48164">
        <ele>113.6</ele>
        <time>2024-04-07T10:19:18Z</time>
      </trkpt>
      <trkpt lat="48.98927" lon="-0.48168">
        <ele>113.4</ele>
        <time>2024-04-07T10:19:19Z</time>
      </trkpt>
      <trkpt lat="48.98929" lon="-0.48172">
        <ele>113.2</ele>
        <time>2024-04-07T10:19:20Z</time>
      </trkpt>
      <trkpt lat="48.9893" lon="-0.48177">
        <ele>113</ele>
        <time>2024-04-07T10:19:21Z</time>
      </trkpt>
      <trkpt lat="48.98932" lon="-0.48182">
        <ele>112.6</ele>
        <time>2024-04-07T10:19:22Z</time>
      </trkpt>
      <trkpt lat="48.98934" lon="-0.48187">
        <ele>112.4</ele>
        <time>2024-04-07T10:19:23Z</time>
      </trkpt>
      <trkpt lat="48.98937" lon="-0.48192">
        <ele>112.2</ele>
        <time>2024-04-07T10:19:24Z</time>
      </trkpt>
      <trkpt lat="48.9894" lon="-0.48199">
        <ele>112.2</ele>
        <time>2024-04-07T10:19:25Z</time>
      </trkpt>
      <trkpt lat="48.98943" lon="-0.48205">
        <ele>112</ele>
        <time>2024-04-07T10:19:26Z</time>
      </trkpt>
      <trkpt lat="48.98946" lon="-0.48212">
        <ele>112</ele>
        <time>2024-04-07T10:19:27Z</time>
      </trkpt>
      <trkpt lat="48.98948" lon="-0.48219">
        <ele>112</ele>
        <time>2024-04-07T10:19:28Z</time>
      </trkpt>
      <trkpt lat="48.98951" lon="-0.48226">
        <ele>112</ele>
        <time>2024-04-07T10:19:29Z</time>
      </trkpt>
      <trkpt lat="48.98954" lon="-0.48233">
        <ele>112.2</ele>
        <time>2024-04-07T10:19:30Z</time>
      </trkpt>
      <trkpt lat="48.98958" lon="-0.48239">
        <ele>112.4</ele>
        <time>2024-04-07T10:19:31Z</time>
      </trkpt>
      <trkpt lat="48.98961" lon="-0.48246">
        <ele>112.6</ele>
        <time>2024-04-07T10:19:32Z</time>
      </trkpt>
      <trkpt lat="48.98964" lon="-0.48253">
        <ele>112.8</ele>
        <time>2024-04-07T10:19:33Z</time>
      </trkpt>
      <trkpt lat="48.98967" lon="-0.48261">
        <ele>112.8</ele>
        <time>2024-04-07T10:19:34Z</time>
      </trkpt>
      <trkpt lat="48.98971" lon="-0.48268">
        <ele>113</ele>
        <time>2024-04-07T10:19:35Z</time>
      </trkpt>
      <trkpt lat="48.98974" lon="-0.48276">
        <ele>113</ele>
        <time>2024-04-07T10:19:36Z</time>
      </trkpt>
      <trkpt lat="48.98978" lon="-0.48284">
        <ele>112.8</ele>
        <time>2024-04-07T10:19:37Z</time>
      </trkpt>
      <trkpt lat="48.98982" lon="-0.48292">
        <ele>112.8</ele>
        <time>2024-04-07T10:19:38Z</time>
      </trkpt>
      <trkpt lat="48.98986" lon="-0.483">
        <ele>112.8</ele>
        <time>2024-04-07T10:19:39Z</time>
      </trkpt>
      <trkpt lat="48.98991" lon="-0.48309">
        <ele>112.6</ele>
        <time>2024-04-07T10:19:40Z</time>
      </trkpt>
      <trkpt lat="48.98996" lon="-0.48316">
        <ele>112.4</ele>
        <time>2024-04-07T10:19:41Z</time>
      </trkpt>
      <trkpt lat="48.99002" lon="-0.48323">
        <ele>112.4</ele>
        <time>2024-04-07T10:19:42Z</time>
      </trkpt>
      <trkpt lat="48.99008" lon="-0.48328">
        <ele>112.4</ele>
        <time>2024-04-07T10:19:43Z</time>
      </trkpt>
      <trkpt lat="48.99016" lon="-0.48333">
        <ele>112.2</ele>
        <time>2024-04-07T10:19:44Z</time>
      </trkpt>
      <trkpt lat="48.99023" lon="-0.48337">
        <ele>112</ele>
        <time>2024-04-07T10:19:45Z</time>
      </trkpt>
      <trkpt lat="48.99031" lon="-0.48339">
        <ele>112</ele>
        <time>2024-04-07T10:19:46Z</time>
      </trkpt>
      <trkpt lat="48.99039" lon="-0.4834">
        <ele>111.8</ele>
        <time>2024-04-07T10:19:47Z</time>
      </trkpt>
      <trkpt lat="48.99046" lon="-0.4834">
        <ele>111.6</ele>
        <time>2024-04-07T10:19:48Z</time>
      </trkpt>
      <trkpt lat="48.99053" lon="-0.4834">
        <ele>111.4</ele>
        <time>2024-04-07T10:19:49Z</time>
      </trkpt>
      <trkpt lat="48.99061" lon="-0.4834">
        <ele>111.4</ele>
        <time>2024-04-07T10:19:50Z</time>
      </trkpt>
      <trkpt lat="48.99068" lon="-0.48341">
        <ele>111.2</ele>
        <time>2024-04-07T10:19:51Z</time>
      </trkpt>
      <trkpt lat="48.99075" lon="-0.48342">
        <ele>111.2</ele>
        <time>2024-04-07T10:19:52Z</time>
      </trkpt>
      <trkpt lat="48.99081" lon="-0.48344">
        <ele>111.2</ele>
        <time>2024-04-07T10:19:53Z</time>
      </trkpt>
      <trkpt lat="48.99088" lon="-0.48346">
        <ele>111.4</ele>
        <time>2024-04-07T10:19:54Z</time>
      </trkpt>
      <trkpt lat="48.99094" lon="-0.48349">
        <ele>111.4</ele>
        <time>2024-04-07T10:19:55Z</time>
      </trkpt>
      <trkpt lat="48.991" lon="-0.48352">
        <ele>111.6</ele>
        <time>2024-04-07T10:19:56Z</time>
      </trkpt>
      <trkpt lat="48.99106" lon="-0.48356">
        <ele>111.8</ele>
        <time>2024-04-07T10:19:57Z</time>
      </trkpt>
      <trkpt lat="48.99112" lon="-0.4836">
        <ele>112</ele>
        <time>2024-04-07T10:19:58Z</time>
      </trkpt>
      <trkpt lat="48.99118" lon="-0.48364">
        <ele>112</ele>
        <time>2024-04-07T10:19:59Z</time>
      </trkpt>
      <trkpt lat="48.99123" lon="-0.48369">
        <ele>112.2</ele>
        <time>2024-04-07T10:20:00Z</time>
      </trkpt>
      <trkpt lat="48.99129" lon="-0.48374">
        <ele>112.6</ele>
        <time>2024-04-07T10:20:01Z</time>
      </trkpt>
      <trkpt lat="48.99134" lon="-0.48379">
        <ele>113.2</ele>
        <time>2024-04-07T10:20:02Z</time>
      </trkpt>
      <trkpt lat="48.99138" lon="-0.48385">
        <ele>113.6</ele>
        <time>2024-04-07T10:20:03Z</time>
      </trkpt>
      <trkpt lat="48.99143" lon="-0.48391">
        <ele>113.8</ele>
        <time>2024-04-07T10:20:04Z</time>
      </trkpt>
      <trkpt lat="48.99148" lon="-0.48397">
        <ele>114</ele>
        <time>2024-04-07T10:20:05Z</time>
      </trkpt>
      <trkpt lat="48.99151" lon="-0.48404">
        <ele>114.2</ele>
        <time>2024-04-07T10:20:06Z</time>
      </trkpt>
      <trkpt lat="48.99155" lon="-0.48411">
        <ele>114.2</ele>
        <time>2024-04-07T10:20:07Z</time>
      </trkpt>
      <trkpt lat="48.99158" lon="-0.48419">
        <ele>114</ele>
        <time>2024-04-07T10:20:08Z</time>
      </trkpt>
      <trkpt lat="48.9916" lon="-0.48427">
        <ele>114</ele>
        <time>2024-04-07T10:20:09Z</time>
      </trkpt>
      <trkpt lat="48.99163" lon="-0.48436">
        <ele>114</ele>
        <time>2024-04-07T10:20:10Z</time>
      </trkpt>
      <trkpt lat="48.99164" lon="-0.48445">
        <ele>114</ele>
        <time>2024-04-07T10:20:11Z</time>
      </trkpt>
      <trkpt lat="48.99165" lon="-0.48455">
        <ele>114.2</ele>
        <time>2024-04-07T10:20:12Z</time>
      </trkpt>
      <trkpt lat="48.99166" lon="-0.48464">
        <ele>114.2</ele>
        <time>2024-04-07T10:20:13Z</time>
      </trkpt>
      <trkpt lat="48.99165" lon="-0.48474">
        <ele>114.4</ele>
        <time>2024-04-07T10:20:14Z</time>
      </trkpt>
      <trkpt lat="48.99165" lon="-0.48483">
        <ele>114.6</ele>
        <time>2024-04-07T10:20:15Z</time>
      </trkpt>
      <trkpt lat="48.99163" lon="-0.48492">
        <ele>114.6</ele>
        <time>2024-04-07T10:20:16Z</time>
      </trkpt>
      <trkpt lat="48.9916" lon="-0.48501">
        <ele>114.8</ele>
        <time>2024-04-07T10:20:17Z</time>
      </trkpt>
      <trkpt lat="48.99158" lon="-0.48509">
        <ele>115.2</ele>
        <time>2024-04-07T10:20:18Z</time>
      </trkpt>
      <trkpt lat="48.99155" lon="-0.48518">
        <ele>115.4</ele>
        <time>2024-04-07T10:20:19Z</time>
      </trkpt>
      <trkpt lat="48.99152" lon="-0.48526">
        <ele>115.6</ele>
        <time>2024-04-07T10:20:20Z</time>
      </trkpt>
      <trkpt lat="48.99149" lon="-0.48535">
        <ele>115.8</ele>
        <time>2024-04-07T10:20:21Z</time>
      </trkpt>
      <trkpt lat="48.99146" lon="-0.48543">
        <ele>116</ele>
        <time>2024-04-07T10:20:22Z</time>
      </trkpt>
      <trkpt lat="48.99143" lon="-0.48551">
        <ele>116</ele>
        <time>2024-04-07T10:20:23Z</time>
      </trkpt>
      <trkpt lat="48.99139" lon="-0.4856">
        <ele>116.2</ele>
        <time>2024-04-07T10:20:24Z</time>
      </trkpt>
      <trkpt lat="48.99136" lon="-0.48568">
        <ele>116.2</ele>
        <time>2024-04-07T10:20:25Z</time>
      </trkpt>
      <trkpt lat="48.99133" lon="-0.48576">
        <ele>116.2</ele>
        <time>2024-04-07T10:20:26Z</time>
      </trkpt>
      <trkpt lat="48.9913" lon="-0.48585">
        <ele>116</ele>
        <time>2024-04-07T10:20:27Z</time>
      </trkpt>
      <trkpt lat="48.99127" lon="-0.48593">
        <ele>116</ele>
        <time>2024-04-07T10:20:28Z</time>
      </trkpt>
      <trkpt lat="48.99124" lon="-0.48601">
        <ele>116</ele>
        <time>2024-04-07T10:20:29Z</time>
      </trkpt>
      <trkpt lat="48.99121" lon="-0.48609">
        <ele>116</ele>
        <time>2024-04-07T10:20:30Z</time>
      </trkpt>
      <trkpt lat="48.99118" lon="-0.48618">
        <ele>115.8</ele>
        <time>2024-04-07T10:20:31Z</time>
      </trkpt>
      <trkpt lat="48.99115" lon="-0.48626">
        <ele>115.8</ele>
        <time>2024-04-07T10:20:32Z</time>
      </trkpt>
      <trkpt lat="48.99112" lon="-0.48634">
        <ele>116</ele>
        <time>2024-04-07T10:20:33Z</time>
      </trkpt>
      <trkpt lat="48.99109" lon="-0.48642">
        <ele>116</ele>
        <time>2024-04-07T10:20:34Z</time>
      </trkpt>
      <trkpt lat="48.99106" lon="-0.48651">
        <ele>116.2</ele>
        <time>2024-04-07T10:20:35Z</time>
      </trkpt>
      <trkpt lat="48.99103" lon="-0.48659">
        <ele>116.2</ele>
        <time>2024-04-07T10:20:36Z</time>
      </trkpt>
      <trkpt lat="48.991" lon="-0.48667">
        <ele>116.2</ele>
        <time>2024-04-07T10:20:37Z</time>
      </trkpt>
      <trkpt lat="48.99097" lon="-0.48675">
        <ele>116.2</ele>
        <time>2024-04-07T10:20:38Z</time>
      </trkpt>
      <trkpt lat="48.99094" lon="-0.48683">
        <ele>116.2</ele>
        <time>2024-04-07T10:20:39Z</time>
      </trkpt>
      <trkpt lat="48.99092" lon="-0.48691">
        <ele>116</ele>
        <time>2024-04-07T10:20:40Z</time>
      </trkpt>
      <trkpt lat="48.99089" lon="-0.48699">
        <ele>116</ele>
        <time>2024-04-07T10:20:41Z</time>
      </trkpt>
      <trkpt lat="48.99086" lon="-0.48707">
        <ele>116</ele>
        <time>2024-04-07T10:20:42Z</time>
      </trkpt>
      <trkpt lat="48.99083" lon="-0.48715">
        <ele>116</ele>
        <time>2024-04-07T10:20:43Z</time>
      </trkpt>
      <trkpt lat="48.9908" lon="-0.48723">
        <ele>116</ele>
        <time>2024-04-07T10:20:44Z</time>
      </trkpt>
      <trkpt lat="48.99077" lon="-0.48731">
        <ele>116</ele>
        <time>2024-04-07T10:20:45Z</time>
      </trkpt>
      <trkpt lat="48.99075" lon="-0.48739">
        <ele>116.4</ele>
        <time>2024-04-07T10:20:46Z</time>
      </trkpt>
      <trkpt lat="48.99072" lon="-0.48747">
        <ele>116.8</ele>
        <time>2024-04-07T10:20:47Z</time>
      </trkpt>
      <trkpt lat="48.99069" lon="-0.48754">
        <ele>117.2</ele>
        <time>2024-04-07T10:20:48Z</time>
      </trkpt>
      <trkpt lat="48.99066" lon="-0.48762">
        <ele>117.8</ele>
        <time>2024-04-07T10:20:49Z</time>
      </trkpt>
      <trkpt lat="48.99063" lon="-0.4877">
        <ele>118.2</ele>
        <time>2024-04-07T10:20:50Z</time>
      </trkpt>
      <trkpt lat="48.99061" lon="-0.48778">
        <ele>118.6</ele>
        <time>2024-04-07T10:20:51Z</time>
      </trkpt>
      <trkpt lat="48.99057" lon="-0.48785">
        <ele>118.8</ele>
        <time>2024-04-07T10:20:52Z</time>
      </trkpt>
      <trkpt lat="48.99054" lon="-0.48793">
        <ele>119</ele>
        <time>2024-04-07T10:20:53Z</time>
      </trkpt>
      <trkpt lat="48.99051" lon="-0.48801">
        <ele>119</ele>
        <time>2024-04-07T10:20:54Z</time>
      </trkpt>
      <trkpt lat="48.99047" lon="-0.48808">
        <ele>119</ele>
        <time>2024-04-07T10:20:55Z</time>
      </trkpt>
      <trkpt lat="48.99044" lon="-0.48816">
        <ele>119</ele>
        <time>2024-04-07T10:20:56Z</time>
      </trkpt>
      <trkpt lat="48.99041" lon="-0.48823">
        <ele>119.2</ele>
        <time>2024-04-07T10:20:57Z</time>
      </trkpt>
      <trkpt lat="48.99037" lon="-0.4883">
        <ele>119.2</ele>
        <time>2024-04-07T10:20:58Z</time>
      </trkpt>
      <trkpt lat="48.99034" lon="-0.48837">
        <ele>119.2</ele>
        <time>2024-04-07T10:20:59Z</time>
      </trkpt>
      <trkpt lat="48.9903" lon="-0.48844">
        <ele>119.2</ele>
        <time>2024-04-07T10:21:00Z</time>
      </trkpt>
      <trkpt lat="48.99026" lon="-0.48851">
        <ele>119.4</ele>
        <time>2024-04-07T10:21:01Z</time>
      </trkpt>
      <trkpt lat="48.99022" lon="-0.48858">
        <ele>119.4</ele>
        <time>2024-04-07T10:21:02Z</time>
      </trkpt>
      <trkpt lat="48.99019" lon="-0.48865">
        <ele>119.8</ele>
        <time>2024-04-07T10:21:03Z</time>
      </trkpt>
      <trkpt lat="48.99014" lon="-0.48872">
        <ele>120.2</ele>
        <time>2024-04-07T10:21:04Z</time>
      </trkpt>
      <trkpt lat="48.9901" lon="-0.48879">
        <ele>120.4</ele>
        <time>2024-04-07T10:21:05Z</time>
      </trkpt>
      <trkpt lat="48.99006" lon="-0.48886">
        <ele>120.8</ele>
        <time>2024-04-07T10:21:06Z</time>
      </trkpt>
      <trkpt lat="48.99002" lon="-0.48893">
        <ele>121</ele>
        <time>2024-04-07T10:21:07Z</time>
      </trkpt>
      <trkpt lat="48.98998" lon="-0.48899">
        <ele>121.2</ele>
        <time>2024-04-07T10:21:08Z</time>
      </trkpt>
      <trkpt lat="48.98994" lon="-0.48905">
        <ele>121.6</ele>
        <time>2024-04-07T10:21:09Z</time>
      </trkpt>
      <trkpt lat="48.98991" lon="-0.48912">
        <ele>121.8</ele>
        <time>2024-04-07T10:21:10Z</time>
      </trkpt>
      <trkpt lat="48.98987" lon="-0.48917">
        <ele>121.8</ele>
        <time>2024-04-07T10:21:11Z</time>
      </trkpt>
      <trkpt lat="48.98983" lon="-0.48923">
        <ele>122</ele>
        <time>2024-04-07T10:21:12Z</time>
      </trkpt>
      <trkpt lat="48.98979" lon="-0.48929">
        <ele>122</ele>
        <time>2024-04-07T10:21:13Z</time>
      </trkpt>
      <trkpt lat="48.98976" lon="-0.48935">
        <ele>122.2</ele>
        <time>2024-04-07T10:21:14Z</time>
      </trkpt>
      <trkpt lat="48.98972" lon="-0.48942">
        <ele>122.2</ele>
        <time>2024-04-07T10:21:15Z</time>
      </trkpt>
      <trkpt lat="48.98968" lon="-0.48948">
        <ele>122.4</ele>
        <time>2024-04-07T10:21:16Z</time>
      </trkpt>
      <trkpt lat="48.98964" lon="-0.48954">
        <ele>122.6</ele>
        <time>2024-04-07T10:21:17Z</time>
      </trkpt>
      <trkpt lat="48.98961" lon="-0.48959">
        <ele>122.6</ele>
        <time>2024-04-07T10:21:18Z</time>
      </trkpt>
      <trkpt lat="48.98958" lon="-0.48963">
        <ele>122.8</ele>
        <time>2024-04-07T10:21:19Z</time>
      </trkpt>
      <trkpt lat="48.98952" lon="-0.48973">
        <ele>122.8</ele>
        <time>2024-04-07T10:21:20Z</time>
      </trkpt>
      <trkpt lat="48.98948" lon="-0.4898">
        <ele>122.8</ele>
        <time>2024-04-07T10:21:21Z</time>
      </trkpt>
      <trkpt lat="48.98945" lon="-0.48985">
        <ele>122.8</ele>
        <time>2024-04-07T10:21:22Z</time>
      </trkpt>
      <trkpt lat="48.98941" lon="-0.48991">
        <ele>122.8</ele>
        <time>2024-04-07T10:21:23Z</time>
      </trkpt>
      <trkpt lat="48.98935" lon="-0.49001">
        <ele>122.6</ele>
        <time>2024-04-07T10:21:24Z</time>
      </trkpt>
      <trkpt lat="48.98931" lon="-0.49009">
        <ele>122.2</ele>
        <time>2024-04-07T10:21:25Z</time>
      </trkpt>
      <trkpt lat="48.98928" lon="-0.49017">
        <ele>122.2</ele>
        <time>2024-04-07T10:21:26Z</time>
      </trkpt>
      <trkpt lat="48.98924" lon="-0.49025">
        <ele>122.2</ele>
        <time>2024-04-07T10:21:27Z</time>
      </trkpt>
      <trkpt lat="48.9892" lon="-0.49033">
        <ele>122</ele>
        <time>2024-04-07T10:21:28Z</time>
      </trkpt>
      <trkpt lat="48.98917" lon="-0.49041">
        <ele>122</ele>
        <time>2024-04-07T10:21:29Z</time>
      </trkpt>
      <trkpt lat="48.98917" lon="-0.49041">
        <ele>122</ele>
        <time>2024-04-07T10:21:30Z</time>
      </trkpt>
      <trkpt lat="48.98911" lon="-0.49058">
        <ele>122</ele>
        <time>2024-04-07T10:21:31Z</time>
      </trkpt>
      <trkpt lat="48.98908" lon="-0.49066">
        <ele>122</ele>
        <time>2024-04-07T10:21:32Z</time>
      </trkpt>
      <trkpt lat="48.98905" lon="-0.49074">
        <ele>122</ele>
        <time>2024-04-07T10:21:33Z</time>
      </trkpt>
      <trkpt lat="48.98902" lon="-0.49082">
        <ele>121.8</ele>
        <time>2024-04-07T10:21:34Z</time>
      </trkpt>
      <trkpt lat="48.98902" lon="-0.49082">
        <ele>121.8</ele>
        <time>2024-04-07T10:21:35Z</time>
      </trkpt>
      <trkpt lat="48.98896" lon="-0.49101">
        <ele>121.6</ele>
        <time>2024-04-07T10:21:36Z</time>
      </trkpt>
      <trkpt lat="48.98893" lon="-0.49111">
        <ele>121.4</ele>
        <time>2024-04-07T10:21:37Z</time>
      </trkpt>
      <trkpt lat="48.98891" lon="-0.49121">
        <ele>121.4</ele>
        <time>2024-04-07T10:21:38Z</time>
      </trkpt>
      <trkpt lat="48.98889" lon="-0.49131">
        <ele>121.2</ele>
        <time>2024-04-07T10:21:39Z</time>
      </trkpt>
      <trkpt lat="48.98887" lon="-0.49138">
        <ele>121.2</ele>
        <time>2024-04-07T10:21:40Z</time>
      </trkpt>
      <trkpt lat="48.98885" lon="-0.49146">
        <ele>121</ele>
        <time>2024-04-07T10:21:41Z</time>
      </trkpt>
      <trkpt lat="48.98882" lon="-0.49161">
        <ele>121</ele>
        <time>2024-04-07T10:21:42Z</time>
      </trkpt>
      <trkpt lat="48.9888" lon="-0.49172">
        <ele>120.8</ele>
        <time>2024-04-07T10:21:43Z</time>
      </trkpt>
      <trkpt lat="48.98879" lon="-0.49182">
        <ele>120.6</ele>
        <time>2024-04-07T10:21:44Z</time>
      </trkpt>
      <trkpt lat="48.98877" lon="-0.49192">
        <ele>120.6</ele>
        <time>2024-04-07T10:21:45Z</time>
      </trkpt>
      <trkpt lat="48.98876" lon="-0.49203">
        <ele>120.4</ele>
        <time>2024-04-07T10:21:46Z</time>
      </trkpt>
      <trkpt lat="48.98874" lon="-0.49215">
        <ele>120.4</ele>
        <time>2024-04-07T10:21:47Z</time>
      </trkpt>
      <trkpt lat="48.98872" lon="-0.49225">
        <ele>120.4</ele>
        <time>2024-04-07T10:21:48Z</time>
      </trkpt>
      <trkpt lat="48.9887" lon="-0.49236">
        <ele>120.4</ele>
        <time>2024-04-07T10:21:49Z</time>
      </trkpt>
      <trkpt lat="48.98869" lon="-0.49246">
        <ele>120.4</ele>
        <time>2024-04-07T10:21:50Z</time>
      </trkpt>
      <trkpt lat="48.98867" lon="-0.49257">
        <ele>120.4</ele>
        <time>2024-04-07T10:21:51Z</time>
      </trkpt>
      <trkpt lat="48.98865" lon="-0.49268">
        <ele>120.4</ele>
        <time>2024-04-07T10:21:52Z</time>
      </trkpt>
      <trkpt lat="48.98864" lon="-0.49277">
        <ele>120.4</ele>
        <time>2024-04-07T10:21:53Z</time>
      </trkpt>
      <trkpt lat="48.98862" lon="-0.49287">
        <ele>120.2</ele>
        <time>2024-04-07T10:21:54Z</time>
      </trkpt>
      <trkpt lat="48.98861" lon="-0.49296">
        <ele>120.2</ele>
        <time>2024-04-07T10:21:55Z</time>
      </trkpt>
      <trkpt lat="48.9886" lon="-0.49306">
        <ele>120</ele>
        <time>2024-04-07T10:21:56Z</time>
      </trkpt>
      <trkpt lat="48.98857" lon="-0.49317">
        <ele>120</ele>
        <time>2024-04-07T10:21:57Z</time>
      </trkpt>
      <trkpt lat="48.98855" lon="-0.49328">
        <ele>120</ele>
        <time>2024-04-07T10:21:58Z</time>
      </trkpt>
      <trkpt lat="48.98853" lon="-0.49338">
        <ele>119.8</ele>
        <time>2024-04-07T10:21:59Z</time>
      </trkpt>
      <trkpt lat="48.98851" lon="-0.49348">
        <ele>119.8</ele>
        <time>2024-04-07T10:22:00Z</time>
      </trkpt>
      <trkpt lat="48.9885" lon="-0.49358">
        <ele>119.8</ele>
        <time>2024-04-07T10:22:01Z</time>
      </trkpt>
      <trkpt lat="48.98848" lon="-0.49368">
        <ele>119.8</ele>
        <time>2024-04-07T10:22:02Z</time>
      </trkpt>
      <trkpt lat="48.98846" lon="-0.49378">
        <ele>119.8</ele>
        <time>2024-04-07T10:22:03Z</time>
      </trkpt>
      <trkpt lat="48.98844" lon="-0.49388">
        <ele>119.8</ele>
        <time>2024-04-07T10:22:04Z</time>
      </trkpt>
      <trkpt lat="48.98842" lon="-0.49397">
        <ele>119.8</ele>
        <time>2024-04-07T10:22:05Z</time>
      </trkpt>
      <trkpt lat="48.9884" lon="-0.49407">
        <ele>119.8</ele>
        <time>2024-04-07T10:22:06Z</time>
      </trkpt>
      <trkpt lat="48.98839" lon="-0.49416">
        <ele>119.8</ele>
        <time>2024-04-07T10:22:07Z</time>
      </trkpt>
      <trkpt lat="48.98837" lon="-0.49426">
        <ele>119.8</ele>
        <time>2024-04-07T10:22:08Z</time>
      </trkpt>
      <trkpt lat="48.98836" lon="-0.49437">
        <ele>120</ele>
        <time>2024-04-07T10:22:09Z</time>
      </trkpt>
      <trkpt lat="48.98833" lon="-0.49447">
        <ele>120</ele>
        <time>2024-04-07T10:22:10Z</time>
      </trkpt>
      <trkpt lat="48.98832" lon="-0.49456">
        <ele>120</ele>
        <time>2024-04-07T10:22:11Z</time>
      </trkpt>
      <trkpt lat="48.98832" lon="-0.49466">
        <ele>120</ele>
        <time>2024-04-07T10:22:12Z</time>
      </trkpt>
      <trkpt lat="48.98831" lon="-0.49475">
        <ele>120</ele>
        <time>2024-04-07T10:22:13Z</time>
      </trkpt>
      <trkpt lat="48.98829" lon="-0.49485">
        <ele>120</ele>
        <time>2024-04-07T10:22:14Z</time>
      </trkpt>
      <trkpt lat="48.98827" lon="-0.49494">
        <ele>120.2</ele>
        <time>2024-04-07T10:22:15Z</time>
      </trkpt>
      <trkpt lat="48.98825" lon="-0.49504">
        <ele>120.6</ele>
        <time>2024-04-07T10:22:16Z</time>
      </trkpt>
      <trkpt lat="48.98824" lon="-0.49513">
        <ele>120.8</ele>
        <time>2024-04-07T10:22:17Z</time>
      </trkpt>
      <trkpt lat="48.98822" lon="-0.49523">
        <ele>121</ele>
        <time>2024-04-07T10:22:18Z</time>
      </trkpt>
      <trkpt lat="48.98821" lon="-0.49532">
        <ele>121.2</ele>
        <time>2024-04-07T10:22:19Z</time>
      </trkpt>
      <trkpt lat="48.98819" lon="-0.49542">
        <ele>121.4</ele>
        <time>2024-04-07T10:22:20Z</time>
      </trkpt>
      <trkpt lat="48.98816" lon="-0.49553">
        <ele>121.6</ele>
        <time>2024-04-07T10:22:21Z</time>
      </trkpt>
      <trkpt lat="48.98816" lon="-0.49564">
        <ele>121.8</ele>
        <time>2024-04-07T10:22:22Z</time>
      </trkpt>
      <trkpt lat="48.98815" lon="-0.49574">
        <ele>122</ele>
        <time>2024-04-07T10:22:23Z</time>
      </trkpt>
      <trkpt lat="48.98813" lon="-0.49583">
        <ele>122.2</ele>
        <time>2024-04-07T10:22:24Z</time>
      </trkpt>
      <trkpt lat="48.98811" lon="-0.49593">
        <ele>122.4</ele>
        <time>2024-04-07T10:22:25Z</time>
      </trkpt>
      <trkpt lat="48.9881" lon="-0.49603">
        <ele>122.6</ele>
        <time>2024-04-07T10:22:26Z</time>
      </trkpt>
      <trkpt lat="48.98807" lon="-0.4961">
        <ele>122.8</ele>
        <time>2024-04-07T10:22:27Z</time>
      </trkpt>
      <trkpt lat="48.98805" lon="-0.49618">
        <ele>123</ele>
        <time>2024-04-07T10:22:28Z</time>
      </trkpt>
      <trkpt lat="48.98802" lon="-0.49625">
        <ele>123.2</ele>
        <time>2024-04-07T10:22:29Z</time>
      </trkpt>
      <trkpt lat="48.988" lon="-0.49631">
        <ele>123.6</ele>
        <time>2024-04-07T10:22:30Z</time>
      </trkpt>
      <trkpt lat="48.98798" lon="-0.49638">
        <ele>124</ele>
        <time>2024-04-07T10:22:31Z</time>
      </trkpt>
      <trkpt lat="48.98795" lon="-0.49645">
        <ele>124.4</ele>
        <time>2024-04-07T10:22:32Z</time>
      </trkpt>
      <trkpt lat="48.98791" lon="-0.4965">
        <ele>125</ele>
        <time>2024-04-07T10:22:33Z</time>
      </trkpt>
      <trkpt lat="48.98787" lon="-0.49657">
        <ele>125.4</ele>
        <time>2024-04-07T10:22:34Z</time>
      </trkpt>
      <trkpt lat="48.98782" lon="-0.49661">
        <ele>126</ele>
        <time>2024-04-07T10:22:35Z</time>
      </trkpt>
      <trkpt lat="48.98778" lon="-0.49666">
        <ele>126.4</ele>
        <time>2024-04-07T10:22:36Z</time>
      </trkpt>
      <trkpt lat="48.98773" lon="-0.49669">
        <ele>126.4</ele>
        <time>2024-04-07T10:22:37Z</time>
      </trkpt>
      <trkpt lat="48.9877" lon="-0.49674">
        <ele>126.6</ele>
        <time>2024-04-07T10:22:38Z</time>
      </trkpt>
      <trkpt lat="48.98765" lon="-0.49679">
        <ele>126.6</ele>
        <time>2024-04-07T10:22:39Z</time>
      </trkpt>
      <trkpt lat="48.98762" lon="-0.49684">
        <ele>126.6</ele>
        <time>2024-04-07T10:22:40Z</time>
      </trkpt>
      <trkpt lat="48.98757" lon="-0.49689">
        <ele>126.6</ele>
        <time>2024-04-07T10:22:41Z</time>
      </trkpt>
      <trkpt lat="48.98752" lon="-0.49693">
        <ele>126.6</ele>
        <time>2024-04-07T10:22:42Z</time>
      </trkpt>
      <trkpt lat="48.98748" lon="-0.49698">
        <ele>126.6</ele>
        <time>2024-04-07T10:22:43Z</time>
      </trkpt>
      <trkpt lat="48.98743" lon="-0.49705">
        <ele>126.8</ele>
        <time>2024-04-07T10:22:44Z</time>
      </trkpt>
      <trkpt lat="48.98739" lon="-0.4971">
        <ele>126.8</ele>
        <time>2024-04-07T10:22:45Z</time>
      </trkpt>
      <trkpt lat="48.98734" lon="-0.49715">
        <ele>127</ele>
        <time>2024-04-07T10:22:46Z</time>
      </trkpt>
      <trkpt lat="48.98729" lon="-0.4972">
        <ele>127.2</ele>
        <time>2024-04-07T10:22:47Z</time>
      </trkpt>
      <trkpt lat="48.98724" lon="-0.49725">
        <ele>127.4</ele>
        <time>2024-04-07T10:22:48Z</time>
      </trkpt>
      <trkpt lat="48.98719" lon="-0.49731">
        <ele>127.8</ele>
        <time>2024-04-07T10:22:49Z</time>
      </trkpt>
      <trkpt lat="48.98714" lon="-0.49735">
        <ele>128</ele>
        <time>2024-04-07T10:22:50Z</time>
      </trkpt>
      <trkpt lat="48.9871" lon="-0.4974">
        <ele>128.2</ele>
        <time>2024-04-07T10:22:51Z</time>
      </trkpt>
      <trkpt lat="48.98705" lon="-0.49745">
        <ele>128.4</ele>
        <time>2024-04-07T10:22:52Z</time>
      </trkpt>
      <trkpt lat="48.987" lon="-0.4975">
        <ele>128.6</ele>
        <time>2024-04-07T10:22:53Z</time>
      </trkpt>
      <trkpt lat="48.98695" lon="-0.49755">
        <ele>129</ele>
        <time>2024-04-07T10:22:54Z</time>
      </trkpt>
      <trkpt lat="48.9869" lon="-0.4976">
        <ele>129.2</ele>
        <time>2024-04-07T10:22:55Z</time>
      </trkpt>
      <trkpt lat="48.98686" lon="-0.49764">
        <ele>129.4</ele>
        <time>2024-04-07T10:22:56Z</time>
      </trkpt>
      <trkpt lat="48.98682" lon="-0.49769">
        <ele>129.4</ele>
        <time>2024-04-07T10:22:57Z</time>
      </trkpt>
      <trkpt lat="48.98677" lon="-0.49774">
        <ele>129.4</ele>
        <time>2024-04-07T10:22:58Z</time>
      </trkpt>
      <trkpt lat="48.98673" lon="-0.49778">
        <ele>129.4</ele>
        <time>2024-04-07T10:22:59Z</time>
      </trkpt>
      <trkpt lat="48.98668" lon="-0.49783">
        <ele>129.6</ele>
        <time>2024-04-07T10:23:00Z</time>
      </trkpt>
      <trkpt lat="48.98663" lon="-0.49788">
        <ele>129.6</ele>
        <time>2024-04-07T10:23:01Z</time>
      </trkpt>
      <trkpt lat="48.98658" lon="-0.49793">
        <ele>129.8</ele>
        <time>2024-04-07T10:23:02Z</time>
      </trkpt>
      <trkpt lat="48.98654" lon="-0.49797">
        <ele>129.8</ele>
        <time>2024-04-07T10:23:03Z</time>
      </trkpt>
      <trkpt lat="48.98649" lon="-0.49802">
        <ele>130</ele>
        <time>2024-04-07T10:23:04Z</time>
      </trkpt>
      <trkpt lat="48.98645" lon="-0.49807">
        <ele>130.2</ele>
        <time>2024-04-07T10:23:05Z</time>
      </trkpt>
      <trkpt lat="48.9864" lon="-0.49812">
        <ele>130.6</ele>
        <time>2024-04-07T10:23:06Z</time>
      </trkpt>
      <trkpt lat="48.98635" lon="-0.49816">
        <ele>131</ele>
        <time>2024-04-07T10:23:07Z</time>
      </trkpt>
      <trkpt lat="48.98629" lon="-0.49822">
        <ele>131.2</ele>
        <time>2024-04-07T10:23:08Z</time>
      </trkpt>
      <trkpt lat="48.98624" lon="-0.49828">
        <ele>131.6</ele>
        <time>2024-04-07T10:23:09Z</time>
      </trkpt>
      <trkpt lat="48.9862" lon="-0.49833">
        <ele>131.8</ele>
        <time>2024-04-07T10:23:10Z</time>
      </trkpt>
      <trkpt lat="48.98615" lon="-0.49839">
        <ele>131.8</ele>
        <time>2024-04-07T10:23:11Z</time>
      </trkpt>
      <trkpt lat="48.98609" lon="-0.49844">
        <ele>132</ele>
        <time>2024-04-07T10:23:12Z</time>
      </trkpt>
      <trkpt lat="48.98604" lon="-0.49848">
        <ele>132</ele>
        <time>2024-04-07T10:23:13Z</time>
      </trkpt>
      <trkpt lat="48.98598" lon="-0.49854">
        <ele>132</ele>
        <time>2024-04-07T10:23:14Z</time>
      </trkpt>
      <trkpt lat="48.98593" lon="-0.4986">
        <ele>132</ele>
        <time>2024-04-07T10:23:15Z</time>
      </trkpt>
      <trkpt lat="48.98588" lon="-0.49866">
        <ele>132</ele>
        <time>2024-04-07T10:23:16Z</time>
      </trkpt>
      <trkpt lat="48.98583" lon="-0.49872">
        <ele>132</ele>
        <time>2024-04-07T10:23:17Z</time>
      </trkpt>
      <trkpt lat="48.98579" lon="-0.49878">
        <ele>132</ele>
        <time>2024-04-07T10:23:18Z</time>
      </trkpt>
      <trkpt lat="48.98574" lon="-0.49883">
        <ele>132.2</ele>
        <time>2024-04-07T10:23:19Z</time>
      </trkpt>
      <trkpt lat="48.98569" lon="-0.49887">
        <ele>132.2</ele>
        <time>2024-04-07T10:23:20Z</time>
      </trkpt>
      <trkpt lat="48.98564" lon="-0.49892">
        <ele>132.4</ele>
        <time>2024-04-07T10:23:21Z</time>
      </trkpt>
      <trkpt lat="48.98559" lon="-0.49898">
        <ele>132.4</ele>
        <time>2024-04-07T10:23:22Z</time>
      </trkpt>
      <trkpt lat="48.98555" lon="-0.49904">
        <ele>132.6</ele>
        <time>2024-04-07T10:23:23Z</time>
      </trkpt>
      <trkpt lat="48.9855" lon="-0.4991">
        <ele>132.6</ele>
        <time>2024-04-07T10:23:24Z</time>
      </trkpt>
      <trkpt lat="48.98546" lon="-0.49916">
        <ele>132.6</ele>
        <time>2024-04-07T10:23:25Z</time>
      </trkpt>
      <trkpt lat="48.98541" lon="-0.49924">
        <ele>132.8</ele>
        <time>2024-04-07T10:23:26Z</time>
      </trkpt>
      <trkpt lat="48.98536" lon="-0.4993">
        <ele>132.8</ele>
        <time>2024-04-07T10:23:27Z</time>
      </trkpt>
      <trkpt lat="48.98532" lon="-0.49936">
        <ele>133</ele>
        <time>2024-04-07T10:23:28Z</time>
      </trkpt>
      <trkpt lat="48.98527" lon="-0.49943">
        <ele>133</ele>
        <time>2024-04-07T10:23:29Z</time>
      </trkpt>
      <trkpt lat="48.98521" lon="-0.49948">
        <ele>133.2</ele>
        <time>2024-04-07T10:23:30Z</time>
      </trkpt>
      <trkpt lat="48.98517" lon="-0.49954">
        <ele>133.4</ele>
        <time>2024-04-07T10:23:31Z</time>
      </trkpt>
      <trkpt lat="48.98511" lon="-0.49959">
        <ele>133.6</ele>
        <time>2024-04-07T10:23:32Z</time>
      </trkpt>
      <trkpt lat="48.98507" lon="-0.49965">
        <ele>133.6</ele>
        <time>2024-04-07T10:23:33Z</time>
      </trkpt>
      <trkpt lat="48.98503" lon="-0.49972">
        <ele>133.6</ele>
        <time>2024-04-07T10:23:34Z</time>
      </trkpt>
      <trkpt lat="48.98498" lon="-0.49978">
        <ele>133.8</ele>
        <time>2024-04-07T10:23:35Z</time>
      </trkpt>
      <trkpt lat="48.98494" lon="-0.49984">
        <ele>133.8</ele>
        <time>2024-04-07T10:23:36Z</time>
      </trkpt>
      <trkpt lat="48.98489" lon="-0.4999">
        <ele>134</ele>
        <time>2024-04-07T10:23:37Z</time>
      </trkpt>
      <trkpt lat="48.98484" lon="-0.49996">
        <ele>134</ele>
        <time>2024-04-07T10:23:38Z</time>
      </trkpt>
      <trkpt lat="48.9848" lon="-0.50002">
        <ele>134.2</ele>
        <time>2024-04-07T10:23:39Z</time>
      </trkpt>
      <trkpt lat="48.98476" lon="-0.50009">
        <ele>134.2</ele>
        <time>2024-04-07T10:23:40Z</time>
      </trkpt>
      <trkpt lat="48.98472" lon="-0.50016">
        <ele>134.2</ele>
        <time>2024-04-07T10:23:41Z</time>
      </trkpt>
      <trkpt lat="48.98468" lon="-0.50022">
        <ele>134.2</ele>
        <time>2024-04-07T10:23:42Z</time>
      </trkpt>
      <trkpt lat="48.98464" lon="-0.50029">
        <ele>134.2</ele>
        <time>2024-04-07T10:23:43Z</time>
      </trkpt>
      <trkpt lat="48.9846" lon="-0.50035">
        <ele>134.4</ele>
        <time>2024-04-07T10:23:44Z</time>
      </trkpt>
      <trkpt lat="48.98456" lon="-0.50042">
        <ele>134.6</ele>
        <time>2024-04-07T10:23:45Z</time>
      </trkpt>
      <trkpt lat="48.98453" lon="-0.50049">
        <ele>134.8</ele>
        <time>2024-04-07T10:23:46Z</time>
      </trkpt>
      <trkpt lat="48.9845" lon="-0.50057">
        <ele>135</ele>
        <time>2024-04-07T10:23:47Z</time>
      </trkpt>
      <trkpt lat="48.98446" lon="-0.50065">
        <ele>135</ele>
        <time>2024-04-07T10:23:48Z</time>
      </trkpt>
      <trkpt lat="48.98443" lon="-0.50073">
        <ele>135</ele>
        <time>2024-04-07T10:23:49Z</time>
      </trkpt>
      <trkpt lat="48.9844" lon="-0.50081">
        <ele>135.2</ele>
        <time>2024-04-07T10:23:50Z</time>
      </trkpt>
      <trkpt lat="48.98437" lon="-0.5009">
        <ele>135.4</ele>
        <time>2024-04-07T10:23:51Z</time>
      </trkpt>
      <trkpt lat="48.98435" lon="-0.50098">
        <ele>135.6</ele>
        <time>2024-04-07T10:23:52Z</time>
      </trkpt>
      <trkpt lat="48.98433" lon="-0.50106">
        <ele>135.6</ele>
        <time>2024-04-07T10:23:53Z</time>
      </trkpt>
      <trkpt lat="48.98431" lon="-0.50115">
        <ele>135.8</ele>
        <time>2024-04-07T10:23:54Z</time>
      </trkpt>
      <trkpt lat="48.98429" lon="-0.50124">
        <ele>136</ele>
        <time>2024-04-07T10:23:55Z</time>
      </trkpt>
      <trkpt lat="48.98427" lon="-0.50133">
        <ele>136.2</ele>
        <time>2024-04-07T10:23:56Z</time>
      </trkpt>
      <trkpt lat="48.98425" lon="-0.50142">
        <ele>136.4</ele>
        <time>2024-04-07T10:23:57Z</time>
      </trkpt>
      <trkpt lat="48.98423" lon="-0.50152">
        <ele>136.6</ele>
        <time>2024-04-07T10:23:58Z</time>
      </trkpt>
      <trkpt lat="48.98422" lon="-0.50161">
        <ele>136.6</ele>
        <time>2024-04-07T10:23:59Z</time>
      </trkpt>
      <trkpt lat="48.98421" lon="-0.50171">
        <ele>136.8</ele>
        <time>2024-04-07T10:24:00Z</time>
      </trkpt>
      <trkpt lat="48.9842" lon="-0.5018">
        <ele>136.8</ele>
        <time>2024-04-07T10:24:01Z</time>
      </trkpt>
      <trkpt lat="48.98419" lon="-0.5019">
        <ele>136.8</ele>
        <time>2024-04-07T10:24:02Z</time>
      </trkpt>
      <trkpt lat="48.98419" lon="-0.50199">
        <ele>136.8</ele>
        <time>2024-04-07T10:24:03Z</time>
      </trkpt>
      <trkpt lat="48.98419" lon="-0.50208">
        <ele>136.8</ele>
        <time>2024-04-07T10:24:04Z</time>
      </trkpt>
      <trkpt lat="48.98419" lon="-0.50218">
        <ele>137</ele>
        <time>2024-04-07T10:24:05Z</time>
      </trkpt>
      <trkpt lat="48.98419" lon="-0.50227">
        <ele>137</ele>
        <time>2024-04-07T10:24:06Z</time>
      </trkpt>
      <trkpt lat="48.9842" lon="-0.50236">
        <ele>137.2</ele>
        <time>2024-04-07T10:24:07Z</time>
      </trkpt>
      <trkpt lat="48.9842" lon="-0.50245">
        <ele>137.4</ele>
        <time>2024-04-07T10:24:08Z</time>
      </trkpt>
      <trkpt lat="48.98421" lon="-0.50254">
        <ele>137.6</ele>
        <time>2024-04-07T10:24:09Z</time>
      </trkpt>
      <trkpt lat="48.98422" lon="-0.50262">
        <ele>137.8</ele>
        <time>2024-04-07T10:24:10Z</time>
      </trkpt>
      <trkpt lat="48.98423" lon="-0.50269">
        <ele>138.2</ele>
        <time>2024-04-07T10:24:11Z</time>
      </trkpt>
      <trkpt lat="48.98425" lon="-0.50276">
        <ele>138.4</ele>
        <time>2024-04-07T10:24:12Z</time>
      </trkpt>
      <trkpt lat="48.98426" lon="-0.50283">
        <ele>138.6</ele>
        <time>2024-04-07T10:24:13Z</time>
      </trkpt>
      <trkpt lat="48.98428" lon="-0.5029">
        <ele>138.8</ele>
        <time>2024-04-07T10:24:14Z</time>
      </trkpt>
      <trkpt lat="48.9843" lon="-0.50297">
        <ele>138.8</ele>
        <time>2024-04-07T10:24:15Z</time>
      </trkpt>
      <trkpt lat="48.98432" lon="-0.50303">
        <ele>139</ele>
        <time>2024-04-07T10:24:16Z</time>
      </trkpt>
      <trkpt lat="48.98434" lon="-0.50309">
        <ele>139.2</ele>
        <time>2024-04-07T10:24:17Z</time>
      </trkpt>
      <trkpt lat="48.98436" lon="-0.50316">
        <ele>139.2</ele>
        <time>2024-04-07T10:24:18Z</time>
      </trkpt>
      <trkpt lat="48.98438" lon="-0.50322">
        <ele>139.4</ele>
        <time>2024-04-07T10:24:19Z</time>
      </trkpt>
      <trkpt lat="48.98441" lon="-0.50329">
        <ele>139.6</ele>
        <time>2024-04-07T10:24:20Z</time>
      </trkpt>
      <trkpt lat="48.98442" lon="-0.50338">
        <ele>139.8</ele>
        <time>2024-04-07T10:24:21Z</time>
      </trkpt>
      <trkpt lat="48.98443" lon="-0.50346">
        <ele>140</ele>
        <time>2024-04-07T10:24:22Z</time>
      </trkpt>
      <trkpt lat="48.98444" lon="-0.50355">
        <ele>140.4</ele>
        <time>2024-04-07T10:24:23Z</time>
      </trkpt>
      <trkpt lat="48.98445" lon="-0.50364">
        <ele>140.6</ele>
        <time>2024-04-07T10:24:24Z</time>
      </trkpt>
      <trkpt lat="48.98446" lon="-0.50373">
        <ele>140.8</ele>
        <time>2024-04-07T10:24:25Z</time>
      </trkpt>
      <trkpt lat="48.98447" lon="-0.50381">
        <ele>141</ele>
        <time>2024-04-07T10:24:26Z</time>
      </trkpt>
      <trkpt lat="48.98446" lon="-0.50389">
        <ele>141.2</ele>
        <time>2024-04-07T10:24:27Z</time>
      </trkpt>
      <trkpt lat="48.98446" lon="-0.50398">
        <ele>141.4</ele>
        <time>2024-04-07T10:24:28Z</time>
      </trkpt>
      <trkpt lat="48.98446" lon="-0.50406">
        <ele>141.6</ele>
        <time>2024-04-07T10:24:29Z</time>
      </trkpt>
      <trkpt lat="48.98445" lon="-0.50415">
        <ele>141.8</ele>
        <time>2024-04-07T10:24:30Z</time>
      </trkpt>
      <trkpt lat="48.98444" lon="-0.50424">
        <ele>141.8</ele>
        <time>2024-04-07T10:24:31Z</time>
      </trkpt>
      <trkpt lat="48.98443" lon="-0.50432">
        <ele>142</ele>
        <time>2024-04-07T10:24:32Z</time>
      </trkpt>
      <trkpt lat="48.98442" lon="-0.5044">
        <ele>142.2</ele>
        <time>2024-04-07T10:24:33Z</time>
      </trkpt>
      <trkpt lat="48.98441" lon="-0.50449">
        <ele>142.2</ele>
        <time>2024-04-07T10:24:34Z</time>
      </trkpt>
      <trkpt lat="48.9844" lon="-0.50457">
        <ele>142.4</ele>
        <time>2024-04-07T10:24:35Z</time>
      </trkpt>
      <trkpt lat="48.98439" lon="-0.50466">
        <ele>142.4</ele>
        <time>2024-04-07T10:24:36Z</time>
      </trkpt>
      <trkpt lat="48.98437" lon="-0.50475">
        <ele>142.6</ele>
        <time>2024-04-07T10:24:37Z</time>
      </trkpt>
      <trkpt lat="48.98435" lon="-0.50484">
        <ele>142.6</ele>
        <time>2024-04-07T10:24:38Z</time>
      </trkpt>
      <trkpt lat="48.98434" lon="-0.50492">
        <ele>142.8</ele>
        <time>2024-04-07T10:24:39Z</time>
      </trkpt>
      <trkpt lat="48.98433" lon="-0.50501">
        <ele>142.8</ele>
        <time>2024-04-07T10:24:40Z</time>
      </trkpt>
      <trkpt lat="48.98431" lon="-0.50509">
        <ele>143</ele>
        <time>2024-04-07T10:24:41Z</time>
      </trkpt>
      <trkpt lat="48.9843" lon="-0.50517">
        <ele>143.4</ele>
        <time>2024-04-07T10:24:42Z</time>
      </trkpt>
      <trkpt lat="48.98428" lon="-0.50526">
        <ele>143.6</ele>
        <time>2024-04-07T10:24:43Z</time>
      </trkpt>
      <trkpt lat="48.98426" lon="-0.50534">
        <ele>144</ele>
        <time>2024-04-07T10:24:44Z</time>
      </trkpt>
      <trkpt lat="48.98424" lon="-0.50543">
        <ele>144.2</ele>
        <time>2024-04-07T10:24:45Z</time>
      </trkpt>
      <trkpt lat="48.98421" lon="-0.50552">
        <ele>144.4</ele>
        <time>2024-04-07T10:24:46Z</time>
      </trkpt>
      <trkpt lat="48.98419" lon="-0.5056">
        <ele>144.4</ele>
        <time>2024-04-07T10:24:47Z</time>
      </trkpt>
      <trkpt lat="48.98417" lon="-0.50569">
        <ele>144.6</ele>
        <time>2024-04-07T10:24:48Z</time>
      </trkpt>
      <trkpt lat="48.98414" lon="-0.50577">
        <ele>144.8</ele>
        <time>2024-04-07T10:24:49Z</time>
      </trkpt>
      <trkpt lat="48.98411" lon="-0.50586">
        <ele>145</ele>
        <time>2024-04-07T10:24:50Z</time>
      </trkpt>
      <trkpt lat="48.98408" lon="-0.50594">
        <ele>145.2</ele>
        <time>2024-04-07T10:24:51Z</time>
      </trkpt>
      <trkpt lat="48.98405" lon="-0.50602">
        <ele>145.4</ele>
        <time>2024-04-07T10:24:52Z</time>
      </trkpt>
      <trkpt lat="48.98402" lon="-0.50611">
        <ele>145.6</ele>
        <time>2024-04-07T10:24:53Z</time>
      </trkpt>
      <trkpt lat="48.98399" lon="-0.50619">
        <ele>145.8</ele>
        <time>2024-04-07T10:24:54Z</time>
      </trkpt>
      <trkpt lat="48.98396" lon="-0.50626">
        <ele>146</ele>
        <time>2024-04-07T10:24:55Z</time>
      </trkpt>
      <trkpt lat="48.98392" lon="-0.50635">
        <ele>146.2</ele>
        <time>2024-04-07T10:24:56Z</time>
      </trkpt>
      <trkpt lat="48.98389" lon="-0.50644">
        <ele>146.2</ele>
        <time>2024-04-07T10:24:57Z</time>
      </trkpt>
      <trkpt lat="48.98385" lon="-0.50652">
        <ele>146.4</ele>
        <time>2024-04-07T10:24:58Z</time>
      </trkpt>
      <trkpt lat="48.98382" lon="-0.5066">
        <ele>146.4</ele>
        <time>2024-04-07T10:24:59Z</time>
      </trkpt>
      <trkpt lat="48.98379" lon="-0.50668">
        <ele>146.6</ele>
        <time>2024-04-07T10:25:00Z</time>
      </trkpt>
      <trkpt lat="48.98375" lon="-0.50677">
        <ele>146.6</ele>
        <time>2024-04-07T10:25:01Z</time>
      </trkpt>
      <trkpt lat="48.98372" lon="-0.50685">
        <ele>146.8</ele>
        <time>2024-04-07T10:25:02Z</time>
      </trkpt>
      <trkpt lat="48.98369" lon="-0.50694">
        <ele>147</ele>
        <time>2024-04-07T10:25:03Z</time>
      </trkpt>
      <trkpt lat="48.98367" lon="-0.50702">
        <ele>147</ele>
        <time>2024-04-07T10:25:04Z</time>
      </trkpt>
      <trkpt lat="48.98364" lon="-0.50711">
        <ele>147.2</ele>
        <time>2024-04-07T10:25:05Z</time>
      </trkpt>
      <trkpt lat="48.98361" lon="-0.50719">
        <ele>147.2</ele>
        <time>2024-04-07T10:25:06Z</time>
      </trkpt>
      <trkpt lat="48.98358" lon="-0.50729">
        <ele>147.4</ele>
        <time>2024-04-07T10:25:07Z</time>
      </trkpt>
      <trkpt lat="48.98355" lon="-0.50739">
        <ele>147.4</ele>
        <time>2024-04-07T10:25:08Z</time>
      </trkpt>
      <trkpt lat="48.98353" lon="-0.50748">
        <ele>147.6</ele>
        <time>2024-04-07T10:25:09Z</time>
      </trkpt>
      <trkpt lat="48.98351" lon="-0.50758">
        <ele>147.6</ele>
        <time>2024-04-07T10:25:10Z</time>
      </trkpt>
      <trkpt lat="48.98349" lon="-0.50767">
        <ele>147.8</ele>
        <time>2024-04-07T10:25:11Z</time>
      </trkpt>
      <trkpt lat="48.98348" lon="-0.50777">
        <ele>148</ele>
        <time>2024-04-07T10:25:12Z</time>
      </trkpt>
      <trkpt lat="48.98347" lon="-0.50786">
        <ele>148</ele>
        <time>2024-04-07T10:25:13Z</time>
      </trkpt>
      <trkpt lat="48.98347" lon="-0.50796">
        <ele>148.2</ele>
        <time>2024-04-07T10:25:14Z</time>
      </trkpt>
      <trkpt lat="48.98346" lon="-0.50805">
        <ele>148.2</ele>
        <time>2024-04-07T10:25:15Z</time>
      </trkpt>
      <trkpt lat="48.98345" lon="-0.50815">
        <ele>148.6</ele>
        <time>2024-04-07T10:25:16Z</time>
      </trkpt>
      <trkpt lat="48.98344" lon="-0.50824">
        <ele>148.8</ele>
        <time>2024-04-07T10:25:17Z</time>
      </trkpt>
      <trkpt lat="48.98344" lon="-0.50834">
        <ele>149</ele>
        <time>2024-04-07T10:25:18Z</time>
      </trkpt>
      <trkpt lat="48.98343" lon="-0.50843">
        <ele>149</ele>
        <time>2024-04-07T10:25:19Z</time>
      </trkpt>
      <trkpt lat="48.98342" lon="-0.50852">
        <ele>149</ele>
        <time>2024-04-07T10:25:20Z</time>
      </trkpt>
      <trkpt lat="48.98341" lon="-0.5086">
        <ele>149.2</ele>
        <time>2024-04-07T10:25:21Z</time>
      </trkpt>
      <trkpt lat="48.98339" lon="-0.50869">
        <ele>149.2</ele>
        <time>2024-04-07T10:25:22Z</time>
      </trkpt>
      <trkpt lat="48.98337" lon="-0.50878">
        <ele>149.4</ele>
        <time>2024-04-07T10:25:23Z</time>
      </trkpt>
      <trkpt lat="48.98336" lon="-0.50886">
        <ele>149.4</ele>
        <time>2024-04-07T10:25:24Z</time>
      </trkpt>
      <trkpt lat="48.98334" lon="-0.50895">
        <ele>149.8</ele>
        <time>2024-04-07T10:25:25Z</time>
      </trkpt>
      <trkpt lat="48.98332" lon="-0.50903">
        <ele>150</ele>
        <time>2024-04-07T10:25:26Z</time>
      </trkpt>
      <trkpt lat="48.9833" lon="-0.5091">
        <ele>150.2</ele>
        <time>2024-04-07T10:25:27Z</time>
      </trkpt>
      <trkpt lat="48.98328" lon="-0.50918">
        <ele>150.4</ele>
        <time>2024-04-07T10:25:28Z</time>
      </trkpt>
      <trkpt lat="48.98325" lon="-0.50926">
        <ele>150.6</ele>
        <time>2024-04-07T10:25:29Z</time>
      </trkpt>
      <trkpt lat="48.98322" lon="-0.50934">
        <ele>150.8</ele>
        <time>2024-04-07T10:25:30Z</time>
      </trkpt>
      <trkpt lat="48.98319" lon="-0.50942">
        <ele>151</ele>
        <time>2024-04-07T10:25:31Z</time>
      </trkpt>
      <trkpt lat="48.98317" lon="-0.5095">
        <ele>151.2</ele>
        <time>2024-04-07T10:25:32Z</time>
      </trkpt>
      <trkpt lat="48.98314" lon="-0.50959">
        <ele>151.2</ele>
        <time>2024-04-07T10:25:33Z</time>
      </trkpt>
      <trkpt lat="48.98311" lon="-0.50967">
        <ele>151.4</ele>
        <time>2024-04-07T10:25:34Z</time>
      </trkpt>
      <trkpt lat="48.98309" lon="-0.50975">
        <ele>151.6</ele>
        <time>2024-04-07T10:25:35Z</time>
      </trkpt>
      <trkpt lat="48.98306" lon="-0.50984">
        <ele>151.6</ele>
        <time>2024-04-07T10:25:36Z</time>
      </trkpt>
      <trkpt lat="48.98303" lon="-0.50992">
        <ele>151.6</ele>
        <time>2024-04-07T10:25:37Z</time>
      </trkpt>
      <trkpt lat="48.98301" lon="-0.51001">
        <ele>151.8</ele>
        <time>2024-04-07T10:25:38Z</time>
      </trkpt>
      <trkpt lat="48.98298" lon="-0.51009">
        <ele>151.8</ele>
        <time>2024-04-07T10:25:39Z</time>
      </trkpt>
      <trkpt lat="48.98296" lon="-0.51018">
        <ele>152</ele>
        <time>2024-04-07T10:25:40Z</time>
      </trkpt>
      <trkpt lat="48.98294" lon="-0.51027">
        <ele>152</ele>
        <time>2024-04-07T10:25:41Z</time>
      </trkpt>
      <trkpt lat="48.98291" lon="-0.51036">
        <ele>152</ele>
        <time>2024-04-07T10:25:42Z</time>
      </trkpt>
      <trkpt lat="48.98289" lon="-0.51044">
        <ele>152</ele>
        <time>2024-04-07T10:25:43Z</time>
      </trkpt>
      <trkpt lat="48.98288" lon="-0.51053">
        <ele>152.2</ele>
        <time>2024-04-07T10:25:44Z</time>
      </trkpt>
      <trkpt lat="48.98286" lon="-0.51062">
        <ele>152.2</ele>
        <time>2024-04-07T10:25:45Z</time>
      </trkpt>
      <trkpt lat="48.98285" lon="-0.51071">
        <ele>152.4</ele>
        <time>2024-04-07T10:25:46Z</time>
      </trkpt>
      <trkpt lat="48.98284" lon="-0.5108">
        <ele>152.4</ele>
        <time>2024-04-07T10:25:47Z</time>
      </trkpt>
      <trkpt lat="48.98284" lon="-0.51089">
        <ele>152.6</ele>
        <time>2024-04-07T10:25:48Z</time>
      </trkpt>
      <trkpt lat="48.98283" lon="-0.51098">
        <ele>152.8</ele>
        <time>2024-04-07T10:25:49Z</time>
      </trkpt>
      <trkpt lat="48.98283" lon="-0.51108">
        <ele>153</ele>
        <time>2024-04-07T10:25:50Z</time>
      </trkpt>
      <trkpt lat="48.98283" lon="-0.51117">
        <ele>153.2</ele>
        <time>2024-04-07T10:25:51Z</time>
      </trkpt>
      <trkpt lat="48.98285" lon="-0.51127">
        <ele>153.4</ele>
        <time>2024-04-07T10:25:52Z</time>
      </trkpt>
      <trkpt lat="48.98285" lon="-0.51136">
        <ele>153.4</ele>
        <time>2024-04-07T10:25:53Z</time>
      </trkpt>
      <trkpt lat="48.98286" lon="-0.51145">
        <ele>153.4</ele>
        <time>2024-04-07T10:25:54Z</time>
      </trkpt>
      <trkpt lat="48.98286" lon="-0.51154">
        <ele>153.6</ele>
        <time>2024-04-07T10:25:55Z</time>
      </trkpt>
      <trkpt lat="48.98291" lon="-0.51159">
        <ele>153.8</ele>
        <time>2024-04-07T10:25:56Z</time>
      </trkpt>
      <trkpt lat="48.98295" lon="-0.51167">
        <ele>154.2</ele>
        <time>2024-04-07T10:25:57Z</time>
      </trkpt>
      <trkpt lat="48.98294" lon="-0.51174">
        <ele>154.6</ele>
        <time>2024-04-07T10:25:58Z</time>
      </trkpt>
      <trkpt lat="48.98296" lon="-0.51182">
        <ele>154.8</ele>
        <time>2024-04-07T10:25:59Z</time>
      </trkpt>
      <trkpt lat="48.98297" lon="-0.51191">
        <ele>155</ele>
        <time>2024-04-07T10:26:00Z</time>
      </trkpt>
      <trkpt lat="48.98298" lon="-0.51199">
        <ele>155.2</ele>
        <time>2024-04-07T10:26:01Z</time>
      </trkpt>
      <trkpt lat="48.98299" lon="-0.5121">
        <ele>155.6</ele>
        <time>2024-04-07T10:26:02Z</time>
      </trkpt>
      <trkpt lat="48.98299" lon="-0.51217">
        <ele>155.8</ele>
        <time>2024-04-07T10:26:03Z</time>
      </trkpt>
      <trkpt lat="48.98299" lon="-0.51225">
        <ele>156</ele>
        <time>2024-04-07T10:26:04Z</time>
      </trkpt>
      <trkpt lat="48.983" lon="-0.51233">
        <ele>156.2</ele>
        <time>2024-04-07T10:26:05Z</time>
      </trkpt>
      <trkpt lat="48.983" lon="-0.51241">
        <ele>156.4</ele>
        <time>2024-04-07T10:26:06Z</time>
      </trkpt>
      <trkpt lat="48.98301" lon="-0.51249">
        <ele>156.6</ele>
        <time>2024-04-07T10:26:07Z</time>
      </trkpt>
      <trkpt lat="48.98302" lon="-0.51259">
        <ele>156.8</ele>
        <time>2024-04-07T10:26:08Z</time>
      </trkpt>
      <trkpt lat="48.98302" lon="-0.51268">
        <ele>156.8</ele>
        <time>2024-04-07T10:26:09Z</time>
      </trkpt>
      <trkpt lat="48.98303" lon="-0.51278">
        <ele>156.8</ele>
        <time>2024-04-07T10:26:10Z</time>
      </trkpt>
      <trkpt lat="48.98304" lon="-0.51288">
        <ele>156.8</ele>
        <time>2024-04-07T10:26:11Z</time>
      </trkpt>
      <trkpt lat="48.98305" lon="-0.51297">
        <ele>156.8</ele>
        <time>2024-04-07T10:26:12Z</time>
      </trkpt>
      <trkpt lat="48.98304" lon="-0.51307">
        <ele>156.8</ele>
        <time>2024-04-07T10:26:13Z</time>
      </trkpt>
      <trkpt lat="48.98305" lon="-0.51318">
        <ele>157</ele>
        <time>2024-04-07T10:26:14Z</time>
      </trkpt>
      <trkpt lat="48.98306" lon="-0.51325">
        <ele>157</ele>
        <time>2024-04-07T10:26:15Z</time>
      </trkpt>
      <trkpt lat="48.98307" lon="-0.51335">
        <ele>157.2</ele>
        <time>2024-04-07T10:26:16Z</time>
      </trkpt>
      <trkpt lat="48.98307" lon="-0.51345">
        <ele>157.4</ele>
        <time>2024-04-07T10:26:17Z</time>
      </trkpt>
      <trkpt lat="48.98307" lon="-0.51356">
        <ele>157.4</ele>
        <time>2024-04-07T10:26:18Z</time>
      </trkpt>
      <trkpt lat="48.98307" lon="-0.51367">
        <ele>157.4</ele>
        <time>2024-04-07T10:26:19Z</time>
      </trkpt>
      <trkpt lat="48.98307" lon="-0.51379">
        <ele>157.6</ele>
        <time>2024-04-07T10:26:20Z</time>
      </trkpt>
      <trkpt lat="48.98305" lon="-0.5139">
        <ele>157.6</ele>
        <time>2024-04-07T10:26:21Z</time>
      </trkpt>
      <trkpt lat="48.98305" lon="-0.514">
        <ele>157.6</ele>
        <time>2024-04-07T10:26:22Z</time>
      </trkpt>
      <trkpt lat="48.98303" lon="-0.51409">
        <ele>157.4</ele>
        <time>2024-04-07T10:26:23Z</time>
      </trkpt>
      <trkpt lat="48.98302" lon="-0.51419">
        <ele>157.4</ele>
        <time>2024-04-07T10:26:24Z</time>
      </trkpt>
      <trkpt lat="48.98301" lon="-0.51428">
        <ele>157.2</ele>
        <time>2024-04-07T10:26:25Z</time>
      </trkpt>
      <trkpt lat="48.983" lon="-0.51438">
        <ele>157.2</ele>
        <time>2024-04-07T10:26:26Z</time>
      </trkpt>
      <trkpt lat="48.98299" lon="-0.51446">
        <ele>157</ele>
        <time>2024-04-07T10:26:27Z</time>
      </trkpt>
      <trkpt lat="48.98297" lon="-0.51455">
        <ele>157</ele>
        <time>2024-04-07T10:26:28Z</time>
      </trkpt>
      <trkpt lat="48.98295" lon="-0.51464">
        <ele>157</ele>
        <time>2024-04-07T10:26:29Z</time>
      </trkpt>
      <trkpt lat="48.98294" lon="-0.51476">
        <ele>157.2</ele>
        <time>2024-04-07T10:26:30Z</time>
      </trkpt>
      <trkpt lat="48.9829" lon="-0.51486">
        <ele>157.4</ele>
        <time>2024-04-07T10:26:31Z</time>
      </trkpt>
      <trkpt lat="48.98287" lon="-0.51496">
        <ele>157.6</ele>
        <time>2024-04-07T10:26:32Z</time>
      </trkpt>
      <trkpt lat="48.98285" lon="-0.51505">
        <ele>158.2</ele>
        <time>2024-04-07T10:26:33Z</time>
      </trkpt>
      <trkpt lat="48.98283" lon="-0.51514">
        <ele>158.6</ele>
        <time>2024-04-07T10:26:34Z</time>
      </trkpt>
      <trkpt lat="48.98282" lon="-0.51523">
        <ele>159.2</ele>
        <time>2024-04-07T10:26:35Z</time>
      </trkpt>
      <trkpt lat="48.9828" lon="-0.51532">
        <ele>159.4</ele>
        <time>2024-04-07T10:26:36Z</time>
      </trkpt>
      <trkpt lat="48.98278" lon="-0.5154">
        <ele>159.8</ele>
        <time>2024-04-07T10:26:37Z</time>
      </trkpt>
      <trkpt lat="48.98277" lon="-0.51547">
        <ele>159.8</ele>
        <time>2024-04-07T10:26:38Z</time>
      </trkpt>
      <trkpt lat="48.98275" lon="-0.51556">
        <ele>159.8</ele>
        <time>2024-04-07T10:26:39Z</time>
      </trkpt>
      <trkpt lat="48.98274" lon="-0.51565">
        <ele>159.8</ele>
        <time>2024-04-07T10:26:40Z</time>
      </trkpt>
      <trkpt lat="48.98272" lon="-0.51574">
        <ele>159.8</ele>
        <time>2024-04-07T10:26:41Z</time>
      </trkpt>
      <trkpt lat="48.98271" lon="-0.51582">
        <ele>159.8</ele>
        <time>2024-04-07T10:26:42Z</time>
      </trkpt>
      <trkpt lat="48.98269" lon="-0.51591">
        <ele>159.8</ele>
        <time>2024-04-07T10:26:43Z</time>
      </trkpt>
      <trkpt lat="48.98268" lon="-0.516">
        <ele>159.8</ele>
        <time>2024-04-07T10:26:44Z</time>
      </trkpt>
      <trkpt lat="48.98266" lon="-0.51609">
        <ele>160</ele>
        <time>2024-04-07T10:26:45Z</time>
      </trkpt>
      <trkpt lat="48.98265" lon="-0.51618">
        <ele>160</ele>
        <time>2024-04-07T10:26:46Z</time>
      </trkpt>
      <trkpt lat="48.98264" lon="-0.51627">
        <ele>160.2</ele>
        <time>2024-04-07T10:26:47Z</time>
      </trkpt>
      <trkpt lat="48.98262" lon="-0.51635">
        <ele>160.2</ele>
        <time>2024-04-07T10:26:48Z</time>
      </trkpt>
      <trkpt lat="48.98262" lon="-0.51643">
        <ele>160.2</ele>
        <time>2024-04-07T10:26:49Z</time>
      </trkpt>
      <trkpt lat="48.98261" lon="-0.51651">
        <ele>160.4</ele>
        <time>2024-04-07T10:26:50Z</time>
      </trkpt>
      <trkpt lat="48.9826" lon="-0.51659">
        <ele>160.4</ele>
        <time>2024-04-07T10:26:51Z</time>
      </trkpt>
      <trkpt lat="48.98259" lon="-0.51667">
        <ele>160.4</ele>
        <time>2024-04-07T10:26:52Z</time>
      </trkpt>
      <trkpt lat="48.98258" lon="-0.51675">
        <ele>160.4</ele>
        <time>2024-04-07T10:26:53Z</time>
      </trkpt>
      <trkpt lat="48.98257" lon="-0.51684">
        <ele>160.4</ele>
        <time>2024-04-07T10:26:54Z</time>
      </trkpt>
      <trkpt lat="48.98255" lon="-0.51693">
        <ele>160.4</ele>
        <time>2024-04-07T10:26:55Z</time>
      </trkpt>
      <trkpt lat="48.98253" lon="-0.51702">
        <ele>160.4</ele>
        <time>2024-04-07T10:26:56Z</time>
      </trkpt>
      <trkpt lat="48.98252" lon="-0.51712">
        <ele>160.6</ele>
        <time>2024-04-07T10:26:57Z</time>
      </trkpt>
      <trkpt lat="48.98251" lon="-0.5172">
        <ele>160.8</ele>
        <time>2024-04-07T10:26:58Z</time>
      </trkpt>
      <trkpt lat="48.98249" lon="-0.51729">
        <ele>161</ele>
        <time>2024-04-07T10:26:59Z</time>
      </trkpt>
      <trkpt lat="48.98248" lon="-0.51738">
        <ele>161.2</ele>
        <time>2024-04-07T10:27:00Z</time>
      </trkpt>
      <trkpt lat="48.98246" lon="-0.51748">
        <ele>161.2</ele>
        <time>2024-04-07T10:27:01Z</time>
      </trkpt>
      <trkpt lat="48.98244" lon="-0.51758">
        <ele>161.4</ele>
        <time>2024-04-07T10:27:02Z</time>
      </trkpt>
      <trkpt lat="48.98242" lon="-0.51767">
        <ele>161.4</ele>
        <time>2024-04-07T10:27:03Z</time>
      </trkpt>
      <trkpt lat="48.9824" lon="-0.51777">
        <ele>161.4</ele>
        <time>2024-04-07T10:27:04Z</time>
      </trkpt>
      <trkpt lat="48.98237" lon="-0.51787">
        <ele>161.4</ele>
        <time>2024-04-07T10:27:05Z</time>
      </trkpt>
      <trkpt lat="48.98235" lon="-0.51797">
        <ele>161.4</ele>
        <time>2024-04-07T10:27:06Z</time>
      </trkpt>
      <trkpt lat="48.98233" lon="-0.51808">
        <ele>161.4</ele>
        <time>2024-04-07T10:27:07Z</time>
      </trkpt>
      <trkpt lat="48.98231" lon="-0.51817">
        <ele>161.6</ele>
        <time>2024-04-07T10:27:08Z</time>
      </trkpt>
      <trkpt lat="48.98229" lon="-0.51826">
        <ele>161.6</ele>
        <time>2024-04-07T10:27:09Z</time>
      </trkpt>
      <trkpt lat="48.98227" lon="-0.51836">
        <ele>161.8</ele>
        <time>2024-04-07T10:27:10Z</time>
      </trkpt>
      <trkpt lat="48.98225" lon="-0.51846">
        <ele>162</ele>
        <time>2024-04-07T10:27:11Z</time>
      </trkpt>
      <trkpt lat="48.98223" lon="-0.51855">
        <ele>162.2</ele>
        <time>2024-04-07T10:27:12Z</time>
      </trkpt>
      <trkpt lat="48.98221" lon="-0.51865">
        <ele>162.2</ele>
        <time>2024-04-07T10:27:13Z</time>
      </trkpt>
      <trkpt lat="48.98218" lon="-0.51875">
        <ele>162.4</ele>
        <time>2024-04-07T10:27:14Z</time>
      </trkpt>
      <trkpt lat="48.98215" lon="-0.51884">
        <ele>162.6</ele>
        <time>2024-04-07T10:27:15Z</time>
      </trkpt>
      <trkpt lat="48.98213" lon="-0.51893">
        <ele>162.8</ele>
        <time>2024-04-07T10:27:16Z</time>
      </trkpt>
      <trkpt lat="48.98211" lon="-0.51902">
        <ele>163</ele>
        <time>2024-04-07T10:27:17Z</time>
      </trkpt>
      <trkpt lat="48.98208" lon="-0.51911">
        <ele>163.2</ele>
        <time>2024-04-07T10:27:18Z</time>
      </trkpt>
      <trkpt lat="48.98206" lon="-0.5192">
        <ele>163.4</ele>
        <time>2024-04-07T10:27:19Z</time>
      </trkpt>
      <trkpt lat="48.98203" lon="-0.51928">
        <ele>163.4</ele>
        <time>2024-04-07T10:27:20Z</time>
      </trkpt>
      <trkpt lat="48.98201" lon="-0.51937">
        <ele>163.6</ele>
        <time>2024-04-07T10:27:21Z</time>
      </trkpt>
      <trkpt lat="48.98199" lon="-0.51945">
        <ele>163.6</ele>
        <time>2024-04-07T10:27:22Z</time>
      </trkpt>
      <trkpt lat="48.98196" lon="-0.51953">
        <ele>163.8</ele>
        <time>2024-04-07T10:27:23Z</time>
      </trkpt>
      <trkpt lat="48.98194" lon="-0.51961">
        <ele>164.2</ele>
        <time>2024-04-07T10:27:24Z</time>
      </trkpt>
      <trkpt lat="48.98191" lon="-0.51969">
        <ele>164.4</ele>
        <time>2024-04-07T10:27:25Z</time>
      </trkpt>
      <trkpt lat="48.98189" lon="-0.51977">
        <ele>164.6</ele>
        <time>2024-04-07T10:27:26Z</time>
      </trkpt>
      <trkpt lat="48.98187" lon="-0.51985">
        <ele>164.8</ele>
        <time>2024-04-07T10:27:27Z</time>
      </trkpt>
      <trkpt lat="48.98185" lon="-0.51992">
        <ele>165</ele>
        <time>2024-04-07T10:27:28Z</time>
      </trkpt>
      <trkpt lat="48.98182" lon="-0.52">
        <ele>165</ele>
        <time>2024-04-07T10:27:29Z</time>
      </trkpt>
      <trkpt lat="48.98179" lon="-0.52007">
        <ele>165.2</ele>
        <time>2024-04-07T10:27:30Z</time>
      </trkpt>
      <trkpt lat="48.98178" lon="-0.52014">
        <ele>165.2</ele>
        <time>2024-04-07T10:27:31Z</time>
      </trkpt>
      <trkpt lat="48.98175" lon="-0.52021">
        <ele>165</ele>
        <time>2024-04-07T10:27:32Z</time>
      </trkpt>
      <trkpt lat="48.98173" lon="-0.52028">
        <ele>164.8</ele>
        <time>2024-04-07T10:27:33Z</time>
      </trkpt>
      <trkpt lat="48.98171" lon="-0.52035">
        <ele>165</ele>
        <time>2024-04-07T10:27:34Z</time>
      </trkpt>
      <trkpt lat="48.98169" lon="-0.52041">
        <ele>165.2</ele>
        <time>2024-04-07T10:27:35Z</time>
      </trkpt>
      <trkpt lat="48.98167" lon="-0.52048">
        <ele>165.4</ele>
        <time>2024-04-07T10:27:36Z</time>
      </trkpt>
      <trkpt lat="48.98164" lon="-0.52056">
        <ele>165.4</ele>
        <time>2024-04-07T10:27:37Z</time>
      </trkpt>
      <trkpt lat="48.98162" lon="-0.52063">
        <ele>165.8</ele>
        <time>2024-04-07T10:27:38Z</time>
      </trkpt>
      <trkpt lat="48.9816" lon="-0.52069">
        <ele>165.8</ele>
        <time>2024-04-07T10:27:39Z</time>
      </trkpt>
      <trkpt lat="48.98157" lon="-0.52076">
        <ele>166</ele>
        <time>2024-04-07T10:27:40Z</time>
      </trkpt>
      <trkpt lat="48.98154" lon="-0.52084">
        <ele>166.2</ele>
        <time>2024-04-07T10:27:41Z</time>
      </trkpt>
      <trkpt lat="48.98151" lon="-0.52091">
        <ele>166.4</ele>
        <time>2024-04-07T10:27:42Z</time>
      </trkpt>
      <trkpt lat="48.98148" lon="-0.52098">
        <ele>166.6</ele>
        <time>2024-04-07T10:27:43Z</time>
      </trkpt>
      <trkpt lat="48.98146" lon="-0.52106">
        <ele>166.6</ele>
        <time>2024-04-07T10:27:44Z</time>
      </trkpt>
      <trkpt lat="48.98143" lon="-0.52113">
        <ele>166.8</ele>
        <time>2024-04-07T10:27:45Z</time>
      </trkpt>
      <trkpt lat="48.98142" lon="-0.52117">
        <ele>167.2</ele>
        <time>2024-04-07T10:27:46Z</time>
      </trkpt>
      <trkpt lat="48.98141" lon="-0.5212">
        <ele>167.4</ele>
        <time>2024-04-07T10:27:47Z</time>
      </trkpt>
      <trkpt lat="48.98136" lon="-0.52133">
        <ele>167.6</ele>
        <time>2024-04-07T10:27:48Z</time>
      </trkpt>
      <trkpt lat="48.98135" lon="-0.52138">
        <ele>167.8</ele>
        <time>2024-04-07T10:27:49Z</time>
      </trkpt>
      <trkpt lat="48.98131" lon="-0.52149">
        <ele>168</ele>
        <time>2024-04-07T10:27:50Z</time>
      </trkpt>
      <trkpt lat="48.98128" lon="-0.52157">
        <ele>168.2</ele>
        <time>2024-04-07T10:27:51Z</time>
      </trkpt>
      <trkpt lat="48.98125" lon="-0.52164">
        <ele>168.2</ele>
        <time>2024-04-07T10:27:52Z</time>
      </trkpt>
      <trkpt lat="48.98122" lon="-0.52171">
        <ele>168.4</ele>
        <time>2024-04-07T10:27:53Z</time>
      </trkpt>
      <trkpt lat="48.98119" lon="-0.5218">
        <ele>168.4</ele>
        <time>2024-04-07T10:27:54Z</time>
      </trkpt>
      <trkpt lat="48.98115" lon="-0.52187">
        <ele>168.4</ele>
        <time>2024-04-07T10:27:55Z</time>
      </trkpt>
      <trkpt lat="48.98113" lon="-0.52194">
        <ele>168.4</ele>
        <time>2024-04-07T10:27:56Z</time>
      </trkpt>
      <trkpt lat="48.9811" lon="-0.52201">
        <ele>168.4</ele>
        <time>2024-04-07T10:27:57Z</time>
      </trkpt>
      <trkpt lat="48.98107" lon="-0.52209">
        <ele>168.4</ele>
        <time>2024-04-07T10:27:58Z</time>
      </trkpt>
      <trkpt lat="48.98104" lon="-0.52216">
        <ele>168.6</ele>
        <time>2024-04-07T10:27:59Z</time>
      </trkpt>
      <trkpt lat="48.98102" lon="-0.52224">
        <ele>168.6</ele>
        <time>2024-04-07T10:28:00Z</time>
      </trkpt>
      <trkpt lat="48.981" lon="-0.52231">
        <ele>168.6</ele>
        <time>2024-04-07T10:28:01Z</time>
      </trkpt>
      <trkpt lat="48.98098" lon="-0.52237">
        <ele>168.8</ele>
        <time>2024-04-07T10:28:02Z</time>
      </trkpt>
      <trkpt lat="48.98096" lon="-0.52243">
        <ele>168.8</ele>
        <time>2024-04-07T10:28:03Z</time>
      </trkpt>
      <trkpt lat="48.98094" lon="-0.5225">
        <ele>169</ele>
        <time>2024-04-07T10:28:04Z</time>
      </trkpt>
      <trkpt lat="48.98092" lon="-0.52256">
        <ele>169.2</ele>
        <time>2024-04-07T10:28:05Z</time>
      </trkpt>
      <trkpt lat="48.9809" lon="-0.52262">
        <ele>169.2</ele>
        <time>2024-04-07T10:28:06Z</time>
      </trkpt>
      <trkpt lat="48.98087" lon="-0.52268">
        <ele>169.4</ele>
        <time>2024-04-07T10:28:07Z</time>
      </trkpt>
      <trkpt lat="48.98087" lon="-0.52268">
        <ele>169.8</ele>
        <time>2024-04-07T10:28:08Z</time>
      </trkpt>
      <trkpt lat="48.98082" lon="-0.52282">
        <ele>170.4</ele>
        <time>2024-04-07T10:28:09Z</time>
      </trkpt>
      <trkpt lat="48.9808" lon="-0.5229">
        <ele>170.8</ele>
        <time>2024-04-07T10:28:10Z</time>
      </trkpt>
      <trkpt lat="48.98077" lon="-0.52296">
        <ele>171.2</ele>
        <time>2024-04-07T10:28:11Z</time>
      </trkpt>
      <trkpt lat="48.98074" lon="-0.52304">
        <ele>171.6</ele>
        <time>2024-04-07T10:28:12Z</time>
      </trkpt>
      <trkpt lat="48.98072" lon="-0.5231">
        <ele>171.8</ele>
        <time>2024-04-07T10:28:13Z</time>
      </trkpt>
      <trkpt lat="48.9807" lon="-0.52317">
        <ele>172</ele>
        <time>2024-04-07T10:28:14Z</time>
      </trkpt>
      <trkpt lat="48.98067" lon="-0.52324">
        <ele>172.2</ele>
        <time>2024-04-07T10:28:15Z</time>
      </trkpt>
      <trkpt lat="48.98064" lon="-0.52331">
        <ele>172.4</ele>
        <time>2024-04-07T10:28:16Z</time>
      </trkpt>
      <trkpt lat="48.98061" lon="-0.5234">
        <ele>172.4</ele>
        <time>2024-04-07T10:28:17Z</time>
      </trkpt>
      <trkpt lat="48.98058" lon="-0.52348">
        <ele>172.4</ele>
        <time>2024-04-07T10:28:18Z</time>
      </trkpt>
      <trkpt lat="48.98055" lon="-0.52357">
        <ele>172.4</ele>
        <time>2024-04-07T10:28:19Z</time>
      </trkpt>
      <trkpt lat="48.98055" lon="-0.52357">
        <ele>172.4</ele>
        <time>2024-04-07T10:28:20Z</time>
      </trkpt>
      <trkpt lat="48.98049" lon="-0.52372">
        <ele>172.4</ele>
        <time>2024-04-07T10:28:21Z</time>
      </trkpt>
      <trkpt lat="48.98046" lon="-0.5238">
        <ele>172.2</ele>
        <time>2024-04-07T10:28:22Z</time>
      </trkpt>
      <trkpt lat="48.98043" lon="-0.52388">
        <ele>172</ele>
        <time>2024-04-07T10:28:23Z</time>
      </trkpt>
      <trkpt lat="48.98041" lon="-0.52396">
        <ele>172</ele>
        <time>2024-04-07T10:28:24Z</time>
      </trkpt>
      <trkpt lat="48.98039" lon="-0.52404">
        <ele>172</ele>
        <time>2024-04-07T10:28:25Z</time>
      </trkpt>
      <trkpt lat="48.98037" lon="-0.52412">
        <ele>172.2</ele>
        <time>2024-04-07T10:28:26Z</time>
      </trkpt>
      <trkpt lat="48.98034" lon="-0.5242">
        <ele>172.6</ele>
        <time>2024-04-07T10:28:27Z</time>
      </trkpt>
      <trkpt lat="48.98032" lon="-0.52428">
        <ele>172.8</ele>
        <time>2024-04-07T10:28:28Z</time>
      </trkpt>
      <trkpt lat="48.9803" lon="-0.52436">
        <ele>173</ele>
        <time>2024-04-07T10:28:29Z</time>
      </trkpt>
      <trkpt lat="48.98028" lon="-0.52444">
        <ele>173.4</ele>
        <time>2024-04-07T10:28:30Z</time>
      </trkpt>
      <trkpt lat="48.98026" lon="-0.52453">
        <ele>173.8</ele>
        <time>2024-04-07T10:28:31Z</time>
      </trkpt>
      <trkpt lat="48.98023" lon="-0.52461">
        <ele>174.2</ele>
        <time>2024-04-07T10:28:32Z</time>
      </trkpt>
      <trkpt lat="48.98021" lon="-0.52469">
        <ele>174.4</ele>
        <time>2024-04-07T10:28:33Z</time>
      </trkpt>
      <trkpt lat="48.98019" lon="-0.52477">
        <ele>174.6</ele>
        <time>2024-04-07T10:28:34Z</time>
      </trkpt>
      <trkpt lat="48.98017" lon="-0.52485">
        <ele>175</ele>
        <time>2024-04-07T10:28:35Z</time>
      </trkpt>
      <trkpt lat="48.98014" lon="-0.52494">
        <ele>175.4</ele>
        <time>2024-04-07T10:28:36Z</time>
      </trkpt>
      <trkpt lat="48.98012" lon="-0.52502">
        <ele>175.8</ele>
        <time>2024-04-07T10:28:37Z</time>
      </trkpt>
      <trkpt lat="48.9801" lon="-0.5251">
        <ele>176</ele>
        <time>2024-04-07T10:28:38Z</time>
      </trkpt>
      <trkpt lat="48.98008" lon="-0.52519">
        <ele>176</ele>
        <time>2024-04-07T10:28:39Z</time>
      </trkpt>
      <trkpt lat="48.98005" lon="-0.52528">
        <ele>175.8</ele>
        <time>2024-04-07T10:28:40Z</time>
      </trkpt>
      <trkpt lat="48.98003" lon="-0.52536">
        <ele>175.6</ele>
        <time>2024-04-07T10:28:41Z</time>
      </trkpt>
      <trkpt lat="48.98001" lon="-0.52544">
        <ele>175.4</ele>
        <time>2024-04-07T10:28:42Z</time>
      </trkpt>
      <trkpt lat="48.97999" lon="-0.52552">
        <ele>175</ele>
        <time>2024-04-07T10:28:43Z</time>
      </trkpt>
      <trkpt lat="48.97997" lon="-0.5256">
        <ele>175</ele>
        <time>2024-04-07T10:28:44Z</time>
      </trkpt>
      <trkpt lat="48.97995" lon="-0.52568">
        <ele>175</ele>
        <time>2024-04-07T10:28:45Z</time>
      </trkpt>
      <trkpt lat="48.97993" lon="-0.52577">
        <ele>175</ele>
        <time>2024-04-07T10:28:46Z</time>
      </trkpt>
      <trkpt lat="48.97991" lon="-0.52586">
        <ele>175</ele>
        <time>2024-04-07T10:28:47Z</time>
      </trkpt>
      <trkpt lat="48.97989" lon="-0.52594">
        <ele>175.2</ele>
        <time>2024-04-07T10:28:48Z</time>
      </trkpt>
      <trkpt lat="48.97987" lon="-0.52601">
        <ele>175.2</ele>
        <time>2024-04-07T10:28:49Z</time>
      </trkpt>
      <trkpt lat="48.97986" lon="-0.52607">
        <ele>175.4</ele>
        <time>2024-04-07T10:28:50Z</time>
      </trkpt>
      <trkpt lat="48.97983" lon="-0.5262">
        <ele>175.6</ele>
        <time>2024-04-07T10:28:51Z</time>
      </trkpt>
      <trkpt lat="48.97981" lon="-0.52628">
        <ele>176</ele>
        <time>2024-04-07T10:28:52Z</time>
      </trkpt>
      <trkpt lat="48.97978" lon="-0.52637">
        <ele>176.2</ele>
        <time>2024-04-07T10:28:53Z</time>
      </trkpt>
      <trkpt lat="48.97975" lon="-0.52644">
        <ele>176.4</ele>
        <time>2024-04-07T10:28:54Z</time>
      </trkpt>
      <trkpt lat="48.97973" lon="-0.52653">
        <ele>176.4</ele>
        <time>2024-04-07T10:28:55Z</time>
      </trkpt>
      <trkpt lat="48.9797" lon="-0.52662">
        <ele>176.4</ele>
        <time>2024-04-07T10:28:56Z</time>
      </trkpt>
      <trkpt lat="48.97968" lon="-0.52671">
        <ele>176.2</ele>
        <time>2024-04-07T10:28:57Z</time>
      </trkpt>
      <trkpt lat="48.97965" lon="-0.5268">
        <ele>176.2</ele>
        <time>2024-04-07T10:28:58Z</time>
      </trkpt>
      <trkpt lat="48.97963" lon="-0.52689">
        <ele>176</ele>
        <time>2024-04-07T10:28:59Z</time>
      </trkpt>
      <trkpt lat="48.9796" lon="-0.52699">
        <ele>175.6</ele>
        <time>2024-04-07T10:29:00Z</time>
      </trkpt>
      <trkpt lat="48.97958" lon="-0.52707">
        <ele>175</ele>
        <time>2024-04-07T10:29:01Z</time>
      </trkpt>
      <trkpt lat="48.97958" lon="-0.52707">
        <ele>174.4</ele>
        <time>2024-04-07T10:29:02Z</time>
      </trkpt>
      <trkpt lat="48.97953" lon="-0.52725">
        <ele>174</ele>
        <time>2024-04-07T10:29:03Z</time>
      </trkpt>
      <trkpt lat="48.97951" lon="-0.52734">
        <ele>173.6</ele>
        <time>2024-04-07T10:29:04Z</time>
      </trkpt>
      <trkpt lat="48.97948" lon="-0.52742">
        <ele>173.6</ele>
        <time>2024-04-07T10:29:05Z</time>
      </trkpt>
      <trkpt lat="48.97946" lon="-0.52751">
        <ele>173.6</ele>
        <time>2024-04-07T10:29:06Z</time>
      </trkpt>
      <trkpt lat="48.97944" lon="-0.52759">
        <ele>173.6</ele>
        <time>2024-04-07T10:29:07Z</time>
      </trkpt>
      <trkpt lat="48.97942" lon="-0.52768">
        <ele>173.6</ele>
        <time>2024-04-07T10:29:08Z</time>
      </trkpt>
      <trkpt lat="48.9794" lon="-0.52776">
        <ele>174.4</ele>
        <time>2024-04-07T10:29:09Z</time>
      </trkpt>
      <trkpt lat="48.97937" lon="-0.52785">
        <ele>175</ele>
        <time>2024-04-07T10:29:10Z</time>
      </trkpt>
      <trkpt lat="48.97935" lon="-0.52794">
        <ele>175.6</ele>
        <time>2024-04-07T10:29:11Z</time>
      </trkpt>
      <trkpt lat="48.97933" lon="-0.52802">
        <ele>175.8</ele>
        <time>2024-04-07T10:29:12Z</time>
      </trkpt>
      <trkpt lat="48.97931" lon="-0.52811">
        <ele>176</ele>
        <time>2024-04-07T10:29:13Z</time>
      </trkpt>
      <trkpt lat="48.97929" lon="-0.5282">
        <ele>176</ele>
        <time>2024-04-07T10:29:14Z</time>
      </trkpt>
      <trkpt lat="48.97927" lon="-0.52828">
        <ele>176.2</ele>
        <time>2024-04-07T10:29:15Z</time>
      </trkpt>
      <trkpt lat="48.97924" lon="-0.52837">
        <ele>176.6</ele>
        <time>2024-04-07T10:29:16Z</time>
      </trkpt>
      <trkpt lat="48.97922" lon="-0.52846">
        <ele>177</ele>
        <time>2024-04-07T10:29:17Z</time>
      </trkpt>
      <trkpt lat="48.9792" lon="-0.52855">
        <ele>177.2</ele>
        <time>2024-04-07T10:29:18Z</time>
      </trkpt>
      <trkpt lat="48.97918" lon="-0.52863">
        <ele>177.6</ele>
        <time>2024-04-07T10:29:19Z</time>
      </trkpt>
      <trkpt lat="48.97916" lon="-0.52871">
        <ele>177.6</ele>
        <time>2024-04-07T10:29:20Z</time>
      </trkpt>
      <trkpt lat="48.97914" lon="-0.52879">
        <ele>177.8</ele>
        <time>2024-04-07T10:29:21Z</time>
      </trkpt>
      <trkpt lat="48.97912" lon="-0.52887">
        <ele>177.8</ele>
        <time>2024-04-07T10:29:22Z</time>
      </trkpt>
      <trkpt lat="48.9791" lon="-0.52896">
        <ele>177.8</ele>
        <time>2024-04-07T10:29:23Z</time>
      </trkpt>
      <trkpt lat="48.97908" lon="-0.52904">
        <ele>178</ele>
        <time>2024-04-07T10:29:24Z</time>
      </trkpt>
      <trkpt lat="48.97906" lon="-0.52913">
        <ele>178.4</ele>
        <time>2024-04-07T10:29:25Z</time>
      </trkpt>
      <trkpt lat="48.97904" lon="-0.52922">
        <ele>178.6</ele>
        <time>2024-04-07T10:29:26Z</time>
      </trkpt>
      <trkpt lat="48.97902" lon="-0.5293">
        <ele>178.8</ele>
        <time>2024-04-07T10:29:27Z</time>
      </trkpt>
      <trkpt lat="48.979" lon="-0.52939">
        <ele>179</ele>
        <time>2024-04-07T10:29:28Z</time>
      </trkpt>
      <trkpt lat="48.97897" lon="-0.52947">
        <ele>179.2</ele>
        <time>2024-04-07T10:29:29Z</time>
      </trkpt>
      <trkpt lat="48.97895" lon="-0.52955">
        <ele>179.6</ele>
        <time>2024-04-07T10:29:30Z</time>
      </trkpt>
      <trkpt lat="48.97893" lon="-0.52964">
        <ele>179.8</ele>
        <time>2024-04-07T10:29:31Z</time>
      </trkpt>
      <trkpt lat="48.97891" lon="-0.52972">
        <ele>179.8</ele>
        <time>2024-04-07T10:29:32Z</time>
      </trkpt>
      <trkpt lat="48.97888" lon="-0.52981">
        <ele>180.2</ele>
        <time>2024-04-07T10:29:33Z</time>
      </trkpt>
      <trkpt lat="48.97886" lon="-0.52989">
        <ele>180.2</ele>
        <time>2024-04-07T10:29:34Z</time>
      </trkpt>
      <trkpt lat="48.97884" lon="-0.52997">
        <ele>180.4</ele>
        <time>2024-04-07T10:29:35Z</time>
      </trkpt>
      <trkpt lat="48.97881" lon="-0.53006">
        <ele>180.4</ele>
        <time>2024-04-07T10:29:36Z</time>
      </trkpt>
      <trkpt lat="48.97879" lon="-0.53015">
        <ele>180.4</ele>
        <time>2024-04-07T10:29:37Z</time>
      </trkpt>
      <trkpt lat="48.97876" lon="-0.53024">
        <ele>180.2</ele>
        <time>2024-04-07T10:29:38Z</time>
      </trkpt>
      <trkpt lat="48.97874" lon="-0.53032">
        <ele>180</ele>
        <time>2024-04-07T10:29:39Z</time>
      </trkpt>
      <trkpt lat="48.97872" lon="-0.53041">
        <ele>180</ele>
        <time>2024-04-07T10:29:40Z</time>
      </trkpt>
      <trkpt lat="48.9787" lon="-0.5305">
        <ele>179.8</ele>
        <time>2024-04-07T10:29:41Z</time>
      </trkpt>
      <trkpt lat="48.97868" lon="-0.53058">
        <ele>179.8</ele>
        <time>2024-04-07T10:29:42Z</time>
      </trkpt>
      <trkpt lat="48.97866" lon="-0.53066">
        <ele>179.8</ele>
        <time>2024-04-07T10:29:43Z</time>
      </trkpt>
      <trkpt lat="48.97864" lon="-0.53074">
        <ele>179.8</ele>
        <time>2024-04-07T10:29:44Z</time>
      </trkpt>
      <trkpt lat="48.97862" lon="-0.53082">
        <ele>179.8</ele>
        <time>2024-04-07T10:29:45Z</time>
      </trkpt>
      <trkpt lat="48.9786" lon="-0.5309">
        <ele>179.8</ele>
        <time>2024-04-07T10:29:46Z</time>
      </trkpt>
      <trkpt lat="48.97858" lon="-0.53098">
        <ele>180</ele>
        <time>2024-04-07T10:29:47Z</time>
      </trkpt>
      <trkpt lat="48.97856" lon="-0.53107">
        <ele>180.2</ele>
        <time>2024-04-07T10:29:48Z</time>
      </trkpt>
      <trkpt lat="48.97854" lon="-0.53115">
        <ele>180.4</ele>
        <time>2024-04-07T10:29:49Z</time>
      </trkpt>
      <trkpt lat="48.97851" lon="-0.53123">
        <ele>180.6</ele>
        <time>2024-04-07T10:29:50Z</time>
      </trkpt>
      <trkpt lat="48.97849" lon="-0.53131">
        <ele>180.8</ele>
        <time>2024-04-07T10:29:51Z</time>
      </trkpt>
      <trkpt lat="48.97847" lon="-0.53139">
        <ele>180.8</ele>
        <time>2024-04-07T10:29:52Z</time>
      </trkpt>
      <trkpt lat="48.97845" lon="-0.53147">
        <ele>180.8</ele>
        <time>2024-04-07T10:29:53Z</time>
      </trkpt>
      <trkpt lat="48.97842" lon="-0.53155">
        <ele>180.8</ele>
        <time>2024-04-07T10:29:54Z</time>
      </trkpt>
      <trkpt lat="48.9784" lon="-0.53162">
        <ele>180.6</ele>
        <time>2024-04-07T10:29:55Z</time>
      </trkpt>
      <trkpt lat="48.97837" lon="-0.5317">
        <ele>180.6</ele>
        <time>2024-04-07T10:29:56Z</time>
      </trkpt>
      <trkpt lat="48.97835" lon="-0.53177">
        <ele>180.4</ele>
        <time>2024-04-07T10:29:57Z</time>
      </trkpt>
      <trkpt lat="48.97832" lon="-0.53184">
        <ele>180.4</ele>
        <time>2024-04-07T10:29:58Z</time>
      </trkpt>
      <trkpt lat="48.97829" lon="-0.53191">
        <ele>180.6</ele>
        <time>2024-04-07T10:29:59Z</time>
      </trkpt>
      <trkpt lat="48.97825" lon="-0.53198">
        <ele>181</ele>
        <time>2024-04-07T10:30:00Z</time>
      </trkpt>
      <trkpt lat="48.97822" lon="-0.53205">
        <ele>181.4</ele>
        <time>2024-04-07T10:30:01Z</time>
      </trkpt>
      <trkpt lat="48.97818" lon="-0.53212">
        <ele>182.2</ele>
        <time>2024-04-07T10:30:02Z</time>
      </trkpt>
      <trkpt lat="48.97813" lon="-0.53218">
        <ele>182.6</ele>
        <time>2024-04-07T10:30:03Z</time>
      </trkpt>
      <trkpt lat="48.97809" lon="-0.53224">
        <ele>183.2</ele>
        <time>2024-04-07T10:30:04Z</time>
      </trkpt>
      <trkpt lat="48.97804" lon="-0.5323">
        <ele>183.6</ele>
        <time>2024-04-07T10:30:05Z</time>
      </trkpt>
      <trkpt lat="48.97798" lon="-0.53236">
        <ele>184</ele>
        <time>2024-04-07T10:30:06Z</time>
      </trkpt>
      <trkpt lat="48.97793" lon="-0.53241">
        <ele>184.2</ele>
        <time>2024-04-07T10:30:07Z</time>
      </trkpt>
      <trkpt lat="48.97788" lon="-0.53246">
        <ele>184.2</ele>
        <time>2024-04-07T10:30:08Z</time>
      </trkpt>
      <trkpt lat="48.97782" lon="-0.53251">
        <ele>184.4</ele>
        <time>2024-04-07T10:30:09Z</time>
      </trkpt>
      <trkpt lat="48.97776" lon="-0.53255">
        <ele>184.4</ele>
        <time>2024-04-07T10:30:10Z</time>
      </trkpt>
      <trkpt lat="48.97771" lon="-0.5326">
        <ele>184.4</ele>
        <time>2024-04-07T10:30:11Z</time>
      </trkpt>
      <trkpt lat="48.97765" lon="-0.53264">
        <ele>184.4</ele>
        <time>2024-04-07T10:30:12Z</time>
      </trkpt>
      <trkpt lat="48.97759" lon="-0.53268">
        <ele>184.6</ele>
        <time>2024-04-07T10:30:13Z</time>
      </trkpt>
      <trkpt lat="48.97753" lon="-0.53272">
        <ele>185</ele>
        <time>2024-04-07T10:30:14Z</time>
      </trkpt>
      <trkpt lat="48.97747" lon="-0.53276">
        <ele>185.2</ele>
        <time>2024-04-07T10:30:15Z</time>
      </trkpt>
      <trkpt lat="48.97742" lon="-0.5328">
        <ele>185.4</ele>
        <time>2024-04-07T10:30:16Z</time>
      </trkpt>
      <trkpt lat="48.97736" lon="-0.53283">
        <ele>185.6</ele>
        <time>2024-04-07T10:30:17Z</time>
      </trkpt>
      <trkpt lat="48.97731" lon="-0.53287">
        <ele>185.8</ele>
        <time>2024-04-07T10:30:18Z</time>
      </trkpt>
      <trkpt lat="48.97725" lon="-0.53291">
        <ele>186</ele>
        <time>2024-04-07T10:30:19Z</time>
      </trkpt>
      <trkpt lat="48.97719" lon="-0.53295">
        <ele>186.2</ele>
        <time>2024-04-07T10:30:20Z</time>
      </trkpt>
      <trkpt lat="48.97714" lon="-0.53299">
        <ele>186.4</ele>
        <time>2024-04-07T10:30:21Z</time>
      </trkpt>
      <trkpt lat="48.97708" lon="-0.53302">
        <ele>186.6</ele>
        <time>2024-04-07T10:30:22Z</time>
      </trkpt>
      <trkpt lat="48.97703" lon="-0.53306">
        <ele>186.8</ele>
        <time>2024-04-07T10:30:23Z</time>
      </trkpt>
      <trkpt lat="48.97697" lon="-0.5331">
        <ele>186.8</ele>
        <time>2024-04-07T10:30:24Z</time>
      </trkpt>
      <trkpt lat="48.97692" lon="-0.53314">
        <ele>186.8</ele>
        <time>2024-04-07T10:30:25Z</time>
      </trkpt>
      <trkpt lat="48.97687" lon="-0.53317">
        <ele>186.8</ele>
        <time>2024-04-07T10:30:26Z</time>
      </trkpt>
      <trkpt lat="48.97682" lon="-0.53321">
        <ele>186.8</ele>
        <time>2024-04-07T10:30:27Z</time>
      </trkpt>
      <trkpt lat="48.97677" lon="-0.53325">
        <ele>186.8</ele>
        <time>2024-04-07T10:30:28Z</time>
      </trkpt>
      <trkpt lat="48.97672" lon="-0.53329">
        <ele>186.8</ele>
        <time>2024-04-07T10:30:29Z</time>
      </trkpt>
      <trkpt lat="48.97667" lon="-0.53332">
        <ele>186.8</ele>
        <time>2024-04-07T10:30:30Z</time>
      </trkpt>
      <trkpt lat="48.97663" lon="-0.53336">
        <ele>186.8</ele>
        <time>2024-04-07T10:30:31Z</time>
      </trkpt>
      <trkpt lat="48.97658" lon="-0.5334">
        <ele>186.8</ele>
        <time>2024-04-07T10:30:32Z</time>
      </trkpt>
      <trkpt lat="48.97654" lon="-0.53345">
        <ele>187</ele>
        <time>2024-04-07T10:30:33Z</time>
      </trkpt>
      <trkpt lat="48.9765" lon="-0.5335">
        <ele>187.2</ele>
        <time>2024-04-07T10:30:34Z</time>
      </trkpt>
      <trkpt lat="48.97646" lon="-0.53357">
        <ele>187.4</ele>
        <time>2024-04-07T10:30:35Z</time>
      </trkpt>
      <trkpt lat="48.97642" lon="-0.53364">
        <ele>187.4</ele>
        <time>2024-04-07T10:30:36Z</time>
      </trkpt>
      <trkpt lat="48.97639" lon="-0.5337">
        <ele>187.6</ele>
        <time>2024-04-07T10:30:37Z</time>
      </trkpt>
      <trkpt lat="48.97637" lon="-0.53377">
        <ele>187.8</ele>
        <time>2024-04-07T10:30:38Z</time>
      </trkpt>
      <trkpt lat="48.97634" lon="-0.53385">
        <ele>188.2</ele>
        <time>2024-04-07T10:30:39Z</time>
      </trkpt>
      <trkpt lat="48.97633" lon="-0.53393">
        <ele>188.2</ele>
        <time>2024-04-07T10:30:40Z</time>
      </trkpt>
      <trkpt lat="48.97632" lon="-0.53402">
        <ele>188.4</ele>
        <time>2024-04-07T10:30:41Z</time>
      </trkpt>
      <trkpt lat="48.97632" lon="-0.5341">
        <ele>188.6</ele>
        <time>2024-04-07T10:30:42Z</time>
      </trkpt>
      <trkpt lat="48.97632" lon="-0.53419">
        <ele>188.6</ele>
        <time>2024-04-07T10:30:43Z</time>
      </trkpt>
      <trkpt lat="48.97632" lon="-0.53427">
        <ele>188.6</ele>
        <time>2024-04-07T10:30:44Z</time>
      </trkpt>
      <trkpt lat="48.97634" lon="-0.53436">
        <ele>188.8</ele>
        <time>2024-04-07T10:30:45Z</time>
      </trkpt>
      <trkpt lat="48.97635" lon="-0.53443">
        <ele>189</ele>
        <time>2024-04-07T10:30:46Z</time>
      </trkpt>
      <trkpt lat="48.97637" lon="-0.53452">
        <ele>189</ele>
        <time>2024-04-07T10:30:47Z</time>
      </trkpt>
      <trkpt lat="48.97639" lon="-0.5346">
        <ele>189.2</ele>
        <time>2024-04-07T10:30:48Z</time>
      </trkpt>
      <trkpt lat="48.97642" lon="-0.53468">
        <ele>189.4</ele>
        <time>2024-04-07T10:30:49Z</time>
      </trkpt>
      <trkpt lat="48.97644" lon="-0.53476">
        <ele>189.4</ele>
        <time>2024-04-07T10:30:50Z</time>
      </trkpt>
      <trkpt lat="48.97647" lon="-0.53484">
        <ele>189.8</ele>
        <time>2024-04-07T10:30:51Z</time>
      </trkpt>
      <trkpt lat="48.97651" lon="-0.53492">
        <ele>190</ele>
        <time>2024-04-07T10:30:52Z</time>
      </trkpt>
      <trkpt lat="48.97654" lon="-0.53499">
        <ele>190.2</ele>
        <time>2024-04-07T10:30:53Z</time>
      </trkpt>
      <trkpt lat="48.97657" lon="-0.53506">
        <ele>190.4</ele>
        <time>2024-04-07T10:30:54Z</time>
      </trkpt>
      <trkpt lat="48.9766" lon="-0.53513">
        <ele>190.6</ele>
        <time>2024-04-07T10:30:55Z</time>
      </trkpt>
      <trkpt lat="48.97664" lon="-0.5352">
        <ele>190.8</ele>
        <time>2024-04-07T10:30:56Z</time>
      </trkpt>
      <trkpt lat="48.97667" lon="-0.53528">
        <ele>191</ele>
        <time>2024-04-07T10:30:57Z</time>
      </trkpt>
      <trkpt lat="48.9767" lon="-0.53535">
        <ele>191.4</ele>
        <time>2024-04-07T10:30:58Z</time>
      </trkpt>
      <trkpt lat="48.97672" lon="-0.53542">
        <ele>191.8</ele>
        <time>2024-04-07T10:30:59Z</time>
      </trkpt>
      <trkpt lat="48.97676" lon="-0.53548">
        <ele>192.2</ele>
        <time>2024-04-07T10:31:00Z</time>
      </trkpt>
      <trkpt lat="48.97679" lon="-0.53555">
        <ele>192.4</ele>
        <time>2024-04-07T10:31:01Z</time>
      </trkpt>
      <trkpt lat="48.97682" lon="-0.53561">
        <ele>192.6</ele>
        <time>2024-04-07T10:31:02Z</time>
      </trkpt>
      <trkpt lat="48.97686" lon="-0.53568">
        <ele>193</ele>
        <time>2024-04-07T10:31:03Z</time>
      </trkpt>
      <trkpt lat="48.97689" lon="-0.53575">
        <ele>193.4</ele>
        <time>2024-04-07T10:31:04Z</time>
      </trkpt>
      <trkpt lat="48.97692" lon="-0.53581">
        <ele>193.8</ele>
        <time>2024-04-07T10:31:05Z</time>
      </trkpt>
      <trkpt lat="48.97696" lon="-0.53587">
        <ele>194.2</ele>
        <time>2024-04-07T10:31:06Z</time>
      </trkpt>
      <trkpt lat="48.97699" lon="-0.53594">
        <ele>194.4</ele>
        <time>2024-04-07T10:31:07Z</time>
      </trkpt>
      <trkpt lat="48.97703" lon="-0.536">
        <ele>194.4</ele>
        <time>2024-04-07T10:31:08Z</time>
      </trkpt>
      <trkpt lat="48.97706" lon="-0.53606">
        <ele>194.4</ele>
        <time>2024-04-07T10:31:09Z</time>
      </trkpt>
      <trkpt lat="48.9771" lon="-0.53612">
        <ele>194.6</ele>
        <time>2024-04-07T10:31:10Z</time>
      </trkpt>
      <trkpt lat="48.97713" lon="-0.53619">
        <ele>194.6</ele>
        <time>2024-04-07T10:31:11Z</time>
      </trkpt>
      <trkpt lat="48.97717" lon="-0.53626">
        <ele>194.8</ele>
        <time>2024-04-07T10:31:12Z</time>
      </trkpt>
      <trkpt lat="48.97721" lon="-0.53633">
        <ele>194.8</ele>
        <time>2024-04-07T10:31:13Z</time>
      </trkpt>
      <trkpt lat="48.97725" lon="-0.5364">
        <ele>195</ele>
        <time>2024-04-07T10:31:14Z</time>
      </trkpt>
      <trkpt lat="48.97728" lon="-0.53647">
        <ele>195</ele>
        <time>2024-04-07T10:31:15Z</time>
      </trkpt>
      <trkpt lat="48.97732" lon="-0.53654">
        <ele>195.2</ele>
        <time>2024-04-07T10:31:16Z</time>
      </trkpt>
      <trkpt lat="48.97736" lon="-0.5366">
        <ele>195.4</ele>
        <time>2024-04-07T10:31:17Z</time>
      </trkpt>
      <trkpt lat="48.97739" lon="-0.53667">
        <ele>195.4</ele>
        <time>2024-04-07T10:31:18Z</time>
      </trkpt>
      <trkpt lat="48.97743" lon="-0.53674">
        <ele>195.4</ele>
        <time>2024-04-07T10:31:19Z</time>
      </trkpt>
      <trkpt lat="48.97747" lon="-0.5368">
        <ele>195.6</ele>
        <time>2024-04-07T10:31:20Z</time>
      </trkpt>
      <trkpt lat="48.97751" lon="-0.53686">
        <ele>195.6</ele>
        <time>2024-04-07T10:31:21Z</time>
      </trkpt>
      <trkpt lat="48.97754" lon="-0.53692">
        <ele>195.8</ele>
        <time>2024-04-07T10:31:22Z</time>
      </trkpt>
      <trkpt lat="48.97758" lon="-0.53698">
        <ele>196</ele>
        <time>2024-04-07T10:31:23Z</time>
      </trkpt>
      <trkpt lat="48.97762" lon="-0.53704">
        <ele>196.2</ele>
        <time>2024-04-07T10:31:24Z</time>
      </trkpt>
      <trkpt lat="48.97766" lon="-0.5371">
        <ele>196.4</ele>
        <time>2024-04-07T10:31:25Z</time>
      </trkpt>
      <trkpt lat="48.9777" lon="-0.53716">
        <ele>196.6</ele>
        <time>2024-04-07T10:31:26Z</time>
      </trkpt>
      <trkpt lat="48.97775" lon="-0.53721">
        <ele>196.8</ele>
        <time>2024-04-07T10:31:27Z</time>
      </trkpt>
      <trkpt lat="48.97779" lon="-0.53726">
        <ele>197</ele>
        <time>2024-04-07T10:31:28Z</time>
      </trkpt>
      <trkpt lat="48.97783" lon="-0.53732">
        <ele>197.2</ele>
        <time>2024-04-07T10:31:29Z</time>
      </trkpt>
      <trkpt lat="48.97787" lon="-0.53737">
        <ele>197.4</ele>
        <time>2024-04-07T10:31:30Z</time>
      </trkpt>
      <trkpt lat="48.97791" lon="-0.53743">
        <ele>197.6</ele>
        <time>2024-04-07T10:31:31Z</time>
      </trkpt>
      <trkpt lat="48.97795" lon="-0.53748">
        <ele>198</ele>
        <time>2024-04-07T10:31:32Z</time>
      </trkpt>
      <trkpt lat="48.97799" lon="-0.53752">
        <ele>198.2</ele>
        <time>2024-04-07T10:31:33Z</time>
      </trkpt>
      <trkpt lat="48.97803" lon="-0.53757">
        <ele>198.4</ele>
        <time>2024-04-07T10:31:34Z</time>
      </trkpt>
      <trkpt lat="48.97807" lon="-0.53762">
        <ele>198.6</ele>
        <time>2024-04-07T10:31:35Z</time>
      </trkpt>
      <trkpt lat="48.97812" lon="-0.53767">
        <ele>199</ele>
        <time>2024-04-07T10:31:36Z</time>
      </trkpt>
      <trkpt lat="48.97816" lon="-0.53772">
        <ele>199.2</ele>
        <time>2024-04-07T10:31:37Z</time>
      </trkpt>
      <trkpt lat="48.9782" lon="-0.53776">
        <ele>199.6</ele>
        <time>2024-04-07T10:31:38Z</time>
      </trkpt>
      <trkpt lat="48.97824" lon="-0.5378">
        <ele>199.8</ele>
        <time>2024-04-07T10:31:39Z</time>
      </trkpt>
      <trkpt lat="48.97828" lon="-0.53785">
        <ele>199.8</ele>
        <time>2024-04-07T10:31:40Z</time>
      </trkpt>
      <trkpt lat="48.97832" lon="-0.53789">
        <ele>200.2</ele>
        <time>2024-04-07T10:31:41Z</time>
      </trkpt>
      <trkpt lat="48.97836" lon="-0.53794">
        <ele>200.6</ele>
        <time>2024-04-07T10:31:42Z</time>
      </trkpt>
      <trkpt lat="48.97839" lon="-0.53799">
        <ele>200.8</ele>
        <time>2024-04-07T10:31:43Z</time>
      </trkpt>
      <trkpt lat="48.97843" lon="-0.53804">
        <ele>201</ele>
        <time>2024-04-07T10:31:44Z</time>
      </trkpt>
      <trkpt lat="48.97847" lon="-0.53809">
        <ele>201.2</ele>
        <time>2024-04-07T10:31:45Z</time>
      </trkpt>
      <trkpt lat="48.97851" lon="-0.53814">
        <ele>201.4</ele>
        <time>2024-04-07T10:31:46Z</time>
      </trkpt>
      <trkpt lat="48.97854" lon="-0.53819">
        <ele>201.6</ele>
        <time>2024-04-07T10:31:47Z</time>
      </trkpt>
      <trkpt lat="48.97858" lon="-0.53824">
        <ele>201.8</ele>
        <time>2024-04-07T10:31:48Z</time>
      </trkpt>
      <trkpt lat="48.97862" lon="-0.53829">
        <ele>202</ele>
        <time>2024-04-07T10:31:49Z</time>
      </trkpt>
      <trkpt lat="48.97866" lon="-0.53833">
        <ele>202.2</ele>
        <time>2024-04-07T10:31:50Z</time>
      </trkpt>
      <trkpt lat="48.9787" lon="-0.53838">
        <ele>202.4</ele>
        <time>2024-04-07T10:31:51Z</time>
      </trkpt>
      <trkpt lat="48.97874" lon="-0.53842">
        <ele>202.6</ele>
        <time>2024-04-07T10:31:52Z</time>
      </trkpt>
      <trkpt lat="48.97878" lon="-0.53847">
        <ele>202.8</ele>
        <time>2024-04-07T10:31:53Z</time>
      </trkpt>
      <trkpt lat="48.97882" lon="-0.53851">
        <ele>203.2</ele>
        <time>2024-04-07T10:31:54Z</time>
      </trkpt>
      <trkpt lat="48.97886" lon="-0.53856">
        <ele>203.4</ele>
        <time>2024-04-07T10:31:55Z</time>
      </trkpt>
      <trkpt lat="48.9789" lon="-0.53861">
        <ele>203.8</ele>
        <time>2024-04-07T10:31:56Z</time>
      </trkpt>
      <trkpt lat="48.97894" lon="-0.53865">
        <ele>204.2</ele>
        <time>2024-04-07T10:31:57Z</time>
      </trkpt>
      <trkpt lat="48.97898" lon="-0.5387">
        <ele>204.2</ele>
        <time>2024-04-07T10:31:58Z</time>
      </trkpt>
      <trkpt lat="48.97901" lon="-0.53875">
        <ele>204.4</ele>
        <time>2024-04-07T10:31:59Z</time>
      </trkpt>
      <trkpt lat="48.97905" lon="-0.5388">
        <ele>204.8</ele>
        <time>2024-04-07T10:32:00Z</time>
      </trkpt>
      <trkpt lat="48.97909" lon="-0.53885">
        <ele>205</ele>
        <time>2024-04-07T10:32:01Z</time>
      </trkpt>
      <trkpt lat="48.97912" lon="-0.53891">
        <ele>205.4</ele>
        <time>2024-04-07T10:32:02Z</time>
      </trkpt>
      <trkpt lat="48.97916" lon="-0.53896">
        <ele>206</ele>
        <time>2024-04-07T10:32:03Z</time>
      </trkpt>
      <trkpt lat="48.97919" lon="-0.53902">
        <ele>206.4</ele>
        <time>2024-04-07T10:32:04Z</time>
      </trkpt>
      <trkpt lat="48.97923" lon="-0.53907">
        <ele>206.8</ele>
        <time>2024-04-07T10:32:05Z</time>
      </trkpt>
      <trkpt lat="48.97926" lon="-0.53912">
        <ele>207</ele>
        <time>2024-04-07T10:32:06Z</time>
      </trkpt>
      <trkpt lat="48.97929" lon="-0.53918">
        <ele>207.2</ele>
        <time>2024-04-07T10:32:07Z</time>
      </trkpt>
      <trkpt lat="48.97933" lon="-0.53923">
        <ele>207.4</ele>
        <time>2024-04-07T10:32:08Z</time>
      </trkpt>
      <trkpt lat="48.97936" lon="-0.53929">
        <ele>207.6</ele>
        <time>2024-04-07T10:32:09Z</time>
      </trkpt>
      <trkpt lat="48.97939" lon="-0.53934">
        <ele>208</ele>
        <time>2024-04-07T10:32:10Z</time>
      </trkpt>
      <trkpt lat="48.97942" lon="-0.5394">
        <ele>208.2</ele>
        <time>2024-04-07T10:32:11Z</time>
      </trkpt>
      <trkpt lat="48.97945" lon="-0.53946">
        <ele>208.6</ele>
        <time>2024-04-07T10:32:12Z</time>
      </trkpt>
      <trkpt lat="48.97948" lon="-0.53952">
        <ele>208.8</ele>
        <time>2024-04-07T10:32:13Z</time>
      </trkpt>
      <trkpt lat="48.97951" lon="-0.53959">
        <ele>209</ele>
        <time>2024-04-07T10:32:14Z</time>
      </trkpt>
      <trkpt lat="48.97954" lon="-0.53965">
        <ele>209.2</ele>
        <time>2024-04-07T10:32:15Z</time>
      </trkpt>
      <trkpt lat="48.97957" lon="-0.53971">
        <ele>209.6</ele>
        <time>2024-04-07T10:32:16Z</time>
      </trkpt>
      <trkpt lat="48.97959" lon="-0.53978">
        <ele>209.8</ele>
        <time>2024-04-07T10:32:17Z</time>
      </trkpt>
      <trkpt lat="48.97962" lon="-0.53984">
        <ele>210.2</ele>
        <time>2024-04-07T10:32:18Z</time>
      </trkpt>
      <trkpt lat="48.97965" lon="-0.5399">
        <ele>210.4</ele>
        <time>2024-04-07T10:32:19Z</time>
      </trkpt>
      <trkpt lat="48.97968" lon="-0.53996">
        <ele>210.8</ele>
        <time>2024-04-07T10:32:20Z</time>
      </trkpt>
      <trkpt lat="48.97971" lon="-0.54003">
        <ele>211</ele>
        <time>2024-04-07T10:32:21Z</time>
      </trkpt>
      <trkpt lat="48.97974" lon="-0.54009">
        <ele>211.2</ele>
        <time>2024-04-07T10:32:22Z</time>
      </trkpt>
      <trkpt lat="48.97977" lon="-0.54016">
        <ele>211.2</ele>
        <time>2024-04-07T10:32:23Z</time>
      </trkpt>
      <trkpt lat="48.9798" lon="-0.54022">
        <ele>211.4</ele>
        <time>2024-04-07T10:32:24Z</time>
      </trkpt>
      <trkpt lat="48.97983" lon="-0.54028">
        <ele>211.6</ele>
        <time>2024-04-07T10:32:25Z</time>
      </trkpt>
      <trkpt lat="48.97986" lon="-0.54034">
        <ele>211.8</ele>
        <time>2024-04-07T10:32:26Z</time>
      </trkpt>
      <trkpt lat="48.97989" lon="-0.54039">
        <ele>212</ele>
        <time>2024-04-07T10:32:27Z</time>
      </trkpt>
      <trkpt lat="48.97992" lon="-0.54045">
        <ele>212.2</ele>
        <time>2024-04-07T10:32:28Z</time>
      </trkpt>
      <trkpt lat="48.97995" lon="-0.54051">
        <ele>212.4</ele>
        <time>2024-04-07T10:32:29Z</time>
      </trkpt>
      <trkpt lat="48.97997" lon="-0.54058">
        <ele>212.6</ele>
        <time>2024-04-07T10:32:30Z</time>
      </trkpt>
      <trkpt lat="48.98" lon="-0.54065">
        <ele>212.8</ele>
        <time>2024-04-07T10:32:31Z</time>
      </trkpt>
      <trkpt lat="48.98002" lon="-0.54071">
        <ele>213</ele>
        <time>2024-04-07T10:32:32Z</time>
      </trkpt>
      <trkpt lat="48.98005" lon="-0.54077">
        <ele>213.4</ele>
        <time>2024-04-07T10:32:33Z</time>
      </trkpt>
      <trkpt lat="48.98008" lon="-0.54083">
        <ele>213.8</ele>
        <time>2024-04-07T10:32:34Z</time>
      </trkpt>
      <trkpt lat="48.9801" lon="-0.54088">
        <ele>214.2</ele>
        <time>2024-04-07T10:32:35Z</time>
      </trkpt>
      <trkpt lat="48.98013" lon="-0.54094">
        <ele>214.4</ele>
        <time>2024-04-07T10:32:36Z</time>
      </trkpt>
      <trkpt lat="48.98015" lon="-0.54099">
        <ele>214.6</ele>
        <time>2024-04-07T10:32:37Z</time>
      </trkpt>
      <trkpt lat="48.98018" lon="-0.54105">
        <ele>214.8</ele>
        <time>2024-04-07T10:32:38Z</time>
      </trkpt>
      <trkpt lat="48.9802" lon="-0.5411">
        <ele>215</ele>
        <time>2024-04-07T10:32:39Z</time>
      </trkpt>
      <trkpt lat="48.98023" lon="-0.54116">
        <ele>215.4</ele>
        <time>2024-04-07T10:32:40Z</time>
      </trkpt>
      <trkpt lat="48.98025" lon="-0.54122">
        <ele>216</ele>
        <time>2024-04-07T10:32:41Z</time>
      </trkpt>
      <trkpt lat="48.98028" lon="-0.54128">
        <ele>216.4</ele>
        <time>2024-04-07T10:32:42Z</time>
      </trkpt>
      <trkpt lat="48.98031" lon="-0.54134">
        <ele>216.6</ele>
        <time>2024-04-07T10:32:43Z</time>
      </trkpt>
      <trkpt lat="48.98034" lon="-0.5414">
        <ele>216.8</ele>
        <time>2024-04-07T10:32:44Z</time>
      </trkpt>
      <trkpt lat="48.98037" lon="-0.54147">
        <ele>217</ele>
        <time>2024-04-07T10:32:45Z</time>
      </trkpt>
      <trkpt lat="48.98039" lon="-0.54152">
        <ele>217</ele>
        <time>2024-04-07T10:32:46Z</time>
      </trkpt>
      <trkpt lat="48.98042" lon="-0.54158">
        <ele>217</ele>
        <time>2024-04-07T10:32:47Z</time>
      </trkpt>
      <trkpt lat="48.98045" lon="-0.54163">
        <ele>217.2</ele>
        <time>2024-04-07T10:32:48Z</time>
      </trkpt>
      <trkpt lat="48.98048" lon="-0.54169">
        <ele>217.6</ele>
        <time>2024-04-07T10:32:49Z</time>
      </trkpt>
      <trkpt lat="48.98051" lon="-0.54174">
        <ele>218</ele>
        <time>2024-04-07T10:32:50Z</time>
      </trkpt>
      <trkpt lat="48.98054" lon="-0.5418">
        <ele>218.2</ele>
        <time>2024-04-07T10:32:51Z</time>
      </trkpt>
      <trkpt lat="48.98056" lon="-0.54186">
        <ele>218.4</ele>
        <time>2024-04-07T10:32:52Z</time>
      </trkpt>
      <trkpt lat="48.98059" lon="-0.54192">
        <ele>218.6</ele>
        <time>2024-04-07T10:32:53Z</time>
      </trkpt>
      <trkpt lat="48.98062" lon="-0.54199">
        <ele>218.8</ele>
        <time>2024-04-07T10:32:54Z</time>
      </trkpt>
      <trkpt lat="48.98065" lon="-0.54205">
        <ele>218.8</ele>
        <time>2024-04-07T10:32:55Z</time>
      </trkpt>
      <trkpt lat="48.98068" lon="-0.54211">
        <ele>219</ele>
        <time>2024-04-07T10:32:56Z</time>
      </trkpt>
      <trkpt lat="48.98071" lon="-0.54218">
        <ele>219.2</ele>
        <time>2024-04-07T10:32:57Z</time>
      </trkpt>
      <trkpt lat="48.98074" lon="-0.54225">
        <ele>219.4</ele>
        <time>2024-04-07T10:32:58Z</time>
      </trkpt>
      <trkpt lat="48.98078" lon="-0.54232">
        <ele>219.4</ele>
        <time>2024-04-07T10:32:59Z</time>
      </trkpt>
      <trkpt lat="48.98081" lon="-0.54239">
        <ele>219.6</ele>
        <time>2024-04-07T10:33:00Z</time>
      </trkpt>
      <trkpt lat="48.98084" lon="-0.54246">
        <ele>219.6</ele>
        <time>2024-04-07T10:33:01Z</time>
      </trkpt>
      <trkpt lat="48.98088" lon="-0.54253">
        <ele>219.6</ele>
        <time>2024-04-07T10:33:02Z</time>
      </trkpt>
      <trkpt lat="48.98091" lon="-0.5426">
        <ele>219.6</ele>
        <time>2024-04-07T10:33:03Z</time>
      </trkpt>
      <trkpt lat="48.98095" lon="-0.54268">
        <ele>219.6</ele>
        <time>2024-04-07T10:33:04Z</time>
      </trkpt>
      <trkpt lat="48.98098" lon="-0.54276">
        <ele>219.6</ele>
        <time>2024-04-07T10:33:05Z</time>
      </trkpt>
      <trkpt lat="48.98102" lon="-0.54283">
        <ele>219.6</ele>
        <time>2024-04-07T10:33:06Z</time>
      </trkpt>
      <trkpt lat="48.98106" lon="-0.54292">
        <ele>219.6</ele>
        <time>2024-04-07T10:33:07Z</time>
      </trkpt>
      <trkpt lat="48.98109" lon="-0.543">
        <ele>219.6</ele>
        <time>2024-04-07T10:33:08Z</time>
      </trkpt>
      <trkpt lat="48.98113" lon="-0.54309">
        <ele>219.6</ele>
        <time>2024-04-07T10:33:09Z</time>
      </trkpt>
      <trkpt lat="48.98117" lon="-0.54318">
        <ele>219.4</ele>
        <time>2024-04-07T10:33:10Z</time>
      </trkpt>
      <trkpt lat="48.98121" lon="-0.54327">
        <ele>219.4</ele>
        <time>2024-04-07T10:33:11Z</time>
      </trkpt>
      <trkpt lat="48.98125" lon="-0.54336">
        <ele>219.2</ele>
        <time>2024-04-07T10:33:12Z</time>
      </trkpt>
      <trkpt lat="48.9813" lon="-0.54346">
        <ele>219</ele>
        <time>2024-04-07T10:33:13Z</time>
      </trkpt>
      <trkpt lat="48.98134" lon="-0.54355">
        <ele>218.8</ele>
        <time>2024-04-07T10:33:14Z</time>
      </trkpt>
      <trkpt lat="48.98139" lon="-0.54365">
        <ele>218.4</ele>
        <time>2024-04-07T10:33:15Z</time>
      </trkpt>
      <trkpt lat="48.98139" lon="-0.54365">
        <ele>218</ele>
        <time>2024-04-07T10:33:16Z</time>
      </trkpt>
      <trkpt lat="48.98145" lon="-0.54381">
        <ele>217.8</ele>
        <time>2024-04-07T10:33:17Z</time>
      </trkpt>
      <trkpt lat="48.98148" lon="-0.54386">
        <ele>217.4</ele>
        <time>2024-04-07T10:33:18Z</time>
      </trkpt>
      <trkpt lat="48.98158" lon="-0.54408">
        <ele>217</ele>
        <time>2024-04-07T10:33:19Z</time>
      </trkpt>
      <trkpt lat="48.98163" lon="-0.54419">
        <ele>216.8</ele>
        <time>2024-04-07T10:33:20Z</time>
      </trkpt>
      <trkpt lat="48.98168" lon="-0.5443">
        <ele>216.4</ele>
        <time>2024-04-07T10:33:21Z</time>
      </trkpt>
      <trkpt lat="48.98173" lon="-0.54442">
        <ele>216</ele>
        <time>2024-04-07T10:33:22Z</time>
      </trkpt>
      <trkpt lat="48.98178" lon="-0.54453">
        <ele>215.4</ele>
        <time>2024-04-07T10:33:23Z</time>
      </trkpt>
      <trkpt lat="48.98183" lon="-0.54463">
        <ele>215</ele>
        <time>2024-04-07T10:33:24Z</time>
      </trkpt>
      <trkpt lat="48.98183" lon="-0.54463">
        <ele>214.6</ele>
        <time>2024-04-07T10:33:25Z</time>
      </trkpt>
      <trkpt lat="48.98193" lon="-0.54484">
        <ele>214.6</ele>
        <time>2024-04-07T10:33:26Z</time>
      </trkpt>
      <trkpt lat="48.98197" lon="-0.54493">
        <ele>214.8</ele>
        <time>2024-04-07T10:33:27Z</time>
      </trkpt>
      <trkpt lat="48.98202" lon="-0.54503">
        <ele>215.2</ele>
        <time>2024-04-07T10:33:28Z</time>
      </trkpt>
      <trkpt lat="48.98206" lon="-0.54511">
        <ele>215.6</ele>
        <time>2024-04-07T10:33:29Z</time>
      </trkpt>
      <trkpt lat="48.9821" lon="-0.5452">
        <ele>216</ele>
        <time>2024-04-07T10:33:30Z</time>
      </trkpt>
      <trkpt lat="48.98214" lon="-0.54529">
        <ele>216.6</ele>
        <time>2024-04-07T10:33:31Z</time>
      </trkpt>
      <trkpt lat="48.98218" lon="-0.54537">
        <ele>217.2</ele>
        <time>2024-04-07T10:33:32Z</time>
      </trkpt>
      <trkpt lat="48.98222" lon="-0.54545">
        <ele>217.6</ele>
        <time>2024-04-07T10:33:33Z</time>
      </trkpt>
      <trkpt lat="48.98225" lon="-0.54553">
        <ele>218</ele>
        <time>2024-04-07T10:33:34Z</time>
      </trkpt>
      <trkpt lat="48.98229" lon="-0.54561">
        <ele>218.2</ele>
        <time>2024-04-07T10:33:35Z</time>
      </trkpt>
      <trkpt lat="48.98232" lon="-0.54567">
        <ele>218.4</ele>
        <time>2024-04-07T10:33:36Z</time>
      </trkpt>
      <trkpt lat="48.98234" lon="-0.54573">
        <ele>218.8</ele>
        <time>2024-04-07T10:33:37Z</time>
      </trkpt>
      <trkpt lat="48.9824" lon="-0.54584">
        <ele>219</ele>
        <time>2024-04-07T10:33:38Z</time>
      </trkpt>
      <trkpt lat="48.98244" lon="-0.54592">
        <ele>219</ele>
        <time>2024-04-07T10:33:39Z</time>
      </trkpt>
      <trkpt lat="48.98247" lon="-0.546">
        <ele>219.2</ele>
        <time>2024-04-07T10:33:40Z</time>
      </trkpt>
      <trkpt lat="48.98249" lon="-0.54604">
        <ele>219.4</ele>
        <time>2024-04-07T10:33:41Z</time>
      </trkpt>
      <trkpt lat="48.98251" lon="-0.54608">
        <ele>219.6</ele>
        <time>2024-04-07T10:33:42Z</time>
      </trkpt>
      <trkpt lat="48.98254" lon="-0.54616">
        <ele>219.6</ele>
        <time>2024-04-07T10:33:43Z</time>
      </trkpt>
      <trkpt lat="48.98258" lon="-0.54624">
        <ele>219.8</ele>
        <time>2024-04-07T10:33:44Z</time>
      </trkpt>
      <trkpt lat="48.98262" lon="-0.54632">
        <ele>219.8</ele>
        <time>2024-04-07T10:33:45Z</time>
      </trkpt>
      <trkpt lat="48.98266" lon="-0.5464">
        <ele>219.6</ele>
        <time>2024-04-07T10:33:46Z</time>
      </trkpt>
      <trkpt lat="48.98269" lon="-0.54648">
        <ele>219.4</ele>
        <time>2024-04-07T10:33:47Z</time>
      </trkpt>
      <trkpt lat="48.98273" lon="-0.54656">
        <ele>219.2</ele>
        <time>2024-04-07T10:33:48Z</time>
      </trkpt>
      <trkpt lat="48.98281" lon="-0.54673">
        <ele>219</ele>
        <time>2024-04-07T10:33:49Z</time>
      </trkpt>
      <trkpt lat="48.98283" lon="-0.54678">
        <ele>219</ele>
        <time>2024-04-07T10:33:50Z</time>
      </trkpt>
      <trkpt lat="48.98285" lon="-0.54682">
        <ele>219</ele>
        <time>2024-04-07T10:33:51Z</time>
      </trkpt>
      <trkpt lat="48.98289" lon="-0.54691">
        <ele>219</ele>
        <time>2024-04-07T10:33:52Z</time>
      </trkpt>
      <trkpt lat="48.98293" lon="-0.547">
        <ele>219.2</ele>
        <time>2024-04-07T10:33:53Z</time>
      </trkpt>
      <trkpt lat="48.98297" lon="-0.54709">
        <ele>219.4</ele>
        <time>2024-04-07T10:33:54Z</time>
      </trkpt>
      <trkpt lat="48.98301" lon="-0.54719">
        <ele>219.6</ele>
        <time>2024-04-07T10:33:55Z</time>
      </trkpt>
      <trkpt lat="48.98307" lon="-0.5474">
        <ele>219.8</ele>
        <time>2024-04-07T10:33:56Z</time>
      </trkpt>
      <trkpt lat="48.98307" lon="-0.5474">
        <ele>220</ele>
        <time>2024-04-07T10:33:57Z</time>
      </trkpt>
      <trkpt lat="48.98313" lon="-0.54763">
        <ele>220</ele>
        <time>2024-04-07T10:33:58Z</time>
      </trkpt>
      <trkpt lat="48.98315" lon="-0.54774">
        <ele>220</ele>
        <time>2024-04-07T10:33:59Z</time>
      </trkpt>
      <trkpt lat="48.98316" lon="-0.5478">
        <ele>220</ele>
        <time>2024-04-07T10:34:00Z</time>
      </trkpt>
      <trkpt lat="48.98317" lon="-0.54786">
        <ele>219.8</ele>
        <time>2024-04-07T10:34:01Z</time>
      </trkpt>
      <trkpt lat="48.9832" lon="-0.54804">
        <ele>219.4</ele>
        <time>2024-04-07T10:34:02Z</time>
      </trkpt>
      <trkpt lat="48.98321" lon="-0.5481">
        <ele>219.2</ele>
        <time>2024-04-07T10:34:03Z</time>
      </trkpt>
      <trkpt lat="48.98323" lon="-0.54828">
        <ele>219</ele>
        <time>2024-04-07T10:34:04Z</time>
      </trkpt>
      <trkpt lat="48.98324" lon="-0.54834">
        <ele>218.6</ele>
        <time>2024-04-07T10:34:05Z</time>
      </trkpt>
      <trkpt lat="48.98325" lon="-0.54847">
        <ele>218.2</ele>
        <time>2024-04-07T10:34:06Z</time>
      </trkpt>
      <trkpt lat="48.98328" lon="-0.54872">
        <ele>218</ele>
        <time>2024-04-07T10:34:07Z</time>
      </trkpt>
      <trkpt lat="48.98329" lon="-0.54885">
        <ele>217.8</ele>
        <time>2024-04-07T10:34:08Z</time>
      </trkpt>
      <trkpt lat="48.9833" lon="-0.54891">
        <ele>217.4</ele>
        <time>2024-04-07T10:34:09Z</time>
      </trkpt>
      <trkpt lat="48.9833" lon="-0.54897">
        <ele>217</ele>
        <time>2024-04-07T10:34:10Z</time>
      </trkpt>
      <trkpt lat="48.98333" lon="-0.5492">
        <ele>216.6</ele>
        <time>2024-04-07T10:34:11Z</time>
      </trkpt>
      <trkpt lat="48.98334" lon="-0.54931">
        <ele>216</ele>
        <time>2024-04-07T10:34:12Z</time>
      </trkpt>
      <trkpt lat="48.98336" lon="-0.54951">
        <ele>215.4</ele>
        <time>2024-04-07T10:34:13Z</time>
      </trkpt>
      <trkpt lat="48.98337" lon="-0.54965">
        <ele>214.8</ele>
        <time>2024-04-07T10:34:14Z</time>
      </trkpt>
      <trkpt lat="48.98338" lon="-0.54973">
        <ele>214.2</ele>
        <time>2024-04-07T10:34:15Z</time>
      </trkpt>
      <trkpt lat="48.98339" lon="-0.5498">
        <ele>213.2</ele>
        <time>2024-04-07T10:34:16Z</time>
      </trkpt>
      <trkpt lat="48.9834" lon="-0.54994">
        <ele>212.2</ele>
        <time>2024-04-07T10:34:17Z</time>
      </trkpt>
      <trkpt lat="48.98341" lon="-0.55008">
        <ele>211.4</ele>
        <time>2024-04-07T10:34:18Z</time>
      </trkpt>
      <trkpt lat="48.98343" lon="-0.55022">
        <ele>211</ele>
        <time>2024-04-07T10:34:19Z</time>
      </trkpt>
      <trkpt lat="48.98346" lon="-0.55051">
        <ele>210.8</ele>
        <time>2024-04-07T10:34:20Z</time>
      </trkpt>
      <trkpt lat="48.98347" lon="-0.55058">
        <ele>210.4</ele>
        <time>2024-04-07T10:34:21Z</time>
      </trkpt>
      <trkpt lat="48.98348" lon="-0.55065">
        <ele>209.6</ele>
        <time>2024-04-07T10:34:22Z</time>
      </trkpt>
      <trkpt lat="48.98349" lon="-0.5508">
        <ele>208.8</ele>
        <time>2024-04-07T10:34:23Z</time>
      </trkpt>
      <trkpt lat="48.98352" lon="-0.55102">
        <ele>208</ele>
        <time>2024-04-07T10:34:24Z</time>
      </trkpt>
      <trkpt lat="48.98353" lon="-0.5511">
        <ele>207.4</ele>
        <time>2024-04-07T10:34:25Z</time>
      </trkpt>
      <trkpt lat="48.98355" lon="-0.55125">
        <ele>206.8</ele>
        <time>2024-04-07T10:34:26Z</time>
      </trkpt>
      <trkpt lat="48.98357" lon="-0.55139">
        <ele>206.4</ele>
        <time>2024-04-07T10:34:27Z</time>
      </trkpt>
      <trkpt lat="48.98358" lon="-0.55154">
        <ele>206</ele>
        <time>2024-04-07T10:34:28Z</time>
      </trkpt>
      <trkpt lat="48.98359" lon="-0.55168">
        <ele>205.8</ele>
        <time>2024-04-07T10:34:29Z</time>
      </trkpt>
      <trkpt lat="48.9836" lon="-0.55183">
        <ele>205.6</ele>
        <time>2024-04-07T10:34:30Z</time>
      </trkpt>
      <trkpt lat="48.98359" lon="-0.55197">
        <ele>205.6</ele>
        <time>2024-04-07T10:34:31Z</time>
      </trkpt>
      <trkpt lat="48.98358" lon="-0.55212">
        <ele>205.6</ele>
        <time>2024-04-07T10:34:32Z</time>
      </trkpt>
      <trkpt lat="48.98357" lon="-0.55225">
        <ele>205.4</ele>
        <time>2024-04-07T10:34:33Z</time>
      </trkpt>
      <trkpt lat="48.98355" lon="-0.55237">
        <ele>205.4</ele>
        <time>2024-04-07T10:34:34Z</time>
      </trkpt>
      <trkpt lat="48.98351" lon="-0.55259">
        <ele>205.4</ele>
        <time>2024-04-07T10:34:35Z</time>
      </trkpt>
      <trkpt lat="48.98348" lon="-0.5528">
        <ele>205.2</ele>
        <time>2024-04-07T10:34:36Z</time>
      </trkpt>
      <trkpt lat="48.98348" lon="-0.5528">
        <ele>205</ele>
        <time>2024-04-07T10:34:37Z</time>
      </trkpt>
      <trkpt lat="48.98344" lon="-0.55302">
        <ele>204.6</ele>
        <time>2024-04-07T10:34:38Z</time>
      </trkpt>
      <trkpt lat="48.98344" lon="-0.5531">
        <ele>204</ele>
        <time>2024-04-07T10:34:39Z</time>
      </trkpt>
      <trkpt lat="48.98342" lon="-0.55326">
        <ele>203</ele>
        <time>2024-04-07T10:34:40Z</time>
      </trkpt>
      <trkpt lat="48.98341" lon="-0.55349">
        <ele>202.2</ele>
        <time>2024-04-07T10:34:41Z</time>
      </trkpt>
      <trkpt lat="48.98342" lon="-0.55356">
        <ele>201.2</ele>
        <time>2024-04-07T10:34:42Z</time>
      </trkpt>
      <trkpt lat="48.98345" lon="-0.55378">
        <ele>200.2</ele>
        <time>2024-04-07T10:34:43Z</time>
      </trkpt>
      <trkpt lat="48.98347" lon="-0.55385">
        <ele>199.4</ele>
        <time>2024-04-07T10:34:44Z</time>
      </trkpt>
      <trkpt lat="48.98351" lon="-0.55398">
        <ele>199</ele>
        <time>2024-04-07T10:34:45Z</time>
      </trkpt>
      <trkpt lat="48.9836" lon="-0.55423">
        <ele>199</ele>
        <time>2024-04-07T10:34:46Z</time>
      </trkpt>
      <trkpt lat="48.98365" lon="-0.55434">
        <ele>199</ele>
        <time>2024-04-07T10:34:47Z</time>
      </trkpt>
      <trkpt lat="48.98369" lon="-0.55445">
        <ele>199.2</ele>
        <time>2024-04-07T10:34:48Z</time>
      </trkpt>
      <trkpt lat="48.98374" lon="-0.55455">
        <ele>200.2</ele>
        <time>2024-04-07T10:34:49Z</time>
      </trkpt>
      <trkpt lat="48.98378" lon="-0.55465">
        <ele>201.2</ele>
        <time>2024-04-07T10:34:50Z</time>
      </trkpt>
      <trkpt lat="48.98382" lon="-0.55475">
        <ele>202.2</ele>
        <time>2024-04-07T10:34:51Z</time>
      </trkpt>
      <trkpt lat="48.98386" lon="-0.55484">
        <ele>202.8</ele>
        <time>2024-04-07T10:34:52Z</time>
      </trkpt>
      <trkpt lat="48.9839" lon="-0.55494">
        <ele>203.4</ele>
        <time>2024-04-07T10:34:53Z</time>
      </trkpt>
      <trkpt lat="48.98394" lon="-0.55503">
        <ele>203.8</ele>
        <time>2024-04-07T10:34:54Z</time>
      </trkpt>
      <trkpt lat="48.98398" lon="-0.55512">
        <ele>204.2</ele>
        <time>2024-04-07T10:34:55Z</time>
      </trkpt>
      <trkpt lat="48.98402" lon="-0.5552">
        <ele>204.4</ele>
        <time>2024-04-07T10:34:56Z</time>
      </trkpt>
      <trkpt lat="48.98403" lon="-0.55525">
        <ele>204.8</ele>
        <time>2024-04-07T10:34:57Z</time>
      </trkpt>
      <trkpt lat="48.98405" lon="-0.55529">
        <ele>205.6</ele>
        <time>2024-04-07T10:34:58Z</time>
      </trkpt>
      <trkpt lat="48.98413" lon="-0.55545">
        <ele>206.4</ele>
        <time>2024-04-07T10:34:59Z</time>
      </trkpt>
      <trkpt lat="48.98416" lon="-0.55554">
        <ele>207</ele>
        <time>2024-04-07T10:35:00Z</time>
      </trkpt>
      <trkpt lat="48.9842" lon="-0.55561">
        <ele>207.6</ele>
        <time>2024-04-07T10:35:01Z</time>
      </trkpt>
      <trkpt lat="48.98422" lon="-0.55565">
        <ele>208</ele>
        <time>2024-04-07T10:35:02Z</time>
      </trkpt>
      <trkpt lat="48.98423" lon="-0.55569">
        <ele>208.2</ele>
        <time>2024-04-07T10:35:03Z</time>
      </trkpt>
      <trkpt lat="48.98429" lon="-0.55581">
        <ele>208.6</ele>
        <time>2024-04-07T10:35:04Z</time>
      </trkpt>
      <trkpt lat="48.9843" lon="-0.55585">
        <ele>209</ele>
        <time>2024-04-07T10:35:05Z</time>
      </trkpt>
      <trkpt lat="48.98434" lon="-0.55592">
        <ele>209.2</ele>
        <time>2024-04-07T10:35:06Z</time>
      </trkpt>
      <trkpt lat="48.9844" lon="-0.55607">
        <ele>209.4</ele>
        <time>2024-04-07T10:35:07Z</time>
      </trkpt>
      <trkpt lat="48.98442" lon="-0.5561">
        <ele>209.6</ele>
        <time>2024-04-07T10:35:08Z</time>
      </trkpt>
      <trkpt lat="48.98443" lon="-0.55614">
        <ele>209.8</ele>
        <time>2024-04-07T10:35:09Z</time>
      </trkpt>
      <trkpt lat="48.98449" lon="-0.55627">
        <ele>210</ele>
        <time>2024-04-07T10:35:10Z</time>
      </trkpt>
      <trkpt lat="48.98452" lon="-0.55632">
        <ele>210.4</ele>
        <time>2024-04-07T10:35:11Z</time>
      </trkpt>
      <trkpt lat="48.98457" lon="-0.55643">
        <ele>210.8</ele>
        <time>2024-04-07T10:35:12Z</time>
      </trkpt>
      <trkpt lat="48.9846" lon="-0.55651">
        <ele>211</ele>
        <time>2024-04-07T10:35:13Z</time>
      </trkpt>
      <trkpt lat="48.98463" lon="-0.55659">
        <ele>211.2</ele>
        <time>2024-04-07T10:35:14Z</time>
      </trkpt>
      <trkpt lat="48.98467" lon="-0.55666">
        <ele>211.2</ele>
        <time>2024-04-07T10:35:15Z</time>
      </trkpt>
      <trkpt lat="48.9847" lon="-0.55674">
        <ele>211.2</ele>
        <time>2024-04-07T10:35:16Z</time>
      </trkpt>
      <trkpt lat="48.98474" lon="-0.55682">
        <ele>211.2</ele>
        <time>2024-04-07T10:35:17Z</time>
      </trkpt>
      <trkpt lat="48.98478" lon="-0.5569">
        <ele>211.4</ele>
        <time>2024-04-07T10:35:18Z</time>
      </trkpt>
      <trkpt lat="48.98481" lon="-0.55698">
        <ele>211.4</ele>
        <time>2024-04-07T10:35:19Z</time>
      </trkpt>
      <trkpt lat="48.98485" lon="-0.55706">
        <ele>211.4</ele>
        <time>2024-04-07T10:35:20Z</time>
      </trkpt>
      <trkpt lat="48.98489" lon="-0.55714">
        <ele>211.6</ele>
        <time>2024-04-07T10:35:21Z</time>
      </trkpt>
      <trkpt lat="48.98492" lon="-0.55722">
        <ele>212</ele>
        <time>2024-04-07T10:35:22Z</time>
      </trkpt>
      <trkpt lat="48.98496" lon="-0.5573">
        <ele>212.4</ele>
        <time>2024-04-07T10:35:23Z</time>
      </trkpt>
      <trkpt lat="48.985" lon="-0.55738">
        <ele>212.8</ele>
        <time>2024-04-07T10:35:24Z</time>
      </trkpt>
      <trkpt lat="48.98504" lon="-0.55746">
        <ele>213.4</ele>
        <time>2024-04-07T10:35:25Z</time>
      </trkpt>
      <trkpt lat="48.98507" lon="-0.55753">
        <ele>214</ele>
        <time>2024-04-07T10:35:26Z</time>
      </trkpt>
      <trkpt lat="48.98511" lon="-0.55761">
        <ele>214.6</ele>
        <time>2024-04-07T10:35:27Z</time>
      </trkpt>
      <trkpt lat="48.98511" lon="-0.55761">
        <ele>215.2</ele>
        <time>2024-04-07T10:35:28Z</time>
      </trkpt>
      <trkpt lat="48.98518" lon="-0.55777">
        <ele>215.8</ele>
        <time>2024-04-07T10:35:29Z</time>
      </trkpt>
      <trkpt lat="48.98521" lon="-0.55785">
        <ele>216</ele>
        <time>2024-04-07T10:35:30Z</time>
      </trkpt>
      <trkpt lat="48.98525" lon="-0.55793">
        <ele>216.4</ele>
        <time>2024-04-07T10:35:31Z</time>
      </trkpt>
      <trkpt lat="48.98528" lon="-0.55801">
        <ele>216.6</ele>
        <time>2024-04-07T10:35:32Z</time>
      </trkpt>
      <trkpt lat="48.98532" lon="-0.55809">
        <ele>216.8</ele>
        <time>2024-04-07T10:35:33Z</time>
      </trkpt>
      <trkpt lat="48.98535" lon="-0.55816">
        <ele>217</ele>
        <time>2024-04-07T10:35:34Z</time>
      </trkpt>
      <trkpt lat="48.98539" lon="-0.55824">
        <ele>217</ele>
        <time>2024-04-07T10:35:35Z</time>
      </trkpt>
      <trkpt lat="48.98542" lon="-0.55832">
        <ele>217</ele>
        <time>2024-04-07T10:35:36Z</time>
      </trkpt>
      <trkpt lat="48.98545" lon="-0.5584">
        <ele>217</ele>
        <time>2024-04-07T10:35:37Z</time>
      </trkpt>
      <trkpt lat="48.98549" lon="-0.55848">
        <ele>217</ele>
        <time>2024-04-07T10:35:38Z</time>
      </trkpt>
      <trkpt lat="48.98552" lon="-0.55857">
        <ele>216.8</ele>
        <time>2024-04-07T10:35:39Z</time>
      </trkpt>
      <trkpt lat="48.98555" lon="-0.55865">
        <ele>216.8</ele>
        <time>2024-04-07T10:35:40Z</time>
      </trkpt>
      <trkpt lat="48.98558" lon="-0.55874">
        <ele>216.6</ele>
        <time>2024-04-07T10:35:41Z</time>
      </trkpt>
      <trkpt lat="48.98561" lon="-0.55883">
        <ele>216.6</ele>
        <time>2024-04-07T10:35:42Z</time>
      </trkpt>
      <trkpt lat="48.98564" lon="-0.55892">
        <ele>216.6</ele>
        <time>2024-04-07T10:35:43Z</time>
      </trkpt>
      <trkpt lat="48.98567" lon="-0.559">
        <ele>216.6</ele>
        <time>2024-04-07T10:35:44Z</time>
      </trkpt>
      <trkpt lat="48.98569" lon="-0.55909">
        <ele>216.4</ele>
        <time>2024-04-07T10:35:45Z</time>
      </trkpt>
      <trkpt lat="48.98572" lon="-0.55918">
        <ele>216.2</ele>
        <time>2024-04-07T10:35:46Z</time>
      </trkpt>
      <trkpt lat="48.98574" lon="-0.55928">
        <ele>216.2</ele>
        <time>2024-04-07T10:35:47Z</time>
      </trkpt>
      <trkpt lat="48.98577" lon="-0.55937">
        <ele>216.2</ele>
        <time>2024-04-07T10:35:48Z</time>
      </trkpt>
      <trkpt lat="48.9858" lon="-0.55947">
        <ele>216</ele>
        <time>2024-04-07T10:35:49Z</time>
      </trkpt>
      <trkpt lat="48.98583" lon="-0.55957">
        <ele>215.8</ele>
        <time>2024-04-07T10:35:50Z</time>
      </trkpt>
      <trkpt lat="48.98586" lon="-0.55968">
        <ele>215.4</ele>
        <time>2024-04-07T10:35:51Z</time>
      </trkpt>
      <trkpt lat="48.9859" lon="-0.55979">
        <ele>214.8</ele>
        <time>2024-04-07T10:35:52Z</time>
      </trkpt>
      <trkpt lat="48.98593" lon="-0.55989">
        <ele>214.2</ele>
        <time>2024-04-07T10:35:53Z</time>
      </trkpt>
      <trkpt lat="48.98596" lon="-0.56">
        <ele>213.4</ele>
        <time>2024-04-07T10:35:54Z</time>
      </trkpt>
      <trkpt lat="48.98599" lon="-0.5601">
        <ele>212.6</ele>
        <time>2024-04-07T10:35:55Z</time>
      </trkpt>
      <trkpt lat="48.98602" lon="-0.5602">
        <ele>212.2</ele>
        <time>2024-04-07T10:35:56Z</time>
      </trkpt>
      <trkpt lat="48.98605" lon="-0.56029">
        <ele>211.8</ele>
        <time>2024-04-07T10:35:57Z</time>
      </trkpt>
      <trkpt lat="48.98607" lon="-0.56039">
        <ele>211.8</ele>
        <time>2024-04-07T10:35:58Z</time>
      </trkpt>
      <trkpt lat="48.9861" lon="-0.56048">
        <ele>212</ele>
        <time>2024-04-07T10:35:59Z</time>
      </trkpt>
      <trkpt lat="48.98612" lon="-0.56057">
        <ele>212.8</ele>
        <time>2024-04-07T10:36:00Z</time>
      </trkpt>
      <trkpt lat="48.98615" lon="-0.56066">
        <ele>213.4</ele>
        <time>2024-04-07T10:36:01Z</time>
      </trkpt>
      <trkpt lat="48.98617" lon="-0.56075">
        <ele>214</ele>
        <time>2024-04-07T10:36:02Z</time>
      </trkpt>
      <trkpt lat="48.9862" lon="-0.56084">
        <ele>214.6</ele>
        <time>2024-04-07T10:36:03Z</time>
      </trkpt>
      <trkpt lat="48.98622" lon="-0.56093">
        <ele>215</ele>
        <time>2024-04-07T10:36:04Z</time>
      </trkpt>
      <trkpt lat="48.98625" lon="-0.56102">
        <ele>215.4</ele>
        <time>2024-04-07T10:36:05Z</time>
      </trkpt>
      <trkpt lat="48.98627" lon="-0.56111">
        <ele>215.8</ele>
        <time>2024-04-07T10:36:06Z</time>
      </trkpt>
      <trkpt lat="48.9863" lon="-0.56121">
        <ele>216</ele>
        <time>2024-04-07T10:36:07Z</time>
      </trkpt>
      <trkpt lat="48.98633" lon="-0.5613">
        <ele>216</ele>
        <time>2024-04-07T10:36:08Z</time>
      </trkpt>
      <trkpt lat="48.98635" lon="-0.56139">
        <ele>216</ele>
        <time>2024-04-07T10:36:09Z</time>
      </trkpt>
      <trkpt lat="48.98638" lon="-0.56148">
        <ele>216</ele>
        <time>2024-04-07T10:36:10Z</time>
      </trkpt>
      <trkpt lat="48.98641" lon="-0.56158">
        <ele>216</ele>
        <time>2024-04-07T10:36:11Z</time>
      </trkpt>
      <trkpt lat="48.98643" lon="-0.56166">
        <ele>216</ele>
        <time>2024-04-07T10:36:12Z</time>
      </trkpt>
      <trkpt lat="48.98647" lon="-0.56175">
        <ele>215.8</ele>
        <time>2024-04-07T10:36:13Z</time>
      </trkpt>
      <trkpt lat="48.9865" lon="-0.56184">
        <ele>215.6</ele>
        <time>2024-04-07T10:36:14Z</time>
      </trkpt>
      <trkpt lat="48.98653" lon="-0.56193">
        <ele>215.6</ele>
        <time>2024-04-07T10:36:15Z</time>
      </trkpt>
      <trkpt lat="48.98656" lon="-0.56202">
        <ele>215.6</ele>
        <time>2024-04-07T10:36:16Z</time>
      </trkpt>
      <trkpt lat="48.98658" lon="-0.5621">
        <ele>215.8</ele>
        <time>2024-04-07T10:36:17Z</time>
      </trkpt>
      <trkpt lat="48.98661" lon="-0.56218">
        <ele>216</ele>
        <time>2024-04-07T10:36:18Z</time>
      </trkpt>
      <trkpt lat="48.98665" lon="-0.56224">
        <ele>216.4</ele>
        <time>2024-04-07T10:36:19Z</time>
      </trkpt>
      <trkpt lat="48.9867" lon="-0.56224">
        <ele>216.8</ele>
        <time>2024-04-07T10:36:20Z</time>
      </trkpt>
      <trkpt lat="48.98674" lon="-0.56224">
        <ele>217</ele>
        <time>2024-04-07T10:36:21Z</time>
      </trkpt>
      <trkpt lat="48.98678" lon="-0.5622">
        <ele>217.4</ele>
        <time>2024-04-07T10:36:22Z</time>
      </trkpt>
      <trkpt lat="48.98681" lon="-0.56213">
        <ele>217.4</ele>
        <time>2024-04-07T10:36:23Z</time>
      </trkpt>
      <trkpt lat="48.98683" lon="-0.56208">
        <ele>217.6</ele>
        <time>2024-04-07T10:36:24Z</time>
      </trkpt>
      <trkpt lat="48.98685" lon="-0.56202">
        <ele>217.4</ele>
        <time>2024-04-07T10:36:25Z</time>
      </trkpt>
      <trkpt lat="48.9869" lon="-0.5619">
        <ele>217.4</ele>
        <time>2024-04-07T10:36:26Z</time>
      </trkpt>
      <trkpt lat="48.9869" lon="-0.5619">
        <ele>217.2</ele>
        <time>2024-04-07T10:36:27Z</time>
      </trkpt>
      <trkpt lat="48.98695" lon="-0.56176">
        <ele>217.2</ele>
        <time>2024-04-07T10:36:28Z</time>
      </trkpt>
      <trkpt lat="48.98698" lon="-0.56169">
        <ele>217.2</ele>
        <time>2024-04-07T10:36:29Z</time>
      </trkpt>
      <trkpt lat="48.98701" lon="-0.56163">
        <ele>217.2</ele>
        <time>2024-04-07T10:36:30Z</time>
      </trkpt>
      <trkpt lat="48.98703" lon="-0.56156">
        <ele>217.4</ele>
        <time>2024-04-07T10:36:31Z</time>
      </trkpt>
      <trkpt lat="48.98706" lon="-0.5615">
        <ele>217.6</ele>
        <time>2024-04-07T10:36:32Z</time>
      </trkpt>
      <trkpt lat="48.98709" lon="-0.56143">
        <ele>217.6</ele>
        <time>2024-04-07T10:36:33Z</time>
      </trkpt>
      <trkpt lat="48.98711" lon="-0.56137">
        <ele>217.6</ele>
        <time>2024-04-07T10:36:34Z</time>
      </trkpt>
      <trkpt lat="48.98714" lon="-0.56131">
        <ele>217.6</ele>
        <time>2024-04-07T10:36:35Z</time>
      </trkpt>
      <trkpt lat="48.98716" lon="-0.56125">
        <ele>217.8</ele>
        <time>2024-04-07T10:36:36Z</time>
      </trkpt>
      <trkpt lat="48.98719" lon="-0.56118">
        <ele>218</ele>
        <time>2024-04-07T10:36:37Z</time>
      </trkpt>
      <trkpt lat="48.98722" lon="-0.56112">
        <ele>218.2</ele>
        <time>2024-04-07T10:36:38Z</time>
      </trkpt>
      <trkpt lat="48.98724" lon="-0.56106">
        <ele>218.4</ele>
        <time>2024-04-07T10:36:39Z</time>
      </trkpt>
      <trkpt lat="48.98726" lon="-0.561">
        <ele>218.6</ele>
        <time>2024-04-07T10:36:40Z</time>
      </trkpt>
      <trkpt lat="48.98728" lon="-0.56095">
        <ele>218.6</ele>
        <time>2024-04-07T10:36:41Z</time>
      </trkpt>
      <trkpt lat="48.98731" lon="-0.5609">
        <ele>218.8</ele>
        <time>2024-04-07T10:36:42Z</time>
      </trkpt>
      <trkpt lat="48.98732" lon="-0.56085">
        <ele>219</ele>
        <time>2024-04-07T10:36:43Z</time>
      </trkpt>
      <trkpt lat="48.98734" lon="-0.5608">
        <ele>219</ele>
        <time>2024-04-07T10:36:44Z</time>
      </trkpt>
      <trkpt lat="48.98736" lon="-0.56074">
        <ele>219.4</ele>
        <time>2024-04-07T10:36:45Z</time>
      </trkpt>
      <trkpt lat="48.98738" lon="-0.56069">
        <ele>219.6</ele>
        <time>2024-04-07T10:36:46Z</time>
      </trkpt>
      <trkpt lat="48.9874" lon="-0.56063">
        <ele>220</ele>
        <time>2024-04-07T10:36:47Z</time>
      </trkpt>
      <trkpt lat="48.98742" lon="-0.56058">
        <ele>220.2</ele>
        <time>2024-04-07T10:36:48Z</time>
      </trkpt>
      <trkpt lat="48.98744" lon="-0.56053">
        <ele>220.4</ele>
        <time>2024-04-07T10:36:49Z</time>
      </trkpt>
      <trkpt lat="48.98746" lon="-0.56048">
        <ele>220.8</ele>
        <time>2024-04-07T10:36:50Z</time>
      </trkpt>
      <trkpt lat="48.98748" lon="-0.56043">
        <ele>220.8</ele>
        <time>2024-04-07T10:36:51Z</time>
      </trkpt>
      <trkpt lat="48.98751" lon="-0.56038">
        <ele>221</ele>
        <time>2024-04-07T10:36:52Z</time>
      </trkpt>
      <trkpt lat="48.98753" lon="-0.56033">
        <ele>221.2</ele>
        <time>2024-04-07T10:36:53Z</time>
      </trkpt>
      <trkpt lat="48.98755" lon="-0.56029">
        <ele>221.6</ele>
        <time>2024-04-07T10:36:54Z</time>
      </trkpt>
      <trkpt lat="48.98757" lon="-0.56023">
        <ele>221.8</ele>
        <time>2024-04-07T10:36:55Z</time>
      </trkpt>
      <trkpt lat="48.98759" lon="-0.56018">
        <ele>222.2</ele>
        <time>2024-04-07T10:36:56Z</time>
      </trkpt>
      <trkpt lat="48.98761" lon="-0.56014">
        <ele>222.4</ele>
        <time>2024-04-07T10:36:57Z</time>
      </trkpt>
      <trkpt lat="48.98763" lon="-0.56009">
        <ele>222.8</ele>
        <time>2024-04-07T10:36:58Z</time>
      </trkpt>
      <trkpt lat="48.98765" lon="-0.56005">
        <ele>223.2</ele>
        <time>2024-04-07T10:36:59Z</time>
      </trkpt>
      <trkpt lat="48.98767" lon="-0.55999">
        <ele>223.6</ele>
        <time>2024-04-07T10:37:00Z</time>
      </trkpt>
      <trkpt lat="48.98769" lon="-0.55994">
        <ele>224</ele>
        <time>2024-04-07T10:37:01Z</time>
      </trkpt>
      <trkpt lat="48.98771" lon="-0.5599">
        <ele>224.2</ele>
        <time>2024-04-07T10:37:02Z</time>
      </trkpt>
      <trkpt lat="48.98773" lon="-0.55985">
        <ele>224.4</ele>
        <time>2024-04-07T10:37:03Z</time>
      </trkpt>
      <trkpt lat="48.98775" lon="-0.55981">
        <ele>224.6</ele>
        <time>2024-04-07T10:37:04Z</time>
      </trkpt>
      <trkpt lat="48.98778" lon="-0.55977">
        <ele>224.8</ele>
        <time>2024-04-07T10:37:05Z</time>
      </trkpt>
      <trkpt lat="48.9878" lon="-0.55972">
        <ele>225</ele>
        <time>2024-04-07T10:37:06Z</time>
      </trkpt>
      <trkpt lat="48.98781" lon="-0.55967">
        <ele>225.2</ele>
        <time>2024-04-07T10:37:07Z</time>
      </trkpt>
      <trkpt lat="48.98783" lon="-0.55963">
        <ele>225.4</ele>
        <time>2024-04-07T10:37:08Z</time>
      </trkpt>
      <trkpt lat="48.98785" lon="-0.55958">
        <ele>225.8</ele>
        <time>2024-04-07T10:37:09Z</time>
      </trkpt>
      <trkpt lat="48.98787" lon="-0.55955">
        <ele>226</ele>
        <time>2024-04-07T10:37:10Z</time>
      </trkpt>
      <trkpt lat="48.98789" lon="-0.55951">
        <ele>226.2</ele>
        <time>2024-04-07T10:37:11Z</time>
      </trkpt>
      <trkpt lat="48.98791" lon="-0.55948">
        <ele>226.6</ele>
        <time>2024-04-07T10:37:12Z</time>
      </trkpt>
      <trkpt lat="48.98794" lon="-0.55945">
        <ele>227</ele>
        <time>2024-04-07T10:37:13Z</time>
      </trkpt>
      <trkpt lat="48.98796" lon="-0.55941">
        <ele>227.4</ele>
        <time>2024-04-07T10:37:14Z</time>
      </trkpt>
      <trkpt lat="48.98798" lon="-0.55937">
        <ele>227.6</ele>
        <time>2024-04-07T10:37:15Z</time>
      </trkpt>
      <trkpt lat="48.988" lon="-0.55934">
        <ele>227.8</ele>
        <time>2024-04-07T10:37:16Z</time>
      </trkpt>
      <trkpt lat="48.98803" lon="-0.5593">
        <ele>228</ele>
        <time>2024-04-07T10:37:17Z</time>
      </trkpt>
      <trkpt lat="48.98806" lon="-0.55928">
        <ele>228.4</ele>
        <time>2024-04-07T10:37:18Z</time>
      </trkpt>
      <trkpt lat="48.98809" lon="-0.55924">
        <ele>228.6</ele>
        <time>2024-04-07T10:37:19Z</time>
      </trkpt>
      <trkpt lat="48.98811" lon="-0.55921">
        <ele>228.8</ele>
        <time>2024-04-07T10:37:20Z</time>
      </trkpt>
      <trkpt lat="48.98814" lon="-0.55919">
        <ele>229.2</ele>
        <time>2024-04-07T10:37:21Z</time>
      </trkpt>
      <trkpt lat="48.98817" lon="-0.55915">
        <ele>229.4</ele>
        <time>2024-04-07T10:37:22Z</time>
      </trkpt>
      <trkpt lat="48.98819" lon="-0.55912">
        <ele>229.8</ele>
        <time>2024-04-07T10:37:23Z</time>
      </trkpt>
      <trkpt lat="48.98822" lon="-0.55909">
        <ele>230</ele>
        <time>2024-04-07T10:37:24Z</time>
      </trkpt>
      <trkpt lat="48.98824" lon="-0.55905">
        <ele>230.4</ele>
        <time>2024-04-07T10:37:25Z</time>
      </trkpt>
      <trkpt lat="48.98828" lon="-0.55902">
        <ele>230.6</ele>
        <time>2024-04-07T10:37:26Z</time>
      </trkpt>
      <trkpt lat="48.98831" lon="-0.55899">
        <ele>231</ele>
        <time>2024-04-07T10:37:27Z</time>
      </trkpt>
      <trkpt lat="48.98834" lon="-0.55895">
        <ele>231.4</ele>
        <time>2024-04-07T10:37:28Z</time>
      </trkpt>
      <trkpt lat="48.98837" lon="-0.55891">
        <ele>231.6</ele>
        <time>2024-04-07T10:37:29Z</time>
      </trkpt>
      <trkpt lat="48.98841" lon="-0.55887">
        <ele>231.8</ele>
        <time>2024-04-07T10:37:30Z</time>
      </trkpt>
      <trkpt lat="48.98844" lon="-0.55883">
        <ele>232</ele>
        <time>2024-04-07T10:37:31Z</time>
      </trkpt>
      <trkpt lat="48.98847" lon="-0.55879">
        <ele>232.2</ele>
        <time>2024-04-07T10:37:32Z</time>
      </trkpt>
      <trkpt lat="48.9885" lon="-0.55875">
        <ele>232.4</ele>
        <time>2024-04-07T10:37:33Z</time>
      </trkpt>
      <trkpt lat="48.98853" lon="-0.55871">
        <ele>232.4</ele>
        <time>2024-04-07T10:37:34Z</time>
      </trkpt>
      <trkpt lat="48.98855" lon="-0.55868">
        <ele>232.6</ele>
        <time>2024-04-07T10:37:35Z</time>
      </trkpt>
      <trkpt lat="48.98859" lon="-0.55864">
        <ele>233</ele>
        <time>2024-04-07T10:37:36Z</time>
      </trkpt>
      <trkpt lat="48.98862" lon="-0.55861">
        <ele>233.4</ele>
        <time>2024-04-07T10:37:37Z</time>
      </trkpt>
      <trkpt lat="48.98865" lon="-0.55857">
        <ele>233.8</ele>
        <time>2024-04-07T10:37:38Z</time>
      </trkpt>
      <trkpt lat="48.98868" lon="-0.55854">
        <ele>234.2</ele>
        <time>2024-04-07T10:37:39Z</time>
      </trkpt>
      <trkpt lat="48.98872" lon="-0.55851">
        <ele>234.4</ele>
        <time>2024-04-07T10:37:40Z</time>
      </trkpt>
      <trkpt lat="48.98876" lon="-0.55848">
        <ele>234.6</ele>
        <time>2024-04-07T10:37:41Z</time>
      </trkpt>
      <trkpt lat="48.9888" lon="-0.55846">
        <ele>234.8</ele>
        <time>2024-04-07T10:37:42Z</time>
      </trkpt>
      <trkpt lat="48.98883" lon="-0.55843">
        <ele>235</ele>
        <time>2024-04-07T10:37:43Z</time>
      </trkpt>
      <trkpt lat="48.98887" lon="-0.5584">
        <ele>235.2</ele>
        <time>2024-04-07T10:37:44Z</time>
      </trkpt>
      <trkpt lat="48.98891" lon="-0.55837">
        <ele>235.2</ele>
        <time>2024-04-07T10:37:45Z</time>
      </trkpt>
      <trkpt lat="48.98894" lon="-0.55834">
        <ele>235.4</ele>
        <time>2024-04-07T10:37:46Z</time>
      </trkpt>
      <trkpt lat="48.98899" lon="-0.55831">
        <ele>235.6</ele>
        <time>2024-04-07T10:37:47Z</time>
      </trkpt>
      <trkpt lat="48.98903" lon="-0.55827">
        <ele>235.6</ele>
        <time>2024-04-07T10:37:48Z</time>
      </trkpt>
      <trkpt lat="48.98907" lon="-0.55824">
        <ele>235.8</ele>
        <time>2024-04-07T10:37:49Z</time>
      </trkpt>
      <trkpt lat="48.98911" lon="-0.5582">
        <ele>235.8</ele>
        <time>2024-04-07T10:37:50Z</time>
      </trkpt>
      <trkpt lat="48.98916" lon="-0.55816">
        <ele>235.8</ele>
        <time>2024-04-07T10:37:51Z</time>
      </trkpt>
      <trkpt lat="48.98921" lon="-0.55811">
        <ele>235.6</ele>
        <time>2024-04-07T10:37:52Z</time>
      </trkpt>
      <trkpt lat="48.98926" lon="-0.55807">
        <ele>235.6</ele>
        <time>2024-04-07T10:37:53Z</time>
      </trkpt>
      <trkpt lat="48.98931" lon="-0.55803">
        <ele>235.4</ele>
        <time>2024-04-07T10:37:54Z</time>
      </trkpt>
      <trkpt lat="48.98936" lon="-0.55798">
        <ele>235.4</ele>
        <time>2024-04-07T10:37:55Z</time>
      </trkpt>
      <trkpt lat="48.98941" lon="-0.55794">
        <ele>235.2</ele>
        <time>2024-04-07T10:37:56Z</time>
      </trkpt>
      <trkpt lat="48.98947" lon="-0.55789">
        <ele>234.8</ele>
        <time>2024-04-07T10:37:57Z</time>
      </trkpt>
      <trkpt lat="48.98953" lon="-0.55784">
        <ele>234.6</ele>
        <time>2024-04-07T10:37:58Z</time>
      </trkpt>
      <trkpt lat="48.98959" lon="-0.55779">
        <ele>234.2</ele>
        <time>2024-04-07T10:37:59Z</time>
      </trkpt>
      <trkpt lat="48.98966" lon="-0.55773">
        <ele>233.8</ele>
        <time>2024-04-07T10:38:00Z</time>
      </trkpt>
      <trkpt lat="48.98973" lon="-0.55767">
        <ele>233.4</ele>
        <time>2024-04-07T10:38:01Z</time>
      </trkpt>
      <trkpt lat="48.9898" lon="-0.55762">
        <ele>233</ele>
        <time>2024-04-07T10:38:02Z</time>
      </trkpt>
      <trkpt lat="48.98985" lon="-0.55756">
        <ele>232.2</ele>
        <time>2024-04-07T10:38:03Z</time>
      </trkpt>
      <trkpt lat="48.98991" lon="-0.55751">
        <ele>231.4</ele>
        <time>2024-04-07T10:38:04Z</time>
      </trkpt>
      <trkpt lat="48.99003" lon="-0.55741">
        <ele>230.8</ele>
        <time>2024-04-07T10:38:05Z</time>
      </trkpt>
      <trkpt lat="48.99011" lon="-0.55733">
        <ele>230</ele>
        <time>2024-04-07T10:38:06Z</time>
      </trkpt>
      <trkpt lat="48.99019" lon="-0.55724">
        <ele>229</ele>
        <time>2024-04-07T10:38:07Z</time>
      </trkpt>
      <trkpt lat="48.99019" lon="-0.55724">
        <ele>228.2</ele>
        <time>2024-04-07T10:38:08Z</time>
      </trkpt>
      <trkpt lat="48.99035" lon="-0.55704">
        <ele>227.4</ele>
        <time>2024-04-07T10:38:09Z</time>
      </trkpt>
      <trkpt lat="48.99043" lon="-0.55693">
        <ele>226.6</ele>
        <time>2024-04-07T10:38:10Z</time>
      </trkpt>
      <trkpt lat="48.99051" lon="-0.55682">
        <ele>226</ele>
        <time>2024-04-07T10:38:11Z</time>
      </trkpt>
      <trkpt lat="48.9906" lon="-0.5567">
        <ele>225.2</ele>
        <time>2024-04-07T10:38:12Z</time>
      </trkpt>
      <trkpt lat="48.99068" lon="-0.55659">
        <ele>224.6</ele>
        <time>2024-04-07T10:38:13Z</time>
      </trkpt>
      <trkpt lat="48.99076" lon="-0.55647">
        <ele>223.8</ele>
        <time>2024-04-07T10:38:14Z</time>
      </trkpt>
      <trkpt lat="48.99085" lon="-0.55636">
        <ele>222.8</ele>
        <time>2024-04-07T10:38:15Z</time>
      </trkpt>
      <trkpt lat="48.99094" lon="-0.55624">
        <ele>221.6</ele>
        <time>2024-04-07T10:38:16Z</time>
      </trkpt>
      <trkpt lat="48.99103" lon="-0.55613">
        <ele>220.4</ele>
        <time>2024-04-07T10:38:17Z</time>
      </trkpt>
      <trkpt lat="48.99111" lon="-0.55601">
        <ele>219.4</ele>
        <time>2024-04-07T10:38:18Z</time>
      </trkpt>
      <trkpt lat="48.9912" lon="-0.55589">
        <ele>218.2</ele>
        <time>2024-04-07T10:38:19Z</time>
      </trkpt>
      <trkpt lat="48.99129" lon="-0.55578">
        <ele>217.2</ele>
        <time>2024-04-07T10:38:20Z</time>
      </trkpt>
      <trkpt lat="48.99139" lon="-0.55568">
        <ele>216.4</ele>
        <time>2024-04-07T10:38:21Z</time>
      </trkpt>
      <trkpt lat="48.9915" lon="-0.5556">
        <ele>215.4</ele>
        <time>2024-04-07T10:38:22Z</time>
      </trkpt>
      <trkpt lat="48.9915" lon="-0.5556">
        <ele>214.6</ele>
        <time>2024-04-07T10:38:23Z</time>
      </trkpt>
      <trkpt lat="48.99173" lon="-0.55549">
        <ele>214</ele>
        <time>2024-04-07T10:38:24Z</time>
      </trkpt>
      <trkpt lat="48.99186" lon="-0.55546">
        <ele>213.2</ele>
        <time>2024-04-07T10:38:25Z</time>
      </trkpt>
      <trkpt lat="48.99198" lon="-0.55545">
        <ele>212.2</ele>
        <time>2024-04-07T10:38:26Z</time>
      </trkpt>
      <trkpt lat="48.99211" lon="-0.55547">
        <ele>211.4</ele>
        <time>2024-04-07T10:38:27Z</time>
      </trkpt>
      <trkpt lat="48.99222" lon="-0.5555">
        <ele>210.4</ele>
        <time>2024-04-07T10:38:28Z</time>
      </trkpt>
      <trkpt lat="48.99233" lon="-0.55556">
        <ele>209.4</ele>
        <time>2024-04-07T10:38:29Z</time>
      </trkpt>
      <trkpt lat="48.99243" lon="-0.55564">
        <ele>208.6</ele>
        <time>2024-04-07T10:38:30Z</time>
      </trkpt>
      <trkpt lat="48.99253" lon="-0.55573">
        <ele>207.6</ele>
        <time>2024-04-07T10:38:31Z</time>
      </trkpt>
      <trkpt lat="48.99263" lon="-0.55584">
        <ele>206.8</ele>
        <time>2024-04-07T10:38:32Z</time>
      </trkpt>
      <trkpt lat="48.99272" lon="-0.55595">
        <ele>206.4</ele>
        <time>2024-04-07T10:38:33Z</time>
      </trkpt>
      <trkpt lat="48.99281" lon="-0.55606">
        <ele>205.6</ele>
        <time>2024-04-07T10:38:34Z</time>
      </trkpt>
      <trkpt lat="48.9929" lon="-0.55618">
        <ele>204.6</ele>
        <time>2024-04-07T10:38:35Z</time>
      </trkpt>
      <trkpt lat="48.99299" lon="-0.5563">
        <ele>203.6</ele>
        <time>2024-04-07T10:38:36Z</time>
      </trkpt>
      <trkpt lat="48.99309" lon="-0.5564">
        <ele>202.8</ele>
        <time>2024-04-07T10:38:37Z</time>
      </trkpt>
      <trkpt lat="48.99318" lon="-0.5565">
        <ele>202</ele>
        <time>2024-04-07T10:38:38Z</time>
      </trkpt>
      <trkpt lat="48.99328" lon="-0.5566">
        <ele>201.2</ele>
        <time>2024-04-07T10:38:39Z</time>
      </trkpt>
      <trkpt lat="48.99338" lon="-0.55671">
        <ele>200.2</ele>
        <time>2024-04-07T10:38:40Z</time>
      </trkpt>
      <trkpt lat="48.99348" lon="-0.55681">
        <ele>199.4</ele>
        <time>2024-04-07T10:38:41Z</time>
      </trkpt>
      <trkpt lat="48.99358" lon="-0.55689">
        <ele>198.6</ele>
        <time>2024-04-07T10:38:42Z</time>
      </trkpt>
      <trkpt lat="48.99369" lon="-0.55695">
        <ele>198</ele>
        <time>2024-04-07T10:38:43Z</time>
      </trkpt>
      <trkpt lat="48.99379" lon="-0.557">
        <ele>197.4</ele>
        <time>2024-04-07T10:38:44Z</time>
      </trkpt>
      <trkpt lat="48.99391" lon="-0.55702">
        <ele>196.8</ele>
        <time>2024-04-07T10:38:45Z</time>
      </trkpt>
      <trkpt lat="48.994" lon="-0.55699">
        <ele>196</ele>
        <time>2024-04-07T10:38:46Z</time>
      </trkpt>
      <trkpt lat="48.99408" lon="-0.55694">
        <ele>195.2</ele>
        <time>2024-04-07T10:38:47Z</time>
      </trkpt>
      <trkpt lat="48.99409" lon="-0.55686">
        <ele>194</ele>
        <time>2024-04-07T10:38:48Z</time>
      </trkpt>
      <trkpt lat="48.99414" lon="-0.55674">
        <ele>193</ele>
        <time>2024-04-07T10:38:49Z</time>
      </trkpt>
      <trkpt lat="48.99413" lon="-0.55662">
        <ele>192.4</ele>
        <time>2024-04-07T10:38:50Z</time>
      </trkpt>
      <trkpt lat="48.99415" lon="-0.55649">
        <ele>192.2</ele>
        <time>2024-04-07T10:38:51Z</time>
      </trkpt>
      <trkpt lat="48.99418" lon="-0.55638">
        <ele>192.2</ele>
        <time>2024-04-07T10:38:52Z</time>
      </trkpt>
      <trkpt lat="48.9942" lon="-0.55628">
        <ele>192.6</ele>
        <time>2024-04-07T10:38:53Z</time>
      </trkpt>
      <trkpt lat="48.99422" lon="-0.5562">
        <ele>193.6</ele>
        <time>2024-04-07T10:38:54Z</time>
      </trkpt>
      <trkpt lat="48.99423" lon="-0.55611">
        <ele>194.6</ele>
        <time>2024-04-07T10:38:55Z</time>
      </trkpt>
      <trkpt lat="48.99424" lon="-0.55603">
        <ele>195.8</ele>
        <time>2024-04-07T10:38:56Z</time>
      </trkpt>
      <trkpt lat="48.99425" lon="-0.55597">
        <ele>196.8</ele>
        <time>2024-04-07T10:38:57Z</time>
      </trkpt>
      <trkpt lat="48.99426" lon="-0.5559">
        <ele>197.6</ele>
        <time>2024-04-07T10:38:58Z</time>
      </trkpt>
      <trkpt lat="48.99427" lon="-0.55583">
        <ele>198.4</ele>
        <time>2024-04-07T10:38:59Z</time>
      </trkpt>
      <trkpt lat="48.99429" lon="-0.55578">
        <ele>198.8</ele>
        <time>2024-04-07T10:39:00Z</time>
      </trkpt>
      <trkpt lat="48.9943" lon="-0.55573">
        <ele>199.2</ele>
        <time>2024-04-07T10:39:01Z</time>
      </trkpt>
      <trkpt lat="48.9943" lon="-0.55567">
        <ele>199.4</ele>
        <time>2024-04-07T10:39:02Z</time>
      </trkpt>
      <trkpt lat="48.9943" lon="-0.55561">
        <ele>199.8</ele>
        <time>2024-04-07T10:39:03Z</time>
      </trkpt>
      <trkpt lat="48.99431" lon="-0.55557">
        <ele>200.2</ele>
        <time>2024-04-07T10:39:04Z</time>
      </trkpt>
      <trkpt lat="48.99431" lon="-0.55551">
        <ele>200.6</ele>
        <time>2024-04-07T10:39:05Z</time>
      </trkpt>
      <trkpt lat="48.99432" lon="-0.55546">
        <ele>201</ele>
        <time>2024-04-07T10:39:06Z</time>
      </trkpt>
      <trkpt lat="48.99432" lon="-0.55539">
        <ele>201.2</ele>
        <time>2024-04-07T10:39:07Z</time>
      </trkpt>
      <trkpt lat="48.99431" lon="-0.55533">
        <ele>201.4</ele>
        <time>2024-04-07T10:39:08Z</time>
      </trkpt>
      <trkpt lat="48.9943" lon="-0.55527">
        <ele>201.4</ele>
        <time>2024-04-07T10:39:09Z</time>
      </trkpt>
      <trkpt lat="48.9943" lon="-0.55522">
        <ele>201.6</ele>
        <time>2024-04-07T10:39:10Z</time>
      </trkpt>
      <trkpt lat="48.99428" lon="-0.55515">
        <ele>201.8</ele>
        <time>2024-04-07T10:39:11Z</time>
      </trkpt>
      <trkpt lat="48.99427" lon="-0.55509">
        <ele>202</ele>
        <time>2024-04-07T10:39:12Z</time>
      </trkpt>
      <trkpt lat="48.99427" lon="-0.55504">
        <ele>202.2</ele>
        <time>2024-04-07T10:39:13Z</time>
      </trkpt>
      <trkpt lat="48.99426" lon="-0.555">
        <ele>202.4</ele>
        <time>2024-04-07T10:39:14Z</time>
      </trkpt>
      <trkpt lat="48.99425" lon="-0.55495">
        <ele>202.6</ele>
        <time>2024-04-07T10:39:15Z</time>
      </trkpt>
      <trkpt lat="48.99425" lon="-0.5549">
        <ele>203</ele>
        <time>2024-04-07T10:39:16Z</time>
      </trkpt>
      <trkpt lat="48.99423" lon="-0.55485">
        <ele>203.4</ele>
        <time>2024-04-07T10:39:17Z</time>
      </trkpt>
      <trkpt lat="48.99422" lon="-0.55481">
        <ele>203.6</ele>
        <time>2024-04-07T10:39:18Z</time>
      </trkpt>
      <trkpt lat="48.99421" lon="-0.55477">
        <ele>204</ele>
        <time>2024-04-07T10:39:19Z</time>
      </trkpt>
      <trkpt lat="48.99419" lon="-0.55472">
        <ele>204.4</ele>
        <time>2024-04-07T10:39:20Z</time>
      </trkpt>
      <trkpt lat="48.99417" lon="-0.55466">
        <ele>205</ele>
        <time>2024-04-07T10:39:21Z</time>
      </trkpt>
      <trkpt lat="48.99415" lon="-0.55461">
        <ele>205.2</ele>
        <time>2024-04-07T10:39:22Z</time>
      </trkpt>
      <trkpt lat="48.99414" lon="-0.55456">
        <ele>205.6</ele>
        <time>2024-04-07T10:39:23Z</time>
      </trkpt>
      <trkpt lat="48.99412" lon="-0.55451">
        <ele>205.8</ele>
        <time>2024-04-07T10:39:24Z</time>
      </trkpt>
      <trkpt lat="48.9941" lon="-0.55447">
        <ele>206</ele>
        <time>2024-04-07T10:39:25Z</time>
      </trkpt>
      <trkpt lat="48.99408" lon="-0.55442">
        <ele>206.2</ele>
        <time>2024-04-07T10:39:26Z</time>
      </trkpt>
      <trkpt lat="48.99406" lon="-0.55437">
        <ele>206.4</ele>
        <time>2024-04-07T10:39:27Z</time>
      </trkpt>
      <trkpt lat="48.99404" lon="-0.55433">
        <ele>206.4</ele>
        <time>2024-04-07T10:39:28Z</time>
      </trkpt>
      <trkpt lat="48.99403" lon="-0.55429">
        <ele>206.6</ele>
        <time>2024-04-07T10:39:29Z</time>
      </trkpt>
      <trkpt lat="48.99401" lon="-0.55424">
        <ele>206.6</ele>
        <time>2024-04-07T10:39:30Z</time>
      </trkpt>
      <trkpt lat="48.99399" lon="-0.55419">
        <ele>206.8</ele>
        <time>2024-04-07T10:39:31Z</time>
      </trkpt>
      <trkpt lat="48.99398" lon="-0.55415">
        <ele>207.2</ele>
        <time>2024-04-07T10:39:32Z</time>
      </trkpt>
      <trkpt lat="48.99397" lon="-0.5541">
        <ele>207.6</ele>
        <time>2024-04-07T10:39:33Z</time>
      </trkpt>
      <trkpt lat="48.99396" lon="-0.55406">
        <ele>207.8</ele>
        <time>2024-04-07T10:39:34Z</time>
      </trkpt>
      <trkpt lat="48.99395" lon="-0.55402">
        <ele>208.2</ele>
        <time>2024-04-07T10:39:35Z</time>
      </trkpt>
      <trkpt lat="48.99393" lon="-0.55397">
        <ele>208.4</ele>
        <time>2024-04-07T10:39:36Z</time>
      </trkpt>
      <trkpt lat="48.99392" lon="-0.55394">
        <ele>208.6</ele>
        <time>2024-04-07T10:39:37Z</time>
      </trkpt>
      <trkpt lat="48.99391" lon="-0.5539">
        <ele>208.8</ele>
        <time>2024-04-07T10:39:38Z</time>
      </trkpt>
      <trkpt lat="48.99389" lon="-0.55387">
        <ele>209</ele>
        <time>2024-04-07T10:39:39Z</time>
      </trkpt>
      <trkpt lat="48.99388" lon="-0.55383">
        <ele>209.4</ele>
        <time>2024-04-07T10:39:40Z</time>
      </trkpt>
      <trkpt lat="48.99387" lon="-0.55379">
        <ele>209.6</ele>
        <time>2024-04-07T10:39:41Z</time>
      </trkpt>
      <trkpt lat="48.99386" lon="-0.55377">
        <ele>210</ele>
        <time>2024-04-07T10:39:42Z</time>
      </trkpt>
      <trkpt lat="48.99384" lon="-0.55372">
        <ele>210.4</ele>
        <time>2024-04-07T10:39:43Z</time>
      </trkpt>
      <trkpt lat="48.99383" lon="-0.55368">
        <ele>210.8</ele>
        <time>2024-04-07T10:39:44Z</time>
      </trkpt>
      <trkpt lat="48.99381" lon="-0.55363">
        <ele>211</ele>
        <time>2024-04-07T10:39:45Z</time>
      </trkpt>
      <trkpt lat="48.99379" lon="-0.55359">
        <ele>211.2</ele>
        <time>2024-04-07T10:39:46Z</time>
      </trkpt>
      <trkpt lat="48.99378" lon="-0.55354">
        <ele>211.4</ele>
        <time>2024-04-07T10:39:47Z</time>
      </trkpt>
      <trkpt lat="48.99376" lon="-0.55349">
        <ele>211.6</ele>
        <time>2024-04-07T10:39:48Z</time>
      </trkpt>
      <trkpt lat="48.99374" lon="-0.55344">
        <ele>212</ele>
        <time>2024-04-07T10:39:49Z</time>
      </trkpt>
      <trkpt lat="48.99373" lon="-0.55339">
        <ele>212.2</ele>
        <time>2024-04-07T10:39:50Z</time>
      </trkpt>
      <trkpt lat="48.99371" lon="-0.55334">
        <ele>212.4</ele>
        <time>2024-04-07T10:39:51Z</time>
      </trkpt>
      <trkpt lat="48.99369" lon="-0.5533">
        <ele>212.6</ele>
        <time>2024-04-07T10:39:52Z</time>
      </trkpt>
      <trkpt lat="48.99368" lon="-0.55326">
        <ele>212.8</ele>
        <time>2024-04-07T10:39:53Z</time>
      </trkpt>
      <trkpt lat="48.99367" lon="-0.55321">
        <ele>213</ele>
        <time>2024-04-07T10:39:54Z</time>
      </trkpt>
      <trkpt lat="48.99366" lon="-0.55315">
        <ele>213.2</ele>
        <time>2024-04-07T10:39:55Z</time>
      </trkpt>
      <trkpt lat="48.99365" lon="-0.5531">
        <ele>213.4</ele>
        <time>2024-04-07T10:39:56Z</time>
      </trkpt>
      <trkpt lat="48.99364" lon="-0.55305">
        <ele>213.6</ele>
        <time>2024-04-07T10:39:57Z</time>
      </trkpt>
      <trkpt lat="48.99363" lon="-0.553">
        <ele>213.8</ele>
        <time>2024-04-07T10:39:58Z</time>
      </trkpt>
      <trkpt lat="48.99363" lon="-0.55295">
        <ele>214</ele>
        <time>2024-04-07T10:39:59Z</time>
      </trkpt>
      <trkpt lat="48.99363" lon="-0.55291">
        <ele>214.4</ele>
        <time>2024-04-07T10:40:00Z</time>
      </trkpt>
      <trkpt lat="48.99362" lon="-0.55286">
        <ele>214.6</ele>
        <time>2024-04-07T10:40:01Z</time>
      </trkpt>
      <trkpt lat="48.99363" lon="-0.55282">
        <ele>214.6</ele>
        <time>2024-04-07T10:40:02Z</time>
      </trkpt>
      <trkpt lat="48.99363" lon="-0.55278">
        <ele>214.8</ele>
        <time>2024-04-07T10:40:03Z</time>
      </trkpt>
      <trkpt lat="48.99363" lon="-0.55273">
        <ele>215.2</ele>
        <time>2024-04-07T10:40:04Z</time>
      </trkpt>
      <trkpt lat="48.99363" lon="-0.55269">
        <ele>215.4</ele>
        <time>2024-04-07T10:40:05Z</time>
      </trkpt>
      <trkpt lat="48.99364" lon="-0.55264">
        <ele>215.6</ele>
        <time>2024-04-07T10:40:06Z</time>
      </trkpt>
      <trkpt lat="48.99365" lon="-0.5526">
        <ele>215.8</ele>
        <time>2024-04-07T10:40:07Z</time>
      </trkpt>
      <trkpt lat="48.99365" lon="-0.55256">
        <ele>216</ele>
        <time>2024-04-07T10:40:08Z</time>
      </trkpt>
      <trkpt lat="48.99366" lon="-0.55251">
        <ele>216.4</ele>
        <time>2024-04-07T10:40:09Z</time>
      </trkpt>
      <trkpt lat="48.99367" lon="-0.55246">
        <ele>216.8</ele>
        <time>2024-04-07T10:40:10Z</time>
      </trkpt>
      <trkpt lat="48.99368" lon="-0.55241">
        <ele>217.2</ele>
        <time>2024-04-07T10:40:11Z</time>
      </trkpt>
      <trkpt lat="48.99369" lon="-0.55236">
        <ele>217.4</ele>
        <time>2024-04-07T10:40:12Z</time>
      </trkpt>
      <trkpt lat="48.9937" lon="-0.55232">
        <ele>217.8</ele>
        <time>2024-04-07T10:40:13Z</time>
      </trkpt>
      <trkpt lat="48.99371" lon="-0.55228">
        <ele>218</ele>
        <time>2024-04-07T10:40:14Z</time>
      </trkpt>
      <trkpt lat="48.99373" lon="-0.55224">
        <ele>218.4</ele>
        <time>2024-04-07T10:40:15Z</time>
      </trkpt>
      <trkpt lat="48.99375" lon="-0.5522">
        <ele>218.8</ele>
        <time>2024-04-07T10:40:16Z</time>
      </trkpt>
      <trkpt lat="48.99378" lon="-0.55216">
        <ele>219</ele>
        <time>2024-04-07T10:40:17Z</time>
      </trkpt>
      <trkpt lat="48.9938" lon="-0.55212">
        <ele>219.2</ele>
        <time>2024-04-07T10:40:18Z</time>
      </trkpt>
      <trkpt lat="48.99382" lon="-0.55209">
        <ele>219.6</ele>
        <time>2024-04-07T10:40:19Z</time>
      </trkpt>
      <trkpt lat="48.99383" lon="-0.55205">
        <ele>219.8</ele>
        <time>2024-04-07T10:40:20Z</time>
      </trkpt>
      <trkpt lat="48.99385" lon="-0.55201">
        <ele>220.2</ele>
        <time>2024-04-07T10:40:21Z</time>
      </trkpt>
      <trkpt lat="48.99387" lon="-0.55197">
        <ele>220.4</ele>
        <time>2024-04-07T10:40:22Z</time>
      </trkpt>
      <trkpt lat="48.99389" lon="-0.55193">
        <ele>220.6</ele>
        <time>2024-04-07T10:40:23Z</time>
      </trkpt>
      <trkpt lat="48.99391" lon="-0.5519">
        <ele>220.8</ele>
        <time>2024-04-07T10:40:24Z</time>
      </trkpt>
      <trkpt lat="48.99393" lon="-0.55187">
        <ele>221</ele>
        <time>2024-04-07T10:40:25Z</time>
      </trkpt>
      <trkpt lat="48.99395" lon="-0.55183">
        <ele>221</ele>
        <time>2024-04-07T10:40:26Z</time>
      </trkpt>
      <trkpt lat="48.99397" lon="-0.5518">
        <ele>221.2</ele>
        <time>2024-04-07T10:40:27Z</time>
      </trkpt>
      <trkpt lat="48.994" lon="-0.55178">
        <ele>221.4</ele>
        <time>2024-04-07T10:40:28Z</time>
      </trkpt>
      <trkpt lat="48.99402" lon="-0.55175">
        <ele>222</ele>
        <time>2024-04-07T10:40:29Z</time>
      </trkpt>
      <trkpt lat="48.99405" lon="-0.55172">
        <ele>222.4</ele>
        <time>2024-04-07T10:40:30Z</time>
      </trkpt>
      <trkpt lat="48.99407" lon="-0.55171">
        <ele>222.8</ele>
        <time>2024-04-07T10:40:31Z</time>
      </trkpt>
      <trkpt lat="48.99409" lon="-0.55167">
        <ele>223</ele>
        <time>2024-04-07T10:40:32Z</time>
      </trkpt>
      <trkpt lat="48.99411" lon="-0.55165">
        <ele>223.4</ele>
        <time>2024-04-07T10:40:33Z</time>
      </trkpt>
      <trkpt lat="48.99414" lon="-0.55162">
        <ele>223.6</ele>
        <time>2024-04-07T10:40:34Z</time>
      </trkpt>
      <trkpt lat="48.99417" lon="-0.5516">
        <ele>223.8</ele>
        <time>2024-04-07T10:40:35Z</time>
      </trkpt>
      <trkpt lat="48.99419" lon="-0.55157">
        <ele>224</ele>
        <time>2024-04-07T10:40:36Z</time>
      </trkpt>
      <trkpt lat="48.99422" lon="-0.55154">
        <ele>224</ele>
        <time>2024-04-07T10:40:37Z</time>
      </trkpt>
      <trkpt lat="48.99424" lon="-0.55152">
        <ele>224.2</ele>
        <time>2024-04-07T10:40:38Z</time>
      </trkpt>
      <trkpt lat="48.99427" lon="-0.5515">
        <ele>224.4</ele>
        <time>2024-04-07T10:40:39Z</time>
      </trkpt>
      <trkpt lat="48.99429" lon="-0.55149">
        <ele>224.6</ele>
        <time>2024-04-07T10:40:40Z</time>
      </trkpt>
      <trkpt lat="48.99431" lon="-0.55147">
        <ele>224.8</ele>
        <time>2024-04-07T10:40:41Z</time>
      </trkpt>
      <trkpt lat="48.99434" lon="-0.55144">
        <ele>224.8</ele>
        <time>2024-04-07T10:40:42Z</time>
      </trkpt>
      <trkpt lat="48.99436" lon="-0.55142">
        <ele>225</ele>
        <time>2024-04-07T10:40:43Z</time>
      </trkpt>
      <trkpt lat="48.99439" lon="-0.55141">
        <ele>225.4</ele>
        <time>2024-04-07T10:40:44Z</time>
      </trkpt>
      <trkpt lat="48.99441" lon="-0.55139">
        <ele>225.4</ele>
        <time>2024-04-07T10:40:45Z</time>
      </trkpt>
      <trkpt lat="48.99443" lon="-0.55136">
        <ele>225.6</ele>
        <time>2024-04-07T10:40:46Z</time>
      </trkpt>
      <trkpt lat="48.99446" lon="-0.55133">
        <ele>226</ele>
        <time>2024-04-07T10:40:47Z</time>
      </trkpt>
      <trkpt lat="48.99449" lon="-0.55131">
        <ele>226.2</ele>
        <time>2024-04-07T10:40:48Z</time>
      </trkpt>
      <trkpt lat="48.99452" lon="-0.55129">
        <ele>226.4</ele>
        <time>2024-04-07T10:40:49Z</time>
      </trkpt>
      <trkpt lat="48.99455" lon="-0.55126">
        <ele>226.6</ele>
        <time>2024-04-07T10:40:50Z</time>
      </trkpt>
      <trkpt lat="48.99458" lon="-0.55124">
        <ele>226.8</ele>
        <time>2024-04-07T10:40:51Z</time>
      </trkpt>
      <trkpt lat="48.9946" lon="-0.55122">
        <ele>227</ele>
        <time>2024-04-07T10:40:52Z</time>
      </trkpt>
      <trkpt lat="48.99463" lon="-0.55119">
        <ele>227.2</ele>
        <time>2024-04-07T10:40:53Z</time>
      </trkpt>
      <trkpt lat="48.99465" lon="-0.55118">
        <ele>227.4</ele>
        <time>2024-04-07T10:40:54Z</time>
      </trkpt>
      <trkpt lat="48.99467" lon="-0.55115">
        <ele>227.8</ele>
        <time>2024-04-07T10:40:55Z</time>
      </trkpt>
      <trkpt lat="48.9947" lon="-0.55113">
        <ele>228</ele>
        <time>2024-04-07T10:40:56Z</time>
      </trkpt>
      <trkpt lat="48.99473" lon="-0.55111">
        <ele>228.4</ele>
        <time>2024-04-07T10:40:57Z</time>
      </trkpt>
      <trkpt lat="48.99476" lon="-0.5511">
        <ele>228.8</ele>
        <time>2024-04-07T10:40:58Z</time>
      </trkpt>
      <trkpt lat="48.99479" lon="-0.55108">
        <ele>229</ele>
        <time>2024-04-07T10:40:59Z</time>
      </trkpt>
      <trkpt lat="48.99482" lon="-0.55105">
        <ele>229.2</ele>
        <time>2024-04-07T10:41:00Z</time>
      </trkpt>
      <trkpt lat="48.99485" lon="-0.55103">
        <ele>229.4</ele>
        <time>2024-04-07T10:41:01Z</time>
      </trkpt>
      <trkpt lat="48.99488" lon="-0.55101">
        <ele>229.6</ele>
        <time>2024-04-07T10:41:02Z</time>
      </trkpt>
      <trkpt lat="48.99491" lon="-0.55098">
        <ele>229.8</ele>
        <time>2024-04-07T10:41:03Z</time>
      </trkpt>
      <trkpt lat="48.99494" lon="-0.55096">
        <ele>229.8</ele>
        <time>2024-04-07T10:41:04Z</time>
      </trkpt>
      <trkpt lat="48.99498" lon="-0.55094">
        <ele>230</ele>
        <time>2024-04-07T10:41:05Z</time>
      </trkpt>
      <trkpt lat="48.995" lon="-0.55092">
        <ele>230</ele>
        <time>2024-04-07T10:41:06Z</time>
      </trkpt>
      <trkpt lat="48.99503" lon="-0.55089">
        <ele>230.2</ele>
        <time>2024-04-07T10:41:07Z</time>
      </trkpt>
      <trkpt lat="48.99506" lon="-0.55087">
        <ele>230.4</ele>
        <time>2024-04-07T10:41:08Z</time>
      </trkpt>
      <trkpt lat="48.99508" lon="-0.55086">
        <ele>230.6</ele>
        <time>2024-04-07T10:41:09Z</time>
      </trkpt>
      <trkpt lat="48.99511" lon="-0.55085">
        <ele>230.8</ele>
        <time>2024-04-07T10:41:10Z</time>
      </trkpt>
      <trkpt lat="48.99514" lon="-0.55083">
        <ele>231</ele>
        <time>2024-04-07T10:41:11Z</time>
      </trkpt>
      <trkpt lat="48.99518" lon="-0.55081">
        <ele>231.4</ele>
        <time>2024-04-07T10:41:12Z</time>
      </trkpt>
      <trkpt lat="48.99521" lon="-0.55079">
        <ele>231.6</ele>
        <time>2024-04-07T10:41:13Z</time>
      </trkpt>
      <trkpt lat="48.99524" lon="-0.55077">
        <ele>231.8</ele>
        <time>2024-04-07T10:41:14Z</time>
      </trkpt>
      <trkpt lat="48.99526" lon="-0.55074">
        <ele>232</ele>
        <time>2024-04-07T10:41:15Z</time>
      </trkpt>
      <trkpt lat="48.99529" lon="-0.55072">
        <ele>232</ele>
        <time>2024-04-07T10:41:16Z</time>
      </trkpt>
      <trkpt lat="48.99531" lon="-0.55071">
        <ele>232.2</ele>
        <time>2024-04-07T10:41:17Z</time>
      </trkpt>
      <trkpt lat="48.99534" lon="-0.55069">
        <ele>232.4</ele>
        <time>2024-04-07T10:41:18Z</time>
      </trkpt>
      <trkpt lat="48.99537" lon="-0.55066">
        <ele>232.4</ele>
        <time>2024-04-07T10:41:19Z</time>
      </trkpt>
      <trkpt lat="48.9954" lon="-0.55064">
        <ele>232.6</ele>
        <time>2024-04-07T10:41:20Z</time>
      </trkpt>
      <trkpt lat="48.99543" lon="-0.55061">
        <ele>232.8</ele>
        <time>2024-04-07T10:41:21Z</time>
      </trkpt>
      <trkpt lat="48.99546" lon="-0.55058">
        <ele>233</ele>
        <time>2024-04-07T10:41:22Z</time>
      </trkpt>
      <trkpt lat="48.99549" lon="-0.55057">
        <ele>233.2</ele>
        <time>2024-04-07T10:41:23Z</time>
      </trkpt>
      <trkpt lat="48.99552" lon="-0.55055">
        <ele>233.4</ele>
        <time>2024-04-07T10:41:24Z</time>
      </trkpt>
      <trkpt lat="48.99555" lon="-0.55052">
        <ele>233.6</ele>
        <time>2024-04-07T10:41:25Z</time>
      </trkpt>
      <trkpt lat="48.99558" lon="-0.5505">
        <ele>233.8</ele>
        <time>2024-04-07T10:41:26Z</time>
      </trkpt>
      <trkpt lat="48.9956" lon="-0.55046">
        <ele>234.2</ele>
        <time>2024-04-07T10:41:27Z</time>
      </trkpt>
      <trkpt lat="48.99563" lon="-0.55044">
        <ele>234.4</ele>
        <time>2024-04-07T10:41:28Z</time>
      </trkpt>
      <trkpt lat="48.99566" lon="-0.55041">
        <ele>234.6</ele>
        <time>2024-04-07T10:41:29Z</time>
      </trkpt>
      <trkpt lat="48.99568" lon="-0.55038">
        <ele>234.8</ele>
        <time>2024-04-07T10:41:30Z</time>
      </trkpt>
      <trkpt lat="48.9957" lon="-0.55036">
        <ele>235</ele>
        <time>2024-04-07T10:41:31Z</time>
      </trkpt>
      <trkpt lat="48.99573" lon="-0.55034">
        <ele>235.2</ele>
        <time>2024-04-07T10:41:32Z</time>
      </trkpt>
      <trkpt lat="48.99575" lon="-0.55032">
        <ele>235.4</ele>
        <time>2024-04-07T10:41:33Z</time>
      </trkpt>
      <trkpt lat="48.99578" lon="-0.5503">
        <ele>235.6</ele>
        <time>2024-04-07T10:41:34Z</time>
      </trkpt>
      <trkpt lat="48.9958" lon="-0.55028">
        <ele>235.8</ele>
        <time>2024-04-07T10:41:35Z</time>
      </trkpt>
      <trkpt lat="48.99582" lon="-0.55025">
        <ele>236.2</ele>
        <time>2024-04-07T10:41:36Z</time>
      </trkpt>
      <trkpt lat="48.99584" lon="-0.55022">
        <ele>236.6</ele>
        <time>2024-04-07T10:41:37Z</time>
      </trkpt>
      <trkpt lat="48.99587" lon="-0.55017">
        <ele>237</ele>
        <time>2024-04-07T10:41:38Z</time>
      </trkpt>
      <trkpt lat="48.99589" lon="-0.55014">
        <ele>237.2</ele>
        <time>2024-04-07T10:41:39Z</time>
      </trkpt>
      <trkpt lat="48.99592" lon="-0.5501">
        <ele>237.4</ele>
        <time>2024-04-07T10:41:40Z</time>
      </trkpt>
      <trkpt lat="48.99595" lon="-0.55007">
        <ele>237.4</ele>
        <time>2024-04-07T10:41:41Z</time>
      </trkpt>
      <trkpt lat="48.99598" lon="-0.55004">
        <ele>237.6</ele>
        <time>2024-04-07T10:41:42Z</time>
      </trkpt>
      <trkpt lat="48.99601" lon="-0.55">
        <ele>238</ele>
        <time>2024-04-07T10:41:43Z</time>
      </trkpt>
      <trkpt lat="48.99603" lon="-0.54997">
        <ele>238.4</ele>
        <time>2024-04-07T10:41:44Z</time>
      </trkpt>
      <trkpt lat="48.99606" lon="-0.54994">
        <ele>238.8</ele>
        <time>2024-04-07T10:41:45Z</time>
      </trkpt>
      <trkpt lat="48.99608" lon="-0.5499">
        <ele>239</ele>
        <time>2024-04-07T10:41:46Z</time>
      </trkpt>
      <trkpt lat="48.9961" lon="-0.54987">
        <ele>239.4</ele>
        <time>2024-04-07T10:41:47Z</time>
      </trkpt>
      <trkpt lat="48.99612" lon="-0.54983">
        <ele>239.4</ele>
        <time>2024-04-07T10:41:48Z</time>
      </trkpt>
      <trkpt lat="48.99614" lon="-0.54979">
        <ele>239.6</ele>
        <time>2024-04-07T10:41:49Z</time>
      </trkpt>
      <trkpt lat="48.99616" lon="-0.54974">
        <ele>239.8</ele>
        <time>2024-04-07T10:41:50Z</time>
      </trkpt>
      <trkpt lat="48.99618" lon="-0.5497">
        <ele>240</ele>
        <time>2024-04-07T10:41:51Z</time>
      </trkpt>
      <trkpt lat="48.99621" lon="-0.54966">
        <ele>240.2</ele>
        <time>2024-04-07T10:41:52Z</time>
      </trkpt>
      <trkpt lat="48.99623" lon="-0.54962">
        <ele>240.2</ele>
        <time>2024-04-07T10:41:53Z</time>
      </trkpt>
      <trkpt lat="48.99624" lon="-0.54958">
        <ele>240.4</ele>
        <time>2024-04-07T10:41:54Z</time>
      </trkpt>
      <trkpt lat="48.99627" lon="-0.54954">
        <ele>240.6</ele>
        <time>2024-04-07T10:41:55Z</time>
      </trkpt>
      <trkpt lat="48.99628" lon="-0.54949">
        <ele>240.8</ele>
        <time>2024-04-07T10:41:56Z</time>
      </trkpt>
      <trkpt lat="48.9963" lon="-0.54945">
        <ele>241</ele>
        <time>2024-04-07T10:41:57Z</time>
      </trkpt>
      <trkpt lat="48.99632" lon="-0.54941">
        <ele>241.2</ele>
        <time>2024-04-07T10:41:58Z</time>
      </trkpt>
      <trkpt lat="48.99634" lon="-0.54936">
        <ele>241.6</ele>
        <time>2024-04-07T10:41:59Z</time>
      </trkpt>
      <trkpt lat="48.99636" lon="-0.5493">
        <ele>241.8</ele>
        <time>2024-04-07T10:42:00Z</time>
      </trkpt>
      <trkpt lat="48.99637" lon="-0.54925">
        <ele>242</ele>
        <time>2024-04-07T10:42:01Z</time>
      </trkpt>
      <trkpt lat="48.99639" lon="-0.54921">
        <ele>242.2</ele>
        <time>2024-04-07T10:42:02Z</time>
      </trkpt>
      <trkpt lat="48.9964" lon="-0.54917">
        <ele>242.4</ele>
        <time>2024-04-07T10:42:03Z</time>
      </trkpt>
      <trkpt lat="48.99642" lon="-0.54913">
        <ele>242.6</ele>
        <time>2024-04-07T10:42:04Z</time>
      </trkpt>
      <trkpt lat="48.99643" lon="-0.54908">
        <ele>242.6</ele>
        <time>2024-04-07T10:42:05Z</time>
      </trkpt>
      <trkpt lat="48.99644" lon="-0.54904">
        <ele>242.8</ele>
        <time>2024-04-07T10:42:06Z</time>
      </trkpt>
      <trkpt lat="48.99646" lon="-0.54899">
        <ele>243</ele>
        <time>2024-04-07T10:42:07Z</time>
      </trkpt>
      <trkpt lat="48.99647" lon="-0.54895">
        <ele>243.2</ele>
        <time>2024-04-07T10:42:08Z</time>
      </trkpt>
      <trkpt lat="48.99649" lon="-0.5489">
        <ele>243.4</ele>
        <time>2024-04-07T10:42:09Z</time>
      </trkpt>
      <trkpt lat="48.99651" lon="-0.54885">
        <ele>243.6</ele>
        <time>2024-04-07T10:42:10Z</time>
      </trkpt>
      <trkpt lat="48.99653" lon="-0.54881">
        <ele>243.8</ele>
        <time>2024-04-07T10:42:11Z</time>
      </trkpt>
      <trkpt lat="48.99655" lon="-0.54876">
        <ele>244.2</ele>
        <time>2024-04-07T10:42:12Z</time>
      </trkpt>
      <trkpt lat="48.99657" lon="-0.54872">
        <ele>244.4</ele>
        <time>2024-04-07T10:42:13Z</time>
      </trkpt>
      <trkpt lat="48.99659" lon="-0.54866">
        <ele>244.6</ele>
        <time>2024-04-07T10:42:14Z</time>
      </trkpt>
      <trkpt lat="48.99661" lon="-0.54861">
        <ele>244.8</ele>
        <time>2024-04-07T10:42:15Z</time>
      </trkpt>
      <trkpt lat="48.99663" lon="-0.54856">
        <ele>245</ele>
        <time>2024-04-07T10:42:16Z</time>
      </trkpt>
      <trkpt lat="48.99665" lon="-0.54851">
        <ele>245.2</ele>
        <time>2024-04-07T10:42:17Z</time>
      </trkpt>
      <trkpt lat="48.99666" lon="-0.54846">
        <ele>245.4</ele>
        <time>2024-04-07T10:42:18Z</time>
      </trkpt>
      <trkpt lat="48.99667" lon="-0.5484">
        <ele>245.6</ele>
        <time>2024-04-07T10:42:19Z</time>
      </trkpt>
      <trkpt lat="48.99668" lon="-0.54835">
        <ele>245.6</ele>
        <time>2024-04-07T10:42:20Z</time>
      </trkpt>
      <trkpt lat="48.99669" lon="-0.5483">
        <ele>245.8</ele>
        <time>2024-04-07T10:42:21Z</time>
      </trkpt>
      <trkpt lat="48.9967" lon="-0.54825">
        <ele>246.2</ele>
        <time>2024-04-07T10:42:22Z</time>
      </trkpt>
      <trkpt lat="48.99671" lon="-0.5482">
        <ele>246.4</ele>
        <time>2024-04-07T10:42:23Z</time>
      </trkpt>
      <trkpt lat="48.99672" lon="-0.54815">
        <ele>246.6</ele>
        <time>2024-04-07T10:42:24Z</time>
      </trkpt>
      <trkpt lat="48.99674" lon="-0.5481">
        <ele>246.8</ele>
        <time>2024-04-07T10:42:25Z</time>
      </trkpt>
      <trkpt lat="48.99675" lon="-0.54805">
        <ele>247</ele>
        <time>2024-04-07T10:42:26Z</time>
      </trkpt>
      <trkpt lat="48.99677" lon="-0.54799">
        <ele>247.2</ele>
        <time>2024-04-07T10:42:27Z</time>
      </trkpt>
      <trkpt lat="48.99678" lon="-0.54794">
        <ele>247.4</ele>
        <time>2024-04-07T10:42:28Z</time>
      </trkpt>
      <trkpt lat="48.99679" lon="-0.54788">
        <ele>247.6</ele>
        <time>2024-04-07T10:42:29Z</time>
      </trkpt>
      <trkpt lat="48.9968" lon="-0.54783">
        <ele>247.8</ele>
        <time>2024-04-07T10:42:30Z</time>
      </trkpt>
      <trkpt lat="48.99681" lon="-0.54778">
        <ele>247.8</ele>
        <time>2024-04-07T10:42:31Z</time>
      </trkpt>
      <trkpt lat="48.99683" lon="-0.54773">
        <ele>248</ele>
        <time>2024-04-07T10:42:32Z</time>
      </trkpt>
      <trkpt lat="48.99684" lon="-0.54768">
        <ele>248</ele>
        <time>2024-04-07T10:42:33Z</time>
      </trkpt>
      <trkpt lat="48.99685" lon="-0.54762">
        <ele>248.2</ele>
        <time>2024-04-07T10:42:34Z</time>
      </trkpt>
      <trkpt lat="48.99687" lon="-0.54757">
        <ele>248.4</ele>
        <time>2024-04-07T10:42:35Z</time>
      </trkpt>
      <trkpt lat="48.99688" lon="-0.54751">
        <ele>248.6</ele>
        <time>2024-04-07T10:42:36Z</time>
      </trkpt>
      <trkpt lat="48.99689" lon="-0.54746">
        <ele>248.8</ele>
        <time>2024-04-07T10:42:37Z</time>
      </trkpt>
      <trkpt lat="48.99691" lon="-0.54741">
        <ele>249</ele>
        <time>2024-04-07T10:42:38Z</time>
      </trkpt>
      <trkpt lat="48.99692" lon="-0.54736">
        <ele>249.2</ele>
        <time>2024-04-07T10:42:39Z</time>
      </trkpt>
      <trkpt lat="48.99694" lon="-0.54731">
        <ele>249.4</ele>
        <time>2024-04-07T10:42:40Z</time>
      </trkpt>
      <trkpt lat="48.99695" lon="-0.54726">
        <ele>249.6</ele>
        <time>2024-04-07T10:42:41Z</time>
      </trkpt>
      <trkpt lat="48.99696" lon="-0.5472">
        <ele>249.8</ele>
        <time>2024-04-07T10:42:42Z</time>
      </trkpt>
      <trkpt lat="48.99697" lon="-0.54715">
        <ele>250</ele>
        <time>2024-04-07T10:42:43Z</time>
      </trkpt>
      <trkpt lat="48.99698" lon="-0.54711">
        <ele>250.2</ele>
        <time>2024-04-07T10:42:44Z</time>
      </trkpt>
      <trkpt lat="48.99699" lon="-0.54706">
        <ele>250.4</ele>
        <time>2024-04-07T10:42:45Z</time>
      </trkpt>
      <trkpt lat="48.99699" lon="-0.54706">
        <ele>250.6</ele>
        <time>2024-04-07T10:42:46Z</time>
      </trkpt>
      <trkpt lat="48.99701" lon="-0.54695">
        <ele>250.6</ele>
        <time>2024-04-07T10:42:47Z</time>
      </trkpt>
      <trkpt lat="48.99702" lon="-0.5469">
        <ele>250.8</ele>
        <time>2024-04-07T10:42:48Z</time>
      </trkpt>
      <trkpt lat="48.99703" lon="-0.54684">
        <ele>251</ele>
        <time>2024-04-07T10:42:49Z</time>
      </trkpt>
      <trkpt lat="48.99704" lon="-0.54679">
        <ele>251.2</ele>
        <time>2024-04-07T10:42:50Z</time>
      </trkpt>
      <trkpt lat="48.99704" lon="-0.54673">
        <ele>251.6</ele>
        <time>2024-04-07T10:42:51Z</time>
      </trkpt>
      <trkpt lat="48.99705" lon="-0.54668">
        <ele>252</ele>
        <time>2024-04-07T10:42:52Z</time>
      </trkpt>
      <trkpt lat="48.99705" lon="-0.54662">
        <ele>252.2</ele>
        <time>2024-04-07T10:42:53Z</time>
      </trkpt>
      <trkpt lat="48.99706" lon="-0.54658">
        <ele>252.4</ele>
        <time>2024-04-07T10:42:54Z</time>
      </trkpt>
      <trkpt lat="48.99707" lon="-0.54653">
        <ele>252.6</ele>
        <time>2024-04-07T10:42:55Z</time>
      </trkpt>
      <trkpt lat="48.99708" lon="-0.54648">
        <ele>253</ele>
        <time>2024-04-07T10:42:56Z</time>
      </trkpt>
      <trkpt lat="48.99709" lon="-0.54643">
        <ele>253.2</ele>
        <time>2024-04-07T10:42:57Z</time>
      </trkpt>
      <trkpt lat="48.9971" lon="-0.54638">
        <ele>253.4</ele>
        <time>2024-04-07T10:42:58Z</time>
      </trkpt>
      <trkpt lat="48.99711" lon="-0.54633">
        <ele>253.6</ele>
        <time>2024-04-07T10:42:59Z</time>
      </trkpt>
      <trkpt lat="48.99713" lon="-0.54629">
        <ele>253.8</ele>
        <time>2024-04-07T10:43:00Z</time>
      </trkpt>
      <trkpt lat="48.99714" lon="-0.54624">
        <ele>254.2</ele>
        <time>2024-04-07T10:43:01Z</time>
      </trkpt>
      <trkpt lat="48.99715" lon="-0.54619">
        <ele>254.6</ele>
        <time>2024-04-07T10:43:02Z</time>
      </trkpt>
      <trkpt lat="48.99717" lon="-0.54615">
        <ele>254.8</ele>
        <time>2024-04-07T10:43:03Z</time>
      </trkpt>
      <trkpt lat="48.99719" lon="-0.54611">
        <ele>255</ele>
        <time>2024-04-07T10:43:04Z</time>
      </trkpt>
      <trkpt lat="48.99721" lon="-0.54607">
        <ele>255.2</ele>
        <time>2024-04-07T10:43:05Z</time>
      </trkpt>
      <trkpt lat="48.99723" lon="-0.54603">
        <ele>255.6</ele>
        <time>2024-04-07T10:43:06Z</time>
      </trkpt>
      <trkpt lat="48.99725" lon="-0.54599">
        <ele>255.8</ele>
        <time>2024-04-07T10:43:07Z</time>
      </trkpt>
      <trkpt lat="48.99728" lon="-0.54596">
        <ele>256</ele>
        <time>2024-04-07T10:43:08Z</time>
      </trkpt>
      <trkpt lat="48.9973" lon="-0.54592">
        <ele>256</ele>
        <time>2024-04-07T10:43:09Z</time>
      </trkpt>
      <trkpt lat="48.99733" lon="-0.54589">
        <ele>256.4</ele>
        <time>2024-04-07T10:43:10Z</time>
      </trkpt>
      <trkpt lat="48.99736" lon="-0.54586">
        <ele>256.6</ele>
        <time>2024-04-07T10:43:11Z</time>
      </trkpt>
      <trkpt lat="48.99738" lon="-0.54583">
        <ele>256.8</ele>
        <time>2024-04-07T10:43:12Z</time>
      </trkpt>
      <trkpt lat="48.99742" lon="-0.54581">
        <ele>257.2</ele>
        <time>2024-04-07T10:43:13Z</time>
      </trkpt>
      <trkpt lat="48.99745" lon="-0.54579">
        <ele>257.4</ele>
        <time>2024-04-07T10:43:14Z</time>
      </trkpt>
      <trkpt lat="48.99748" lon="-0.54578">
        <ele>257.8</ele>
        <time>2024-04-07T10:43:15Z</time>
      </trkpt>
      <trkpt lat="48.99752" lon="-0.54577">
        <ele>258</ele>
        <time>2024-04-07T10:43:16Z</time>
      </trkpt>
      <trkpt lat="48.99752" lon="-0.54577">
        <ele>258.2</ele>
        <time>2024-04-07T10:43:17Z</time>
      </trkpt>
      <trkpt lat="48.99759" lon="-0.54578">
        <ele>258.4</ele>
        <time>2024-04-07T10:43:18Z</time>
      </trkpt>
      <trkpt lat="48.99762" lon="-0.54579">
        <ele>258.4</ele>
        <time>2024-04-07T10:43:19Z</time>
      </trkpt>
      <trkpt lat="48.99766" lon="-0.54582">
        <ele>258.6</ele>
        <time>2024-04-07T10:43:20Z</time>
      </trkpt>
      <trkpt lat="48.99769" lon="-0.54584">
        <ele>258.8</ele>
        <time>2024-04-07T10:43:21Z</time>
      </trkpt>
      <trkpt lat="48.99772" lon="-0.54587">
        <ele>259.2</ele>
        <time>2024-04-07T10:43:22Z</time>
      </trkpt>
      <trkpt lat="48.99775" lon="-0.5459">
        <ele>259.4</ele>
        <time>2024-04-07T10:43:23Z</time>
      </trkpt>
      <trkpt lat="48.99778" lon="-0.54593">
        <ele>259.6</ele>
        <time>2024-04-07T10:43:24Z</time>
      </trkpt>
      <trkpt lat="48.99781" lon="-0.54595">
        <ele>259.6</ele>
        <time>2024-04-07T10:43:25Z</time>
      </trkpt>
      <trkpt lat="48.99785" lon="-0.54597">
        <ele>259.8</ele>
        <time>2024-04-07T10:43:26Z</time>
      </trkpt>
      <trkpt lat="48.99785" lon="-0.54597">
        <ele>259.8</ele>
        <time>2024-04-07T10:43:27Z</time>
      </trkpt>
      <trkpt lat="48.99791" lon="-0.54602">
        <ele>259.8</ele>
        <time>2024-04-07T10:43:28Z</time>
      </trkpt>
      <trkpt lat="48.99794" lon="-0.54604">
        <ele>260</ele>
        <time>2024-04-07T10:43:29Z</time>
      </trkpt>
      <trkpt lat="48.99797" lon="-0.54607">
        <ele>260.2</ele>
        <time>2024-04-07T10:43:30Z</time>
      </trkpt>
      <trkpt lat="48.99797" lon="-0.54607">
        <ele>260.4</ele>
        <time>2024-04-07T10:43:31Z</time>
      </trkpt>
      <trkpt lat="48.99804" lon="-0.54612">
        <ele>260.4</ele>
        <time>2024-04-07T10:43:32Z</time>
      </trkpt>
      <trkpt lat="48.99807" lon="-0.54614">
        <ele>260.6</ele>
        <time>2024-04-07T10:43:33Z</time>
      </trkpt>
      <trkpt lat="48.9981" lon="-0.54616">
        <ele>260.8</ele>
        <time>2024-04-07T10:43:34Z</time>
      </trkpt>
      <trkpt lat="48.99814" lon="-0.54617">
        <ele>260.8</ele>
        <time>2024-04-07T10:43:35Z</time>
      </trkpt>
      <trkpt lat="48.99814" lon="-0.54617">
        <ele>261.2</ele>
        <time>2024-04-07T10:43:36Z</time>
      </trkpt>
      <trkpt lat="48.99821" lon="-0.54622">
        <ele>261.4</ele>
        <time>2024-04-07T10:43:37Z</time>
      </trkpt>
      <trkpt lat="48.99824" lon="-0.54624">
        <ele>261.8</ele>
        <time>2024-04-07T10:43:38Z</time>
      </trkpt>
      <trkpt lat="48.99828" lon="-0.54625">
        <ele>262</ele>
        <time>2024-04-07T10:43:39Z</time>
      </trkpt>
      <trkpt lat="48.99832" lon="-0.54626">
        <ele>262</ele>
        <time>2024-04-07T10:43:40Z</time>
      </trkpt>
      <trkpt lat="48.99836" lon="-0.54628">
        <ele>262</ele>
        <time>2024-04-07T10:43:41Z</time>
      </trkpt>
      <trkpt lat="48.9984" lon="-0.5463">
        <ele>262.2</ele>
        <time>2024-04-07T10:43:42Z</time>
      </trkpt>
      <trkpt lat="48.99843" lon="-0.54632">
        <ele>262.2</ele>
        <time>2024-04-07T10:43:43Z</time>
      </trkpt>
      <trkpt lat="48.99847" lon="-0.54634">
        <ele>262.2</ele>
        <time>2024-04-07T10:43:44Z</time>
      </trkpt>
      <trkpt lat="48.99851" lon="-0.54636">
        <ele>262.2</ele>
        <time>2024-04-07T10:43:45Z</time>
      </trkpt>
      <trkpt lat="48.99855" lon="-0.54637">
        <ele>262.2</ele>
        <time>2024-04-07T10:43:46Z</time>
      </trkpt>
      <trkpt lat="48.99859" lon="-0.54638">
        <ele>262.2</ele>
        <time>2024-04-07T10:43:47Z</time>
      </trkpt>
      <trkpt lat="48.99863" lon="-0.5464">
        <ele>262.4</ele>
        <time>2024-04-07T10:43:48Z</time>
      </trkpt>
      <trkpt lat="48.99866" lon="-0.54641">
        <ele>263</ele>
        <time>2024-04-07T10:43:49Z</time>
      </trkpt>
      <trkpt lat="48.9987" lon="-0.54642">
        <ele>263.6</ele>
        <time>2024-04-07T10:43:50Z</time>
      </trkpt>
      <trkpt lat="48.99874" lon="-0.54644">
        <ele>264</ele>
        <time>2024-04-07T10:43:51Z</time>
      </trkpt>
      <trkpt lat="48.99878" lon="-0.54645">
        <ele>264.2</ele>
        <time>2024-04-07T10:43:52Z</time>
      </trkpt>
      <trkpt lat="48.9988" lon="-0.54647">
        <ele>264.4</ele>
        <time>2024-04-07T10:43:53Z</time>
      </trkpt>
      <trkpt lat="48.99884" lon="-0.54648">
        <ele>264.4</ele>
        <time>2024-04-07T10:43:54Z</time>
      </trkpt>
      <trkpt lat="48.99887" lon="-0.54649">
        <ele>264.4</ele>
        <time>2024-04-07T10:43:55Z</time>
      </trkpt>
      <trkpt lat="48.9989" lon="-0.5465">
        <ele>264.4</ele>
        <time>2024-04-07T10:43:56Z</time>
      </trkpt>
      <trkpt lat="48.99894" lon="-0.54652">
        <ele>264.6</ele>
        <time>2024-04-07T10:43:57Z</time>
      </trkpt>
      <trkpt lat="48.99898" lon="-0.54653">
        <ele>264.8</ele>
        <time>2024-04-07T10:43:58Z</time>
      </trkpt>
      <trkpt lat="48.99901" lon="-0.54655">
        <ele>265.2</ele>
        <time>2024-04-07T10:43:59Z</time>
      </trkpt>
      <trkpt lat="48.99905" lon="-0.54657">
        <ele>265.6</ele>
        <time>2024-04-07T10:44:00Z</time>
      </trkpt>
      <trkpt lat="48.99908" lon="-0.54659">
        <ele>266</ele>
        <time>2024-04-07T10:44:01Z</time>
      </trkpt>
      <trkpt lat="48.99912" lon="-0.54661">
        <ele>266.6</ele>
        <time>2024-04-07T10:44:02Z</time>
      </trkpt>
      <trkpt lat="48.99915" lon="-0.54663">
        <ele>267.4</ele>
        <time>2024-04-07T10:44:03Z</time>
      </trkpt>
      <trkpt lat="48.99919" lon="-0.54666">
        <ele>267.8</ele>
        <time>2024-04-07T10:44:04Z</time>
      </trkpt>
      <trkpt lat="48.99923" lon="-0.54667">
        <ele>268</ele>
        <time>2024-04-07T10:44:05Z</time>
      </trkpt>
      <trkpt lat="48.99927" lon="-0.54669">
        <ele>268.4</ele>
        <time>2024-04-07T10:44:06Z</time>
      </trkpt>
      <trkpt lat="48.99931" lon="-0.54671">
        <ele>268.6</ele>
        <time>2024-04-07T10:44:07Z</time>
      </trkpt>
      <trkpt lat="48.99934" lon="-0.54673">
        <ele>268.8</ele>
        <time>2024-04-07T10:44:08Z</time>
      </trkpt>
      <trkpt lat="48.99938" lon="-0.54675">
        <ele>269.2</ele>
        <time>2024-04-07T10:44:09Z</time>
      </trkpt>
      <trkpt lat="48.99941" lon="-0.54677">
        <ele>269.4</ele>
        <time>2024-04-07T10:44:10Z</time>
      </trkpt>
      <trkpt lat="48.99944" lon="-0.54679">
        <ele>269.4</ele>
        <time>2024-04-07T10:44:11Z</time>
      </trkpt>
      <trkpt lat="48.99948" lon="-0.54681">
        <ele>269.6</ele>
        <time>2024-04-07T10:44:12Z</time>
      </trkpt>
      <trkpt lat="48.99951" lon="-0.54683">
        <ele>269.8</ele>
        <time>2024-04-07T10:44:13Z</time>
      </trkpt>
      <trkpt lat="48.99955" lon="-0.54685">
        <ele>270</ele>
        <time>2024-04-07T10:44:14Z</time>
      </trkpt>
      <trkpt lat="48.99958" lon="-0.54687">
        <ele>270</ele>
        <time>2024-04-07T10:44:15Z</time>
      </trkpt>
      <trkpt lat="48.99962" lon="-0.54688">
        <ele>270.2</ele>
        <time>2024-04-07T10:44:16Z</time>
      </trkpt>
      <trkpt lat="48.99965" lon="-0.54689">
        <ele>270.2</ele>
        <time>2024-04-07T10:44:17Z</time>
      </trkpt>
      <trkpt lat="48.99969" lon="-0.5469">
        <ele>270.4</ele>
        <time>2024-04-07T10:44:18Z</time>
      </trkpt>
      <trkpt lat="48.99972" lon="-0.54691">
        <ele>270.4</ele>
        <time>2024-04-07T10:44:19Z</time>
      </trkpt>
      <trkpt lat="48.99975" lon="-0.54692">
        <ele>270.6</ele>
        <time>2024-04-07T10:44:20Z</time>
      </trkpt>
      <trkpt lat="48.99979" lon="-0.54693">
        <ele>270.8</ele>
        <time>2024-04-07T10:44:21Z</time>
      </trkpt>
      <trkpt lat="48.99983" lon="-0.54693">
        <ele>271</ele>
        <time>2024-04-07T10:44:22Z</time>
      </trkpt>
      <trkpt lat="48.99986" lon="-0.54693">
        <ele>271.2</ele>
        <time>2024-04-07T10:44:23Z</time>
      </trkpt>
      <trkpt lat="48.9999" lon="-0.54693">
        <ele>271.2</ele>
        <time>2024-04-07T10:44:24Z</time>
      </trkpt>
      <trkpt lat="48.99994" lon="-0.54693">
        <ele>271.4</ele>
        <time>2024-04-07T10:44:25Z</time>
      </trkpt>
      <trkpt lat="48.99998" lon="-0.54693">
        <ele>271.8</ele>
        <time>2024-04-07T10:44:26Z</time>
      </trkpt>
      <trkpt lat="49.00001" lon="-0.54693">
        <ele>272</ele>
        <time>2024-04-07T10:44:27Z</time>
      </trkpt>
      <trkpt lat="49.00005" lon="-0.54693">
        <ele>272.2</ele>
        <time>2024-04-07T10:44:28Z</time>
      </trkpt>
      <trkpt lat="49.00008" lon="-0.54692">
        <ele>272.4</ele>
        <time>2024-04-07T10:44:29Z</time>
      </trkpt>
      <trkpt lat="49.00011" lon="-0.54692">
        <ele>272.6</ele>
        <time>2024-04-07T10:44:30Z</time>
      </trkpt>
      <trkpt lat="49.00015" lon="-0.54692">
        <ele>273</ele>
        <time>2024-04-07T10:44:31Z</time>
      </trkpt>
      <trkpt lat="49.00018" lon="-0.54691">
        <ele>273.6</ele>
        <time>2024-04-07T10:44:32Z</time>
      </trkpt>
      <trkpt lat="49.00022" lon="-0.54691">
        <ele>274</ele>
        <time>2024-04-07T10:44:33Z</time>
      </trkpt>
      <trkpt lat="49.00025" lon="-0.54691">
        <ele>274.4</ele>
        <time>2024-04-07T10:44:34Z</time>
      </trkpt>
      <trkpt lat="49.00029" lon="-0.5469">
        <ele>274.6</ele>
        <time>2024-04-07T10:44:35Z</time>
      </trkpt>
      <trkpt lat="49.00033" lon="-0.54689">
        <ele>274.8</ele>
        <time>2024-04-07T10:44:36Z</time>
      </trkpt>
      <trkpt lat="49.00037" lon="-0.54688">
        <ele>275</ele>
        <time>2024-04-07T10:44:37Z</time>
      </trkpt>
      <trkpt lat="49.00041" lon="-0.54686">
        <ele>275</ele>
        <time>2024-04-07T10:44:38Z</time>
      </trkpt>
      <trkpt lat="49.00045" lon="-0.54685">
        <ele>275.2</ele>
        <time>2024-04-07T10:44:39Z</time>
      </trkpt>
      <trkpt lat="49.00049" lon="-0.54684">
        <ele>275.2</ele>
        <time>2024-04-07T10:44:40Z</time>
      </trkpt>
      <trkpt lat="49.00053" lon="-0.54683">
        <ele>275.4</ele>
        <time>2024-04-07T10:44:41Z</time>
      </trkpt>
      <trkpt lat="49.00057" lon="-0.54682">
        <ele>275.6</ele>
        <time>2024-04-07T10:44:42Z</time>
      </trkpt>
      <trkpt lat="49.00061" lon="-0.5468">
        <ele>275.6</ele>
        <time>2024-04-07T10:44:43Z</time>
      </trkpt>
      <trkpt lat="49.00066" lon="-0.54679">
        <ele>275.6</ele>
        <time>2024-04-07T10:44:44Z</time>
      </trkpt>
      <trkpt lat="49.0007" lon="-0.54677">
        <ele>275.8</ele>
        <time>2024-04-07T10:44:45Z</time>
      </trkpt>
      <trkpt lat="49.00074" lon="-0.54676">
        <ele>275.8</ele>
        <time>2024-04-07T10:44:46Z</time>
      </trkpt>
      <trkpt lat="49.00078" lon="-0.54674">
        <ele>276</ele>
        <time>2024-04-07T10:44:47Z</time>
      </trkpt>
      <trkpt lat="49.00082" lon="-0.54673">
        <ele>276</ele>
        <time>2024-04-07T10:44:48Z</time>
      </trkpt>
      <trkpt lat="49.00086" lon="-0.54671">
        <ele>276.2</ele>
        <time>2024-04-07T10:44:49Z</time>
      </trkpt>
      <trkpt lat="49.0009" lon="-0.54669">
        <ele>276.4</ele>
        <time>2024-04-07T10:44:50Z</time>
      </trkpt>
      <trkpt lat="49.00094" lon="-0.54667">
        <ele>276.6</ele>
        <time>2024-04-07T10:44:51Z</time>
      </trkpt>
      <trkpt lat="49.00098" lon="-0.54665">
        <ele>276.6</ele>
        <time>2024-04-07T10:44:52Z</time>
      </trkpt>
      <trkpt lat="49.00101" lon="-0.54663">
        <ele>276.6</ele>
        <time>2024-04-07T10:44:53Z</time>
      </trkpt>
      <trkpt lat="49.00105" lon="-0.54661">
        <ele>276.8</ele>
        <time>2024-04-07T10:44:54Z</time>
      </trkpt>
      <trkpt lat="49.00109" lon="-0.54659">
        <ele>277</ele>
        <time>2024-04-07T10:44:55Z</time>
      </trkpt>
      <trkpt lat="49.00113" lon="-0.54656">
        <ele>277.4</ele>
        <time>2024-04-07T10:44:56Z</time>
      </trkpt>
      <trkpt lat="49.00116" lon="-0.54654">
        <ele>277.6</ele>
        <time>2024-04-07T10:44:57Z</time>
      </trkpt>
      <trkpt lat="49.0012" lon="-0.54651">
        <ele>277.8</ele>
        <time>2024-04-07T10:44:58Z</time>
      </trkpt>
      <trkpt lat="49.00123" lon="-0.54649">
        <ele>278</ele>
        <time>2024-04-07T10:44:59Z</time>
      </trkpt>
      <trkpt lat="49.00127" lon="-0.54646">
        <ele>278.2</ele>
        <time>2024-04-07T10:45:00Z</time>
      </trkpt>
      <trkpt lat="49.00131" lon="-0.54643">
        <ele>278.6</ele>
        <time>2024-04-07T10:45:01Z</time>
      </trkpt>
      <trkpt lat="49.00134" lon="-0.5464">
        <ele>278.8</ele>
        <time>2024-04-07T10:45:02Z</time>
      </trkpt>
      <trkpt lat="49.00138" lon="-0.54637">
        <ele>278.8</ele>
        <time>2024-04-07T10:45:03Z</time>
      </trkpt>
      <trkpt lat="49.00142" lon="-0.54634">
        <ele>279</ele>
        <time>2024-04-07T10:45:04Z</time>
      </trkpt>
      <trkpt lat="49.00145" lon="-0.54631">
        <ele>279.2</ele>
        <time>2024-04-07T10:45:05Z</time>
      </trkpt>
      <trkpt lat="49.00149" lon="-0.54628">
        <ele>279.4</ele>
        <time>2024-04-07T10:45:06Z</time>
      </trkpt>
      <trkpt lat="49.00152" lon="-0.54625">
        <ele>279.6</ele>
        <time>2024-04-07T10:45:07Z</time>
      </trkpt>
      <trkpt lat="49.00156" lon="-0.54621">
        <ele>279.6</ele>
        <time>2024-04-07T10:45:08Z</time>
      </trkpt>
      <trkpt lat="49.00159" lon="-0.54618">
        <ele>280</ele>
        <time>2024-04-07T10:45:09Z</time>
      </trkpt>
      <trkpt lat="49.00163" lon="-0.54615">
        <ele>280.2</ele>
        <time>2024-04-07T10:45:10Z</time>
      </trkpt>
      <trkpt lat="49.00166" lon="-0.54612">
        <ele>280.4</ele>
        <time>2024-04-07T10:45:11Z</time>
      </trkpt>
      <trkpt lat="49.0017" lon="-0.54608">
        <ele>280.4</ele>
        <time>2024-04-07T10:45:12Z</time>
      </trkpt>
      <trkpt lat="49.00174" lon="-0.54605">
        <ele>280.6</ele>
        <time>2024-04-07T10:45:13Z</time>
      </trkpt>
      <trkpt lat="49.00177" lon="-0.54602">
        <ele>280.6</ele>
        <time>2024-04-07T10:45:14Z</time>
      </trkpt>
      <trkpt lat="49.00181" lon="-0.54599">
        <ele>280.8</ele>
        <time>2024-04-07T10:45:15Z</time>
      </trkpt>
      <trkpt lat="49.00184" lon="-0.54595">
        <ele>280.8</ele>
        <time>2024-04-07T10:45:16Z</time>
      </trkpt>
      <trkpt lat="49.00188" lon="-0.54592">
        <ele>281</ele>
        <time>2024-04-07T10:45:17Z</time>
      </trkpt>
      <trkpt lat="49.00191" lon="-0.54588">
        <ele>281</ele>
        <time>2024-04-07T10:45:18Z</time>
      </trkpt>
      <trkpt lat="49.00195" lon="-0.54584">
        <ele>281.2</ele>
        <time>2024-04-07T10:45:19Z</time>
      </trkpt>
      <trkpt lat="49.00198" lon="-0.54581">
        <ele>281.4</ele>
        <time>2024-04-07T10:45:20Z</time>
      </trkpt>
      <trkpt lat="49.00202" lon="-0.54577">
        <ele>281.6</ele>
        <time>2024-04-07T10:45:21Z</time>
      </trkpt>
      <trkpt lat="49.00205" lon="-0.54574">
        <ele>281.8</ele>
        <time>2024-04-07T10:45:22Z</time>
      </trkpt>
      <trkpt lat="49.00209" lon="-0.5457">
        <ele>282</ele>
        <time>2024-04-07T10:45:23Z</time>
      </trkpt>
      <trkpt lat="49.00212" lon="-0.54567">
        <ele>282.4</ele>
        <time>2024-04-07T10:45:24Z</time>
      </trkpt>
      <trkpt lat="49.00215" lon="-0.54563">
        <ele>282.6</ele>
        <time>2024-04-07T10:45:25Z</time>
      </trkpt>
      <trkpt lat="49.00218" lon="-0.54559">
        <ele>282.8</ele>
        <time>2024-04-07T10:45:26Z</time>
      </trkpt>
      <trkpt lat="49.00222" lon="-0.54556">
        <ele>283.2</ele>
        <time>2024-04-07T10:45:27Z</time>
      </trkpt>
      <trkpt lat="49.00225" lon="-0.54553">
        <ele>283.6</ele>
        <time>2024-04-07T10:45:28Z</time>
      </trkpt>
      <trkpt lat="49.00228" lon="-0.54549">
        <ele>284</ele>
        <time>2024-04-07T10:45:29Z</time>
      </trkpt>
      <trkpt lat="49.00232" lon="-0.54545">
        <ele>284.2</ele>
        <time>2024-04-07T10:45:30Z</time>
      </trkpt>
      <trkpt lat="49.00236" lon="-0.54541">
        <ele>284.2</ele>
        <time>2024-04-07T10:45:31Z</time>
      </trkpt>
      <trkpt lat="49.00239" lon="-0.54536">
        <ele>284.6</ele>
        <time>2024-04-07T10:45:32Z</time>
      </trkpt>
      <trkpt lat="49.00242" lon="-0.54532">
        <ele>285.2</ele>
        <time>2024-04-07T10:45:33Z</time>
      </trkpt>
      <trkpt lat="49.00245" lon="-0.54528">
        <ele>285.8</ele>
        <time>2024-04-07T10:45:34Z</time>
      </trkpt>
      <trkpt lat="49.00249" lon="-0.54524">
        <ele>286</ele>
        <time>2024-04-07T10:45:35Z</time>
      </trkpt>
      <trkpt lat="49.00252" lon="-0.54521">
        <ele>286.2</ele>
        <time>2024-04-07T10:45:36Z</time>
      </trkpt>
      <trkpt lat="49.00256" lon="-0.54517">
        <ele>286.2</ele>
        <time>2024-04-07T10:45:37Z</time>
      </trkpt>
      <trkpt lat="49.00259" lon="-0.54513">
        <ele>286.4</ele>
        <time>2024-04-07T10:45:38Z</time>
      </trkpt>
      <trkpt lat="49.00263" lon="-0.54509">
        <ele>286.4</ele>
        <time>2024-04-07T10:45:39Z</time>
      </trkpt>
      <trkpt lat="49.00266" lon="-0.54505">
        <ele>286.4</ele>
        <time>2024-04-07T10:45:40Z</time>
      </trkpt>
      <trkpt lat="49.00269" lon="-0.54501">
        <ele>286.6</ele>
        <time>2024-04-07T10:45:41Z</time>
      </trkpt>
      <trkpt lat="49.00272" lon="-0.54496">
        <ele>286.8</ele>
        <time>2024-04-07T10:45:42Z</time>
      </trkpt>
      <trkpt lat="49.00275" lon="-0.54491">
        <ele>287</ele>
        <time>2024-04-07T10:45:43Z</time>
      </trkpt>
      <trkpt lat="49.00279" lon="-0.54488">
        <ele>287.2</ele>
        <time>2024-04-07T10:45:44Z</time>
      </trkpt>
      <trkpt lat="49.00282" lon="-0.54484">
        <ele>287.4</ele>
        <time>2024-04-07T10:45:45Z</time>
      </trkpt>
      <trkpt lat="49.00286" lon="-0.54481">
        <ele>287.6</ele>
        <time>2024-04-07T10:45:46Z</time>
      </trkpt>
      <trkpt lat="49.00289" lon="-0.54477">
        <ele>287.8</ele>
        <time>2024-04-07T10:45:47Z</time>
      </trkpt>
      <trkpt lat="49.00292" lon="-0.54473">
        <ele>288</ele>
        <time>2024-04-07T10:45:48Z</time>
      </trkpt>
      <trkpt lat="49.00296" lon="-0.5447">
        <ele>288.2</ele>
        <time>2024-04-07T10:45:49Z</time>
      </trkpt>
      <trkpt lat="49.00299" lon="-0.54466">
        <ele>288.6</ele>
        <time>2024-04-07T10:45:50Z</time>
      </trkpt>
      <trkpt lat="49.00303" lon="-0.54462">
        <ele>288.8</ele>
        <time>2024-04-07T10:45:51Z</time>
      </trkpt>
      <trkpt lat="49.00306" lon="-0.54459">
        <ele>289</ele>
        <time>2024-04-07T10:45:52Z</time>
      </trkpt>
      <trkpt lat="49.00309" lon="-0.54455">
        <ele>289.2</ele>
        <time>2024-04-07T10:45:53Z</time>
      </trkpt>
      <trkpt lat="49.00313" lon="-0.54451">
        <ele>289.4</ele>
        <time>2024-04-07T10:45:54Z</time>
      </trkpt>
      <trkpt lat="49.00316" lon="-0.54447">
        <ele>289.6</ele>
        <time>2024-04-07T10:45:55Z</time>
      </trkpt>
      <trkpt lat="49.00319" lon="-0.54443">
        <ele>290.2</ele>
        <time>2024-04-07T10:45:56Z</time>
      </trkpt>
      <trkpt lat="49.00322" lon="-0.54438">
        <ele>290.6</ele>
        <time>2024-04-07T10:45:57Z</time>
      </trkpt>
      <trkpt lat="49.00326" lon="-0.54434">
        <ele>291</ele>
        <time>2024-04-07T10:45:58Z</time>
      </trkpt>
      <trkpt lat="49.00329" lon="-0.54431">
        <ele>291.2</ele>
        <time>2024-04-07T10:45:59Z</time>
      </trkpt>
      <trkpt lat="49.00332" lon="-0.54427">
        <ele>291.4</ele>
        <time>2024-04-07T10:46:00Z</time>
      </trkpt>
      <trkpt lat="49.00336" lon="-0.54423">
        <ele>291.6</ele>
        <time>2024-04-07T10:46:01Z</time>
      </trkpt>
      <trkpt lat="49.00339" lon="-0.5442">
        <ele>291.8</ele>
        <time>2024-04-07T10:46:02Z</time>
      </trkpt>
      <trkpt lat="49.00342" lon="-0.54416">
        <ele>292</ele>
        <time>2024-04-07T10:46:03Z</time>
      </trkpt>
      <trkpt lat="49.00345" lon="-0.54412">
        <ele>292.2</ele>
        <time>2024-04-07T10:46:04Z</time>
      </trkpt>
      <trkpt lat="49.00349" lon="-0.54407">
        <ele>292.6</ele>
        <time>2024-04-07T10:46:05Z</time>
      </trkpt>
      <trkpt lat="49.00352" lon="-0.54404">
        <ele>292.8</ele>
        <time>2024-04-07T10:46:06Z</time>
      </trkpt>
      <trkpt lat="49.00356" lon="-0.544">
        <ele>293</ele>
        <time>2024-04-07T10:46:07Z</time>
      </trkpt>
      <trkpt lat="49.00359" lon="-0.54396">
        <ele>293.2</ele>
        <time>2024-04-07T10:46:08Z</time>
      </trkpt>
      <trkpt lat="49.00362" lon="-0.54393">
        <ele>293.2</ele>
        <time>2024-04-07T10:46:09Z</time>
      </trkpt>
      <trkpt lat="49.00365" lon="-0.54389">
        <ele>293.4</ele>
        <time>2024-04-07T10:46:10Z</time>
      </trkpt>
      <trkpt lat="49.00369" lon="-0.54386">
        <ele>293.6</ele>
        <time>2024-04-07T10:46:11Z</time>
      </trkpt>
      <trkpt lat="49.00372" lon="-0.54383">
        <ele>293.8</ele>
        <time>2024-04-07T10:46:12Z</time>
      </trkpt>
      <trkpt lat="49.00375" lon="-0.5438">
        <ele>294.2</ele>
        <time>2024-04-07T10:46:13Z</time>
      </trkpt>
      <trkpt lat="49.00377" lon="-0.54377">
        <ele>294.4</ele>
        <time>2024-04-07T10:46:14Z</time>
      </trkpt>
      <trkpt lat="49.0038" lon="-0.54375">
        <ele>294.6</ele>
        <time>2024-04-07T10:46:15Z</time>
      </trkpt>
      <trkpt lat="49.00382" lon="-0.54372">
        <ele>294.6</ele>
        <time>2024-04-07T10:46:16Z</time>
      </trkpt>
      <trkpt lat="49.00385" lon="-0.5437">
        <ele>294.8</ele>
        <time>2024-04-07T10:46:17Z</time>
      </trkpt>
      <trkpt lat="49.00387" lon="-0.54368">
        <ele>294.8</ele>
        <time>2024-04-07T10:46:18Z</time>
      </trkpt>
      <trkpt lat="49.0039" lon="-0.54365">
        <ele>294.8</ele>
        <time>2024-04-07T10:46:19Z</time>
      </trkpt>
      <trkpt lat="49.00393" lon="-0.54363">
        <ele>295</ele>
        <time>2024-04-07T10:46:20Z</time>
      </trkpt>
      <trkpt lat="49.00396" lon="-0.5436">
        <ele>295</ele>
        <time>2024-04-07T10:46:21Z</time>
      </trkpt>
      <trkpt lat="49.00399" lon="-0.54357">
        <ele>295.2</ele>
        <time>2024-04-07T10:46:22Z</time>
      </trkpt>
      <trkpt lat="49.00402" lon="-0.54355">
        <ele>295.2</ele>
        <time>2024-04-07T10:46:23Z</time>
      </trkpt>
      <trkpt lat="49.00404" lon="-0.54351">
        <ele>295.2</ele>
        <time>2024-04-07T10:46:24Z</time>
      </trkpt>
      <trkpt lat="49.00407" lon="-0.54348">
        <ele>295.2</ele>
        <time>2024-04-07T10:46:25Z</time>
      </trkpt>
      <trkpt lat="49.0041" lon="-0.54345">
        <ele>295.4</ele>
        <time>2024-04-07T10:46:26Z</time>
      </trkpt>
      <trkpt lat="49.00413" lon="-0.54343">
        <ele>295.4</ele>
        <time>2024-04-07T10:46:27Z</time>
      </trkpt>
      <trkpt lat="49.00416" lon="-0.5434">
        <ele>295.4</ele>
        <time>2024-04-07T10:46:28Z</time>
      </trkpt>
      <trkpt lat="49.0042" lon="-0.54337">
        <ele>295.4</ele>
        <time>2024-04-07T10:46:29Z</time>
      </trkpt>
      <trkpt lat="49.0042" lon="-0.54337">
        <ele>295.6</ele>
        <time>2024-04-07T10:46:30Z</time>
      </trkpt>
      <trkpt lat="49.00427" lon="-0.5433">
        <ele>295.6</ele>
        <time>2024-04-07T10:46:31Z</time>
      </trkpt>
      <trkpt lat="49.00431" lon="-0.54327">
        <ele>295.6</ele>
        <time>2024-04-07T10:46:32Z</time>
      </trkpt>
      <trkpt lat="49.00434" lon="-0.54324">
        <ele>295.8</ele>
        <time>2024-04-07T10:46:33Z</time>
      </trkpt>
      <trkpt lat="49.00438" lon="-0.54321">
        <ele>295.8</ele>
        <time>2024-04-07T10:46:34Z</time>
      </trkpt>
      <trkpt lat="49.00442" lon="-0.54317">
        <ele>295.8</ele>
        <time>2024-04-07T10:46:35Z</time>
      </trkpt>
      <trkpt lat="49.00446" lon="-0.54314">
        <ele>296</ele>
        <time>2024-04-07T10:46:36Z</time>
      </trkpt>
      <trkpt lat="49.00449" lon="-0.5431">
        <ele>296.2</ele>
        <time>2024-04-07T10:46:37Z</time>
      </trkpt>
      <trkpt lat="49.00453" lon="-0.54307">
        <ele>296.2</ele>
        <time>2024-04-07T10:46:38Z</time>
      </trkpt>
      <trkpt lat="49.00457" lon="-0.54303">
        <ele>296.4</ele>
        <time>2024-04-07T10:46:39Z</time>
      </trkpt>
      <trkpt lat="49.00461" lon="-0.543">
        <ele>296.6</ele>
        <time>2024-04-07T10:46:40Z</time>
      </trkpt>
      <trkpt lat="49.00465" lon="-0.54296">
        <ele>296.8</ele>
        <time>2024-04-07T10:46:41Z</time>
      </trkpt>
      <trkpt lat="49.00469" lon="-0.54293">
        <ele>297</ele>
        <time>2024-04-07T10:46:42Z</time>
      </trkpt>
      <trkpt lat="49.00473" lon="-0.54289">
        <ele>297</ele>
        <time>2024-04-07T10:46:43Z</time>
      </trkpt>
      <trkpt lat="49.00477" lon="-0.54285">
        <ele>297</ele>
        <time>2024-04-07T10:46:44Z</time>
      </trkpt>
      <trkpt lat="49.00481" lon="-0.54281">
        <ele>297.2</ele>
        <time>2024-04-07T10:46:45Z</time>
      </trkpt>
      <trkpt lat="49.00485" lon="-0.54277">
        <ele>297.2</ele>
        <time>2024-04-07T10:46:46Z</time>
      </trkpt>
      <trkpt lat="49.00489" lon="-0.54272">
        <ele>297.4</ele>
        <time>2024-04-07T10:46:47Z</time>
      </trkpt>
      <trkpt lat="49.00494" lon="-0.54267">
        <ele>297.4</ele>
        <time>2024-04-07T10:46:48Z</time>
      </trkpt>
      <trkpt lat="49.00498" lon="-0.54262">
        <ele>297.4</ele>
        <time>2024-04-07T10:46:49Z</time>
      </trkpt>
      <trkpt lat="49.00501" lon="-0.54257">
        <ele>297.6</ele>
        <time>2024-04-07T10:46:50Z</time>
      </trkpt>
      <trkpt lat="49.00505" lon="-0.54251">
        <ele>297.6</ele>
        <time>2024-04-07T10:46:51Z</time>
      </trkpt>
      <trkpt lat="49.00509" lon="-0.54246">
        <ele>297.8</ele>
        <time>2024-04-07T10:46:52Z</time>
      </trkpt>
      <trkpt lat="49.00513" lon="-0.54241">
        <ele>298</ele>
        <time>2024-04-07T10:46:53Z</time>
      </trkpt>
      <trkpt lat="49.00517" lon="-0.54236">
        <ele>298.2</ele>
        <time>2024-04-07T10:46:54Z</time>
      </trkpt>
      <trkpt lat="49.00521" lon="-0.5423">
        <ele>298.4</ele>
        <time>2024-04-07T10:46:55Z</time>
      </trkpt>
      <trkpt lat="49.00525" lon="-0.54225">
        <ele>298.6</ele>
        <time>2024-04-07T10:46:56Z</time>
      </trkpt>
      <trkpt lat="49.00529" lon="-0.5422">
        <ele>298.8</ele>
        <time>2024-04-07T10:46:57Z</time>
      </trkpt>
      <trkpt lat="49.00533" lon="-0.54215">
        <ele>298.8</ele>
        <time>2024-04-07T10:46:58Z</time>
      </trkpt>
      <trkpt lat="49.00537" lon="-0.5421">
        <ele>299</ele>
        <time>2024-04-07T10:46:59Z</time>
      </trkpt>
      <trkpt lat="49.00541" lon="-0.54204">
        <ele>299.2</ele>
        <time>2024-04-07T10:47:00Z</time>
      </trkpt>
      <trkpt lat="49.00544" lon="-0.54199">
        <ele>299.2</ele>
        <time>2024-04-07T10:47:01Z</time>
      </trkpt>
      <trkpt lat="49.00548" lon="-0.54194">
        <ele>299.4</ele>
        <time>2024-04-07T10:47:02Z</time>
      </trkpt>
      <trkpt lat="49.00552" lon="-0.54188">
        <ele>299.6</ele>
        <time>2024-04-07T10:47:03Z</time>
      </trkpt>
      <trkpt lat="49.00556" lon="-0.54182">
        <ele>299.6</ele>
        <time>2024-04-07T10:47:04Z</time>
      </trkpt>
      <trkpt lat="49.0056" lon="-0.54177">
        <ele>299.8</ele>
        <time>2024-04-07T10:47:05Z</time>
      </trkpt>
      <trkpt lat="49.00564" lon="-0.54172">
        <ele>300</ele>
        <time>2024-04-07T10:47:06Z</time>
      </trkpt>
      <trkpt lat="49.00568" lon="-0.54167">
        <ele>300.2</ele>
        <time>2024-04-07T10:47:07Z</time>
      </trkpt>
      <trkpt lat="49.00572" lon="-0.54162">
        <ele>300.2</ele>
        <time>2024-04-07T10:47:08Z</time>
      </trkpt>
      <trkpt lat="49.00576" lon="-0.54157">
        <ele>300.4</ele>
        <time>2024-04-07T10:47:09Z</time>
      </trkpt>
      <trkpt lat="49.0058" lon="-0.54153">
        <ele>300.6</ele>
        <time>2024-04-07T10:47:10Z</time>
      </trkpt>
      <trkpt lat="49.00584" lon="-0.54148">
        <ele>300.6</ele>
        <time>2024-04-07T10:47:11Z</time>
      </trkpt>
      <trkpt lat="49.00588" lon="-0.54142">
        <ele>300.8</ele>
        <time>2024-04-07T10:47:12Z</time>
      </trkpt>
      <trkpt lat="49.00592" lon="-0.54137">
        <ele>301</ele>
        <time>2024-04-07T10:47:13Z</time>
      </trkpt>
      <trkpt lat="49.00596" lon="-0.54133">
        <ele>301.2</ele>
        <time>2024-04-07T10:47:14Z</time>
      </trkpt>
      <trkpt lat="49.006" lon="-0.54128">
        <ele>301.4</ele>
        <time>2024-04-07T10:47:15Z</time>
      </trkpt>
      <trkpt lat="49.00604" lon="-0.54123">
        <ele>301.6</ele>
        <time>2024-04-07T10:47:16Z</time>
      </trkpt>
      <trkpt lat="49.00608" lon="-0.54118">
        <ele>302</ele>
        <time>2024-04-07T10:47:17Z</time>
      </trkpt>
      <trkpt lat="49.00612" lon="-0.54113">
        <ele>302.2</ele>
        <time>2024-04-07T10:47:18Z</time>
      </trkpt>
      <trkpt lat="49.00616" lon="-0.54108">
        <ele>302.2</ele>
        <time>2024-04-07T10:47:19Z</time>
      </trkpt>
      <trkpt lat="49.00621" lon="-0.54103">
        <ele>302.4</ele>
        <time>2024-04-07T10:47:20Z</time>
      </trkpt>
      <trkpt lat="49.00625" lon="-0.54099">
        <ele>302.6</ele>
        <time>2024-04-07T10:47:21Z</time>
      </trkpt>
      <trkpt lat="49.00629" lon="-0.54094">
        <ele>302.6</ele>
        <time>2024-04-07T10:47:22Z</time>
      </trkpt>
      <trkpt lat="49.00633" lon="-0.54089">
        <ele>302.8</ele>
        <time>2024-04-07T10:47:23Z</time>
      </trkpt>
      <trkpt lat="49.00637" lon="-0.54084">
        <ele>302.8</ele>
        <time>2024-04-07T10:47:24Z</time>
      </trkpt>
      <trkpt lat="49.00641" lon="-0.54079">
        <ele>303</ele>
        <time>2024-04-07T10:47:25Z</time>
      </trkpt>
      <trkpt lat="49.00645" lon="-0.54074">
        <ele>303.2</ele>
        <time>2024-04-07T10:47:26Z</time>
      </trkpt>
      <trkpt lat="49.00649" lon="-0.5407">
        <ele>303.4</ele>
        <time>2024-04-07T10:47:27Z</time>
      </trkpt>
      <trkpt lat="49.00649" lon="-0.5407">
        <ele>303.4</ele>
        <time>2024-04-07T10:47:28Z</time>
      </trkpt>
      <trkpt lat="49.00658" lon="-0.54062">
        <ele>303.6</ele>
        <time>2024-04-07T10:47:29Z</time>
      </trkpt>
      <trkpt lat="49.00663" lon="-0.54057">
        <ele>303.6</ele>
        <time>2024-04-07T10:47:30Z</time>
      </trkpt>
      <trkpt lat="49.00668" lon="-0.54052">
        <ele>303.6</ele>
        <time>2024-04-07T10:47:31Z</time>
      </trkpt>
      <trkpt lat="49.00672" lon="-0.54046">
        <ele>303.6</ele>
        <time>2024-04-07T10:47:32Z</time>
      </trkpt>
      <trkpt lat="49.00677" lon="-0.5404">
        <ele>303.4</ele>
        <time>2024-04-07T10:47:33Z</time>
      </trkpt>
      <trkpt lat="49.00681" lon="-0.54033">
        <ele>303.2</ele>
        <time>2024-04-07T10:47:34Z</time>
      </trkpt>
      <trkpt lat="49.00686" lon="-0.54027">
        <ele>303.2</ele>
        <time>2024-04-07T10:47:35Z</time>
      </trkpt>
      <trkpt lat="49.0069" lon="-0.5402">
        <ele>303</ele>
        <time>2024-04-07T10:47:36Z</time>
      </trkpt>
      <trkpt lat="49.00694" lon="-0.54013">
        <ele>303</ele>
        <time>2024-04-07T10:47:37Z</time>
      </trkpt>
      <trkpt lat="49.00699" lon="-0.54006">
        <ele>303</ele>
        <time>2024-04-07T10:47:38Z</time>
      </trkpt>
      <trkpt lat="49.00703" lon="-0.53999">
        <ele>303</ele>
        <time>2024-04-07T10:47:39Z</time>
      </trkpt>
      <trkpt lat="49.00708" lon="-0.53991">
        <ele>303</ele>
        <time>2024-04-07T10:47:40Z</time>
      </trkpt>
      <trkpt lat="49.00713" lon="-0.53984">
        <ele>303</ele>
        <time>2024-04-07T10:47:41Z</time>
      </trkpt>
      <trkpt lat="49.00718" lon="-0.53977">
        <ele>303</ele>
        <time>2024-04-07T10:47:42Z</time>
      </trkpt>
      <trkpt lat="49.00723" lon="-0.5397">
        <ele>303</ele>
        <time>2024-04-07T10:47:43Z</time>
      </trkpt>
      <trkpt lat="49.00728" lon="-0.53963">
        <ele>302.8</ele>
        <time>2024-04-07T10:47:44Z</time>
      </trkpt>
      <trkpt lat="49.00734" lon="-0.53957">
        <ele>302.8</ele>
        <time>2024-04-07T10:47:45Z</time>
      </trkpt>
      <trkpt lat="49.00739" lon="-0.5395">
        <ele>302.6</ele>
        <time>2024-04-07T10:47:46Z</time>
      </trkpt>
      <trkpt lat="49.00745" lon="-0.53944">
        <ele>302.4</ele>
        <time>2024-04-07T10:47:47Z</time>
      </trkpt>
      <trkpt lat="49.0075" lon="-0.53938">
        <ele>302.4</ele>
        <time>2024-04-07T10:47:48Z</time>
      </trkpt>
      <trkpt lat="49.00756" lon="-0.53932">
        <ele>302.2</ele>
        <time>2024-04-07T10:47:49Z</time>
      </trkpt>
      <trkpt lat="49.00762" lon="-0.53927">
        <ele>302.2</ele>
        <time>2024-04-07T10:47:50Z</time>
      </trkpt>
      <trkpt lat="49.00768" lon="-0.53921">
        <ele>302.2</ele>
        <time>2024-04-07T10:47:51Z</time>
      </trkpt>
      <trkpt lat="49.00774" lon="-0.53916">
        <ele>302.2</ele>
        <time>2024-04-07T10:47:52Z</time>
      </trkpt>
      <trkpt lat="49.00781" lon="-0.53911">
        <ele>302.6</ele>
        <time>2024-04-07T10:47:53Z</time>
      </trkpt>
      <trkpt lat="49.00787" lon="-0.53906">
        <ele>302.8</ele>
        <time>2024-04-07T10:47:54Z</time>
      </trkpt>
      <trkpt lat="49.00794" lon="-0.53901">
        <ele>303</ele>
        <time>2024-04-07T10:47:55Z</time>
      </trkpt>
      <trkpt lat="49.008" lon="-0.53896">
        <ele>303</ele>
        <time>2024-04-07T10:47:56Z</time>
      </trkpt>
      <trkpt lat="49.00807" lon="-0.53891">
        <ele>303.2</ele>
        <time>2024-04-07T10:47:57Z</time>
      </trkpt>
      <trkpt lat="49.00813" lon="-0.53886">
        <ele>303.2</ele>
        <time>2024-04-07T10:47:58Z</time>
      </trkpt>
      <trkpt lat="49.0082" lon="-0.53882">
        <ele>303.2</ele>
        <time>2024-04-07T10:47:59Z</time>
      </trkpt>
      <trkpt lat="49.00826" lon="-0.53877">
        <ele>303</ele>
        <time>2024-04-07T10:48:00Z</time>
      </trkpt>
      <trkpt lat="49.00832" lon="-0.53872">
        <ele>303</ele>
        <time>2024-04-07T10:48:01Z</time>
      </trkpt>
      <trkpt lat="49.00839" lon="-0.53868">
        <ele>303</ele>
        <time>2024-04-07T10:48:02Z</time>
      </trkpt>
      <trkpt lat="49.00845" lon="-0.53864">
        <ele>303</ele>
        <time>2024-04-07T10:48:03Z</time>
      </trkpt>
      <trkpt lat="49.00852" lon="-0.5386">
        <ele>303</ele>
        <time>2024-04-07T10:48:04Z</time>
      </trkpt>
      <trkpt lat="49.00858" lon="-0.53855">
        <ele>303</ele>
        <time>2024-04-07T10:48:05Z</time>
      </trkpt>
      <trkpt lat="49.00865" lon="-0.5385">
        <ele>303.2</ele>
        <time>2024-04-07T10:48:06Z</time>
      </trkpt>
      <trkpt lat="49.00871" lon="-0.53846">
        <ele>303.2</ele>
        <time>2024-04-07T10:48:07Z</time>
      </trkpt>
      <trkpt lat="49.00878" lon="-0.53841">
        <ele>303.4</ele>
        <time>2024-04-07T10:48:08Z</time>
      </trkpt>
      <trkpt lat="49.00884" lon="-0.53836">
        <ele>303.8</ele>
        <time>2024-04-07T10:48:09Z</time>
      </trkpt>
      <trkpt lat="49.0089" lon="-0.53831">
        <ele>304</ele>
        <time>2024-04-07T10:48:10Z</time>
      </trkpt>
      <trkpt lat="49.00895" lon="-0.53827">
        <ele>304.2</ele>
        <time>2024-04-07T10:48:11Z</time>
      </trkpt>
      <trkpt lat="49.00899" lon="-0.53823">
        <ele>304.6</ele>
        <time>2024-04-07T10:48:12Z</time>
      </trkpt>
      <trkpt lat="49.00908" lon="-0.53816">
        <ele>304.8</ele>
        <time>2024-04-07T10:48:13Z</time>
      </trkpt>
      <trkpt lat="49.00914" lon="-0.5381">
        <ele>305</ele>
        <time>2024-04-07T10:48:14Z</time>
      </trkpt>
      <trkpt lat="49.00921" lon="-0.53805">
        <ele>305.2</ele>
        <time>2024-04-07T10:48:15Z</time>
      </trkpt>
      <trkpt lat="49.00927" lon="-0.53799">
        <ele>305.4</ele>
        <time>2024-04-07T10:48:16Z</time>
      </trkpt>
      <trkpt lat="49.00933" lon="-0.53794">
        <ele>305.6</ele>
        <time>2024-04-07T10:48:17Z</time>
      </trkpt>
      <trkpt lat="49.00939" lon="-0.53789">
        <ele>305.8</ele>
        <time>2024-04-07T10:48:18Z</time>
      </trkpt>
      <trkpt lat="49.00945" lon="-0.53784">
        <ele>306</ele>
        <time>2024-04-07T10:48:19Z</time>
      </trkpt>
      <trkpt lat="49.00951" lon="-0.53778">
        <ele>306.2</ele>
        <time>2024-04-07T10:48:20Z</time>
      </trkpt>
      <trkpt lat="49.00958" lon="-0.53773">
        <ele>306.4</ele>
        <time>2024-04-07T10:48:21Z</time>
      </trkpt>
      <trkpt lat="49.00964" lon="-0.53767">
        <ele>306.4</ele>
        <time>2024-04-07T10:48:22Z</time>
      </trkpt>
      <trkpt lat="49.0097" lon="-0.53762">
        <ele>306.4</ele>
        <time>2024-04-07T10:48:23Z</time>
      </trkpt>
      <trkpt lat="49.00977" lon="-0.53757">
        <ele>306.6</ele>
        <time>2024-04-07T10:48:24Z</time>
      </trkpt>
      <trkpt lat="49.00983" lon="-0.53752">
        <ele>306.6</ele>
        <time>2024-04-07T10:48:25Z</time>
      </trkpt>
      <trkpt lat="49.0099" lon="-0.53747">
        <ele>306.6</ele>
        <time>2024-04-07T10:48:26Z</time>
      </trkpt>
      <trkpt lat="49.00996" lon="-0.53742">
        <ele>306.6</ele>
        <time>2024-04-07T10:48:27Z</time>
      </trkpt>
      <trkpt lat="49.01003" lon="-0.53737">
        <ele>306.6</ele>
        <time>2024-04-07T10:48:28Z</time>
      </trkpt>
      <trkpt lat="49.01009" lon="-0.53733">
        <ele>306.6</ele>
        <time>2024-04-07T10:48:29Z</time>
      </trkpt>
      <trkpt lat="49.01016" lon="-0.53728">
        <ele>306.6</ele>
        <time>2024-04-07T10:48:30Z</time>
      </trkpt>
      <trkpt lat="49.01022" lon="-0.53724">
        <ele>306.8</ele>
        <time>2024-04-07T10:48:31Z</time>
      </trkpt>
      <trkpt lat="49.01028" lon="-0.53719">
        <ele>307</ele>
        <time>2024-04-07T10:48:32Z</time>
      </trkpt>
      <trkpt lat="49.01035" lon="-0.53715">
        <ele>307.2</ele>
        <time>2024-04-07T10:48:33Z</time>
      </trkpt>
      <trkpt lat="49.01041" lon="-0.5371">
        <ele>307.2</ele>
        <time>2024-04-07T10:48:34Z</time>
      </trkpt>
      <trkpt lat="49.01047" lon="-0.53706">
        <ele>307.4</ele>
        <time>2024-04-07T10:48:35Z</time>
      </trkpt>
      <trkpt lat="49.01054" lon="-0.53701">
        <ele>307.4</ele>
        <time>2024-04-07T10:48:36Z</time>
      </trkpt>
      <trkpt lat="49.0106" lon="-0.53696">
        <ele>307.6</ele>
        <time>2024-04-07T10:48:37Z</time>
      </trkpt>
      <trkpt lat="49.01067" lon="-0.53692">
        <ele>307.4</ele>
        <time>2024-04-07T10:48:38Z</time>
      </trkpt>
      <trkpt lat="49.01074" lon="-0.53687">
        <ele>307.4</ele>
        <time>2024-04-07T10:48:39Z</time>
      </trkpt>
      <trkpt lat="49.01081" lon="-0.53683">
        <ele>307.2</ele>
        <time>2024-04-07T10:48:40Z</time>
      </trkpt>
      <trkpt lat="49.01088" lon="-0.53679">
        <ele>306.8</ele>
        <time>2024-04-07T10:48:41Z</time>
      </trkpt>
      <trkpt lat="49.01096" lon="-0.53674">
        <ele>306.6</ele>
        <time>2024-04-07T10:48:42Z</time>
      </trkpt>
      <trkpt lat="49.01103" lon="-0.53669">
        <ele>306.6</ele>
        <time>2024-04-07T10:48:43Z</time>
      </trkpt>
      <trkpt lat="49.0111" lon="-0.53664">
        <ele>306.6</ele>
        <time>2024-04-07T10:48:44Z</time>
      </trkpt>
      <trkpt lat="49.01117" lon="-0.53659">
        <ele>306.6</ele>
        <time>2024-04-07T10:48:45Z</time>
      </trkpt>
      <trkpt lat="49.01123" lon="-0.53653">
        <ele>306.4</ele>
        <time>2024-04-07T10:48:46Z</time>
      </trkpt>
      <trkpt lat="49.01129" lon="-0.53647">
        <ele>306.4</ele>
        <time>2024-04-07T10:48:47Z</time>
      </trkpt>
      <trkpt lat="49.01136" lon="-0.5364">
        <ele>306.4</ele>
        <time>2024-04-07T10:48:48Z</time>
      </trkpt>
      <trkpt lat="49.01141" lon="-0.53633">
        <ele>306.6</ele>
        <time>2024-04-07T10:48:49Z</time>
      </trkpt>
      <trkpt lat="49.01147" lon="-0.53625">
        <ele>306.6</ele>
        <time>2024-04-07T10:48:50Z</time>
      </trkpt>
      <trkpt lat="49.01153" lon="-0.53618">
        <ele>306.8</ele>
        <time>2024-04-07T10:48:51Z</time>
      </trkpt>
      <trkpt lat="49.01158" lon="-0.5361">
        <ele>307.2</ele>
        <time>2024-04-07T10:48:52Z</time>
      </trkpt>
      <trkpt lat="49.01158" lon="-0.5361">
        <ele>307.2</ele>
        <time>2024-04-07T10:48:53Z</time>
      </trkpt>
      <trkpt lat="49.01169" lon="-0.53593">
        <ele>307.4</ele>
        <time>2024-04-07T10:48:54Z</time>
      </trkpt>
      <trkpt lat="49.01175" lon="-0.53586">
        <ele>307.4</ele>
        <time>2024-04-07T10:48:55Z</time>
      </trkpt>
      <trkpt lat="49.0118" lon="-0.53578">
        <ele>307.6</ele>
        <time>2024-04-07T10:48:56Z</time>
      </trkpt>
      <trkpt lat="49.01186" lon="-0.5357">
        <ele>307.6</ele>
        <time>2024-04-07T10:48:57Z</time>
      </trkpt>
      <trkpt lat="49.01191" lon="-0.53563">
        <ele>307.8</ele>
        <time>2024-04-07T10:48:58Z</time>
      </trkpt>
      <trkpt lat="49.01197" lon="-0.53555">
        <ele>307.8</ele>
        <time>2024-04-07T10:48:59Z</time>
      </trkpt>
      <trkpt lat="49.01197" lon="-0.53555">
        <ele>307.8</ele>
        <time>2024-04-07T10:49:00Z</time>
      </trkpt>
      <trkpt lat="49.01208" lon="-0.53542">
        <ele>308</ele>
        <time>2024-04-07T10:49:01Z</time>
      </trkpt>
      <trkpt lat="49.01214" lon="-0.53535">
        <ele>308.2</ele>
        <time>2024-04-07T10:49:02Z</time>
      </trkpt>
      <trkpt lat="49.0122" lon="-0.53528">
        <ele>308.4</ele>
        <time>2024-04-07T10:49:03Z</time>
      </trkpt>
      <trkpt lat="49.01226" lon="-0.53522">
        <ele>308.6</ele>
        <time>2024-04-07T10:49:04Z</time>
      </trkpt>
      <trkpt lat="49.01231" lon="-0.53515">
        <ele>308.6</ele>
        <time>2024-04-07T10:49:05Z</time>
      </trkpt>
      <trkpt lat="49.01237" lon="-0.53509">
        <ele>308.8</ele>
        <time>2024-04-07T10:49:06Z</time>
      </trkpt>
      <trkpt lat="49.01243" lon="-0.53502">
        <ele>309</ele>
        <time>2024-04-07T10:49:07Z</time>
      </trkpt>
      <trkpt lat="49.01247" lon="-0.53498">
        <ele>309.4</ele>
        <time>2024-04-07T10:49:08Z</time>
      </trkpt>
      <trkpt lat="49.01251" lon="-0.53494">
        <ele>309.8</ele>
        <time>2024-04-07T10:49:09Z</time>
      </trkpt>
      <trkpt lat="49.01259" lon="-0.53485">
        <ele>310</ele>
        <time>2024-04-07T10:49:10Z</time>
      </trkpt>
      <trkpt lat="49.01265" lon="-0.53479">
        <ele>310.2</ele>
        <time>2024-04-07T10:49:11Z</time>
      </trkpt>
      <trkpt lat="49.0127" lon="-0.53473">
        <ele>310.4</ele>
        <time>2024-04-07T10:49:12Z</time>
      </trkpt>
      <trkpt lat="49.01276" lon="-0.53468">
        <ele>310.6</ele>
        <time>2024-04-07T10:49:13Z</time>
      </trkpt>
      <trkpt lat="49.01281" lon="-0.53462">
        <ele>310.8</ele>
        <time>2024-04-07T10:49:14Z</time>
      </trkpt>
      <trkpt lat="49.01286" lon="-0.53457">
        <ele>311</ele>
        <time>2024-04-07T10:49:15Z</time>
      </trkpt>
      <trkpt lat="49.01291" lon="-0.53451">
        <ele>311.4</ele>
        <time>2024-04-07T10:49:16Z</time>
      </trkpt>
      <trkpt lat="49.01296" lon="-0.53445">
        <ele>311.6</ele>
        <time>2024-04-07T10:49:17Z</time>
      </trkpt>
      <trkpt lat="49.01301" lon="-0.5344">
        <ele>312</ele>
        <time>2024-04-07T10:49:18Z</time>
      </trkpt>
      <trkpt lat="49.01306" lon="-0.53434">
        <ele>312.2</ele>
        <time>2024-04-07T10:49:19Z</time>
      </trkpt>
      <trkpt lat="49.01312" lon="-0.53429">
        <ele>312.4</ele>
        <time>2024-04-07T10:49:20Z</time>
      </trkpt>
      <trkpt lat="49.01317" lon="-0.53423">
        <ele>312.6</ele>
        <time>2024-04-07T10:49:21Z</time>
      </trkpt>
      <trkpt lat="49.01321" lon="-0.53417">
        <ele>312.6</ele>
        <time>2024-04-07T10:49:22Z</time>
      </trkpt>
      <trkpt lat="49.01326" lon="-0.53412">
        <ele>312.8</ele>
        <time>2024-04-07T10:49:23Z</time>
      </trkpt>
      <trkpt lat="49.01331" lon="-0.53406">
        <ele>313</ele>
        <time>2024-04-07T10:49:24Z</time>
      </trkpt>
      <trkpt lat="49.01335" lon="-0.53401">
        <ele>313.2</ele>
        <time>2024-04-07T10:49:25Z</time>
      </trkpt>
      <trkpt lat="49.01338" lon="-0.53397">
        <ele>313.6</ele>
        <time>2024-04-07T10:49:26Z</time>
      </trkpt>
      <trkpt lat="49.01345" lon="-0.53388">
        <ele>314</ele>
        <time>2024-04-07T10:49:27Z</time>
      </trkpt>
      <trkpt lat="49.01349" lon="-0.53382">
        <ele>314.4</ele>
        <time>2024-04-07T10:49:28Z</time>
      </trkpt>
      <trkpt lat="49.01354" lon="-0.53376">
        <ele>315</ele>
        <time>2024-04-07T10:49:29Z</time>
      </trkpt>
      <trkpt lat="49.01354" lon="-0.53376">
        <ele>315.4</ele>
        <time>2024-04-07T10:49:30Z</time>
      </trkpt>
      <trkpt lat="49.01363" lon="-0.53365">
        <ele>315.8</ele>
        <time>2024-04-07T10:49:31Z</time>
      </trkpt>
      <trkpt lat="49.01367" lon="-0.5336">
        <ele>316.2</ele>
        <time>2024-04-07T10:49:32Z</time>
      </trkpt>
      <trkpt lat="49.01372" lon="-0.53355">
        <ele>316.8</ele>
        <time>2024-04-07T10:49:33Z</time>
      </trkpt>
      <trkpt lat="49.01376" lon="-0.5335">
        <ele>317.2</ele>
        <time>2024-04-07T10:49:34Z</time>
      </trkpt>
      <trkpt lat="49.0138" lon="-0.53345">
        <ele>317.8</ele>
        <time>2024-04-07T10:49:35Z</time>
      </trkpt>
      <trkpt lat="49.01385" lon="-0.53339">
        <ele>318</ele>
        <time>2024-04-07T10:49:36Z</time>
      </trkpt>
      <trkpt lat="49.01389" lon="-0.53334">
        <ele>318.4</ele>
        <time>2024-04-07T10:49:37Z</time>
      </trkpt>
      <trkpt lat="49.01393" lon="-0.53329">
        <ele>318.8</ele>
        <time>2024-04-07T10:49:38Z</time>
      </trkpt>
      <trkpt lat="49.01398" lon="-0.53324">
        <ele>319</ele>
        <time>2024-04-07T10:49:39Z</time>
      </trkpt>
      <trkpt lat="49.01402" lon="-0.53318">
        <ele>319</ele>
        <time>2024-04-07T10:49:40Z</time>
      </trkpt>
      <trkpt lat="49.01407" lon="-0.53313">
        <ele>319.2</ele>
        <time>2024-04-07T10:49:41Z</time>
      </trkpt>
      <trkpt lat="49.01412" lon="-0.53307">
        <ele>319.2</ele>
        <time>2024-04-07T10:49:42Z</time>
      </trkpt>
      <trkpt lat="49.01417" lon="-0.53301">
        <ele>319.2</ele>
        <time>2024-04-07T10:49:43Z</time>
      </trkpt>
      <trkpt lat="49.01422" lon="-0.53294">
        <ele>319.2</ele>
        <time>2024-04-07T10:49:44Z</time>
      </trkpt>
      <trkpt lat="49.01428" lon="-0.53288">
        <ele>319</ele>
        <time>2024-04-07T10:49:45Z</time>
      </trkpt>
      <trkpt lat="49.01432" lon="-0.53282">
        <ele>318.6</ele>
        <time>2024-04-07T10:49:46Z</time>
      </trkpt>
      <trkpt lat="49.01436" lon="-0.53277">
        <ele>318.4</ele>
        <time>2024-04-07T10:49:47Z</time>
      </trkpt>
      <trkpt lat="49.01443" lon="-0.53266">
        <ele>318</ele>
        <time>2024-04-07T10:49:48Z</time>
      </trkpt>
      <trkpt lat="49.01448" lon="-0.53259">
        <ele>317.6</ele>
        <time>2024-04-07T10:49:49Z</time>
      </trkpt>
      <trkpt lat="49.01454" lon="-0.53252">
        <ele>317.4</ele>
        <time>2024-04-07T10:49:50Z</time>
      </trkpt>
      <trkpt lat="49.01459" lon="-0.53243">
        <ele>317.2</ele>
        <time>2024-04-07T10:49:51Z</time>
      </trkpt>
      <trkpt lat="49.01463" lon="-0.53235">
        <ele>317</ele>
        <time>2024-04-07T10:49:52Z</time>
      </trkpt>
      <trkpt lat="49.01468" lon="-0.53226">
        <ele>317</ele>
        <time>2024-04-07T10:49:53Z</time>
      </trkpt>
      <trkpt lat="49.01473" lon="-0.53217">
        <ele>316.8</ele>
        <time>2024-04-07T10:49:54Z</time>
      </trkpt>
      <trkpt lat="49.01478" lon="-0.53208">
        <ele>316.8</ele>
        <time>2024-04-07T10:49:55Z</time>
      </trkpt>
      <trkpt lat="49.01484" lon="-0.53199">
        <ele>316.6</ele>
        <time>2024-04-07T10:49:56Z</time>
      </trkpt>
      <trkpt lat="49.01489" lon="-0.53189">
        <ele>316.4</ele>
        <time>2024-04-07T10:49:57Z</time>
      </trkpt>
      <trkpt lat="49.01494" lon="-0.53179">
        <ele>316.2</ele>
        <time>2024-04-07T10:49:58Z</time>
      </trkpt>
      <trkpt lat="49.015" lon="-0.5317">
        <ele>315.6</ele>
        <time>2024-04-07T10:49:59Z</time>
      </trkpt>
      <trkpt lat="49.01503" lon="-0.53163">
        <ele>315.4</ele>
        <time>2024-04-07T10:50:00Z</time>
      </trkpt>
      <trkpt lat="49.01507" lon="-0.53156">
        <ele>315</ele>
        <time>2024-04-07T10:50:01Z</time>
      </trkpt>
      <trkpt lat="49.01515" lon="-0.53142">
        <ele>314.8</ele>
        <time>2024-04-07T10:50:02Z</time>
      </trkpt>
      <trkpt lat="49.0152" lon="-0.53132">
        <ele>314.6</ele>
        <time>2024-04-07T10:50:03Z</time>
      </trkpt>
      <trkpt lat="49.01524" lon="-0.53124">
        <ele>314.4</ele>
        <time>2024-04-07T10:50:04Z</time>
      </trkpt>
      <trkpt lat="49.01528" lon="-0.53117">
        <ele>314</ele>
        <time>2024-04-07T10:50:05Z</time>
      </trkpt>
      <trkpt lat="49.01536" lon="-0.53101">
        <ele>313.6</ele>
        <time>2024-04-07T10:50:06Z</time>
      </trkpt>
      <trkpt lat="49.01542" lon="-0.5309">
        <ele>313.2</ele>
        <time>2024-04-07T10:50:07Z</time>
      </trkpt>
      <trkpt lat="49.01547" lon="-0.53079">
        <ele>313</ele>
        <time>2024-04-07T10:50:08Z</time>
      </trkpt>
      <trkpt lat="49.01553" lon="-0.53069">
        <ele>312.8</ele>
        <time>2024-04-07T10:50:09Z</time>
      </trkpt>
      <trkpt lat="49.01559" lon="-0.53058">
        <ele>312.4</ele>
        <time>2024-04-07T10:50:10Z</time>
      </trkpt>
      <trkpt lat="49.01565" lon="-0.53047">
        <ele>311.8</ele>
        <time>2024-04-07T10:50:11Z</time>
      </trkpt>
      <trkpt lat="49.01571" lon="-0.53036">
        <ele>311.4</ele>
        <time>2024-04-07T10:50:12Z</time>
      </trkpt>
      <trkpt lat="49.01576" lon="-0.53025">
        <ele>311.2</ele>
        <time>2024-04-07T10:50:13Z</time>
      </trkpt>
      <trkpt lat="49.01582" lon="-0.53013">
        <ele>311</ele>
        <time>2024-04-07T10:50:14Z</time>
      </trkpt>
      <trkpt lat="49.01588" lon="-0.53001">
        <ele>310.8</ele>
        <time>2024-04-07T10:50:15Z</time>
      </trkpt>
      <trkpt lat="49.01594" lon="-0.52989">
        <ele>310.4</ele>
        <time>2024-04-07T10:50:16Z</time>
      </trkpt>
      <trkpt lat="49.016" lon="-0.52977">
        <ele>310</ele>
        <time>2024-04-07T10:50:17Z</time>
      </trkpt>
      <trkpt lat="49.01606" lon="-0.52966">
        <ele>309.6</ele>
        <time>2024-04-07T10:50:18Z</time>
      </trkpt>
      <trkpt lat="49.01612" lon="-0.52954">
        <ele>309</ele>
        <time>2024-04-07T10:50:19Z</time>
      </trkpt>
      <trkpt lat="49.01618" lon="-0.52943">
        <ele>308.8</ele>
        <time>2024-04-07T10:50:20Z</time>
      </trkpt>
      <trkpt lat="49.01625" lon="-0.52932">
        <ele>308.4</ele>
        <time>2024-04-07T10:50:21Z</time>
      </trkpt>
      <trkpt lat="49.01632" lon="-0.52922">
        <ele>308.2</ele>
        <time>2024-04-07T10:50:22Z</time>
      </trkpt>
      <trkpt lat="49.01639" lon="-0.52912">
        <ele>307.8</ele>
        <time>2024-04-07T10:50:23Z</time>
      </trkpt>
      <trkpt lat="49.01646" lon="-0.52902">
        <ele>307.6</ele>
        <time>2024-04-07T10:50:24Z</time>
      </trkpt>
      <trkpt lat="49.01653" lon="-0.52893">
        <ele>307.4</ele>
        <time>2024-04-07T10:50:25Z</time>
      </trkpt>
      <trkpt lat="49.0166" lon="-0.52883">
        <ele>307.2</ele>
        <time>2024-04-07T10:50:26Z</time>
      </trkpt>
      <trkpt lat="49.01667" lon="-0.52873">
        <ele>307</ele>
        <time>2024-04-07T10:50:27Z</time>
      </trkpt>
      <trkpt lat="49.01674" lon="-0.52863">
        <ele>306.8</ele>
        <time>2024-04-07T10:50:28Z</time>
      </trkpt>
      <trkpt lat="49.01682" lon="-0.52853">
        <ele>306.4</ele>
        <time>2024-04-07T10:50:29Z</time>
      </trkpt>
      <trkpt lat="49.01689" lon="-0.52843">
        <ele>306</ele>
        <time>2024-04-07T10:50:30Z</time>
      </trkpt>
      <trkpt lat="49.01696" lon="-0.52832">
        <ele>305.8</ele>
        <time>2024-04-07T10:50:31Z</time>
      </trkpt>
      <trkpt lat="49.01702" lon="-0.5282">
        <ele>305.6</ele>
        <time>2024-04-07T10:50:32Z</time>
      </trkpt>
      <trkpt lat="49.01708" lon="-0.52808">
        <ele>305.4</ele>
        <time>2024-04-07T10:50:33Z</time>
      </trkpt>
      <trkpt lat="49.01714" lon="-0.52794">
        <ele>305</ele>
        <time>2024-04-07T10:50:34Z</time>
      </trkpt>
      <trkpt lat="49.0172" lon="-0.5278">
        <ele>304.6</ele>
        <time>2024-04-07T10:50:35Z</time>
      </trkpt>
      <trkpt lat="49.01725" lon="-0.52766">
        <ele>304.2</ele>
        <time>2024-04-07T10:50:36Z</time>
      </trkpt>
      <trkpt lat="49.01731" lon="-0.52752">
        <ele>303.6</ele>
        <time>2024-04-07T10:50:37Z</time>
      </trkpt>
      <trkpt lat="49.01736" lon="-0.52737">
        <ele>303</ele>
        <time>2024-04-07T10:50:38Z</time>
      </trkpt>
      <trkpt lat="49.01742" lon="-0.52723">
        <ele>302.2</ele>
        <time>2024-04-07T10:50:39Z</time>
      </trkpt>
      <trkpt lat="49.01748" lon="-0.52708">
        <ele>301.4</ele>
        <time>2024-04-07T10:50:40Z</time>
      </trkpt>
      <trkpt lat="49.01752" lon="-0.52697">
        <ele>300.6</ele>
        <time>2024-04-07T10:50:41Z</time>
      </trkpt>
      <trkpt lat="49.01756" lon="-0.52686">
        <ele>299.8</ele>
        <time>2024-04-07T10:50:42Z</time>
      </trkpt>
      <trkpt lat="49.01765" lon="-0.52663">
        <ele>299.2</ele>
        <time>2024-04-07T10:50:43Z</time>
      </trkpt>
      <trkpt lat="49.01771" lon="-0.52648">
        <ele>298.4</ele>
        <time>2024-04-07T10:50:44Z</time>
      </trkpt>
      <trkpt lat="49.01774" lon="-0.5264">
        <ele>297.8</ele>
        <time>2024-04-07T10:50:45Z</time>
      </trkpt>
      <trkpt lat="49.01777" lon="-0.52633">
        <ele>296.8</ele>
        <time>2024-04-07T10:50:46Z</time>
      </trkpt>
      <trkpt lat="49.01783" lon="-0.52617">
        <ele>295.4</ele>
        <time>2024-04-07T10:50:47Z</time>
      </trkpt>
      <trkpt lat="49.01792" lon="-0.52593">
        <ele>294</ele>
        <time>2024-04-07T10:50:48Z</time>
      </trkpt>
      <trkpt lat="49.01794" lon="-0.52585">
        <ele>292.8</ele>
        <time>2024-04-07T10:50:49Z</time>
      </trkpt>
      <trkpt lat="49.018" lon="-0.52568">
        <ele>291.6</ele>
        <time>2024-04-07T10:50:50Z</time>
      </trkpt>
      <trkpt lat="49.01805" lon="-0.5255">
        <ele>290.2</ele>
        <time>2024-04-07T10:50:51Z</time>
      </trkpt>
      <trkpt lat="49.0181" lon="-0.52531">
        <ele>288.8</ele>
        <time>2024-04-07T10:50:52Z</time>
      </trkpt>
      <trkpt lat="49.01815" lon="-0.52513">
        <ele>287.4</ele>
        <time>2024-04-07T10:50:53Z</time>
      </trkpt>
      <trkpt lat="49.01822" lon="-0.52495">
        <ele>286</ele>
        <time>2024-04-07T10:50:54Z</time>
      </trkpt>
      <trkpt lat="49.0183" lon="-0.52479">
        <ele>284.8</ele>
        <time>2024-04-07T10:50:55Z</time>
      </trkpt>
      <trkpt lat="49.01843" lon="-0.52456">
        <ele>283.6</ele>
        <time>2024-04-07T10:50:56Z</time>
      </trkpt>
      <trkpt lat="49.01849" lon="-0.52449">
        <ele>282.8</ele>
        <time>2024-04-07T10:50:57Z</time>
      </trkpt>
      <trkpt lat="49.01865" lon="-0.5243">
        <ele>282</ele>
        <time>2024-04-07T10:50:58Z</time>
      </trkpt>
      <trkpt lat="49.01871" lon="-0.52425">
        <ele>280.8</ele>
        <time>2024-04-07T10:50:59Z</time>
      </trkpt>
      <trkpt lat="49.01883" lon="-0.52414">
        <ele>279.6</ele>
        <time>2024-04-07T10:51:00Z</time>
      </trkpt>
      <trkpt lat="49.01896" lon="-0.52407">
        <ele>278.6</ele>
        <time>2024-04-07T10:51:01Z</time>
      </trkpt>
      <trkpt lat="49.01909" lon="-0.52402">
        <ele>278</ele>
        <time>2024-04-07T10:51:02Z</time>
      </trkpt>
      <trkpt lat="49.01928" lon="-0.52394">
        <ele>277.4</ele>
        <time>2024-04-07T10:51:03Z</time>
      </trkpt>
      <trkpt lat="49.01934" lon="-0.52391">
        <ele>277</ele>
        <time>2024-04-07T10:51:04Z</time>
      </trkpt>
      <trkpt lat="49.01946" lon="-0.52384">
        <ele>276.8</ele>
        <time>2024-04-07T10:51:05Z</time>
      </trkpt>
      <trkpt lat="49.01956" lon="-0.52376">
        <ele>276.8</ele>
        <time>2024-04-07T10:51:06Z</time>
      </trkpt>
      <trkpt lat="49.01966" lon="-0.52366">
        <ele>276.8</ele>
        <time>2024-04-07T10:51:07Z</time>
      </trkpt>
      <trkpt lat="49.0198" lon="-0.52352">
        <ele>277</ele>
        <time>2024-04-07T10:51:08Z</time>
      </trkpt>
      <trkpt lat="49.01994" lon="-0.52338">
        <ele>277.2</ele>
        <time>2024-04-07T10:51:09Z</time>
      </trkpt>
      <trkpt lat="49.02002" lon="-0.52329">
        <ele>277.4</ele>
        <time>2024-04-07T10:51:10Z</time>
      </trkpt>
      <trkpt lat="49.02002" lon="-0.52329">
        <ele>277.4</ele>
        <time>2024-04-07T10:51:11Z</time>
      </trkpt>
      <trkpt lat="49.02017" lon="-0.52313">
        <ele>277.6</ele>
        <time>2024-04-07T10:51:12Z</time>
      </trkpt>
      <trkpt lat="49.02024" lon="-0.52306">
        <ele>277.6</ele>
        <time>2024-04-07T10:51:13Z</time>
      </trkpt>
      <trkpt lat="49.02036" lon="-0.52293">
        <ele>277.6</ele>
        <time>2024-04-07T10:51:14Z</time>
      </trkpt>
      <trkpt lat="49.02044" lon="-0.52284">
        <ele>277.6</ele>
        <time>2024-04-07T10:51:15Z</time>
      </trkpt>
      <trkpt lat="49.0205" lon="-0.52277">
        <ele>277.6</ele>
        <time>2024-04-07T10:51:16Z</time>
      </trkpt>
      <trkpt lat="49.02056" lon="-0.5227">
        <ele>277.6</ele>
        <time>2024-04-07T10:51:17Z</time>
      </trkpt>
      <trkpt lat="49.02068" lon="-0.52257">
        <ele>277.4</ele>
        <time>2024-04-07T10:51:18Z</time>
      </trkpt>
      <trkpt lat="49.02076" lon="-0.52248">
        <ele>277.2</ele>
        <time>2024-04-07T10:51:19Z</time>
      </trkpt>
      <trkpt lat="49.02083" lon="-0.52238">
        <ele>277</ele>
        <time>2024-04-07T10:51:20Z</time>
      </trkpt>
      <trkpt lat="49.02091" lon="-0.52229">
        <ele>276.6</ele>
        <time>2024-04-07T10:51:21Z</time>
      </trkpt>
      <trkpt lat="49.02097" lon="-0.52221">
        <ele>276.4</ele>
        <time>2024-04-07T10:51:22Z</time>
      </trkpt>
      <trkpt lat="49.02102" lon="-0.52213">
        <ele>276.2</ele>
        <time>2024-04-07T10:51:23Z</time>
      </trkpt>
      <trkpt lat="49.02113" lon="-0.52198">
        <ele>276.2</ele>
        <time>2024-04-07T10:51:24Z</time>
      </trkpt>
      <trkpt lat="49.0212" lon="-0.52188">
        <ele>276</ele>
        <time>2024-04-07T10:51:25Z</time>
      </trkpt>
      <trkpt lat="49.02128" lon="-0.52178">
        <ele>276</ele>
        <time>2024-04-07T10:51:26Z</time>
      </trkpt>
      <trkpt lat="49.02135" lon="-0.52169">
        <ele>276</ele>
        <time>2024-04-07T10:51:27Z</time>
      </trkpt>
      <trkpt lat="49.02142" lon="-0.52159">
        <ele>276.2</ele>
        <time>2024-04-07T10:51:28Z</time>
      </trkpt>
      <trkpt lat="49.02149" lon="-0.52149">
        <ele>276</ele>
        <time>2024-04-07T10:51:29Z</time>
      </trkpt>
      <trkpt lat="49.02156" lon="-0.52138">
        <ele>275.8</ele>
        <time>2024-04-07T10:51:30Z</time>
      </trkpt>
      <trkpt lat="49.02162" lon="-0.52128">
        <ele>275.8</ele>
        <time>2024-04-07T10:51:31Z</time>
      </trkpt>
      <trkpt lat="49.02169" lon="-0.52118">
        <ele>276</ele>
        <time>2024-04-07T10:51:32Z</time>
      </trkpt>
      <trkpt lat="49.02173" lon="-0.52113">
        <ele>275.8</ele>
        <time>2024-04-07T10:51:33Z</time>
      </trkpt>
      <trkpt lat="49.02176" lon="-0.52108">
        <ele>275.8</ele>
        <time>2024-04-07T10:51:34Z</time>
      </trkpt>
      <trkpt lat="49.02191" lon="-0.52089">
        <ele>275.8</ele>
        <time>2024-04-07T10:51:35Z</time>
      </trkpt>
      <trkpt lat="49.02198" lon="-0.5208">
        <ele>275.8</ele>
        <time>2024-04-07T10:51:36Z</time>
      </trkpt>
      <trkpt lat="49.02198" lon="-0.5208">
        <ele>276</ele>
        <time>2024-04-07T10:51:37Z</time>
      </trkpt>
      <trkpt lat="49.02213" lon="-0.52062">
        <ele>276.2</ele>
        <time>2024-04-07T10:51:38Z</time>
      </trkpt>
      <trkpt lat="49.02221" lon="-0.52053">
        <ele>276.4</ele>
        <time>2024-04-07T10:51:39Z</time>
      </trkpt>
      <trkpt lat="49.02229" lon="-0.52045">
        <ele>276.4</ele>
        <time>2024-04-07T10:51:40Z</time>
      </trkpt>
      <trkpt lat="49.02236" lon="-0.52036">
        <ele>276.6</ele>
        <time>2024-04-07T10:51:41Z</time>
      </trkpt>
      <trkpt lat="49.02244" lon="-0.52028">
        <ele>276.8</ele>
        <time>2024-04-07T10:51:42Z</time>
      </trkpt>
      <trkpt lat="49.02249" lon="-0.52022">
        <ele>276.8</ele>
        <time>2024-04-07T10:51:43Z</time>
      </trkpt>
      <trkpt lat="49.02255" lon="-0.52016">
        <ele>276.6</ele>
        <time>2024-04-07T10:51:44Z</time>
      </trkpt>
      <trkpt lat="49.02267" lon="-0.52003">
        <ele>276.4</ele>
        <time>2024-04-07T10:51:45Z</time>
      </trkpt>
      <trkpt lat="49.02271" lon="-0.51999">
        <ele>276.4</ele>
        <time>2024-04-07T10:51:46Z</time>
      </trkpt>
      <trkpt lat="49.02275" lon="-0.51995">
        <ele>276.4</ele>
        <time>2024-04-07T10:51:47Z</time>
      </trkpt>
      <trkpt lat="49.02287" lon="-0.51983">
        <ele>276.2</ele>
        <time>2024-04-07T10:51:48Z</time>
      </trkpt>
      <trkpt lat="49.02291" lon="-0.5198">
        <ele>276.2</ele>
        <time>2024-04-07T10:51:49Z</time>
      </trkpt>
      <trkpt lat="49.02305" lon="-0.51968">
        <ele>276.4</ele>
        <time>2024-04-07T10:51:50Z</time>
      </trkpt>
      <trkpt lat="49.02311" lon="-0.51964">
        <ele>276.4</ele>
        <time>2024-04-07T10:51:51Z</time>
      </trkpt>
      <trkpt lat="49.02323" lon="-0.51956">
        <ele>276.4</ele>
        <time>2024-04-07T10:51:52Z</time>
      </trkpt>
      <trkpt lat="49.0233" lon="-0.51952">
        <ele>276.6</ele>
        <time>2024-04-07T10:51:53Z</time>
      </trkpt>
      <trkpt lat="49.02337" lon="-0.51948">
        <ele>276.8</ele>
        <time>2024-04-07T10:51:54Z</time>
      </trkpt>
      <trkpt lat="49.02344" lon="-0.51945">
        <ele>277</ele>
        <time>2024-04-07T10:51:55Z</time>
      </trkpt>
      <trkpt lat="49.02347" lon="-0.51943">
        <ele>277.2</ele>
        <time>2024-04-07T10:51:56Z</time>
      </trkpt>
      <trkpt lat="49.02351" lon="-0.51942">
        <ele>277.4</ele>
        <time>2024-04-07T10:51:57Z</time>
      </trkpt>
      <trkpt lat="49.02364" lon="-0.51937">
        <ele>278</ele>
        <time>2024-04-07T10:51:58Z</time>
      </trkpt>
      <trkpt lat="49.02369" lon="-0.51936">
        <ele>278.2</ele>
        <time>2024-04-07T10:51:59Z</time>
      </trkpt>
      <trkpt lat="49.0238" lon="-0.51933">
        <ele>278.4</ele>
        <time>2024-04-07T10:52:00Z</time>
      </trkpt>
      <trkpt lat="49.02387" lon="-0.51932">
        <ele>278.6</ele>
        <time>2024-04-07T10:52:01Z</time>
      </trkpt>
      <trkpt lat="49.02394" lon="-0.51931">
        <ele>278.8</ele>
        <time>2024-04-07T10:52:02Z</time>
      </trkpt>
      <trkpt lat="49.02394" lon="-0.51931">
        <ele>279</ele>
        <time>2024-04-07T10:52:03Z</time>
      </trkpt>
      <trkpt lat="49.02409" lon="-0.5193">
        <ele>279.2</ele>
        <time>2024-04-07T10:52:04Z</time>
      </trkpt>
      <trkpt lat="49.02416" lon="-0.51929">
        <ele>279.4</ele>
        <time>2024-04-07T10:52:05Z</time>
      </trkpt>
      <trkpt lat="49.0242" lon="-0.51929">
        <ele>279.6</ele>
        <time>2024-04-07T10:52:06Z</time>
      </trkpt>
      <trkpt lat="49.02424" lon="-0.51929">
        <ele>280</ele>
        <time>2024-04-07T10:52:07Z</time>
      </trkpt>
      <trkpt lat="49.02431" lon="-0.51929">
        <ele>280.2</ele>
        <time>2024-04-07T10:52:08Z</time>
      </trkpt>
      <trkpt lat="49.02443" lon="-0.5193">
        <ele>280.4</ele>
        <time>2024-04-07T10:52:09Z</time>
      </trkpt>
      <trkpt lat="49.02447" lon="-0.5193">
        <ele>280.4</ele>
        <time>2024-04-07T10:52:10Z</time>
      </trkpt>
      <trkpt lat="49.02454" lon="-0.51931">
        <ele>280.6</ele>
        <time>2024-04-07T10:52:11Z</time>
      </trkpt>
      <trkpt lat="49.02462" lon="-0.51932">
        <ele>280.6</ele>
        <time>2024-04-07T10:52:12Z</time>
      </trkpt>
      <trkpt lat="49.02476" lon="-0.51936">
        <ele>280.6</ele>
        <time>2024-04-07T10:52:13Z</time>
      </trkpt>
      <trkpt lat="49.02482" lon="-0.51939">
        <ele>280.6</ele>
        <time>2024-04-07T10:52:14Z</time>
      </trkpt>
      <trkpt lat="49.02488" lon="-0.5194">
        <ele>280.8</ele>
        <time>2024-04-07T10:52:15Z</time>
      </trkpt>
      <trkpt lat="49.02493" lon="-0.51942">
        <ele>280.8</ele>
        <time>2024-04-07T10:52:16Z</time>
      </trkpt>
      <trkpt lat="49.02503" lon="-0.51946">
        <ele>280.8</ele>
        <time>2024-04-07T10:52:17Z</time>
      </trkpt>
      <trkpt lat="49.0251" lon="-0.51949">
        <ele>280.8</ele>
        <time>2024-04-07T10:52:18Z</time>
      </trkpt>
      <trkpt lat="49.0251" lon="-0.51949">
        <ele>280.8</ele>
        <time>2024-04-07T10:52:19Z</time>
      </trkpt>
      <trkpt lat="49.02523" lon="-0.51954">
        <ele>280.6</ele>
        <time>2024-04-07T10:52:20Z</time>
      </trkpt>
      <trkpt lat="49.02528" lon="-0.51957">
        <ele>280.6</ele>
        <time>2024-04-07T10:52:21Z</time>
      </trkpt>
      <trkpt lat="49.02538" lon="-0.51961">
        <ele>280.4</ele>
        <time>2024-04-07T10:52:22Z</time>
      </trkpt>
      <trkpt lat="49.02546" lon="-0.51964">
        <ele>280.2</ele>
        <time>2024-04-07T10:52:23Z</time>
      </trkpt>
      <trkpt lat="49.02553" lon="-0.51967">
        <ele>280</ele>
        <time>2024-04-07T10:52:24Z</time>
      </trkpt>
      <trkpt lat="49.02557" lon="-0.51968">
        <ele>280</ele>
        <time>2024-04-07T10:52:25Z</time>
      </trkpt>
      <trkpt lat="49.0256" lon="-0.5197">
        <ele>279.8</ele>
        <time>2024-04-07T10:52:26Z</time>
      </trkpt>
      <trkpt lat="49.02574" lon="-0.51976">
        <ele>279.8</ele>
        <time>2024-04-07T10:52:27Z</time>
      </trkpt>
      <trkpt lat="49.02581" lon="-0.51979">
        <ele>279.8</ele>
        <time>2024-04-07T10:52:28Z</time>
      </trkpt>
      <trkpt lat="49.02586" lon="-0.51981">
        <ele>280.2</ele>
        <time>2024-04-07T10:52:29Z</time>
      </trkpt>
      <trkpt lat="49.02591" lon="-0.51983">
        <ele>280.6</ele>
        <time>2024-04-07T10:52:30Z</time>
      </trkpt>
      <trkpt lat="49.02601" lon="-0.51987">
        <ele>280.8</ele>
        <time>2024-04-07T10:52:31Z</time>
      </trkpt>
      <trkpt lat="49.02606" lon="-0.51989">
        <ele>281</ele>
        <time>2024-04-07T10:52:32Z</time>
      </trkpt>
      <trkpt lat="49.02611" lon="-0.51991">
        <ele>281</ele>
        <time>2024-04-07T10:52:33Z</time>
      </trkpt>
      <trkpt lat="49.02621" lon="-0.51995">
        <ele>281.2</ele>
        <time>2024-04-07T10:52:34Z</time>
      </trkpt>
      <trkpt lat="49.02628" lon="-0.51998">
        <ele>281.2</ele>
        <time>2024-04-07T10:52:35Z</time>
      </trkpt>
      <trkpt lat="49.02628" lon="-0.51998">
        <ele>281.4</ele>
        <time>2024-04-07T10:52:36Z</time>
      </trkpt>
      <trkpt lat="49.02642" lon="-0.52002">
        <ele>281.4</ele>
        <time>2024-04-07T10:52:37Z</time>
      </trkpt>
      <trkpt lat="49.02649" lon="-0.52004">
        <ele>281.6</ele>
        <time>2024-04-07T10:52:38Z</time>
      </trkpt>
      <trkpt lat="49.02655" lon="-0.52006">
        <ele>281.8</ele>
        <time>2024-04-07T10:52:39Z</time>
      </trkpt>
      <trkpt lat="49.0266" lon="-0.52008">
        <ele>282</ele>
        <time>2024-04-07T10:52:40Z</time>
      </trkpt>
      <trkpt lat="49.02671" lon="-0.52011">
        <ele>282.2</ele>
        <time>2024-04-07T10:52:41Z</time>
      </trkpt>
      <trkpt lat="49.02678" lon="-0.52013">
        <ele>282.4</ele>
        <time>2024-04-07T10:52:42Z</time>
      </trkpt>
      <trkpt lat="49.02685" lon="-0.52015">
        <ele>282.4</ele>
        <time>2024-04-07T10:52:43Z</time>
      </trkpt>
      <trkpt lat="49.02691" lon="-0.52017">
        <ele>282.4</ele>
        <time>2024-04-07T10:52:44Z</time>
      </trkpt>
      <trkpt lat="49.02696" lon="-0.52019">
        <ele>282.4</ele>
        <time>2024-04-07T10:52:45Z</time>
      </trkpt>
      <trkpt lat="49.02707" lon="-0.52022">
        <ele>282.4</ele>
        <time>2024-04-07T10:52:46Z</time>
      </trkpt>
      <trkpt lat="49.02707" lon="-0.52022">
        <ele>282.2</ele>
        <time>2024-04-07T10:52:47Z</time>
      </trkpt>
      <trkpt lat="49.02722" lon="-0.52027">
        <ele>282.2</ele>
        <time>2024-04-07T10:52:48Z</time>
      </trkpt>
      <trkpt lat="49.02722" lon="-0.52027">
        <ele>282.2</ele>
        <time>2024-04-07T10:52:49Z</time>
      </trkpt>
      <trkpt lat="49.02737" lon="-0.5203">
        <ele>282.4</ele>
        <time>2024-04-07T10:52:50Z</time>
      </trkpt>
      <trkpt lat="49.02745" lon="-0.52031">
        <ele>282.4</ele>
        <time>2024-04-07T10:52:51Z</time>
      </trkpt>
      <trkpt lat="49.02753" lon="-0.52033">
        <ele>282.4</ele>
        <time>2024-04-07T10:52:52Z</time>
      </trkpt>
      <trkpt lat="49.02753" lon="-0.52033">
        <ele>282.4</ele>
        <time>2024-04-07T10:52:53Z</time>
      </trkpt>
      <trkpt lat="49.02768" lon="-0.52035">
        <ele>282.4</ele>
        <time>2024-04-07T10:52:54Z</time>
      </trkpt>
      <trkpt lat="49.02776" lon="-0.52037">
        <ele>282.4</ele>
        <time>2024-04-07T10:52:55Z</time>
      </trkpt>
      <trkpt lat="49.02776" lon="-0.52037">
        <ele>282.4</ele>
        <time>2024-04-07T10:52:56Z</time>
      </trkpt>
      <trkpt lat="49.02793" lon="-0.5204">
        <ele>282.4</ele>
        <time>2024-04-07T10:52:57Z</time>
      </trkpt>
      <trkpt lat="49.02801" lon="-0.52041">
        <ele>282.4</ele>
        <time>2024-04-07T10:52:58Z</time>
      </trkpt>
      <trkpt lat="49.02801" lon="-0.52041">
        <ele>282.2</ele>
        <time>2024-04-07T10:52:59Z</time>
      </trkpt>
      <trkpt lat="49.02818" lon="-0.52044">
        <ele>282.2</ele>
        <time>2024-04-07T10:53:00Z</time>
      </trkpt>
      <trkpt lat="49.02822" lon="-0.52044">
        <ele>282.2</ele>
        <time>2024-04-07T10:53:01Z</time>
      </trkpt>
      <trkpt lat="49.02826" lon="-0.52045">
        <ele>282.2</ele>
        <time>2024-04-07T10:53:02Z</time>
      </trkpt>
      <trkpt lat="49.02843" lon="-0.52046">
        <ele>282</ele>
        <time>2024-04-07T10:53:03Z</time>
      </trkpt>
      <trkpt lat="49.02851" lon="-0.52047">
        <ele>281.8</ele>
        <time>2024-04-07T10:53:04Z</time>
      </trkpt>
      <trkpt lat="49.02858" lon="-0.52047">
        <ele>281.6</ele>
        <time>2024-04-07T10:53:05Z</time>
      </trkpt>
      <trkpt lat="49.02864" lon="-0.52047">
        <ele>281.4</ele>
        <time>2024-04-07T10:53:06Z</time>
      </trkpt>
      <trkpt lat="49.02877" lon="-0.52047">
        <ele>281.2</ele>
        <time>2024-04-07T10:53:07Z</time>
      </trkpt>
      <trkpt lat="49.02886" lon="-0.52047">
        <ele>281</ele>
        <time>2024-04-07T10:53:08Z</time>
      </trkpt>
      <trkpt lat="49.02895" lon="-0.52046">
        <ele>280.6</ele>
        <time>2024-04-07T10:53:09Z</time>
      </trkpt>
      <trkpt lat="49.02899" lon="-0.52046">
        <ele>280.4</ele>
        <time>2024-04-07T10:53:10Z</time>
      </trkpt>
      <trkpt lat="49.02903" lon="-0.52046">
        <ele>280.4</ele>
        <time>2024-04-07T10:53:11Z</time>
      </trkpt>
      <trkpt lat="49.02921" lon="-0.52044">
        <ele>280.4</ele>
        <time>2024-04-07T10:53:12Z</time>
      </trkpt>
      <trkpt lat="49.0293" lon="-0.52044">
        <ele>280.4</ele>
        <time>2024-04-07T10:53:13Z</time>
      </trkpt>
      <trkpt lat="49.02935" lon="-0.52043">
        <ele>280.4</ele>
        <time>2024-04-07T10:53:14Z</time>
      </trkpt>
      <trkpt lat="49.0294" lon="-0.52043">
        <ele>280.2</ele>
        <time>2024-04-07T10:53:15Z</time>
      </trkpt>
      <trkpt lat="49.02949" lon="-0.52042">
        <ele>280.2</ele>
        <time>2024-04-07T10:53:16Z</time>
      </trkpt>
      <trkpt lat="49.02968" lon="-0.5204">
        <ele>280</ele>
        <time>2024-04-07T10:53:17Z</time>
      </trkpt>
      <trkpt lat="49.02977" lon="-0.5204">
        <ele>279.8</ele>
        <time>2024-04-07T10:53:18Z</time>
      </trkpt>
      <trkpt lat="49.02987" lon="-0.52039">
        <ele>279.4</ele>
        <time>2024-04-07T10:53:19Z</time>
      </trkpt>
      <trkpt lat="49.02996" lon="-0.52038">
        <ele>279</ele>
        <time>2024-04-07T10:53:20Z</time>
      </trkpt>
      <trkpt lat="49.03005" lon="-0.52037">
        <ele>278.8</ele>
        <time>2024-04-07T10:53:21Z</time>
      </trkpt>
      <trkpt lat="49.03015" lon="-0.52036">
        <ele>278.6</ele>
        <time>2024-04-07T10:53:22Z</time>
      </trkpt>
      <trkpt lat="49.03024" lon="-0.52035">
        <ele>278.4</ele>
        <time>2024-04-07T10:53:23Z</time>
      </trkpt>
      <trkpt lat="49.03034" lon="-0.52034">
        <ele>278.2</ele>
        <time>2024-04-07T10:53:24Z</time>
      </trkpt>
      <trkpt lat="49.03038" lon="-0.52033">
        <ele>278</ele>
        <time>2024-04-07T10:53:25Z</time>
      </trkpt>
      <trkpt lat="49.03043" lon="-0.52033">
        <ele>277.6</ele>
        <time>2024-04-07T10:53:26Z</time>
      </trkpt>
      <trkpt lat="49.03053" lon="-0.52032">
        <ele>277.2</ele>
        <time>2024-04-07T10:53:27Z</time>
      </trkpt>
      <trkpt lat="49.03062" lon="-0.52031">
        <ele>276.4</ele>
        <time>2024-04-07T10:53:28Z</time>
      </trkpt>
      <trkpt lat="49.03079" lon="-0.52029">
        <ele>275.6</ele>
        <time>2024-04-07T10:53:29Z</time>
      </trkpt>
      <trkpt lat="49.03087" lon="-0.52028">
        <ele>275</ele>
        <time>2024-04-07T10:53:30Z</time>
      </trkpt>
      <trkpt lat="49.03102" lon="-0.52026">
        <ele>274.4</ele>
        <time>2024-04-07T10:53:31Z</time>
      </trkpt>
      <trkpt lat="49.03102" lon="-0.52026">
        <ele>274</ele>
        <time>2024-04-07T10:53:32Z</time>
      </trkpt>
      <trkpt lat="49.03122" lon="-0.52023">
        <ele>273.8</ele>
        <time>2024-04-07T10:53:33Z</time>
      </trkpt>
      <trkpt lat="49.03128" lon="-0.52023">
        <ele>273.6</ele>
        <time>2024-04-07T10:53:34Z</time>
      </trkpt>
      <trkpt lat="49.03133" lon="-0.52022">
        <ele>273.4</ele>
        <time>2024-04-07T10:53:35Z</time>
      </trkpt>
      <trkpt lat="49.03143" lon="-0.52021">
        <ele>273</ele>
        <time>2024-04-07T10:53:36Z</time>
      </trkpt>
      <trkpt lat="49.03161" lon="-0.52019">
        <ele>272.4</ele>
        <time>2024-04-07T10:53:37Z</time>
      </trkpt>
      <trkpt lat="49.03169" lon="-0.52018">
        <ele>271.6</ele>
        <time>2024-04-07T10:53:38Z</time>
      </trkpt>
      <trkpt lat="49.03185" lon="-0.52017">
        <ele>270.8</ele>
        <time>2024-04-07T10:53:39Z</time>
      </trkpt>
      <trkpt lat="49.03196" lon="-0.52016">
        <ele>270</ele>
        <time>2024-04-07T10:53:40Z</time>
      </trkpt>
      <trkpt lat="49.03203" lon="-0.52017">
        <ele>269.2</ele>
        <time>2024-04-07T10:53:41Z</time>
      </trkpt>
      <trkpt lat="49.03209" lon="-0.52017">
        <ele>268.4</ele>
        <time>2024-04-07T10:53:42Z</time>
      </trkpt>
      <trkpt lat="49.03223" lon="-0.52017">
        <ele>268</ele>
        <time>2024-04-07T10:53:43Z</time>
      </trkpt>
      <trkpt lat="49.03236" lon="-0.52017">
        <ele>267.8</ele>
        <time>2024-04-07T10:53:44Z</time>
      </trkpt>
      <trkpt lat="49.03246" lon="-0.52017">
        <ele>267.8</ele>
        <time>2024-04-07T10:53:45Z</time>
      </trkpt>
      <trkpt lat="49.03251" lon="-0.52017">
        <ele>267.6</ele>
        <time>2024-04-07T10:53:46Z</time>
      </trkpt>
      <trkpt lat="49.03256" lon="-0.52017">
        <ele>267.6</ele>
        <time>2024-04-07T10:53:47Z</time>
      </trkpt>
      <trkpt lat="49.03267" lon="-0.52018">
        <ele>267.6</ele>
        <time>2024-04-07T10:53:48Z</time>
      </trkpt>
      <trkpt lat="49.03281" lon="-0.52019">
        <ele>267.6</ele>
        <time>2024-04-07T10:53:49Z</time>
      </trkpt>
      <trkpt lat="49.03286" lon="-0.52019">
        <ele>267.4</ele>
        <time>2024-04-07T10:53:50Z</time>
      </trkpt>
      <trkpt lat="49.03301" lon="-0.52019">
        <ele>267</ele>
        <time>2024-04-07T10:53:51Z</time>
      </trkpt>
      <trkpt lat="49.03305" lon="-0.5202">
        <ele>266.6</ele>
        <time>2024-04-07T10:53:52Z</time>
      </trkpt>
      <trkpt lat="49.03314" lon="-0.5202">
        <ele>266.4</ele>
        <time>2024-04-07T10:53:53Z</time>
      </trkpt>
      <trkpt lat="49.03333" lon="-0.52022">
        <ele>266.2</ele>
        <time>2024-04-07T10:53:54Z</time>
      </trkpt>
      <trkpt lat="49.03337" lon="-0.52022">
        <ele>266</ele>
        <time>2024-04-07T10:53:55Z</time>
      </trkpt>
      <trkpt lat="49.03342" lon="-0.52023">
        <ele>266</ele>
        <time>2024-04-07T10:53:56Z</time>
      </trkpt>
      <trkpt lat="49.03359" lon="-0.52027">
        <ele>266</ele>
        <time>2024-04-07T10:53:57Z</time>
      </trkpt>
      <trkpt lat="49.03367" lon="-0.52029">
        <ele>266</ele>
        <time>2024-04-07T10:53:58Z</time>
      </trkpt>
      <trkpt lat="49.03371" lon="-0.5203">
        <ele>266</ele>
        <time>2024-04-07T10:53:59Z</time>
      </trkpt>
      <trkpt lat="49.03375" lon="-0.52031">
        <ele>266</ele>
        <time>2024-04-07T10:54:00Z</time>
      </trkpt>
      <trkpt lat="49.03387" lon="-0.52034">
        <ele>266</ele>
        <time>2024-04-07T10:54:01Z</time>
      </trkpt>
      <trkpt lat="49.03391" lon="-0.52035">
        <ele>266</ele>
        <time>2024-04-07T10:54:02Z</time>
      </trkpt>
      <trkpt lat="49.03406" lon="-0.52041">
        <ele>266</ele>
        <time>2024-04-07T10:54:03Z</time>
      </trkpt>
      <trkpt lat="49.03414" lon="-0.52044">
        <ele>266</ele>
        <time>2024-04-07T10:54:04Z</time>
      </trkpt>
      <trkpt lat="49.03422" lon="-0.52047">
        <ele>265.8</ele>
        <time>2024-04-07T10:54:05Z</time>
      </trkpt>
      <trkpt lat="49.03426" lon="-0.52048">
        <ele>265.8</ele>
        <time>2024-04-07T10:54:06Z</time>
      </trkpt>
      <trkpt lat="49.0343" lon="-0.5205">
        <ele>265.6</ele>
        <time>2024-04-07T10:54:07Z</time>
      </trkpt>
      <trkpt lat="49.03441" lon="-0.52055">
        <ele>265.6</ele>
        <time>2024-04-07T10:54:08Z</time>
      </trkpt>
      <trkpt lat="49.03445" lon="-0.52056">
        <ele>265.4</ele>
        <time>2024-04-07T10:54:09Z</time>
      </trkpt>
      <trkpt lat="49.03452" lon="-0.52059">
        <ele>265.6</ele>
        <time>2024-04-07T10:54:10Z</time>
      </trkpt>
      <trkpt lat="49.03467" lon="-0.52066">
        <ele>265.6</ele>
        <time>2024-04-07T10:54:11Z</time>
      </trkpt>
      <trkpt lat="49.03475" lon="-0.52069">
        <ele>265.6</ele>
        <time>2024-04-07T10:54:12Z</time>
      </trkpt>
      <trkpt lat="49.03481" lon="-0.52071">
        <ele>265.6</ele>
        <time>2024-04-07T10:54:13Z</time>
      </trkpt>
      <trkpt lat="49.03486" lon="-0.52074">
        <ele>265.6</ele>
        <time>2024-04-07T10:54:14Z</time>
      </trkpt>
      <trkpt lat="49.03497" lon="-0.52078">
        <ele>265.8</ele>
        <time>2024-04-07T10:54:15Z</time>
      </trkpt>
      <trkpt lat="49.03503" lon="-0.52081">
        <ele>265.8</ele>
        <time>2024-04-07T10:54:16Z</time>
      </trkpt>
      <trkpt lat="49.03509" lon="-0.52083">
        <ele>265.8</ele>
        <time>2024-04-07T10:54:17Z</time>
      </trkpt>
      <trkpt lat="49.0352" lon="-0.52088">
        <ele>265.8</ele>
        <time>2024-04-07T10:54:18Z</time>
      </trkpt>
      <trkpt lat="49.03527" lon="-0.5209">
        <ele>265.8</ele>
        <time>2024-04-07T10:54:19Z</time>
      </trkpt>
      <trkpt lat="49.03534" lon="-0.52093">
        <ele>265.8</ele>
        <time>2024-04-07T10:54:20Z</time>
      </trkpt>
      <trkpt lat="49.03541" lon="-0.52095">
        <ele>265.8</ele>
        <time>2024-04-07T10:54:21Z</time>
      </trkpt>
      <trkpt lat="49.03545" lon="-0.52096">
        <ele>265.8</ele>
        <time>2024-04-07T10:54:22Z</time>
      </trkpt>
      <trkpt lat="49.03549" lon="-0.52097">
        <ele>265.8</ele>
        <time>2024-04-07T10:54:23Z</time>
      </trkpt>
      <trkpt lat="49.03563" lon="-0.52103">
        <ele>265.8</ele>
        <time>2024-04-07T10:54:24Z</time>
      </trkpt>
      <trkpt lat="49.03566" lon="-0.52104">
        <ele>266</ele>
        <time>2024-04-07T10:54:25Z</time>
      </trkpt>
      <trkpt lat="49.0357" lon="-0.52106">
        <ele>266.2</ele>
        <time>2024-04-07T10:54:26Z</time>
      </trkpt>
      <trkpt lat="49.03576" lon="-0.52109">
        <ele>266.2</ele>
        <time>2024-04-07T10:54:27Z</time>
      </trkpt>
      <trkpt lat="49.03583" lon="-0.52112">
        <ele>266.2</ele>
        <time>2024-04-07T10:54:28Z</time>
      </trkpt>
      <trkpt lat="49.03596" lon="-0.52118">
        <ele>266.2</ele>
        <time>2024-04-07T10:54:29Z</time>
      </trkpt>
      <trkpt lat="49.03603" lon="-0.52121">
        <ele>266.4</ele>
        <time>2024-04-07T10:54:30Z</time>
      </trkpt>
      <trkpt lat="49.0361" lon="-0.52124">
        <ele>266.6</ele>
        <time>2024-04-07T10:54:31Z</time>
      </trkpt>
      <trkpt lat="49.03613" lon="-0.52125">
        <ele>266.8</ele>
        <time>2024-04-07T10:54:32Z</time>
      </trkpt>
      <trkpt lat="49.03617" lon="-0.52126">
        <ele>266.8</ele>
        <time>2024-04-07T10:54:33Z</time>
      </trkpt>
      <trkpt lat="49.0363" lon="-0.52132">
        <ele>266.8</ele>
        <time>2024-04-07T10:54:34Z</time>
      </trkpt>
      <trkpt lat="49.03637" lon="-0.52135">
        <ele>266.8</ele>
        <time>2024-04-07T10:54:35Z</time>
      </trkpt>
      <trkpt lat="49.03642" lon="-0.52137">
        <ele>266.8</ele>
        <time>2024-04-07T10:54:36Z</time>
      </trkpt>
      <trkpt lat="49.03647" lon="-0.52139">
        <ele>266.8</ele>
        <time>2024-04-07T10:54:37Z</time>
      </trkpt>
      <trkpt lat="49.03658" lon="-0.52143">
        <ele>266.6</ele>
        <time>2024-04-07T10:54:38Z</time>
      </trkpt>
      <trkpt lat="49.03665" lon="-0.52146">
        <ele>266.4</ele>
        <time>2024-04-07T10:54:39Z</time>
      </trkpt>
      <trkpt lat="49.03671" lon="-0.52149">
        <ele>266.4</ele>
        <time>2024-04-07T10:54:40Z</time>
      </trkpt>
      <trkpt lat="49.03678" lon="-0.52152">
        <ele>266.4</ele>
        <time>2024-04-07T10:54:41Z</time>
      </trkpt>
      <trkpt lat="49.03685" lon="-0.52154">
        <ele>266.4</ele>
        <time>2024-04-07T10:54:42Z</time>
      </trkpt>
      <trkpt lat="49.03691" lon="-0.52157">
        <ele>266.6</ele>
        <time>2024-04-07T10:54:43Z</time>
      </trkpt>
      <trkpt lat="49.03697" lon="-0.5216">
        <ele>266.6</ele>
        <time>2024-04-07T10:54:44Z</time>
      </trkpt>
      <trkpt lat="49.03704" lon="-0.52162">
        <ele>266.8</ele>
        <time>2024-04-07T10:54:45Z</time>
      </trkpt>
      <trkpt lat="49.03711" lon="-0.52164">
        <ele>267</ele>
        <time>2024-04-07T10:54:46Z</time>
      </trkpt>
      <trkpt lat="49.03718" lon="-0.52167">
        <ele>267.2</ele>
        <time>2024-04-07T10:54:47Z</time>
      </trkpt>
      <trkpt lat="49.03725" lon="-0.5217">
        <ele>267.6</ele>
        <time>2024-04-07T10:54:48Z</time>
      </trkpt>
      <trkpt lat="49.03731" lon="-0.52173">
        <ele>267.8</ele>
        <time>2024-04-07T10:54:49Z</time>
      </trkpt>
      <trkpt lat="49.03738" lon="-0.52176">
        <ele>268</ele>
        <time>2024-04-07T10:54:50Z</time>
      </trkpt>
      <trkpt lat="49.03746" lon="-0.52179">
        <ele>268.2</ele>
        <time>2024-04-07T10:54:51Z</time>
      </trkpt>
      <trkpt lat="49.03753" lon="-0.52182">
        <ele>268.4</ele>
        <time>2024-04-07T10:54:52Z</time>
      </trkpt>
      <trkpt lat="49.0376" lon="-0.52184">
        <ele>268.4</ele>
        <time>2024-04-07T10:54:53Z</time>
      </trkpt>
      <trkpt lat="49.03768" lon="-0.52187">
        <ele>268.4</ele>
        <time>2024-04-07T10:54:54Z</time>
      </trkpt>
      <trkpt lat="49.03775" lon="-0.52189">
        <ele>268.4</ele>
        <time>2024-04-07T10:54:55Z</time>
      </trkpt>
      <trkpt lat="49.03775" lon="-0.52189">
        <ele>268.2</ele>
        <time>2024-04-07T10:54:56Z</time>
      </trkpt>
      <trkpt lat="49.03791" lon="-0.52192">
        <ele>268.2</ele>
        <time>2024-04-07T10:54:57Z</time>
      </trkpt>
      <trkpt lat="49.03798" lon="-0.52193">
        <ele>268</ele>
        <time>2024-04-07T10:54:58Z</time>
      </trkpt>
      <trkpt lat="49.03806" lon="-0.52193">
        <ele>268</ele>
        <time>2024-04-07T10:54:59Z</time>
      </trkpt>
      <trkpt lat="49.03813" lon="-0.52194">
        <ele>268</ele>
        <time>2024-04-07T10:55:00Z</time>
      </trkpt>
      <trkpt lat="49.03821" lon="-0.52194">
        <ele>268</ele>
        <time>2024-04-07T10:55:01Z</time>
      </trkpt>
      <trkpt lat="49.03829" lon="-0.52195">
        <ele>268</ele>
        <time>2024-04-07T10:55:02Z</time>
      </trkpt>
      <trkpt lat="49.03833" lon="-0.52195">
        <ele>268</ele>
        <time>2024-04-07T10:55:03Z</time>
      </trkpt>
      <trkpt lat="49.03837" lon="-0.52195">
        <ele>268</ele>
        <time>2024-04-07T10:55:04Z</time>
      </trkpt>
      <trkpt lat="49.03845" lon="-0.52195">
        <ele>268.2</ele>
        <time>2024-04-07T10:55:05Z</time>
      </trkpt>
      <trkpt lat="49.03861" lon="-0.52195">
        <ele>268.2</ele>
        <time>2024-04-07T10:55:06Z</time>
      </trkpt>
      <trkpt lat="49.0387" lon="-0.52195">
        <ele>268.2</ele>
        <time>2024-04-07T10:55:07Z</time>
      </trkpt>
      <trkpt lat="49.03874" lon="-0.52196">
        <ele>268.4</ele>
        <time>2024-04-07T10:55:08Z</time>
      </trkpt>
      <trkpt lat="49.03878" lon="-0.52196">
        <ele>268.4</ele>
        <time>2024-04-07T10:55:09Z</time>
      </trkpt>
      <trkpt lat="49.03886" lon="-0.52196">
        <ele>268.2</ele>
        <time>2024-04-07T10:55:10Z</time>
      </trkpt>
      <trkpt lat="49.03895" lon="-0.52197">
        <ele>268</ele>
        <time>2024-04-07T10:55:11Z</time>
      </trkpt>
      <trkpt lat="49.03912" lon="-0.52199">
        <ele>267.8</ele>
        <time>2024-04-07T10:55:12Z</time>
      </trkpt>
      <trkpt lat="49.03912" lon="-0.52199">
        <ele>267.8</ele>
        <time>2024-04-07T10:55:13Z</time>
      </trkpt>
      <trkpt lat="49.03925" lon="-0.52201">
        <ele>267.8</ele>
        <time>2024-04-07T10:55:14Z</time>
      </trkpt>
      <trkpt lat="49.03929" lon="-0.52202">
        <ele>267.8</ele>
        <time>2024-04-07T10:55:15Z</time>
      </trkpt>
      <trkpt lat="49.03937" lon="-0.52204">
        <ele>267.8</ele>
        <time>2024-04-07T10:55:16Z</time>
      </trkpt>
      <trkpt lat="49.03952" lon="-0.52207">
        <ele>267.8</ele>
        <time>2024-04-07T10:55:17Z</time>
      </trkpt>
      <trkpt lat="49.03958" lon="-0.52209">
        <ele>267.8</ele>
        <time>2024-04-07T10:55:18Z</time>
      </trkpt>
      <trkpt lat="49.03971" lon="-0.52212">
        <ele>267.8</ele>
        <time>2024-04-07T10:55:19Z</time>
      </trkpt>
      <trkpt lat="49.03971" lon="-0.52212">
        <ele>267.8</ele>
        <time>2024-04-07T10:55:20Z</time>
      </trkpt>
      <trkpt lat="49.03979" lon="-0.52214">
        <ele>267.6</ele>
        <time>2024-04-07T10:55:21Z</time>
      </trkpt>
      <trkpt lat="49.03988" lon="-0.52217">
        <ele>267.6</ele>
        <time>2024-04-07T10:55:22Z</time>
      </trkpt>
      <trkpt lat="49.04" lon="-0.5222">
        <ele>267.4</ele>
        <time>2024-04-07T10:55:23Z</time>
      </trkpt>
      <trkpt lat="49.04004" lon="-0.52222">
        <ele>267.4</ele>
        <time>2024-04-07T10:55:24Z</time>
      </trkpt>
      <trkpt lat="49.04017" lon="-0.52225">
        <ele>267.2</ele>
        <time>2024-04-07T10:55:25Z</time>
      </trkpt>
      <trkpt lat="49.04021" lon="-0.52226">
        <ele>267.2</ele>
        <time>2024-04-07T10:55:26Z</time>
      </trkpt>
      <trkpt lat="49.04029" lon="-0.52229">
        <ele>267.2</ele>
        <time>2024-04-07T10:55:27Z</time>
      </trkpt>
      <trkpt lat="49.04037" lon="-0.52231">
        <ele>267.2</ele>
        <time>2024-04-07T10:55:28Z</time>
      </trkpt>
      <trkpt lat="49.04046" lon="-0.52233">
        <ele>267.2</ele>
        <time>2024-04-07T10:55:29Z</time>
      </trkpt>
      <trkpt lat="49.04063" lon="-0.52238">
        <ele>267.2</ele>
        <time>2024-04-07T10:55:30Z</time>
      </trkpt>
      <trkpt lat="49.04071" lon="-0.52241">
        <ele>267</ele>
        <time>2024-04-07T10:55:31Z</time>
      </trkpt>
      <trkpt lat="49.04075" lon="-0.52242">
        <ele>267</ele>
        <time>2024-04-07T10:55:32Z</time>
      </trkpt>
      <trkpt lat="49.0408" lon="-0.52243">
        <ele>266.8</ele>
        <time>2024-04-07T10:55:33Z</time>
      </trkpt>
      <trkpt lat="49.04092" lon="-0.52247">
        <ele>266.8</ele>
        <time>2024-04-07T10:55:34Z</time>
      </trkpt>
      <trkpt lat="49.04097" lon="-0.52248">
        <ele>266.6</ele>
        <time>2024-04-07T10:55:35Z</time>
      </trkpt>
      <trkpt lat="49.04114" lon="-0.52254">
        <ele>266.6</ele>
        <time>2024-04-07T10:55:36Z</time>
      </trkpt>
      <trkpt lat="49.0412" lon="-0.52257">
        <ele>266.6</ele>
        <time>2024-04-07T10:55:37Z</time>
      </trkpt>
      <trkpt lat="49.04127" lon="-0.52259">
        <ele>266.6</ele>
        <time>2024-04-07T10:55:38Z</time>
      </trkpt>
      <trkpt lat="49.0414" lon="-0.52265">
        <ele>266.6</ele>
        <time>2024-04-07T10:55:39Z</time>
      </trkpt>
      <trkpt lat="49.04146" lon="-0.52268">
        <ele>266.6</ele>
        <time>2024-04-07T10:55:40Z</time>
      </trkpt>
      <trkpt lat="49.04152" lon="-0.52272">
        <ele>266.4</ele>
        <time>2024-04-07T10:55:41Z</time>
      </trkpt>
      <trkpt lat="49.04165" lon="-0.52278">
        <ele>266.4</ele>
        <time>2024-04-07T10:55:42Z</time>
      </trkpt>
      <trkpt lat="49.04169" lon="-0.5228">
        <ele>266.2</ele>
        <time>2024-04-07T10:55:43Z</time>
      </trkpt>
      <trkpt lat="49.04173" lon="-0.52282">
        <ele>266</ele>
        <time>2024-04-07T10:55:44Z</time>
      </trkpt>
      <trkpt lat="49.04182" lon="-0.52287">
        <ele>265.8</ele>
        <time>2024-04-07T10:55:45Z</time>
      </trkpt>
      <trkpt lat="49.04199" lon="-0.52295">
        <ele>265.6</ele>
        <time>2024-04-07T10:55:46Z</time>
      </trkpt>
      <trkpt lat="49.04207" lon="-0.52299">
        <ele>265.4</ele>
        <time>2024-04-07T10:55:47Z</time>
      </trkpt>
      <trkpt lat="49.04215" lon="-0.52304">
        <ele>265.2</ele>
        <time>2024-04-07T10:55:48Z</time>
      </trkpt>
      <trkpt lat="49.04219" lon="-0.52306">
        <ele>265.2</ele>
        <time>2024-04-07T10:55:49Z</time>
      </trkpt>
      <trkpt lat="49.04223" lon="-0.52308">
        <ele>265</ele>
        <time>2024-04-07T10:55:50Z</time>
      </trkpt>
      <trkpt lat="49.0424" lon="-0.52316">
        <ele>265</ele>
        <time>2024-04-07T10:55:51Z</time>
      </trkpt>
      <trkpt lat="49.04244" lon="-0.52318">
        <ele>265</ele>
        <time>2024-04-07T10:55:52Z</time>
      </trkpt>
      <trkpt lat="49.04249" lon="-0.5232">
        <ele>265</ele>
        <time>2024-04-07T10:55:53Z</time>
      </trkpt>
      <trkpt lat="49.04257" lon="-0.52324">
        <ele>265</ele>
        <time>2024-04-07T10:55:54Z</time>
      </trkpt>
      <trkpt lat="49.04265" lon="-0.52328">
        <ele>265</ele>
        <time>2024-04-07T10:55:55Z</time>
      </trkpt>
      <trkpt lat="49.04281" lon="-0.52337">
        <ele>265.2</ele>
        <time>2024-04-07T10:55:56Z</time>
      </trkpt>
      <trkpt lat="49.0429" lon="-0.52341">
        <ele>265.2</ele>
        <time>2024-04-07T10:55:57Z</time>
      </trkpt>
      <trkpt lat="49.0429" lon="-0.52341">
        <ele>265.2</ele>
        <time>2024-04-07T10:55:58Z</time>
      </trkpt>
      <trkpt lat="49.04304" lon="-0.52349">
        <ele>265.2</ele>
        <time>2024-04-07T10:55:59Z</time>
      </trkpt>
      <trkpt lat="49.0431" lon="-0.52352">
        <ele>265.2</ele>
        <time>2024-04-07T10:56:00Z</time>
      </trkpt>
      <trkpt lat="49.04322" lon="-0.52359">
        <ele>265.2</ele>
        <time>2024-04-07T10:56:01Z</time>
      </trkpt>
      <trkpt lat="49.0433" lon="-0.52363">
        <ele>265</ele>
        <time>2024-04-07T10:56:02Z</time>
      </trkpt>
      <trkpt lat="49.04338" lon="-0.52367">
        <ele>264.8</ele>
        <time>2024-04-07T10:56:03Z</time>
      </trkpt>
      <trkpt lat="49.04342" lon="-0.5237">
        <ele>264.6</ele>
        <time>2024-04-07T10:56:04Z</time>
      </trkpt>
      <trkpt lat="49.04346" lon="-0.52372">
        <ele>264.4</ele>
        <time>2024-04-07T10:56:05Z</time>
      </trkpt>
      <trkpt lat="49.04362" lon="-0.5238">
        <ele>264.4</ele>
        <time>2024-04-07T10:56:06Z</time>
      </trkpt>
      <trkpt lat="49.04366" lon="-0.52383">
        <ele>264.2</ele>
        <time>2024-04-07T10:56:07Z</time>
      </trkpt>
      <trkpt lat="49.0437" lon="-0.52385">
        <ele>264.2</ele>
        <time>2024-04-07T10:56:08Z</time>
      </trkpt>
      <trkpt lat="49.04381" lon="-0.52392">
        <ele>264.2</ele>
        <time>2024-04-07T10:56:09Z</time>
      </trkpt>
      <trkpt lat="49.04385" lon="-0.52394">
        <ele>264.2</ele>
        <time>2024-04-07T10:56:10Z</time>
      </trkpt>
      <trkpt lat="49.04395" lon="-0.52401">
        <ele>264.2</ele>
        <time>2024-04-07T10:56:11Z</time>
      </trkpt>
      <trkpt lat="49.04399" lon="-0.52403">
        <ele>264.2</ele>
        <time>2024-04-07T10:56:12Z</time>
      </trkpt>
      <trkpt lat="49.04411" lon="-0.52411">
        <ele>264.2</ele>
        <time>2024-04-07T10:56:13Z</time>
      </trkpt>
      <trkpt lat="49.04416" lon="-0.52414">
        <ele>264.2</ele>
        <time>2024-04-07T10:56:14Z</time>
      </trkpt>
      <trkpt lat="49.04426" lon="-0.5242">
        <ele>264.2</ele>
        <time>2024-04-07T10:56:15Z</time>
      </trkpt>
      <trkpt lat="49.04434" lon="-0.52424">
        <ele>264.2</ele>
        <time>2024-04-07T10:56:16Z</time>
      </trkpt>
      <trkpt lat="49.04434" lon="-0.52424">
        <ele>264.2</ele>
        <time>2024-04-07T10:56:17Z</time>
      </trkpt>
      <trkpt lat="49.04447" lon="-0.52431">
        <ele>264.4</ele>
        <time>2024-04-07T10:56:18Z</time>
      </trkpt>
      <trkpt lat="49.04452" lon="-0.52434">
        <ele>264.6</ele>
        <time>2024-04-07T10:56:19Z</time>
      </trkpt>
      <trkpt lat="49.04464" lon="-0.5244">
        <ele>264.6</ele>
        <time>2024-04-07T10:56:20Z</time>
      </trkpt>
      <trkpt lat="49.04467" lon="-0.52442">
        <ele>264.6</ele>
        <time>2024-04-07T10:56:21Z</time>
      </trkpt>
      <trkpt lat="49.04471" lon="-0.52444">
        <ele>264.4</ele>
        <time>2024-04-07T10:56:22Z</time>
      </trkpt>
      <trkpt lat="49.04479" lon="-0.52447">
        <ele>264.6</ele>
        <time>2024-04-07T10:56:23Z</time>
      </trkpt>
      <trkpt lat="49.04487" lon="-0.52449">
        <ele>264.4</ele>
        <time>2024-04-07T10:56:24Z</time>
      </trkpt>
      <trkpt lat="49.04503" lon="-0.52451">
        <ele>264.4</ele>
        <time>2024-04-07T10:56:25Z</time>
      </trkpt>
      <trkpt lat="49.0451" lon="-0.52452">
        <ele>264.4</ele>
        <time>2024-04-07T10:56:26Z</time>
      </trkpt>
      <trkpt lat="49.04516" lon="-0.52452">
        <ele>264.4</ele>
        <time>2024-04-07T10:56:27Z</time>
      </trkpt>
      <trkpt lat="49.04529" lon="-0.52452">
        <ele>264.4</ele>
        <time>2024-04-07T10:56:28Z</time>
      </trkpt>
      <trkpt lat="49.04537" lon="-0.52452">
        <ele>264.6</ele>
        <time>2024-04-07T10:56:29Z</time>
      </trkpt>
      <trkpt lat="49.04541" lon="-0.52452">
        <ele>264.6</ele>
        <time>2024-04-07T10:56:30Z</time>
      </trkpt>
      <trkpt lat="49.04545" lon="-0.52452">
        <ele>264.6</ele>
        <time>2024-04-07T10:56:31Z</time>
      </trkpt>
      <trkpt lat="49.04554" lon="-0.52452">
        <ele>264.4</ele>
        <time>2024-04-07T10:56:32Z</time>
      </trkpt>
      <trkpt lat="49.04568" lon="-0.52453">
        <ele>264.2</ele>
        <time>2024-04-07T10:56:33Z</time>
      </trkpt>
      <trkpt lat="49.04575" lon="-0.52454">
        <ele>264</ele>
        <time>2024-04-07T10:56:34Z</time>
      </trkpt>
      <trkpt lat="49.04588" lon="-0.52455">
        <ele>263.6</ele>
        <time>2024-04-07T10:56:35Z</time>
      </trkpt>
      <trkpt lat="49.04588" lon="-0.52455">
        <ele>263.4</ele>
        <time>2024-04-07T10:56:36Z</time>
      </trkpt>
      <trkpt lat="49.04605" lon="-0.52459">
        <ele>263.2</ele>
        <time>2024-04-07T10:56:37Z</time>
      </trkpt>
      <trkpt lat="49.04605" lon="-0.52459">
        <ele>262.8</ele>
        <time>2024-04-07T10:56:38Z</time>
      </trkpt>
      <trkpt lat="49.04619" lon="-0.52462">
        <ele>262.2</ele>
        <time>2024-04-07T10:56:39Z</time>
      </trkpt>
      <trkpt lat="49.04626" lon="-0.52464">
        <ele>261.6</ele>
        <time>2024-04-07T10:56:40Z</time>
      </trkpt>
      <trkpt lat="49.04638" lon="-0.52467">
        <ele>261.2</ele>
        <time>2024-04-07T10:56:41Z</time>
      </trkpt>
      <trkpt lat="49.04638" lon="-0.52467">
        <ele>261</ele>
        <time>2024-04-07T10:56:42Z</time>
      </trkpt>
      <trkpt lat="49.04651" lon="-0.5247">
        <ele>260.8</ele>
        <time>2024-04-07T10:56:43Z</time>
      </trkpt>
      <trkpt lat="49.04655" lon="-0.52471">
        <ele>260.8</ele>
        <time>2024-04-07T10:56:44Z</time>
      </trkpt>
      <trkpt lat="49.04663" lon="-0.52473">
        <ele>261</ele>
        <time>2024-04-07T10:56:45Z</time>
      </trkpt>
      <trkpt lat="49.0468" lon="-0.52479">
        <ele>261</ele>
        <time>2024-04-07T10:56:46Z</time>
      </trkpt>
      <trkpt lat="49.04689" lon="-0.52482">
        <ele>261</ele>
        <time>2024-04-07T10:56:47Z</time>
      </trkpt>
      <trkpt lat="49.04693" lon="-0.52483">
        <ele>261</ele>
        <time>2024-04-07T10:56:48Z</time>
      </trkpt>
      <trkpt lat="49.04697" lon="-0.52485">
        <ele>261.2</ele>
        <time>2024-04-07T10:56:49Z</time>
      </trkpt>
      <trkpt lat="49.04712" lon="-0.5249">
        <ele>261.2</ele>
        <time>2024-04-07T10:56:50Z</time>
      </trkpt>
      <trkpt lat="49.04718" lon="-0.52493">
        <ele>261.2</ele>
        <time>2024-04-07T10:56:51Z</time>
      </trkpt>
      <trkpt lat="49.04731" lon="-0.52497">
        <ele>261.2</ele>
        <time>2024-04-07T10:56:52Z</time>
      </trkpt>
      <trkpt lat="49.04739" lon="-0.525">
        <ele>261.2</ele>
        <time>2024-04-07T10:56:53Z</time>
      </trkpt>
      <trkpt lat="49.04739" lon="-0.525">
        <ele>261.2</ele>
        <time>2024-04-07T10:56:54Z</time>
      </trkpt>
      <trkpt lat="49.04747" lon="-0.52503">
        <ele>261.2</ele>
        <time>2024-04-07T10:56:55Z</time>
      </trkpt>
      <trkpt lat="49.04756" lon="-0.52505">
        <ele>261.2</ele>
        <time>2024-04-07T10:56:56Z</time>
      </trkpt>
      <trkpt lat="49.0477" lon="-0.52507">
        <ele>261.2</ele>
        <time>2024-04-07T10:56:57Z</time>
      </trkpt>
      <trkpt lat="49.04774" lon="-0.52508">
        <ele>261</ele>
        <time>2024-04-07T10:56:58Z</time>
      </trkpt>
      <trkpt lat="49.0479" lon="-0.52509">
        <ele>261</ele>
        <time>2024-04-07T10:56:59Z</time>
      </trkpt>
      <trkpt lat="49.04797" lon="-0.52508">
        <ele>261</ele>
        <time>2024-04-07T10:57:00Z</time>
      </trkpt>
      <trkpt lat="49.0481" lon="-0.52507">
        <ele>261</ele>
        <time>2024-04-07T10:57:01Z</time>
      </trkpt>
      <trkpt lat="49.04817" lon="-0.52506">
        <ele>261.2</ele>
        <time>2024-04-07T10:57:02Z</time>
      </trkpt>
      <trkpt lat="49.04824" lon="-0.52504">
        <ele>261.6</ele>
        <time>2024-04-07T10:57:03Z</time>
      </trkpt>
      <trkpt lat="49.04837" lon="-0.52501">
        <ele>261.8</ele>
        <time>2024-04-07T10:57:04Z</time>
      </trkpt>
      <trkpt lat="49.04842" lon="-0.52499">
        <ele>262</ele>
        <time>2024-04-07T10:57:05Z</time>
      </trkpt>
      <trkpt lat="49.04847" lon="-0.52498">
        <ele>262</ele>
        <time>2024-04-07T10:57:06Z</time>
      </trkpt>
      <trkpt lat="49.04856" lon="-0.52496">
        <ele>262</ele>
        <time>2024-04-07T10:57:07Z</time>
      </trkpt>
      <trkpt lat="49.0487" lon="-0.52492">
        <ele>262</ele>
        <time>2024-04-07T10:57:08Z</time>
      </trkpt>
      <trkpt lat="49.04875" lon="-0.52491">
        <ele>262</ele>
        <time>2024-04-07T10:57:09Z</time>
      </trkpt>
      <trkpt lat="49.04885" lon="-0.52489">
        <ele>261.8</ele>
        <time>2024-04-07T10:57:10Z</time>
      </trkpt>
      <trkpt lat="49.04894" lon="-0.52486">
        <ele>261.6</ele>
        <time>2024-04-07T10:57:11Z</time>
      </trkpt>
      <trkpt lat="49.04904" lon="-0.52484">
        <ele>261.4</ele>
        <time>2024-04-07T10:57:12Z</time>
      </trkpt>
      <trkpt lat="49.04914" lon="-0.52481">
        <ele>261.2</ele>
        <time>2024-04-07T10:57:13Z</time>
      </trkpt>
      <trkpt lat="49.0493" lon="-0.52476">
        <ele>261</ele>
        <time>2024-04-07T10:57:14Z</time>
      </trkpt>
      <trkpt lat="49.04938" lon="-0.52474">
        <ele>261</ele>
        <time>2024-04-07T10:57:15Z</time>
      </trkpt>
      <trkpt lat="49.04953" lon="-0.5247">
        <ele>261</ele>
        <time>2024-04-07T10:57:16Z</time>
      </trkpt>
      <trkpt lat="49.04957" lon="-0.52469">
        <ele>260.8</ele>
        <time>2024-04-07T10:57:17Z</time>
      </trkpt>
      <trkpt lat="49.04962" lon="-0.52467">
        <ele>260.6</ele>
        <time>2024-04-07T10:57:18Z</time>
      </trkpt>
      <trkpt lat="49.04972" lon="-0.52465">
        <ele>260.4</ele>
        <time>2024-04-07T10:57:19Z</time>
      </trkpt>
      <trkpt lat="49.04982" lon="-0.52462">
        <ele>260.2</ele>
        <time>2024-04-07T10:57:20Z</time>
      </trkpt>
      <trkpt lat="49.04992" lon="-0.5246">
        <ele>260</ele>
        <time>2024-04-07T10:57:21Z</time>
      </trkpt>
      <trkpt lat="49.05006" lon="-0.52456">
        <ele>259.8</ele>
        <time>2024-04-07T10:57:22Z</time>
      </trkpt>
      <trkpt lat="49.05011" lon="-0.52454">
        <ele>259.6</ele>
        <time>2024-04-07T10:57:23Z</time>
      </trkpt>
      <trkpt lat="49.05026" lon="-0.52451">
        <ele>259.6</ele>
        <time>2024-04-07T10:57:24Z</time>
      </trkpt>
      <trkpt lat="49.05031" lon="-0.5245">
        <ele>259.2</ele>
        <time>2024-04-07T10:57:25Z</time>
      </trkpt>
      <trkpt lat="49.05042" lon="-0.52448">
        <ele>259</ele>
        <time>2024-04-07T10:57:26Z</time>
      </trkpt>
      <trkpt lat="49.05051" lon="-0.52446">
        <ele>258.8</ele>
        <time>2024-04-07T10:57:27Z</time>
      </trkpt>
      <trkpt lat="49.05061" lon="-0.52444">
        <ele>258.6</ele>
        <time>2024-04-07T10:57:28Z</time>
      </trkpt>
      <trkpt lat="49.05076" lon="-0.52441">
        <ele>258.4</ele>
        <time>2024-04-07T10:57:29Z</time>
      </trkpt>
      <trkpt lat="49.05081" lon="-0.5244">
        <ele>258.2</ele>
        <time>2024-04-07T10:57:30Z</time>
      </trkpt>
      <trkpt lat="49.0509" lon="-0.52438">
        <ele>257.8</ele>
        <time>2024-04-07T10:57:31Z</time>
      </trkpt>
      <trkpt lat="49.051" lon="-0.52436">
        <ele>257.4</ele>
        <time>2024-04-07T10:57:32Z</time>
      </trkpt>
      <trkpt lat="49.05119" lon="-0.52433">
        <ele>257</ele>
        <time>2024-04-07T10:57:33Z</time>
      </trkpt>
      <trkpt lat="49.05124" lon="-0.52432">
        <ele>256.8</ele>
        <time>2024-04-07T10:57:34Z</time>
      </trkpt>
      <trkpt lat="49.05129" lon="-0.52431">
        <ele>256.6</ele>
        <time>2024-04-07T10:57:35Z</time>
      </trkpt>
      <trkpt lat="49.05138" lon="-0.5243">
        <ele>256.4</ele>
        <time>2024-04-07T10:57:36Z</time>
      </trkpt>
      <trkpt lat="49.05147" lon="-0.52429">
        <ele>256.4</ele>
        <time>2024-04-07T10:57:37Z</time>
      </trkpt>
      <trkpt lat="49.05157" lon="-0.52427">
        <ele>256.4</ele>
        <time>2024-04-07T10:57:38Z</time>
      </trkpt>
      <trkpt lat="49.05166" lon="-0.52426">
        <ele>256.4</ele>
        <time>2024-04-07T10:57:39Z</time>
      </trkpt>
      <trkpt lat="49.05175" lon="-0.52424">
        <ele>256.4</ele>
        <time>2024-04-07T10:57:40Z</time>
      </trkpt>
      <trkpt lat="49.05184" lon="-0.52422">
        <ele>256.4</ele>
        <time>2024-04-07T10:57:41Z</time>
      </trkpt>
      <trkpt lat="49.05194" lon="-0.5242">
        <ele>256.2</ele>
        <time>2024-04-07T10:57:42Z</time>
      </trkpt>
      <trkpt lat="49.05203" lon="-0.52417">
        <ele>255.8</ele>
        <time>2024-04-07T10:57:43Z</time>
      </trkpt>
      <trkpt lat="49.05222" lon="-0.52411">
        <ele>255.4</ele>
        <time>2024-04-07T10:57:44Z</time>
      </trkpt>
      <trkpt lat="49.05229" lon="-0.52409">
        <ele>255.2</ele>
        <time>2024-04-07T10:57:45Z</time>
      </trkpt>
      <trkpt lat="49.05236" lon="-0.52407">
        <ele>255</ele>
        <time>2024-04-07T10:57:46Z</time>
      </trkpt>
      <trkpt lat="49.05251" lon="-0.52402">
        <ele>254.8</ele>
        <time>2024-04-07T10:57:47Z</time>
      </trkpt>
      <trkpt lat="49.05255" lon="-0.524">
        <ele>254.8</ele>
        <time>2024-04-07T10:57:48Z</time>
      </trkpt>
      <trkpt lat="49.0526" lon="-0.52399">
        <ele>254.6</ele>
        <time>2024-04-07T10:57:49Z</time>
      </trkpt>
      <trkpt lat="49.05269" lon="-0.52395">
        <ele>254.2</ele>
        <time>2024-04-07T10:57:50Z</time>
      </trkpt>
      <trkpt lat="49.05278" lon="-0.52392">
        <ele>254</ele>
        <time>2024-04-07T10:57:51Z</time>
      </trkpt>
      <trkpt lat="49.05287" lon="-0.52388">
        <ele>253.6</ele>
        <time>2024-04-07T10:57:52Z</time>
      </trkpt>
      <trkpt lat="49.05295" lon="-0.52384">
        <ele>253.4</ele>
        <time>2024-04-07T10:57:53Z</time>
      </trkpt>
      <trkpt lat="49.05303" lon="-0.5238">
        <ele>253.2</ele>
        <time>2024-04-07T10:57:54Z</time>
      </trkpt>
      <trkpt lat="49.05311" lon="-0.52377">
        <ele>253.2</ele>
        <time>2024-04-07T10:57:55Z</time>
      </trkpt>
      <trkpt lat="49.0532" lon="-0.52374">
        <ele>253</ele>
        <time>2024-04-07T10:57:56Z</time>
      </trkpt>
      <trkpt lat="49.05328" lon="-0.52369">
        <ele>253</ele>
        <time>2024-04-07T10:57:57Z</time>
      </trkpt>
      <trkpt lat="49.05335" lon="-0.52364">
        <ele>253</ele>
        <time>2024-04-07T10:57:58Z</time>
      </trkpt>
      <trkpt lat="49.05343" lon="-0.52358">
        <ele>252.8</ele>
        <time>2024-04-07T10:57:59Z</time>
      </trkpt>
      <trkpt lat="49.0535" lon="-0.52353">
        <ele>252.8</ele>
        <time>2024-04-07T10:58:00Z</time>
      </trkpt>
      <trkpt lat="49.05357" lon="-0.52346">
        <ele>253</ele>
        <time>2024-04-07T10:58:01Z</time>
      </trkpt>
      <trkpt lat="49.05364" lon="-0.5234">
        <ele>253</ele>
        <time>2024-04-07T10:58:02Z</time>
      </trkpt>
      <trkpt lat="49.05371" lon="-0.52334">
        <ele>253</ele>
        <time>2024-04-07T10:58:03Z</time>
      </trkpt>
      <trkpt lat="49.05378" lon="-0.52327">
        <ele>252.8</ele>
        <time>2024-04-07T10:58:04Z</time>
      </trkpt>
      <trkpt lat="49.05386" lon="-0.5232">
        <ele>252.8</ele>
        <time>2024-04-07T10:58:05Z</time>
      </trkpt>
      <trkpt lat="49.05393" lon="-0.52314">
        <ele>252.8</ele>
        <time>2024-04-07T10:58:06Z</time>
      </trkpt>
      <trkpt lat="49.05404" lon="-0.52305">
        <ele>252.8</ele>
        <time>2024-04-07T10:58:07Z</time>
      </trkpt>
      <trkpt lat="49.05408" lon="-0.52302">
        <ele>252.8</ele>
        <time>2024-04-07T10:58:08Z</time>
      </trkpt>
      <trkpt lat="49.05418" lon="-0.52293">
        <ele>252.8</ele>
        <time>2024-04-07T10:58:09Z</time>
      </trkpt>
      <trkpt lat="49.05422" lon="-0.5229">
        <ele>252.8</ele>
        <time>2024-04-07T10:58:10Z</time>
      </trkpt>
      <trkpt lat="49.05429" lon="-0.52285">
        <ele>252.6</ele>
        <time>2024-04-07T10:58:11Z</time>
      </trkpt>
      <trkpt lat="49.05443" lon="-0.52274">
        <ele>252.6</ele>
        <time>2024-04-07T10:58:12Z</time>
      </trkpt>
      <trkpt lat="49.05446" lon="-0.52271">
        <ele>252.4</ele>
        <time>2024-04-07T10:58:13Z</time>
      </trkpt>
      <trkpt lat="49.0545" lon="-0.52267">
        <ele>252.4</ele>
        <time>2024-04-07T10:58:14Z</time>
      </trkpt>
      <trkpt lat="49.05457" lon="-0.52262">
        <ele>252.2</ele>
        <time>2024-04-07T10:58:15Z</time>
      </trkpt>
      <trkpt lat="49.05464" lon="-0.52256">
        <ele>252</ele>
        <time>2024-04-07T10:58:16Z</time>
      </trkpt>
      <trkpt lat="49.05472" lon="-0.5225">
        <ele>251.8</ele>
        <time>2024-04-07T10:58:17Z</time>
      </trkpt>
      <trkpt lat="49.0548" lon="-0.52244">
        <ele>251.4</ele>
        <time>2024-04-07T10:58:18Z</time>
      </trkpt>
      <trkpt lat="49.05492" lon="-0.52236">
        <ele>251</ele>
        <time>2024-04-07T10:58:19Z</time>
      </trkpt>
      <trkpt lat="49.05495" lon="-0.52233">
        <ele>250.8</ele>
        <time>2024-04-07T10:58:20Z</time>
      </trkpt>
      <trkpt lat="49.05503" lon="-0.52227">
        <ele>250.6</ele>
        <time>2024-04-07T10:58:21Z</time>
      </trkpt>
      <trkpt lat="49.05511" lon="-0.52222">
        <ele>250.4</ele>
        <time>2024-04-07T10:58:22Z</time>
      </trkpt>
      <trkpt lat="49.05523" lon="-0.52214">
        <ele>250.4</ele>
        <time>2024-04-07T10:58:23Z</time>
      </trkpt>
      <trkpt lat="49.05527" lon="-0.52211">
        <ele>250.2</ele>
        <time>2024-04-07T10:58:24Z</time>
      </trkpt>
      <trkpt lat="49.05535" lon="-0.52206">
        <ele>250.2</ele>
        <time>2024-04-07T10:58:25Z</time>
      </trkpt>
      <trkpt lat="49.05543" lon="-0.52201">
        <ele>250</ele>
        <time>2024-04-07T10:58:26Z</time>
      </trkpt>
      <trkpt lat="49.05551" lon="-0.52196">
        <ele>249.8</ele>
        <time>2024-04-07T10:58:27Z</time>
      </trkpt>
      <trkpt lat="49.05559" lon="-0.52191">
        <ele>249.4</ele>
        <time>2024-04-07T10:58:28Z</time>
      </trkpt>
      <trkpt lat="49.05571" lon="-0.52185">
        <ele>249</ele>
        <time>2024-04-07T10:58:29Z</time>
      </trkpt>
      <trkpt lat="49.05574" lon="-0.52182">
        <ele>248.8</ele>
        <time>2024-04-07T10:58:30Z</time>
      </trkpt>
      <trkpt lat="49.05582" lon="-0.52177">
        <ele>248.6</ele>
        <time>2024-04-07T10:58:31Z</time>
      </trkpt>
      <trkpt lat="49.0559" lon="-0.52172">
        <ele>248.6</ele>
        <time>2024-04-07T10:58:32Z</time>
      </trkpt>
      <trkpt lat="49.05598" lon="-0.52165">
        <ele>248.4</ele>
        <time>2024-04-07T10:58:33Z</time>
      </trkpt>
      <trkpt lat="49.05605" lon="-0.52159">
        <ele>248.2</ele>
        <time>2024-04-07T10:58:34Z</time>
      </trkpt>
      <trkpt lat="49.05612" lon="-0.52152">
        <ele>248</ele>
        <time>2024-04-07T10:58:35Z</time>
      </trkpt>
      <trkpt lat="49.05627" lon="-0.52136">
        <ele>247.4</ele>
        <time>2024-04-07T10:58:36Z</time>
      </trkpt>
      <trkpt lat="49.05631" lon="-0.52131">
        <ele>246.8</ele>
        <time>2024-04-07T10:58:37Z</time>
      </trkpt>
      <trkpt lat="49.05635" lon="-0.52127">
        <ele>246.4</ele>
        <time>2024-04-07T10:58:38Z</time>
      </trkpt>
      <trkpt lat="49.05647" lon="-0.52114">
        <ele>246</ele>
        <time>2024-04-07T10:58:39Z</time>
      </trkpt>
      <trkpt lat="49.05652" lon="-0.5211">
        <ele>245.8</ele>
        <time>2024-04-07T10:58:40Z</time>
      </trkpt>
      <trkpt lat="49.05661" lon="-0.52103">
        <ele>245.6</ele>
        <time>2024-04-07T10:58:41Z</time>
      </trkpt>
      <trkpt lat="49.05675" lon="-0.52092">
        <ele>245.2</ele>
        <time>2024-04-07T10:58:42Z</time>
      </trkpt>
      <trkpt lat="49.0568" lon="-0.52088">
        <ele>245</ele>
        <time>2024-04-07T10:58:43Z</time>
      </trkpt>
      <trkpt lat="49.0569" lon="-0.52082">
        <ele>244.6</ele>
        <time>2024-04-07T10:58:44Z</time>
      </trkpt>
      <trkpt lat="49.057" lon="-0.52074">
        <ele>244.2</ele>
        <time>2024-04-07T10:58:45Z</time>
      </trkpt>
      <trkpt lat="49.05716" lon="-0.52064">
        <ele>243.8</ele>
        <time>2024-04-07T10:58:46Z</time>
      </trkpt>
      <trkpt lat="49.05721" lon="-0.52061">
        <ele>243.4</ele>
        <time>2024-04-07T10:58:47Z</time>
      </trkpt>
      <trkpt lat="49.05731" lon="-0.52054">
        <ele>243</ele>
        <time>2024-04-07T10:58:48Z</time>
      </trkpt>
      <trkpt lat="49.05742" lon="-0.52047">
        <ele>242.4</ele>
        <time>2024-04-07T10:58:49Z</time>
      </trkpt>
      <trkpt lat="49.05752" lon="-0.5204">
        <ele>242.2</ele>
        <time>2024-04-07T10:58:50Z</time>
      </trkpt>
      <trkpt lat="49.05763" lon="-0.52034">
        <ele>241.8</ele>
        <time>2024-04-07T10:58:51Z</time>
      </trkpt>
      <trkpt lat="49.05773" lon="-0.52027">
        <ele>241.2</ele>
        <time>2024-04-07T10:58:52Z</time>
      </trkpt>
      <trkpt lat="49.05783" lon="-0.52021">
        <ele>240.6</ele>
        <time>2024-04-07T10:58:53Z</time>
      </trkpt>
      <trkpt lat="49.05793" lon="-0.52014">
        <ele>240.2</ele>
        <time>2024-04-07T10:58:54Z</time>
      </trkpt>
      <trkpt lat="49.05802" lon="-0.52007">
        <ele>240</ele>
        <time>2024-04-07T10:58:55Z</time>
      </trkpt>
      <trkpt lat="49.05812" lon="-0.52001">
        <ele>239.8</ele>
        <time>2024-04-07T10:58:56Z</time>
      </trkpt>
      <trkpt lat="49.05822" lon="-0.51994">
        <ele>239.6</ele>
        <time>2024-04-07T10:58:57Z</time>
      </trkpt>
      <trkpt lat="49.05831" lon="-0.51988">
        <ele>239.6</ele>
        <time>2024-04-07T10:58:58Z</time>
      </trkpt>
      <trkpt lat="49.05841" lon="-0.51981">
        <ele>239.4</ele>
        <time>2024-04-07T10:58:59Z</time>
      </trkpt>
      <trkpt lat="49.05855" lon="-0.51971">
        <ele>239.4</ele>
        <time>2024-04-07T10:59:00Z</time>
      </trkpt>
      <trkpt lat="49.0586" lon="-0.51968">
        <ele>239.4</ele>
        <time>2024-04-07T10:59:01Z</time>
      </trkpt>
      <trkpt lat="49.05874" lon="-0.51958">
        <ele>239.6</ele>
        <time>2024-04-07T10:59:02Z</time>
      </trkpt>
      <trkpt lat="49.05879" lon="-0.51954">
        <ele>239.4</ele>
        <time>2024-04-07T10:59:03Z</time>
      </trkpt>
      <trkpt lat="49.05888" lon="-0.51947">
        <ele>239.4</ele>
        <time>2024-04-07T10:59:04Z</time>
      </trkpt>
      <trkpt lat="49.05897" lon="-0.5194">
        <ele>239.4</ele>
        <time>2024-04-07T10:59:05Z</time>
      </trkpt>
      <trkpt lat="49.05907" lon="-0.51932">
        <ele>239.4</ele>
        <time>2024-04-07T10:59:06Z</time>
      </trkpt>
      <trkpt lat="49.0592" lon="-0.51919">
        <ele>239.2</ele>
        <time>2024-04-07T10:59:07Z</time>
      </trkpt>
      <trkpt lat="49.05925" lon="-0.51914">
        <ele>239.2</ele>
        <time>2024-04-07T10:59:08Z</time>
      </trkpt>
      <trkpt lat="49.05934" lon="-0.51905">
        <ele>239</ele>
        <time>2024-04-07T10:59:09Z</time>
      </trkpt>
      <trkpt lat="49.05948" lon="-0.51891">
        <ele>239</ele>
        <time>2024-04-07T10:59:10Z</time>
      </trkpt>
      <trkpt lat="49.05953" lon="-0.51886">
        <ele>238.8</ele>
        <time>2024-04-07T10:59:11Z</time>
      </trkpt>
      <trkpt lat="49.05962" lon="-0.51877">
        <ele>238.6</ele>
        <time>2024-04-07T10:59:12Z</time>
      </trkpt>
      <trkpt lat="49.05971" lon="-0.51867">
        <ele>238.4</ele>
        <time>2024-04-07T10:59:13Z</time>
      </trkpt>
      <trkpt lat="49.05979" lon="-0.51857">
        <ele>238</ele>
        <time>2024-04-07T10:59:14Z</time>
      </trkpt>
      <trkpt lat="49.05987" lon="-0.51847">
        <ele>237.8</ele>
        <time>2024-04-07T10:59:15Z</time>
      </trkpt>
      <trkpt lat="49.05999" lon="-0.51832">
        <ele>237.6</ele>
        <time>2024-04-07T10:59:16Z</time>
      </trkpt>
      <trkpt lat="49.06003" lon="-0.51827">
        <ele>237.4</ele>
        <time>2024-04-07T10:59:17Z</time>
      </trkpt>
      <trkpt lat="49.06011" lon="-0.51816">
        <ele>237.2</ele>
        <time>2024-04-07T10:59:18Z</time>
      </trkpt>
      <trkpt lat="49.06022" lon="-0.51801">
        <ele>237</ele>
        <time>2024-04-07T10:59:19Z</time>
      </trkpt>
      <trkpt lat="49.06026" lon="-0.51796">
        <ele>236.8</ele>
        <time>2024-04-07T10:59:20Z</time>
      </trkpt>
      <trkpt lat="49.06034" lon="-0.51786">
        <ele>236.6</ele>
        <time>2024-04-07T10:59:21Z</time>
      </trkpt>
      <trkpt lat="49.06045" lon="-0.51771">
        <ele>236.6</ele>
        <time>2024-04-07T10:59:22Z</time>
      </trkpt>
      <trkpt lat="49.06048" lon="-0.51766">
        <ele>236.4</ele>
        <time>2024-04-07T10:59:23Z</time>
      </trkpt>
      <trkpt lat="49.06055" lon="-0.51756">
        <ele>236.4</ele>
        <time>2024-04-07T10:59:24Z</time>
      </trkpt>
      <trkpt lat="49.06069" lon="-0.51736">
        <ele>236.2</ele>
        <time>2024-04-07T10:59:25Z</time>
      </trkpt>
      <trkpt lat="49.06073" lon="-0.51731">
        <ele>236.2</ele>
        <time>2024-04-07T10:59:26Z</time>
      </trkpt>
      <trkpt lat="49.06076" lon="-0.51725">
        <ele>236</ele>
        <time>2024-04-07T10:59:27Z</time>
      </trkpt>
      <trkpt lat="49.06089" lon="-0.51705">
        <ele>235.8</ele>
        <time>2024-04-07T10:59:28Z</time>
      </trkpt>
      <trkpt lat="49.06093" lon="-0.51699">
        <ele>235.8</ele>
        <time>2024-04-07T10:59:29Z</time>
      </trkpt>
      <trkpt lat="49.06097" lon="-0.51694">
        <ele>235.6</ele>
        <time>2024-04-07T10:59:30Z</time>
      </trkpt>
      <trkpt lat="49.06104" lon="-0.51684">
        <ele>235.4</ele>
        <time>2024-04-07T10:59:31Z</time>
      </trkpt>
      <trkpt lat="49.06111" lon="-0.51673">
        <ele>235.2</ele>
        <time>2024-04-07T10:59:32Z</time>
      </trkpt>
      <trkpt lat="49.06119" lon="-0.51663">
        <ele>234.8</ele>
        <time>2024-04-07T10:59:33Z</time>
      </trkpt>
      <trkpt lat="49.06127" lon="-0.51653">
        <ele>234.4</ele>
        <time>2024-04-07T10:59:34Z</time>
      </trkpt>
      <trkpt lat="49.06136" lon="-0.51644">
        <ele>234</ele>
        <time>2024-04-07T10:59:35Z</time>
      </trkpt>
      <trkpt lat="49.06144" lon="-0.51636">
        <ele>233.8</ele>
        <time>2024-04-07T10:59:36Z</time>
      </trkpt>
      <trkpt lat="49.06153" lon="-0.51628">
        <ele>233.6</ele>
        <time>2024-04-07T10:59:37Z</time>
      </trkpt>
      <trkpt lat="49.06166" lon="-0.51616">
        <ele>233.6</ele>
        <time>2024-04-07T10:59:38Z</time>
      </trkpt>
      <trkpt lat="49.06171" lon="-0.51612">
        <ele>233.6</ele>
        <time>2024-04-07T10:59:39Z</time>
      </trkpt>
      <trkpt lat="49.06179" lon="-0.51605">
        <ele>233.4</ele>
        <time>2024-04-07T10:59:40Z</time>
      </trkpt>
      <trkpt lat="49.06188" lon="-0.51598">
        <ele>233.4</ele>
        <time>2024-04-07T10:59:41Z</time>
      </trkpt>
      <trkpt lat="49.06197" lon="-0.51591">
        <ele>233.2</ele>
        <time>2024-04-07T10:59:42Z</time>
      </trkpt>
      <trkpt lat="49.06206" lon="-0.51584">
        <ele>233</ele>
        <time>2024-04-07T10:59:43Z</time>
      </trkpt>
      <trkpt lat="49.06215" lon="-0.51577">
        <ele>232.6</ele>
        <time>2024-04-07T10:59:44Z</time>
      </trkpt>
      <trkpt lat="49.06227" lon="-0.51567">
        <ele>232.4</ele>
        <time>2024-04-07T10:59:45Z</time>
      </trkpt>
      <trkpt lat="49.06232" lon="-0.51563">
        <ele>232.2</ele>
        <time>2024-04-07T10:59:46Z</time>
      </trkpt>
      <trkpt lat="49.0624" lon="-0.51556">
        <ele>232.2</ele>
        <time>2024-04-07T10:59:47Z</time>
      </trkpt>
      <trkpt lat="49.06248" lon="-0.51548">
        <ele>232</ele>
        <time>2024-04-07T10:59:48Z</time>
      </trkpt>
      <trkpt lat="49.06256" lon="-0.5154">
        <ele>231.8</ele>
        <time>2024-04-07T10:59:49Z</time>
      </trkpt>
      <trkpt lat="49.06268" lon="-0.51526">
        <ele>231.6</ele>
        <time>2024-04-07T10:59:50Z</time>
      </trkpt>
      <trkpt lat="49.06271" lon="-0.51522">
        <ele>231.4</ele>
        <time>2024-04-07T10:59:51Z</time>
      </trkpt>
      <trkpt lat="49.06279" lon="-0.51512">
        <ele>231</ele>
        <time>2024-04-07T10:59:52Z</time>
      </trkpt>
      <trkpt lat="49.06286" lon="-0.51501">
        <ele>230.8</ele>
        <time>2024-04-07T10:59:53Z</time>
      </trkpt>
      <trkpt lat="49.06292" lon="-0.51491">
        <ele>230.8</ele>
        <time>2024-04-07T10:59:54Z</time>
      </trkpt>
      <trkpt lat="49.06299" lon="-0.5148">
        <ele>230.8</ele>
        <time>2024-04-07T10:59:55Z</time>
      </trkpt>
      <trkpt lat="49.06306" lon="-0.51469">
        <ele>230.6</ele>
        <time>2024-04-07T10:59:56Z</time>
      </trkpt>
      <trkpt lat="49.06312" lon="-0.51458">
        <ele>230.4</ele>
        <time>2024-04-07T10:59:57Z</time>
      </trkpt>
      <trkpt lat="49.06322" lon="-0.51442">
        <ele>230.4</ele>
        <time>2024-04-07T10:59:58Z</time>
      </trkpt>
      <trkpt lat="49.06326" lon="-0.51436">
        <ele>230.4</ele>
        <time>2024-04-07T10:59:59Z</time>
      </trkpt>
      <trkpt lat="49.06339" lon="-0.51414">
        <ele>230.2</ele>
        <time>2024-04-07T11:00:00Z</time>
      </trkpt>
      <trkpt lat="49.06342" lon="-0.51409">
        <ele>230</ele>
        <time>2024-04-07T11:00:01Z</time>
      </trkpt>
      <trkpt lat="49.06345" lon="-0.51403">
        <ele>229.8</ele>
        <time>2024-04-07T11:00:02Z</time>
      </trkpt>
      <trkpt lat="49.06352" lon="-0.51393">
        <ele>229.4</ele>
        <time>2024-04-07T11:00:03Z</time>
      </trkpt>
      <trkpt lat="49.06359" lon="-0.51382">
        <ele>229</ele>
        <time>2024-04-07T11:00:04Z</time>
      </trkpt>
      <trkpt lat="49.06366" lon="-0.51371">
        <ele>228.6</ele>
        <time>2024-04-07T11:00:05Z</time>
      </trkpt>
      <trkpt lat="49.06372" lon="-0.51361">
        <ele>228.6</ele>
        <time>2024-04-07T11:00:06Z</time>
      </trkpt>
      <trkpt lat="49.06379" lon="-0.51351">
        <ele>228.4</ele>
        <time>2024-04-07T11:00:07Z</time>
      </trkpt>
      <trkpt lat="49.06386" lon="-0.5134">
        <ele>228.4</ele>
        <time>2024-04-07T11:00:08Z</time>
      </trkpt>
      <trkpt lat="49.06392" lon="-0.5133">
        <ele>228.4</ele>
        <time>2024-04-07T11:00:09Z</time>
      </trkpt>
      <trkpt lat="49.06399" lon="-0.51319">
        <ele>228.6</ele>
        <time>2024-04-07T11:00:10Z</time>
      </trkpt>
      <trkpt lat="49.06406" lon="-0.51308">
        <ele>228.4</ele>
        <time>2024-04-07T11:00:11Z</time>
      </trkpt>
      <trkpt lat="49.06412" lon="-0.51298">
        <ele>228.4</ele>
        <time>2024-04-07T11:00:12Z</time>
      </trkpt>
      <trkpt lat="49.06419" lon="-0.51287">
        <ele>228.2</ele>
        <time>2024-04-07T11:00:13Z</time>
      </trkpt>
      <trkpt lat="49.06426" lon="-0.51276">
        <ele>228.2</ele>
        <time>2024-04-07T11:00:14Z</time>
      </trkpt>
      <trkpt lat="49.06432" lon="-0.51266">
        <ele>228</ele>
        <time>2024-04-07T11:00:15Z</time>
      </trkpt>
      <trkpt lat="49.06439" lon="-0.51255">
        <ele>227.8</ele>
        <time>2024-04-07T11:00:16Z</time>
      </trkpt>
      <trkpt lat="49.06445" lon="-0.51245">
        <ele>227.6</ele>
        <time>2024-04-07T11:00:17Z</time>
      </trkpt>
      <trkpt lat="49.06452" lon="-0.51234">
        <ele>227.6</ele>
        <time>2024-04-07T11:00:18Z</time>
      </trkpt>
      <trkpt lat="49.06459" lon="-0.51224">
        <ele>227.6</ele>
        <time>2024-04-07T11:00:19Z</time>
      </trkpt>
      <trkpt lat="49.06466" lon="-0.51213">
        <ele>227.6</ele>
        <time>2024-04-07T11:00:20Z</time>
      </trkpt>
      <trkpt lat="49.0648" lon="-0.51193">
        <ele>227.2</ele>
        <time>2024-04-07T11:00:21Z</time>
      </trkpt>
      <trkpt lat="49.06484" lon="-0.51188">
        <ele>226.8</ele>
        <time>2024-04-07T11:00:22Z</time>
      </trkpt>
      <trkpt lat="49.06488" lon="-0.51183">
        <ele>226.6</ele>
        <time>2024-04-07T11:00:23Z</time>
      </trkpt>
      <trkpt lat="49.06495" lon="-0.51174">
        <ele>226.4</ele>
        <time>2024-04-07T11:00:24Z</time>
      </trkpt>
      <trkpt lat="49.06503" lon="-0.51164">
        <ele>226.2</ele>
        <time>2024-04-07T11:00:25Z</time>
      </trkpt>
      <trkpt lat="49.0651" lon="-0.51155">
        <ele>226</ele>
        <time>2024-04-07T11:00:26Z</time>
      </trkpt>
      <trkpt lat="49.06518" lon="-0.51146">
        <ele>226</ele>
        <time>2024-04-07T11:00:27Z</time>
      </trkpt>
      <trkpt lat="49.06526" lon="-0.51137">
        <ele>226</ele>
        <time>2024-04-07T11:00:28Z</time>
      </trkpt>
      <trkpt lat="49.06534" lon="-0.51128">
        <ele>226</ele>
        <time>2024-04-07T11:00:29Z</time>
      </trkpt>
      <trkpt lat="49.06546" lon="-0.51114">
        <ele>226.2</ele>
        <time>2024-04-07T11:00:30Z</time>
      </trkpt>
      <trkpt lat="49.0655" lon="-0.51109">
        <ele>226</ele>
        <time>2024-04-07T11:00:31Z</time>
      </trkpt>
      <trkpt lat="49.06558" lon="-0.51099">
        <ele>226</ele>
        <time>2024-04-07T11:00:32Z</time>
      </trkpt>
      <trkpt lat="49.06565" lon="-0.51089">
        <ele>225.6</ele>
        <time>2024-04-07T11:00:33Z</time>
      </trkpt>
      <trkpt lat="49.06572" lon="-0.51078">
        <ele>225</ele>
        <time>2024-04-07T11:00:34Z</time>
      </trkpt>
      <trkpt lat="49.06583" lon="-0.51063">
        <ele>224.2</ele>
        <time>2024-04-07T11:00:35Z</time>
      </trkpt>
      <trkpt lat="49.06587" lon="-0.51058">
        <ele>223.6</ele>
        <time>2024-04-07T11:00:36Z</time>
      </trkpt>
      <trkpt lat="49.06593" lon="-0.51047">
        <ele>223</ele>
        <time>2024-04-07T11:00:37Z</time>
      </trkpt>
      <trkpt lat="49.066" lon="-0.51037">
        <ele>222.6</ele>
        <time>2024-04-07T11:00:38Z</time>
      </trkpt>
      <trkpt lat="49.06607" lon="-0.51026">
        <ele>221.8</ele>
        <time>2024-04-07T11:00:39Z</time>
      </trkpt>
      <trkpt lat="49.06613" lon="-0.51015">
        <ele>221.4</ele>
        <time>2024-04-07T11:00:40Z</time>
      </trkpt>
      <trkpt lat="49.06627" lon="-0.50994">
        <ele>221.2</ele>
        <time>2024-04-07T11:00:41Z</time>
      </trkpt>
      <trkpt lat="49.0663" lon="-0.50989">
        <ele>221</ele>
        <time>2024-04-07T11:00:42Z</time>
      </trkpt>
      <trkpt lat="49.06633" lon="-0.50984">
        <ele>221</ele>
        <time>2024-04-07T11:00:43Z</time>
      </trkpt>
      <trkpt lat="49.0664" lon="-0.50973">
        <ele>221</ele>
        <time>2024-04-07T11:00:44Z</time>
      </trkpt>
      <trkpt lat="49.06647" lon="-0.50962">
        <ele>221</ele>
        <time>2024-04-07T11:00:45Z</time>
      </trkpt>
      <trkpt lat="49.06653" lon="-0.50952">
        <ele>221.2</ele>
        <time>2024-04-07T11:00:46Z</time>
      </trkpt>
      <trkpt lat="49.0666" lon="-0.50941">
        <ele>221.2</ele>
        <time>2024-04-07T11:00:47Z</time>
      </trkpt>
      <trkpt lat="49.06666" lon="-0.50929">
        <ele>221</ele>
        <time>2024-04-07T11:00:48Z</time>
      </trkpt>
      <trkpt lat="49.06673" lon="-0.50918">
        <ele>220.8</ele>
        <time>2024-04-07T11:00:49Z</time>
      </trkpt>
      <trkpt lat="49.06682" lon="-0.509">
        <ele>220.6</ele>
        <time>2024-04-07T11:00:50Z</time>
      </trkpt>
      <trkpt lat="49.06685" lon="-0.50894">
        <ele>220.4</ele>
        <time>2024-04-07T11:00:51Z</time>
      </trkpt>
      <trkpt lat="49.06691" lon="-0.50881">
        <ele>220.2</ele>
        <time>2024-04-07T11:00:52Z</time>
      </trkpt>
      <trkpt lat="49.067" lon="-0.50863">
        <ele>220</ele>
        <time>2024-04-07T11:00:53Z</time>
      </trkpt>
      <trkpt lat="49.06703" lon="-0.50856">
        <ele>219.4</ele>
        <time>2024-04-07T11:00:54Z</time>
      </trkpt>
      <trkpt lat="49.06708" lon="-0.50844">
        <ele>219.2</ele>
        <time>2024-04-07T11:00:55Z</time>
      </trkpt>
      <trkpt lat="49.06714" lon="-0.50831">
        <ele>219</ele>
        <time>2024-04-07T11:00:56Z</time>
      </trkpt>
      <trkpt lat="49.06719" lon="-0.50818">
        <ele>219</ele>
        <time>2024-04-07T11:00:57Z</time>
      </trkpt>
      <trkpt lat="49.06725" lon="-0.50805">
        <ele>219</ele>
        <time>2024-04-07T11:00:58Z</time>
      </trkpt>
      <trkpt lat="49.06731" lon="-0.50793">
        <ele>219</ele>
        <time>2024-04-07T11:00:59Z</time>
      </trkpt>
      <trkpt lat="49.06737" lon="-0.50781">
        <ele>219</ele>
        <time>2024-04-07T11:01:00Z</time>
      </trkpt>
      <trkpt lat="49.06743" lon="-0.50768">
        <ele>219</ele>
        <time>2024-04-07T11:01:01Z</time>
      </trkpt>
      <trkpt lat="49.06749" lon="-0.50757">
        <ele>219</ele>
        <time>2024-04-07T11:01:02Z</time>
      </trkpt>
      <trkpt lat="49.06755" lon="-0.50745">
        <ele>218.8</ele>
        <time>2024-04-07T11:01:03Z</time>
      </trkpt>
      <trkpt lat="49.06761" lon="-0.50733">
        <ele>218.6</ele>
        <time>2024-04-07T11:01:04Z</time>
      </trkpt>
      <trkpt lat="49.06767" lon="-0.50721">
        <ele>218.2</ele>
        <time>2024-04-07T11:01:05Z</time>
      </trkpt>
      <trkpt lat="49.06773" lon="-0.50709">
        <ele>218</ele>
        <time>2024-04-07T11:01:06Z</time>
      </trkpt>
      <trkpt lat="49.06779" lon="-0.50697">
        <ele>217.6</ele>
        <time>2024-04-07T11:01:07Z</time>
      </trkpt>
      <trkpt lat="49.06785" lon="-0.50685">
        <ele>217.2</ele>
        <time>2024-04-07T11:01:08Z</time>
      </trkpt>
      <trkpt lat="49.06792" lon="-0.50673">
        <ele>217</ele>
        <time>2024-04-07T11:01:09Z</time>
      </trkpt>
      <trkpt lat="49.06798" lon="-0.50661">
        <ele>216.8</ele>
        <time>2024-04-07T11:01:10Z</time>
      </trkpt>
      <trkpt lat="49.06807" lon="-0.50643">
        <ele>216.8</ele>
        <time>2024-04-07T11:01:11Z</time>
      </trkpt>
      <trkpt lat="49.0681" lon="-0.50637">
        <ele>216.8</ele>
        <time>2024-04-07T11:01:12Z</time>
      </trkpt>
      <trkpt lat="49.06816" lon="-0.50625">
        <ele>216.6</ele>
        <time>2024-04-07T11:01:13Z</time>
      </trkpt>
      <trkpt lat="49.06823" lon="-0.50614">
        <ele>216.6</ele>
        <time>2024-04-07T11:01:14Z</time>
      </trkpt>
      <trkpt lat="49.06829" lon="-0.50602">
        <ele>216.6</ele>
        <time>2024-04-07T11:01:15Z</time>
      </trkpt>
      <trkpt lat="49.06835" lon="-0.50591">
        <ele>216.6</ele>
        <time>2024-04-07T11:01:16Z</time>
      </trkpt>
      <trkpt lat="49.06842" lon="-0.50579">
        <ele>216.4</ele>
        <time>2024-04-07T11:01:17Z</time>
      </trkpt>
      <trkpt lat="49.06848" lon="-0.50567">
        <ele>216.4</ele>
        <time>2024-04-07T11:01:18Z</time>
      </trkpt>
      <trkpt lat="49.06855" lon="-0.50554">
        <ele>216.2</ele>
        <time>2024-04-07T11:01:19Z</time>
      </trkpt>
      <trkpt lat="49.06865" lon="-0.50536">
        <ele>216.2</ele>
        <time>2024-04-07T11:01:20Z</time>
      </trkpt>
      <trkpt lat="49.06868" lon="-0.5053">
        <ele>215.6</ele>
        <time>2024-04-07T11:01:21Z</time>
      </trkpt>
      <trkpt lat="49.06874" lon="-0.50517">
        <ele>215</ele>
        <time>2024-04-07T11:01:22Z</time>
      </trkpt>
      <trkpt lat="49.06881" lon="-0.50505">
        <ele>214.4</ele>
        <time>2024-04-07T11:01:23Z</time>
      </trkpt>
      <trkpt lat="49.06887" lon="-0.50493">
        <ele>214.2</ele>
        <time>2024-04-07T11:01:24Z</time>
      </trkpt>
      <trkpt lat="49.06893" lon="-0.50481">
        <ele>213.8</ele>
        <time>2024-04-07T11:01:25Z</time>
      </trkpt>
      <trkpt lat="49.06899" lon="-0.50468">
        <ele>213.6</ele>
        <time>2024-04-07T11:01:26Z</time>
      </trkpt>
      <trkpt lat="49.06905" lon="-0.50456">
        <ele>213.4</ele>
        <time>2024-04-07T11:01:27Z</time>
      </trkpt>
      <trkpt lat="49.06911" lon="-0.50443">
        <ele>213</ele>
        <time>2024-04-07T11:01:28Z</time>
      </trkpt>
      <trkpt lat="49.06917" lon="-0.50431">
        <ele>212.4</ele>
        <time>2024-04-07T11:01:29Z</time>
      </trkpt>
      <trkpt lat="49.06923" lon="-0.50418">
        <ele>211.8</ele>
        <time>2024-04-07T11:01:30Z</time>
      </trkpt>
      <trkpt lat="49.06929" lon="-0.50406">
        <ele>211.4</ele>
        <time>2024-04-07T11:01:31Z</time>
      </trkpt>
      <trkpt lat="49.06935" lon="-0.50395">
        <ele>211</ele>
        <time>2024-04-07T11:01:32Z</time>
      </trkpt>
      <trkpt lat="49.06941" lon="-0.50383">
        <ele>211</ele>
        <time>2024-04-07T11:01:33Z</time>
      </trkpt>
      <trkpt lat="49.06947" lon="-0.50372">
        <ele>211</ele>
        <time>2024-04-07T11:01:34Z</time>
      </trkpt>
      <trkpt lat="49.06953" lon="-0.50361">
        <ele>211</ele>
        <time>2024-04-07T11:01:35Z</time>
      </trkpt>
      <trkpt lat="49.06959" lon="-0.5035">
        <ele>211</ele>
        <time>2024-04-07T11:01:36Z</time>
      </trkpt>
      <trkpt lat="49.06965" lon="-0.50339">
        <ele>211.2</ele>
        <time>2024-04-07T11:01:37Z</time>
      </trkpt>
      <trkpt lat="49.06971" lon="-0.50328">
        <ele>211.2</ele>
        <time>2024-04-07T11:01:38Z</time>
      </trkpt>
      <trkpt lat="49.06977" lon="-0.50317">
        <ele>211.2</ele>
        <time>2024-04-07T11:01:39Z</time>
      </trkpt>
      <trkpt lat="49.06983" lon="-0.50306">
        <ele>211.2</ele>
        <time>2024-04-07T11:01:40Z</time>
      </trkpt>
      <trkpt lat="49.06989" lon="-0.50295">
        <ele>211.2</ele>
        <time>2024-04-07T11:01:41Z</time>
      </trkpt>
      <trkpt lat="49.06995" lon="-0.50283">
        <ele>211.2</ele>
        <time>2024-04-07T11:01:42Z</time>
      </trkpt>
      <trkpt lat="49.07001" lon="-0.50272">
        <ele>211.2</ele>
        <time>2024-04-07T11:01:43Z</time>
      </trkpt>
      <trkpt lat="49.07008" lon="-0.5026">
        <ele>211</ele>
        <time>2024-04-07T11:01:44Z</time>
      </trkpt>
      <trkpt lat="49.07014" lon="-0.50248">
        <ele>210.8</ele>
        <time>2024-04-07T11:01:45Z</time>
      </trkpt>
      <trkpt lat="49.0702" lon="-0.50237">
        <ele>210.6</ele>
        <time>2024-04-07T11:01:46Z</time>
      </trkpt>
      <trkpt lat="49.07026" lon="-0.50225">
        <ele>210.4</ele>
        <time>2024-04-07T11:01:47Z</time>
      </trkpt>
      <trkpt lat="49.07032" lon="-0.50213">
        <ele>210.2</ele>
        <time>2024-04-07T11:01:48Z</time>
      </trkpt>
      <trkpt lat="49.07041" lon="-0.50196">
        <ele>210.2</ele>
        <time>2024-04-07T11:01:49Z</time>
      </trkpt>
      <trkpt lat="49.07044" lon="-0.5019">
        <ele>210</ele>
        <time>2024-04-07T11:01:50Z</time>
      </trkpt>
      <trkpt lat="49.0705" lon="-0.50179">
        <ele>210</ele>
        <time>2024-04-07T11:01:51Z</time>
      </trkpt>
      <trkpt lat="49.07056" lon="-0.50168">
        <ele>210</ele>
        <time>2024-04-07T11:01:52Z</time>
      </trkpt>
      <trkpt lat="49.07062" lon="-0.50156">
        <ele>210</ele>
        <time>2024-04-07T11:01:53Z</time>
      </trkpt>
      <trkpt lat="49.07067" lon="-0.50145">
        <ele>210</ele>
        <time>2024-04-07T11:01:54Z</time>
      </trkpt>
      <trkpt lat="49.07073" lon="-0.50133">
        <ele>209.8</ele>
        <time>2024-04-07T11:01:55Z</time>
      </trkpt>
      <trkpt lat="49.07079" lon="-0.50122">
        <ele>209.8</ele>
        <time>2024-04-07T11:01:56Z</time>
      </trkpt>
      <trkpt lat="49.07085" lon="-0.50111">
        <ele>209.8</ele>
        <time>2024-04-07T11:01:57Z</time>
      </trkpt>
      <trkpt lat="49.07094" lon="-0.50094">
        <ele>209.8</ele>
        <time>2024-04-07T11:01:58Z</time>
      </trkpt>
      <trkpt lat="49.07097" lon="-0.50088">
        <ele>209.8</ele>
        <time>2024-04-07T11:01:59Z</time>
      </trkpt>
      <trkpt lat="49.07103" lon="-0.50077">
        <ele>209.8</ele>
        <time>2024-04-07T11:02:00Z</time>
      </trkpt>
      <trkpt lat="49.07109" lon="-0.50066">
        <ele>209.6</ele>
        <time>2024-04-07T11:02:01Z</time>
      </trkpt>
      <trkpt lat="49.07115" lon="-0.50055">
        <ele>209.6</ele>
        <time>2024-04-07T11:02:02Z</time>
      </trkpt>
      <trkpt lat="49.07121" lon="-0.50044">
        <ele>209.6</ele>
        <time>2024-04-07T11:02:03Z</time>
      </trkpt>
      <trkpt lat="49.07127" lon="-0.50033">
        <ele>209.6</ele>
        <time>2024-04-07T11:02:04Z</time>
      </trkpt>
      <trkpt lat="49.07133" lon="-0.50023">
        <ele>209.6</ele>
        <time>2024-04-07T11:02:05Z</time>
      </trkpt>
      <trkpt lat="49.07139" lon="-0.50013">
        <ele>209.6</ele>
        <time>2024-04-07T11:02:06Z</time>
      </trkpt>
      <trkpt lat="49.07145" lon="-0.50002">
        <ele>209.6</ele>
        <time>2024-04-07T11:02:07Z</time>
      </trkpt>
      <trkpt lat="49.07151" lon="-0.49992">
        <ele>209.6</ele>
        <time>2024-04-07T11:02:08Z</time>
      </trkpt>
      <trkpt lat="49.07157" lon="-0.49982">
        <ele>209.4</ele>
        <time>2024-04-07T11:02:09Z</time>
      </trkpt>
      <trkpt lat="49.07163" lon="-0.49972">
        <ele>209.4</ele>
        <time>2024-04-07T11:02:10Z</time>
      </trkpt>
      <trkpt lat="49.0717" lon="-0.49963">
        <ele>209.2</ele>
        <time>2024-04-07T11:02:11Z</time>
      </trkpt>
      <trkpt lat="49.07176" lon="-0.49953">
        <ele>209.2</ele>
        <time>2024-04-07T11:02:12Z</time>
      </trkpt>
      <trkpt lat="49.07182" lon="-0.49944">
        <ele>209</ele>
        <time>2024-04-07T11:02:13Z</time>
      </trkpt>
      <trkpt lat="49.07188" lon="-0.49934">
        <ele>209.2</ele>
        <time>2024-04-07T11:02:14Z</time>
      </trkpt>
      <trkpt lat="49.07195" lon="-0.49925">
        <ele>209</ele>
        <time>2024-04-07T11:02:15Z</time>
      </trkpt>
      <trkpt lat="49.07201" lon="-0.49915">
        <ele>209.2</ele>
        <time>2024-04-07T11:02:16Z</time>
      </trkpt>
      <trkpt lat="49.07207" lon="-0.49906">
        <ele>209.2</ele>
        <time>2024-04-07T11:02:17Z</time>
      </trkpt>
      <trkpt lat="49.07213" lon="-0.49897">
        <ele>209.2</ele>
        <time>2024-04-07T11:02:18Z</time>
      </trkpt>
      <trkpt lat="49.0722" lon="-0.49887">
        <ele>209.2</ele>
        <time>2024-04-07T11:02:19Z</time>
      </trkpt>
      <trkpt lat="49.07226" lon="-0.49878">
        <ele>209</ele>
        <time>2024-04-07T11:02:20Z</time>
      </trkpt>
      <trkpt lat="49.07232" lon="-0.49869">
        <ele>209</ele>
        <time>2024-04-07T11:02:21Z</time>
      </trkpt>
      <trkpt lat="49.07239" lon="-0.49859">
        <ele>209</ele>
        <time>2024-04-07T11:02:22Z</time>
      </trkpt>
      <trkpt lat="49.07245" lon="-0.4985">
        <ele>209</ele>
        <time>2024-04-07T11:02:23Z</time>
      </trkpt>
      <trkpt lat="49.07251" lon="-0.4984">
        <ele>209</ele>
        <time>2024-04-07T11:02:24Z</time>
      </trkpt>
      <trkpt lat="49.07257" lon="-0.49831">
        <ele>208.8</ele>
        <time>2024-04-07T11:02:25Z</time>
      </trkpt>
      <trkpt lat="49.07263" lon="-0.49821">
        <ele>208.6</ele>
        <time>2024-04-07T11:02:26Z</time>
      </trkpt>
      <trkpt lat="49.07269" lon="-0.49812">
        <ele>208.4</ele>
        <time>2024-04-07T11:02:27Z</time>
      </trkpt>
      <trkpt lat="49.07275" lon="-0.49802">
        <ele>208.4</ele>
        <time>2024-04-07T11:02:28Z</time>
      </trkpt>
      <trkpt lat="49.07281" lon="-0.49792">
        <ele>208.4</ele>
        <time>2024-04-07T11:02:29Z</time>
      </trkpt>
      <trkpt lat="49.07287" lon="-0.49782">
        <ele>208.2</ele>
        <time>2024-04-07T11:02:30Z</time>
      </trkpt>
      <trkpt lat="49.07292" lon="-0.49772">
        <ele>208.2</ele>
        <time>2024-04-07T11:02:31Z</time>
      </trkpt>
      <trkpt lat="49.07298" lon="-0.49762">
        <ele>208.2</ele>
        <time>2024-04-07T11:02:32Z</time>
      </trkpt>
      <trkpt lat="49.07303" lon="-0.49752">
        <ele>208.2</ele>
        <time>2024-04-07T11:02:33Z</time>
      </trkpt>
      <trkpt lat="49.07308" lon="-0.49741">
        <ele>208.2</ele>
        <time>2024-04-07T11:02:34Z</time>
      </trkpt>
      <trkpt lat="49.07314" lon="-0.49732">
        <ele>208</ele>
        <time>2024-04-07T11:02:35Z</time>
      </trkpt>
      <trkpt lat="49.07318" lon="-0.49721">
        <ele>208</ele>
        <time>2024-04-07T11:02:36Z</time>
      </trkpt>
      <trkpt lat="49.07324" lon="-0.49711">
        <ele>207.8</ele>
        <time>2024-04-07T11:02:37Z</time>
      </trkpt>
      <trkpt lat="49.07335" lon="-0.49691">
        <ele>207.8</ele>
        <time>2024-04-07T11:02:38Z</time>
      </trkpt>
      <trkpt lat="49.07338" lon="-0.49686">
        <ele>207.8</ele>
        <time>2024-04-07T11:02:39Z</time>
      </trkpt>
      <trkpt lat="49.07341" lon="-0.49681">
        <ele>207.8</ele>
        <time>2024-04-07T11:02:40Z</time>
      </trkpt>
      <trkpt lat="49.07347" lon="-0.49672">
        <ele>207.6</ele>
        <time>2024-04-07T11:02:41Z</time>
      </trkpt>
      <trkpt lat="49.07357" lon="-0.49659">
        <ele>207.4</ele>
        <time>2024-04-07T11:02:42Z</time>
      </trkpt>
      <trkpt lat="49.07361" lon="-0.49655">
        <ele>207.2</ele>
        <time>2024-04-07T11:02:43Z</time>
      </trkpt>
      <trkpt lat="49.07371" lon="-0.49641">
        <ele>207</ele>
        <time>2024-04-07T11:02:44Z</time>
      </trkpt>
      <trkpt lat="49.07374" lon="-0.49637">
        <ele>207</ele>
        <time>2024-04-07T11:02:45Z</time>
      </trkpt>
      <trkpt lat="49.07381" lon="-0.49628">
        <ele>207.2</ele>
        <time>2024-04-07T11:02:46Z</time>
      </trkpt>
      <trkpt lat="49.07387" lon="-0.4962">
        <ele>207.2</ele>
        <time>2024-04-07T11:02:47Z</time>
      </trkpt>
      <trkpt lat="49.07394" lon="-0.49612">
        <ele>207.4</ele>
        <time>2024-04-07T11:02:48Z</time>
      </trkpt>
      <trkpt lat="49.074" lon="-0.49604">
        <ele>207.6</ele>
        <time>2024-04-07T11:02:49Z</time>
      </trkpt>
      <trkpt lat="49.07405" lon="-0.49597">
        <ele>207.8</ele>
        <time>2024-04-07T11:02:50Z</time>
      </trkpt>
      <trkpt lat="49.07409" lon="-0.49589">
        <ele>208</ele>
        <time>2024-04-07T11:02:51Z</time>
      </trkpt>
      <trkpt lat="49.07413" lon="-0.49582">
        <ele>208</ele>
        <time>2024-04-07T11:02:52Z</time>
      </trkpt>
      <trkpt lat="49.07415" lon="-0.49575">
        <ele>208.2</ele>
        <time>2024-04-07T11:02:53Z</time>
      </trkpt>
      <trkpt lat="49.07417" lon="-0.49569">
        <ele>208.4</ele>
        <time>2024-04-07T11:02:54Z</time>
      </trkpt>
      <trkpt lat="49.07418" lon="-0.49562">
        <ele>208.4</ele>
        <time>2024-04-07T11:02:55Z</time>
      </trkpt>
      <trkpt lat="49.07417" lon="-0.49556">
        <ele>208.4</ele>
        <time>2024-04-07T11:02:56Z</time>
      </trkpt>
      <trkpt lat="49.07416" lon="-0.49549">
        <ele>208.2</ele>
        <time>2024-04-07T11:02:57Z</time>
      </trkpt>
      <trkpt lat="49.07415" lon="-0.49542">
        <ele>208.2</ele>
        <time>2024-04-07T11:02:58Z</time>
      </trkpt>
      <trkpt lat="49.07415" lon="-0.49534">
        <ele>208.2</ele>
        <time>2024-04-07T11:02:59Z</time>
      </trkpt>
      <trkpt lat="49.07417" lon="-0.49526">
        <ele>208.2</ele>
        <time>2024-04-07T11:03:00Z</time>
      </trkpt>
      <trkpt lat="49.0742" lon="-0.4952">
        <ele>208.2</ele>
        <time>2024-04-07T11:03:01Z</time>
      </trkpt>
      <trkpt lat="49.07425" lon="-0.49515">
        <ele>208.2</ele>
        <time>2024-04-07T11:03:02Z</time>
      </trkpt>
      <trkpt lat="49.07431" lon="-0.49514">
        <ele>208.2</ele>
        <time>2024-04-07T11:03:03Z</time>
      </trkpt>
      <trkpt lat="49.07437" lon="-0.49517">
        <ele>208.2</ele>
        <time>2024-04-07T11:03:04Z</time>
      </trkpt>
      <trkpt lat="49.07442" lon="-0.49522">
        <ele>208.2</ele>
        <time>2024-04-07T11:03:05Z</time>
      </trkpt>
      <trkpt lat="49.07447" lon="-0.49528">
        <ele>208.2</ele>
        <time>2024-04-07T11:03:06Z</time>
      </trkpt>
      <trkpt lat="49.07452" lon="-0.49535">
        <ele>208</ele>
        <time>2024-04-07T11:03:07Z</time>
      </trkpt>
      <trkpt lat="49.07458" lon="-0.4954">
        <ele>207.8</ele>
        <time>2024-04-07T11:03:08Z</time>
      </trkpt>
      <trkpt lat="49.07465" lon="-0.49543">
        <ele>207.6</ele>
        <time>2024-04-07T11:03:09Z</time>
      </trkpt>
      <trkpt lat="49.07472" lon="-0.49542">
        <ele>207.6</ele>
        <time>2024-04-07T11:03:10Z</time>
      </trkpt>
      <trkpt lat="49.07479" lon="-0.49538">
        <ele>207.4</ele>
        <time>2024-04-07T11:03:11Z</time>
      </trkpt>
      <trkpt lat="49.07486" lon="-0.49533">
        <ele>207.4</ele>
        <time>2024-04-07T11:03:12Z</time>
      </trkpt>
      <trkpt lat="49.07493" lon="-0.49526">
        <ele>207.4</ele>
        <time>2024-04-07T11:03:13Z</time>
      </trkpt>
      <trkpt lat="49.075" lon="-0.49519">
        <ele>207.6</ele>
        <time>2024-04-07T11:03:14Z</time>
      </trkpt>
      <trkpt lat="49.07507" lon="-0.49513">
        <ele>207.4</ele>
        <time>2024-04-07T11:03:15Z</time>
      </trkpt>
      <trkpt lat="49.07514" lon="-0.49507">
        <ele>207.4</ele>
        <time>2024-04-07T11:03:16Z</time>
      </trkpt>
      <trkpt lat="49.07521" lon="-0.49501">
        <ele>207.4</ele>
        <time>2024-04-07T11:03:17Z</time>
      </trkpt>
      <trkpt lat="49.07528" lon="-0.49495">
        <ele>207.4</ele>
        <time>2024-04-07T11:03:18Z</time>
      </trkpt>
      <trkpt lat="49.07534" lon="-0.4949">
        <ele>207.4</ele>
        <time>2024-04-07T11:03:19Z</time>
      </trkpt>
      <trkpt lat="49.0754" lon="-0.49484">
        <ele>207.4</ele>
        <time>2024-04-07T11:03:20Z</time>
      </trkpt>
      <trkpt lat="49.07545" lon="-0.49478">
        <ele>207.4</ele>
        <time>2024-04-07T11:03:21Z</time>
      </trkpt>
      <trkpt lat="49.07551" lon="-0.49472">
        <ele>207.6</ele>
        <time>2024-04-07T11:03:22Z</time>
      </trkpt>
      <trkpt lat="49.07562" lon="-0.49458">
        <ele>207.4</ele>
        <time>2024-04-07T11:03:23Z</time>
      </trkpt>
      <trkpt lat="49.07568" lon="-0.49452">
        <ele>207.2</ele>
        <time>2024-04-07T11:03:24Z</time>
      </trkpt>
      <trkpt lat="49.07574" lon="-0.49445">
        <ele>207.2</ele>
        <time>2024-04-07T11:03:25Z</time>
      </trkpt>
      <trkpt lat="49.07578" lon="-0.4944">
        <ele>207</ele>
        <time>2024-04-07T11:03:26Z</time>
      </trkpt>
      <trkpt lat="49.07582" lon="-0.49436">
        <ele>206.8</ele>
        <time>2024-04-07T11:03:27Z</time>
      </trkpt>
      <trkpt lat="49.0759" lon="-0.49426">
        <ele>206.8</ele>
        <time>2024-04-07T11:03:28Z</time>
      </trkpt>
      <trkpt lat="49.07594" lon="-0.49419">
        <ele>206.8</ele>
        <time>2024-04-07T11:03:29Z</time>
      </trkpt>
      <trkpt lat="49.07594" lon="-0.49419">
        <ele>206.8</ele>
        <time>2024-04-07T11:03:30Z</time>
      </trkpt>
      <trkpt lat="49.07601" lon="-0.4941">
        <ele>206.8</ele>
        <time>2024-04-07T11:03:31Z</time>
      </trkpt>
      <trkpt lat="49.07603" lon="-0.49407">
        <ele>206.8</ele>
        <time>2024-04-07T11:03:32Z</time>
      </trkpt>
      <trkpt lat="49.07608" lon="-0.494">
        <ele>206.8</ele>
        <time>2024-04-07T11:03:33Z</time>
      </trkpt>
      <trkpt lat="49.07612" lon="-0.49393">
        <ele>206.8</ele>
        <time>2024-04-07T11:03:34Z</time>
      </trkpt>
      <trkpt lat="49.07616" lon="-0.49387">
        <ele>207</ele>
        <time>2024-04-07T11:03:35Z</time>
      </trkpt>
      <trkpt lat="49.07625" lon="-0.49373">
        <ele>207</ele>
        <time>2024-04-07T11:03:36Z</time>
      </trkpt>
      <trkpt lat="49.07627" lon="-0.4937">
        <ele>207</ele>
        <time>2024-04-07T11:03:37Z</time>
      </trkpt>
      <trkpt lat="49.0763" lon="-0.49366">
        <ele>207</ele>
        <time>2024-04-07T11:03:38Z</time>
      </trkpt>
      <trkpt lat="49.07635" lon="-0.49359">
        <ele>207.2</ele>
        <time>2024-04-07T11:03:39Z</time>
      </trkpt>
      <trkpt lat="49.0764" lon="-0.49352">
        <ele>207.4</ele>
        <time>2024-04-07T11:03:40Z</time>
      </trkpt>
      <trkpt lat="49.07645" lon="-0.49344">
        <ele>207.4</ele>
        <time>2024-04-07T11:03:41Z</time>
      </trkpt>
      <trkpt lat="49.0765" lon="-0.49337">
        <ele>207.6</ele>
        <time>2024-04-07T11:03:42Z</time>
      </trkpt>
      <trkpt lat="49.07655" lon="-0.4933">
        <ele>207.6</ele>
        <time>2024-04-07T11:03:43Z</time>
      </trkpt>
      <trkpt lat="49.0766" lon="-0.49323">
        <ele>207.6</ele>
        <time>2024-04-07T11:03:44Z</time>
      </trkpt>
      <trkpt lat="49.07669" lon="-0.49309">
        <ele>207.6</ele>
        <time>2024-04-07T11:03:45Z</time>
      </trkpt>
      <trkpt lat="49.07672" lon="-0.49306">
        <ele>207.6</ele>
        <time>2024-04-07T11:03:46Z</time>
      </trkpt>
      <trkpt lat="49.07674" lon="-0.49303">
        <ele>207.4</ele>
        <time>2024-04-07T11:03:47Z</time>
      </trkpt>
      <trkpt lat="49.07683" lon="-0.49289">
        <ele>207.4</ele>
        <time>2024-04-07T11:03:48Z</time>
      </trkpt>
      <trkpt lat="49.07685" lon="-0.49286">
        <ele>207.4</ele>
        <time>2024-04-07T11:03:49Z</time>
      </trkpt>
      <trkpt lat="49.07688" lon="-0.49283">
        <ele>207.2</ele>
        <time>2024-04-07T11:03:50Z</time>
      </trkpt>
      <trkpt lat="49.07697" lon="-0.49271">
        <ele>207</ele>
        <time>2024-04-07T11:03:51Z</time>
      </trkpt>
      <trkpt lat="49.077" lon="-0.49268">
        <ele>207</ele>
        <time>2024-04-07T11:03:52Z</time>
      </trkpt>
      <trkpt lat="49.07702" lon="-0.49264">
        <ele>207</ele>
        <time>2024-04-07T11:03:53Z</time>
      </trkpt>
      <trkpt lat="49.07707" lon="-0.49258">
        <ele>207</ele>
        <time>2024-04-07T11:03:54Z</time>
      </trkpt>
      <trkpt lat="49.07718" lon="-0.49245">
        <ele>206.8</ele>
        <time>2024-04-07T11:03:55Z</time>
      </trkpt>
      <trkpt lat="49.07724" lon="-0.49238">
        <ele>206.8</ele>
        <time>2024-04-07T11:03:56Z</time>
      </trkpt>
      <trkpt lat="49.07728" lon="-0.49233">
        <ele>206.8</ele>
        <time>2024-04-07T11:03:57Z</time>
      </trkpt>
      <trkpt lat="49.07732" lon="-0.49228">
        <ele>206.8</ele>
        <time>2024-04-07T11:03:58Z</time>
      </trkpt>
      <trkpt lat="49.07741" lon="-0.49218">
        <ele>206.8</ele>
        <time>2024-04-07T11:03:59Z</time>
      </trkpt>
      <trkpt lat="49.07746" lon="-0.49211">
        <ele>206.6</ele>
        <time>2024-04-07T11:04:00Z</time>
      </trkpt>
      <trkpt lat="49.07751" lon="-0.49204">
        <ele>206.6</ele>
        <time>2024-04-07T11:04:01Z</time>
      </trkpt>
      <trkpt lat="49.07757" lon="-0.49197">
        <ele>206.6</ele>
        <time>2024-04-07T11:04:02Z</time>
      </trkpt>
      <trkpt lat="49.07762" lon="-0.49189">
        <ele>206.6</ele>
        <time>2024-04-07T11:04:03Z</time>
      </trkpt>
      <trkpt lat="49.07767" lon="-0.49182">
        <ele>206.6</ele>
        <time>2024-04-07T11:04:04Z</time>
      </trkpt>
      <trkpt lat="49.07769" lon="-0.49178">
        <ele>206.6</ele>
        <time>2024-04-07T11:04:05Z</time>
      </trkpt>
      <trkpt lat="49.07772" lon="-0.49174">
        <ele>206.6</ele>
        <time>2024-04-07T11:04:06Z</time>
      </trkpt>
      <trkpt lat="49.07777" lon="-0.49166">
        <ele>206.6</ele>
        <time>2024-04-07T11:04:07Z</time>
      </trkpt>
      <trkpt lat="49.07781" lon="-0.49158">
        <ele>206.6</ele>
        <time>2024-04-07T11:04:08Z</time>
      </trkpt>
      <trkpt lat="49.07789" lon="-0.49141">
        <ele>206.4</ele>
        <time>2024-04-07T11:04:09Z</time>
      </trkpt>
      <trkpt lat="49.07793" lon="-0.49132">
        <ele>206.4</ele>
        <time>2024-04-07T11:04:10Z</time>
      </trkpt>
      <trkpt lat="49.07797" lon="-0.49123">
        <ele>206.2</ele>
        <time>2024-04-07T11:04:11Z</time>
      </trkpt>
      <trkpt lat="49.07797" lon="-0.49123">
        <ele>206.4</ele>
        <time>2024-04-07T11:04:12Z</time>
      </trkpt>
      <trkpt lat="49.07806" lon="-0.49106">
        <ele>206.4</ele>
        <time>2024-04-07T11:04:13Z</time>
      </trkpt>
      <trkpt lat="49.07808" lon="-0.49102">
        <ele>206.6</ele>
        <time>2024-04-07T11:04:14Z</time>
      </trkpt>
      <trkpt lat="49.07811" lon="-0.49097">
        <ele>206.6</ele>
        <time>2024-04-07T11:04:15Z</time>
      </trkpt>
      <trkpt lat="49.07818" lon="-0.49085">
        <ele>206.8</ele>
        <time>2024-04-07T11:04:16Z</time>
      </trkpt>
      <trkpt lat="49.0782" lon="-0.4908">
        <ele>207</ele>
        <time>2024-04-07T11:04:17Z</time>
      </trkpt>
      <trkpt lat="49.07824" lon="-0.49071">
        <ele>207.2</ele>
        <time>2024-04-07T11:04:18Z</time>
      </trkpt>
      <trkpt lat="49.07828" lon="-0.49062">
        <ele>207.4</ele>
        <time>2024-04-07T11:04:19Z</time>
      </trkpt>
      <trkpt lat="49.07832" lon="-0.49052">
        <ele>207.4</ele>
        <time>2024-04-07T11:04:20Z</time>
      </trkpt>
      <trkpt lat="49.07836" lon="-0.49042">
        <ele>207.4</ele>
        <time>2024-04-07T11:04:21Z</time>
      </trkpt>
      <trkpt lat="49.0784" lon="-0.49032">
        <ele>207.2</ele>
        <time>2024-04-07T11:04:22Z</time>
      </trkpt>
      <trkpt lat="49.07844" lon="-0.49022">
        <ele>207</ele>
        <time>2024-04-07T11:04:23Z</time>
      </trkpt>
      <trkpt lat="49.07848" lon="-0.49012">
        <ele>206.8</ele>
        <time>2024-04-07T11:04:24Z</time>
      </trkpt>
      <trkpt lat="49.07851" lon="-0.49001">
        <ele>206.8</ele>
        <time>2024-04-07T11:04:25Z</time>
      </trkpt>
      <trkpt lat="49.07855" lon="-0.48991">
        <ele>206.6</ele>
        <time>2024-04-07T11:04:26Z</time>
      </trkpt>
      <trkpt lat="49.07859" lon="-0.48981">
        <ele>206.6</ele>
        <time>2024-04-07T11:04:27Z</time>
      </trkpt>
      <trkpt lat="49.07863" lon="-0.48971">
        <ele>206.6</ele>
        <time>2024-04-07T11:04:28Z</time>
      </trkpt>
      <trkpt lat="49.07867" lon="-0.48961">
        <ele>206.4</ele>
        <time>2024-04-07T11:04:29Z</time>
      </trkpt>
      <trkpt lat="49.07871" lon="-0.4895">
        <ele>206.4</ele>
        <time>2024-04-07T11:04:30Z</time>
      </trkpt>
      <trkpt lat="49.07874" lon="-0.48939">
        <ele>206.6</ele>
        <time>2024-04-07T11:04:31Z</time>
      </trkpt>
      <trkpt lat="49.07877" lon="-0.48929">
        <ele>206.6</ele>
        <time>2024-04-07T11:04:32Z</time>
      </trkpt>
      <trkpt lat="49.07881" lon="-0.48918">
        <ele>206.8</ele>
        <time>2024-04-07T11:04:33Z</time>
      </trkpt>
      <trkpt lat="49.07885" lon="-0.48908">
        <ele>206.8</ele>
        <time>2024-04-07T11:04:34Z</time>
      </trkpt>
      <trkpt lat="49.0789" lon="-0.48898">
        <ele>206.8</ele>
        <time>2024-04-07T11:04:35Z</time>
      </trkpt>
      <trkpt lat="49.07894" lon="-0.48888">
        <ele>207</ele>
        <time>2024-04-07T11:04:36Z</time>
      </trkpt>
      <trkpt lat="49.07898" lon="-0.48877">
        <ele>207</ele>
        <time>2024-04-07T11:04:37Z</time>
      </trkpt>
      <trkpt lat="49.07903" lon="-0.48867">
        <ele>207.2</ele>
        <time>2024-04-07T11:04:38Z</time>
      </trkpt>
      <trkpt lat="49.07907" lon="-0.48856">
        <ele>207.4</ele>
        <time>2024-04-07T11:04:39Z</time>
      </trkpt>
      <trkpt lat="49.07915" lon="-0.48835">
        <ele>207.4</ele>
        <time>2024-04-07T11:04:40Z</time>
      </trkpt>
      <trkpt lat="49.07918" lon="-0.48829">
        <ele>207.4</ele>
        <time>2024-04-07T11:04:41Z</time>
      </trkpt>
      <trkpt lat="49.0792" lon="-0.48824">
        <ele>207.4</ele>
        <time>2024-04-07T11:04:42Z</time>
      </trkpt>
      <trkpt lat="49.07929" lon="-0.48803">
        <ele>207.4</ele>
        <time>2024-04-07T11:04:43Z</time>
      </trkpt>
      <trkpt lat="49.07931" lon="-0.48798">
        <ele>207.6</ele>
        <time>2024-04-07T11:04:44Z</time>
      </trkpt>
      <trkpt lat="49.07934" lon="-0.48793">
        <ele>207.6</ele>
        <time>2024-04-07T11:04:45Z</time>
      </trkpt>
      <trkpt lat="49.07938" lon="-0.48783">
        <ele>207.8</ele>
        <time>2024-04-07T11:04:46Z</time>
      </trkpt>
      <trkpt lat="49.07943" lon="-0.48774">
        <ele>207.8</ele>
        <time>2024-04-07T11:04:47Z</time>
      </trkpt>
      <trkpt lat="49.07947" lon="-0.48764">
        <ele>208</ele>
        <time>2024-04-07T11:04:48Z</time>
      </trkpt>
      <trkpt lat="49.07951" lon="-0.48754">
        <ele>208</ele>
        <time>2024-04-07T11:04:49Z</time>
      </trkpt>
      <trkpt lat="49.07955" lon="-0.48744">
        <ele>208</ele>
        <time>2024-04-07T11:04:50Z</time>
      </trkpt>
      <trkpt lat="49.07959" lon="-0.48734">
        <ele>208</ele>
        <time>2024-04-07T11:04:51Z</time>
      </trkpt>
      <trkpt lat="49.07964" lon="-0.48724">
        <ele>208</ele>
        <time>2024-04-07T11:04:52Z</time>
      </trkpt>
      <trkpt lat="49.07968" lon="-0.48713">
        <ele>208</ele>
        <time>2024-04-07T11:04:53Z</time>
      </trkpt>
      <trkpt lat="49.07973" lon="-0.48704">
        <ele>208</ele>
        <time>2024-04-07T11:04:54Z</time>
      </trkpt>
      <trkpt lat="49.07977" lon="-0.48694">
        <ele>208</ele>
        <time>2024-04-07T11:04:55Z</time>
      </trkpt>
      <trkpt lat="49.07982" lon="-0.48684">
        <ele>208</ele>
        <time>2024-04-07T11:04:56Z</time>
      </trkpt>
      <trkpt lat="49.07986" lon="-0.48674">
        <ele>208.2</ele>
        <time>2024-04-07T11:04:57Z</time>
      </trkpt>
      <trkpt lat="49.07991" lon="-0.48664">
        <ele>208.2</ele>
        <time>2024-04-07T11:04:58Z</time>
      </trkpt>
      <trkpt lat="49.07995" lon="-0.48654">
        <ele>208.4</ele>
        <time>2024-04-07T11:04:59Z</time>
      </trkpt>
      <trkpt lat="49.08" lon="-0.48644">
        <ele>208.6</ele>
        <time>2024-04-07T11:05:00Z</time>
      </trkpt>
      <trkpt lat="49.08004" lon="-0.48634">
        <ele>208.8</ele>
        <time>2024-04-07T11:05:01Z</time>
      </trkpt>
      <trkpt lat="49.08011" lon="-0.48619">
        <ele>209</ele>
        <time>2024-04-07T11:05:02Z</time>
      </trkpt>
      <trkpt lat="49.08014" lon="-0.48614">
        <ele>209</ele>
        <time>2024-04-07T11:05:03Z</time>
      </trkpt>
      <trkpt lat="49.08018" lon="-0.48604">
        <ele>209.2</ele>
        <time>2024-04-07T11:05:04Z</time>
      </trkpt>
      <trkpt lat="49.08025" lon="-0.48589">
        <ele>209.2</ele>
        <time>2024-04-07T11:05:05Z</time>
      </trkpt>
      <trkpt lat="49.08028" lon="-0.48583">
        <ele>209.2</ele>
        <time>2024-04-07T11:05:06Z</time>
      </trkpt>
      <trkpt lat="49.08032" lon="-0.48573">
        <ele>209</ele>
        <time>2024-04-07T11:05:07Z</time>
      </trkpt>
      <trkpt lat="49.08037" lon="-0.48564">
        <ele>209</ele>
        <time>2024-04-07T11:05:08Z</time>
      </trkpt>
      <trkpt lat="49.08042" lon="-0.48554">
        <ele>209</ele>
        <time>2024-04-07T11:05:09Z</time>
      </trkpt>
      <trkpt lat="49.08047" lon="-0.48544">
        <ele>209.2</ele>
        <time>2024-04-07T11:05:10Z</time>
      </trkpt>
      <trkpt lat="49.08053" lon="-0.48534">
        <ele>209.2</ele>
        <time>2024-04-07T11:05:11Z</time>
      </trkpt>
      <trkpt lat="49.08058" lon="-0.48524">
        <ele>209.2</ele>
        <time>2024-04-07T11:05:12Z</time>
      </trkpt>
      <trkpt lat="49.08063" lon="-0.48514">
        <ele>209.4</ele>
        <time>2024-04-07T11:05:13Z</time>
      </trkpt>
      <trkpt lat="49.08069" lon="-0.48505">
        <ele>209.4</ele>
        <time>2024-04-07T11:05:14Z</time>
      </trkpt>
      <trkpt lat="49.0808" lon="-0.48485">
        <ele>209.4</ele>
        <time>2024-04-07T11:05:15Z</time>
      </trkpt>
      <trkpt lat="49.08084" lon="-0.48479">
        <ele>209.2</ele>
        <time>2024-04-07T11:05:16Z</time>
      </trkpt>
      <trkpt lat="49.08089" lon="-0.48472">
        <ele>209.4</ele>
        <time>2024-04-07T11:05:17Z</time>
      </trkpt>
      <trkpt lat="49.08097" lon="-0.48458">
        <ele>209.4</ele>
        <time>2024-04-07T11:05:18Z</time>
      </trkpt>
      <trkpt lat="49.081" lon="-0.48454">
        <ele>209.4</ele>
        <time>2024-04-07T11:05:19Z</time>
      </trkpt>
      <trkpt lat="49.08103" lon="-0.48449">
        <ele>209.4</ele>
        <time>2024-04-07T11:05:20Z</time>
      </trkpt>
      <trkpt lat="49.08109" lon="-0.48441">
        <ele>209.6</ele>
        <time>2024-04-07T11:05:21Z</time>
      </trkpt>
      <trkpt lat="49.08115" lon="-0.48433">
        <ele>209.8</ele>
        <time>2024-04-07T11:05:22Z</time>
      </trkpt>
      <trkpt lat="49.08121" lon="-0.48424">
        <ele>210</ele>
        <time>2024-04-07T11:05:23Z</time>
      </trkpt>
      <trkpt lat="49.08127" lon="-0.48416">
        <ele>210.2</ele>
        <time>2024-04-07T11:05:24Z</time>
      </trkpt>
      <trkpt lat="49.0814" lon="-0.48401">
        <ele>210.4</ele>
        <time>2024-04-07T11:05:25Z</time>
      </trkpt>
      <trkpt lat="49.08143" lon="-0.48397">
        <ele>210.6</ele>
        <time>2024-04-07T11:05:26Z</time>
      </trkpt>
      <trkpt lat="49.08146" lon="-0.48393">
        <ele>210.6</ele>
        <time>2024-04-07T11:05:27Z</time>
      </trkpt>
      <trkpt lat="49.08153" lon="-0.48385">
        <ele>210.6</ele>
        <time>2024-04-07T11:05:28Z</time>
      </trkpt>
      <trkpt lat="49.0816" lon="-0.48378">
        <ele>210.8</ele>
        <time>2024-04-07T11:05:29Z</time>
      </trkpt>
      <trkpt lat="49.08166" lon="-0.4837">
        <ele>210.8</ele>
        <time>2024-04-07T11:05:30Z</time>
      </trkpt>
      <trkpt lat="49.08173" lon="-0.48362">
        <ele>210.8</ele>
        <time>2024-04-07T11:05:31Z</time>
      </trkpt>
      <trkpt lat="49.08179" lon="-0.48354">
        <ele>210.8</ele>
        <time>2024-04-07T11:05:32Z</time>
      </trkpt>
      <trkpt lat="49.08186" lon="-0.48346">
        <ele>210.8</ele>
        <time>2024-04-07T11:05:33Z</time>
      </trkpt>
      <trkpt lat="49.08192" lon="-0.48337">
        <ele>211</ele>
        <time>2024-04-07T11:05:34Z</time>
      </trkpt>
      <trkpt lat="49.08198" lon="-0.48328">
        <ele>210.8</ele>
        <time>2024-04-07T11:05:35Z</time>
      </trkpt>
      <trkpt lat="49.08204" lon="-0.48318">
        <ele>210.8</ele>
        <time>2024-04-07T11:05:36Z</time>
      </trkpt>
      <trkpt lat="49.08209" lon="-0.48308">
        <ele>210.8</ele>
        <time>2024-04-07T11:05:37Z</time>
      </trkpt>
      <trkpt lat="49.08217" lon="-0.48293">
        <ele>210.8</ele>
        <time>2024-04-07T11:05:38Z</time>
      </trkpt>
      <trkpt lat="49.0822" lon="-0.48288">
        <ele>210.8</ele>
        <time>2024-04-07T11:05:39Z</time>
      </trkpt>
      <trkpt lat="49.08225" lon="-0.48278">
        <ele>210.8</ele>
        <time>2024-04-07T11:05:40Z</time>
      </trkpt>
      <trkpt lat="49.0823" lon="-0.48267">
        <ele>210.8</ele>
        <time>2024-04-07T11:05:41Z</time>
      </trkpt>
      <trkpt lat="49.08235" lon="-0.48257">
        <ele>210.8</ele>
        <time>2024-04-07T11:05:42Z</time>
      </trkpt>
      <trkpt lat="49.0824" lon="-0.48246">
        <ele>210.8</ele>
        <time>2024-04-07T11:05:43Z</time>
      </trkpt>
      <trkpt lat="49.0825" lon="-0.48225">
        <ele>210.8</ele>
        <time>2024-04-07T11:05:44Z</time>
      </trkpt>
      <trkpt lat="49.08253" lon="-0.4822">
        <ele>210.8</ele>
        <time>2024-04-07T11:05:45Z</time>
      </trkpt>
      <trkpt lat="49.08256" lon="-0.48215">
        <ele>210.8</ele>
        <time>2024-04-07T11:05:46Z</time>
      </trkpt>
      <trkpt lat="49.08265" lon="-0.48201">
        <ele>210.8</ele>
        <time>2024-04-07T11:05:47Z</time>
      </trkpt>
      <trkpt lat="49.08268" lon="-0.48196">
        <ele>210.6</ele>
        <time>2024-04-07T11:05:48Z</time>
      </trkpt>
      <trkpt lat="49.08275" lon="-0.48188">
        <ele>210.6</ele>
        <time>2024-04-07T11:05:49Z</time>
      </trkpt>
      <trkpt lat="49.08282" lon="-0.4818">
        <ele>210.6</ele>
        <time>2024-04-07T11:05:50Z</time>
      </trkpt>
      <trkpt lat="49.08289" lon="-0.48172">
        <ele>210.8</ele>
        <time>2024-04-07T11:05:51Z</time>
      </trkpt>
      <trkpt lat="49.08296" lon="-0.48165">
        <ele>210.8</ele>
        <time>2024-04-07T11:05:52Z</time>
      </trkpt>
      <trkpt lat="49.08304" lon="-0.48158">
        <ele>210.8</ele>
        <time>2024-04-07T11:05:53Z</time>
      </trkpt>
      <trkpt lat="49.08312" lon="-0.48152">
        <ele>210.8</ele>
        <time>2024-04-07T11:05:54Z</time>
      </trkpt>
      <trkpt lat="49.08319" lon="-0.48145">
        <ele>210.8</ele>
        <time>2024-04-07T11:05:55Z</time>
      </trkpt>
      <trkpt lat="49.08327" lon="-0.48139">
        <ele>210.8</ele>
        <time>2024-04-07T11:05:56Z</time>
      </trkpt>
      <trkpt lat="49.08335" lon="-0.48133">
        <ele>210.8</ele>
        <time>2024-04-07T11:05:57Z</time>
      </trkpt>
      <trkpt lat="49.08343" lon="-0.48127">
        <ele>210.8</ele>
        <time>2024-04-07T11:05:58Z</time>
      </trkpt>
      <trkpt lat="49.08355" lon="-0.48118">
        <ele>210.8</ele>
        <time>2024-04-07T11:05:59Z</time>
      </trkpt>
      <trkpt lat="49.08359" lon="-0.48115">
        <ele>210.8</ele>
        <time>2024-04-07T11:06:00Z</time>
      </trkpt>
      <trkpt lat="49.08367" lon="-0.48109">
        <ele>210.8</ele>
        <time>2024-04-07T11:06:01Z</time>
      </trkpt>
      <trkpt lat="49.08375" lon="-0.48103">
        <ele>210.8</ele>
        <time>2024-04-07T11:06:02Z</time>
      </trkpt>
      <trkpt lat="49.08383" lon="-0.48096">
        <ele>210.8</ele>
        <time>2024-04-07T11:06:03Z</time>
      </trkpt>
      <trkpt lat="49.08391" lon="-0.4809">
        <ele>210.8</ele>
        <time>2024-04-07T11:06:04Z</time>
      </trkpt>
      <trkpt lat="49.08399" lon="-0.48083">
        <ele>210.8</ele>
        <time>2024-04-07T11:06:05Z</time>
      </trkpt>
      <trkpt lat="49.08407" lon="-0.48076">
        <ele>210.8</ele>
        <time>2024-04-07T11:06:06Z</time>
      </trkpt>
      <trkpt lat="49.08414" lon="-0.4807">
        <ele>210.8</ele>
        <time>2024-04-07T11:06:07Z</time>
      </trkpt>
      <trkpt lat="49.08422" lon="-0.48063">
        <ele>210.8</ele>
        <time>2024-04-07T11:06:08Z</time>
      </trkpt>
      <trkpt lat="49.08429" lon="-0.48056">
        <ele>210.8</ele>
        <time>2024-04-07T11:06:09Z</time>
      </trkpt>
      <trkpt lat="49.08436" lon="-0.4805">
        <ele>211</ele>
        <time>2024-04-07T11:06:10Z</time>
      </trkpt>
      <trkpt lat="49.08443" lon="-0.48044">
        <ele>211</ele>
        <time>2024-04-07T11:06:11Z</time>
      </trkpt>
      <trkpt lat="49.0845" lon="-0.48037">
        <ele>210.8</ele>
        <time>2024-04-07T11:06:12Z</time>
      </trkpt>
      <trkpt lat="49.0846" lon="-0.48027">
        <ele>210.8</ele>
        <time>2024-04-07T11:06:13Z</time>
      </trkpt>
      <trkpt lat="49.08463" lon="-0.48024">
        <ele>210.8</ele>
        <time>2024-04-07T11:06:14Z</time>
      </trkpt>
      <trkpt lat="49.0847" lon="-0.48018">
        <ele>210.8</ele>
        <time>2024-04-07T11:06:15Z</time>
      </trkpt>
      <trkpt lat="49.08477" lon="-0.48011">
        <ele>210.8</ele>
        <time>2024-04-07T11:06:16Z</time>
      </trkpt>
      <trkpt lat="49.08483" lon="-0.48005">
        <ele>210.6</ele>
        <time>2024-04-07T11:06:17Z</time>
      </trkpt>
      <trkpt lat="49.0849" lon="-0.47998">
        <ele>210.8</ele>
        <time>2024-04-07T11:06:18Z</time>
      </trkpt>
      <trkpt lat="49.08497" lon="-0.47991">
        <ele>210.8</ele>
        <time>2024-04-07T11:06:19Z</time>
      </trkpt>
      <trkpt lat="49.08504" lon="-0.47984">
        <ele>210.8</ele>
        <time>2024-04-07T11:06:20Z</time>
      </trkpt>
      <trkpt lat="49.08511" lon="-0.47977">
        <ele>210.6</ele>
        <time>2024-04-07T11:06:21Z</time>
      </trkpt>
      <trkpt lat="49.08518" lon="-0.4797">
        <ele>210.6</ele>
        <time>2024-04-07T11:06:22Z</time>
      </trkpt>
      <trkpt lat="49.08525" lon="-0.47963">
        <ele>210.6</ele>
        <time>2024-04-07T11:06:23Z</time>
      </trkpt>
      <trkpt lat="49.08531" lon="-0.47956">
        <ele>210.8</ele>
        <time>2024-04-07T11:06:24Z</time>
      </trkpt>
      <trkpt lat="49.08538" lon="-0.47949">
        <ele>210.8</ele>
        <time>2024-04-07T11:06:25Z</time>
      </trkpt>
      <trkpt lat="49.08545" lon="-0.47941">
        <ele>211</ele>
        <time>2024-04-07T11:06:26Z</time>
      </trkpt>
      <trkpt lat="49.08555" lon="-0.47929">
        <ele>211</ele>
        <time>2024-04-07T11:06:27Z</time>
      </trkpt>
      <trkpt lat="49.08558" lon="-0.47925">
        <ele>211.2</ele>
        <time>2024-04-07T11:06:28Z</time>
      </trkpt>
      <trkpt lat="49.08565" lon="-0.47917">
        <ele>211.2</ele>
        <time>2024-04-07T11:06:29Z</time>
      </trkpt>
      <trkpt lat="49.08572" lon="-0.47909">
        <ele>211.2</ele>
        <time>2024-04-07T11:06:30Z</time>
      </trkpt>
      <trkpt lat="49.08578" lon="-0.479">
        <ele>211.2</ele>
        <time>2024-04-07T11:06:31Z</time>
      </trkpt>
      <trkpt lat="49.08585" lon="-0.47892">
        <ele>211.2</ele>
        <time>2024-04-07T11:06:32Z</time>
      </trkpt>
      <trkpt lat="49.08592" lon="-0.47884">
        <ele>211.2</ele>
        <time>2024-04-07T11:06:33Z</time>
      </trkpt>
      <trkpt lat="49.08605" lon="-0.47867">
        <ele>211.4</ele>
        <time>2024-04-07T11:06:34Z</time>
      </trkpt>
      <trkpt lat="49.08608" lon="-0.47862">
        <ele>211.4</ele>
        <time>2024-04-07T11:06:35Z</time>
      </trkpt>
      <trkpt lat="49.08611" lon="-0.47858">
        <ele>211.4</ele>
        <time>2024-04-07T11:06:36Z</time>
      </trkpt>
      <trkpt lat="49.08617" lon="-0.47849">
        <ele>211.4</ele>
        <time>2024-04-07T11:06:37Z</time>
      </trkpt>
      <trkpt lat="49.08623" lon="-0.47839">
        <ele>211.4</ele>
        <time>2024-04-07T11:06:38Z</time>
      </trkpt>
      <trkpt lat="49.08629" lon="-0.47829">
        <ele>211.2</ele>
        <time>2024-04-07T11:06:39Z</time>
      </trkpt>
      <trkpt lat="49.08635" lon="-0.47819">
        <ele>211.2</ele>
        <time>2024-04-07T11:06:40Z</time>
      </trkpt>
      <trkpt lat="49.08641" lon="-0.47809">
        <ele>211.2</ele>
        <time>2024-04-07T11:06:41Z</time>
      </trkpt>
      <trkpt lat="49.08647" lon="-0.47799">
        <ele>211.2</ele>
        <time>2024-04-07T11:06:42Z</time>
      </trkpt>
      <trkpt lat="49.08653" lon="-0.47789">
        <ele>211</ele>
        <time>2024-04-07T11:06:43Z</time>
      </trkpt>
      <trkpt lat="49.0866" lon="-0.47778">
        <ele>211</ele>
        <time>2024-04-07T11:06:44Z</time>
      </trkpt>
      <trkpt lat="49.08669" lon="-0.47763">
        <ele>211</ele>
        <time>2024-04-07T11:06:45Z</time>
      </trkpt>
      <trkpt lat="49.08672" lon="-0.47757">
        <ele>211</ele>
        <time>2024-04-07T11:06:46Z</time>
      </trkpt>
      <trkpt lat="49.08678" lon="-0.47746">
        <ele>210.8</ele>
        <time>2024-04-07T11:06:47Z</time>
      </trkpt>
      <trkpt lat="49.08688" lon="-0.4773">
        <ele>211</ele>
        <time>2024-04-07T11:06:48Z</time>
      </trkpt>
      <trkpt lat="49.08691" lon="-0.47725">
        <ele>211</ele>
        <time>2024-04-07T11:06:49Z</time>
      </trkpt>
      <trkpt lat="49.08697" lon="-0.47714">
        <ele>211</ele>
        <time>2024-04-07T11:06:50Z</time>
      </trkpt>
      <trkpt lat="49.08704" lon="-0.47703">
        <ele>211</ele>
        <time>2024-04-07T11:06:51Z</time>
      </trkpt>
      <trkpt lat="49.08716" lon="-0.47682">
        <ele>211</ele>
        <time>2024-04-07T11:06:52Z</time>
      </trkpt>
      <trkpt lat="49.08723" lon="-0.47671">
        <ele>211</ele>
        <time>2024-04-07T11:06:53Z</time>
      </trkpt>
      <trkpt lat="49.0873" lon="-0.4766">
        <ele>210.8</ele>
        <time>2024-04-07T11:06:54Z</time>
      </trkpt>
      <trkpt lat="49.0873" lon="-0.4766">
        <ele>210.6</ele>
        <time>2024-04-07T11:06:55Z</time>
      </trkpt>
      <trkpt lat="49.08736" lon="-0.47649">
        <ele>210.4</ele>
        <time>2024-04-07T11:06:56Z</time>
      </trkpt>
      <trkpt lat="49.08748" lon="-0.4763">
        <ele>210.2</ele>
        <time>2024-04-07T11:06:57Z</time>
      </trkpt>
      <trkpt lat="49.08753" lon="-0.47622">
        <ele>209.8</ele>
        <time>2024-04-07T11:06:58Z</time>
      </trkpt>
      <trkpt lat="49.08762" lon="-0.47606">
        <ele>209.4</ele>
        <time>2024-04-07T11:06:59Z</time>
      </trkpt>
      <trkpt lat="49.08766" lon="-0.476">
        <ele>209</ele>
        <time>2024-04-07T11:07:00Z</time>
      </trkpt>
      <trkpt lat="49.08769" lon="-0.47595">
        <ele>208.6</ele>
        <time>2024-04-07T11:07:01Z</time>
      </trkpt>
      <trkpt lat="49.08782" lon="-0.47573">
        <ele>208</ele>
        <time>2024-04-07T11:07:02Z</time>
      </trkpt>
      <trkpt lat="49.08785" lon="-0.47568">
        <ele>207.8</ele>
        <time>2024-04-07T11:07:03Z</time>
      </trkpt>
      <trkpt lat="49.08788" lon="-0.47562">
        <ele>207.4</ele>
        <time>2024-04-07T11:07:04Z</time>
      </trkpt>
      <trkpt lat="49.08795" lon="-0.47551">
        <ele>207.4</ele>
        <time>2024-04-07T11:07:05Z</time>
      </trkpt>
      <trkpt lat="49.08801" lon="-0.47541">
        <ele>207.4</ele>
        <time>2024-04-07T11:07:06Z</time>
      </trkpt>
      <trkpt lat="49.08811" lon="-0.47525">
        <ele>207.4</ele>
        <time>2024-04-07T11:07:07Z</time>
      </trkpt>
      <trkpt lat="49.08814" lon="-0.47519">
        <ele>207.4</ele>
        <time>2024-04-07T11:07:08Z</time>
      </trkpt>
      <trkpt lat="49.0882" lon="-0.47509">
        <ele>207.4</ele>
        <time>2024-04-07T11:07:09Z</time>
      </trkpt>
      <trkpt lat="49.08827" lon="-0.47498">
        <ele>207.2</ele>
        <time>2024-04-07T11:07:10Z</time>
      </trkpt>
      <trkpt lat="49.08836" lon="-0.47482">
        <ele>207.2</ele>
        <time>2024-04-07T11:07:11Z</time>
      </trkpt>
      <trkpt lat="49.08839" lon="-0.47477">
        <ele>207</ele>
        <time>2024-04-07T11:07:12Z</time>
      </trkpt>
      <trkpt lat="49.08845" lon="-0.47466">
        <ele>207</ele>
        <time>2024-04-07T11:07:13Z</time>
      </trkpt>
      <trkpt lat="49.08858" lon="-0.47445">
        <ele>206.8</ele>
        <time>2024-04-07T11:07:14Z</time>
      </trkpt>
      <trkpt lat="49.08861" lon="-0.4744">
        <ele>206.6</ele>
        <time>2024-04-07T11:07:15Z</time>
      </trkpt>
      <trkpt lat="49.08864" lon="-0.47435">
        <ele>206.6</ele>
        <time>2024-04-07T11:07:16Z</time>
      </trkpt>
      <trkpt lat="49.08875" lon="-0.47417">
        <ele>206.4</ele>
        <time>2024-04-07T11:07:17Z</time>
      </trkpt>
      <trkpt lat="49.0888" lon="-0.47409">
        <ele>206.4</ele>
        <time>2024-04-07T11:07:18Z</time>
      </trkpt>
      <trkpt lat="49.0889" lon="-0.47393">
        <ele>206.2</ele>
        <time>2024-04-07T11:07:19Z</time>
      </trkpt>
      <trkpt lat="49.08893" lon="-0.47388">
        <ele>206</ele>
        <time>2024-04-07T11:07:20Z</time>
      </trkpt>
      <trkpt lat="49.08896" lon="-0.47382">
        <ele>205.8</ele>
        <time>2024-04-07T11:07:21Z</time>
      </trkpt>
      <trkpt lat="49.08903" lon="-0.47371">
        <ele>205.6</ele>
        <time>2024-04-07T11:07:22Z</time>
      </trkpt>
      <trkpt lat="49.08909" lon="-0.4736">
        <ele>205.4</ele>
        <time>2024-04-07T11:07:23Z</time>
      </trkpt>
      <trkpt lat="49.08916" lon="-0.47349">
        <ele>205.2</ele>
        <time>2024-04-07T11:07:24Z</time>
      </trkpt>
      <trkpt lat="49.08923" lon="-0.47338">
        <ele>205.2</ele>
        <time>2024-04-07T11:07:25Z</time>
      </trkpt>
      <trkpt lat="49.08933" lon="-0.47321">
        <ele>205</ele>
        <time>2024-04-07T11:07:26Z</time>
      </trkpt>
      <trkpt lat="49.08936" lon="-0.47316">
        <ele>204.8</ele>
        <time>2024-04-07T11:07:27Z</time>
      </trkpt>
      <trkpt lat="49.08943" lon="-0.47304">
        <ele>204.6</ele>
        <time>2024-04-07T11:07:28Z</time>
      </trkpt>
      <trkpt lat="49.0895" lon="-0.47292">
        <ele>204.4</ele>
        <time>2024-04-07T11:07:29Z</time>
      </trkpt>
      <trkpt lat="49.0896" lon="-0.47274">
        <ele>203.8</ele>
        <time>2024-04-07T11:07:30Z</time>
      </trkpt>
      <trkpt lat="49.08963" lon="-0.47268">
        <ele>203.2</ele>
        <time>2024-04-07T11:07:31Z</time>
      </trkpt>
      <trkpt lat="49.0897" lon="-0.47256">
        <ele>202.8</ele>
        <time>2024-04-07T11:07:32Z</time>
      </trkpt>
      <trkpt lat="49.08977" lon="-0.47244">
        <ele>202.4</ele>
        <time>2024-04-07T11:07:33Z</time>
      </trkpt>
      <trkpt lat="49.08988" lon="-0.47225">
        <ele>202</ele>
        <time>2024-04-07T11:07:34Z</time>
      </trkpt>
      <trkpt lat="49.08991" lon="-0.47219">
        <ele>201.6</ele>
        <time>2024-04-07T11:07:35Z</time>
      </trkpt>
      <trkpt lat="49.08998" lon="-0.47207">
        <ele>201</ele>
        <time>2024-04-07T11:07:36Z</time>
      </trkpt>
      <trkpt lat="49.09009" lon="-0.47188">
        <ele>200.6</ele>
        <time>2024-04-07T11:07:37Z</time>
      </trkpt>
      <trkpt lat="49.09012" lon="-0.47182">
        <ele>200</ele>
        <time>2024-04-07T11:07:38Z</time>
      </trkpt>
      <trkpt lat="49.09019" lon="-0.4717">
        <ele>199.8</ele>
        <time>2024-04-07T11:07:39Z</time>
      </trkpt>
      <trkpt lat="49.09031" lon="-0.47152">
        <ele>199.4</ele>
        <time>2024-04-07T11:07:40Z</time>
      </trkpt>
      <trkpt lat="49.09035" lon="-0.47146">
        <ele>199</ele>
        <time>2024-04-07T11:07:41Z</time>
      </trkpt>
      <trkpt lat="49.09043" lon="-0.47135">
        <ele>198.8</ele>
        <time>2024-04-07T11:07:42Z</time>
      </trkpt>
      <trkpt lat="49.09056" lon="-0.47118">
        <ele>198.6</ele>
        <time>2024-04-07T11:07:43Z</time>
      </trkpt>
      <trkpt lat="49.0906" lon="-0.47113">
        <ele>198.6</ele>
        <time>2024-04-07T11:07:44Z</time>
      </trkpt>
      <trkpt lat="49.0907" lon="-0.47102">
        <ele>198.2</ele>
        <time>2024-04-07T11:07:45Z</time>
      </trkpt>
      <trkpt lat="49.0908" lon="-0.47092">
        <ele>197.4</ele>
        <time>2024-04-07T11:07:46Z</time>
      </trkpt>
      <trkpt lat="49.0909" lon="-0.47083">
        <ele>196.6</ele>
        <time>2024-04-07T11:07:47Z</time>
      </trkpt>
      <trkpt lat="49.09105" lon="-0.47068">
        <ele>196</ele>
        <time>2024-04-07T11:07:48Z</time>
      </trkpt>
      <trkpt lat="49.0911" lon="-0.47063">
        <ele>195.2</ele>
        <time>2024-04-07T11:07:49Z</time>
      </trkpt>
      <trkpt lat="49.09125" lon="-0.47048">
        <ele>194.6</ele>
        <time>2024-04-07T11:07:50Z</time>
      </trkpt>
      <trkpt lat="49.0913" lon="-0.47043">
        <ele>194</ele>
        <time>2024-04-07T11:07:51Z</time>
      </trkpt>
      <trkpt lat="49.09145" lon="-0.47027">
        <ele>193.4</ele>
        <time>2024-04-07T11:07:52Z</time>
      </trkpt>
      <trkpt lat="49.0915" lon="-0.47021">
        <ele>193</ele>
        <time>2024-04-07T11:07:53Z</time>
      </trkpt>
      <trkpt lat="49.0916" lon="-0.4701">
        <ele>192.4</ele>
        <time>2024-04-07T11:07:54Z</time>
      </trkpt>
      <trkpt lat="49.09174" lon="-0.46994">
        <ele>191.8</ele>
        <time>2024-04-07T11:07:55Z</time>
      </trkpt>
      <trkpt lat="49.09179" lon="-0.46988">
        <ele>191.4</ele>
        <time>2024-04-07T11:07:56Z</time>
      </trkpt>
      <trkpt lat="49.09189" lon="-0.46976">
        <ele>191</ele>
        <time>2024-04-07T11:07:57Z</time>
      </trkpt>
      <trkpt lat="49.09203" lon="-0.46959">
        <ele>190.8</ele>
        <time>2024-04-07T11:07:58Z</time>
      </trkpt>
      <trkpt lat="49.09208" lon="-0.46953">
        <ele>190.4</ele>
        <time>2024-04-07T11:07:59Z</time>
      </trkpt>
      <trkpt lat="49.09217" lon="-0.4694">
        <ele>190</ele>
        <time>2024-04-07T11:08:00Z</time>
      </trkpt>
      <trkpt lat="49.09231" lon="-0.46922">
        <ele>189.4</ele>
        <time>2024-04-07T11:08:01Z</time>
      </trkpt>
      <trkpt lat="49.09236" lon="-0.46916">
        <ele>188.8</ele>
        <time>2024-04-07T11:08:02Z</time>
      </trkpt>
      <trkpt lat="49.0925" lon="-0.46898">
        <ele>188.2</ele>
        <time>2024-04-07T11:08:03Z</time>
      </trkpt>
      <trkpt lat="49.09254" lon="-0.46892">
        <ele>187.6</ele>
        <time>2024-04-07T11:08:04Z</time>
      </trkpt>
      <trkpt lat="49.09268" lon="-0.46874">
        <ele>187.4</ele>
        <time>2024-04-07T11:08:05Z</time>
      </trkpt>
      <trkpt lat="49.09273" lon="-0.46868">
        <ele>187</ele>
        <time>2024-04-07T11:08:06Z</time>
      </trkpt>
      <trkpt lat="49.09282" lon="-0.46856">
        <ele>187</ele>
        <time>2024-04-07T11:08:07Z</time>
      </trkpt>
      <trkpt lat="49.09291" lon="-0.46844">
        <ele>186.8</ele>
        <time>2024-04-07T11:08:08Z</time>
      </trkpt>
      <trkpt lat="49.093" lon="-0.46832">
        <ele>186.6</ele>
        <time>2024-04-07T11:08:09Z</time>
      </trkpt>
      <trkpt lat="49.09314" lon="-0.46814">
        <ele>186.4</ele>
        <time>2024-04-07T11:08:10Z</time>
      </trkpt>
      <trkpt lat="49.09319" lon="-0.46808">
        <ele>186.4</ele>
        <time>2024-04-07T11:08:11Z</time>
      </trkpt>
      <trkpt lat="49.09332" lon="-0.46791">
        <ele>186.2</ele>
        <time>2024-04-07T11:08:12Z</time>
      </trkpt>
      <trkpt lat="49.09336" lon="-0.46785">
        <ele>186</ele>
        <time>2024-04-07T11:08:13Z</time>
      </trkpt>
      <trkpt lat="49.09345" lon="-0.46774">
        <ele>185.8</ele>
        <time>2024-04-07T11:08:14Z</time>
      </trkpt>
      <trkpt lat="49.09358" lon="-0.46757">
        <ele>185.6</ele>
        <time>2024-04-07T11:08:15Z</time>
      </trkpt>
      <trkpt lat="49.09371" lon="-0.4674">
        <ele>185.4</ele>
        <time>2024-04-07T11:08:16Z</time>
      </trkpt>
      <trkpt lat="49.09376" lon="-0.46734">
        <ele>185.2</ele>
        <time>2024-04-07T11:08:17Z</time>
      </trkpt>
      <trkpt lat="49.0938" lon="-0.46728">
        <ele>185</ele>
        <time>2024-04-07T11:08:18Z</time>
      </trkpt>
      <trkpt lat="49.09388" lon="-0.46716">
        <ele>184.8</ele>
        <time>2024-04-07T11:08:19Z</time>
      </trkpt>
      <trkpt lat="49.09397" lon="-0.46705">
        <ele>184.6</ele>
        <time>2024-04-07T11:08:20Z</time>
      </trkpt>
      <trkpt lat="49.09406" lon="-0.46693">
        <ele>184.4</ele>
        <time>2024-04-07T11:08:21Z</time>
      </trkpt>
      <trkpt lat="49.09419" lon="-0.46676">
        <ele>184</ele>
        <time>2024-04-07T11:08:22Z</time>
      </trkpt>
      <trkpt lat="49.09424" lon="-0.4667">
        <ele>183.8</ele>
        <time>2024-04-07T11:08:23Z</time>
      </trkpt>
      <trkpt lat="49.09432" lon="-0.46658">
        <ele>183.4</ele>
        <time>2024-04-07T11:08:24Z</time>
      </trkpt>
      <trkpt lat="49.09446" lon="-0.4664">
        <ele>183.2</ele>
        <time>2024-04-07T11:08:25Z</time>
      </trkpt>
      <trkpt lat="49.0945" lon="-0.46634">
        <ele>183</ele>
        <time>2024-04-07T11:08:26Z</time>
      </trkpt>
      <trkpt lat="49.09459" lon="-0.46622">
        <ele>182.8</ele>
        <time>2024-04-07T11:08:27Z</time>
      </trkpt>
      <trkpt lat="49.09468" lon="-0.4661">
        <ele>182.6</ele>
        <time>2024-04-07T11:08:28Z</time>
      </trkpt>
      <trkpt lat="49.09476" lon="-0.46597">
        <ele>182.4</ele>
        <time>2024-04-07T11:08:29Z</time>
      </trkpt>
      <trkpt lat="49.09485" lon="-0.46585">
        <ele>182.2</ele>
        <time>2024-04-07T11:08:30Z</time>
      </trkpt>
      <trkpt lat="49.09494" lon="-0.46572">
        <ele>182</ele>
        <time>2024-04-07T11:08:31Z</time>
      </trkpt>
      <trkpt lat="49.09506" lon="-0.46553">
        <ele>181.8</ele>
        <time>2024-04-07T11:08:32Z</time>
      </trkpt>
      <trkpt lat="49.09519" lon="-0.46534">
        <ele>181.4</ele>
        <time>2024-04-07T11:08:33Z</time>
      </trkpt>
      <trkpt lat="49.09523" lon="-0.46528">
        <ele>181</ele>
        <time>2024-04-07T11:08:34Z</time>
      </trkpt>
      <trkpt lat="49.09528" lon="-0.46522">
        <ele>180.8</ele>
        <time>2024-04-07T11:08:35Z</time>
      </trkpt>
      <trkpt lat="49.09536" lon="-0.46509">
        <ele>180.6</ele>
        <time>2024-04-07T11:08:36Z</time>
      </trkpt>
      <trkpt lat="49.09545" lon="-0.46497">
        <ele>180.2</ele>
        <time>2024-04-07T11:08:37Z</time>
      </trkpt>
      <trkpt lat="49.09554" lon="-0.46485">
        <ele>180</ele>
        <time>2024-04-07T11:08:38Z</time>
      </trkpt>
      <trkpt lat="49.09563" lon="-0.46473">
        <ele>179.8</ele>
        <time>2024-04-07T11:08:39Z</time>
      </trkpt>
      <trkpt lat="49.09572" lon="-0.46462">
        <ele>179.4</ele>
        <time>2024-04-07T11:08:40Z</time>
      </trkpt>
      <trkpt lat="49.09581" lon="-0.4645">
        <ele>179.2</ele>
        <time>2024-04-07T11:08:41Z</time>
      </trkpt>
      <trkpt lat="49.0959" lon="-0.46439">
        <ele>178.8</ele>
        <time>2024-04-07T11:08:42Z</time>
      </trkpt>
      <trkpt lat="49.09599" lon="-0.46428">
        <ele>178.6</ele>
        <time>2024-04-07T11:08:43Z</time>
      </trkpt>
      <trkpt lat="49.09608" lon="-0.46418">
        <ele>178.2</ele>
        <time>2024-04-07T11:08:44Z</time>
      </trkpt>
      <trkpt lat="49.09617" lon="-0.46407">
        <ele>178.2</ele>
        <time>2024-04-07T11:08:45Z</time>
      </trkpt>
      <trkpt lat="49.09626" lon="-0.46397">
        <ele>178</ele>
        <time>2024-04-07T11:08:46Z</time>
      </trkpt>
      <trkpt lat="49.09635" lon="-0.46386">
        <ele>177.8</ele>
        <time>2024-04-07T11:08:47Z</time>
      </trkpt>
      <trkpt lat="49.09644" lon="-0.46375">
        <ele>177.6</ele>
        <time>2024-04-07T11:08:48Z</time>
      </trkpt>
      <trkpt lat="49.09653" lon="-0.46364">
        <ele>177.4</ele>
        <time>2024-04-07T11:08:49Z</time>
      </trkpt>
      <trkpt lat="49.09662" lon="-0.46353">
        <ele>177.2</ele>
        <time>2024-04-07T11:08:50Z</time>
      </trkpt>
      <trkpt lat="49.09671" lon="-0.46342">
        <ele>177</ele>
        <time>2024-04-07T11:08:51Z</time>
      </trkpt>
      <trkpt lat="49.0968" lon="-0.46331">
        <ele>176.8</ele>
        <time>2024-04-07T11:08:52Z</time>
      </trkpt>
      <trkpt lat="49.0969" lon="-0.4632">
        <ele>176.6</ele>
        <time>2024-04-07T11:08:53Z</time>
      </trkpt>
      <trkpt lat="49.09699" lon="-0.46309">
        <ele>176.2</ele>
        <time>2024-04-07T11:08:54Z</time>
      </trkpt>
      <trkpt lat="49.09708" lon="-0.46298">
        <ele>175.8</ele>
        <time>2024-04-07T11:08:55Z</time>
      </trkpt>
      <trkpt lat="49.09717" lon="-0.46287">
        <ele>175.4</ele>
        <time>2024-04-07T11:08:56Z</time>
      </trkpt>
      <trkpt lat="49.09726" lon="-0.46276">
        <ele>175</ele>
        <time>2024-04-07T11:08:57Z</time>
      </trkpt>
      <trkpt lat="49.0974" lon="-0.46259">
        <ele>174.4</ele>
        <time>2024-04-07T11:08:58Z</time>
      </trkpt>
      <trkpt lat="49.09745" lon="-0.46254">
        <ele>173.8</ele>
        <time>2024-04-07T11:08:59Z</time>
      </trkpt>
      <trkpt lat="49.09755" lon="-0.46242">
        <ele>173.2</ele>
        <time>2024-04-07T11:09:00Z</time>
      </trkpt>
      <trkpt lat="49.09764" lon="-0.46231">
        <ele>172.8</ele>
        <time>2024-04-07T11:09:01Z</time>
      </trkpt>
      <trkpt lat="49.09773" lon="-0.4622">
        <ele>172.6</ele>
        <time>2024-04-07T11:09:02Z</time>
      </trkpt>
      <trkpt lat="49.09783" lon="-0.46209">
        <ele>172.4</ele>
        <time>2024-04-07T11:09:03Z</time>
      </trkpt>
      <trkpt lat="49.09801" lon="-0.46187">
        <ele>172.2</ele>
        <time>2024-04-07T11:09:04Z</time>
      </trkpt>
      <trkpt lat="49.09811" lon="-0.46175">
        <ele>171.8</ele>
        <time>2024-04-07T11:09:05Z</time>
      </trkpt>
      <trkpt lat="49.09821" lon="-0.46164">
        <ele>171.4</ele>
        <time>2024-04-07T11:09:06Z</time>
      </trkpt>
      <trkpt lat="49.0983" lon="-0.46153">
        <ele>170.8</ele>
        <time>2024-04-07T11:09:07Z</time>
      </trkpt>
      <trkpt lat="49.09838" lon="-0.46144">
        <ele>170.4</ele>
        <time>2024-04-07T11:09:08Z</time>
      </trkpt>
      <trkpt lat="49.09845" lon="-0.46135">
        <ele>169.8</ele>
        <time>2024-04-07T11:09:09Z</time>
      </trkpt>
      <trkpt lat="49.09859" lon="-0.46117">
        <ele>169.2</ele>
        <time>2024-04-07T11:09:10Z</time>
      </trkpt>
      <trkpt lat="49.09864" lon="-0.4611">
        <ele>168.4</ele>
        <time>2024-04-07T11:09:11Z</time>
      </trkpt>
      <trkpt lat="49.09869" lon="-0.46104">
        <ele>167.4</ele>
        <time>2024-04-07T11:09:12Z</time>
      </trkpt>
      <trkpt lat="49.09878" lon="-0.46091">
        <ele>166.2</ele>
        <time>2024-04-07T11:09:13Z</time>
      </trkpt>
      <trkpt lat="49.09887" lon="-0.46077">
        <ele>165</ele>
        <time>2024-04-07T11:09:14Z</time>
      </trkpt>
      <trkpt lat="49.09904" lon="-0.4605">
        <ele>164</ele>
        <time>2024-04-07T11:09:15Z</time>
      </trkpt>
      <trkpt lat="49.09912" lon="-0.46037">
        <ele>162.8</ele>
        <time>2024-04-07T11:09:16Z</time>
      </trkpt>
      <trkpt lat="49.09919" lon="-0.46027">
        <ele>162</ele>
        <time>2024-04-07T11:09:17Z</time>
      </trkpt>
      <trkpt lat="49.09926" lon="-0.46018">
        <ele>161.4</ele>
        <time>2024-04-07T11:09:18Z</time>
      </trkpt>
      <trkpt lat="49.09939" lon="-0.45999">
        <ele>160.8</ele>
        <time>2024-04-07T11:09:19Z</time>
      </trkpt>
      <trkpt lat="49.09939" lon="-0.45999">
        <ele>160.2</ele>
        <time>2024-04-07T11:09:20Z</time>
      </trkpt>
      <trkpt lat="49.09956" lon="-0.45974">
        <ele>159.4</ele>
        <time>2024-04-07T11:09:21Z</time>
      </trkpt>
      <trkpt lat="49.09965" lon="-0.45962">
        <ele>159.2</ele>
        <time>2024-04-07T11:09:22Z</time>
      </trkpt>
      <trkpt lat="49.09974" lon="-0.4595">
        <ele>159</ele>
        <time>2024-04-07T11:09:23Z</time>
      </trkpt>
      <trkpt lat="49.09979" lon="-0.45945">
        <ele>158.8</ele>
        <time>2024-04-07T11:09:24Z</time>
      </trkpt>
      <trkpt lat="49.09983" lon="-0.45939">
        <ele>158.6</ele>
        <time>2024-04-07T11:09:25Z</time>
      </trkpt>
      <trkpt lat="49.09993" lon="-0.45928">
        <ele>158.4</ele>
        <time>2024-04-07T11:09:26Z</time>
      </trkpt>
      <trkpt lat="49.10002" lon="-0.45917">
        <ele>158.2</ele>
        <time>2024-04-07T11:09:27Z</time>
      </trkpt>
      <trkpt lat="49.10011" lon="-0.45907">
        <ele>157.8</ele>
        <time>2024-04-07T11:09:28Z</time>
      </trkpt>
      <trkpt lat="49.10028" lon="-0.45889">
        <ele>157.4</ele>
        <time>2024-04-07T11:09:29Z</time>
      </trkpt>
      <trkpt lat="49.10035" lon="-0.45882">
        <ele>156.8</ele>
        <time>2024-04-07T11:09:30Z</time>
      </trkpt>
      <trkpt lat="49.1005" lon="-0.45867">
        <ele>156</ele>
        <time>2024-04-07T11:09:31Z</time>
      </trkpt>
      <trkpt lat="49.10057" lon="-0.45859">
        <ele>154.8</ele>
        <time>2024-04-07T11:09:32Z</time>
      </trkpt>
      <trkpt lat="49.10065" lon="-0.45851">
        <ele>153.4</ele>
        <time>2024-04-07T11:09:33Z</time>
      </trkpt>
      <trkpt lat="49.10079" lon="-0.45835">
        <ele>152</ele>
        <time>2024-04-07T11:09:34Z</time>
      </trkpt>
      <trkpt lat="49.10084" lon="-0.4583">
        <ele>150.6</ele>
        <time>2024-04-07T11:09:35Z</time>
      </trkpt>
      <trkpt lat="49.10089" lon="-0.45825">
        <ele>149.4</ele>
        <time>2024-04-07T11:09:36Z</time>
      </trkpt>
      <trkpt lat="49.10099" lon="-0.45814">
        <ele>148.4</ele>
        <time>2024-04-07T11:09:37Z</time>
      </trkpt>
      <trkpt lat="49.10116" lon="-0.45795">
        <ele>147.8</ele>
        <time>2024-04-07T11:09:38Z</time>
      </trkpt>
      <trkpt lat="49.10124" lon="-0.45787">
        <ele>147.2</ele>
        <time>2024-04-07T11:09:39Z</time>
      </trkpt>
      <trkpt lat="49.10138" lon="-0.45769">
        <ele>146.6</ele>
        <time>2024-04-07T11:09:40Z</time>
      </trkpt>
      <trkpt lat="49.10147" lon="-0.45757">
        <ele>146</ele>
        <time>2024-04-07T11:09:41Z</time>
      </trkpt>
      <trkpt lat="49.10147" lon="-0.45757">
        <ele>145.6</ele>
        <time>2024-04-07T11:09:42Z</time>
      </trkpt>
      <trkpt lat="49.10156" lon="-0.45745">
        <ele>145</ele>
        <time>2024-04-07T11:09:43Z</time>
      </trkpt>
      <trkpt lat="49.10169" lon="-0.45727">
        <ele>144.2</ele>
        <time>2024-04-07T11:09:44Z</time>
      </trkpt>
      <trkpt lat="49.10173" lon="-0.4572">
        <ele>143.2</ele>
        <time>2024-04-07T11:09:45Z</time>
      </trkpt>
      <trkpt lat="49.10182" lon="-0.45708">
        <ele>142</ele>
        <time>2024-04-07T11:09:46Z</time>
      </trkpt>
      <trkpt lat="49.10191" lon="-0.45697">
        <ele>141.2</ele>
        <time>2024-04-07T11:09:47Z</time>
      </trkpt>
      <trkpt lat="49.102" lon="-0.45685">
        <ele>140.4</ele>
        <time>2024-04-07T11:09:48Z</time>
      </trkpt>
      <trkpt lat="49.10209" lon="-0.45675">
        <ele>139.6</ele>
        <time>2024-04-07T11:09:49Z</time>
      </trkpt>
      <trkpt lat="49.10219" lon="-0.45662">
        <ele>138.8</ele>
        <time>2024-04-07T11:09:50Z</time>
      </trkpt>
      <trkpt lat="49.10233" lon="-0.45643">
        <ele>137.8</ele>
        <time>2024-04-07T11:09:51Z</time>
      </trkpt>
      <trkpt lat="49.10238" lon="-0.45637">
        <ele>136.6</ele>
        <time>2024-04-07T11:09:52Z</time>
      </trkpt>
      <trkpt lat="49.10247" lon="-0.45624">
        <ele>135.6</ele>
        <time>2024-04-07T11:09:53Z</time>
      </trkpt>
      <trkpt lat="49.10256" lon="-0.45611">
        <ele>134.8</ele>
        <time>2024-04-07T11:09:54Z</time>
      </trkpt>
      <trkpt lat="49.10266" lon="-0.45599">
        <ele>134</ele>
        <time>2024-04-07T11:09:55Z</time>
      </trkpt>
      <trkpt lat="49.10275" lon="-0.45587">
        <ele>133.6</ele>
        <time>2024-04-07T11:09:56Z</time>
      </trkpt>
      <trkpt lat="49.10284" lon="-0.45576">
        <ele>133.6</ele>
        <time>2024-04-07T11:09:57Z</time>
      </trkpt>
      <trkpt lat="49.10294" lon="-0.45566">
        <ele>133.6</ele>
        <time>2024-04-07T11:09:58Z</time>
      </trkpt>
      <trkpt lat="49.10303" lon="-0.45557">
        <ele>133.8</ele>
        <time>2024-04-07T11:09:59Z</time>
      </trkpt>
      <trkpt lat="49.10317" lon="-0.45546">
        <ele>134</ele>
        <time>2024-04-07T11:10:00Z</time>
      </trkpt>
      <trkpt lat="49.10322" lon="-0.45543">
        <ele>134.4</ele>
        <time>2024-04-07T11:10:01Z</time>
      </trkpt>
      <trkpt lat="49.10331" lon="-0.45536">
        <ele>134.6</ele>
        <time>2024-04-07T11:10:02Z</time>
      </trkpt>
      <trkpt lat="49.10341" lon="-0.45532">
        <ele>134.6</ele>
        <time>2024-04-07T11:10:03Z</time>
      </trkpt>
      <trkpt lat="49.1035" lon="-0.45529">
        <ele>134.8</ele>
        <time>2024-04-07T11:10:04Z</time>
      </trkpt>
      <trkpt lat="49.10368" lon="-0.45525">
        <ele>135</ele>
        <time>2024-04-07T11:10:05Z</time>
      </trkpt>
      <trkpt lat="49.10373" lon="-0.45524">
        <ele>135.4</ele>
        <time>2024-04-07T11:10:06Z</time>
      </trkpt>
      <trkpt lat="49.10377" lon="-0.45524">
        <ele>136</ele>
        <time>2024-04-07T11:10:07Z</time>
      </trkpt>
      <trkpt lat="49.10392" lon="-0.45522">
        <ele>136.6</ele>
        <time>2024-04-07T11:10:08Z</time>
      </trkpt>
      <trkpt lat="49.104" lon="-0.45521">
        <ele>137.2</ele>
        <time>2024-04-07T11:10:09Z</time>
      </trkpt>
      <trkpt lat="49.10403" lon="-0.45521">
        <ele>138</ele>
        <time>2024-04-07T11:10:10Z</time>
      </trkpt>
      <trkpt lat="49.10406" lon="-0.45521">
        <ele>139</ele>
        <time>2024-04-07T11:10:11Z</time>
      </trkpt>
      <trkpt lat="49.10419" lon="-0.45519">
        <ele>139.8</ele>
        <time>2024-04-07T11:10:12Z</time>
      </trkpt>
      <trkpt lat="49.10426" lon="-0.45517">
        <ele>140.6</ele>
        <time>2024-04-07T11:10:13Z</time>
      </trkpt>
      <trkpt lat="49.10431" lon="-0.45516">
        <ele>141.2</ele>
        <time>2024-04-07T11:10:14Z</time>
      </trkpt>
      <trkpt lat="49.10437" lon="-0.45515">
        <ele>141.8</ele>
        <time>2024-04-07T11:10:15Z</time>
      </trkpt>
      <trkpt lat="49.10442" lon="-0.45514">
        <ele>142.4</ele>
        <time>2024-04-07T11:10:16Z</time>
      </trkpt>
      <trkpt lat="49.10447" lon="-0.45513">
        <ele>143</ele>
        <time>2024-04-07T11:10:17Z</time>
      </trkpt>
      <trkpt lat="49.10453" lon="-0.45512">
        <ele>143.6</ele>
        <time>2024-04-07T11:10:18Z</time>
      </trkpt>
      <trkpt lat="49.10458" lon="-0.45511">
        <ele>144.2</ele>
        <time>2024-04-07T11:10:19Z</time>
      </trkpt>
      <trkpt lat="49.10462" lon="-0.4551">
        <ele>144.8</ele>
        <time>2024-04-07T11:10:20Z</time>
      </trkpt>
      <trkpt lat="49.10467" lon="-0.45509">
        <ele>145.2</ele>
        <time>2024-04-07T11:10:21Z</time>
      </trkpt>
      <trkpt lat="49.10472" lon="-0.45508">
        <ele>145.8</ele>
        <time>2024-04-07T11:10:22Z</time>
      </trkpt>
      <trkpt lat="49.10476" lon="-0.45507">
        <ele>146</ele>
        <time>2024-04-07T11:10:23Z</time>
      </trkpt>
      <trkpt lat="49.10481" lon="-0.45507">
        <ele>146.6</ele>
        <time>2024-04-07T11:10:24Z</time>
      </trkpt>
      <trkpt lat="49.10485" lon="-0.45506">
        <ele>147</ele>
        <time>2024-04-07T11:10:25Z</time>
      </trkpt>
      <trkpt lat="49.10489" lon="-0.45505">
        <ele>147.4</ele>
        <time>2024-04-07T11:10:26Z</time>
      </trkpt>
      <trkpt lat="49.10494" lon="-0.45504">
        <ele>147.8</ele>
        <time>2024-04-07T11:10:27Z</time>
      </trkpt>
      <trkpt lat="49.10498" lon="-0.45503">
        <ele>148.4</ele>
        <time>2024-04-07T11:10:28Z</time>
      </trkpt>
      <trkpt lat="49.10503" lon="-0.45502">
        <ele>148.8</ele>
        <time>2024-04-07T11:10:29Z</time>
      </trkpt>
      <trkpt lat="49.10507" lon="-0.45502">
        <ele>149</ele>
        <time>2024-04-07T11:10:30Z</time>
      </trkpt>
      <trkpt lat="49.10512" lon="-0.45501">
        <ele>149.2</ele>
        <time>2024-04-07T11:10:31Z</time>
      </trkpt>
      <trkpt lat="49.10516" lon="-0.455">
        <ele>149.4</ele>
        <time>2024-04-07T11:10:32Z</time>
      </trkpt>
      <trkpt lat="49.1052" lon="-0.45499">
        <ele>149.8</ele>
        <time>2024-04-07T11:10:33Z</time>
      </trkpt>
      <trkpt lat="49.10525" lon="-0.45498">
        <ele>150.2</ele>
        <time>2024-04-07T11:10:34Z</time>
      </trkpt>
      <trkpt lat="49.10529" lon="-0.45498">
        <ele>150.6</ele>
        <time>2024-04-07T11:10:35Z</time>
      </trkpt>
      <trkpt lat="49.10533" lon="-0.45497">
        <ele>151</ele>
        <time>2024-04-07T11:10:36Z</time>
      </trkpt>
      <trkpt lat="49.10537" lon="-0.45496">
        <ele>151.4</ele>
        <time>2024-04-07T11:10:37Z</time>
      </trkpt>
      <trkpt lat="49.10542" lon="-0.45495">
        <ele>151.8</ele>
        <time>2024-04-07T11:10:38Z</time>
      </trkpt>
      <trkpt lat="49.10545" lon="-0.45494">
        <ele>152.2</ele>
        <time>2024-04-07T11:10:39Z</time>
      </trkpt>
      <trkpt lat="49.10549" lon="-0.45493">
        <ele>152.6</ele>
        <time>2024-04-07T11:10:40Z</time>
      </trkpt>
      <trkpt lat="49.10553" lon="-0.45492">
        <ele>153</ele>
        <time>2024-04-07T11:10:41Z</time>
      </trkpt>
      <trkpt lat="49.10557" lon="-0.45491">
        <ele>153.4</ele>
        <time>2024-04-07T11:10:42Z</time>
      </trkpt>
      <trkpt lat="49.10562" lon="-0.4549">
        <ele>153.8</ele>
        <time>2024-04-07T11:10:43Z</time>
      </trkpt>
      <trkpt lat="49.10566" lon="-0.45489">
        <ele>154.2</ele>
        <time>2024-04-07T11:10:44Z</time>
      </trkpt>
      <trkpt lat="49.1057" lon="-0.45488">
        <ele>154.6</ele>
        <time>2024-04-07T11:10:45Z</time>
      </trkpt>
      <trkpt lat="49.1057" lon="-0.45488">
        <ele>155</ele>
        <time>2024-04-07T11:10:46Z</time>
      </trkpt>
      <trkpt lat="49.10577" lon="-0.45486">
        <ele>155.6</ele>
        <time>2024-04-07T11:10:47Z</time>
      </trkpt>
      <trkpt lat="49.10579" lon="-0.45486">
        <ele>156</ele>
        <time>2024-04-07T11:10:48Z</time>
      </trkpt>
      <trkpt lat="49.10583" lon="-0.45484">
        <ele>156.2</ele>
        <time>2024-04-07T11:10:49Z</time>
      </trkpt>
      <trkpt lat="49.1059" lon="-0.45482">
        <ele>156.6</ele>
        <time>2024-04-07T11:10:50Z</time>
      </trkpt>
      <trkpt lat="49.10592" lon="-0.45481">
        <ele>156.8</ele>
        <time>2024-04-07T11:10:51Z</time>
      </trkpt>
      <trkpt lat="49.10597" lon="-0.45479">
        <ele>157</ele>
        <time>2024-04-07T11:10:52Z</time>
      </trkpt>
      <trkpt lat="49.10601" lon="-0.45477">
        <ele>157.2</ele>
        <time>2024-04-07T11:10:53Z</time>
      </trkpt>
      <trkpt lat="49.1061" lon="-0.45473">
        <ele>157.4</ele>
        <time>2024-04-07T11:10:54Z</time>
      </trkpt>
      <trkpt lat="49.10612" lon="-0.45471">
        <ele>157.6</ele>
        <time>2024-04-07T11:10:55Z</time>
      </trkpt>
      <trkpt lat="49.10614" lon="-0.4547">
        <ele>158</ele>
        <time>2024-04-07T11:10:56Z</time>
      </trkpt>
      <trkpt lat="49.10619" lon="-0.45468">
        <ele>158.4</ele>
        <time>2024-04-07T11:10:57Z</time>
      </trkpt>
      <trkpt lat="49.10627" lon="-0.45463">
        <ele>158.6</ele>
        <time>2024-04-07T11:10:58Z</time>
      </trkpt>
      <trkpt lat="49.10632" lon="-0.4546">
        <ele>158.8</ele>
        <time>2024-04-07T11:10:59Z</time>
      </trkpt>
      <trkpt lat="49.10634" lon="-0.45459">
        <ele>158.8</ele>
        <time>2024-04-07T11:11:00Z</time>
      </trkpt>
      <trkpt lat="49.10636" lon="-0.45458">
        <ele>159</ele>
        <time>2024-04-07T11:11:01Z</time>
      </trkpt>
      <trkpt lat="49.10641" lon="-0.45455">
        <ele>159.2</ele>
        <time>2024-04-07T11:11:02Z</time>
      </trkpt>
      <trkpt lat="49.10645" lon="-0.45453">
        <ele>159.6</ele>
        <time>2024-04-07T11:11:03Z</time>
      </trkpt>
      <trkpt lat="49.10649" lon="-0.4545">
        <ele>160</ele>
        <time>2024-04-07T11:11:04Z</time>
      </trkpt>
      <trkpt lat="49.10658" lon="-0.45445">
        <ele>160.2</ele>
        <time>2024-04-07T11:11:05Z</time>
      </trkpt>
      <trkpt lat="49.10662" lon="-0.45442">
        <ele>160.6</ele>
        <time>2024-04-07T11:11:06Z</time>
      </trkpt>
      <trkpt lat="49.10667" lon="-0.45439">
        <ele>160.8</ele>
        <time>2024-04-07T11:11:07Z</time>
      </trkpt>
      <trkpt lat="49.10669" lon="-0.45437">
        <ele>161</ele>
        <time>2024-04-07T11:11:08Z</time>
      </trkpt>
      <trkpt lat="49.10671" lon="-0.45436">
        <ele>161.6</ele>
        <time>2024-04-07T11:11:09Z</time>
      </trkpt>
      <trkpt lat="49.10675" lon="-0.45432">
        <ele>162</ele>
        <time>2024-04-07T11:11:10Z</time>
      </trkpt>
      <trkpt lat="49.1068" lon="-0.45429">
        <ele>162.2</ele>
        <time>2024-04-07T11:11:11Z</time>
      </trkpt>
      <trkpt lat="49.10689" lon="-0.45422">
        <ele>162.6</ele>
        <time>2024-04-07T11:11:12Z</time>
      </trkpt>
      <trkpt lat="49.10689" lon="-0.45422">
        <ele>162.6</ele>
        <time>2024-04-07T11:11:13Z</time>
      </trkpt>
      <trkpt lat="49.10693" lon="-0.45419">
        <ele>162.8</ele>
        <time>2024-04-07T11:11:14Z</time>
      </trkpt>
      <trkpt lat="49.107" lon="-0.45414">
        <ele>163</ele>
        <time>2024-04-07T11:11:15Z</time>
      </trkpt>
      <trkpt lat="49.10702" lon="-0.45412">
        <ele>163.2</ele>
        <time>2024-04-07T11:11:16Z</time>
      </trkpt>
      <trkpt lat="49.10707" lon="-0.45408">
        <ele>163.4</ele>
        <time>2024-04-07T11:11:17Z</time>
      </trkpt>
      <trkpt lat="49.10714" lon="-0.45402">
        <ele>163.4</ele>
        <time>2024-04-07T11:11:18Z</time>
      </trkpt>
      <trkpt lat="49.10716" lon="-0.454">
        <ele>163.4</ele>
        <time>2024-04-07T11:11:19Z</time>
      </trkpt>
      <trkpt lat="49.10724" lon="-0.45393">
        <ele>163.4</ele>
        <time>2024-04-07T11:11:20Z</time>
      </trkpt>
      <trkpt lat="49.10728" lon="-0.4539">
        <ele>163.4</ele>
        <time>2024-04-07T11:11:21Z</time>
      </trkpt>
      <trkpt lat="49.10735" lon="-0.45383">
        <ele>163.4</ele>
        <time>2024-04-07T11:11:22Z</time>
      </trkpt>
      <trkpt lat="49.10739" lon="-0.4538">
        <ele>163.4</ele>
        <time>2024-04-07T11:11:23Z</time>
      </trkpt>
      <trkpt lat="49.10743" lon="-0.45377">
        <ele>163.6</ele>
        <time>2024-04-07T11:11:24Z</time>
      </trkpt>
      <trkpt lat="49.1075" lon="-0.45371">
        <ele>163.6</ele>
        <time>2024-04-07T11:11:25Z</time>
      </trkpt>
      <trkpt lat="49.10753" lon="-0.45369">
        <ele>163.8</ele>
        <time>2024-04-07T11:11:26Z</time>
      </trkpt>
      <trkpt lat="49.10755" lon="-0.45367">
        <ele>164</ele>
        <time>2024-04-07T11:11:27Z</time>
      </trkpt>
      <trkpt lat="49.10763" lon="-0.4536">
        <ele>164.2</ele>
        <time>2024-04-07T11:11:28Z</time>
      </trkpt>
      <trkpt lat="49.10765" lon="-0.45358">
        <ele>164.4</ele>
        <time>2024-04-07T11:11:29Z</time>
      </trkpt>
      <trkpt lat="49.1077" lon="-0.45354">
        <ele>164.4</ele>
        <time>2024-04-07T11:11:30Z</time>
      </trkpt>
      <trkpt lat="49.10776" lon="-0.4535">
        <ele>164.6</ele>
        <time>2024-04-07T11:11:31Z</time>
      </trkpt>
      <trkpt lat="49.10781" lon="-0.45346">
        <ele>164.6</ele>
        <time>2024-04-07T11:11:32Z</time>
      </trkpt>
      <trkpt lat="49.10791" lon="-0.45338">
        <ele>164.6</ele>
        <time>2024-04-07T11:11:33Z</time>
      </trkpt>
      <trkpt lat="49.10793" lon="-0.45336">
        <ele>164.6</ele>
        <time>2024-04-07T11:11:34Z</time>
      </trkpt>
      <trkpt lat="49.10796" lon="-0.45334">
        <ele>164.6</ele>
        <time>2024-04-07T11:11:35Z</time>
      </trkpt>
      <trkpt lat="49.10801" lon="-0.45331">
        <ele>164.8</ele>
        <time>2024-04-07T11:11:36Z</time>
      </trkpt>
      <trkpt lat="49.10809" lon="-0.45325">
        <ele>164.8</ele>
        <time>2024-04-07T11:11:37Z</time>
      </trkpt>
      <trkpt lat="49.10811" lon="-0.45323">
        <ele>164.8</ele>
        <time>2024-04-07T11:11:38Z</time>
      </trkpt>
      <trkpt lat="49.10822" lon="-0.45316">
        <ele>165</ele>
        <time>2024-04-07T11:11:39Z</time>
      </trkpt>
      <trkpt lat="49.10822" lon="-0.45316">
        <ele>165</ele>
        <time>2024-04-07T11:11:40Z</time>
      </trkpt>
      <trkpt lat="49.10832" lon="-0.4531">
        <ele>165</ele>
        <time>2024-04-07T11:11:41Z</time>
      </trkpt>
      <trkpt lat="49.10836" lon="-0.45308">
        <ele>165</ele>
        <time>2024-04-07T11:11:42Z</time>
      </trkpt>
      <trkpt lat="49.10844" lon="-0.45304">
        <ele>165.2</ele>
        <time>2024-04-07T11:11:43Z</time>
      </trkpt>
      <trkpt lat="49.10844" lon="-0.45304">
        <ele>165.4</ele>
        <time>2024-04-07T11:11:44Z</time>
      </trkpt>
      <trkpt lat="49.10853" lon="-0.453">
        <ele>165.4</ele>
        <time>2024-04-07T11:11:45Z</time>
      </trkpt>
      <trkpt lat="49.10855" lon="-0.45298">
        <ele>165.6</ele>
        <time>2024-04-07T11:11:46Z</time>
      </trkpt>
      <trkpt lat="49.10861" lon="-0.45296">
        <ele>165.6</ele>
        <time>2024-04-07T11:11:47Z</time>
      </trkpt>
      <trkpt lat="49.10871" lon="-0.45293">
        <ele>165.6</ele>
        <time>2024-04-07T11:11:48Z</time>
      </trkpt>
      <trkpt lat="49.10876" lon="-0.45291">
        <ele>165.6</ele>
        <time>2024-04-07T11:11:49Z</time>
      </trkpt>
      <trkpt lat="49.10878" lon="-0.4529">
        <ele>165.6</ele>
        <time>2024-04-07T11:11:50Z</time>
      </trkpt>
      <trkpt lat="49.1088" lon="-0.45289">
        <ele>165.8</ele>
        <time>2024-04-07T11:11:51Z</time>
      </trkpt>
      <trkpt lat="49.10885" lon="-0.45286">
        <ele>166</ele>
        <time>2024-04-07T11:11:52Z</time>
      </trkpt>
      <trkpt lat="49.10889" lon="-0.45282">
        <ele>166.2</ele>
        <time>2024-04-07T11:11:53Z</time>
      </trkpt>
      <trkpt lat="49.10892" lon="-0.45276">
        <ele>166.2</ele>
        <time>2024-04-07T11:11:54Z</time>
      </trkpt>
      <trkpt lat="49.10895" lon="-0.45269">
        <ele>166.2</ele>
        <time>2024-04-07T11:11:55Z</time>
      </trkpt>
      <trkpt lat="49.10896" lon="-0.45262">
        <ele>166.2</ele>
        <time>2024-04-07T11:11:56Z</time>
      </trkpt>
      <trkpt lat="49.10898" lon="-0.45244">
        <ele>166</ele>
        <time>2024-04-07T11:11:57Z</time>
      </trkpt>
      <trkpt lat="49.10898" lon="-0.45244">
        <ele>166</ele>
        <time>2024-04-07T11:11:58Z</time>
      </trkpt>
      <trkpt lat="49.109" lon="-0.45231">
        <ele>165.8</ele>
        <time>2024-04-07T11:11:59Z</time>
      </trkpt>
      <trkpt lat="49.10901" lon="-0.45227">
        <ele>165.8</ele>
        <time>2024-04-07T11:12:00Z</time>
      </trkpt>
      <trkpt lat="49.10903" lon="-0.45213">
        <ele>165.6</ele>
        <time>2024-04-07T11:12:01Z</time>
      </trkpt>
      <trkpt lat="49.10903" lon="-0.45209">
        <ele>165.6</ele>
        <time>2024-04-07T11:12:02Z</time>
      </trkpt>
      <trkpt lat="49.10904" lon="-0.452">
        <ele>165.4</ele>
        <time>2024-04-07T11:12:03Z</time>
      </trkpt>
      <trkpt lat="49.10906" lon="-0.45185">
        <ele>165.4</ele>
        <time>2024-04-07T11:12:04Z</time>
      </trkpt>
      <trkpt lat="49.10907" lon="-0.45178">
        <ele>165.2</ele>
        <time>2024-04-07T11:12:05Z</time>
      </trkpt>
      <trkpt lat="49.10908" lon="-0.45164">
        <ele>165.2</ele>
        <time>2024-04-07T11:12:06Z</time>
      </trkpt>
      <trkpt lat="49.1091" lon="-0.45155">
        <ele>165</ele>
        <time>2024-04-07T11:12:07Z</time>
      </trkpt>
      <trkpt lat="49.1091" lon="-0.45155">
        <ele>165</ele>
        <time>2024-04-07T11:12:08Z</time>
      </trkpt>
      <trkpt lat="49.10911" lon="-0.4514">
        <ele>165</ele>
        <time>2024-04-07T11:12:09Z</time>
      </trkpt>
      <trkpt lat="49.10912" lon="-0.45135">
        <ele>165</ele>
        <time>2024-04-07T11:12:10Z</time>
      </trkpt>
      <trkpt lat="49.10913" lon="-0.45125">
        <ele>165</ele>
        <time>2024-04-07T11:12:11Z</time>
      </trkpt>
      <trkpt lat="49.10915" lon="-0.45106">
        <ele>164.6</ele>
        <time>2024-04-07T11:12:12Z</time>
      </trkpt>
      <trkpt lat="49.10916" lon="-0.45098">
        <ele>164.4</ele>
        <time>2024-04-07T11:12:13Z</time>
      </trkpt>
      <trkpt lat="49.10916" lon="-0.45091">
        <ele>164.4</ele>
        <time>2024-04-07T11:12:14Z</time>
      </trkpt>
      <trkpt lat="49.10918" lon="-0.45076">
        <ele>164.2</ele>
        <time>2024-04-07T11:12:15Z</time>
      </trkpt>
      <trkpt lat="49.10918" lon="-0.45076">
        <ele>164</ele>
        <time>2024-04-07T11:12:16Z</time>
      </trkpt>
      <trkpt lat="49.10921" lon="-0.45056">
        <ele>164</ele>
        <time>2024-04-07T11:12:17Z</time>
      </trkpt>
      <trkpt lat="49.10921" lon="-0.45051">
        <ele>164</ele>
        <time>2024-04-07T11:12:18Z</time>
      </trkpt>
      <trkpt lat="49.10922" lon="-0.45046">
        <ele>164</ele>
        <time>2024-04-07T11:12:19Z</time>
      </trkpt>
      <trkpt lat="49.10923" lon="-0.45035">
        <ele>164</ele>
        <time>2024-04-07T11:12:20Z</time>
      </trkpt>
      <trkpt lat="49.10926" lon="-0.45014">
        <ele>163.8</ele>
        <time>2024-04-07T11:12:21Z</time>
      </trkpt>
      <trkpt lat="49.10927" lon="-0.45003">
        <ele>163.8</ele>
        <time>2024-04-07T11:12:22Z</time>
      </trkpt>
      <trkpt lat="49.10928" lon="-0.44992">
        <ele>163.6</ele>
        <time>2024-04-07T11:12:23Z</time>
      </trkpt>
      <trkpt lat="49.10929" lon="-0.44981">
        <ele>163.4</ele>
        <time>2024-04-07T11:12:24Z</time>
      </trkpt>
      <trkpt lat="49.10931" lon="-0.4497">
        <ele>163.2</ele>
        <time>2024-04-07T11:12:25Z</time>
      </trkpt>
      <trkpt lat="49.10931" lon="-0.4497">
        <ele>163</ele>
        <time>2024-04-07T11:12:26Z</time>
      </trkpt>
      <trkpt lat="49.10932" lon="-0.44959">
        <ele>162.8</ele>
        <time>2024-04-07T11:12:27Z</time>
      </trkpt>
      <trkpt lat="49.10933" lon="-0.44942">
        <ele>162.6</ele>
        <time>2024-04-07T11:12:28Z</time>
      </trkpt>
      <trkpt lat="49.10934" lon="-0.44937">
        <ele>162.6</ele>
        <time>2024-04-07T11:12:29Z</time>
      </trkpt>
      <trkpt lat="49.10935" lon="-0.44925">
        <ele>162.6</ele>
        <time>2024-04-07T11:12:30Z</time>
      </trkpt>
      <trkpt lat="49.10936" lon="-0.44914">
        <ele>162.6</ele>
        <time>2024-04-07T11:12:31Z</time>
      </trkpt>
      <trkpt lat="49.10936" lon="-0.44903">
        <ele>162.8</ele>
        <time>2024-04-07T11:12:32Z</time>
      </trkpt>
      <trkpt lat="49.10937" lon="-0.44891">
        <ele>163</ele>
        <time>2024-04-07T11:12:33Z</time>
      </trkpt>
      <trkpt lat="49.10937" lon="-0.44879">
        <ele>163</ele>
        <time>2024-04-07T11:12:34Z</time>
      </trkpt>
      <trkpt lat="49.10938" lon="-0.44868">
        <ele>163.2</ele>
        <time>2024-04-07T11:12:35Z</time>
      </trkpt>
      <trkpt lat="49.10938" lon="-0.44856">
        <ele>163</ele>
        <time>2024-04-07T11:12:36Z</time>
      </trkpt>
      <trkpt lat="49.10938" lon="-0.44835">
        <ele>162.8</ele>
        <time>2024-04-07T11:12:37Z</time>
      </trkpt>
      <trkpt lat="49.10938" lon="-0.44826">
        <ele>162.6</ele>
        <time>2024-04-07T11:12:38Z</time>
      </trkpt>
      <trkpt lat="49.10938" lon="-0.44809">
        <ele>162.4</ele>
        <time>2024-04-07T11:12:39Z</time>
      </trkpt>
      <trkpt lat="49.10938" lon="-0.44803">
        <ele>162.4</ele>
        <time>2024-04-07T11:12:40Z</time>
      </trkpt>
      <trkpt lat="49.10938" lon="-0.44797">
        <ele>162.2</ele>
        <time>2024-04-07T11:12:41Z</time>
      </trkpt>
      <trkpt lat="49.10937" lon="-0.44776">
        <ele>162.2</ele>
        <time>2024-04-07T11:12:42Z</time>
      </trkpt>
      <trkpt lat="49.10936" lon="-0.44767">
        <ele>161.8</ele>
        <time>2024-04-07T11:12:43Z</time>
      </trkpt>
      <trkpt lat="49.10935" lon="-0.44749">
        <ele>161.6</ele>
        <time>2024-04-07T11:12:44Z</time>
      </trkpt>
      <trkpt lat="49.10935" lon="-0.44742">
        <ele>161.4</ele>
        <time>2024-04-07T11:12:45Z</time>
      </trkpt>
      <trkpt lat="49.10934" lon="-0.44736">
        <ele>161.2</ele>
        <time>2024-04-07T11:12:46Z</time>
      </trkpt>
      <trkpt lat="49.10934" lon="-0.44724">
        <ele>160.8</ele>
        <time>2024-04-07T11:12:47Z</time>
      </trkpt>
      <trkpt lat="49.10933" lon="-0.44712">
        <ele>160.6</ele>
        <time>2024-04-07T11:12:48Z</time>
      </trkpt>
      <trkpt lat="49.10932" lon="-0.44688">
        <ele>160.6</ele>
        <time>2024-04-07T11:12:49Z</time>
      </trkpt>
      <trkpt lat="49.10931" lon="-0.44681">
        <ele>160.4</ele>
        <time>2024-04-07T11:12:50Z</time>
      </trkpt>
      <trkpt lat="49.10931" lon="-0.44675">
        <ele>160.4</ele>
        <time>2024-04-07T11:12:51Z</time>
      </trkpt>
      <trkpt lat="49.1093" lon="-0.44663">
        <ele>160.4</ele>
        <time>2024-04-07T11:12:52Z</time>
      </trkpt>
      <trkpt lat="49.10929" lon="-0.4465">
        <ele>160.4</ele>
        <time>2024-04-07T11:12:53Z</time>
      </trkpt>
      <trkpt lat="49.10928" lon="-0.44631">
        <ele>160.4</ele>
        <time>2024-04-07T11:12:54Z</time>
      </trkpt>
      <trkpt lat="49.10928" lon="-0.44625">
        <ele>160.4</ele>
        <time>2024-04-07T11:12:55Z</time>
      </trkpt>
      <trkpt lat="49.10927" lon="-0.44612">
        <ele>160.2</ele>
        <time>2024-04-07T11:12:56Z</time>
      </trkpt>
      <trkpt lat="49.10926" lon="-0.44587">
        <ele>160.2</ele>
        <time>2024-04-07T11:12:57Z</time>
      </trkpt>
      <trkpt lat="49.10926" lon="-0.44587">
        <ele>160</ele>
        <time>2024-04-07T11:12:58Z</time>
      </trkpt>
      <trkpt lat="49.10925" lon="-0.44569">
        <ele>160</ele>
        <time>2024-04-07T11:12:59Z</time>
      </trkpt>
      <trkpt lat="49.10925" lon="-0.44562">
        <ele>160</ele>
        <time>2024-04-07T11:13:00Z</time>
      </trkpt>
      <trkpt lat="49.10924" lon="-0.44538">
        <ele>160</ele>
        <time>2024-04-07T11:13:01Z</time>
      </trkpt>
      <trkpt lat="49.10924" lon="-0.44538">
        <ele>160</ele>
        <time>2024-04-07T11:13:02Z</time>
      </trkpt>
      <trkpt lat="49.10923" lon="-0.44525">
        <ele>159.8</ele>
        <time>2024-04-07T11:13:03Z</time>
      </trkpt>
      <trkpt lat="49.10923" lon="-0.44512">
        <ele>159.8</ele>
        <time>2024-04-07T11:13:04Z</time>
      </trkpt>
      <trkpt lat="49.10922" lon="-0.44493">
        <ele>159.8</ele>
        <time>2024-04-07T11:13:05Z</time>
      </trkpt>
      <trkpt lat="49.10922" lon="-0.44487">
        <ele>159.8</ele>
        <time>2024-04-07T11:13:06Z</time>
      </trkpt>
      <trkpt lat="49.10922" lon="-0.44474">
        <ele>159.8</ele>
        <time>2024-04-07T11:13:07Z</time>
      </trkpt>
      <trkpt lat="49.10921" lon="-0.44461">
        <ele>159.8</ele>
        <time>2024-04-07T11:13:08Z</time>
      </trkpt>
      <trkpt lat="49.10921" lon="-0.44442">
        <ele>159.8</ele>
        <time>2024-04-07T11:13:09Z</time>
      </trkpt>
      <trkpt lat="49.10921" lon="-0.44436">
        <ele>159.8</ele>
        <time>2024-04-07T11:13:10Z</time>
      </trkpt>
      <trkpt lat="49.1092" lon="-0.44416">
        <ele>159.6</ele>
        <time>2024-04-07T11:13:11Z</time>
      </trkpt>
      <trkpt lat="49.1092" lon="-0.4441">
        <ele>159.6</ele>
        <time>2024-04-07T11:13:12Z</time>
      </trkpt>
      <trkpt lat="49.1092" lon="-0.44397">
        <ele>159.6</ele>
        <time>2024-04-07T11:13:13Z</time>
      </trkpt>
      <trkpt lat="49.1092" lon="-0.44384">
        <ele>159.6</ele>
        <time>2024-04-07T11:13:14Z</time>
      </trkpt>
      <trkpt lat="49.10919" lon="-0.44371">
        <ele>159.4</ele>
        <time>2024-04-07T11:13:15Z</time>
      </trkpt>
      <trkpt lat="49.10919" lon="-0.44351">
        <ele>159.4</ele>
        <time>2024-04-07T11:13:16Z</time>
      </trkpt>
      <trkpt lat="49.10919" lon="-0.44345">
        <ele>159.4</ele>
        <time>2024-04-07T11:13:17Z</time>
      </trkpt>
      <trkpt lat="49.10919" lon="-0.44325">
        <ele>159.4</ele>
        <time>2024-04-07T11:13:18Z</time>
      </trkpt>
      <trkpt lat="49.10919" lon="-0.44318">
        <ele>159.2</ele>
        <time>2024-04-07T11:13:19Z</time>
      </trkpt>
      <trkpt lat="49.10918" lon="-0.44292">
        <ele>159</ele>
        <time>2024-04-07T11:13:20Z</time>
      </trkpt>
      <trkpt lat="49.10918" lon="-0.44285">
        <ele>158.8</ele>
        <time>2024-04-07T11:13:21Z</time>
      </trkpt>
      <trkpt lat="49.10918" lon="-0.44279">
        <ele>158.8</ele>
        <time>2024-04-07T11:13:22Z</time>
      </trkpt>
      <trkpt lat="49.10917" lon="-0.44259">
        <ele>158.8</ele>
        <time>2024-04-07T11:13:23Z</time>
      </trkpt>
      <trkpt lat="49.10917" lon="-0.44253">
        <ele>158.6</ele>
        <time>2024-04-07T11:13:24Z</time>
      </trkpt>
      <trkpt lat="49.10916" lon="-0.44234">
        <ele>158.6</ele>
        <time>2024-04-07T11:13:25Z</time>
      </trkpt>
      <trkpt lat="49.10916" lon="-0.44227">
        <ele>158.6</ele>
        <time>2024-04-07T11:13:26Z</time>
      </trkpt>
      <trkpt lat="49.10916" lon="-0.44214">
        <ele>158.6</ele>
        <time>2024-04-07T11:13:27Z</time>
      </trkpt>
      <trkpt lat="49.10915" lon="-0.44202">
        <ele>158.6</ele>
        <time>2024-04-07T11:13:28Z</time>
      </trkpt>
      <trkpt lat="49.10914" lon="-0.44182">
        <ele>158.6</ele>
        <time>2024-04-07T11:13:29Z</time>
      </trkpt>
      <trkpt lat="49.10914" lon="-0.44176">
        <ele>158.6</ele>
        <time>2024-04-07T11:13:30Z</time>
      </trkpt>
      <trkpt lat="49.10913" lon="-0.44156">
        <ele>158.6</ele>
        <time>2024-04-07T11:13:31Z</time>
      </trkpt>
      <trkpt lat="49.10913" lon="-0.4415">
        <ele>158.6</ele>
        <time>2024-04-07T11:13:32Z</time>
      </trkpt>
      <trkpt lat="49.10912" lon="-0.4413">
        <ele>158.4</ele>
        <time>2024-04-07T11:13:33Z</time>
      </trkpt>
      <trkpt lat="49.10911" lon="-0.44124">
        <ele>158.4</ele>
        <time>2024-04-07T11:13:34Z</time>
      </trkpt>
      <trkpt lat="49.10909" lon="-0.44101">
        <ele>158.2</ele>
        <time>2024-04-07T11:13:35Z</time>
      </trkpt>
      <trkpt lat="49.10909" lon="-0.44091">
        <ele>158.2</ele>
        <time>2024-04-07T11:13:36Z</time>
      </trkpt>
      <trkpt lat="49.10907" lon="-0.44072">
        <ele>158.2</ele>
        <time>2024-04-07T11:13:37Z</time>
      </trkpt>
      <trkpt lat="49.10907" lon="-0.44072">
        <ele>158.4</ele>
        <time>2024-04-07T11:13:38Z</time>
      </trkpt>
      <trkpt lat="49.10905" lon="-0.44046">
        <ele>158.4</ele>
        <time>2024-04-07T11:13:39Z</time>
      </trkpt>
      <trkpt lat="49.10905" lon="-0.4404">
        <ele>158.4</ele>
        <time>2024-04-07T11:13:40Z</time>
      </trkpt>
      <trkpt lat="49.10905" lon="-0.44033">
        <ele>158.4</ele>
        <time>2024-04-07T11:13:41Z</time>
      </trkpt>
      <trkpt lat="49.10904" lon="-0.44021">
        <ele>158.4</ele>
        <time>2024-04-07T11:13:42Z</time>
      </trkpt>
      <trkpt lat="49.10903" lon="-0.44008">
        <ele>158.4</ele>
        <time>2024-04-07T11:13:43Z</time>
      </trkpt>
      <trkpt lat="49.10903" lon="-0.43995">
        <ele>158.6</ele>
        <time>2024-04-07T11:13:44Z</time>
      </trkpt>
      <trkpt lat="49.10902" lon="-0.43981">
        <ele>158.6</ele>
        <time>2024-04-07T11:13:45Z</time>
      </trkpt>
      <trkpt lat="49.10902" lon="-0.43968">
        <ele>158.4</ele>
        <time>2024-04-07T11:13:46Z</time>
      </trkpt>
      <trkpt lat="49.10901" lon="-0.43955">
        <ele>158.4</ele>
        <time>2024-04-07T11:13:47Z</time>
      </trkpt>
      <trkpt lat="49.10901" lon="-0.43942">
        <ele>158</ele>
        <time>2024-04-07T11:13:48Z</time>
      </trkpt>
      <trkpt lat="49.10901" lon="-0.43929">
        <ele>157.8</ele>
        <time>2024-04-07T11:13:49Z</time>
      </trkpt>
      <trkpt lat="49.109" lon="-0.43916">
        <ele>157.4</ele>
        <time>2024-04-07T11:13:50Z</time>
      </trkpt>
      <trkpt lat="49.109" lon="-0.43903">
        <ele>157.2</ele>
        <time>2024-04-07T11:13:51Z</time>
      </trkpt>
      <trkpt lat="49.109" lon="-0.43889">
        <ele>157</ele>
        <time>2024-04-07T11:13:52Z</time>
      </trkpt>
      <trkpt lat="49.10899" lon="-0.4387">
        <ele>157</ele>
        <time>2024-04-07T11:13:53Z</time>
      </trkpt>
      <trkpt lat="49.10898" lon="-0.43864">
        <ele>156.8</ele>
        <time>2024-04-07T11:13:54Z</time>
      </trkpt>
      <trkpt lat="49.10897" lon="-0.43843">
        <ele>156.6</ele>
        <time>2024-04-07T11:13:55Z</time>
      </trkpt>
      <trkpt lat="49.10896" lon="-0.43834">
        <ele>156.6</ele>
        <time>2024-04-07T11:13:56Z</time>
      </trkpt>
      <trkpt lat="49.10895" lon="-0.43816">
        <ele>156.4</ele>
        <time>2024-04-07T11:13:57Z</time>
      </trkpt>
      <trkpt lat="49.10894" lon="-0.4381">
        <ele>156.4</ele>
        <time>2024-04-07T11:13:58Z</time>
      </trkpt>
      <trkpt lat="49.10894" lon="-0.43803">
        <ele>156.4</ele>
        <time>2024-04-07T11:13:59Z</time>
      </trkpt>
      <trkpt lat="49.10891" lon="-0.43779">
        <ele>156.2</ele>
        <time>2024-04-07T11:14:00Z</time>
      </trkpt>
      <trkpt lat="49.10889" lon="-0.43766">
        <ele>156.2</ele>
        <time>2024-04-07T11:14:01Z</time>
      </trkpt>
      <trkpt lat="49.10889" lon="-0.4376">
        <ele>156.2</ele>
        <time>2024-04-07T11:14:02Z</time>
      </trkpt>
      <trkpt lat="49.10888" lon="-0.43754">
        <ele>156</ele>
        <time>2024-04-07T11:14:03Z</time>
      </trkpt>
      <trkpt lat="49.10886" lon="-0.43741">
        <ele>155.6</ele>
        <time>2024-04-07T11:14:04Z</time>
      </trkpt>
      <trkpt lat="49.10882" lon="-0.43717">
        <ele>155.4</ele>
        <time>2024-04-07T11:14:05Z</time>
      </trkpt>
      <trkpt lat="49.10879" lon="-0.43704">
        <ele>155.2</ele>
        <time>2024-04-07T11:14:06Z</time>
      </trkpt>
      <trkpt lat="49.10877" lon="-0.43692">
        <ele>155</ele>
        <time>2024-04-07T11:14:07Z</time>
      </trkpt>
      <trkpt lat="49.10877" lon="-0.43692">
        <ele>154.8</ele>
        <time>2024-04-07T11:14:08Z</time>
      </trkpt>
      <trkpt lat="49.10871" lon="-0.43668">
        <ele>154.6</ele>
        <time>2024-04-07T11:14:09Z</time>
      </trkpt>
      <trkpt lat="49.10869" lon="-0.43655">
        <ele>154.4</ele>
        <time>2024-04-07T11:14:10Z</time>
      </trkpt>
      <trkpt lat="49.10867" lon="-0.43643">
        <ele>154.2</ele>
        <time>2024-04-07T11:14:11Z</time>
      </trkpt>
      <trkpt lat="49.10866" lon="-0.43636">
        <ele>154</ele>
        <time>2024-04-07T11:14:12Z</time>
      </trkpt>
      <trkpt lat="49.10865" lon="-0.4363">
        <ele>153.8</ele>
        <time>2024-04-07T11:14:13Z</time>
      </trkpt>
      <trkpt lat="49.10863" lon="-0.43618">
        <ele>153.6</ele>
        <time>2024-04-07T11:14:14Z</time>
      </trkpt>
      <trkpt lat="49.10859" lon="-0.43594">
        <ele>153.6</ele>
        <time>2024-04-07T11:14:15Z</time>
      </trkpt>
      <trkpt lat="49.10858" lon="-0.43588">
        <ele>153.6</ele>
        <time>2024-04-07T11:14:16Z</time>
      </trkpt>
      <trkpt lat="49.10857" lon="-0.43581">
        <ele>153.6</ele>
        <time>2024-04-07T11:14:17Z</time>
      </trkpt>
      <trkpt lat="49.10855" lon="-0.43557">
        <ele>153.6</ele>
        <time>2024-04-07T11:14:18Z</time>
      </trkpt>
      <trkpt lat="49.10855" lon="-0.43545">
        <ele>153.4</ele>
        <time>2024-04-07T11:14:19Z</time>
      </trkpt>
      <trkpt lat="49.10855" lon="-0.43545">
        <ele>153.4</ele>
        <time>2024-04-07T11:14:20Z</time>
      </trkpt>
      <trkpt lat="49.10855" lon="-0.43524">
        <ele>153.4</ele>
        <time>2024-04-07T11:14:21Z</time>
      </trkpt>
      <trkpt lat="49.10855" lon="-0.43516">
        <ele>153.4</ele>
        <time>2024-04-07T11:14:22Z</time>
      </trkpt>
      <trkpt lat="49.10855" lon="-0.43498">
        <ele>153.2</ele>
        <time>2024-04-07T11:14:23Z</time>
      </trkpt>
      <trkpt lat="49.10853" lon="-0.43491">
        <ele>153.2</ele>
        <time>2024-04-07T11:14:24Z</time>
      </trkpt>
      <trkpt lat="49.10852" lon="-0.43484">
        <ele>153</ele>
        <time>2024-04-07T11:14:25Z</time>
      </trkpt>
      <trkpt lat="49.1085" lon="-0.4347">
        <ele>153</ele>
        <time>2024-04-07T11:14:26Z</time>
      </trkpt>
      <trkpt lat="49.10847" lon="-0.43464">
        <ele>153</ele>
        <time>2024-04-07T11:14:27Z</time>
      </trkpt>
      <trkpt lat="49.10845" lon="-0.43458">
        <ele>153</ele>
        <time>2024-04-07T11:14:28Z</time>
      </trkpt>
      <trkpt lat="49.10845" lon="-0.43455">
        <ele>153</ele>
        <time>2024-04-07T11:14:29Z</time>
      </trkpt>
      <trkpt lat="49.10844" lon="-0.43453">
        <ele>153</ele>
        <time>2024-04-07T11:14:30Z</time>
      </trkpt>
      <trkpt lat="49.10844" lon="-0.43447">
        <ele>153.2</ele>
        <time>2024-04-07T11:14:31Z</time>
      </trkpt>
      <trkpt lat="49.10846" lon="-0.43442">
        <ele>153.6</ele>
        <time>2024-04-07T11:14:32Z</time>
      </trkpt>
      <trkpt lat="49.10849" lon="-0.43438">
        <ele>154</ele>
        <time>2024-04-07T11:14:33Z</time>
      </trkpt>
      <trkpt lat="49.10852" lon="-0.43434">
        <ele>154.4</ele>
        <time>2024-04-07T11:14:34Z</time>
      </trkpt>
      <trkpt lat="49.10857" lon="-0.43429">
        <ele>154.4</ele>
        <time>2024-04-07T11:14:35Z</time>
      </trkpt>
      <trkpt lat="49.10861" lon="-0.43423">
        <ele>154.6</ele>
        <time>2024-04-07T11:14:36Z</time>
      </trkpt>
      <trkpt lat="49.10866" lon="-0.43417">
        <ele>154.4</ele>
        <time>2024-04-07T11:14:37Z</time>
      </trkpt>
      <trkpt lat="49.10875" lon="-0.43403">
        <ele>154.4</ele>
        <time>2024-04-07T11:14:38Z</time>
      </trkpt>
      <trkpt lat="49.1088" lon="-0.43396">
        <ele>154.4</ele>
        <time>2024-04-07T11:14:39Z</time>
      </trkpt>
      <trkpt lat="49.10885" lon="-0.43389">
        <ele>154.4</ele>
        <time>2024-04-07T11:14:40Z</time>
      </trkpt>
      <trkpt lat="49.1089" lon="-0.43381">
        <ele>154.4</ele>
        <time>2024-04-07T11:14:41Z</time>
      </trkpt>
      <trkpt lat="49.10895" lon="-0.43373">
        <ele>154.4</ele>
        <time>2024-04-07T11:14:42Z</time>
      </trkpt>
      <trkpt lat="49.10898" lon="-0.43367">
        <ele>154.6</ele>
        <time>2024-04-07T11:14:43Z</time>
      </trkpt>
      <trkpt lat="49.10902" lon="-0.4336">
        <ele>154.6</ele>
        <time>2024-04-07T11:14:44Z</time>
      </trkpt>
      <trkpt lat="49.10909" lon="-0.43347">
        <ele>154.6</ele>
        <time>2024-04-07T11:14:45Z</time>
      </trkpt>
      <trkpt lat="49.10912" lon="-0.43338">
        <ele>154.6</ele>
        <time>2024-04-07T11:14:46Z</time>
      </trkpt>
      <trkpt lat="49.10915" lon="-0.43328">
        <ele>154.6</ele>
        <time>2024-04-07T11:14:47Z</time>
      </trkpt>
      <trkpt lat="49.10917" lon="-0.4332">
        <ele>154.6</ele>
        <time>2024-04-07T11:14:48Z</time>
      </trkpt>
      <trkpt lat="49.10919" lon="-0.43313">
        <ele>154.6</ele>
        <time>2024-04-07T11:14:49Z</time>
      </trkpt>
      <trkpt lat="49.10923" lon="-0.43297">
        <ele>154.4</ele>
        <time>2024-04-07T11:14:50Z</time>
      </trkpt>
      <trkpt lat="49.10925" lon="-0.43287">
        <ele>154.2</ele>
        <time>2024-04-07T11:14:51Z</time>
      </trkpt>
      <trkpt lat="49.10927" lon="-0.43276">
        <ele>154</ele>
        <time>2024-04-07T11:14:52Z</time>
      </trkpt>
      <trkpt lat="49.10929" lon="-0.43269">
        <ele>154</ele>
        <time>2024-04-07T11:14:53Z</time>
      </trkpt>
      <trkpt lat="49.10931" lon="-0.43261">
        <ele>154</ele>
        <time>2024-04-07T11:14:54Z</time>
      </trkpt>
      <trkpt lat="49.10934" lon="-0.43245">
        <ele>154.2</ele>
        <time>2024-04-07T11:14:55Z</time>
      </trkpt>
      <trkpt lat="49.10935" lon="-0.4324">
        <ele>154.2</ele>
        <time>2024-04-07T11:14:56Z</time>
      </trkpt>
      <trkpt lat="49.10936" lon="-0.43235">
        <ele>154.2</ele>
        <time>2024-04-07T11:14:57Z</time>
      </trkpt>
      <trkpt lat="49.10936" lon="-0.43226">
        <ele>154.4</ele>
        <time>2024-04-07T11:14:58Z</time>
      </trkpt>
      <trkpt lat="49.10937" lon="-0.43218">
        <ele>154.8</ele>
        <time>2024-04-07T11:14:59Z</time>
      </trkpt>
      <trkpt lat="49.10943" lon="-0.43206">
        <ele>155</ele>
        <time>2024-04-07T11:15:00Z</time>
      </trkpt>
      <trkpt lat="49.10946" lon="-0.43201">
        <ele>155.2</ele>
        <time>2024-04-07T11:15:01Z</time>
      </trkpt>
      <trkpt lat="49.10949" lon="-0.43197">
        <ele>155.4</ele>
        <time>2024-04-07T11:15:02Z</time>
      </trkpt>
      <trkpt lat="49.10955" lon="-0.43188">
        <ele>155.6</ele>
        <time>2024-04-07T11:15:03Z</time>
      </trkpt>
      <trkpt lat="49.10957" lon="-0.43185">
        <ele>156</ele>
        <time>2024-04-07T11:15:04Z</time>
      </trkpt>
      <trkpt lat="49.10959" lon="-0.43181">
        <ele>156.2</ele>
        <time>2024-04-07T11:15:05Z</time>
      </trkpt>
      <trkpt lat="49.10967" lon="-0.43167">
        <ele>156.4</ele>
        <time>2024-04-07T11:15:06Z</time>
      </trkpt>
      <trkpt lat="49.1097" lon="-0.4316">
        <ele>156.6</ele>
        <time>2024-04-07T11:15:07Z</time>
      </trkpt>
      <trkpt lat="49.10974" lon="-0.43154">
        <ele>156.6</ele>
        <time>2024-04-07T11:15:08Z</time>
      </trkpt>
      <trkpt lat="49.10978" lon="-0.43147">
        <ele>156.6</ele>
        <time>2024-04-07T11:15:09Z</time>
      </trkpt>
      <trkpt lat="49.10982" lon="-0.43141">
        <ele>156.6</ele>
        <time>2024-04-07T11:15:10Z</time>
      </trkpt>
      <trkpt lat="49.10987" lon="-0.43134">
        <ele>156.6</ele>
        <time>2024-04-07T11:15:11Z</time>
      </trkpt>
      <trkpt lat="49.10991" lon="-0.43128">
        <ele>156.6</ele>
        <time>2024-04-07T11:15:12Z</time>
      </trkpt>
      <trkpt lat="49.10996" lon="-0.43121">
        <ele>156.8</ele>
        <time>2024-04-07T11:15:13Z</time>
      </trkpt>
      <trkpt lat="49.11" lon="-0.43115">
        <ele>157</ele>
        <time>2024-04-07T11:15:14Z</time>
      </trkpt>
      <trkpt lat="49.11005" lon="-0.43109">
        <ele>157.2</ele>
        <time>2024-04-07T11:15:15Z</time>
      </trkpt>
      <trkpt lat="49.11005" lon="-0.43109">
        <ele>157.4</ele>
        <time>2024-04-07T11:15:16Z</time>
      </trkpt>
      <trkpt lat="49.11013" lon="-0.431">
        <ele>157.6</ele>
        <time>2024-04-07T11:15:17Z</time>
      </trkpt>
      <trkpt lat="49.11016" lon="-0.43097">
        <ele>157.6</ele>
        <time>2024-04-07T11:15:18Z</time>
      </trkpt>
      <trkpt lat="49.11021" lon="-0.43092">
        <ele>157.8</ele>
        <time>2024-04-07T11:15:19Z</time>
      </trkpt>
      <trkpt lat="49.11033" lon="-0.43082">
        <ele>157.8</ele>
        <time>2024-04-07T11:15:20Z</time>
      </trkpt>
      <trkpt lat="49.11039" lon="-0.43078">
        <ele>157.8</ele>
        <time>2024-04-07T11:15:21Z</time>
      </trkpt>
      <trkpt lat="49.11045" lon="-0.43074">
        <ele>157.8</ele>
        <time>2024-04-07T11:15:22Z</time>
      </trkpt>
      <trkpt lat="49.11051" lon="-0.4307">
        <ele>158</ele>
        <time>2024-04-07T11:15:23Z</time>
      </trkpt>
      <trkpt lat="49.11056" lon="-0.43066">
        <ele>158.2</ele>
        <time>2024-04-07T11:15:24Z</time>
      </trkpt>
      <trkpt lat="49.11062" lon="-0.43063">
        <ele>158.4</ele>
        <time>2024-04-07T11:15:25Z</time>
      </trkpt>
      <trkpt lat="49.11065" lon="-0.43061">
        <ele>158.6</ele>
        <time>2024-04-07T11:15:26Z</time>
      </trkpt>
      <trkpt lat="49.11068" lon="-0.4306">
        <ele>158.8</ele>
        <time>2024-04-07T11:15:27Z</time>
      </trkpt>
      <trkpt lat="49.11074" lon="-0.43057">
        <ele>159.2</ele>
        <time>2024-04-07T11:15:28Z</time>
      </trkpt>
      <trkpt lat="49.11083" lon="-0.4305">
        <ele>159.4</ele>
        <time>2024-04-07T11:15:29Z</time>
      </trkpt>
      <trkpt lat="49.11087" lon="-0.43047">
        <ele>159.8</ele>
        <time>2024-04-07T11:15:30Z</time>
      </trkpt>
      <trkpt lat="49.11095" lon="-0.4304">
        <ele>160</ele>
        <time>2024-04-07T11:15:31Z</time>
      </trkpt>
      <trkpt lat="49.111" lon="-0.43034">
        <ele>160.2</ele>
        <time>2024-04-07T11:15:32Z</time>
      </trkpt>
      <trkpt lat="49.11104" lon="-0.43027">
        <ele>160.4</ele>
        <time>2024-04-07T11:15:33Z</time>
      </trkpt>
      <trkpt lat="49.11106" lon="-0.43024">
        <ele>160.4</ele>
        <time>2024-04-07T11:15:34Z</time>
      </trkpt>
      <trkpt lat="49.11108" lon="-0.4302">
        <ele>160.4</ele>
        <time>2024-04-07T11:15:35Z</time>
      </trkpt>
      <trkpt lat="49.11111" lon="-0.43012">
        <ele>160.6</ele>
        <time>2024-04-07T11:15:36Z</time>
      </trkpt>
      <trkpt lat="49.11116" lon="-0.42994">
        <ele>160.6</ele>
        <time>2024-04-07T11:15:37Z</time>
      </trkpt>
      <trkpt lat="49.11116" lon="-0.42994">
        <ele>160.6</ele>
        <time>2024-04-07T11:15:38Z</time>
      </trkpt>
      <trkpt lat="49.11119" lon="-0.42975">
        <ele>160.6</ele>
        <time>2024-04-07T11:15:39Z</time>
      </trkpt>
      <trkpt lat="49.11119" lon="-0.42965">
        <ele>160.6</ele>
        <time>2024-04-07T11:15:40Z</time>
      </trkpt>
      <trkpt lat="49.11119" lon="-0.42965">
        <ele>160.6</ele>
        <time>2024-04-07T11:15:41Z</time>
      </trkpt>
      <trkpt lat="49.1112" lon="-0.42955">
        <ele>160.6</ele>
        <time>2024-04-07T11:15:42Z</time>
      </trkpt>
      <trkpt lat="49.1112" lon="-0.42945">
        <ele>160.6</ele>
        <time>2024-04-07T11:15:43Z</time>
      </trkpt>
      <trkpt lat="49.11121" lon="-0.42925">
        <ele>160.4</ele>
        <time>2024-04-07T11:15:44Z</time>
      </trkpt>
      <trkpt lat="49.11122" lon="-0.42914">
        <ele>160.4</ele>
        <time>2024-04-07T11:15:45Z</time>
      </trkpt>
      <trkpt lat="49.11123" lon="-0.42904">
        <ele>160.2</ele>
        <time>2024-04-07T11:15:46Z</time>
      </trkpt>
      <trkpt lat="49.11123" lon="-0.42893">
        <ele>160.2</ele>
        <time>2024-04-07T11:15:47Z</time>
      </trkpt>
      <trkpt lat="49.11124" lon="-0.42882">
        <ele>160</ele>
        <time>2024-04-07T11:15:48Z</time>
      </trkpt>
      <trkpt lat="49.11124" lon="-0.42882">
        <ele>159.8</ele>
        <time>2024-04-07T11:15:49Z</time>
      </trkpt>
      <trkpt lat="49.11125" lon="-0.42861">
        <ele>159.8</ele>
        <time>2024-04-07T11:15:50Z</time>
      </trkpt>
      <trkpt lat="49.11126" lon="-0.4285">
        <ele>159.6</ele>
        <time>2024-04-07T11:15:51Z</time>
      </trkpt>
      <trkpt lat="49.11126" lon="-0.4285">
        <ele>159.6</ele>
        <time>2024-04-07T11:15:52Z</time>
      </trkpt>
      <trkpt lat="49.11127" lon="-0.42833">
        <ele>159.6</ele>
        <time>2024-04-07T11:15:53Z</time>
      </trkpt>
      <trkpt lat="49.11127" lon="-0.42828">
        <ele>159.4</ele>
        <time>2024-04-07T11:15:54Z</time>
      </trkpt>
      <trkpt lat="49.11128" lon="-0.42817">
        <ele>159.4</ele>
        <time>2024-04-07T11:15:55Z</time>
      </trkpt>
      <trkpt lat="49.11129" lon="-0.428">
        <ele>159.4</ele>
        <time>2024-04-07T11:15:56Z</time>
      </trkpt>
      <trkpt lat="49.11129" lon="-0.42795">
        <ele>159.4</ele>
        <time>2024-04-07T11:15:57Z</time>
      </trkpt>
      <trkpt lat="49.1113" lon="-0.42775">
        <ele>159.4</ele>
        <time>2024-04-07T11:15:58Z</time>
      </trkpt>
      <trkpt lat="49.11131" lon="-0.42767">
        <ele>159.4</ele>
        <time>2024-04-07T11:15:59Z</time>
      </trkpt>
      <trkpt lat="49.11132" lon="-0.4275">
        <ele>159.4</ele>
        <time>2024-04-07T11:16:00Z</time>
      </trkpt>
      <trkpt lat="49.11133" lon="-0.42739">
        <ele>159.2</ele>
        <time>2024-04-07T11:16:01Z</time>
      </trkpt>
      <trkpt lat="49.11134" lon="-0.42733">
        <ele>159.2</ele>
        <time>2024-04-07T11:16:02Z</time>
      </trkpt>
      <trkpt lat="49.11134" lon="-0.42728">
        <ele>159.2</ele>
        <time>2024-04-07T11:16:03Z</time>
      </trkpt>
      <trkpt lat="49.11135" lon="-0.42717">
        <ele>159.2</ele>
        <time>2024-04-07T11:16:04Z</time>
      </trkpt>
      <trkpt lat="49.11136" lon="-0.42705">
        <ele>159.2</ele>
        <time>2024-04-07T11:16:05Z</time>
      </trkpt>
      <trkpt lat="49.11139" lon="-0.42684">
        <ele>159.2</ele>
        <time>2024-04-07T11:16:06Z</time>
      </trkpt>
      <trkpt lat="49.1114" lon="-0.42676">
        <ele>159.2</ele>
        <time>2024-04-07T11:16:07Z</time>
      </trkpt>
      <trkpt lat="49.11141" lon="-0.42669">
        <ele>159.2</ele>
        <time>2024-04-07T11:16:08Z</time>
      </trkpt>
      <trkpt lat="49.11143" lon="-0.42654">
        <ele>159.2</ele>
        <time>2024-04-07T11:16:09Z</time>
      </trkpt>
      <trkpt lat="49.11144" lon="-0.42649">
        <ele>159.2</ele>
        <time>2024-04-07T11:16:10Z</time>
      </trkpt>
      <trkpt lat="49.11144" lon="-0.42644">
        <ele>159.2</ele>
        <time>2024-04-07T11:16:11Z</time>
      </trkpt>
      <trkpt lat="49.11146" lon="-0.42634">
        <ele>159.4</ele>
        <time>2024-04-07T11:16:12Z</time>
      </trkpt>
      <trkpt lat="49.11147" lon="-0.42624">
        <ele>159.4</ele>
        <time>2024-04-07T11:16:13Z</time>
      </trkpt>
      <trkpt lat="49.1115" lon="-0.42608">
        <ele>159.4</ele>
        <time>2024-04-07T11:16:14Z</time>
      </trkpt>
      <trkpt lat="49.11151" lon="-0.42602">
        <ele>159.4</ele>
        <time>2024-04-07T11:16:15Z</time>
      </trkpt>
      <trkpt lat="49.11153" lon="-0.42592">
        <ele>159.4</ele>
        <time>2024-04-07T11:16:16Z</time>
      </trkpt>
      <trkpt lat="49.11155" lon="-0.42581">
        <ele>159.4</ele>
        <time>2024-04-07T11:16:17Z</time>
      </trkpt>
      <trkpt lat="49.11158" lon="-0.42559">
        <ele>159.2</ele>
        <time>2024-04-07T11:16:18Z</time>
      </trkpt>
      <trkpt lat="49.11159" lon="-0.42553">
        <ele>159.2</ele>
        <time>2024-04-07T11:16:19Z</time>
      </trkpt>
      <trkpt lat="49.1116" lon="-0.42547">
        <ele>159</ele>
        <time>2024-04-07T11:16:20Z</time>
      </trkpt>
      <trkpt lat="49.11164" lon="-0.42525">
        <ele>159</ele>
        <time>2024-04-07T11:16:21Z</time>
      </trkpt>
      <trkpt lat="49.11164" lon="-0.42525">
        <ele>159</ele>
        <time>2024-04-07T11:16:22Z</time>
      </trkpt>
      <trkpt lat="49.11167" lon="-0.42508">
        <ele>159</ele>
        <time>2024-04-07T11:16:23Z</time>
      </trkpt>
      <trkpt lat="49.11168" lon="-0.42502">
        <ele>158.8</ele>
        <time>2024-04-07T11:16:24Z</time>
      </trkpt>
      <trkpt lat="49.1117" lon="-0.4249">
        <ele>158.8</ele>
        <time>2024-04-07T11:16:25Z</time>
      </trkpt>
      <trkpt lat="49.11174" lon="-0.42467">
        <ele>158.8</ele>
        <time>2024-04-07T11:16:26Z</time>
      </trkpt>
      <trkpt lat="49.11176" lon="-0.42455">
        <ele>158.6</ele>
        <time>2024-04-07T11:16:27Z</time>
      </trkpt>
      <trkpt lat="49.11177" lon="-0.4245">
        <ele>158.6</ele>
        <time>2024-04-07T11:16:28Z</time>
      </trkpt>
      <trkpt lat="49.11178" lon="-0.42444">
        <ele>158.6</ele>
        <time>2024-04-07T11:16:29Z</time>
      </trkpt>
      <trkpt lat="49.1118" lon="-0.42432">
        <ele>158.4</ele>
        <time>2024-04-07T11:16:30Z</time>
      </trkpt>
      <trkpt lat="49.11183" lon="-0.42415">
        <ele>158.4</ele>
        <time>2024-04-07T11:16:31Z</time>
      </trkpt>
      <trkpt lat="49.11184" lon="-0.42409">
        <ele>158.4</ele>
        <time>2024-04-07T11:16:32Z</time>
      </trkpt>
      <trkpt lat="49.11186" lon="-0.42397">
        <ele>158.4</ele>
        <time>2024-04-07T11:16:33Z</time>
      </trkpt>
      <trkpt lat="49.11189" lon="-0.4238">
        <ele>158.4</ele>
        <time>2024-04-07T11:16:34Z</time>
      </trkpt>
      <trkpt lat="49.1119" lon="-0.42374">
        <ele>158.4</ele>
        <time>2024-04-07T11:16:35Z</time>
      </trkpt>
      <trkpt lat="49.11192" lon="-0.42363">
        <ele>158.4</ele>
        <time>2024-04-07T11:16:36Z</time>
      </trkpt>
      <trkpt lat="49.11194" lon="-0.42351">
        <ele>158.4</ele>
        <time>2024-04-07T11:16:37Z</time>
      </trkpt>
      <trkpt lat="49.11196" lon="-0.4234">
        <ele>158.6</ele>
        <time>2024-04-07T11:16:38Z</time>
      </trkpt>
      <trkpt lat="49.11198" lon="-0.42329">
        <ele>158.6</ele>
        <time>2024-04-07T11:16:39Z</time>
      </trkpt>
      <trkpt lat="49.112" lon="-0.42318">
        <ele>158.4</ele>
        <time>2024-04-07T11:16:40Z</time>
      </trkpt>
      <trkpt lat="49.11201" lon="-0.42306">
        <ele>158.4</ele>
        <time>2024-04-07T11:16:41Z</time>
      </trkpt>
      <trkpt lat="49.11203" lon="-0.42295">
        <ele>158.4</ele>
        <time>2024-04-07T11:16:42Z</time>
      </trkpt>
      <trkpt lat="49.11205" lon="-0.42283">
        <ele>158.4</ele>
        <time>2024-04-07T11:16:43Z</time>
      </trkpt>
      <trkpt lat="49.11209" lon="-0.4226">
        <ele>158.4</ele>
        <time>2024-04-07T11:16:44Z</time>
      </trkpt>
      <trkpt lat="49.1121" lon="-0.42254">
        <ele>158.2</ele>
        <time>2024-04-07T11:16:45Z</time>
      </trkpt>
      <trkpt lat="49.1121" lon="-0.42248">
        <ele>158.2</ele>
        <time>2024-04-07T11:16:46Z</time>
      </trkpt>
      <trkpt lat="49.11212" lon="-0.42236">
        <ele>158</ele>
        <time>2024-04-07T11:16:47Z</time>
      </trkpt>
      <trkpt lat="49.11214" lon="-0.42224">
        <ele>157.8</ele>
        <time>2024-04-07T11:16:48Z</time>
      </trkpt>
      <trkpt lat="49.11216" lon="-0.42212">
        <ele>157.6</ele>
        <time>2024-04-07T11:16:49Z</time>
      </trkpt>
      <trkpt lat="49.11218" lon="-0.422">
        <ele>157.6</ele>
        <time>2024-04-07T11:16:50Z</time>
      </trkpt>
      <trkpt lat="49.1122" lon="-0.42188">
        <ele>157.6</ele>
        <time>2024-04-07T11:16:51Z</time>
      </trkpt>
      <trkpt lat="49.11222" lon="-0.42176">
        <ele>157.4</ele>
        <time>2024-04-07T11:16:52Z</time>
      </trkpt>
      <trkpt lat="49.11224" lon="-0.42164">
        <ele>157.2</ele>
        <time>2024-04-07T11:16:53Z</time>
      </trkpt>
      <trkpt lat="49.11225" lon="-0.42152">
        <ele>157.2</ele>
        <time>2024-04-07T11:16:54Z</time>
      </trkpt>
      <trkpt lat="49.11227" lon="-0.4214">
        <ele>157.2</ele>
        <time>2024-04-07T11:16:55Z</time>
      </trkpt>
      <trkpt lat="49.11229" lon="-0.42127">
        <ele>157</ele>
        <time>2024-04-07T11:16:56Z</time>
      </trkpt>
      <trkpt lat="49.11231" lon="-0.42115">
        <ele>157</ele>
        <time>2024-04-07T11:16:57Z</time>
      </trkpt>
      <trkpt lat="49.11233" lon="-0.42098">
        <ele>157</ele>
        <time>2024-04-07T11:16:58Z</time>
      </trkpt>
      <trkpt lat="49.11234" lon="-0.42092">
        <ele>157.2</ele>
        <time>2024-04-07T11:16:59Z</time>
      </trkpt>
      <trkpt lat="49.11236" lon="-0.4208">
        <ele>157.2</ele>
        <time>2024-04-07T11:17:00Z</time>
      </trkpt>
      <trkpt lat="49.11237" lon="-0.42069">
        <ele>157.2</ele>
        <time>2024-04-07T11:17:01Z</time>
      </trkpt>
      <trkpt lat="49.11239" lon="-0.42057">
        <ele>157.2</ele>
        <time>2024-04-07T11:17:02Z</time>
      </trkpt>
      <trkpt lat="49.1124" lon="-0.42045">
        <ele>157</ele>
        <time>2024-04-07T11:17:03Z</time>
      </trkpt>
      <trkpt lat="49.11242" lon="-0.42033">
        <ele>157</ele>
        <time>2024-04-07T11:17:04Z</time>
      </trkpt>
      <trkpt lat="49.11243" lon="-0.42021">
        <ele>157</ele>
        <time>2024-04-07T11:17:05Z</time>
      </trkpt>
      <trkpt lat="49.11245" lon="-0.4201">
        <ele>157</ele>
        <time>2024-04-07T11:17:06Z</time>
      </trkpt>
      <trkpt lat="49.11247" lon="-0.41997">
        <ele>157</ele>
        <time>2024-04-07T11:17:07Z</time>
      </trkpt>
      <trkpt lat="49.11248" lon="-0.41985">
        <ele>157</ele>
        <time>2024-04-07T11:17:08Z</time>
      </trkpt>
      <trkpt lat="49.1125" lon="-0.41973">
        <ele>157</ele>
        <time>2024-04-07T11:17:09Z</time>
      </trkpt>
      <trkpt lat="49.11251" lon="-0.41961">
        <ele>157</ele>
        <time>2024-04-07T11:17:10Z</time>
      </trkpt>
      <trkpt lat="49.11255" lon="-0.41938">
        <ele>157</ele>
        <time>2024-04-07T11:17:11Z</time>
      </trkpt>
      <trkpt lat="49.11256" lon="-0.41926">
        <ele>157</ele>
        <time>2024-04-07T11:17:12Z</time>
      </trkpt>
      <trkpt lat="49.11257" lon="-0.4192">
        <ele>157</ele>
        <time>2024-04-07T11:17:13Z</time>
      </trkpt>
      <trkpt lat="49.11258" lon="-0.41915">
        <ele>157</ele>
        <time>2024-04-07T11:17:14Z</time>
      </trkpt>
      <trkpt lat="49.1126" lon="-0.41904">
        <ele>157</ele>
        <time>2024-04-07T11:17:15Z</time>
      </trkpt>
      <trkpt lat="49.11262" lon="-0.41887">
        <ele>156.8</ele>
        <time>2024-04-07T11:17:16Z</time>
      </trkpt>
      <trkpt lat="49.11263" lon="-0.41882">
        <ele>156.6</ele>
        <time>2024-04-07T11:17:17Z</time>
      </trkpt>
      <trkpt lat="49.11264" lon="-0.41871">
        <ele>156.2</ele>
        <time>2024-04-07T11:17:18Z</time>
      </trkpt>
      <trkpt lat="49.11266" lon="-0.41854">
        <ele>156.2</ele>
        <time>2024-04-07T11:17:19Z</time>
      </trkpt>
      <trkpt lat="49.11267" lon="-0.41849">
        <ele>156</ele>
        <time>2024-04-07T11:17:20Z</time>
      </trkpt>
      <trkpt lat="49.11268" lon="-0.41837">
        <ele>156</ele>
        <time>2024-04-07T11:17:21Z</time>
      </trkpt>
      <trkpt lat="49.11269" lon="-0.41826">
        <ele>156.2</ele>
        <time>2024-04-07T11:17:22Z</time>
      </trkpt>
      <trkpt lat="49.1127" lon="-0.41815">
        <ele>156.2</ele>
        <time>2024-04-07T11:17:23Z</time>
      </trkpt>
      <trkpt lat="49.11272" lon="-0.41804">
        <ele>156.2</ele>
        <time>2024-04-07T11:17:24Z</time>
      </trkpt>
      <trkpt lat="49.11273" lon="-0.41792">
        <ele>156.4</ele>
        <time>2024-04-07T11:17:25Z</time>
      </trkpt>
      <trkpt lat="49.11274" lon="-0.4178">
        <ele>156.6</ele>
        <time>2024-04-07T11:17:26Z</time>
      </trkpt>
      <trkpt lat="49.11276" lon="-0.41768">
        <ele>156.6</ele>
        <time>2024-04-07T11:17:27Z</time>
      </trkpt>
      <trkpt lat="49.11278" lon="-0.41743">
        <ele>156.8</ele>
        <time>2024-04-07T11:17:28Z</time>
      </trkpt>
      <trkpt lat="49.11278" lon="-0.41743">
        <ele>156.8</ele>
        <time>2024-04-07T11:17:29Z</time>
      </trkpt>
      <trkpt lat="49.11281" lon="-0.41718">
        <ele>156.8</ele>
        <time>2024-04-07T11:17:30Z</time>
      </trkpt>
      <trkpt lat="49.11282" lon="-0.41712">
        <ele>156.8</ele>
        <time>2024-04-07T11:17:31Z</time>
      </trkpt>
      <trkpt lat="49.11282" lon="-0.41706">
        <ele>156.8</ele>
        <time>2024-04-07T11:17:32Z</time>
      </trkpt>
      <trkpt lat="49.11286" lon="-0.41681">
        <ele>156.6</ele>
        <time>2024-04-07T11:17:33Z</time>
      </trkpt>
      <trkpt lat="49.11287" lon="-0.41669">
        <ele>156.4</ele>
        <time>2024-04-07T11:17:34Z</time>
      </trkpt>
      <trkpt lat="49.11289" lon="-0.41656">
        <ele>156.4</ele>
        <time>2024-04-07T11:17:35Z</time>
      </trkpt>
      <trkpt lat="49.1129" lon="-0.41643">
        <ele>156.2</ele>
        <time>2024-04-07T11:17:36Z</time>
      </trkpt>
      <trkpt lat="49.11291" lon="-0.41631">
        <ele>156</ele>
        <time>2024-04-07T11:17:37Z</time>
      </trkpt>
      <trkpt lat="49.11293" lon="-0.41618">
        <ele>155.8</ele>
        <time>2024-04-07T11:17:38Z</time>
      </trkpt>
      <trkpt lat="49.11294" lon="-0.41605">
        <ele>155.6</ele>
        <time>2024-04-07T11:17:39Z</time>
      </trkpt>
      <trkpt lat="49.11296" lon="-0.41592">
        <ele>155.4</ele>
        <time>2024-04-07T11:17:40Z</time>
      </trkpt>
      <trkpt lat="49.11296" lon="-0.41592">
        <ele>155.2</ele>
        <time>2024-04-07T11:17:41Z</time>
      </trkpt>
      <trkpt lat="49.11299" lon="-0.41566">
        <ele>155</ele>
        <time>2024-04-07T11:17:42Z</time>
      </trkpt>
      <trkpt lat="49.113" lon="-0.41553">
        <ele>155</ele>
        <time>2024-04-07T11:17:43Z</time>
      </trkpt>
      <trkpt lat="49.11302" lon="-0.41541">
        <ele>154.8</ele>
        <time>2024-04-07T11:17:44Z</time>
      </trkpt>
      <trkpt lat="49.11303" lon="-0.41528">
        <ele>154.6</ele>
        <time>2024-04-07T11:17:45Z</time>
      </trkpt>
      <trkpt lat="49.11303" lon="-0.41528">
        <ele>154.6</ele>
        <time>2024-04-07T11:17:46Z</time>
      </trkpt>
      <trkpt lat="49.11305" lon="-0.41515">
        <ele>154.6</ele>
        <time>2024-04-07T11:17:47Z</time>
      </trkpt>
      <trkpt lat="49.11307" lon="-0.4149">
        <ele>154.4</ele>
        <time>2024-04-07T11:17:48Z</time>
      </trkpt>
      <trkpt lat="49.11309" lon="-0.41477">
        <ele>154.4</ele>
        <time>2024-04-07T11:17:49Z</time>
      </trkpt>
      <trkpt lat="49.1131" lon="-0.41465">
        <ele>154.4</ele>
        <time>2024-04-07T11:17:50Z</time>
      </trkpt>
      <trkpt lat="49.11312" lon="-0.41452">
        <ele>154.2</ele>
        <time>2024-04-07T11:17:51Z</time>
      </trkpt>
      <trkpt lat="49.11313" lon="-0.4144">
        <ele>154.2</ele>
        <time>2024-04-07T11:17:52Z</time>
      </trkpt>
      <trkpt lat="49.11313" lon="-0.4144">
        <ele>154.2</ele>
        <time>2024-04-07T11:17:53Z</time>
      </trkpt>
      <trkpt lat="49.11316" lon="-0.41415">
        <ele>154.2</ele>
        <time>2024-04-07T11:17:54Z</time>
      </trkpt>
      <trkpt lat="49.11317" lon="-0.41402">
        <ele>154</ele>
        <time>2024-04-07T11:17:55Z</time>
      </trkpt>
      <trkpt lat="49.11318" lon="-0.4139">
        <ele>154</ele>
        <time>2024-04-07T11:17:56Z</time>
      </trkpt>
      <trkpt lat="49.11319" lon="-0.41377">
        <ele>154</ele>
        <time>2024-04-07T11:17:57Z</time>
      </trkpt>
      <trkpt lat="49.1132" lon="-0.41365">
        <ele>154</ele>
        <time>2024-04-07T11:17:58Z</time>
      </trkpt>
      <trkpt lat="49.11321" lon="-0.41358">
        <ele>153.8</ele>
        <time>2024-04-07T11:17:59Z</time>
      </trkpt>
      <trkpt lat="49.11322" lon="-0.41352">
        <ele>153.8</ele>
        <time>2024-04-07T11:18:00Z</time>
      </trkpt>
      <trkpt lat="49.11323" lon="-0.41339">
        <ele>153.8</ele>
        <time>2024-04-07T11:18:01Z</time>
      </trkpt>
      <trkpt lat="49.11324" lon="-0.41327">
        <ele>153.8</ele>
        <time>2024-04-07T11:18:02Z</time>
      </trkpt>
      <trkpt lat="49.11326" lon="-0.41302">
        <ele>153.6</ele>
        <time>2024-04-07T11:18:03Z</time>
      </trkpt>
      <trkpt lat="49.11326" lon="-0.41296">
        <ele>153.6</ele>
        <time>2024-04-07T11:18:04Z</time>
      </trkpt>
      <trkpt lat="49.11327" lon="-0.4129">
        <ele>153.4</ele>
        <time>2024-04-07T11:18:05Z</time>
      </trkpt>
      <trkpt lat="49.11327" lon="-0.41265">
        <ele>153</ele>
        <time>2024-04-07T11:18:06Z</time>
      </trkpt>
      <trkpt lat="49.11326" lon="-0.41252">
        <ele>152.8</ele>
        <time>2024-04-07T11:18:07Z</time>
      </trkpt>
      <trkpt lat="49.11326" lon="-0.41243">
        <ele>152.8</ele>
        <time>2024-04-07T11:18:08Z</time>
      </trkpt>
      <trkpt lat="49.11326" lon="-0.41234">
        <ele>152.6</ele>
        <time>2024-04-07T11:18:09Z</time>
      </trkpt>
      <trkpt lat="49.11325" lon="-0.41215">
        <ele>152.4</ele>
        <time>2024-04-07T11:18:10Z</time>
      </trkpt>
      <trkpt lat="49.11324" lon="-0.41203">
        <ele>152.4</ele>
        <time>2024-04-07T11:18:11Z</time>
      </trkpt>
      <trkpt lat="49.11323" lon="-0.4119">
        <ele>152.4</ele>
        <time>2024-04-07T11:18:12Z</time>
      </trkpt>
      <trkpt lat="49.11322" lon="-0.41178">
        <ele>152.4</ele>
        <time>2024-04-07T11:18:13Z</time>
      </trkpt>
      <trkpt lat="49.11321" lon="-0.41166">
        <ele>152.4</ele>
        <time>2024-04-07T11:18:14Z</time>
      </trkpt>
      <trkpt lat="49.1132" lon="-0.41154">
        <ele>152.2</ele>
        <time>2024-04-07T11:18:15Z</time>
      </trkpt>
      <trkpt lat="49.11318" lon="-0.41141">
        <ele>152.2</ele>
        <time>2024-04-07T11:18:16Z</time>
      </trkpt>
      <trkpt lat="49.11317" lon="-0.41129">
        <ele>152</ele>
        <time>2024-04-07T11:18:17Z</time>
      </trkpt>
      <trkpt lat="49.11315" lon="-0.41118">
        <ele>151.8</ele>
        <time>2024-04-07T11:18:18Z</time>
      </trkpt>
      <trkpt lat="49.11313" lon="-0.41106">
        <ele>151.6</ele>
        <time>2024-04-07T11:18:19Z</time>
      </trkpt>
      <trkpt lat="49.11312" lon="-0.41094">
        <ele>151.4</ele>
        <time>2024-04-07T11:18:20Z</time>
      </trkpt>
      <trkpt lat="49.1131" lon="-0.41082">
        <ele>151.2</ele>
        <time>2024-04-07T11:18:21Z</time>
      </trkpt>
      <trkpt lat="49.1131" lon="-0.41082">
        <ele>151.2</ele>
        <time>2024-04-07T11:18:22Z</time>
      </trkpt>
      <trkpt lat="49.11308" lon="-0.41069">
        <ele>151</ele>
        <time>2024-04-07T11:18:23Z</time>
      </trkpt>
      <trkpt lat="49.11302" lon="-0.41045">
        <ele>150.8</ele>
        <time>2024-04-07T11:18:24Z</time>
      </trkpt>
      <trkpt lat="49.113" lon="-0.41033">
        <ele>150.8</ele>
        <time>2024-04-07T11:18:25Z</time>
      </trkpt>
      <trkpt lat="49.11297" lon="-0.41021">
        <ele>150.8</ele>
        <time>2024-04-07T11:18:26Z</time>
      </trkpt>
      <trkpt lat="49.11294" lon="-0.41009">
        <ele>150.6</ele>
        <time>2024-04-07T11:18:27Z</time>
      </trkpt>
      <trkpt lat="49.11291" lon="-0.41">
        <ele>150.4</ele>
        <time>2024-04-07T11:18:28Z</time>
      </trkpt>
      <trkpt lat="49.11289" lon="-0.40991">
        <ele>150.4</ele>
        <time>2024-04-07T11:18:29Z</time>
      </trkpt>
      <trkpt lat="49.11284" lon="-0.40973">
        <ele>150.6</ele>
        <time>2024-04-07T11:18:30Z</time>
      </trkpt>
      <trkpt lat="49.11281" lon="-0.40961">
        <ele>150.8</ele>
        <time>2024-04-07T11:18:31Z</time>
      </trkpt>
      <trkpt lat="49.11279" lon="-0.40952">
        <ele>151</ele>
        <time>2024-04-07T11:18:32Z</time>
      </trkpt>
      <trkpt lat="49.11277" lon="-0.40944">
        <ele>151</ele>
        <time>2024-04-07T11:18:33Z</time>
      </trkpt>
      <trkpt lat="49.11273" lon="-0.40927">
        <ele>151.2</ele>
        <time>2024-04-07T11:18:34Z</time>
      </trkpt>
      <trkpt lat="49.11272" lon="-0.40921">
        <ele>151.2</ele>
        <time>2024-04-07T11:18:35Z</time>
      </trkpt>
      <trkpt lat="49.11271" lon="-0.40916">
        <ele>151</ele>
        <time>2024-04-07T11:18:36Z</time>
      </trkpt>
      <trkpt lat="49.11269" lon="-0.40905">
        <ele>151</ele>
        <time>2024-04-07T11:18:37Z</time>
      </trkpt>
      <trkpt lat="49.11267" lon="-0.40881">
        <ele>150.8</ele>
        <time>2024-04-07T11:18:38Z</time>
      </trkpt>
      <trkpt lat="49.11266" lon="-0.4087">
        <ele>150.4</ele>
        <time>2024-04-07T11:18:39Z</time>
      </trkpt>
      <trkpt lat="49.11265" lon="-0.40858">
        <ele>150</ele>
        <time>2024-04-07T11:18:40Z</time>
      </trkpt>
      <trkpt lat="49.11264" lon="-0.40847">
        <ele>149.6</ele>
        <time>2024-04-07T11:18:41Z</time>
      </trkpt>
      <trkpt lat="49.11263" lon="-0.40841">
        <ele>149.6</ele>
        <time>2024-04-07T11:18:42Z</time>
      </trkpt>
      <trkpt lat="49.11263" lon="-0.40836">
        <ele>149.4</ele>
        <time>2024-04-07T11:18:43Z</time>
      </trkpt>
      <trkpt lat="49.1126" lon="-0.40816">
        <ele>149.4</ele>
        <time>2024-04-07T11:18:44Z</time>
      </trkpt>
      <trkpt lat="49.1126" lon="-0.40808">
        <ele>149.4</ele>
        <time>2024-04-07T11:18:45Z</time>
      </trkpt>
      <trkpt lat="49.11258" lon="-0.4079">
        <ele>149.6</ele>
        <time>2024-04-07T11:18:46Z</time>
      </trkpt>
      <trkpt lat="49.11257" lon="-0.40779">
        <ele>149.6</ele>
        <time>2024-04-07T11:18:47Z</time>
      </trkpt>
      <trkpt lat="49.11256" lon="-0.40767">
        <ele>149.6</ele>
        <time>2024-04-07T11:18:48Z</time>
      </trkpt>
      <trkpt lat="49.11254" lon="-0.40756">
        <ele>149.4</ele>
        <time>2024-04-07T11:18:49Z</time>
      </trkpt>
      <trkpt lat="49.11253" lon="-0.40744">
        <ele>149.2</ele>
        <time>2024-04-07T11:18:50Z</time>
      </trkpt>
      <trkpt lat="49.11252" lon="-0.40732">
        <ele>149</ele>
        <time>2024-04-07T11:18:51Z</time>
      </trkpt>
      <trkpt lat="49.11251" lon="-0.4072">
        <ele>148.8</ele>
        <time>2024-04-07T11:18:52Z</time>
      </trkpt>
      <trkpt lat="49.1125" lon="-0.40708">
        <ele>148.6</ele>
        <time>2024-04-07T11:18:53Z</time>
      </trkpt>
      <trkpt lat="49.11249" lon="-0.40699">
        <ele>148.8</ele>
        <time>2024-04-07T11:18:54Z</time>
      </trkpt>
      <trkpt lat="49.11249" lon="-0.4069">
        <ele>148.8</ele>
        <time>2024-04-07T11:18:55Z</time>
      </trkpt>
      <trkpt lat="49.11247" lon="-0.40672">
        <ele>149</ele>
        <time>2024-04-07T11:18:56Z</time>
      </trkpt>
      <trkpt lat="49.11246" lon="-0.4066">
        <ele>149.4</ele>
        <time>2024-04-07T11:18:57Z</time>
      </trkpt>
      <trkpt lat="49.11244" lon="-0.40648">
        <ele>149.8</ele>
        <time>2024-04-07T11:18:58Z</time>
      </trkpt>
      <trkpt lat="49.11244" lon="-0.40648">
        <ele>150</ele>
        <time>2024-04-07T11:18:59Z</time>
      </trkpt>
      <trkpt lat="49.11242" lon="-0.40628">
        <ele>150</ele>
        <time>2024-04-07T11:19:00Z</time>
      </trkpt>
      <trkpt lat="49.11242" lon="-0.4062">
        <ele>150</ele>
        <time>2024-04-07T11:19:01Z</time>
      </trkpt>
      <trkpt lat="49.1124" lon="-0.40603">
        <ele>149.8</ele>
        <time>2024-04-07T11:19:02Z</time>
      </trkpt>
      <trkpt lat="49.11241" lon="-0.40597">
        <ele>149.4</ele>
        <time>2024-04-07T11:19:03Z</time>
      </trkpt>
      <trkpt lat="49.11241" lon="-0.40592">
        <ele>149.2</ele>
        <time>2024-04-07T11:19:04Z</time>
      </trkpt>
      <trkpt lat="49.11243" lon="-0.40582">
        <ele>149</ele>
        <time>2024-04-07T11:19:05Z</time>
      </trkpt>
      <trkpt lat="49.11247" lon="-0.40573">
        <ele>148.8</ele>
        <time>2024-04-07T11:19:06Z</time>
      </trkpt>
      <trkpt lat="49.11252" lon="-0.40565">
        <ele>148.6</ele>
        <time>2024-04-07T11:19:07Z</time>
      </trkpt>
      <trkpt lat="49.11258" lon="-0.40557">
        <ele>148.4</ele>
        <time>2024-04-07T11:19:08Z</time>
      </trkpt>
      <trkpt lat="49.11272" lon="-0.40544">
        <ele>148.4</ele>
        <time>2024-04-07T11:19:09Z</time>
      </trkpt>
      <trkpt lat="49.11276" lon="-0.40541">
        <ele>148.4</ele>
        <time>2024-04-07T11:19:10Z</time>
      </trkpt>
      <trkpt lat="49.11279" lon="-0.40537">
        <ele>148.4</ele>
        <time>2024-04-07T11:19:11Z</time>
      </trkpt>
      <trkpt lat="49.11291" lon="-0.40525">
        <ele>148.4</ele>
        <time>2024-04-07T11:19:12Z</time>
      </trkpt>
      <trkpt lat="49.11296" lon="-0.4052">
        <ele>148.4</ele>
        <time>2024-04-07T11:19:13Z</time>
      </trkpt>
      <trkpt lat="49.11307" lon="-0.40509">
        <ele>148.4</ele>
        <time>2024-04-07T11:19:14Z</time>
      </trkpt>
      <trkpt lat="49.11313" lon="-0.40502">
        <ele>148.4</ele>
        <time>2024-04-07T11:19:15Z</time>
      </trkpt>
      <trkpt lat="49.11319" lon="-0.40494">
        <ele>148.4</ele>
        <time>2024-04-07T11:19:16Z</time>
      </trkpt>
      <trkpt lat="49.11324" lon="-0.40488">
        <ele>148.6</ele>
        <time>2024-04-07T11:19:17Z</time>
      </trkpt>
      <trkpt lat="49.11324" lon="-0.40488">
        <ele>148.6</ele>
        <time>2024-04-07T11:19:18Z</time>
      </trkpt>
      <trkpt lat="49.11334" lon="-0.40474">
        <ele>148.6</ele>
        <time>2024-04-07T11:19:19Z</time>
      </trkpt>
      <trkpt lat="49.11336" lon="-0.40467">
        <ele>148.8</ele>
        <time>2024-04-07T11:19:20Z</time>
      </trkpt>
      <trkpt lat="49.11339" lon="-0.40461">
        <ele>148.8</ele>
        <time>2024-04-07T11:19:21Z</time>
      </trkpt>
      <trkpt lat="49.11344" lon="-0.40448">
        <ele>148.8</ele>
        <time>2024-04-07T11:19:22Z</time>
      </trkpt>
      <trkpt lat="49.11346" lon="-0.40444">
        <ele>149</ele>
        <time>2024-04-07T11:19:23Z</time>
      </trkpt>
      <trkpt lat="49.11348" lon="-0.40439">
        <ele>149</ele>
        <time>2024-04-07T11:19:24Z</time>
      </trkpt>
      <trkpt lat="49.11352" lon="-0.4043">
        <ele>149</ele>
        <time>2024-04-07T11:19:25Z</time>
      </trkpt>
      <trkpt lat="49.11357" lon="-0.40416">
        <ele>149</ele>
        <time>2024-04-07T11:19:26Z</time>
      </trkpt>
      <trkpt lat="49.11359" lon="-0.40411">
        <ele>149</ele>
        <time>2024-04-07T11:19:27Z</time>
      </trkpt>
      <trkpt lat="49.11362" lon="-0.40402">
        <ele>149.2</ele>
        <time>2024-04-07T11:19:28Z</time>
      </trkpt>
      <trkpt lat="49.11368" lon="-0.40382">
        <ele>149.2</ele>
        <time>2024-04-07T11:19:29Z</time>
      </trkpt>
      <trkpt lat="49.11368" lon="-0.40382">
        <ele>149.4</ele>
        <time>2024-04-07T11:19:30Z</time>
      </trkpt>
      <trkpt lat="49.1137" lon="-0.40373">
        <ele>149.4</ele>
        <time>2024-04-07T11:19:31Z</time>
      </trkpt>
      <trkpt lat="49.11373" lon="-0.40359">
        <ele>149.4</ele>
        <time>2024-04-07T11:19:32Z</time>
      </trkpt>
      <trkpt lat="49.11374" lon="-0.40355">
        <ele>149.6</ele>
        <time>2024-04-07T11:19:33Z</time>
      </trkpt>
      <trkpt lat="49.11376" lon="-0.40346">
        <ele>150</ele>
        <time>2024-04-07T11:19:34Z</time>
      </trkpt>
      <trkpt lat="49.11378" lon="-0.4033">
        <ele>150.2</ele>
        <time>2024-04-07T11:19:35Z</time>
      </trkpt>
      <trkpt lat="49.11378" lon="-0.40324">
        <ele>150.6</ele>
        <time>2024-04-07T11:19:36Z</time>
      </trkpt>
      <trkpt lat="49.11379" lon="-0.40311">
        <ele>150.8</ele>
        <time>2024-04-07T11:19:37Z</time>
      </trkpt>
      <trkpt lat="49.11379" lon="-0.40306">
        <ele>150.8</ele>
        <time>2024-04-07T11:19:38Z</time>
      </trkpt>
      <trkpt lat="49.11379" lon="-0.40302">
        <ele>151</ele>
        <time>2024-04-07T11:19:39Z</time>
      </trkpt>
      <trkpt lat="49.11379" lon="-0.40293">
        <ele>151</ele>
        <time>2024-04-07T11:19:40Z</time>
      </trkpt>
      <trkpt lat="49.11377" lon="-0.40285">
        <ele>151.2</ele>
        <time>2024-04-07T11:19:41Z</time>
      </trkpt>
      <trkpt lat="49.11376" lon="-0.40278">
        <ele>151.4</ele>
        <time>2024-04-07T11:19:42Z</time>
      </trkpt>
      <trkpt lat="49.11375" lon="-0.4027">
        <ele>151.6</ele>
        <time>2024-04-07T11:19:43Z</time>
      </trkpt>
      <trkpt lat="49.11376" lon="-0.40261">
        <ele>151.8</ele>
        <time>2024-04-07T11:19:44Z</time>
      </trkpt>
      <trkpt lat="49.11376" lon="-0.40252">
        <ele>152.2</ele>
        <time>2024-04-07T11:19:45Z</time>
      </trkpt>
      <trkpt lat="49.11374" lon="-0.40233">
        <ele>152.2</ele>
        <time>2024-04-07T11:19:46Z</time>
      </trkpt>
      <trkpt lat="49.11373" lon="-0.40228">
        <ele>152.2</ele>
        <time>2024-04-07T11:19:47Z</time>
      </trkpt>
      <trkpt lat="49.11372" lon="-0.40223">
        <ele>152.2</ele>
        <time>2024-04-07T11:19:48Z</time>
      </trkpt>
      <trkpt lat="49.11369" lon="-0.40206">
        <ele>152.2</ele>
        <time>2024-04-07T11:19:49Z</time>
      </trkpt>
      <trkpt lat="49.11368" lon="-0.40199">
        <ele>152.2</ele>
        <time>2024-04-07T11:19:50Z</time>
      </trkpt>
      <trkpt lat="49.11365" lon="-0.40184">
        <ele>152.4</ele>
        <time>2024-04-07T11:19:51Z</time>
      </trkpt>
      <trkpt lat="49.11365" lon="-0.40184">
        <ele>152.4</ele>
        <time>2024-04-07T11:19:52Z</time>
      </trkpt>
      <trkpt lat="49.11363" lon="-0.40169">
        <ele>152.4</ele>
        <time>2024-04-07T11:19:53Z</time>
      </trkpt>
      <trkpt lat="49.11363" lon="-0.40164">
        <ele>152.4</ele>
        <time>2024-04-07T11:19:54Z</time>
      </trkpt>
      <trkpt lat="49.11363" lon="-0.40154">
        <ele>152.4</ele>
        <time>2024-04-07T11:19:55Z</time>
      </trkpt>
      <trkpt lat="49.11365" lon="-0.40134">
        <ele>152.4</ele>
        <time>2024-04-07T11:19:56Z</time>
      </trkpt>
      <trkpt lat="49.11366" lon="-0.40129">
        <ele>152.4</ele>
        <time>2024-04-07T11:19:57Z</time>
      </trkpt>
      <trkpt lat="49.11367" lon="-0.40124">
        <ele>152.2</ele>
        <time>2024-04-07T11:19:58Z</time>
      </trkpt>
      <trkpt lat="49.1137" lon="-0.40115">
        <ele>152.2</ele>
        <time>2024-04-07T11:19:59Z</time>
      </trkpt>
      <trkpt lat="49.11373" lon="-0.40105">
        <ele>152.2</ele>
        <time>2024-04-07T11:20:00Z</time>
      </trkpt>
      <trkpt lat="49.11381" lon="-0.40087">
        <ele>152.2</ele>
        <time>2024-04-07T11:20:01Z</time>
      </trkpt>
      <trkpt lat="49.11383" lon="-0.40083">
        <ele>152.2</ele>
        <time>2024-04-07T11:20:02Z</time>
      </trkpt>
      <trkpt lat="49.11385" lon="-0.40079">
        <ele>152.2</ele>
        <time>2024-04-07T11:20:03Z</time>
      </trkpt>
      <trkpt lat="49.1139" lon="-0.40071">
        <ele>152.2</ele>
        <time>2024-04-07T11:20:04Z</time>
      </trkpt>
      <trkpt lat="49.11395" lon="-0.40064">
        <ele>152.2</ele>
        <time>2024-04-07T11:20:05Z</time>
      </trkpt>
      <trkpt lat="49.114" lon="-0.40057">
        <ele>152.2</ele>
        <time>2024-04-07T11:20:06Z</time>
      </trkpt>
      <trkpt lat="49.11411" lon="-0.40044">
        <ele>152.4</ele>
        <time>2024-04-07T11:20:07Z</time>
      </trkpt>
      <trkpt lat="49.11414" lon="-0.40041">
        <ele>152.8</ele>
        <time>2024-04-07T11:20:08Z</time>
      </trkpt>
      <trkpt lat="49.11417" lon="-0.40037">
        <ele>153</ele>
        <time>2024-04-07T11:20:09Z</time>
      </trkpt>
      <trkpt lat="49.11423" lon="-0.40032">
        <ele>153.2</ele>
        <time>2024-04-07T11:20:10Z</time>
      </trkpt>
      <trkpt lat="49.1143" lon="-0.40026">
        <ele>153.2</ele>
        <time>2024-04-07T11:20:11Z</time>
      </trkpt>
      <trkpt lat="49.11444" lon="-0.40018">
        <ele>153.2</ele>
        <time>2024-04-07T11:20:12Z</time>
      </trkpt>
      <trkpt lat="49.11448" lon="-0.40017">
        <ele>153</ele>
        <time>2024-04-07T11:20:13Z</time>
      </trkpt>
      <trkpt lat="49.11452" lon="-0.40015">
        <ele>152.8</ele>
        <time>2024-04-07T11:20:14Z</time>
      </trkpt>
      <trkpt lat="49.1146" lon="-0.4001">
        <ele>152.4</ele>
        <time>2024-04-07T11:20:15Z</time>
      </trkpt>
      <trkpt lat="49.11471" lon="-0.40004">
        <ele>152</ele>
        <time>2024-04-07T11:20:16Z</time>
      </trkpt>
      <trkpt lat="49.11475" lon="-0.40002">
        <ele>151.4</ele>
        <time>2024-04-07T11:20:17Z</time>
      </trkpt>
      <trkpt lat="49.11487" lon="-0.39996">
        <ele>150.8</ele>
        <time>2024-04-07T11:20:18Z</time>
      </trkpt>
      <trkpt lat="49.11491" lon="-0.39994">
        <ele>150.4</ele>
        <time>2024-04-07T11:20:19Z</time>
      </trkpt>
      <trkpt lat="49.11499" lon="-0.39989">
        <ele>149.8</ele>
        <time>2024-04-07T11:20:20Z</time>
      </trkpt>
      <trkpt lat="49.11507" lon="-0.39983">
        <ele>149.2</ele>
        <time>2024-04-07T11:20:21Z</time>
      </trkpt>
      <trkpt lat="49.11514" lon="-0.39977">
        <ele>148.8</ele>
        <time>2024-04-07T11:20:22Z</time>
      </trkpt>
      <trkpt lat="49.11522" lon="-0.39969">
        <ele>148.6</ele>
        <time>2024-04-07T11:20:23Z</time>
      </trkpt>
      <trkpt lat="49.1153" lon="-0.3996">
        <ele>148</ele>
        <time>2024-04-07T11:20:24Z</time>
      </trkpt>
      <trkpt lat="49.11545" lon="-0.39944">
        <ele>147.4</ele>
        <time>2024-04-07T11:20:25Z</time>
      </trkpt>
      <trkpt lat="49.11551" lon="-0.39937">
        <ele>146.4</ele>
        <time>2024-04-07T11:20:26Z</time>
      </trkpt>
      <trkpt lat="49.11564" lon="-0.39923">
        <ele>145.6</ele>
        <time>2024-04-07T11:20:27Z</time>
      </trkpt>
      <trkpt lat="49.11569" lon="-0.39917">
        <ele>144.6</ele>
        <time>2024-04-07T11:20:28Z</time>
      </trkpt>
      <trkpt lat="49.11573" lon="-0.39912">
        <ele>143.6</ele>
        <time>2024-04-07T11:20:29Z</time>
      </trkpt>
      <trkpt lat="49.11588" lon="-0.39894">
        <ele>142.6</ele>
        <time>2024-04-07T11:20:30Z</time>
      </trkpt>
      <trkpt lat="49.11594" lon="-0.39887">
        <ele>141.6</ele>
        <time>2024-04-07T11:20:31Z</time>
      </trkpt>
      <trkpt lat="49.11606" lon="-0.39872">
        <ele>141</ele>
        <time>2024-04-07T11:20:32Z</time>
      </trkpt>
      <trkpt lat="49.11619" lon="-0.39857">
        <ele>140.4</ele>
        <time>2024-04-07T11:20:33Z</time>
      </trkpt>
      <trkpt lat="49.11628" lon="-0.39846">
        <ele>139.8</ele>
        <time>2024-04-07T11:20:34Z</time>
      </trkpt>
      <trkpt lat="49.11628" lon="-0.39846">
        <ele>139</ele>
        <time>2024-04-07T11:20:35Z</time>
      </trkpt>
      <trkpt lat="49.11638" lon="-0.39835">
        <ele>138</ele>
        <time>2024-04-07T11:20:36Z</time>
      </trkpt>
      <trkpt lat="49.11658" lon="-0.39812">
        <ele>137</ele>
        <time>2024-04-07T11:20:37Z</time>
      </trkpt>
      <trkpt lat="49.11668" lon="-0.398">
        <ele>136.2</ele>
        <time>2024-04-07T11:20:38Z</time>
      </trkpt>
      <trkpt lat="49.11678" lon="-0.39788">
        <ele>135.6</ele>
        <time>2024-04-07T11:20:39Z</time>
      </trkpt>
      <trkpt lat="49.11678" lon="-0.39788">
        <ele>134.8</ele>
        <time>2024-04-07T11:20:40Z</time>
      </trkpt>
      <trkpt lat="49.117" lon="-0.39764">
        <ele>134</ele>
        <time>2024-04-07T11:20:41Z</time>
      </trkpt>
      <trkpt lat="49.1171" lon="-0.39751">
        <ele>133</ele>
        <time>2024-04-07T11:20:42Z</time>
      </trkpt>
      <trkpt lat="49.11716" lon="-0.39745">
        <ele>132</ele>
        <time>2024-04-07T11:20:43Z</time>
      </trkpt>
      <trkpt lat="49.11721" lon="-0.39738">
        <ele>131.2</ele>
        <time>2024-04-07T11:20:44Z</time>
      </trkpt>
      <trkpt lat="49.1174" lon="-0.39715">
        <ele>130.6</ele>
        <time>2024-04-07T11:20:45Z</time>
      </trkpt>
      <trkpt lat="49.11749" lon="-0.39706">
        <ele>129.8</ele>
        <time>2024-04-07T11:20:46Z</time>
      </trkpt>
      <trkpt lat="49.11766" lon="-0.39686">
        <ele>129</ele>
        <time>2024-04-07T11:20:47Z</time>
      </trkpt>
      <trkpt lat="49.11771" lon="-0.39678">
        <ele>128</ele>
        <time>2024-04-07T11:20:48Z</time>
      </trkpt>
      <trkpt lat="49.11776" lon="-0.39671">
        <ele>127.2</ele>
        <time>2024-04-07T11:20:49Z</time>
      </trkpt>
      <trkpt lat="49.11786" lon="-0.39656">
        <ele>126.2</ele>
        <time>2024-04-07T11:20:50Z</time>
      </trkpt>
      <trkpt lat="49.11795" lon="-0.3964">
        <ele>124.4</ele>
        <time>2024-04-07T11:20:51Z</time>
      </trkpt>
      <trkpt lat="49.11803" lon="-0.39622">
        <ele>122.6</ele>
        <time>2024-04-07T11:20:52Z</time>
      </trkpt>
      <trkpt lat="49.1181" lon="-0.39604">
        <ele>121.4</ele>
        <time>2024-04-07T11:20:53Z</time>
      </trkpt>
      <trkpt lat="49.11816" lon="-0.39585">
        <ele>120.6</ele>
        <time>2024-04-07T11:20:54Z</time>
      </trkpt>
      <trkpt lat="49.11822" lon="-0.39565">
        <ele>120.2</ele>
        <time>2024-04-07T11:20:55Z</time>
      </trkpt>
      <trkpt lat="49.11827" lon="-0.39545">
        <ele>119.6</ele>
        <time>2024-04-07T11:20:56Z</time>
      </trkpt>
      <trkpt lat="49.11831" lon="-0.39526">
        <ele>118.4</ele>
        <time>2024-04-07T11:20:57Z</time>
      </trkpt>
      <trkpt lat="49.11834" lon="-0.39505">
        <ele>116.8</ele>
        <time>2024-04-07T11:20:58Z</time>
      </trkpt>
      <trkpt lat="49.11836" lon="-0.39486">
        <ele>115.6</ele>
        <time>2024-04-07T11:20:59Z</time>
      </trkpt>
      <trkpt lat="49.11838" lon="-0.39466">
        <ele>114.8</ele>
        <time>2024-04-07T11:21:00Z</time>
      </trkpt>
      <trkpt lat="49.11838" lon="-0.39446">
        <ele>114.4</ele>
        <time>2024-04-07T11:21:01Z</time>
      </trkpt>
      <trkpt lat="49.11837" lon="-0.39427">
        <ele>113.8</ele>
        <time>2024-04-07T11:21:02Z</time>
      </trkpt>
      <trkpt lat="49.11833" lon="-0.39409">
        <ele>113.2</ele>
        <time>2024-04-07T11:21:03Z</time>
      </trkpt>
      <trkpt lat="49.11827" lon="-0.39393">
        <ele>112.8</ele>
        <time>2024-04-07T11:21:04Z</time>
      </trkpt>
      <trkpt lat="49.1182" lon="-0.39379">
        <ele>112.6</ele>
        <time>2024-04-07T11:21:05Z</time>
      </trkpt>
      <trkpt lat="49.11813" lon="-0.39365">
        <ele>112.4</ele>
        <time>2024-04-07T11:21:06Z</time>
      </trkpt>
      <trkpt lat="49.11807" lon="-0.39353">
        <ele>112.2</ele>
        <time>2024-04-07T11:21:07Z</time>
      </trkpt>
      <trkpt lat="49.11803" lon="-0.3934">
        <ele>112.2</ele>
        <time>2024-04-07T11:21:08Z</time>
      </trkpt>
      <trkpt lat="49.11801" lon="-0.39328">
        <ele>112.2</ele>
        <time>2024-04-07T11:21:09Z</time>
      </trkpt>
      <trkpt lat="49.11802" lon="-0.39315">
        <ele>112.4</ele>
        <time>2024-04-07T11:21:10Z</time>
      </trkpt>
      <trkpt lat="49.11805" lon="-0.39303">
        <ele>112.4</ele>
        <time>2024-04-07T11:21:11Z</time>
      </trkpt>
      <trkpt lat="49.1181" lon="-0.39292">
        <ele>112.4</ele>
        <time>2024-04-07T11:21:12Z</time>
      </trkpt>
      <trkpt lat="49.11815" lon="-0.39281">
        <ele>112.4</ele>
        <time>2024-04-07T11:21:13Z</time>
      </trkpt>
      <trkpt lat="49.1182" lon="-0.3927">
        <ele>112.4</ele>
        <time>2024-04-07T11:21:14Z</time>
      </trkpt>
      <trkpt lat="49.11822" lon="-0.39258">
        <ele>112.2</ele>
        <time>2024-04-07T11:21:15Z</time>
      </trkpt>
      <trkpt lat="49.11821" lon="-0.39246">
        <ele>111.8</ele>
        <time>2024-04-07T11:21:16Z</time>
      </trkpt>
      <trkpt lat="49.11818" lon="-0.39234">
        <ele>111.2</ele>
        <time>2024-04-07T11:21:17Z</time>
      </trkpt>
      <trkpt lat="49.11812" lon="-0.39224">
        <ele>110.4</ele>
        <time>2024-04-07T11:21:18Z</time>
      </trkpt>
      <trkpt lat="49.11804" lon="-0.39215">
        <ele>109.8</ele>
        <time>2024-04-07T11:21:19Z</time>
      </trkpt>
      <trkpt lat="49.11795" lon="-0.39207">
        <ele>109.4</ele>
        <time>2024-04-07T11:21:20Z</time>
      </trkpt>
      <trkpt lat="49.11786" lon="-0.39199">
        <ele>109</ele>
        <time>2024-04-07T11:21:21Z</time>
      </trkpt>
      <trkpt lat="49.11777" lon="-0.39191">
        <ele>108.2</ele>
        <time>2024-04-07T11:21:22Z</time>
      </trkpt>
      <trkpt lat="49.11768" lon="-0.39183">
        <ele>107.2</ele>
        <time>2024-04-07T11:21:23Z</time>
      </trkpt>
      <trkpt lat="49.11758" lon="-0.39175">
        <ele>106.6</ele>
        <time>2024-04-07T11:21:24Z</time>
      </trkpt>
      <trkpt lat="49.11748" lon="-0.39166">
        <ele>105.8</ele>
        <time>2024-04-07T11:21:25Z</time>
      </trkpt>
      <trkpt lat="49.11738" lon="-0.39156">
        <ele>104.8</ele>
        <time>2024-04-07T11:21:26Z</time>
      </trkpt>
      <trkpt lat="49.11722" lon="-0.39142">
        <ele>104</ele>
        <time>2024-04-07T11:21:27Z</time>
      </trkpt>
      <trkpt lat="49.11707" lon="-0.39127">
        <ele>103.4</ele>
        <time>2024-04-07T11:21:28Z</time>
      </trkpt>
      <trkpt lat="49.11702" lon="-0.39122">
        <ele>102.6</ele>
        <time>2024-04-07T11:21:29Z</time>
      </trkpt>
      <trkpt lat="49.11697" lon="-0.39117">
        <ele>101.2</ele>
        <time>2024-04-07T11:21:30Z</time>
      </trkpt>
      <trkpt lat="49.11687" lon="-0.39107">
        <ele>100</ele>
        <time>2024-04-07T11:21:31Z</time>
      </trkpt>
      <trkpt lat="49.11677" lon="-0.39098">
        <ele>99</ele>
        <time>2024-04-07T11:21:32Z</time>
      </trkpt>
      <trkpt lat="49.11668" lon="-0.39089">
        <ele>98.6</ele>
        <time>2024-04-07T11:21:33Z</time>
      </trkpt>
      <trkpt lat="49.11659" lon="-0.39081">
        <ele>98.4</ele>
        <time>2024-04-07T11:21:34Z</time>
      </trkpt>
      <trkpt lat="49.11644" lon="-0.39067">
        <ele>98.4</ele>
        <time>2024-04-07T11:21:35Z</time>
      </trkpt>
      <trkpt lat="49.11637" lon="-0.3906">
        <ele>99</ele>
        <time>2024-04-07T11:21:36Z</time>
      </trkpt>
      <trkpt lat="49.11624" lon="-0.39047">
        <ele>100.2</ele>
        <time>2024-04-07T11:21:37Z</time>
      </trkpt>
      <trkpt lat="49.11624" lon="-0.39047">
        <ele>101</ele>
        <time>2024-04-07T11:21:38Z</time>
      </trkpt>
      <trkpt lat="49.11609" lon="-0.3903">
        <ele>101.6</ele>
        <time>2024-04-07T11:21:39Z</time>
      </trkpt>
      <trkpt lat="49.11601" lon="-0.39022">
        <ele>101.8</ele>
        <time>2024-04-07T11:21:40Z</time>
      </trkpt>
      <trkpt lat="49.11601" lon="-0.39022">
        <ele>102</ele>
        <time>2024-04-07T11:21:41Z</time>
      </trkpt>
      <trkpt lat="49.1159" lon="-0.39009">
        <ele>102</ele>
        <time>2024-04-07T11:21:42Z</time>
      </trkpt>
      <trkpt lat="49.11586" lon="-0.39005">
        <ele>102</ele>
        <time>2024-04-07T11:21:43Z</time>
      </trkpt>
      <trkpt lat="49.11579" lon="-0.38997">
        <ele>102</ele>
        <time>2024-04-07T11:21:44Z</time>
      </trkpt>
      <trkpt lat="49.11565" lon="-0.38982">
        <ele>102</ele>
        <time>2024-04-07T11:21:45Z</time>
      </trkpt>
      <trkpt lat="49.11565" lon="-0.38982">
        <ele>102</ele>
        <time>2024-04-07T11:21:46Z</time>
      </trkpt>
      <trkpt lat="49.11555" lon="-0.38971">
        <ele>102.2</ele>
        <time>2024-04-07T11:21:47Z</time>
      </trkpt>
      <trkpt lat="49.11552" lon="-0.38968">
        <ele>102.2</ele>
        <time>2024-04-07T11:21:48Z</time>
      </trkpt>
      <trkpt lat="49.11542" lon="-0.38956">
        <ele>102.2</ele>
        <time>2024-04-07T11:21:49Z</time>
      </trkpt>
      <trkpt lat="49.11539" lon="-0.38952">
        <ele>102.2</ele>
        <time>2024-04-07T11:21:50Z</time>
      </trkpt>
      <trkpt lat="49.11535" lon="-0.38943">
        <ele>102</ele>
        <time>2024-04-07T11:21:51Z</time>
      </trkpt>
      <trkpt lat="49.1153" lon="-0.38934">
        <ele>102</ele>
        <time>2024-04-07T11:21:52Z</time>
      </trkpt>
      <trkpt lat="49.11527" lon="-0.38924">
        <ele>102</ele>
        <time>2024-04-07T11:21:53Z</time>
      </trkpt>
      <trkpt lat="49.11525" lon="-0.38914">
        <ele>102</ele>
        <time>2024-04-07T11:21:54Z</time>
      </trkpt>
      <trkpt lat="49.11524" lon="-0.38905">
        <ele>102.2</ele>
        <time>2024-04-07T11:21:55Z</time>
      </trkpt>
      <trkpt lat="49.11524" lon="-0.38895">
        <ele>102.4</ele>
        <time>2024-04-07T11:21:56Z</time>
      </trkpt>
      <trkpt lat="49.11525" lon="-0.38875">
        <ele>102.6</ele>
        <time>2024-04-07T11:21:57Z</time>
      </trkpt>
      <trkpt lat="49.11527" lon="-0.38864">
        <ele>103</ele>
        <time>2024-04-07T11:21:58Z</time>
      </trkpt>
      <trkpt lat="49.11529" lon="-0.38853">
        <ele>103.2</ele>
        <time>2024-04-07T11:21:59Z</time>
      </trkpt>
      <trkpt lat="49.1153" lon="-0.38848">
        <ele>103.4</ele>
        <time>2024-04-07T11:22:00Z</time>
      </trkpt>
      <trkpt lat="49.11531" lon="-0.38842">
        <ele>103.4</ele>
        <time>2024-04-07T11:22:01Z</time>
      </trkpt>
      <trkpt lat="49.11535" lon="-0.38827">
        <ele>103.2</ele>
        <time>2024-04-07T11:22:02Z</time>
      </trkpt>
      <trkpt lat="49.11536" lon="-0.38822">
        <ele>103.4</ele>
        <time>2024-04-07T11:22:03Z</time>
      </trkpt>
      <trkpt lat="49.1154" lon="-0.38807">
        <ele>103.8</ele>
        <time>2024-04-07T11:22:04Z</time>
      </trkpt>
      <trkpt lat="49.11541" lon="-0.38803">
        <ele>104</ele>
        <time>2024-04-07T11:22:05Z</time>
      </trkpt>
      <trkpt lat="49.11546" lon="-0.38784">
        <ele>104.4</ele>
        <time>2024-04-07T11:22:06Z</time>
      </trkpt>
      <trkpt lat="49.11547" lon="-0.38777">
        <ele>104.8</ele>
        <time>2024-04-07T11:22:07Z</time>
      </trkpt>
      <trkpt lat="49.11549" lon="-0.3877">
        <ele>105.4</ele>
        <time>2024-04-07T11:22:08Z</time>
      </trkpt>
      <trkpt lat="49.11553" lon="-0.38756">
        <ele>105.8</ele>
        <time>2024-04-07T11:22:09Z</time>
      </trkpt>
      <trkpt lat="49.11554" lon="-0.38752">
        <ele>106</ele>
        <time>2024-04-07T11:22:10Z</time>
      </trkpt>
      <trkpt lat="49.11555" lon="-0.38747">
        <ele>106</ele>
        <time>2024-04-07T11:22:11Z</time>
      </trkpt>
      <trkpt lat="49.11557" lon="-0.38737">
        <ele>106</ele>
        <time>2024-04-07T11:22:12Z</time>
      </trkpt>
      <trkpt lat="49.11559" lon="-0.38728">
        <ele>105.6</ele>
        <time>2024-04-07T11:22:13Z</time>
      </trkpt>
      <trkpt lat="49.11561" lon="-0.38718">
        <ele>105</ele>
        <time>2024-04-07T11:22:14Z</time>
      </trkpt>
      <trkpt lat="49.11564" lon="-0.38709">
        <ele>104.8</ele>
        <time>2024-04-07T11:22:15Z</time>
      </trkpt>
      <trkpt lat="49.11567" lon="-0.387">
        <ele>104.6</ele>
        <time>2024-04-07T11:22:16Z</time>
      </trkpt>
      <trkpt lat="49.11571" lon="-0.38691">
        <ele>104.2</ele>
        <time>2024-04-07T11:22:17Z</time>
      </trkpt>
      <trkpt lat="49.11574" lon="-0.38682">
        <ele>104</ele>
        <time>2024-04-07T11:22:18Z</time>
      </trkpt>
      <trkpt lat="49.11579" lon="-0.38673">
        <ele>103.8</ele>
        <time>2024-04-07T11:22:19Z</time>
      </trkpt>
      <trkpt lat="49.11584" lon="-0.38664">
        <ele>103.6</ele>
        <time>2024-04-07T11:22:20Z</time>
      </trkpt>
      <trkpt lat="49.11594" lon="-0.38648">
        <ele>103.6</ele>
        <time>2024-04-07T11:22:21Z</time>
      </trkpt>
      <trkpt lat="49.11594" lon="-0.38648">
        <ele>103.6</ele>
        <time>2024-04-07T11:22:22Z</time>
      </trkpt>
      <trkpt lat="49.11601" lon="-0.38635">
        <ele>103.4</ele>
        <time>2024-04-07T11:22:23Z</time>
      </trkpt>
      <trkpt lat="49.11603" lon="-0.38631">
        <ele>103.6</ele>
        <time>2024-04-07T11:22:24Z</time>
      </trkpt>
      <trkpt lat="49.11608" lon="-0.38623">
        <ele>103.6</ele>
        <time>2024-04-07T11:22:25Z</time>
      </trkpt>
      <trkpt lat="49.11612" lon="-0.38615">
        <ele>103.6</ele>
        <time>2024-04-07T11:22:26Z</time>
      </trkpt>
      <trkpt lat="49.1162" lon="-0.38602">
        <ele>103.8</ele>
        <time>2024-04-07T11:22:27Z</time>
      </trkpt>
      <trkpt lat="49.11623" lon="-0.38597">
        <ele>104</ele>
        <time>2024-04-07T11:22:28Z</time>
      </trkpt>
      <trkpt lat="49.11629" lon="-0.38586">
        <ele>104</ele>
        <time>2024-04-07T11:22:29Z</time>
      </trkpt>
      <trkpt lat="49.1163" lon="-0.38582">
        <ele>104.2</ele>
        <time>2024-04-07T11:22:30Z</time>
      </trkpt>
      <trkpt lat="49.11632" lon="-0.38578">
        <ele>104.6</ele>
        <time>2024-04-07T11:22:31Z</time>
      </trkpt>
      <trkpt lat="49.11635" lon="-0.38571">
        <ele>104.8</ele>
        <time>2024-04-07T11:22:32Z</time>
      </trkpt>
      <trkpt lat="49.11639" lon="-0.38559">
        <ele>105.2</ele>
        <time>2024-04-07T11:22:33Z</time>
      </trkpt>
      <trkpt lat="49.1164" lon="-0.38555">
        <ele>105.6</ele>
        <time>2024-04-07T11:22:34Z</time>
      </trkpt>
      <trkpt lat="49.11643" lon="-0.38539">
        <ele>106</ele>
        <time>2024-04-07T11:22:35Z</time>
      </trkpt>
      <trkpt lat="49.11644" lon="-0.38532">
        <ele>106.6</ele>
        <time>2024-04-07T11:22:36Z</time>
      </trkpt>
      <trkpt lat="49.11644" lon="-0.38524">
        <ele>107</ele>
        <time>2024-04-07T11:22:37Z</time>
      </trkpt>
      <trkpt lat="49.11645" lon="-0.38516">
        <ele>107.4</ele>
        <time>2024-04-07T11:22:38Z</time>
      </trkpt>
      <trkpt lat="49.11646" lon="-0.38509">
        <ele>107.4</ele>
        <time>2024-04-07T11:22:39Z</time>
      </trkpt>
      <trkpt lat="49.11646" lon="-0.38505">
        <ele>107.6</ele>
        <time>2024-04-07T11:22:40Z</time>
      </trkpt>
      <trkpt lat="49.11646" lon="-0.38502">
        <ele>108</ele>
        <time>2024-04-07T11:22:41Z</time>
      </trkpt>
      <trkpt lat="49.11647" lon="-0.38487">
        <ele>108.2</ele>
        <time>2024-04-07T11:22:42Z</time>
      </trkpt>
      <trkpt lat="49.11647" lon="-0.38487">
        <ele>108.4</ele>
        <time>2024-04-07T11:22:43Z</time>
      </trkpt>
      <trkpt lat="49.11647" lon="-0.38476">
        <ele>108.6</ele>
        <time>2024-04-07T11:22:44Z</time>
      </trkpt>
      <trkpt lat="49.11647" lon="-0.38472">
        <ele>109</ele>
        <time>2024-04-07T11:22:45Z</time>
      </trkpt>
      <trkpt lat="49.11647" lon="-0.38464">
        <ele>109.2</ele>
        <time>2024-04-07T11:22:46Z</time>
      </trkpt>
      <trkpt lat="49.11646" lon="-0.38456">
        <ele>109.4</ele>
        <time>2024-04-07T11:22:47Z</time>
      </trkpt>
      <trkpt lat="49.11647" lon="-0.38447">
        <ele>109.4</ele>
        <time>2024-04-07T11:22:48Z</time>
      </trkpt>
      <trkpt lat="49.11647" lon="-0.38439">
        <ele>109.4</ele>
        <time>2024-04-07T11:22:49Z</time>
      </trkpt>
      <trkpt lat="49.11648" lon="-0.38431">
        <ele>109.4</ele>
        <time>2024-04-07T11:22:50Z</time>
      </trkpt>
      <trkpt lat="49.1165" lon="-0.38418">
        <ele>109.4</ele>
        <time>2024-04-07T11:22:51Z</time>
      </trkpt>
      <trkpt lat="49.11651" lon="-0.38414">
        <ele>109.6</ele>
        <time>2024-04-07T11:22:52Z</time>
      </trkpt>
      <trkpt lat="49.11654" lon="-0.38397">
        <ele>109.6</ele>
        <time>2024-04-07T11:22:53Z</time>
      </trkpt>
      <trkpt lat="49.11656" lon="-0.38388">
        <ele>109.6</ele>
        <time>2024-04-07T11:22:54Z</time>
      </trkpt>
      <trkpt lat="49.11656" lon="-0.38383">
        <ele>109.8</ele>
        <time>2024-04-07T11:22:55Z</time>
      </trkpt>
      <trkpt lat="49.11657" lon="-0.38379">
        <ele>110</ele>
        <time>2024-04-07T11:22:56Z</time>
      </trkpt>
      <trkpt lat="49.11658" lon="-0.3837">
        <ele>110</ele>
        <time>2024-04-07T11:22:57Z</time>
      </trkpt>
      <trkpt lat="49.1166" lon="-0.38353">
        <ele>110.2</ele>
        <time>2024-04-07T11:22:58Z</time>
      </trkpt>
      <trkpt lat="49.11661" lon="-0.38344">
        <ele>110.2</ele>
        <time>2024-04-07T11:22:59Z</time>
      </trkpt>
      <trkpt lat="49.11661" lon="-0.38336">
        <ele>110.4</ele>
        <time>2024-04-07T11:23:00Z</time>
      </trkpt>
      <trkpt lat="49.11661" lon="-0.38327">
        <ele>110.4</ele>
        <time>2024-04-07T11:23:01Z</time>
      </trkpt>
      <trkpt lat="49.11661" lon="-0.38319">
        <ele>110.6</ele>
        <time>2024-04-07T11:23:02Z</time>
      </trkpt>
      <trkpt lat="49.11661" lon="-0.3831">
        <ele>110.8</ele>
        <time>2024-04-07T11:23:03Z</time>
      </trkpt>
      <trkpt lat="49.11662" lon="-0.38306">
        <ele>111</ele>
        <time>2024-04-07T11:23:04Z</time>
      </trkpt>
      <trkpt lat="49.11662" lon="-0.38302">
        <ele>111.2</ele>
        <time>2024-04-07T11:23:05Z</time>
      </trkpt>
      <trkpt lat="49.11662" lon="-0.38294">
        <ele>111.2</ele>
        <time>2024-04-07T11:23:06Z</time>
      </trkpt>
      <trkpt lat="49.11662" lon="-0.38285">
        <ele>111.4</ele>
        <time>2024-04-07T11:23:07Z</time>
      </trkpt>
      <trkpt lat="49.11661" lon="-0.38269">
        <ele>111.4</ele>
        <time>2024-04-07T11:23:08Z</time>
      </trkpt>
      <trkpt lat="49.1166" lon="-0.3826">
        <ele>111.4</ele>
        <time>2024-04-07T11:23:09Z</time>
      </trkpt>
      <trkpt lat="49.1166" lon="-0.38252">
        <ele>111.6</ele>
        <time>2024-04-07T11:23:10Z</time>
      </trkpt>
      <trkpt lat="49.11659" lon="-0.38244">
        <ele>111.6</ele>
        <time>2024-04-07T11:23:11Z</time>
      </trkpt>
      <trkpt lat="49.11658" lon="-0.38237">
        <ele>111.6</ele>
        <time>2024-04-07T11:23:12Z</time>
      </trkpt>
      <trkpt lat="49.11658" lon="-0.38229">
        <ele>111.8</ele>
        <time>2024-04-07T11:23:13Z</time>
      </trkpt>
      <trkpt lat="49.11658" lon="-0.38222">
        <ele>111.8</ele>
        <time>2024-04-07T11:23:14Z</time>
      </trkpt>
      <trkpt lat="49.11658" lon="-0.38215">
        <ele>111.8</ele>
        <time>2024-04-07T11:23:15Z</time>
      </trkpt>
      <trkpt lat="49.11657" lon="-0.38208">
        <ele>111.8</ele>
        <time>2024-04-07T11:23:16Z</time>
      </trkpt>
      <trkpt lat="49.11657" lon="-0.38201">
        <ele>111.8</ele>
        <time>2024-04-07T11:23:17Z</time>
      </trkpt>
      <trkpt lat="49.11657" lon="-0.38201">
        <ele>112</ele>
        <time>2024-04-07T11:23:18Z</time>
      </trkpt>
      <trkpt lat="49.11657" lon="-0.38194">
        <ele>112.2</ele>
        <time>2024-04-07T11:23:19Z</time>
      </trkpt>
      <trkpt lat="49.11656" lon="-0.38187">
        <ele>112.6</ele>
        <time>2024-04-07T11:23:20Z</time>
      </trkpt>
      <trkpt lat="49.11655" lon="-0.38173">
        <ele>112.8</ele>
        <time>2024-04-07T11:23:21Z</time>
      </trkpt>
      <trkpt lat="49.11654" lon="-0.38166">
        <ele>113.2</ele>
        <time>2024-04-07T11:23:22Z</time>
      </trkpt>
      <trkpt lat="49.11653" lon="-0.38158">
        <ele>113.6</ele>
        <time>2024-04-07T11:23:23Z</time>
      </trkpt>
      <trkpt lat="49.11653" lon="-0.38151">
        <ele>114</ele>
        <time>2024-04-07T11:23:24Z</time>
      </trkpt>
      <trkpt lat="49.11652" lon="-0.38144">
        <ele>114.6</ele>
        <time>2024-04-07T11:23:25Z</time>
      </trkpt>
      <trkpt lat="49.11651" lon="-0.38137">
        <ele>115</ele>
        <time>2024-04-07T11:23:26Z</time>
      </trkpt>
      <trkpt lat="49.1165" lon="-0.3813">
        <ele>115.4</ele>
        <time>2024-04-07T11:23:27Z</time>
      </trkpt>
      <trkpt lat="49.1165" lon="-0.38123">
        <ele>115.8</ele>
        <time>2024-04-07T11:23:28Z</time>
      </trkpt>
      <trkpt lat="49.11649" lon="-0.3812">
        <ele>116</ele>
        <time>2024-04-07T11:23:29Z</time>
      </trkpt>
      <trkpt lat="49.11649" lon="-0.38117">
        <ele>116.4</ele>
        <time>2024-04-07T11:23:30Z</time>
      </trkpt>
      <trkpt lat="49.11647" lon="-0.38103">
        <ele>116.6</ele>
        <time>2024-04-07T11:23:31Z</time>
      </trkpt>
      <trkpt lat="49.11646" lon="-0.38096">
        <ele>116.6</ele>
        <time>2024-04-07T11:23:32Z</time>
      </trkpt>
      <trkpt lat="49.11646" lon="-0.38089">
        <ele>116.8</ele>
        <time>2024-04-07T11:23:33Z</time>
      </trkpt>
      <trkpt lat="49.11645" lon="-0.38082">
        <ele>116.8</ele>
        <time>2024-04-07T11:23:34Z</time>
      </trkpt>
      <trkpt lat="49.11645" lon="-0.38076">
        <ele>116.8</ele>
        <time>2024-04-07T11:23:35Z</time>
      </trkpt>
      <trkpt lat="49.11645" lon="-0.38076">
        <ele>116.8</ele>
        <time>2024-04-07T11:23:36Z</time>
      </trkpt>
      <trkpt lat="49.11645" lon="-0.38062">
        <ele>117</ele>
        <time>2024-04-07T11:23:37Z</time>
      </trkpt>
      <trkpt lat="49.11645" lon="-0.38056">
        <ele>117.4</ele>
        <time>2024-04-07T11:23:38Z</time>
      </trkpt>
      <trkpt lat="49.11645" lon="-0.38049">
        <ele>117.4</ele>
        <time>2024-04-07T11:23:39Z</time>
      </trkpt>
      <trkpt lat="49.11645" lon="-0.38043">
        <ele>117.6</ele>
        <time>2024-04-07T11:23:40Z</time>
      </trkpt>
      <trkpt lat="49.11645" lon="-0.38037">
        <ele>117.6</ele>
        <time>2024-04-07T11:23:41Z</time>
      </trkpt>
      <trkpt lat="49.11645" lon="-0.3803">
        <ele>117.8</ele>
        <time>2024-04-07T11:23:42Z</time>
      </trkpt>
      <trkpt lat="49.11645" lon="-0.38024">
        <ele>117.8</ele>
        <time>2024-04-07T11:23:43Z</time>
      </trkpt>
      <trkpt lat="49.11645" lon="-0.38017">
        <ele>118</ele>
        <time>2024-04-07T11:23:44Z</time>
      </trkpt>
      <trkpt lat="49.11645" lon="-0.38009">
        <ele>118.2</ele>
        <time>2024-04-07T11:23:45Z</time>
      </trkpt>
      <trkpt lat="49.11645" lon="-0.38009">
        <ele>118.4</ele>
        <time>2024-04-07T11:23:46Z</time>
      </trkpt>
      <trkpt lat="49.11645" lon="-0.37994">
        <ele>118.8</ele>
        <time>2024-04-07T11:23:47Z</time>
      </trkpt>
      <trkpt lat="49.11645" lon="-0.37987">
        <ele>119.2</ele>
        <time>2024-04-07T11:23:48Z</time>
      </trkpt>
      <trkpt lat="49.11644" lon="-0.37979">
        <ele>119.6</ele>
        <time>2024-04-07T11:23:49Z</time>
      </trkpt>
      <trkpt lat="49.11644" lon="-0.37971">
        <ele>120</ele>
        <time>2024-04-07T11:23:50Z</time>
      </trkpt>
      <trkpt lat="49.11643" lon="-0.37963">
        <ele>120.4</ele>
        <time>2024-04-07T11:23:51Z</time>
      </trkpt>
      <trkpt lat="49.11643" lon="-0.37955">
        <ele>120.6</ele>
        <time>2024-04-07T11:23:52Z</time>
      </trkpt>
      <trkpt lat="49.11642" lon="-0.37947">
        <ele>120.8</ele>
        <time>2024-04-07T11:23:53Z</time>
      </trkpt>
      <trkpt lat="49.11641" lon="-0.37938">
        <ele>121.2</ele>
        <time>2024-04-07T11:23:54Z</time>
      </trkpt>
      <trkpt lat="49.11641" lon="-0.3793">
        <ele>121.2</ele>
        <time>2024-04-07T11:23:55Z</time>
      </trkpt>
      <trkpt lat="49.1164" lon="-0.37924">
        <ele>121.4</ele>
        <time>2024-04-07T11:23:56Z</time>
      </trkpt>
      <trkpt lat="49.11639" lon="-0.37918">
        <ele>121.4</ele>
        <time>2024-04-07T11:23:57Z</time>
      </trkpt>
      <trkpt lat="49.11638" lon="-0.37906">
        <ele>121.2</ele>
        <time>2024-04-07T11:23:58Z</time>
      </trkpt>
      <trkpt lat="49.11637" lon="-0.37898">
        <ele>121</ele>
        <time>2024-04-07T11:23:59Z</time>
      </trkpt>
      <trkpt lat="49.11636" lon="-0.3789">
        <ele>120.8</ele>
        <time>2024-04-07T11:24:00Z</time>
      </trkpt>
      <trkpt lat="49.11636" lon="-0.37882">
        <ele>120.6</ele>
        <time>2024-04-07T11:24:01Z</time>
      </trkpt>
      <trkpt lat="49.11635" lon="-0.37874">
        <ele>120.6</ele>
        <time>2024-04-07T11:24:02Z</time>
      </trkpt>
      <trkpt lat="49.11635" lon="-0.37866">
        <ele>120.8</ele>
        <time>2024-04-07T11:24:03Z</time>
      </trkpt>
      <trkpt lat="49.11635" lon="-0.3786">
        <ele>121.2</ele>
        <time>2024-04-07T11:24:04Z</time>
      </trkpt>
      <trkpt lat="49.11635" lon="-0.37854">
        <ele>122</ele>
        <time>2024-04-07T11:24:05Z</time>
      </trkpt>
      <trkpt lat="49.11635" lon="-0.37843">
        <ele>122.4</ele>
        <time>2024-04-07T11:24:06Z</time>
      </trkpt>
      <trkpt lat="49.11635" lon="-0.37837">
        <ele>122.8</ele>
        <time>2024-04-07T11:24:07Z</time>
      </trkpt>
      <trkpt lat="49.11635" lon="-0.37832">
        <ele>123.2</ele>
        <time>2024-04-07T11:24:08Z</time>
      </trkpt>
      <trkpt lat="49.11635" lon="-0.3782">
        <ele>123.4</ele>
        <time>2024-04-07T11:24:09Z</time>
      </trkpt>
      <trkpt lat="49.11636" lon="-0.37816">
        <ele>123.6</ele>
        <time>2024-04-07T11:24:10Z</time>
      </trkpt>
      <trkpt lat="49.11636" lon="-0.37812">
        <ele>124</ele>
        <time>2024-04-07T11:24:11Z</time>
      </trkpt>
      <trkpt lat="49.11637" lon="-0.37797">
        <ele>124.2</ele>
        <time>2024-04-07T11:24:12Z</time>
      </trkpt>
      <trkpt lat="49.11638" lon="-0.3779">
        <ele>124.4</ele>
        <time>2024-04-07T11:24:13Z</time>
      </trkpt>
      <trkpt lat="49.11638" lon="-0.3779">
        <ele>124.6</ele>
        <time>2024-04-07T11:24:14Z</time>
      </trkpt>
      <trkpt lat="49.11639" lon="-0.37775">
        <ele>124.8</ele>
        <time>2024-04-07T11:24:15Z</time>
      </trkpt>
      <trkpt lat="49.11639" lon="-0.37771">
        <ele>125</ele>
        <time>2024-04-07T11:24:16Z</time>
      </trkpt>
      <trkpt lat="49.1164" lon="-0.37768">
        <ele>125</ele>
        <time>2024-04-07T11:24:17Z</time>
      </trkpt>
      <trkpt lat="49.11641" lon="-0.37753">
        <ele>125.2</ele>
        <time>2024-04-07T11:24:18Z</time>
      </trkpt>
      <trkpt lat="49.11641" lon="-0.37753">
        <ele>125.4</ele>
        <time>2024-04-07T11:24:19Z</time>
      </trkpt>
      <trkpt lat="49.11642" lon="-0.37739">
        <ele>125.6</ele>
        <time>2024-04-07T11:24:20Z</time>
      </trkpt>
      <trkpt lat="49.11642" lon="-0.37732">
        <ele>125.8</ele>
        <time>2024-04-07T11:24:21Z</time>
      </trkpt>
      <trkpt lat="49.11643" lon="-0.37725">
        <ele>126</ele>
        <time>2024-04-07T11:24:22Z</time>
      </trkpt>
      <trkpt lat="49.11643" lon="-0.37717">
        <ele>126.2</ele>
        <time>2024-04-07T11:24:23Z</time>
      </trkpt>
      <trkpt lat="49.11643" lon="-0.3771">
        <ele>126.2</ele>
        <time>2024-04-07T11:24:24Z</time>
      </trkpt>
      <trkpt lat="49.11643" lon="-0.37703">
        <ele>126.4</ele>
        <time>2024-04-07T11:24:25Z</time>
      </trkpt>
      <trkpt lat="49.11643" lon="-0.37695">
        <ele>126.8</ele>
        <time>2024-04-07T11:24:26Z</time>
      </trkpt>
      <trkpt lat="49.11643" lon="-0.37688">
        <ele>126.8</ele>
        <time>2024-04-07T11:24:27Z</time>
      </trkpt>
      <trkpt lat="49.11643" lon="-0.3768">
        <ele>127</ele>
        <time>2024-04-07T11:24:28Z</time>
      </trkpt>
      <trkpt lat="49.11643" lon="-0.37673">
        <ele>127</ele>
        <time>2024-04-07T11:24:29Z</time>
      </trkpt>
      <trkpt lat="49.11643" lon="-0.37665">
        <ele>127.2</ele>
        <time>2024-04-07T11:24:30Z</time>
      </trkpt>
      <trkpt lat="49.11644" lon="-0.37658">
        <ele>127.2</ele>
        <time>2024-04-07T11:24:31Z</time>
      </trkpt>
      <trkpt lat="49.11644" lon="-0.3765">
        <ele>127.4</ele>
        <time>2024-04-07T11:24:32Z</time>
      </trkpt>
      <trkpt lat="49.11644" lon="-0.37643">
        <ele>127.4</ele>
        <time>2024-04-07T11:24:33Z</time>
      </trkpt>
      <trkpt lat="49.11644" lon="-0.37635">
        <ele>127.6</ele>
        <time>2024-04-07T11:24:34Z</time>
      </trkpt>
      <trkpt lat="49.11644" lon="-0.37628">
        <ele>127.8</ele>
        <time>2024-04-07T11:24:35Z</time>
      </trkpt>
      <trkpt lat="49.11644" lon="-0.37624">
        <ele>128</ele>
        <time>2024-04-07T11:24:36Z</time>
      </trkpt>
      <trkpt lat="49.11644" lon="-0.3762">
        <ele>128.2</ele>
        <time>2024-04-07T11:24:37Z</time>
      </trkpt>
      <trkpt lat="49.11644" lon="-0.37605">
        <ele>128.4</ele>
        <time>2024-04-07T11:24:38Z</time>
      </trkpt>
      <trkpt lat="49.11644" lon="-0.37598">
        <ele>128.4</ele>
        <time>2024-04-07T11:24:39Z</time>
      </trkpt>
      <trkpt lat="49.11645" lon="-0.3759">
        <ele>128.6</ele>
        <time>2024-04-07T11:24:40Z</time>
      </trkpt>
      <trkpt lat="49.11645" lon="-0.37583">
        <ele>128.8</ele>
        <time>2024-04-07T11:24:41Z</time>
      </trkpt>
      <trkpt lat="49.11645" lon="-0.37575">
        <ele>128.8</ele>
        <time>2024-04-07T11:24:42Z</time>
      </trkpt>
      <trkpt lat="49.11645" lon="-0.37571">
        <ele>129</ele>
        <time>2024-04-07T11:24:43Z</time>
      </trkpt>
      <trkpt lat="49.11645" lon="-0.37568">
        <ele>129.2</ele>
        <time>2024-04-07T11:24:44Z</time>
      </trkpt>
      <trkpt lat="49.11645" lon="-0.37556">
        <ele>129.2</ele>
        <time>2024-04-07T11:24:45Z</time>
      </trkpt>
      <trkpt lat="49.11645" lon="-0.37552">
        <ele>129.4</ele>
        <time>2024-04-07T11:24:46Z</time>
      </trkpt>
      <trkpt lat="49.11645" lon="-0.37545">
        <ele>129.6</ele>
        <time>2024-04-07T11:24:47Z</time>
      </trkpt>
      <trkpt lat="49.11645" lon="-0.37538">
        <ele>129.8</ele>
        <time>2024-04-07T11:24:48Z</time>
      </trkpt>
      <trkpt lat="49.11645" lon="-0.37531">
        <ele>130</ele>
        <time>2024-04-07T11:24:49Z</time>
      </trkpt>
      <trkpt lat="49.11645" lon="-0.37524">
        <ele>130</ele>
        <time>2024-04-07T11:24:50Z</time>
      </trkpt>
      <trkpt lat="49.11644" lon="-0.37517">
        <ele>130</ele>
        <time>2024-04-07T11:24:51Z</time>
      </trkpt>
      <trkpt lat="49.11643" lon="-0.37504">
        <ele>130.2</ele>
        <time>2024-04-07T11:24:52Z</time>
      </trkpt>
      <trkpt lat="49.11643" lon="-0.37502">
        <ele>130.2</ele>
        <time>2024-04-07T11:24:53Z</time>
      </trkpt>
      <trkpt lat="49.11643" lon="-0.37499">
        <ele>130.2</ele>
        <time>2024-04-07T11:24:54Z</time>
      </trkpt>
      <trkpt lat="49.11643" lon="-0.37493">
        <ele>130.4</ele>
        <time>2024-04-07T11:24:55Z</time>
      </trkpt>
      <trkpt lat="49.11642" lon="-0.37488">
        <ele>130.6</ele>
        <time>2024-04-07T11:24:56Z</time>
      </trkpt>
      <trkpt lat="49.11642" lon="-0.37479">
        <ele>130.6</ele>
        <time>2024-04-07T11:24:57Z</time>
      </trkpt>
      <trkpt lat="49.11642" lon="-0.37479">
        <ele>130.8</ele>
        <time>2024-04-07T11:24:58Z</time>
      </trkpt>
      <trkpt lat="49.11642" lon="-0.37475">
        <ele>131</ele>
        <time>2024-04-07T11:24:59Z</time>
      </trkpt>
      <trkpt lat="49.11642" lon="-0.37472">
        <ele>131</ele>
        <time>2024-04-07T11:25:00Z</time>
      </trkpt>
      <trkpt lat="49.11642" lon="-0.37467">
        <ele>131.2</ele>
        <time>2024-04-07T11:25:01Z</time>
      </trkpt>
      <trkpt lat="49.11641" lon="-0.37465">
        <ele>131.4</ele>
        <time>2024-04-07T11:25:02Z</time>
      </trkpt>
      <trkpt lat="49.11641" lon="-0.37463">
        <ele>131.4</ele>
        <time>2024-04-07T11:25:03Z</time>
      </trkpt>
      <trkpt lat="49.11641" lon="-0.3746">
        <ele>131.6</ele>
        <time>2024-04-07T11:25:37Z</time>
      </trkpt>
      <trkpt lat="49.11641" lon="-0.37458">
        <ele>131.6</ele>
        <time>2024-04-07T11:25:38Z</time>
      </trkpt>
      <trkpt lat="49.11641" lon="-0.37458">
        <ele>131.6</ele>
        <time>2024-04-07T11:25:39Z</time>
      </trkpt>
      <trkpt lat="49.11641" lon="-0.37454">
        <ele>131.6</ele>
        <time>2024-04-07T11:25:40Z</time>
      </trkpt>
      <trkpt lat="49.11641" lon="-0.37448">
        <ele>131.4</ele>
        <time>2024-04-07T11:25:41Z</time>
      </trkpt>
      <trkpt lat="49.11641" lon="-0.37443">
        <ele>131.6</ele>
        <time>2024-04-07T11:25:42Z</time>
      </trkpt>
      <trkpt lat="49.11642" lon="-0.37431">
        <ele>131.6</ele>
        <time>2024-04-07T11:25:43Z</time>
      </trkpt>
      <trkpt lat="49.11642" lon="-0.37425">
        <ele>131.6</ele>
        <time>2024-04-07T11:25:44Z</time>
      </trkpt>
      <trkpt lat="49.11643" lon="-0.37418">
        <ele>131.8</ele>
        <time>2024-04-07T11:25:45Z</time>
      </trkpt>
      <trkpt lat="49.11643" lon="-0.37418">
        <ele>131.8</ele>
        <time>2024-04-07T11:25:46Z</time>
      </trkpt>
      <trkpt lat="49.11643" lon="-0.37406">
        <ele>132</ele>
        <time>2024-04-07T11:25:47Z</time>
      </trkpt>
      <trkpt lat="49.11644" lon="-0.374">
        <ele>132.2</ele>
        <time>2024-04-07T11:25:48Z</time>
      </trkpt>
      <trkpt lat="49.11645" lon="-0.37398">
        <ele>132.2</ele>
        <time>2024-04-07T11:25:49Z</time>
      </trkpt>
      <trkpt lat="49.11645" lon="-0.37395">
        <ele>132.2</ele>
        <time>2024-04-07T11:25:50Z</time>
      </trkpt>
      <trkpt lat="49.11648" lon="-0.37383">
        <ele>132.4</ele>
        <time>2024-04-07T11:25:51Z</time>
      </trkpt>
      <trkpt lat="49.11649" lon="-0.3738">
        <ele>132.6</ele>
        <time>2024-04-07T11:25:52Z</time>
      </trkpt>
      <trkpt lat="49.1165" lon="-0.37377">
        <ele>132.6</ele>
        <time>2024-04-07T11:25:53Z</time>
      </trkpt>
      <trkpt lat="49.11653" lon="-0.37365">
        <ele>132.8</ele>
        <time>2024-04-07T11:25:54Z</time>
      </trkpt>
      <trkpt lat="49.11656" lon="-0.37359">
        <ele>132.8</ele>
        <time>2024-04-07T11:25:55Z</time>
      </trkpt>
      <trkpt lat="49.11658" lon="-0.37353">
        <ele>132.8</ele>
        <time>2024-04-07T11:25:56Z</time>
      </trkpt>
      <trkpt lat="49.1166" lon="-0.37346">
        <ele>133</ele>
        <time>2024-04-07T11:25:57Z</time>
      </trkpt>
      <trkpt lat="49.11661" lon="-0.37343">
        <ele>133.2</ele>
        <time>2024-04-07T11:25:58Z</time>
      </trkpt>
      <trkpt lat="49.11663" lon="-0.3734">
        <ele>133.2</ele>
        <time>2024-04-07T11:25:59Z</time>
      </trkpt>
      <trkpt lat="49.11668" lon="-0.37327">
        <ele>133.4</ele>
        <time>2024-04-07T11:26:00Z</time>
      </trkpt>
      <trkpt lat="49.11669" lon="-0.37324">
        <ele>133.4</ele>
        <time>2024-04-07T11:26:01Z</time>
      </trkpt>
      <trkpt lat="49.11671" lon="-0.37321">
        <ele>133.6</ele>
        <time>2024-04-07T11:26:02Z</time>
      </trkpt>
      <trkpt lat="49.11673" lon="-0.37315">
        <ele>133.6</ele>
        <time>2024-04-07T11:26:03Z</time>
      </trkpt>
      <trkpt lat="49.11675" lon="-0.37309">
        <ele>133.6</ele>
        <time>2024-04-07T11:26:04Z</time>
      </trkpt>
      <trkpt lat="49.11678" lon="-0.37302">
        <ele>133.6</ele>
        <time>2024-04-07T11:26:05Z</time>
      </trkpt>
      <trkpt lat="49.1168" lon="-0.37296">
        <ele>133.6</ele>
        <time>2024-04-07T11:26:06Z</time>
      </trkpt>
      <trkpt lat="49.11682" lon="-0.37289">
        <ele>133.4</ele>
        <time>2024-04-07T11:26:07Z</time>
      </trkpt>
      <trkpt lat="49.11684" lon="-0.37283">
        <ele>133.4</ele>
        <time>2024-04-07T11:26:08Z</time>
      </trkpt>
      <trkpt lat="49.11689" lon="-0.37268">
        <ele>133.6</ele>
        <time>2024-04-07T11:26:09Z</time>
      </trkpt>
      <trkpt lat="49.1169" lon="-0.37265">
        <ele>133.6</ele>
        <time>2024-04-07T11:26:10Z</time>
      </trkpt>
      <trkpt lat="49.11691" lon="-0.37261">
        <ele>133.6</ele>
        <time>2024-04-07T11:26:11Z</time>
      </trkpt>
      <trkpt lat="49.11694" lon="-0.37254">
        <ele>133.8</ele>
        <time>2024-04-07T11:26:12Z</time>
      </trkpt>
      <trkpt lat="49.11696" lon="-0.37247">
        <ele>134</ele>
        <time>2024-04-07T11:26:13Z</time>
      </trkpt>
      <trkpt lat="49.11699" lon="-0.37239">
        <ele>134</ele>
        <time>2024-04-07T11:26:14Z</time>
      </trkpt>
      <trkpt lat="49.11701" lon="-0.37232">
        <ele>134.2</ele>
        <time>2024-04-07T11:26:15Z</time>
      </trkpt>
      <trkpt lat="49.11703" lon="-0.37225">
        <ele>134.2</ele>
        <time>2024-04-07T11:26:16Z</time>
      </trkpt>
      <trkpt lat="49.11705" lon="-0.37218">
        <ele>134.4</ele>
        <time>2024-04-07T11:26:17Z</time>
      </trkpt>
      <trkpt lat="49.11707" lon="-0.37211">
        <ele>134.4</ele>
        <time>2024-04-07T11:26:18Z</time>
      </trkpt>
      <trkpt lat="49.1171" lon="-0.37204">
        <ele>134.4</ele>
        <time>2024-04-07T11:26:19Z</time>
      </trkpt>
      <trkpt lat="49.11712" lon="-0.37196">
        <ele>134.4</ele>
        <time>2024-04-07T11:26:20Z</time>
      </trkpt>
      <trkpt lat="49.11716" lon="-0.3718">
        <ele>134.4</ele>
        <time>2024-04-07T11:26:21Z</time>
      </trkpt>
      <trkpt lat="49.11718" lon="-0.37175">
        <ele>134.6</ele>
        <time>2024-04-07T11:26:22Z</time>
      </trkpt>
      <trkpt lat="49.11719" lon="-0.37169">
        <ele>134.6</ele>
        <time>2024-04-07T11:26:23Z</time>
      </trkpt>
      <trkpt lat="49.11723" lon="-0.37158">
        <ele>134.6</ele>
        <time>2024-04-07T11:26:24Z</time>
      </trkpt>
      <trkpt lat="49.11724" lon="-0.37154">
        <ele>134.6</ele>
        <time>2024-04-07T11:26:25Z</time>
      </trkpt>
      <trkpt lat="49.11725" lon="-0.37151">
        <ele>134.6</ele>
        <time>2024-04-07T11:26:26Z</time>
      </trkpt>
      <trkpt lat="49.11727" lon="-0.37143">
        <ele>134.6</ele>
        <time>2024-04-07T11:26:27Z</time>
      </trkpt>
      <trkpt lat="49.11729" lon="-0.37136">
        <ele>134.6</ele>
        <time>2024-04-07T11:26:28Z</time>
      </trkpt>
      <trkpt lat="49.11731" lon="-0.37128">
        <ele>134.6</ele>
        <time>2024-04-07T11:26:29Z</time>
      </trkpt>
      <trkpt lat="49.11733" lon="-0.3712">
        <ele>134.8</ele>
        <time>2024-04-07T11:26:30Z</time>
      </trkpt>
      <trkpt lat="49.11735" lon="-0.37112">
        <ele>135</ele>
        <time>2024-04-07T11:26:31Z</time>
      </trkpt>
      <trkpt lat="49.11737" lon="-0.37105">
        <ele>135.2</ele>
        <time>2024-04-07T11:26:32Z</time>
      </trkpt>
      <trkpt lat="49.11739" lon="-0.37097">
        <ele>135.2</ele>
        <time>2024-04-07T11:26:33Z</time>
      </trkpt>
      <trkpt lat="49.11742" lon="-0.37086">
        <ele>135.4</ele>
        <time>2024-04-07T11:26:34Z</time>
      </trkpt>
      <trkpt lat="49.11744" lon="-0.37082">
        <ele>135.4</ele>
        <time>2024-04-07T11:26:35Z</time>
      </trkpt>
      <trkpt lat="49.11746" lon="-0.37075">
        <ele>135.6</ele>
        <time>2024-04-07T11:26:36Z</time>
      </trkpt>
      <trkpt lat="49.11748" lon="-0.37068">
        <ele>135.4</ele>
        <time>2024-04-07T11:26:37Z</time>
      </trkpt>
      <trkpt lat="49.1175" lon="-0.37061">
        <ele>135.6</ele>
        <time>2024-04-07T11:26:38Z</time>
      </trkpt>
      <trkpt lat="49.11752" lon="-0.37054">
        <ele>135.6</ele>
        <time>2024-04-07T11:26:39Z</time>
      </trkpt>
      <trkpt lat="49.11753" lon="-0.37046">
        <ele>135.6</ele>
        <time>2024-04-07T11:26:40Z</time>
      </trkpt>
      <trkpt lat="49.11755" lon="-0.37039">
        <ele>135.6</ele>
        <time>2024-04-07T11:26:41Z</time>
      </trkpt>
      <trkpt lat="49.11757" lon="-0.37032">
        <ele>135.6</ele>
        <time>2024-04-07T11:26:42Z</time>
      </trkpt>
      <trkpt lat="49.11759" lon="-0.37025">
        <ele>135.6</ele>
        <time>2024-04-07T11:26:43Z</time>
      </trkpt>
      <trkpt lat="49.11761" lon="-0.37017">
        <ele>135.6</ele>
        <time>2024-04-07T11:26:44Z</time>
      </trkpt>
      <trkpt lat="49.11764" lon="-0.3701">
        <ele>135.6</ele>
        <time>2024-04-07T11:26:45Z</time>
      </trkpt>
      <trkpt lat="49.11767" lon="-0.36997">
        <ele>135.6</ele>
        <time>2024-04-07T11:26:46Z</time>
      </trkpt>
      <trkpt lat="49.11768" lon="-0.36993">
        <ele>135.8</ele>
        <time>2024-04-07T11:26:47Z</time>
      </trkpt>
      <trkpt lat="49.1177" lon="-0.36986">
        <ele>136</ele>
        <time>2024-04-07T11:26:48Z</time>
      </trkpt>
      <trkpt lat="49.11772" lon="-0.36978">
        <ele>136.2</ele>
        <time>2024-04-07T11:26:49Z</time>
      </trkpt>
      <trkpt lat="49.11774" lon="-0.3697">
        <ele>136.4</ele>
        <time>2024-04-07T11:26:50Z</time>
      </trkpt>
      <trkpt lat="49.11776" lon="-0.36963">
        <ele>136.6</ele>
        <time>2024-04-07T11:26:51Z</time>
      </trkpt>
      <trkpt lat="49.11778" lon="-0.36955">
        <ele>136.6</ele>
        <time>2024-04-07T11:26:52Z</time>
      </trkpt>
      <trkpt lat="49.11781" lon="-0.36947">
        <ele>136.8</ele>
        <time>2024-04-07T11:26:53Z</time>
      </trkpt>
      <trkpt lat="49.11783" lon="-0.3694">
        <ele>136.8</ele>
        <time>2024-04-07T11:26:54Z</time>
      </trkpt>
      <trkpt lat="49.11785" lon="-0.36932">
        <ele>136.8</ele>
        <time>2024-04-07T11:26:55Z</time>
      </trkpt>
      <trkpt lat="49.11788" lon="-0.36923">
        <ele>136.8</ele>
        <time>2024-04-07T11:26:56Z</time>
      </trkpt>
      <trkpt lat="49.11789" lon="-0.36915">
        <ele>136.6</ele>
        <time>2024-04-07T11:26:57Z</time>
      </trkpt>
      <trkpt lat="49.11791" lon="-0.36907">
        <ele>136.6</ele>
        <time>2024-04-07T11:26:58Z</time>
      </trkpt>
      <trkpt lat="49.11794" lon="-0.36899">
        <ele>136.6</ele>
        <time>2024-04-07T11:26:59Z</time>
      </trkpt>
      <trkpt lat="49.11796" lon="-0.36891">
        <ele>136.6</ele>
        <time>2024-04-07T11:27:00Z</time>
      </trkpt>
      <trkpt lat="49.11798" lon="-0.36883">
        <ele>136.8</ele>
        <time>2024-04-07T11:27:01Z</time>
      </trkpt>
      <trkpt lat="49.118" lon="-0.36875">
        <ele>136.8</ele>
        <time>2024-04-07T11:27:02Z</time>
      </trkpt>
      <trkpt lat="49.11802" lon="-0.36867">
        <ele>137</ele>
        <time>2024-04-07T11:27:03Z</time>
      </trkpt>
      <trkpt lat="49.11804" lon="-0.36859">
        <ele>137</ele>
        <time>2024-04-07T11:27:04Z</time>
      </trkpt>
      <trkpt lat="49.11806" lon="-0.36852">
        <ele>137</ele>
        <time>2024-04-07T11:27:05Z</time>
      </trkpt>
      <trkpt lat="49.11808" lon="-0.36844">
        <ele>137</ele>
        <time>2024-04-07T11:27:06Z</time>
      </trkpt>
      <trkpt lat="49.11811" lon="-0.36836">
        <ele>137</ele>
        <time>2024-04-07T11:27:07Z</time>
      </trkpt>
      <trkpt lat="49.11813" lon="-0.36828">
        <ele>137</ele>
        <time>2024-04-07T11:27:08Z</time>
      </trkpt>
      <trkpt lat="49.11815" lon="-0.36821">
        <ele>137</ele>
        <time>2024-04-07T11:27:09Z</time>
      </trkpt>
      <trkpt lat="49.11817" lon="-0.36813">
        <ele>137</ele>
        <time>2024-04-07T11:27:10Z</time>
      </trkpt>
      <trkpt lat="49.11819" lon="-0.36805">
        <ele>137</ele>
        <time>2024-04-07T11:27:11Z</time>
      </trkpt>
      <trkpt lat="49.11821" lon="-0.36797">
        <ele>137.2</ele>
        <time>2024-04-07T11:27:12Z</time>
      </trkpt>
      <trkpt lat="49.11822" lon="-0.36789">
        <ele>137.2</ele>
        <time>2024-04-07T11:27:13Z</time>
      </trkpt>
      <trkpt lat="49.11826" lon="-0.36772">
        <ele>137.4</ele>
        <time>2024-04-07T11:27:14Z</time>
      </trkpt>
      <trkpt lat="49.11827" lon="-0.36768">
        <ele>137.4</ele>
        <time>2024-04-07T11:27:15Z</time>
      </trkpt>
      <trkpt lat="49.11827" lon="-0.36764">
        <ele>137.6</ele>
        <time>2024-04-07T11:27:16Z</time>
      </trkpt>
      <trkpt lat="49.1183" lon="-0.36752">
        <ele>137.6</ele>
        <time>2024-04-07T11:27:17Z</time>
      </trkpt>
      <trkpt lat="49.1183" lon="-0.36748">
        <ele>137.8</ele>
        <time>2024-04-07T11:27:18Z</time>
      </trkpt>
      <trkpt lat="49.11832" lon="-0.3674">
        <ele>137.8</ele>
        <time>2024-04-07T11:27:19Z</time>
      </trkpt>
      <trkpt lat="49.11834" lon="-0.36733">
        <ele>138</ele>
        <time>2024-04-07T11:27:20Z</time>
      </trkpt>
      <trkpt lat="49.11835" lon="-0.36725">
        <ele>138.2</ele>
        <time>2024-04-07T11:27:21Z</time>
      </trkpt>
      <trkpt lat="49.11837" lon="-0.36717">
        <ele>138.2</ele>
        <time>2024-04-07T11:27:22Z</time>
      </trkpt>
      <trkpt lat="49.11838" lon="-0.36709">
        <ele>138.2</ele>
        <time>2024-04-07T11:27:23Z</time>
      </trkpt>
      <trkpt lat="49.1184" lon="-0.36701">
        <ele>138.4</ele>
        <time>2024-04-07T11:27:24Z</time>
      </trkpt>
      <trkpt lat="49.11842" lon="-0.36688">
        <ele>138.4</ele>
        <time>2024-04-07T11:27:25Z</time>
      </trkpt>
      <trkpt lat="49.11843" lon="-0.36684">
        <ele>138.6</ele>
        <time>2024-04-07T11:27:26Z</time>
      </trkpt>
      <trkpt lat="49.11844" lon="-0.36676">
        <ele>138.8</ele>
        <time>2024-04-07T11:27:27Z</time>
      </trkpt>
      <trkpt lat="49.11845" lon="-0.36668">
        <ele>138.8</ele>
        <time>2024-04-07T11:27:28Z</time>
      </trkpt>
      <trkpt lat="49.11847" lon="-0.3666">
        <ele>138.8</ele>
        <time>2024-04-07T11:27:29Z</time>
      </trkpt>
      <trkpt lat="49.11848" lon="-0.36652">
        <ele>139</ele>
        <time>2024-04-07T11:27:30Z</time>
      </trkpt>
      <trkpt lat="49.1185" lon="-0.36644">
        <ele>139</ele>
        <time>2024-04-07T11:27:31Z</time>
      </trkpt>
      <trkpt lat="49.11851" lon="-0.36636">
        <ele>139</ele>
        <time>2024-04-07T11:27:32Z</time>
      </trkpt>
      <trkpt lat="49.11853" lon="-0.36628">
        <ele>139.2</ele>
        <time>2024-04-07T11:27:33Z</time>
      </trkpt>
      <trkpt lat="49.11854" lon="-0.3662">
        <ele>139.2</ele>
        <time>2024-04-07T11:27:34Z</time>
      </trkpt>
      <trkpt lat="49.11856" lon="-0.36607">
        <ele>139.4</ele>
        <time>2024-04-07T11:27:35Z</time>
      </trkpt>
      <trkpt lat="49.11857" lon="-0.36603">
        <ele>139.6</ele>
        <time>2024-04-07T11:27:36Z</time>
      </trkpt>
      <trkpt lat="49.11861" lon="-0.36587">
        <ele>139.6</ele>
        <time>2024-04-07T11:27:37Z</time>
      </trkpt>
      <trkpt lat="49.11861" lon="-0.36583">
        <ele>139.8</ele>
        <time>2024-04-07T11:27:38Z</time>
      </trkpt>
      <trkpt lat="49.11862" lon="-0.36579">
        <ele>139.8</ele>
        <time>2024-04-07T11:27:39Z</time>
      </trkpt>
      <trkpt lat="49.11864" lon="-0.36571">
        <ele>139.8</ele>
        <time>2024-04-07T11:27:40Z</time>
      </trkpt>
      <trkpt lat="49.11865" lon="-0.36562">
        <ele>140</ele>
        <time>2024-04-07T11:27:41Z</time>
      </trkpt>
      <trkpt lat="49.11868" lon="-0.3655">
        <ele>140</ele>
        <time>2024-04-07T11:27:42Z</time>
      </trkpt>
      <trkpt lat="49.11868" lon="-0.36546">
        <ele>140.2</ele>
        <time>2024-04-07T11:27:43Z</time>
      </trkpt>
      <trkpt lat="49.1187" lon="-0.36537">
        <ele>140.2</ele>
        <time>2024-04-07T11:27:44Z</time>
      </trkpt>
      <trkpt lat="49.11871" lon="-0.36529">
        <ele>140.4</ele>
        <time>2024-04-07T11:27:45Z</time>
      </trkpt>
      <trkpt lat="49.11873" lon="-0.3652">
        <ele>140.4</ele>
        <time>2024-04-07T11:27:46Z</time>
      </trkpt>
      <trkpt lat="49.11874" lon="-0.36512">
        <ele>140.4</ele>
        <time>2024-04-07T11:27:47Z</time>
      </trkpt>
      <trkpt lat="49.11876" lon="-0.36503">
        <ele>140.6</ele>
        <time>2024-04-07T11:27:48Z</time>
      </trkpt>
      <trkpt lat="49.11878" lon="-0.36491">
        <ele>140.6</ele>
        <time>2024-04-07T11:27:49Z</time>
      </trkpt>
      <trkpt lat="49.11879" lon="-0.36486">
        <ele>140.6</ele>
        <time>2024-04-07T11:27:50Z</time>
      </trkpt>
      <trkpt lat="49.11881" lon="-0.36469">
        <ele>140.8</ele>
        <time>2024-04-07T11:27:51Z</time>
      </trkpt>
      <trkpt lat="49.11882" lon="-0.36465">
        <ele>140.8</ele>
        <time>2024-04-07T11:27:52Z</time>
      </trkpt>
      <trkpt lat="49.11882" lon="-0.36461">
        <ele>141</ele>
        <time>2024-04-07T11:27:53Z</time>
      </trkpt>
      <trkpt lat="49.11884" lon="-0.36452">
        <ele>141</ele>
        <time>2024-04-07T11:27:54Z</time>
      </trkpt>
      <trkpt lat="49.11885" lon="-0.36444">
        <ele>141</ele>
        <time>2024-04-07T11:27:55Z</time>
      </trkpt>
      <trkpt lat="49.11887" lon="-0.36436">
        <ele>141</ele>
        <time>2024-04-07T11:27:56Z</time>
      </trkpt>
      <trkpt lat="49.11889" lon="-0.36428">
        <ele>141.2</ele>
        <time>2024-04-07T11:27:57Z</time>
      </trkpt>
      <trkpt lat="49.1189" lon="-0.3642">
        <ele>141.2</ele>
        <time>2024-04-07T11:27:58Z</time>
      </trkpt>
      <trkpt lat="49.11893" lon="-0.36404">
        <ele>141.4</ele>
        <time>2024-04-07T11:27:59Z</time>
      </trkpt>
      <trkpt lat="49.11894" lon="-0.364">
        <ele>141.4</ele>
        <time>2024-04-07T11:28:00Z</time>
      </trkpt>
      <trkpt lat="49.11894" lon="-0.36396">
        <ele>141.6</ele>
        <time>2024-04-07T11:28:01Z</time>
      </trkpt>
      <trkpt lat="49.11896" lon="-0.36388">
        <ele>141.6</ele>
        <time>2024-04-07T11:28:02Z</time>
      </trkpt>
      <trkpt lat="49.11899" lon="-0.36372">
        <ele>141.8</ele>
        <time>2024-04-07T11:28:03Z</time>
      </trkpt>
      <trkpt lat="49.11899" lon="-0.36368">
        <ele>142</ele>
        <time>2024-04-07T11:28:04Z</time>
      </trkpt>
      <trkpt lat="49.119" lon="-0.36364">
        <ele>142</ele>
        <time>2024-04-07T11:28:05Z</time>
      </trkpt>
      <trkpt lat="49.11901" lon="-0.36356">
        <ele>142.2</ele>
        <time>2024-04-07T11:28:06Z</time>
      </trkpt>
      <trkpt lat="49.11903" lon="-0.36347">
        <ele>142.4</ele>
        <time>2024-04-07T11:28:07Z</time>
      </trkpt>
      <trkpt lat="49.11904" lon="-0.36339">
        <ele>142.6</ele>
        <time>2024-04-07T11:28:08Z</time>
      </trkpt>
      <trkpt lat="49.11907" lon="-0.36323">
        <ele>142.6</ele>
        <time>2024-04-07T11:28:09Z</time>
      </trkpt>
      <trkpt lat="49.11907" lon="-0.36323">
        <ele>142.8</ele>
        <time>2024-04-07T11:28:10Z</time>
      </trkpt>
      <trkpt lat="49.11909" lon="-0.36311">
        <ele>142.8</ele>
        <time>2024-04-07T11:28:11Z</time>
      </trkpt>
      <trkpt lat="49.1191" lon="-0.36307">
        <ele>142.8</ele>
        <time>2024-04-07T11:28:12Z</time>
      </trkpt>
      <trkpt lat="49.11911" lon="-0.36299">
        <ele>142.8</ele>
        <time>2024-04-07T11:28:13Z</time>
      </trkpt>
      <trkpt lat="49.11913" lon="-0.36291">
        <ele>143</ele>
        <time>2024-04-07T11:28:14Z</time>
      </trkpt>
      <trkpt lat="49.11914" lon="-0.36284">
        <ele>143</ele>
        <time>2024-04-07T11:28:15Z</time>
      </trkpt>
      <trkpt lat="49.11916" lon="-0.36276">
        <ele>143</ele>
        <time>2024-04-07T11:28:16Z</time>
      </trkpt>
      <trkpt lat="49.11917" lon="-0.36267">
        <ele>143.2</ele>
        <time>2024-04-07T11:28:17Z</time>
      </trkpt>
      <trkpt lat="49.11918" lon="-0.36259">
        <ele>143.4</ele>
        <time>2024-04-07T11:28:18Z</time>
      </trkpt>
      <trkpt lat="49.1192" lon="-0.36251">
        <ele>143.6</ele>
        <time>2024-04-07T11:28:19Z</time>
      </trkpt>
      <trkpt lat="49.11921" lon="-0.36243">
        <ele>143.8</ele>
        <time>2024-04-07T11:28:20Z</time>
      </trkpt>
      <trkpt lat="49.11923" lon="-0.36235">
        <ele>144</ele>
        <time>2024-04-07T11:28:21Z</time>
      </trkpt>
      <trkpt lat="49.11924" lon="-0.36227">
        <ele>144.2</ele>
        <time>2024-04-07T11:28:22Z</time>
      </trkpt>
      <trkpt lat="49.11926" lon="-0.36219">
        <ele>144.2</ele>
        <time>2024-04-07T11:28:23Z</time>
      </trkpt>
      <trkpt lat="49.11927" lon="-0.36211">
        <ele>144.4</ele>
        <time>2024-04-07T11:28:24Z</time>
      </trkpt>
      <trkpt lat="49.11929" lon="-0.36203">
        <ele>144.4</ele>
        <time>2024-04-07T11:28:25Z</time>
      </trkpt>
      <trkpt lat="49.1193" lon="-0.36195">
        <ele>144.6</ele>
        <time>2024-04-07T11:28:26Z</time>
      </trkpt>
      <trkpt lat="49.11932" lon="-0.36187">
        <ele>144.8</ele>
        <time>2024-04-07T11:28:27Z</time>
      </trkpt>
      <trkpt lat="49.11933" lon="-0.36179">
        <ele>145</ele>
        <time>2024-04-07T11:28:28Z</time>
      </trkpt>
      <trkpt lat="49.11935" lon="-0.36171">
        <ele>145.2</ele>
        <time>2024-04-07T11:28:29Z</time>
      </trkpt>
      <trkpt lat="49.11936" lon="-0.36163">
        <ele>145.4</ele>
        <time>2024-04-07T11:28:30Z</time>
      </trkpt>
      <trkpt lat="49.11937" lon="-0.36155">
        <ele>145.8</ele>
        <time>2024-04-07T11:28:31Z</time>
      </trkpt>
      <trkpt lat="49.11939" lon="-0.36147">
        <ele>145.8</ele>
        <time>2024-04-07T11:28:32Z</time>
      </trkpt>
      <trkpt lat="49.1194" lon="-0.36139">
        <ele>146</ele>
        <time>2024-04-07T11:28:33Z</time>
      </trkpt>
      <trkpt lat="49.11942" lon="-0.36132">
        <ele>146.2</ele>
        <time>2024-04-07T11:28:34Z</time>
      </trkpt>
      <trkpt lat="49.11943" lon="-0.36124">
        <ele>146.4</ele>
        <time>2024-04-07T11:28:35Z</time>
      </trkpt>
      <trkpt lat="49.11945" lon="-0.36116">
        <ele>146.6</ele>
        <time>2024-04-07T11:28:36Z</time>
      </trkpt>
      <trkpt lat="49.11946" lon="-0.36108">
        <ele>146.8</ele>
        <time>2024-04-07T11:28:37Z</time>
      </trkpt>
      <trkpt lat="49.11947" lon="-0.36101">
        <ele>146.8</ele>
        <time>2024-04-07T11:28:38Z</time>
      </trkpt>
      <trkpt lat="49.11948" lon="-0.36094">
        <ele>147</ele>
        <time>2024-04-07T11:28:39Z</time>
      </trkpt>
      <trkpt lat="49.1195" lon="-0.36086">
        <ele>147.2</ele>
        <time>2024-04-07T11:28:40Z</time>
      </trkpt>
      <trkpt lat="49.11951" lon="-0.36079">
        <ele>147.2</ele>
        <time>2024-04-07T11:28:41Z</time>
      </trkpt>
      <trkpt lat="49.11952" lon="-0.36072">
        <ele>147.4</ele>
        <time>2024-04-07T11:28:42Z</time>
      </trkpt>
      <trkpt lat="49.11953" lon="-0.36065">
        <ele>147.6</ele>
        <time>2024-04-07T11:28:43Z</time>
      </trkpt>
      <trkpt lat="49.11954" lon="-0.36058">
        <ele>147.8</ele>
        <time>2024-04-07T11:28:44Z</time>
      </trkpt>
      <trkpt lat="49.11956" lon="-0.36051">
        <ele>148</ele>
        <time>2024-04-07T11:28:45Z</time>
      </trkpt>
      <trkpt lat="49.11957" lon="-0.36045">
        <ele>148.4</ele>
        <time>2024-04-07T11:28:46Z</time>
      </trkpt>
      <trkpt lat="49.11959" lon="-0.36038">
        <ele>148.6</ele>
        <time>2024-04-07T11:28:47Z</time>
      </trkpt>
      <trkpt lat="49.1196" lon="-0.36031">
        <ele>149</ele>
        <time>2024-04-07T11:28:48Z</time>
      </trkpt>
      <trkpt lat="49.11961" lon="-0.36024">
        <ele>149.2</ele>
        <time>2024-04-07T11:28:49Z</time>
      </trkpt>
      <trkpt lat="49.11963" lon="-0.36017">
        <ele>149.2</ele>
        <time>2024-04-07T11:28:50Z</time>
      </trkpt>
      <trkpt lat="49.11964" lon="-0.3601">
        <ele>149.6</ele>
        <time>2024-04-07T11:28:51Z</time>
      </trkpt>
      <trkpt lat="49.11965" lon="-0.36004">
        <ele>149.8</ele>
        <time>2024-04-07T11:28:52Z</time>
      </trkpt>
      <trkpt lat="49.11966" lon="-0.35997">
        <ele>150</ele>
        <time>2024-04-07T11:28:53Z</time>
      </trkpt>
      <trkpt lat="49.11967" lon="-0.35991">
        <ele>150.2</ele>
        <time>2024-04-07T11:28:54Z</time>
      </trkpt>
      <trkpt lat="49.11968" lon="-0.35984">
        <ele>150.6</ele>
        <time>2024-04-07T11:28:55Z</time>
      </trkpt>
      <trkpt lat="49.11969" lon="-0.35977">
        <ele>150.8</ele>
        <time>2024-04-07T11:28:56Z</time>
      </trkpt>
      <trkpt lat="49.1197" lon="-0.35971">
        <ele>151</ele>
        <time>2024-04-07T11:28:57Z</time>
      </trkpt>
      <trkpt lat="49.11971" lon="-0.35964">
        <ele>151.4</ele>
        <time>2024-04-07T11:28:58Z</time>
      </trkpt>
      <trkpt lat="49.11973" lon="-0.35958">
        <ele>151.6</ele>
        <time>2024-04-07T11:28:59Z</time>
      </trkpt>
      <trkpt lat="49.11974" lon="-0.35952">
        <ele>152</ele>
        <time>2024-04-07T11:29:00Z</time>
      </trkpt>
      <trkpt lat="49.11975" lon="-0.35946">
        <ele>152.2</ele>
        <time>2024-04-07T11:29:01Z</time>
      </trkpt>
      <trkpt lat="49.11976" lon="-0.35939">
        <ele>152.4</ele>
        <time>2024-04-07T11:29:02Z</time>
      </trkpt>
      <trkpt lat="49.11977" lon="-0.35933">
        <ele>152.8</ele>
        <time>2024-04-07T11:29:03Z</time>
      </trkpt>
      <trkpt lat="49.11978" lon="-0.35926">
        <ele>153</ele>
        <time>2024-04-07T11:29:04Z</time>
      </trkpt>
      <trkpt lat="49.11979" lon="-0.3592">
        <ele>153.4</ele>
        <time>2024-04-07T11:29:05Z</time>
      </trkpt>
      <trkpt lat="49.1198" lon="-0.35914">
        <ele>153.6</ele>
        <time>2024-04-07T11:29:06Z</time>
      </trkpt>
      <trkpt lat="49.11981" lon="-0.35907">
        <ele>154</ele>
        <time>2024-04-07T11:29:07Z</time>
      </trkpt>
      <trkpt lat="49.11982" lon="-0.35901">
        <ele>154</ele>
        <time>2024-04-07T11:29:08Z</time>
      </trkpt>
      <trkpt lat="49.11984" lon="-0.35895">
        <ele>154.2</ele>
        <time>2024-04-07T11:29:09Z</time>
      </trkpt>
      <trkpt lat="49.11985" lon="-0.35889">
        <ele>154.4</ele>
        <time>2024-04-07T11:29:10Z</time>
      </trkpt>
      <trkpt lat="49.11986" lon="-0.35883">
        <ele>154.8</ele>
        <time>2024-04-07T11:29:11Z</time>
      </trkpt>
      <trkpt lat="49.11987" lon="-0.35877">
        <ele>155</ele>
        <time>2024-04-07T11:29:12Z</time>
      </trkpt>
      <trkpt lat="49.11989" lon="-0.3587">
        <ele>155.2</ele>
        <time>2024-04-07T11:29:13Z</time>
      </trkpt>
      <trkpt lat="49.1199" lon="-0.35864">
        <ele>155.4</ele>
        <time>2024-04-07T11:29:14Z</time>
      </trkpt>
      <trkpt lat="49.11991" lon="-0.35857">
        <ele>155.4</ele>
        <time>2024-04-07T11:29:15Z</time>
      </trkpt>
      <trkpt lat="49.11992" lon="-0.3585">
        <ele>155.6</ele>
        <time>2024-04-07T11:29:16Z</time>
      </trkpt>
      <trkpt lat="49.11993" lon="-0.35844">
        <ele>155.8</ele>
        <time>2024-04-07T11:29:17Z</time>
      </trkpt>
      <trkpt lat="49.11994" lon="-0.35837">
        <ele>156</ele>
        <time>2024-04-07T11:29:18Z</time>
      </trkpt>
      <trkpt lat="49.11995" lon="-0.3583">
        <ele>156.2</ele>
        <time>2024-04-07T11:29:19Z</time>
      </trkpt>
      <trkpt lat="49.11996" lon="-0.35824">
        <ele>156.6</ele>
        <time>2024-04-07T11:29:20Z</time>
      </trkpt>
      <trkpt lat="49.11997" lon="-0.35817">
        <ele>157</ele>
        <time>2024-04-07T11:29:21Z</time>
      </trkpt>
      <trkpt lat="49.11999" lon="-0.35811">
        <ele>157</ele>
        <time>2024-04-07T11:29:22Z</time>
      </trkpt>
      <trkpt lat="49.12" lon="-0.35804">
        <ele>157.2</ele>
        <time>2024-04-07T11:29:23Z</time>
      </trkpt>
      <trkpt lat="49.12001" lon="-0.35797">
        <ele>157.6</ele>
        <time>2024-04-07T11:29:24Z</time>
      </trkpt>
      <trkpt lat="49.12002" lon="-0.35791">
        <ele>157.8</ele>
        <time>2024-04-07T11:29:25Z</time>
      </trkpt>
      <trkpt lat="49.12003" lon="-0.35785">
        <ele>157.8</ele>
        <time>2024-04-07T11:29:26Z</time>
      </trkpt>
      <trkpt lat="49.12004" lon="-0.35778">
        <ele>158.2</ele>
        <time>2024-04-07T11:29:27Z</time>
      </trkpt>
      <trkpt lat="49.12006" lon="-0.35768">
        <ele>158.4</ele>
        <time>2024-04-07T11:29:28Z</time>
      </trkpt>
      <trkpt lat="49.12007" lon="-0.35765">
        <ele>158.6</ele>
        <time>2024-04-07T11:29:29Z</time>
      </trkpt>
      <trkpt lat="49.12008" lon="-0.35759">
        <ele>158.6</ele>
        <time>2024-04-07T11:29:30Z</time>
      </trkpt>
      <trkpt lat="49.12009" lon="-0.35752">
        <ele>158.8</ele>
        <time>2024-04-07T11:29:31Z</time>
      </trkpt>
      <trkpt lat="49.12011" lon="-0.35746">
        <ele>159</ele>
        <time>2024-04-07T11:29:32Z</time>
      </trkpt>
      <trkpt lat="49.12012" lon="-0.35739">
        <ele>159.2</ele>
        <time>2024-04-07T11:29:33Z</time>
      </trkpt>
      <trkpt lat="49.12013" lon="-0.35732">
        <ele>159.4</ele>
        <time>2024-04-07T11:29:34Z</time>
      </trkpt>
      <trkpt lat="49.12014" lon="-0.35726">
        <ele>159.6</ele>
        <time>2024-04-07T11:29:35Z</time>
      </trkpt>
      <trkpt lat="49.12016" lon="-0.35719">
        <ele>159.8</ele>
        <time>2024-04-07T11:29:36Z</time>
      </trkpt>
      <trkpt lat="49.12017" lon="-0.35712">
        <ele>160</ele>
        <time>2024-04-07T11:29:37Z</time>
      </trkpt>
      <trkpt lat="49.12018" lon="-0.35705">
        <ele>160.2</ele>
        <time>2024-04-07T11:29:38Z</time>
      </trkpt>
      <trkpt lat="49.12019" lon="-0.35698">
        <ele>160.2</ele>
        <time>2024-04-07T11:29:39Z</time>
      </trkpt>
      <trkpt lat="49.12021" lon="-0.35691">
        <ele>160.4</ele>
        <time>2024-04-07T11:29:40Z</time>
      </trkpt>
      <trkpt lat="49.12022" lon="-0.35684">
        <ele>160.6</ele>
        <time>2024-04-07T11:29:41Z</time>
      </trkpt>
      <trkpt lat="49.12023" lon="-0.35677">
        <ele>160.6</ele>
        <time>2024-04-07T11:29:42Z</time>
      </trkpt>
      <trkpt lat="49.12025" lon="-0.3567">
        <ele>160.8</ele>
        <time>2024-04-07T11:29:43Z</time>
      </trkpt>
      <trkpt lat="49.12026" lon="-0.35663">
        <ele>161</ele>
        <time>2024-04-07T11:29:44Z</time>
      </trkpt>
      <trkpt lat="49.12027" lon="-0.35655">
        <ele>161.2</ele>
        <time>2024-04-07T11:29:45Z</time>
      </trkpt>
      <trkpt lat="49.12029" lon="-0.35648">
        <ele>161.2</ele>
        <time>2024-04-07T11:29:46Z</time>
      </trkpt>
      <trkpt lat="49.1203" lon="-0.35641">
        <ele>161.4</ele>
        <time>2024-04-07T11:29:47Z</time>
      </trkpt>
      <trkpt lat="49.12031" lon="-0.35633">
        <ele>161.6</ele>
        <time>2024-04-07T11:29:48Z</time>
      </trkpt>
      <trkpt lat="49.12033" lon="-0.35626">
        <ele>161.6</ele>
        <time>2024-04-07T11:29:49Z</time>
      </trkpt>
      <trkpt lat="49.12034" lon="-0.35618">
        <ele>161.8</ele>
        <time>2024-04-07T11:29:50Z</time>
      </trkpt>
      <trkpt lat="49.12035" lon="-0.3561">
        <ele>161.8</ele>
        <time>2024-04-07T11:29:51Z</time>
      </trkpt>
      <trkpt lat="49.12037" lon="-0.35602">
        <ele>161.8</ele>
        <time>2024-04-07T11:29:52Z</time>
      </trkpt>
      <trkpt lat="49.12038" lon="-0.35595">
        <ele>162</ele>
        <time>2024-04-07T11:29:53Z</time>
      </trkpt>
      <trkpt lat="49.1204" lon="-0.35587">
        <ele>162</ele>
        <time>2024-04-07T11:29:54Z</time>
      </trkpt>
      <trkpt lat="49.12041" lon="-0.35579">
        <ele>162.2</ele>
        <time>2024-04-07T11:29:55Z</time>
      </trkpt>
      <trkpt lat="49.12043" lon="-0.35571">
        <ele>162.4</ele>
        <time>2024-04-07T11:29:56Z</time>
      </trkpt>
      <trkpt lat="49.12044" lon="-0.35563">
        <ele>162.6</ele>
        <time>2024-04-07T11:29:57Z</time>
      </trkpt>
      <trkpt lat="49.12046" lon="-0.35555">
        <ele>162.6</ele>
        <time>2024-04-07T11:29:58Z</time>
      </trkpt>
      <trkpt lat="49.12047" lon="-0.35546">
        <ele>162.6</ele>
        <time>2024-04-07T11:29:59Z</time>
      </trkpt>
      <trkpt lat="49.12049" lon="-0.35538">
        <ele>162.8</ele>
        <time>2024-04-07T11:30:00Z</time>
      </trkpt>
      <trkpt lat="49.1205" lon="-0.3553">
        <ele>162.8</ele>
        <time>2024-04-07T11:30:01Z</time>
      </trkpt>
      <trkpt lat="49.12052" lon="-0.35522">
        <ele>162.8</ele>
        <time>2024-04-07T11:30:02Z</time>
      </trkpt>
      <trkpt lat="49.12053" lon="-0.35513">
        <ele>163</ele>
        <time>2024-04-07T11:30:03Z</time>
      </trkpt>
      <trkpt lat="49.12055" lon="-0.35504">
        <ele>163.2</ele>
        <time>2024-04-07T11:30:04Z</time>
      </trkpt>
      <trkpt lat="49.12056" lon="-0.35496">
        <ele>163.2</ele>
        <time>2024-04-07T11:30:05Z</time>
      </trkpt>
      <trkpt lat="49.12058" lon="-0.35487">
        <ele>163.4</ele>
        <time>2024-04-07T11:30:06Z</time>
      </trkpt>
      <trkpt lat="49.12059" lon="-0.35478">
        <ele>163.4</ele>
        <time>2024-04-07T11:30:07Z</time>
      </trkpt>
      <trkpt lat="49.1206" lon="-0.35469">
        <ele>163.4</ele>
        <time>2024-04-07T11:30:08Z</time>
      </trkpt>
      <trkpt lat="49.1206" lon="-0.3546">
        <ele>163.6</ele>
        <time>2024-04-07T11:30:09Z</time>
      </trkpt>
      <trkpt lat="49.1206" lon="-0.35451">
        <ele>163.4</ele>
        <time>2024-04-07T11:30:10Z</time>
      </trkpt>
      <trkpt lat="49.12059" lon="-0.35442">
        <ele>163.4</ele>
        <time>2024-04-07T11:30:11Z</time>
      </trkpt>
      <trkpt lat="49.12059" lon="-0.35434">
        <ele>163.2</ele>
        <time>2024-04-07T11:30:12Z</time>
      </trkpt>
      <trkpt lat="49.1206" lon="-0.35425">
        <ele>163.2</ele>
        <time>2024-04-07T11:30:13Z</time>
      </trkpt>
      <trkpt lat="49.12062" lon="-0.35417">
        <ele>163.2</ele>
        <time>2024-04-07T11:30:14Z</time>
      </trkpt>
      <trkpt lat="49.12065" lon="-0.35408">
        <ele>163.4</ele>
        <time>2024-04-07T11:30:15Z</time>
      </trkpt>
      <trkpt lat="49.12068" lon="-0.354">
        <ele>163.4</ele>
        <time>2024-04-07T11:30:16Z</time>
      </trkpt>
      <trkpt lat="49.12071" lon="-0.35391">
        <ele>163.6</ele>
        <time>2024-04-07T11:30:17Z</time>
      </trkpt>
      <trkpt lat="49.12073" lon="-0.35382">
        <ele>163.6</ele>
        <time>2024-04-07T11:30:18Z</time>
      </trkpt>
      <trkpt lat="49.12075" lon="-0.35372">
        <ele>163.6</ele>
        <time>2024-04-07T11:30:19Z</time>
      </trkpt>
      <trkpt lat="49.12077" lon="-0.35363">
        <ele>163.6</ele>
        <time>2024-04-07T11:30:20Z</time>
      </trkpt>
      <trkpt lat="49.12078" lon="-0.35352">
        <ele>163.6</ele>
        <time>2024-04-07T11:30:21Z</time>
      </trkpt>
      <trkpt lat="49.12079" lon="-0.35342">
        <ele>163.6</ele>
        <time>2024-04-07T11:30:22Z</time>
      </trkpt>
      <trkpt lat="49.1208" lon="-0.35332">
        <ele>163.6</ele>
        <time>2024-04-07T11:30:23Z</time>
      </trkpt>
      <trkpt lat="49.12081" lon="-0.35322">
        <ele>163.6</ele>
        <time>2024-04-07T11:30:24Z</time>
      </trkpt>
      <trkpt lat="49.12082" lon="-0.35312">
        <ele>163.6</ele>
        <time>2024-04-07T11:30:25Z</time>
      </trkpt>
      <trkpt lat="49.12083" lon="-0.35302">
        <ele>163.8</ele>
        <time>2024-04-07T11:30:26Z</time>
      </trkpt>
      <trkpt lat="49.12084" lon="-0.35292">
        <ele>163.8</ele>
        <time>2024-04-07T11:30:27Z</time>
      </trkpt>
      <trkpt lat="49.12085" lon="-0.35281">
        <ele>164</ele>
        <time>2024-04-07T11:30:28Z</time>
      </trkpt>
      <trkpt lat="49.12086" lon="-0.35271">
        <ele>164</ele>
        <time>2024-04-07T11:30:29Z</time>
      </trkpt>
      <trkpt lat="49.12087" lon="-0.3526">
        <ele>164.6</ele>
        <time>2024-04-07T11:30:30Z</time>
      </trkpt>
      <trkpt lat="49.12088" lon="-0.3525">
        <ele>164.8</ele>
        <time>2024-04-07T11:30:31Z</time>
      </trkpt>
      <trkpt lat="49.12089" lon="-0.35239">
        <ele>165.8</ele>
        <time>2024-04-07T11:30:32Z</time>
      </trkpt>
      <trkpt lat="49.1209" lon="-0.35229">
        <ele>166.2</ele>
        <time>2024-04-07T11:30:33Z</time>
      </trkpt>
      <trkpt lat="49.12091" lon="-0.35218">
        <ele>166.6</ele>
        <time>2024-04-07T11:30:34Z</time>
      </trkpt>
      <trkpt lat="49.12092" lon="-0.35208">
        <ele>166.8</ele>
        <time>2024-04-07T11:30:35Z</time>
      </trkpt>
      <trkpt lat="49.12093" lon="-0.35197">
        <ele>166.4</ele>
        <time>2024-04-07T11:30:36Z</time>
      </trkpt>
      <trkpt lat="49.12094" lon="-0.35187">
        <ele>165.8</ele>
        <time>2024-04-07T11:30:37Z</time>
      </trkpt>
      <trkpt lat="49.12094" lon="-0.35177">
        <ele>165.4</ele>
        <time>2024-04-07T11:30:38Z</time>
      </trkpt>
      <trkpt lat="49.12094" lon="-0.35166">
        <ele>165.2</ele>
        <time>2024-04-07T11:30:39Z</time>
      </trkpt>
      <trkpt lat="49.12094" lon="-0.35155">
        <ele>165.2</ele>
        <time>2024-04-07T11:30:40Z</time>
      </trkpt>
      <trkpt lat="49.12094" lon="-0.35144">
        <ele>164.8</ele>
        <time>2024-04-07T11:30:41Z</time>
      </trkpt>
      <trkpt lat="49.12095" lon="-0.35134">
        <ele>164.6</ele>
        <time>2024-04-07T11:30:42Z</time>
      </trkpt>
      <trkpt lat="49.12095" lon="-0.35123">
        <ele>164.2</ele>
        <time>2024-04-07T11:30:43Z</time>
      </trkpt>
      <trkpt lat="49.12095" lon="-0.35113">
        <ele>164.2</ele>
        <time>2024-04-07T11:30:44Z</time>
      </trkpt>
      <trkpt lat="49.12095" lon="-0.35102">
        <ele>164.2</ele>
        <time>2024-04-07T11:30:45Z</time>
      </trkpt>
      <trkpt lat="49.12095" lon="-0.35091">
        <ele>164.2</ele>
        <time>2024-04-07T11:30:46Z</time>
      </trkpt>
      <trkpt lat="49.12095" lon="-0.3508">
        <ele>164.2</ele>
        <time>2024-04-07T11:30:47Z</time>
      </trkpt>
      <trkpt lat="49.12095" lon="-0.35069">
        <ele>164.2</ele>
        <time>2024-04-07T11:30:48Z</time>
      </trkpt>
      <trkpt lat="49.12095" lon="-0.35058">
        <ele>164.2</ele>
        <time>2024-04-07T11:30:49Z</time>
      </trkpt>
      <trkpt lat="49.12095" lon="-0.35047">
        <ele>164.4</ele>
        <time>2024-04-07T11:30:50Z</time>
      </trkpt>
      <trkpt lat="49.12095" lon="-0.35036">
        <ele>164.4</ele>
        <time>2024-04-07T11:30:51Z</time>
      </trkpt>
      <trkpt lat="49.12095" lon="-0.35025">
        <ele>164.4</ele>
        <time>2024-04-07T11:30:52Z</time>
      </trkpt>
      <trkpt lat="49.12095" lon="-0.35013">
        <ele>164.4</ele>
        <time>2024-04-07T11:30:53Z</time>
      </trkpt>
      <trkpt lat="49.12095" lon="-0.35002">
        <ele>164.4</ele>
        <time>2024-04-07T11:30:54Z</time>
      </trkpt>
      <trkpt lat="49.12095" lon="-0.34991">
        <ele>164.2</ele>
        <time>2024-04-07T11:30:55Z</time>
      </trkpt>
      <trkpt lat="49.12095" lon="-0.3498">
        <ele>164.2</ele>
        <time>2024-04-07T11:30:56Z</time>
      </trkpt>
      <trkpt lat="49.12095" lon="-0.34969">
        <ele>164.2</ele>
        <time>2024-04-07T11:30:57Z</time>
      </trkpt>
      <trkpt lat="49.12095" lon="-0.34957">
        <ele>164</ele>
        <time>2024-04-07T11:30:58Z</time>
      </trkpt>
      <trkpt lat="49.12094" lon="-0.34946">
        <ele>164</ele>
        <time>2024-04-07T11:30:59Z</time>
      </trkpt>
      <trkpt lat="49.12094" lon="-0.34934">
        <ele>164</ele>
        <time>2024-04-07T11:31:00Z</time>
      </trkpt>
      <trkpt lat="49.12094" lon="-0.34923">
        <ele>164</ele>
        <time>2024-04-07T11:31:01Z</time>
      </trkpt>
      <trkpt lat="49.12093" lon="-0.34912">
        <ele>164</ele>
        <time>2024-04-07T11:31:02Z</time>
      </trkpt>
      <trkpt lat="49.12093" lon="-0.349">
        <ele>163.8</ele>
        <time>2024-04-07T11:31:03Z</time>
      </trkpt>
      <trkpt lat="49.12093" lon="-0.34889">
        <ele>163.8</ele>
        <time>2024-04-07T11:31:04Z</time>
      </trkpt>
      <trkpt lat="49.12093" lon="-0.34877">
        <ele>163.8</ele>
        <time>2024-04-07T11:31:05Z</time>
      </trkpt>
      <trkpt lat="49.12093" lon="-0.34866">
        <ele>164</ele>
        <time>2024-04-07T11:31:06Z</time>
      </trkpt>
      <trkpt lat="49.12092" lon="-0.34855">
        <ele>164</ele>
        <time>2024-04-07T11:31:07Z</time>
      </trkpt>
      <trkpt lat="49.12092" lon="-0.34843">
        <ele>164</ele>
        <time>2024-04-07T11:31:08Z</time>
      </trkpt>
      <trkpt lat="49.12092" lon="-0.34832">
        <ele>164</ele>
        <time>2024-04-07T11:31:09Z</time>
      </trkpt>
      <trkpt lat="49.12092" lon="-0.34821">
        <ele>164</ele>
        <time>2024-04-07T11:31:10Z</time>
      </trkpt>
      <trkpt lat="49.12092" lon="-0.34809">
        <ele>164.2</ele>
        <time>2024-04-07T11:31:11Z</time>
      </trkpt>
      <trkpt lat="49.12092" lon="-0.34798">
        <ele>164.2</ele>
        <time>2024-04-07T11:31:12Z</time>
      </trkpt>
      <trkpt lat="49.12091" lon="-0.34787">
        <ele>164.2</ele>
        <time>2024-04-07T11:31:13Z</time>
      </trkpt>
      <trkpt lat="49.12091" lon="-0.34775">
        <ele>164.2</ele>
        <time>2024-04-07T11:31:14Z</time>
      </trkpt>
      <trkpt lat="49.12091" lon="-0.34764">
        <ele>164.2</ele>
        <time>2024-04-07T11:31:15Z</time>
      </trkpt>
      <trkpt lat="49.12091" lon="-0.34752">
        <ele>164.4</ele>
        <time>2024-04-07T11:31:16Z</time>
      </trkpt>
      <trkpt lat="49.12091" lon="-0.3474">
        <ele>164.4</ele>
        <time>2024-04-07T11:31:17Z</time>
      </trkpt>
      <trkpt lat="49.1209" lon="-0.34729">
        <ele>164.4</ele>
        <time>2024-04-07T11:31:18Z</time>
      </trkpt>
      <trkpt lat="49.1209" lon="-0.34717">
        <ele>164.4</ele>
        <time>2024-04-07T11:31:19Z</time>
      </trkpt>
      <trkpt lat="49.1209" lon="-0.347">
        <ele>164.4</ele>
        <time>2024-04-07T11:31:20Z</time>
      </trkpt>
      <trkpt lat="49.1209" lon="-0.34694">
        <ele>164.2</ele>
        <time>2024-04-07T11:31:21Z</time>
      </trkpt>
      <trkpt lat="49.1209" lon="-0.34682">
        <ele>164.2</ele>
        <time>2024-04-07T11:31:22Z</time>
      </trkpt>
      <trkpt lat="49.1209" lon="-0.34671">
        <ele>164</ele>
        <time>2024-04-07T11:31:23Z</time>
      </trkpt>
      <trkpt lat="49.1209" lon="-0.34659">
        <ele>163.8</ele>
        <time>2024-04-07T11:31:24Z</time>
      </trkpt>
      <trkpt lat="49.12089" lon="-0.34648">
        <ele>163.6</ele>
        <time>2024-04-07T11:31:25Z</time>
      </trkpt>
      <trkpt lat="49.12089" lon="-0.34636">
        <ele>163.6</ele>
        <time>2024-04-07T11:31:26Z</time>
      </trkpt>
      <trkpt lat="49.12089" lon="-0.34625">
        <ele>163.4</ele>
        <time>2024-04-07T11:31:27Z</time>
      </trkpt>
      <trkpt lat="49.12089" lon="-0.34613">
        <ele>163.4</ele>
        <time>2024-04-07T11:31:28Z</time>
      </trkpt>
      <trkpt lat="49.12089" lon="-0.34602">
        <ele>163</ele>
        <time>2024-04-07T11:31:29Z</time>
      </trkpt>
      <trkpt lat="49.12089" lon="-0.3459">
        <ele>163</ele>
        <time>2024-04-07T11:31:30Z</time>
      </trkpt>
      <trkpt lat="49.12089" lon="-0.34579">
        <ele>163</ele>
        <time>2024-04-07T11:31:31Z</time>
      </trkpt>
      <trkpt lat="49.12089" lon="-0.34567">
        <ele>163</ele>
        <time>2024-04-07T11:31:32Z</time>
      </trkpt>
      <trkpt lat="49.12089" lon="-0.34556">
        <ele>163.2</ele>
        <time>2024-04-07T11:31:33Z</time>
      </trkpt>
      <trkpt lat="49.12089" lon="-0.34544">
        <ele>163.4</ele>
        <time>2024-04-07T11:31:34Z</time>
      </trkpt>
      <trkpt lat="49.12089" lon="-0.34532">
        <ele>163.6</ele>
        <time>2024-04-07T11:31:35Z</time>
      </trkpt>
      <trkpt lat="49.12089" lon="-0.34521">
        <ele>163.8</ele>
        <time>2024-04-07T11:31:36Z</time>
      </trkpt>
      <trkpt lat="49.12089" lon="-0.34509">
        <ele>163.8</ele>
        <time>2024-04-07T11:31:37Z</time>
      </trkpt>
      <trkpt lat="49.12089" lon="-0.34497">
        <ele>164</ele>
        <time>2024-04-07T11:31:38Z</time>
      </trkpt>
      <trkpt lat="49.12089" lon="-0.34485">
        <ele>164</ele>
        <time>2024-04-07T11:31:39Z</time>
      </trkpt>
      <trkpt lat="49.1209" lon="-0.34473">
        <ele>164</ele>
        <time>2024-04-07T11:31:40Z</time>
      </trkpt>
      <trkpt lat="49.1209" lon="-0.34461">
        <ele>164</ele>
        <time>2024-04-07T11:31:41Z</time>
      </trkpt>
      <trkpt lat="49.1209" lon="-0.34449">
        <ele>164</ele>
        <time>2024-04-07T11:31:42Z</time>
      </trkpt>
      <trkpt lat="49.1209" lon="-0.34437">
        <ele>164.2</ele>
        <time>2024-04-07T11:31:43Z</time>
      </trkpt>
      <trkpt lat="49.12091" lon="-0.34425">
        <ele>164.4</ele>
        <time>2024-04-07T11:31:44Z</time>
      </trkpt>
      <trkpt lat="49.12091" lon="-0.34413">
        <ele>164.4</ele>
        <time>2024-04-07T11:31:45Z</time>
      </trkpt>
      <trkpt lat="49.12091" lon="-0.34401">
        <ele>164.6</ele>
        <time>2024-04-07T11:31:46Z</time>
      </trkpt>
      <trkpt lat="49.12092" lon="-0.34389">
        <ele>164.8</ele>
        <time>2024-04-07T11:31:47Z</time>
      </trkpt>
      <trkpt lat="49.12092" lon="-0.34377">
        <ele>164.8</ele>
        <time>2024-04-07T11:31:48Z</time>
      </trkpt>
      <trkpt lat="49.12092" lon="-0.34364">
        <ele>164.8</ele>
        <time>2024-04-07T11:31:49Z</time>
      </trkpt>
      <trkpt lat="49.12093" lon="-0.34352">
        <ele>165</ele>
        <time>2024-04-07T11:31:50Z</time>
      </trkpt>
      <trkpt lat="49.12093" lon="-0.3434">
        <ele>165</ele>
        <time>2024-04-07T11:31:51Z</time>
      </trkpt>
      <trkpt lat="49.12094" lon="-0.34328">
        <ele>165</ele>
        <time>2024-04-07T11:31:52Z</time>
      </trkpt>
      <trkpt lat="49.12094" lon="-0.34315">
        <ele>165</ele>
        <time>2024-04-07T11:31:53Z</time>
      </trkpt>
      <trkpt lat="49.12094" lon="-0.34303">
        <ele>164.8</ele>
        <time>2024-04-07T11:31:54Z</time>
      </trkpt>
      <trkpt lat="49.12095" lon="-0.3429">
        <ele>164.8</ele>
        <time>2024-04-07T11:31:55Z</time>
      </trkpt>
      <trkpt lat="49.12095" lon="-0.34277">
        <ele>164.8</ele>
        <time>2024-04-07T11:31:56Z</time>
      </trkpt>
      <trkpt lat="49.12095" lon="-0.34265">
        <ele>164.8</ele>
        <time>2024-04-07T11:31:57Z</time>
      </trkpt>
      <trkpt lat="49.12096" lon="-0.34253">
        <ele>165</ele>
        <time>2024-04-07T11:31:58Z</time>
      </trkpt>
      <trkpt lat="49.12096" lon="-0.3424">
        <ele>165</ele>
        <time>2024-04-07T11:31:59Z</time>
      </trkpt>
      <trkpt lat="49.12096" lon="-0.34228">
        <ele>164.6</ele>
        <time>2024-04-07T11:32:00Z</time>
      </trkpt>
      <trkpt lat="49.12097" lon="-0.34215">
        <ele>164</ele>
        <time>2024-04-07T11:32:01Z</time>
      </trkpt>
      <trkpt lat="49.12097" lon="-0.34203">
        <ele>163.4</ele>
        <time>2024-04-07T11:32:02Z</time>
      </trkpt>
      <trkpt lat="49.12097" lon="-0.3419">
        <ele>163.2</ele>
        <time>2024-04-07T11:32:03Z</time>
      </trkpt>
      <trkpt lat="49.12098" lon="-0.34178">
        <ele>163</ele>
        <time>2024-04-07T11:32:04Z</time>
      </trkpt>
      <trkpt lat="49.12098" lon="-0.34165">
        <ele>162.8</ele>
        <time>2024-04-07T11:32:05Z</time>
      </trkpt>
      <trkpt lat="49.12098" lon="-0.34153">
        <ele>162.6</ele>
        <time>2024-04-07T11:32:06Z</time>
      </trkpt>
      <trkpt lat="49.12099" lon="-0.34128">
        <ele>162.4</ele>
        <time>2024-04-07T11:32:07Z</time>
      </trkpt>
      <trkpt lat="49.12099" lon="-0.34122">
        <ele>162.4</ele>
        <time>2024-04-07T11:32:08Z</time>
      </trkpt>
      <trkpt lat="49.121" lon="-0.34116">
        <ele>162.4</ele>
        <time>2024-04-07T11:32:09Z</time>
      </trkpt>
      <trkpt lat="49.121" lon="-0.34097">
        <ele>162.2</ele>
        <time>2024-04-07T11:32:10Z</time>
      </trkpt>
      <trkpt lat="49.12101" lon="-0.34091">
        <ele>162.2</ele>
        <time>2024-04-07T11:32:11Z</time>
      </trkpt>
      <trkpt lat="49.12101" lon="-0.34066">
        <ele>162.2</ele>
        <time>2024-04-07T11:32:12Z</time>
      </trkpt>
      <trkpt lat="49.12101" lon="-0.3406">
        <ele>162</ele>
        <time>2024-04-07T11:32:13Z</time>
      </trkpt>
      <trkpt lat="49.12101" lon="-0.34054">
        <ele>162</ele>
        <time>2024-04-07T11:32:14Z</time>
      </trkpt>
      <trkpt lat="49.12101" lon="-0.34041">
        <ele>161.8</ele>
        <time>2024-04-07T11:32:15Z</time>
      </trkpt>
      <trkpt lat="49.12101" lon="-0.34028">
        <ele>161.6</ele>
        <time>2024-04-07T11:32:16Z</time>
      </trkpt>
      <trkpt lat="49.12101" lon="-0.34016">
        <ele>161.2</ele>
        <time>2024-04-07T11:32:17Z</time>
      </trkpt>
      <trkpt lat="49.12101" lon="-0.34003">
        <ele>161</ele>
        <time>2024-04-07T11:32:18Z</time>
      </trkpt>
      <trkpt lat="49.12101" lon="-0.3399">
        <ele>160.8</ele>
        <time>2024-04-07T11:32:19Z</time>
      </trkpt>
      <trkpt lat="49.12101" lon="-0.33977">
        <ele>160.8</ele>
        <time>2024-04-07T11:32:20Z</time>
      </trkpt>
      <trkpt lat="49.12101" lon="-0.33964">
        <ele>160.6</ele>
        <time>2024-04-07T11:32:21Z</time>
      </trkpt>
      <trkpt lat="49.121" lon="-0.33951">
        <ele>160.6</ele>
        <time>2024-04-07T11:32:22Z</time>
      </trkpt>
      <trkpt lat="49.121" lon="-0.33938">
        <ele>160.2</ele>
        <time>2024-04-07T11:32:23Z</time>
      </trkpt>
      <trkpt lat="49.121" lon="-0.33924">
        <ele>159.8</ele>
        <time>2024-04-07T11:32:24Z</time>
      </trkpt>
      <trkpt lat="49.12099" lon="-0.33911">
        <ele>159.4</ele>
        <time>2024-04-07T11:32:25Z</time>
      </trkpt>
      <trkpt lat="49.12099" lon="-0.33898">
        <ele>159.2</ele>
        <time>2024-04-07T11:32:26Z</time>
      </trkpt>
      <trkpt lat="49.12099" lon="-0.33884">
        <ele>159</ele>
        <time>2024-04-07T11:32:27Z</time>
      </trkpt>
      <trkpt lat="49.12098" lon="-0.33871">
        <ele>158.8</ele>
        <time>2024-04-07T11:32:28Z</time>
      </trkpt>
      <trkpt lat="49.12098" lon="-0.33858">
        <ele>158.6</ele>
        <time>2024-04-07T11:32:29Z</time>
      </trkpt>
      <trkpt lat="49.12098" lon="-0.33845">
        <ele>158.4</ele>
        <time>2024-04-07T11:32:30Z</time>
      </trkpt>
      <trkpt lat="49.12097" lon="-0.33831">
        <ele>158.2</ele>
        <time>2024-04-07T11:32:31Z</time>
      </trkpt>
      <trkpt lat="49.12097" lon="-0.33818">
        <ele>158</ele>
        <time>2024-04-07T11:32:32Z</time>
      </trkpt>
      <trkpt lat="49.12097" lon="-0.33805">
        <ele>157.8</ele>
        <time>2024-04-07T11:32:33Z</time>
      </trkpt>
      <trkpt lat="49.12096" lon="-0.33792">
        <ele>157.8</ele>
        <time>2024-04-07T11:32:34Z</time>
      </trkpt>
      <trkpt lat="49.12096" lon="-0.33778">
        <ele>157.8</ele>
        <time>2024-04-07T11:32:35Z</time>
      </trkpt>
      <trkpt lat="49.12095" lon="-0.33752">
        <ele>157.8</ele>
        <time>2024-04-07T11:32:36Z</time>
      </trkpt>
      <trkpt lat="49.12095" lon="-0.33745">
        <ele>157.8</ele>
        <time>2024-04-07T11:32:37Z</time>
      </trkpt>
      <trkpt lat="49.12095" lon="-0.33738">
        <ele>157.6</ele>
        <time>2024-04-07T11:32:38Z</time>
      </trkpt>
      <trkpt lat="49.12095" lon="-0.33725">
        <ele>157.6</ele>
        <time>2024-04-07T11:32:39Z</time>
      </trkpt>
      <trkpt lat="49.12094" lon="-0.33711">
        <ele>157.4</ele>
        <time>2024-04-07T11:32:40Z</time>
      </trkpt>
      <trkpt lat="49.12094" lon="-0.33698">
        <ele>157.2</ele>
        <time>2024-04-07T11:32:41Z</time>
      </trkpt>
      <trkpt lat="49.12094" lon="-0.33685">
        <ele>157</ele>
        <time>2024-04-07T11:32:42Z</time>
      </trkpt>
      <trkpt lat="49.12093" lon="-0.33672">
        <ele>156.8</ele>
        <time>2024-04-07T11:32:43Z</time>
      </trkpt>
      <trkpt lat="49.12093" lon="-0.33658">
        <ele>156.8</ele>
        <time>2024-04-07T11:32:44Z</time>
      </trkpt>
      <trkpt lat="49.12093" lon="-0.33645">
        <ele>156.6</ele>
        <time>2024-04-07T11:32:45Z</time>
      </trkpt>
      <trkpt lat="49.12092" lon="-0.33632">
        <ele>156.4</ele>
        <time>2024-04-07T11:32:46Z</time>
      </trkpt>
      <trkpt lat="49.12092" lon="-0.33619">
        <ele>156.2</ele>
        <time>2024-04-07T11:32:47Z</time>
      </trkpt>
      <trkpt lat="49.12092" lon="-0.33606">
        <ele>156</ele>
        <time>2024-04-07T11:32:48Z</time>
      </trkpt>
      <trkpt lat="49.12092" lon="-0.33593">
        <ele>155.8</ele>
        <time>2024-04-07T11:32:49Z</time>
      </trkpt>
      <trkpt lat="49.12091" lon="-0.3358">
        <ele>155.8</ele>
        <time>2024-04-07T11:32:50Z</time>
      </trkpt>
      <trkpt lat="49.12091" lon="-0.33567">
        <ele>155.6</ele>
        <time>2024-04-07T11:32:51Z</time>
      </trkpt>
      <trkpt lat="49.12091" lon="-0.33554">
        <ele>155.6</ele>
        <time>2024-04-07T11:32:52Z</time>
      </trkpt>
      <trkpt lat="49.1209" lon="-0.33541">
        <ele>155.6</ele>
        <time>2024-04-07T11:32:53Z</time>
      </trkpt>
      <trkpt lat="49.1209" lon="-0.33527">
        <ele>155.6</ele>
        <time>2024-04-07T11:32:54Z</time>
      </trkpt>
      <trkpt lat="49.12089" lon="-0.33514">
        <ele>155.6</ele>
        <time>2024-04-07T11:32:55Z</time>
      </trkpt>
      <trkpt lat="49.12089" lon="-0.33501">
        <ele>155.4</ele>
        <time>2024-04-07T11:32:56Z</time>
      </trkpt>
      <trkpt lat="49.12089" lon="-0.33488">
        <ele>155.4</ele>
        <time>2024-04-07T11:32:57Z</time>
      </trkpt>
      <trkpt lat="49.12088" lon="-0.33475">
        <ele>155.2</ele>
        <time>2024-04-07T11:32:58Z</time>
      </trkpt>
      <trkpt lat="49.12088" lon="-0.33462">
        <ele>155.2</ele>
        <time>2024-04-07T11:32:59Z</time>
      </trkpt>
      <trkpt lat="49.12088" lon="-0.33449">
        <ele>155.2</ele>
        <time>2024-04-07T11:33:00Z</time>
      </trkpt>
      <trkpt lat="49.12087" lon="-0.33437">
        <ele>155</ele>
        <time>2024-04-07T11:33:01Z</time>
      </trkpt>
      <trkpt lat="49.12087" lon="-0.33424">
        <ele>155</ele>
        <time>2024-04-07T11:33:02Z</time>
      </trkpt>
      <trkpt lat="49.12087" lon="-0.33411">
        <ele>155</ele>
        <time>2024-04-07T11:33:03Z</time>
      </trkpt>
      <trkpt lat="49.12086" lon="-0.33398">
        <ele>155</ele>
        <time>2024-04-07T11:33:04Z</time>
      </trkpt>
      <trkpt lat="49.12086" lon="-0.33385">
        <ele>155</ele>
        <time>2024-04-07T11:33:05Z</time>
      </trkpt>
      <trkpt lat="49.12085" lon="-0.33373">
        <ele>155</ele>
        <time>2024-04-07T11:33:06Z</time>
      </trkpt>
      <trkpt lat="49.12085" lon="-0.3336">
        <ele>154.8</ele>
        <time>2024-04-07T11:33:07Z</time>
      </trkpt>
      <trkpt lat="49.12085" lon="-0.33347">
        <ele>154.6</ele>
        <time>2024-04-07T11:33:08Z</time>
      </trkpt>
      <trkpt lat="49.12084" lon="-0.33323">
        <ele>154.4</ele>
        <time>2024-04-07T11:33:09Z</time>
      </trkpt>
      <trkpt lat="49.12084" lon="-0.33316">
        <ele>154.4</ele>
        <time>2024-04-07T11:33:10Z</time>
      </trkpt>
      <trkpt lat="49.12084" lon="-0.3331">
        <ele>154.4</ele>
        <time>2024-04-07T11:33:11Z</time>
      </trkpt>
      <trkpt lat="49.12084" lon="-0.33298">
        <ele>154.6</ele>
        <time>2024-04-07T11:33:12Z</time>
      </trkpt>
      <trkpt lat="49.12085" lon="-0.33286">
        <ele>154.6</ele>
        <time>2024-04-07T11:33:13Z</time>
      </trkpt>
      <trkpt lat="49.12087" lon="-0.33274">
        <ele>154.8</ele>
        <time>2024-04-07T11:33:14Z</time>
      </trkpt>
      <trkpt lat="49.1209" lon="-0.33256">
        <ele>155</ele>
        <time>2024-04-07T11:33:15Z</time>
      </trkpt>
      <trkpt lat="49.12091" lon="-0.3325">
        <ele>155.2</ele>
        <time>2024-04-07T11:33:16Z</time>
      </trkpt>
      <trkpt lat="49.12094" lon="-0.33238">
        <ele>155.4</ele>
        <time>2024-04-07T11:33:17Z</time>
      </trkpt>
      <trkpt lat="49.12097" lon="-0.33226">
        <ele>155.4</ele>
        <time>2024-04-07T11:33:18Z</time>
      </trkpt>
      <trkpt lat="49.121" lon="-0.33214">
        <ele>155.6</ele>
        <time>2024-04-07T11:33:19Z</time>
      </trkpt>
      <trkpt lat="49.12105" lon="-0.33192">
        <ele>155.6</ele>
        <time>2024-04-07T11:33:20Z</time>
      </trkpt>
      <trkpt lat="49.12108" lon="-0.3318">
        <ele>155.8</ele>
        <time>2024-04-07T11:33:21Z</time>
      </trkpt>
      <trkpt lat="49.12111" lon="-0.33169">
        <ele>155.6</ele>
        <time>2024-04-07T11:33:22Z</time>
      </trkpt>
      <trkpt lat="49.12111" lon="-0.33169">
        <ele>155.6</ele>
        <time>2024-04-07T11:33:23Z</time>
      </trkpt>
      <trkpt lat="49.12117" lon="-0.3315">
        <ele>155.6</ele>
        <time>2024-04-07T11:33:24Z</time>
      </trkpt>
      <trkpt lat="49.12119" lon="-0.33141">
        <ele>155.4</ele>
        <time>2024-04-07T11:33:25Z</time>
      </trkpt>
      <trkpt lat="49.12124" lon="-0.33125">
        <ele>155.2</ele>
        <time>2024-04-07T11:33:26Z</time>
      </trkpt>
      <trkpt lat="49.12127" lon="-0.33113">
        <ele>155.2</ele>
        <time>2024-04-07T11:33:27Z</time>
      </trkpt>
      <trkpt lat="49.1213" lon="-0.33102">
        <ele>155</ele>
        <time>2024-04-07T11:33:28Z</time>
      </trkpt>
      <trkpt lat="49.12132" lon="-0.33097">
        <ele>155</ele>
        <time>2024-04-07T11:33:29Z</time>
      </trkpt>
      <trkpt lat="49.12134" lon="-0.33091">
        <ele>155</ele>
        <time>2024-04-07T11:33:30Z</time>
      </trkpt>
      <trkpt lat="49.12141" lon="-0.33068">
        <ele>155</ele>
        <time>2024-04-07T11:33:31Z</time>
      </trkpt>
      <trkpt lat="49.12144" lon="-0.33057">
        <ele>155.2</ele>
        <time>2024-04-07T11:33:32Z</time>
      </trkpt>
      <trkpt lat="49.12148" lon="-0.33046">
        <ele>155.2</ele>
        <time>2024-04-07T11:33:33Z</time>
      </trkpt>
      <trkpt lat="49.12151" lon="-0.33034">
        <ele>155.4</ele>
        <time>2024-04-07T11:33:34Z</time>
      </trkpt>
      <trkpt lat="49.12155" lon="-0.33023">
        <ele>155.4</ele>
        <time>2024-04-07T11:33:35Z</time>
      </trkpt>
      <trkpt lat="49.12158" lon="-0.33011">
        <ele>155.4</ele>
        <time>2024-04-07T11:33:36Z</time>
      </trkpt>
      <trkpt lat="49.12162" lon="-0.32999">
        <ele>155.4</ele>
        <time>2024-04-07T11:33:37Z</time>
      </trkpt>
      <trkpt lat="49.12165" lon="-0.32988">
        <ele>155.2</ele>
        <time>2024-04-07T11:33:38Z</time>
      </trkpt>
      <trkpt lat="49.12168" lon="-0.32979">
        <ele>155.2</ele>
        <time>2024-04-07T11:33:39Z</time>
      </trkpt>
      <trkpt lat="49.12171" lon="-0.3297">
        <ele>155</ele>
        <time>2024-04-07T11:33:40Z</time>
      </trkpt>
      <trkpt lat="49.12177" lon="-0.32953">
        <ele>155</ele>
        <time>2024-04-07T11:33:41Z</time>
      </trkpt>
      <trkpt lat="49.12179" lon="-0.32947">
        <ele>154.8</ele>
        <time>2024-04-07T11:33:42Z</time>
      </trkpt>
      <trkpt lat="49.12181" lon="-0.32942">
        <ele>154.6</ele>
        <time>2024-04-07T11:33:43Z</time>
      </trkpt>
      <trkpt lat="49.12185" lon="-0.32931">
        <ele>154.4</ele>
        <time>2024-04-07T11:33:44Z</time>
      </trkpt>
      <trkpt lat="49.1219" lon="-0.32919">
        <ele>154.2</ele>
        <time>2024-04-07T11:33:45Z</time>
      </trkpt>
      <trkpt lat="49.12194" lon="-0.32908">
        <ele>154</ele>
        <time>2024-04-07T11:33:46Z</time>
      </trkpt>
      <trkpt lat="49.12199" lon="-0.32897">
        <ele>154</ele>
        <time>2024-04-07T11:33:47Z</time>
      </trkpt>
      <trkpt lat="49.12203" lon="-0.32886">
        <ele>154</ele>
        <time>2024-04-07T11:33:48Z</time>
      </trkpt>
      <trkpt lat="49.12212" lon="-0.32864">
        <ele>154</ele>
        <time>2024-04-07T11:33:49Z</time>
      </trkpt>
      <trkpt lat="49.12214" lon="-0.32858">
        <ele>154</ele>
        <time>2024-04-07T11:33:50Z</time>
      </trkpt>
      <trkpt lat="49.12216" lon="-0.32852">
        <ele>153.8</ele>
        <time>2024-04-07T11:33:51Z</time>
      </trkpt>
      <trkpt lat="49.12219" lon="-0.3284">
        <ele>153.8</ele>
        <time>2024-04-07T11:33:52Z</time>
      </trkpt>
      <trkpt lat="49.12222" lon="-0.32827">
        <ele>153.8</ele>
        <time>2024-04-07T11:33:53Z</time>
      </trkpt>
      <trkpt lat="49.12223" lon="-0.32815">
        <ele>153.8</ele>
        <time>2024-04-07T11:33:54Z</time>
      </trkpt>
      <trkpt lat="49.12225" lon="-0.3279">
        <ele>153.8</ele>
        <time>2024-04-07T11:33:55Z</time>
      </trkpt>
      <trkpt lat="49.12225" lon="-0.32782">
        <ele>153.8</ele>
        <time>2024-04-07T11:33:56Z</time>
      </trkpt>
      <trkpt lat="49.12224" lon="-0.32773">
        <ele>154</ele>
        <time>2024-04-07T11:33:57Z</time>
      </trkpt>
      <trkpt lat="49.12223" lon="-0.32755">
        <ele>154</ele>
        <time>2024-04-07T11:33:58Z</time>
      </trkpt>
      <trkpt lat="49.12222" lon="-0.32744">
        <ele>154.2</ele>
        <time>2024-04-07T11:33:59Z</time>
      </trkpt>
      <trkpt lat="49.12221" lon="-0.32733">
        <ele>154.4</ele>
        <time>2024-04-07T11:34:00Z</time>
      </trkpt>
      <trkpt lat="49.12221" lon="-0.32725">
        <ele>154.6</ele>
        <time>2024-04-07T11:34:01Z</time>
      </trkpt>
      <trkpt lat="49.1222" lon="-0.32717">
        <ele>155</ele>
        <time>2024-04-07T11:34:02Z</time>
      </trkpt>
      <trkpt lat="49.12218" lon="-0.32702">
        <ele>155.4</ele>
        <time>2024-04-07T11:34:03Z</time>
      </trkpt>
      <trkpt lat="49.12217" lon="-0.32692">
        <ele>155.6</ele>
        <time>2024-04-07T11:34:04Z</time>
      </trkpt>
      <trkpt lat="49.12217" lon="-0.32687">
        <ele>156</ele>
        <time>2024-04-07T11:34:05Z</time>
      </trkpt>
      <trkpt lat="49.12216" lon="-0.32682">
        <ele>156.4</ele>
        <time>2024-04-07T11:34:06Z</time>
      </trkpt>
      <trkpt lat="49.12215" lon="-0.32668">
        <ele>156.8</ele>
        <time>2024-04-07T11:34:07Z</time>
      </trkpt>
      <trkpt lat="49.12215" lon="-0.32663">
        <ele>157.2</ele>
        <time>2024-04-07T11:34:08Z</time>
      </trkpt>
      <trkpt lat="49.12214" lon="-0.32654">
        <ele>157.4</ele>
        <time>2024-04-07T11:34:09Z</time>
      </trkpt>
      <trkpt lat="49.12214" lon="-0.32645">
        <ele>157.6</ele>
        <time>2024-04-07T11:34:10Z</time>
      </trkpt>
      <trkpt lat="49.12214" lon="-0.32635">
        <ele>158</ele>
        <time>2024-04-07T11:34:11Z</time>
      </trkpt>
      <trkpt lat="49.12214" lon="-0.32626">
        <ele>158.2</ele>
        <time>2024-04-07T11:34:12Z</time>
      </trkpt>
      <trkpt lat="49.12215" lon="-0.32617">
        <ele>158.6</ele>
        <time>2024-04-07T11:34:13Z</time>
      </trkpt>
      <trkpt lat="49.12216" lon="-0.32607">
        <ele>159</ele>
        <time>2024-04-07T11:34:14Z</time>
      </trkpt>
      <trkpt lat="49.12218" lon="-0.32598">
        <ele>159.2</ele>
        <time>2024-04-07T11:34:15Z</time>
      </trkpt>
      <trkpt lat="49.12221" lon="-0.32585">
        <ele>159.4</ele>
        <time>2024-04-07T11:34:16Z</time>
      </trkpt>
      <trkpt lat="49.12223" lon="-0.3258">
        <ele>159.6</ele>
        <time>2024-04-07T11:34:17Z</time>
      </trkpt>
      <trkpt lat="49.12225" lon="-0.32571">
        <ele>160</ele>
        <time>2024-04-07T11:34:18Z</time>
      </trkpt>
      <trkpt lat="49.12228" lon="-0.32562">
        <ele>160.6</ele>
        <time>2024-04-07T11:34:19Z</time>
      </trkpt>
      <trkpt lat="49.1223" lon="-0.32552">
        <ele>161</ele>
        <time>2024-04-07T11:34:20Z</time>
      </trkpt>
      <trkpt lat="49.12232" lon="-0.32542">
        <ele>161.4</ele>
        <time>2024-04-07T11:34:21Z</time>
      </trkpt>
      <trkpt lat="49.12235" lon="-0.32531">
        <ele>161.4</ele>
        <time>2024-04-07T11:34:22Z</time>
      </trkpt>
      <trkpt lat="49.12238" lon="-0.32521">
        <ele>161.4</ele>
        <time>2024-04-07T11:34:23Z</time>
      </trkpt>
      <trkpt lat="49.12241" lon="-0.32511">
        <ele>161</ele>
        <time>2024-04-07T11:34:24Z</time>
      </trkpt>
      <trkpt lat="49.12247" lon="-0.32496">
        <ele>160.2</ele>
        <time>2024-04-07T11:34:25Z</time>
      </trkpt>
      <trkpt lat="49.12249" lon="-0.32492">
        <ele>159.6</ele>
        <time>2024-04-07T11:34:26Z</time>
      </trkpt>
      <trkpt lat="49.12259" lon="-0.32474">
        <ele>159</ele>
        <time>2024-04-07T11:34:27Z</time>
      </trkpt>
      <trkpt lat="49.12264" lon="-0.32466">
        <ele>158.6</ele>
        <time>2024-04-07T11:34:28Z</time>
      </trkpt>
      <trkpt lat="49.12267" lon="-0.32462">
        <ele>158.2</ele>
        <time>2024-04-07T11:34:29Z</time>
      </trkpt>
      <trkpt lat="49.1227" lon="-0.32458">
        <ele>158</ele>
        <time>2024-04-07T11:34:30Z</time>
      </trkpt>
      <trkpt lat="49.12276" lon="-0.32451">
        <ele>158</ele>
        <time>2024-04-07T11:34:31Z</time>
      </trkpt>
      <trkpt lat="49.12282" lon="-0.32444">
        <ele>157.8</ele>
        <time>2024-04-07T11:34:32Z</time>
      </trkpt>
      <trkpt lat="49.12295" lon="-0.32433">
        <ele>157.6</ele>
        <time>2024-04-07T11:34:33Z</time>
      </trkpt>
      <trkpt lat="49.12298" lon="-0.32431">
        <ele>157.2</ele>
        <time>2024-04-07T11:34:34Z</time>
      </trkpt>
      <trkpt lat="49.12302" lon="-0.32429">
        <ele>156.8</ele>
        <time>2024-04-07T11:34:35Z</time>
      </trkpt>
      <trkpt lat="49.12309" lon="-0.32425">
        <ele>156.6</ele>
        <time>2024-04-07T11:34:36Z</time>
      </trkpt>
      <trkpt lat="49.12316" lon="-0.32422">
        <ele>156.6</ele>
        <time>2024-04-07T11:34:37Z</time>
      </trkpt>
      <trkpt lat="49.12331" lon="-0.32418">
        <ele>156.4</ele>
        <time>2024-04-07T11:34:38Z</time>
      </trkpt>
      <trkpt lat="49.12339" lon="-0.32416">
        <ele>156.4</ele>
        <time>2024-04-07T11:34:39Z</time>
      </trkpt>
      <trkpt lat="49.12344" lon="-0.32415">
        <ele>156.6</ele>
        <time>2024-04-07T11:34:40Z</time>
      </trkpt>
      <trkpt lat="49.1235" lon="-0.32413">
        <ele>156.6</ele>
        <time>2024-04-07T11:34:41Z</time>
      </trkpt>
      <trkpt lat="49.12362" lon="-0.3241">
        <ele>156.6</ele>
        <time>2024-04-07T11:34:42Z</time>
      </trkpt>
      <trkpt lat="49.12369" lon="-0.32408">
        <ele>156.8</ele>
        <time>2024-04-07T11:34:43Z</time>
      </trkpt>
      <trkpt lat="49.12377" lon="-0.32406">
        <ele>156.8</ele>
        <time>2024-04-07T11:34:44Z</time>
      </trkpt>
      <trkpt lat="49.12384" lon="-0.32404">
        <ele>157</ele>
        <time>2024-04-07T11:34:45Z</time>
      </trkpt>
      <trkpt lat="49.12391" lon="-0.32401">
        <ele>157.2</ele>
        <time>2024-04-07T11:34:46Z</time>
      </trkpt>
      <trkpt lat="49.12399" lon="-0.32399">
        <ele>157.2</ele>
        <time>2024-04-07T11:34:47Z</time>
      </trkpt>
      <trkpt lat="49.12406" lon="-0.32397">
        <ele>157.4</ele>
        <time>2024-04-07T11:34:48Z</time>
      </trkpt>
      <trkpt lat="49.1241" lon="-0.32395">
        <ele>157.4</ele>
        <time>2024-04-07T11:34:49Z</time>
      </trkpt>
      <trkpt lat="49.12414" lon="-0.32393">
        <ele>157.4</ele>
        <time>2024-04-07T11:34:50Z</time>
      </trkpt>
      <trkpt lat="49.12425" lon="-0.32388">
        <ele>157.4</ele>
        <time>2024-04-07T11:34:51Z</time>
      </trkpt>
      <trkpt lat="49.12428" lon="-0.32385">
        <ele>157.6</ele>
        <time>2024-04-07T11:34:52Z</time>
      </trkpt>
      <trkpt lat="49.12435" lon="-0.3238">
        <ele>157.6</ele>
        <time>2024-04-07T11:34:53Z</time>
      </trkpt>
      <trkpt lat="49.12442" lon="-0.32374">
        <ele>157.8</ele>
        <time>2024-04-07T11:34:54Z</time>
      </trkpt>
      <trkpt lat="49.12455" lon="-0.32359">
        <ele>157.8</ele>
        <time>2024-04-07T11:34:55Z</time>
      </trkpt>
      <trkpt lat="49.12457" lon="-0.32355">
        <ele>157.8</ele>
        <time>2024-04-07T11:34:56Z</time>
      </trkpt>
      <trkpt lat="49.1246" lon="-0.32351">
        <ele>158</ele>
        <time>2024-04-07T11:34:57Z</time>
      </trkpt>
      <trkpt lat="49.12466" lon="-0.32342">
        <ele>158</ele>
        <time>2024-04-07T11:34:58Z</time>
      </trkpt>
      <trkpt lat="49.12474" lon="-0.32323">
        <ele>158.2</ele>
        <time>2024-04-07T11:34:59Z</time>
      </trkpt>
      <trkpt lat="49.12478" lon="-0.32313">
        <ele>158.2</ele>
        <time>2024-04-07T11:35:00Z</time>
      </trkpt>
      <trkpt lat="49.12478" lon="-0.32313">
        <ele>158.4</ele>
        <time>2024-04-07T11:35:01Z</time>
      </trkpt>
      <trkpt lat="49.12486" lon="-0.32293">
        <ele>158.4</ele>
        <time>2024-04-07T11:35:02Z</time>
      </trkpt>
      <trkpt lat="49.1249" lon="-0.32283">
        <ele>158.4</ele>
        <time>2024-04-07T11:35:03Z</time>
      </trkpt>
      <trkpt lat="49.12492" lon="-0.32278">
        <ele>158.4</ele>
        <time>2024-04-07T11:35:04Z</time>
      </trkpt>
      <trkpt lat="49.12494" lon="-0.32273">
        <ele>158.2</ele>
        <time>2024-04-07T11:35:05Z</time>
      </trkpt>
      <trkpt lat="49.125" lon="-0.32258">
        <ele>158.2</ele>
        <time>2024-04-07T11:35:06Z</time>
      </trkpt>
      <trkpt lat="49.12502" lon="-0.32253">
        <ele>158.2</ele>
        <time>2024-04-07T11:35:07Z</time>
      </trkpt>
      <trkpt lat="49.12507" lon="-0.32243">
        <ele>158.2</ele>
        <time>2024-04-07T11:35:08Z</time>
      </trkpt>
      <trkpt lat="49.12515" lon="-0.32222">
        <ele>158.2</ele>
        <time>2024-04-07T11:35:09Z</time>
      </trkpt>
      <trkpt lat="49.12519" lon="-0.32212">
        <ele>158</ele>
        <time>2024-04-07T11:35:10Z</time>
      </trkpt>
      <trkpt lat="49.12524" lon="-0.32202">
        <ele>158</ele>
        <time>2024-04-07T11:35:11Z</time>
      </trkpt>
      <trkpt lat="49.12528" lon="-0.32191">
        <ele>158.2</ele>
        <time>2024-04-07T11:35:12Z</time>
      </trkpt>
      <trkpt lat="49.12531" lon="-0.32184">
        <ele>158.2</ele>
        <time>2024-04-07T11:35:13Z</time>
      </trkpt>
      <trkpt lat="49.12534" lon="-0.32176">
        <ele>158</ele>
        <time>2024-04-07T11:35:14Z</time>
      </trkpt>
      <trkpt lat="49.12541" lon="-0.32161">
        <ele>158.2</ele>
        <time>2024-04-07T11:35:15Z</time>
      </trkpt>
      <trkpt lat="49.12545" lon="-0.32151">
        <ele>158</ele>
        <time>2024-04-07T11:35:16Z</time>
      </trkpt>
      <trkpt lat="49.12549" lon="-0.3214">
        <ele>158.2</ele>
        <time>2024-04-07T11:35:17Z</time>
      </trkpt>
      <trkpt lat="49.12553" lon="-0.3213">
        <ele>158.2</ele>
        <time>2024-04-07T11:35:18Z</time>
      </trkpt>
      <trkpt lat="49.12557" lon="-0.3212">
        <ele>158.2</ele>
        <time>2024-04-07T11:35:19Z</time>
      </trkpt>
      <trkpt lat="49.12561" lon="-0.3211">
        <ele>158.2</ele>
        <time>2024-04-07T11:35:20Z</time>
      </trkpt>
      <trkpt lat="49.12566" lon="-0.32099">
        <ele>158.2</ele>
        <time>2024-04-07T11:35:21Z</time>
      </trkpt>
      <trkpt lat="49.1257" lon="-0.32089">
        <ele>158.2</ele>
        <time>2024-04-07T11:35:22Z</time>
      </trkpt>
      <trkpt lat="49.12573" lon="-0.32081">
        <ele>158.2</ele>
        <time>2024-04-07T11:35:23Z</time>
      </trkpt>
      <trkpt lat="49.12576" lon="-0.32073">
        <ele>158.2</ele>
        <time>2024-04-07T11:35:24Z</time>
      </trkpt>
      <trkpt lat="49.12581" lon="-0.32058">
        <ele>158</ele>
        <time>2024-04-07T11:35:25Z</time>
      </trkpt>
      <trkpt lat="49.12585" lon="-0.32047">
        <ele>157.8</ele>
        <time>2024-04-07T11:35:26Z</time>
      </trkpt>
      <trkpt lat="49.12588" lon="-0.32038">
        <ele>157.6</ele>
        <time>2024-04-07T11:35:27Z</time>
      </trkpt>
      <trkpt lat="49.1259" lon="-0.3203">
        <ele>157.4</ele>
        <time>2024-04-07T11:35:28Z</time>
      </trkpt>
      <trkpt lat="49.12595" lon="-0.32013">
        <ele>157.2</ele>
        <time>2024-04-07T11:35:29Z</time>
      </trkpt>
      <trkpt lat="49.12598" lon="-0.32002">
        <ele>157.2</ele>
        <time>2024-04-07T11:35:30Z</time>
      </trkpt>
      <trkpt lat="49.126" lon="-0.3199">
        <ele>157</ele>
        <time>2024-04-07T11:35:31Z</time>
      </trkpt>
      <trkpt lat="49.12603" lon="-0.31979">
        <ele>157</ele>
        <time>2024-04-07T11:35:32Z</time>
      </trkpt>
      <trkpt lat="49.12606" lon="-0.31967">
        <ele>156.8</ele>
        <time>2024-04-07T11:35:33Z</time>
      </trkpt>
      <trkpt lat="49.12608" lon="-0.31956">
        <ele>156.6</ele>
        <time>2024-04-07T11:35:34Z</time>
      </trkpt>
      <trkpt lat="49.12611" lon="-0.31944">
        <ele>156.4</ele>
        <time>2024-04-07T11:35:35Z</time>
      </trkpt>
      <trkpt lat="49.12614" lon="-0.31932">
        <ele>156.2</ele>
        <time>2024-04-07T11:35:36Z</time>
      </trkpt>
      <trkpt lat="49.12617" lon="-0.3192">
        <ele>156</ele>
        <time>2024-04-07T11:35:37Z</time>
      </trkpt>
      <trkpt lat="49.12619" lon="-0.31909">
        <ele>155.8</ele>
        <time>2024-04-07T11:35:38Z</time>
      </trkpt>
      <trkpt lat="49.12622" lon="-0.31897">
        <ele>155.4</ele>
        <time>2024-04-07T11:35:39Z</time>
      </trkpt>
      <trkpt lat="49.12625" lon="-0.31885">
        <ele>155.4</ele>
        <time>2024-04-07T11:35:40Z</time>
      </trkpt>
      <trkpt lat="49.12628" lon="-0.31874">
        <ele>155.4</ele>
        <time>2024-04-07T11:35:41Z</time>
      </trkpt>
      <trkpt lat="49.1263" lon="-0.31862">
        <ele>155.2</ele>
        <time>2024-04-07T11:35:42Z</time>
      </trkpt>
      <trkpt lat="49.12633" lon="-0.31851">
        <ele>155.2</ele>
        <time>2024-04-07T11:35:43Z</time>
      </trkpt>
      <trkpt lat="49.12636" lon="-0.31839">
        <ele>155.2</ele>
        <time>2024-04-07T11:35:44Z</time>
      </trkpt>
      <trkpt lat="49.12637" lon="-0.31833">
        <ele>155.2</ele>
        <time>2024-04-07T11:35:45Z</time>
      </trkpt>
      <trkpt lat="49.12639" lon="-0.31827">
        <ele>155</ele>
        <time>2024-04-07T11:35:46Z</time>
      </trkpt>
      <trkpt lat="49.12643" lon="-0.31807">
        <ele>154.6</ele>
        <time>2024-04-07T11:35:47Z</time>
      </trkpt>
      <trkpt lat="49.12645" lon="-0.31798">
        <ele>154.4</ele>
        <time>2024-04-07T11:35:48Z</time>
      </trkpt>
      <trkpt lat="49.12649" lon="-0.3178">
        <ele>154.2</ele>
        <time>2024-04-07T11:35:49Z</time>
      </trkpt>
      <trkpt lat="49.12651" lon="-0.31767">
        <ele>154.2</ele>
        <time>2024-04-07T11:35:50Z</time>
      </trkpt>
      <trkpt lat="49.12651" lon="-0.31767">
        <ele>154</ele>
        <time>2024-04-07T11:35:51Z</time>
      </trkpt>
      <trkpt lat="49.12654" lon="-0.31741">
        <ele>153.8</ele>
        <time>2024-04-07T11:35:52Z</time>
      </trkpt>
      <trkpt lat="49.12655" lon="-0.31728">
        <ele>153.8</ele>
        <time>2024-04-07T11:35:53Z</time>
      </trkpt>
      <trkpt lat="49.12655" lon="-0.31718">
        <ele>153.6</ele>
        <time>2024-04-07T11:35:54Z</time>
      </trkpt>
      <trkpt lat="49.12655" lon="-0.31708">
        <ele>153.6</ele>
        <time>2024-04-07T11:35:55Z</time>
      </trkpt>
      <trkpt lat="49.12656" lon="-0.31688">
        <ele>153.6</ele>
        <time>2024-04-07T11:35:56Z</time>
      </trkpt>
      <trkpt lat="49.12657" lon="-0.31674">
        <ele>153.6</ele>
        <time>2024-04-07T11:35:57Z</time>
      </trkpt>
      <trkpt lat="49.12657" lon="-0.31661">
        <ele>153.6</ele>
        <time>2024-04-07T11:35:58Z</time>
      </trkpt>
      <trkpt lat="49.12658" lon="-0.31647">
        <ele>153.6</ele>
        <time>2024-04-07T11:35:59Z</time>
      </trkpt>
      <trkpt lat="49.12658" lon="-0.31634">
        <ele>153.4</ele>
        <time>2024-04-07T11:36:00Z</time>
      </trkpt>
      <trkpt lat="49.12659" lon="-0.31621">
        <ele>153.4</ele>
        <time>2024-04-07T11:36:01Z</time>
      </trkpt>
      <trkpt lat="49.12659" lon="-0.31607">
        <ele>153.4</ele>
        <time>2024-04-07T11:36:02Z</time>
      </trkpt>
      <trkpt lat="49.12659" lon="-0.31594">
        <ele>153.2</ele>
        <time>2024-04-07T11:36:03Z</time>
      </trkpt>
      <trkpt lat="49.1266" lon="-0.3158">
        <ele>153.2</ele>
        <time>2024-04-07T11:36:04Z</time>
      </trkpt>
      <trkpt lat="49.1266" lon="-0.31567">
        <ele>153</ele>
        <time>2024-04-07T11:36:05Z</time>
      </trkpt>
      <trkpt lat="49.12661" lon="-0.31554">
        <ele>152.8</ele>
        <time>2024-04-07T11:36:06Z</time>
      </trkpt>
      <trkpt lat="49.12661" lon="-0.3154">
        <ele>152.4</ele>
        <time>2024-04-07T11:36:07Z</time>
      </trkpt>
      <trkpt lat="49.12661" lon="-0.31526">
        <ele>152.2</ele>
        <time>2024-04-07T11:36:08Z</time>
      </trkpt>
      <trkpt lat="49.12662" lon="-0.31513">
        <ele>152</ele>
        <time>2024-04-07T11:36:09Z</time>
      </trkpt>
      <trkpt lat="49.12662" lon="-0.31499">
        <ele>151.8</ele>
        <time>2024-04-07T11:36:10Z</time>
      </trkpt>
      <trkpt lat="49.12663" lon="-0.31485">
        <ele>151.6</ele>
        <time>2024-04-07T11:36:11Z</time>
      </trkpt>
      <trkpt lat="49.12664" lon="-0.31471">
        <ele>151.4</ele>
        <time>2024-04-07T11:36:12Z</time>
      </trkpt>
      <trkpt lat="49.12664" lon="-0.31471">
        <ele>151.2</ele>
        <time>2024-04-07T11:36:13Z</time>
      </trkpt>
      <trkpt lat="49.12665" lon="-0.31447">
        <ele>150.8</ele>
        <time>2024-04-07T11:36:14Z</time>
      </trkpt>
      <trkpt lat="49.12665" lon="-0.31437">
        <ele>150.6</ele>
        <time>2024-04-07T11:36:15Z</time>
      </trkpt>
      <trkpt lat="49.12666" lon="-0.31417">
        <ele>150.4</ele>
        <time>2024-04-07T11:36:16Z</time>
      </trkpt>
      <trkpt lat="49.12666" lon="-0.31403">
        <ele>150.2</ele>
        <time>2024-04-07T11:36:17Z</time>
      </trkpt>
      <trkpt lat="49.12666" lon="-0.3139">
        <ele>150.2</ele>
        <time>2024-04-07T11:36:18Z</time>
      </trkpt>
      <trkpt lat="49.12666" lon="-0.31376">
        <ele>150.2</ele>
        <time>2024-04-07T11:36:19Z</time>
      </trkpt>
      <trkpt lat="49.12666" lon="-0.31363">
        <ele>150.2</ele>
        <time>2024-04-07T11:36:20Z</time>
      </trkpt>
      <trkpt lat="49.12666" lon="-0.3135">
        <ele>150.4</ele>
        <time>2024-04-07T11:36:21Z</time>
      </trkpt>
      <trkpt lat="49.12666" lon="-0.3134">
        <ele>150.2</ele>
        <time>2024-04-07T11:36:22Z</time>
      </trkpt>
      <trkpt lat="49.12666" lon="-0.3133">
        <ele>150.2</ele>
        <time>2024-04-07T11:36:23Z</time>
      </trkpt>
      <trkpt lat="49.12665" lon="-0.3131">
        <ele>150.2</ele>
        <time>2024-04-07T11:36:24Z</time>
      </trkpt>
      <trkpt lat="49.12664" lon="-0.31299">
        <ele>150</ele>
        <time>2024-04-07T11:36:25Z</time>
      </trkpt>
      <trkpt lat="49.12663" lon="-0.31289">
        <ele>149.8</ele>
        <time>2024-04-07T11:36:26Z</time>
      </trkpt>
      <trkpt lat="49.12662" lon="-0.31269">
        <ele>149.8</ele>
        <time>2024-04-07T11:36:27Z</time>
      </trkpt>
      <trkpt lat="49.12661" lon="-0.31259">
        <ele>149.6</ele>
        <time>2024-04-07T11:36:28Z</time>
      </trkpt>
      <trkpt lat="49.12659" lon="-0.31249">
        <ele>149.6</ele>
        <time>2024-04-07T11:36:29Z</time>
      </trkpt>
      <trkpt lat="49.12657" lon="-0.31229">
        <ele>149.4</ele>
        <time>2024-04-07T11:36:30Z</time>
      </trkpt>
      <trkpt lat="49.12655" lon="-0.31216">
        <ele>149.2</ele>
        <time>2024-04-07T11:36:31Z</time>
      </trkpt>
      <trkpt lat="49.12653" lon="-0.31206">
        <ele>149.2</ele>
        <time>2024-04-07T11:36:32Z</time>
      </trkpt>
      <trkpt lat="49.12652" lon="-0.31197">
        <ele>149</ele>
        <time>2024-04-07T11:36:33Z</time>
      </trkpt>
      <trkpt lat="49.12648" lon="-0.31178">
        <ele>149</ele>
        <time>2024-04-07T11:36:34Z</time>
      </trkpt>
      <trkpt lat="49.12647" lon="-0.31172">
        <ele>149</ele>
        <time>2024-04-07T11:36:35Z</time>
      </trkpt>
      <trkpt lat="49.12645" lon="-0.31166">
        <ele>148.8</ele>
        <time>2024-04-07T11:36:36Z</time>
      </trkpt>
      <trkpt lat="49.12641" lon="-0.31144">
        <ele>148.8</ele>
        <time>2024-04-07T11:36:37Z</time>
      </trkpt>
      <trkpt lat="49.12638" lon="-0.31135">
        <ele>148.8</ele>
        <time>2024-04-07T11:36:38Z</time>
      </trkpt>
      <trkpt lat="49.12634" lon="-0.31116">
        <ele>148.8</ele>
        <time>2024-04-07T11:36:39Z</time>
      </trkpt>
      <trkpt lat="49.12631" lon="-0.31103">
        <ele>148.8</ele>
        <time>2024-04-07T11:36:40Z</time>
      </trkpt>
      <trkpt lat="49.12628" lon="-0.3109">
        <ele>148.8</ele>
        <time>2024-04-07T11:36:41Z</time>
      </trkpt>
      <trkpt lat="49.12625" lon="-0.31078">
        <ele>148.6</ele>
        <time>2024-04-07T11:36:42Z</time>
      </trkpt>
      <trkpt lat="49.12625" lon="-0.31078">
        <ele>148.6</ele>
        <time>2024-04-07T11:36:43Z</time>
      </trkpt>
      <trkpt lat="49.12621" lon="-0.31059">
        <ele>148.4</ele>
        <time>2024-04-07T11:36:44Z</time>
      </trkpt>
      <trkpt lat="49.12619" lon="-0.31053">
        <ele>148.2</ele>
        <time>2024-04-07T11:36:45Z</time>
      </trkpt>
      <trkpt lat="49.12616" lon="-0.31041">
        <ele>148</ele>
        <time>2024-04-07T11:36:46Z</time>
      </trkpt>
      <trkpt lat="49.12613" lon="-0.3103">
        <ele>148</ele>
        <time>2024-04-07T11:36:47Z</time>
      </trkpt>
      <trkpt lat="49.12608" lon="-0.31013">
        <ele>147.8</ele>
        <time>2024-04-07T11:36:48Z</time>
      </trkpt>
      <trkpt lat="49.12607" lon="-0.31007">
        <ele>147.8</ele>
        <time>2024-04-07T11:36:49Z</time>
      </trkpt>
      <trkpt lat="49.12603" lon="-0.30997">
        <ele>147.8</ele>
        <time>2024-04-07T11:36:50Z</time>
      </trkpt>
      <trkpt lat="49.12598" lon="-0.30988">
        <ele>147.8</ele>
        <time>2024-04-07T11:36:51Z</time>
      </trkpt>
      <trkpt lat="49.12593" lon="-0.3098">
        <ele>147.8</ele>
        <time>2024-04-07T11:36:52Z</time>
      </trkpt>
      <trkpt lat="49.12587" lon="-0.30973">
        <ele>148</ele>
        <time>2024-04-07T11:36:53Z</time>
      </trkpt>
      <trkpt lat="49.12582" lon="-0.30966">
        <ele>148</ele>
        <time>2024-04-07T11:36:54Z</time>
      </trkpt>
      <trkpt lat="49.12577" lon="-0.30958">
        <ele>148.2</ele>
        <time>2024-04-07T11:36:55Z</time>
      </trkpt>
      <trkpt lat="49.12574" lon="-0.30949">
        <ele>148.2</ele>
        <time>2024-04-07T11:36:56Z</time>
      </trkpt>
      <trkpt lat="49.12573" lon="-0.30939">
        <ele>148.2</ele>
        <time>2024-04-07T11:36:57Z</time>
      </trkpt>
      <trkpt lat="49.12573" lon="-0.30929">
        <ele>148.4</ele>
        <time>2024-04-07T11:36:58Z</time>
      </trkpt>
      <trkpt lat="49.12574" lon="-0.30912">
        <ele>148.4</ele>
        <time>2024-04-07T11:36:59Z</time>
      </trkpt>
      <trkpt lat="49.12574" lon="-0.30907">
        <ele>148.4</ele>
        <time>2024-04-07T11:37:00Z</time>
      </trkpt>
      <trkpt lat="49.12573" lon="-0.30895">
        <ele>148.2</ele>
        <time>2024-04-07T11:37:01Z</time>
      </trkpt>
      <trkpt lat="49.1257" lon="-0.30884">
        <ele>148.2</ele>
        <time>2024-04-07T11:37:02Z</time>
      </trkpt>
      <trkpt lat="49.12566" lon="-0.30873">
        <ele>148.2</ele>
        <time>2024-04-07T11:37:03Z</time>
      </trkpt>
      <trkpt lat="49.12562" lon="-0.30863">
        <ele>148.2</ele>
        <time>2024-04-07T11:37:04Z</time>
      </trkpt>
      <trkpt lat="49.12558" lon="-0.30853">
        <ele>148.2</ele>
        <time>2024-04-07T11:37:05Z</time>
      </trkpt>
      <trkpt lat="49.12551" lon="-0.30835">
        <ele>148.2</ele>
        <time>2024-04-07T11:37:06Z</time>
      </trkpt>
      <trkpt lat="49.12549" lon="-0.30831">
        <ele>148.4</ele>
        <time>2024-04-07T11:37:07Z</time>
      </trkpt>
      <trkpt lat="49.12547" lon="-0.30827">
        <ele>148.4</ele>
        <time>2024-04-07T11:37:08Z</time>
      </trkpt>
      <trkpt lat="49.12542" lon="-0.30814">
        <ele>148.6</ele>
        <time>2024-04-07T11:37:09Z</time>
      </trkpt>
      <trkpt lat="49.1254" lon="-0.30809">
        <ele>148.6</ele>
        <time>2024-04-07T11:37:10Z</time>
      </trkpt>
      <trkpt lat="49.12533" lon="-0.30793">
        <ele>148.8</ele>
        <time>2024-04-07T11:37:11Z</time>
      </trkpt>
      <trkpt lat="49.12529" lon="-0.30785">
        <ele>148.8</ele>
        <time>2024-04-07T11:37:12Z</time>
      </trkpt>
      <trkpt lat="49.12527" lon="-0.30781">
        <ele>148.8</ele>
        <time>2024-04-07T11:37:13Z</time>
      </trkpt>
      <trkpt lat="49.12525" lon="-0.30777">
        <ele>149</ele>
        <time>2024-04-07T11:37:14Z</time>
      </trkpt>
      <trkpt lat="49.12521" lon="-0.3077">
        <ele>149</ele>
        <time>2024-04-07T11:37:15Z</time>
      </trkpt>
      <trkpt lat="49.12517" lon="-0.30762">
        <ele>149</ele>
        <time>2024-04-07T11:37:16Z</time>
      </trkpt>
      <trkpt lat="49.12513" lon="-0.30756">
        <ele>149</ele>
        <time>2024-04-07T11:37:17Z</time>
      </trkpt>
      <trkpt lat="49.12509" lon="-0.30749">
        <ele>149.2</ele>
        <time>2024-04-07T11:37:18Z</time>
      </trkpt>
      <trkpt lat="49.12506" lon="-0.30741">
        <ele>149.2</ele>
        <time>2024-04-07T11:37:19Z</time>
      </trkpt>
      <trkpt lat="49.12503" lon="-0.30732">
        <ele>149.2</ele>
        <time>2024-04-07T11:37:20Z</time>
      </trkpt>
      <trkpt lat="49.125" lon="-0.30717">
        <ele>149.4</ele>
        <time>2024-04-07T11:37:21Z</time>
      </trkpt>
      <trkpt lat="49.12499" lon="-0.30713">
        <ele>149.8</ele>
        <time>2024-04-07T11:37:22Z</time>
      </trkpt>
      <trkpt lat="49.12497" lon="-0.30703">
        <ele>150.2</ele>
        <time>2024-04-07T11:37:23Z</time>
      </trkpt>
      <trkpt lat="49.12491" lon="-0.30685">
        <ele>150.8</ele>
        <time>2024-04-07T11:37:24Z</time>
      </trkpt>
      <trkpt lat="49.12488" lon="-0.30676">
        <ele>151.2</ele>
        <time>2024-04-07T11:37:25Z</time>
      </trkpt>
      <trkpt lat="49.12485" lon="-0.3067">
        <ele>151.6</ele>
        <time>2024-04-07T11:37:26Z</time>
      </trkpt>
      <trkpt lat="49.12483" lon="-0.30664">
        <ele>151.8</ele>
        <time>2024-04-07T11:37:27Z</time>
      </trkpt>
      <trkpt lat="49.12478" lon="-0.30652">
        <ele>151.8</ele>
        <time>2024-04-07T11:37:28Z</time>
      </trkpt>
      <trkpt lat="49.12475" lon="-0.30644">
        <ele>152</ele>
        <time>2024-04-07T11:37:29Z</time>
      </trkpt>
      <trkpt lat="49.12473" lon="-0.3064">
        <ele>152</ele>
        <time>2024-04-07T11:37:30Z</time>
      </trkpt>
      <trkpt lat="49.12472" lon="-0.30636">
        <ele>152</ele>
        <time>2024-04-07T11:37:31Z</time>
      </trkpt>
      <trkpt lat="49.12469" lon="-0.30628">
        <ele>152</ele>
        <time>2024-04-07T11:37:32Z</time>
      </trkpt>
      <trkpt lat="49.12465" lon="-0.30616">
        <ele>152</ele>
        <time>2024-04-07T11:37:33Z</time>
      </trkpt>
      <trkpt lat="49.12463" lon="-0.30612">
        <ele>151.8</ele>
        <time>2024-04-07T11:37:34Z</time>
      </trkpt>
      <trkpt lat="49.12461" lon="-0.30604">
        <ele>152</ele>
        <time>2024-04-07T11:37:35Z</time>
      </trkpt>
      <trkpt lat="49.12458" lon="-0.30596">
        <ele>152</ele>
        <time>2024-04-07T11:37:36Z</time>
      </trkpt>
      <trkpt lat="49.12456" lon="-0.30588">
        <ele>152</ele>
        <time>2024-04-07T11:37:37Z</time>
      </trkpt>
      <trkpt lat="49.12453" lon="-0.30579">
        <ele>152</ele>
        <time>2024-04-07T11:37:38Z</time>
      </trkpt>
      <trkpt lat="49.12451" lon="-0.3057">
        <ele>151.8</ele>
        <time>2024-04-07T11:37:39Z</time>
      </trkpt>
      <trkpt lat="49.12449" lon="-0.30562">
        <ele>151.8</ele>
        <time>2024-04-07T11:37:40Z</time>
      </trkpt>
      <trkpt lat="49.12447" lon="-0.30553">
        <ele>151.6</ele>
        <time>2024-04-07T11:37:41Z</time>
      </trkpt>
      <trkpt lat="49.12445" lon="-0.30544">
        <ele>151.4</ele>
        <time>2024-04-07T11:37:42Z</time>
      </trkpt>
      <trkpt lat="49.12443" lon="-0.30535">
        <ele>151.4</ele>
        <time>2024-04-07T11:37:43Z</time>
      </trkpt>
      <trkpt lat="49.12441" lon="-0.30526">
        <ele>151.4</ele>
        <time>2024-04-07T11:37:44Z</time>
      </trkpt>
      <trkpt lat="49.12439" lon="-0.30517">
        <ele>151.4</ele>
        <time>2024-04-07T11:37:45Z</time>
      </trkpt>
      <trkpt lat="49.12437" lon="-0.30507">
        <ele>151.4</ele>
        <time>2024-04-07T11:37:46Z</time>
      </trkpt>
      <trkpt lat="49.12435" lon="-0.30497">
        <ele>151.2</ele>
        <time>2024-04-07T11:37:47Z</time>
      </trkpt>
      <trkpt lat="49.12434" lon="-0.30487">
        <ele>151</ele>
        <time>2024-04-07T11:37:48Z</time>
      </trkpt>
      <trkpt lat="49.12432" lon="-0.30476">
        <ele>151</ele>
        <time>2024-04-07T11:37:49Z</time>
      </trkpt>
      <trkpt lat="49.12431" lon="-0.30465">
        <ele>150.8</ele>
        <time>2024-04-07T11:37:50Z</time>
      </trkpt>
      <trkpt lat="49.12428" lon="-0.30442">
        <ele>150.4</ele>
        <time>2024-04-07T11:37:51Z</time>
      </trkpt>
      <trkpt lat="49.12428" lon="-0.3043">
        <ele>150</ele>
        <time>2024-04-07T11:37:52Z</time>
      </trkpt>
      <trkpt lat="49.12427" lon="-0.30419">
        <ele>149.6</ele>
        <time>2024-04-07T11:37:53Z</time>
      </trkpt>
      <trkpt lat="49.12426" lon="-0.3041">
        <ele>149.2</ele>
        <time>2024-04-07T11:37:54Z</time>
      </trkpt>
      <trkpt lat="49.12426" lon="-0.30401">
        <ele>148.8</ele>
        <time>2024-04-07T11:37:55Z</time>
      </trkpt>
      <trkpt lat="49.12425" lon="-0.30383">
        <ele>148.6</ele>
        <time>2024-04-07T11:37:56Z</time>
      </trkpt>
      <trkpt lat="49.12425" lon="-0.30383">
        <ele>148.2</ele>
        <time>2024-04-07T11:37:57Z</time>
      </trkpt>
      <trkpt lat="49.12426" lon="-0.30359">
        <ele>147.8</ele>
        <time>2024-04-07T11:37:58Z</time>
      </trkpt>
      <trkpt lat="49.12426" lon="-0.30352">
        <ele>147.6</ele>
        <time>2024-04-07T11:37:59Z</time>
      </trkpt>
      <trkpt lat="49.12426" lon="-0.30346">
        <ele>147.2</ele>
        <time>2024-04-07T11:38:00Z</time>
      </trkpt>
      <trkpt lat="49.12426" lon="-0.3032">
        <ele>146.8</ele>
        <time>2024-04-07T11:38:01Z</time>
      </trkpt>
      <trkpt lat="49.12426" lon="-0.30314">
        <ele>146.6</ele>
        <time>2024-04-07T11:38:02Z</time>
      </trkpt>
      <trkpt lat="49.12427" lon="-0.30307">
        <ele>146.2</ele>
        <time>2024-04-07T11:38:03Z</time>
      </trkpt>
      <trkpt lat="49.12427" lon="-0.30294">
        <ele>145.6</ele>
        <time>2024-04-07T11:38:04Z</time>
      </trkpt>
      <trkpt lat="49.12428" lon="-0.30281">
        <ele>145.2</ele>
        <time>2024-04-07T11:38:05Z</time>
      </trkpt>
      <trkpt lat="49.12429" lon="-0.30261">
        <ele>144.8</ele>
        <time>2024-04-07T11:38:06Z</time>
      </trkpt>
      <trkpt lat="49.12429" lon="-0.30255">
        <ele>144.4</ele>
        <time>2024-04-07T11:38:07Z</time>
      </trkpt>
      <trkpt lat="49.12429" lon="-0.30241">
        <ele>144</ele>
        <time>2024-04-07T11:38:08Z</time>
      </trkpt>
      <trkpt lat="49.1243" lon="-0.30228">
        <ele>143.2</ele>
        <time>2024-04-07T11:38:09Z</time>
      </trkpt>
      <trkpt lat="49.12431" lon="-0.30215">
        <ele>142.6</ele>
        <time>2024-04-07T11:38:10Z</time>
      </trkpt>
      <trkpt lat="49.12431" lon="-0.30202">
        <ele>142.4</ele>
        <time>2024-04-07T11:38:11Z</time>
      </trkpt>
      <trkpt lat="49.12432" lon="-0.3019">
        <ele>142</ele>
        <time>2024-04-07T11:38:12Z</time>
      </trkpt>
      <trkpt lat="49.12432" lon="-0.30177">
        <ele>141.8</ele>
        <time>2024-04-07T11:38:13Z</time>
      </trkpt>
      <trkpt lat="49.12432" lon="-0.30165">
        <ele>141.6</ele>
        <time>2024-04-07T11:38:14Z</time>
      </trkpt>
      <trkpt lat="49.12433" lon="-0.30153">
        <ele>141.4</ele>
        <time>2024-04-07T11:38:15Z</time>
      </trkpt>
      <trkpt lat="49.12433" lon="-0.30141">
        <ele>141.4</ele>
        <time>2024-04-07T11:38:16Z</time>
      </trkpt>
      <trkpt lat="49.12433" lon="-0.30129">
        <ele>141.4</ele>
        <time>2024-04-07T11:38:17Z</time>
      </trkpt>
      <trkpt lat="49.12433" lon="-0.30105">
        <ele>141.4</ele>
        <time>2024-04-07T11:38:18Z</time>
      </trkpt>
      <trkpt lat="49.12433" lon="-0.30096">
        <ele>141.4</ele>
        <time>2024-04-07T11:38:19Z</time>
      </trkpt>
      <trkpt lat="49.12434" lon="-0.30087">
        <ele>141.2</ele>
        <time>2024-04-07T11:38:20Z</time>
      </trkpt>
      <trkpt lat="49.12435" lon="-0.30069">
        <ele>141.2</ele>
        <time>2024-04-07T11:38:21Z</time>
      </trkpt>
      <trkpt lat="49.12435" lon="-0.30063">
        <ele>141.2</ele>
        <time>2024-04-07T11:38:22Z</time>
      </trkpt>
      <trkpt lat="49.12435" lon="-0.30058">
        <ele>141</ele>
        <time>2024-04-07T11:38:23Z</time>
      </trkpt>
      <trkpt lat="49.12435" lon="-0.30045">
        <ele>140.8</ele>
        <time>2024-04-07T11:38:24Z</time>
      </trkpt>
      <trkpt lat="49.12435" lon="-0.30033">
        <ele>140.4</ele>
        <time>2024-04-07T11:38:25Z</time>
      </trkpt>
      <trkpt lat="49.12436" lon="-0.30021">
        <ele>140.2</ele>
        <time>2024-04-07T11:38:26Z</time>
      </trkpt>
      <trkpt lat="49.12436" lon="-0.29998">
        <ele>140</ele>
        <time>2024-04-07T11:38:27Z</time>
      </trkpt>
      <trkpt lat="49.12435" lon="-0.29992">
        <ele>140</ele>
        <time>2024-04-07T11:38:28Z</time>
      </trkpt>
      <trkpt lat="49.12435" lon="-0.29987">
        <ele>139.8</ele>
        <time>2024-04-07T11:38:29Z</time>
      </trkpt>
      <trkpt lat="49.12434" lon="-0.29977">
        <ele>139.8</ele>
        <time>2024-04-07T11:38:30Z</time>
      </trkpt>
      <trkpt lat="49.12433" lon="-0.29968">
        <ele>139.8</ele>
        <time>2024-04-07T11:38:31Z</time>
      </trkpt>
      <trkpt lat="49.12432" lon="-0.2996">
        <ele>139.8</ele>
        <time>2024-04-07T11:38:32Z</time>
      </trkpt>
      <trkpt lat="49.12432" lon="-0.29952">
        <ele>140</ele>
        <time>2024-04-07T11:38:33Z</time>
      </trkpt>
      <trkpt lat="49.12432" lon="-0.29945">
        <ele>140</ele>
        <time>2024-04-07T11:38:34Z</time>
      </trkpt>
      <trkpt lat="49.12433" lon="-0.29938">
        <ele>140.2</ele>
        <time>2024-04-07T11:38:35Z</time>
      </trkpt>
      <trkpt lat="49.12435" lon="-0.29933">
        <ele>140.2</ele>
        <time>2024-04-07T11:38:36Z</time>
      </trkpt>
      <trkpt lat="49.12437" lon="-0.29928">
        <ele>140.2</ele>
        <time>2024-04-07T11:38:37Z</time>
      </trkpt>
      <trkpt lat="49.1244" lon="-0.29925">
        <ele>140.2</ele>
        <time>2024-04-07T11:38:38Z</time>
      </trkpt>
      <trkpt lat="49.12443" lon="-0.29923">
        <ele>140.4</ele>
        <time>2024-04-07T11:38:39Z</time>
      </trkpt>
      <trkpt lat="49.12447" lon="-0.29921">
        <ele>140.2</ele>
        <time>2024-04-07T11:38:40Z</time>
      </trkpt>
      <trkpt lat="49.12452" lon="-0.2992">
        <ele>140.2</ele>
        <time>2024-04-07T11:38:41Z</time>
      </trkpt>
      <trkpt lat="49.12456" lon="-0.29921">
        <ele>140</ele>
        <time>2024-04-07T11:38:42Z</time>
      </trkpt>
      <trkpt lat="49.12468" lon="-0.29927">
        <ele>139.8</ele>
        <time>2024-04-07T11:38:43Z</time>
      </trkpt>
      <trkpt lat="49.12472" lon="-0.29928">
        <ele>139.6</ele>
        <time>2024-04-07T11:38:44Z</time>
      </trkpt>
      <trkpt lat="49.12476" lon="-0.29928">
        <ele>139.2</ele>
        <time>2024-04-07T11:38:45Z</time>
      </trkpt>
      <trkpt lat="49.12484" lon="-0.29927">
        <ele>138.8</ele>
        <time>2024-04-07T11:38:46Z</time>
      </trkpt>
      <trkpt lat="49.12492" lon="-0.29925">
        <ele>138.6</ele>
        <time>2024-04-07T11:38:47Z</time>
      </trkpt>
      <trkpt lat="49.12499" lon="-0.29923">
        <ele>138.6</ele>
        <time>2024-04-07T11:38:48Z</time>
      </trkpt>
      <trkpt lat="49.12507" lon="-0.29921">
        <ele>138.2</ele>
        <time>2024-04-07T11:38:49Z</time>
      </trkpt>
      <trkpt lat="49.12515" lon="-0.29918">
        <ele>138</ele>
        <time>2024-04-07T11:38:50Z</time>
      </trkpt>
      <trkpt lat="49.12522" lon="-0.29915">
        <ele>137.8</ele>
        <time>2024-04-07T11:38:51Z</time>
      </trkpt>
      <trkpt lat="49.12529" lon="-0.29913">
        <ele>137.8</ele>
        <time>2024-04-07T11:38:52Z</time>
      </trkpt>
      <trkpt lat="49.12537" lon="-0.2991">
        <ele>137.6</ele>
        <time>2024-04-07T11:38:53Z</time>
      </trkpt>
      <trkpt lat="49.12544" lon="-0.29907">
        <ele>137.6</ele>
        <time>2024-04-07T11:38:54Z</time>
      </trkpt>
      <trkpt lat="49.12551" lon="-0.29903">
        <ele>137.6</ele>
        <time>2024-04-07T11:38:55Z</time>
      </trkpt>
      <trkpt lat="49.12558" lon="-0.299">
        <ele>137.4</ele>
        <time>2024-04-07T11:38:56Z</time>
      </trkpt>
      <trkpt lat="49.12565" lon="-0.29897">
        <ele>137.4</ele>
        <time>2024-04-07T11:38:57Z</time>
      </trkpt>
      <trkpt lat="49.12573" lon="-0.29893">
        <ele>137.2</ele>
        <time>2024-04-07T11:38:58Z</time>
      </trkpt>
      <trkpt lat="49.1258" lon="-0.2989">
        <ele>137</ele>
        <time>2024-04-07T11:38:59Z</time>
      </trkpt>
      <trkpt lat="49.12587" lon="-0.29887">
        <ele>136.8</ele>
        <time>2024-04-07T11:39:00Z</time>
      </trkpt>
      <trkpt lat="49.12595" lon="-0.29884">
        <ele>136.8</ele>
        <time>2024-04-07T11:39:01Z</time>
      </trkpt>
      <trkpt lat="49.1261" lon="-0.29878">
        <ele>136.8</ele>
        <time>2024-04-07T11:39:02Z</time>
      </trkpt>
      <trkpt lat="49.12614" lon="-0.29876">
        <ele>136.8</ele>
        <time>2024-04-07T11:39:03Z</time>
      </trkpt>
      <trkpt lat="49.12618" lon="-0.29875">
        <ele>136.6</ele>
        <time>2024-04-07T11:39:04Z</time>
      </trkpt>
      <trkpt lat="49.12625" lon="-0.29871">
        <ele>136.6</ele>
        <time>2024-04-07T11:39:05Z</time>
      </trkpt>
      <trkpt lat="49.12632" lon="-0.29868">
        <ele>136.6</ele>
        <time>2024-04-07T11:39:06Z</time>
      </trkpt>
      <trkpt lat="49.1264" lon="-0.29864">
        <ele>136.4</ele>
        <time>2024-04-07T11:39:07Z</time>
      </trkpt>
      <trkpt lat="49.12647" lon="-0.29861">
        <ele>136.4</ele>
        <time>2024-04-07T11:39:08Z</time>
      </trkpt>
      <trkpt lat="49.12655" lon="-0.29858">
        <ele>136.2</ele>
        <time>2024-04-07T11:39:09Z</time>
      </trkpt>
      <trkpt lat="49.12662" lon="-0.29855">
        <ele>136.2</ele>
        <time>2024-04-07T11:39:10Z</time>
      </trkpt>
      <trkpt lat="49.1267" lon="-0.29851">
        <ele>136</ele>
        <time>2024-04-07T11:39:11Z</time>
      </trkpt>
      <trkpt lat="49.12677" lon="-0.29848">
        <ele>136</ele>
        <time>2024-04-07T11:39:12Z</time>
      </trkpt>
      <trkpt lat="49.12685" lon="-0.29844">
        <ele>136</ele>
        <time>2024-04-07T11:39:13Z</time>
      </trkpt>
      <trkpt lat="49.12692" lon="-0.29841">
        <ele>135.8</ele>
        <time>2024-04-07T11:39:14Z</time>
      </trkpt>
      <trkpt lat="49.12699" lon="-0.29838">
        <ele>135.6</ele>
        <time>2024-04-07T11:39:15Z</time>
      </trkpt>
      <trkpt lat="49.12707" lon="-0.29835">
        <ele>135.6</ele>
        <time>2024-04-07T11:39:16Z</time>
      </trkpt>
      <trkpt lat="49.12714" lon="-0.29831">
        <ele>135.4</ele>
        <time>2024-04-07T11:39:17Z</time>
      </trkpt>
      <trkpt lat="49.12729" lon="-0.29825">
        <ele>135.2</ele>
        <time>2024-04-07T11:39:18Z</time>
      </trkpt>
      <trkpt lat="49.12732" lon="-0.29823">
        <ele>135</ele>
        <time>2024-04-07T11:39:19Z</time>
      </trkpt>
      <trkpt lat="49.12736" lon="-0.29822">
        <ele>135</ele>
        <time>2024-04-07T11:39:20Z</time>
      </trkpt>
      <trkpt lat="49.12743" lon="-0.29819">
        <ele>135</ele>
        <time>2024-04-07T11:39:21Z</time>
      </trkpt>
      <trkpt lat="49.1275" lon="-0.29815">
        <ele>135</ele>
        <time>2024-04-07T11:39:22Z</time>
      </trkpt>
      <trkpt lat="49.12757" lon="-0.29812">
        <ele>135</ele>
        <time>2024-04-07T11:39:23Z</time>
      </trkpt>
      <trkpt lat="49.12765" lon="-0.29809">
        <ele>135</ele>
        <time>2024-04-07T11:39:24Z</time>
      </trkpt>
      <trkpt lat="49.12772" lon="-0.29805">
        <ele>135</ele>
        <time>2024-04-07T11:39:25Z</time>
      </trkpt>
      <trkpt lat="49.1278" lon="-0.29802">
        <ele>134.8</ele>
        <time>2024-04-07T11:39:26Z</time>
      </trkpt>
      <trkpt lat="49.12787" lon="-0.29799">
        <ele>134.8</ele>
        <time>2024-04-07T11:39:27Z</time>
      </trkpt>
      <trkpt lat="49.12794" lon="-0.29796">
        <ele>134.8</ele>
        <time>2024-04-07T11:39:28Z</time>
      </trkpt>
      <trkpt lat="49.12801" lon="-0.29792">
        <ele>134.8</ele>
        <time>2024-04-07T11:39:29Z</time>
      </trkpt>
      <trkpt lat="49.12808" lon="-0.29789">
        <ele>134.8</ele>
        <time>2024-04-07T11:39:30Z</time>
      </trkpt>
      <trkpt lat="49.12815" lon="-0.29786">
        <ele>134.8</ele>
        <time>2024-04-07T11:39:31Z</time>
      </trkpt>
      <trkpt lat="49.12823" lon="-0.29782">
        <ele>134.8</ele>
        <time>2024-04-07T11:39:32Z</time>
      </trkpt>
      <trkpt lat="49.1283" lon="-0.29779">
        <ele>134.8</ele>
        <time>2024-04-07T11:39:33Z</time>
      </trkpt>
      <trkpt lat="49.12837" lon="-0.29776">
        <ele>134.8</ele>
        <time>2024-04-07T11:39:34Z</time>
      </trkpt>
      <trkpt lat="49.12844" lon="-0.29772">
        <ele>134.8</ele>
        <time>2024-04-07T11:39:35Z</time>
      </trkpt>
      <trkpt lat="49.12851" lon="-0.29769">
        <ele>134.8</ele>
        <time>2024-04-07T11:39:36Z</time>
      </trkpt>
      <trkpt lat="49.12858" lon="-0.29766">
        <ele>134.8</ele>
        <time>2024-04-07T11:39:37Z</time>
      </trkpt>
      <trkpt lat="49.12865" lon="-0.29763">
        <ele>134.6</ele>
        <time>2024-04-07T11:39:38Z</time>
      </trkpt>
      <trkpt lat="49.12872" lon="-0.2976">
        <ele>134.6</ele>
        <time>2024-04-07T11:39:39Z</time>
      </trkpt>
      <trkpt lat="49.12879" lon="-0.29757">
        <ele>134.6</ele>
        <time>2024-04-07T11:39:40Z</time>
      </trkpt>
      <trkpt lat="49.12886" lon="-0.29754">
        <ele>134.4</ele>
        <time>2024-04-07T11:39:41Z</time>
      </trkpt>
      <trkpt lat="49.12893" lon="-0.2975">
        <ele>134.4</ele>
        <time>2024-04-07T11:39:42Z</time>
      </trkpt>
      <trkpt lat="49.129" lon="-0.29747">
        <ele>134.4</ele>
        <time>2024-04-07T11:39:43Z</time>
      </trkpt>
      <trkpt lat="49.12907" lon="-0.29744">
        <ele>134.2</ele>
        <time>2024-04-07T11:39:44Z</time>
      </trkpt>
      <trkpt lat="49.12914" lon="-0.2974">
        <ele>134.2</ele>
        <time>2024-04-07T11:39:45Z</time>
      </trkpt>
      <trkpt lat="49.12921" lon="-0.29737">
        <ele>134.2</ele>
        <time>2024-04-07T11:39:46Z</time>
      </trkpt>
      <trkpt lat="49.12928" lon="-0.29734">
        <ele>134.2</ele>
        <time>2024-04-07T11:39:47Z</time>
      </trkpt>
      <trkpt lat="49.12935" lon="-0.29731">
        <ele>134.2</ele>
        <time>2024-04-07T11:39:48Z</time>
      </trkpt>
      <trkpt lat="49.12941" lon="-0.29728">
        <ele>134.2</ele>
        <time>2024-04-07T11:39:49Z</time>
      </trkpt>
      <trkpt lat="49.12948" lon="-0.29725">
        <ele>134.2</ele>
        <time>2024-04-07T11:39:50Z</time>
      </trkpt>
      <trkpt lat="49.12955" lon="-0.29722">
        <ele>134.2</ele>
        <time>2024-04-07T11:39:51Z</time>
      </trkpt>
      <trkpt lat="49.12961" lon="-0.29719">
        <ele>134.2</ele>
        <time>2024-04-07T11:39:52Z</time>
      </trkpt>
      <trkpt lat="49.12968" lon="-0.29716">
        <ele>134.2</ele>
        <time>2024-04-07T11:39:53Z</time>
      </trkpt>
      <trkpt lat="49.12975" lon="-0.29713">
        <ele>134.2</ele>
        <time>2024-04-07T11:39:54Z</time>
      </trkpt>
      <trkpt lat="49.12981" lon="-0.2971">
        <ele>134.4</ele>
        <time>2024-04-07T11:39:55Z</time>
      </trkpt>
      <trkpt lat="49.12987" lon="-0.29707">
        <ele>134.4</ele>
        <time>2024-04-07T11:39:56Z</time>
      </trkpt>
      <trkpt lat="49.12994" lon="-0.29704">
        <ele>134.4</ele>
        <time>2024-04-07T11:39:57Z</time>
      </trkpt>
      <trkpt lat="49.13" lon="-0.29701">
        <ele>134.4</ele>
        <time>2024-04-07T11:39:58Z</time>
      </trkpt>
      <trkpt lat="49.13006" lon="-0.29697">
        <ele>134.4</ele>
        <time>2024-04-07T11:39:59Z</time>
      </trkpt>
      <trkpt lat="49.13012" lon="-0.29693">
        <ele>134.2</ele>
        <time>2024-04-07T11:40:00Z</time>
      </trkpt>
      <trkpt lat="49.13018" lon="-0.29688">
        <ele>134.2</ele>
        <time>2024-04-07T11:40:01Z</time>
      </trkpt>
      <trkpt lat="49.13024" lon="-0.29683">
        <ele>134</ele>
        <time>2024-04-07T11:40:02Z</time>
      </trkpt>
      <trkpt lat="49.1303" lon="-0.2968">
        <ele>134</ele>
        <time>2024-04-07T11:40:03Z</time>
      </trkpt>
      <trkpt lat="49.13036" lon="-0.29678">
        <ele>134</ele>
        <time>2024-04-07T11:40:04Z</time>
      </trkpt>
      <trkpt lat="49.13042" lon="-0.29676">
        <ele>133.8</ele>
        <time>2024-04-07T11:40:05Z</time>
      </trkpt>
      <trkpt lat="49.13048" lon="-0.29676">
        <ele>133.8</ele>
        <time>2024-04-07T11:40:06Z</time>
      </trkpt>
      <trkpt lat="49.13054" lon="-0.29674">
        <ele>133.6</ele>
        <time>2024-04-07T11:40:07Z</time>
      </trkpt>
      <trkpt lat="49.13059" lon="-0.29673">
        <ele>133.6</ele>
        <time>2024-04-07T11:40:08Z</time>
      </trkpt>
      <trkpt lat="49.13064" lon="-0.29671">
        <ele>133.6</ele>
        <time>2024-04-07T11:40:09Z</time>
      </trkpt>
      <trkpt lat="49.13068" lon="-0.29668">
        <ele>133.6</ele>
        <time>2024-04-07T11:40:10Z</time>
      </trkpt>
      <trkpt lat="49.1307" lon="-0.29665">
        <ele>133.6</ele>
        <time>2024-04-07T11:40:11Z</time>
      </trkpt>
      <trkpt lat="49.13072" lon="-0.29661">
        <ele>133.6</ele>
        <time>2024-04-07T11:40:12Z</time>
      </trkpt>
      <trkpt lat="49.13073" lon="-0.29658">
        <ele>133.6</ele>
        <time>2024-04-07T11:40:13Z</time>
      </trkpt>
      <trkpt lat="49.13075" lon="-0.29656">
        <ele>133.6</ele>
        <time>2024-04-07T11:40:14Z</time>
      </trkpt>
      <trkpt lat="49.13076" lon="-0.29656">
        <ele>133.6</ele>
        <time>2024-04-07T11:40:15Z</time>
      </trkpt>
      <trkpt lat="49.13077" lon="-0.29658">
        <ele>133.6</ele>
        <time>2024-04-07T11:40:16Z</time>
      </trkpt>
      <trkpt lat="49.13078" lon="-0.29661">
        <ele>133.6</ele>
        <time>2024-04-07T11:40:17Z</time>
      </trkpt>
      <trkpt lat="49.13079" lon="-0.29664">
        <ele>133.4</ele>
        <time>2024-04-07T11:40:18Z</time>
      </trkpt>
      <trkpt lat="49.13081" lon="-0.29667">
        <ele>133.4</ele>
        <time>2024-04-07T11:40:19Z</time>
      </trkpt>
      <trkpt lat="49.13084" lon="-0.29669">
        <ele>133.4</ele>
        <time>2024-04-07T11:40:20Z</time>
      </trkpt>
      <trkpt lat="49.13088" lon="-0.29669">
        <ele>133.6</ele>
        <time>2024-04-07T11:40:21Z</time>
      </trkpt>
      <trkpt lat="49.13098" lon="-0.29666">
        <ele>133.6</ele>
        <time>2024-04-07T11:40:22Z</time>
      </trkpt>
      <trkpt lat="49.13101" lon="-0.29664">
        <ele>133.6</ele>
        <time>2024-04-07T11:40:23Z</time>
      </trkpt>
      <trkpt lat="49.13104" lon="-0.29663">
        <ele>133.4</ele>
        <time>2024-04-07T11:40:24Z</time>
      </trkpt>
      <trkpt lat="49.13109" lon="-0.29661">
        <ele>133.4</ele>
        <time>2024-04-07T11:40:25Z</time>
      </trkpt>
      <trkpt lat="49.13119" lon="-0.29656">
        <ele>133.2</ele>
        <time>2024-04-07T11:40:26Z</time>
      </trkpt>
      <trkpt lat="49.13124" lon="-0.29654">
        <ele>133.2</ele>
        <time>2024-04-07T11:40:27Z</time>
      </trkpt>
      <trkpt lat="49.13133" lon="-0.2965">
        <ele>133.2</ele>
        <time>2024-04-07T11:40:28Z</time>
      </trkpt>
      <trkpt lat="49.13136" lon="-0.29649">
        <ele>133</ele>
        <time>2024-04-07T11:40:29Z</time>
      </trkpt>
      <trkpt lat="49.13139" lon="-0.29648">
        <ele>133</ele>
        <time>2024-04-07T11:40:30Z</time>
      </trkpt>
      <trkpt lat="49.13146" lon="-0.29644">
        <ele>133</ele>
        <time>2024-04-07T11:40:31Z</time>
      </trkpt>
      <trkpt lat="49.13152" lon="-0.29641">
        <ele>132.8</ele>
        <time>2024-04-07T11:40:32Z</time>
      </trkpt>
      <trkpt lat="49.13159" lon="-0.29638">
        <ele>132.8</ele>
        <time>2024-04-07T11:40:33Z</time>
      </trkpt>
      <trkpt lat="49.13165" lon="-0.29635">
        <ele>132.6</ele>
        <time>2024-04-07T11:40:34Z</time>
      </trkpt>
      <trkpt lat="49.13172" lon="-0.29632">
        <ele>132.4</ele>
        <time>2024-04-07T11:40:35Z</time>
      </trkpt>
      <trkpt lat="49.13185" lon="-0.29626">
        <ele>132.4</ele>
        <time>2024-04-07T11:40:36Z</time>
      </trkpt>
      <trkpt lat="49.13189" lon="-0.29625">
        <ele>132.4</ele>
        <time>2024-04-07T11:40:37Z</time>
      </trkpt>
      <trkpt lat="49.13192" lon="-0.29623">
        <ele>132.2</ele>
        <time>2024-04-07T11:40:38Z</time>
      </trkpt>
      <trkpt lat="49.13199" lon="-0.2962">
        <ele>132.2</ele>
        <time>2024-04-07T11:40:39Z</time>
      </trkpt>
      <trkpt lat="49.13212" lon="-0.29615">
        <ele>132</ele>
        <time>2024-04-07T11:40:40Z</time>
      </trkpt>
      <trkpt lat="49.13215" lon="-0.29614">
        <ele>132</ele>
        <time>2024-04-07T11:40:41Z</time>
      </trkpt>
      <trkpt lat="49.13218" lon="-0.29613">
        <ele>132</ele>
        <time>2024-04-07T11:40:42Z</time>
      </trkpt>
      <trkpt lat="49.13228" lon="-0.29609">
        <ele>131.8</ele>
        <time>2024-04-07T11:40:43Z</time>
      </trkpt>
      <trkpt lat="49.13231" lon="-0.29608">
        <ele>131.8</ele>
        <time>2024-04-07T11:40:44Z</time>
      </trkpt>
      <trkpt lat="49.13245" lon="-0.29602">
        <ele>131.6</ele>
        <time>2024-04-07T11:40:45Z</time>
      </trkpt>
      <trkpt lat="49.13251" lon="-0.296">
        <ele>131.6</ele>
        <time>2024-04-07T11:40:46Z</time>
      </trkpt>
      <trkpt lat="49.13258" lon="-0.29599">
        <ele>131.4</ele>
        <time>2024-04-07T11:40:47Z</time>
      </trkpt>
      <trkpt lat="49.13262" lon="-0.29599">
        <ele>131.2</ele>
        <time>2024-04-07T11:40:48Z</time>
      </trkpt>
      <trkpt lat="49.13265" lon="-0.29599">
        <ele>131</ele>
        <time>2024-04-07T11:40:49Z</time>
      </trkpt>
      <trkpt lat="49.13272" lon="-0.29599">
        <ele>131</ele>
        <time>2024-04-07T11:40:50Z</time>
      </trkpt>
      <trkpt lat="49.13282" lon="-0.29601">
        <ele>130.8</ele>
        <time>2024-04-07T11:40:51Z</time>
      </trkpt>
      <trkpt lat="49.13285" lon="-0.29602">
        <ele>130.6</ele>
        <time>2024-04-07T11:40:52Z</time>
      </trkpt>
      <trkpt lat="49.13292" lon="-0.29603">
        <ele>130.4</ele>
        <time>2024-04-07T11:40:53Z</time>
      </trkpt>
      <trkpt lat="49.13302" lon="-0.29606">
        <ele>130</ele>
        <time>2024-04-07T11:40:54Z</time>
      </trkpt>
      <trkpt lat="49.13306" lon="-0.29607">
        <ele>129.8</ele>
        <time>2024-04-07T11:40:55Z</time>
      </trkpt>
      <trkpt lat="49.13312" lon="-0.2961">
        <ele>129.6</ele>
        <time>2024-04-07T11:40:56Z</time>
      </trkpt>
      <trkpt lat="49.13326" lon="-0.29613">
        <ele>129.4</ele>
        <time>2024-04-07T11:40:57Z</time>
      </trkpt>
      <trkpt lat="49.13332" lon="-0.29615">
        <ele>129.4</ele>
        <time>2024-04-07T11:40:58Z</time>
      </trkpt>
      <trkpt lat="49.13335" lon="-0.29616">
        <ele>129.4</ele>
        <time>2024-04-07T11:40:59Z</time>
      </trkpt>
      <trkpt lat="49.13338" lon="-0.29617">
        <ele>129.2</ele>
        <time>2024-04-07T11:41:00Z</time>
      </trkpt>
      <trkpt lat="49.13346" lon="-0.29621">
        <ele>129.2</ele>
        <time>2024-04-07T11:41:01Z</time>
      </trkpt>
      <trkpt lat="49.13349" lon="-0.29622">
        <ele>129</ele>
        <time>2024-04-07T11:41:02Z</time>
      </trkpt>
      <trkpt lat="49.13354" lon="-0.29623">
        <ele>129</ele>
        <time>2024-04-07T11:41:03Z</time>
      </trkpt>
      <trkpt lat="49.13358" lon="-0.29625">
        <ele>129</ele>
        <time>2024-04-07T11:41:04Z</time>
      </trkpt>
      <trkpt lat="49.13366" lon="-0.29624">
        <ele>128.8</ele>
        <time>2024-04-07T11:41:05Z</time>
      </trkpt>
      <trkpt lat="49.13369" lon="-0.29623">
        <ele>128.8</ele>
        <time>2024-04-07T11:41:06Z</time>
      </trkpt>
      <trkpt lat="49.13371" lon="-0.29622">
        <ele>128.6</ele>
        <time>2024-04-07T11:41:07Z</time>
      </trkpt>
      <trkpt lat="49.13376" lon="-0.29621">
        <ele>128.6</ele>
        <time>2024-04-07T11:41:08Z</time>
      </trkpt>
      <trkpt lat="49.13385" lon="-0.29622">
        <ele>128.4</ele>
        <time>2024-04-07T11:41:09Z</time>
      </trkpt>
      <trkpt lat="49.13388" lon="-0.29623">
        <ele>128.2</ele>
        <time>2024-04-07T11:41:10Z</time>
      </trkpt>
      <trkpt lat="49.1339" lon="-0.29623">
        <ele>128.2</ele>
        <time>2024-04-07T11:41:11Z</time>
      </trkpt>
      <trkpt lat="49.13395" lon="-0.29621">
        <ele>128.2</ele>
        <time>2024-04-07T11:41:12Z</time>
      </trkpt>
      <trkpt lat="49.13401" lon="-0.29618">
        <ele>128</ele>
        <time>2024-04-07T11:41:13Z</time>
      </trkpt>
      <trkpt lat="49.13412" lon="-0.29609">
        <ele>128</ele>
        <time>2024-04-07T11:41:14Z</time>
      </trkpt>
      <trkpt lat="49.13419" lon="-0.29604">
        <ele>128</ele>
        <time>2024-04-07T11:41:15Z</time>
      </trkpt>
      <trkpt lat="49.13425" lon="-0.29599">
        <ele>127.8</ele>
        <time>2024-04-07T11:41:16Z</time>
      </trkpt>
      <trkpt lat="49.1343" lon="-0.29595">
        <ele>127.6</ele>
        <time>2024-04-07T11:41:17Z</time>
      </trkpt>
      <trkpt lat="49.13435" lon="-0.29592">
        <ele>127.4</ele>
        <time>2024-04-07T11:41:18Z</time>
      </trkpt>
      <trkpt lat="49.13439" lon="-0.29588">
        <ele>127.4</ele>
        <time>2024-04-07T11:41:19Z</time>
      </trkpt>
      <trkpt lat="49.13447" lon="-0.29582">
        <ele>127.2</ele>
        <time>2024-04-07T11:41:20Z</time>
      </trkpt>
      <trkpt lat="49.13452" lon="-0.29578">
        <ele>127.2</ele>
        <time>2024-04-07T11:41:21Z</time>
      </trkpt>
      <trkpt lat="49.13455" lon="-0.29575">
        <ele>127.2</ele>
        <time>2024-04-07T11:41:22Z</time>
      </trkpt>
      <trkpt lat="49.13458" lon="-0.29573">
        <ele>127</ele>
        <time>2024-04-07T11:41:23Z</time>
      </trkpt>
      <trkpt lat="49.13463" lon="-0.29568">
        <ele>127</ele>
        <time>2024-04-07T11:41:24Z</time>
      </trkpt>
      <trkpt lat="49.13474" lon="-0.29558">
        <ele>127</ele>
        <time>2024-04-07T11:41:25Z</time>
      </trkpt>
      <trkpt lat="49.1348" lon="-0.29553">
        <ele>127</ele>
        <time>2024-04-07T11:41:26Z</time>
      </trkpt>
      <trkpt lat="49.13485" lon="-0.2955">
        <ele>127</ele>
        <time>2024-04-07T11:41:27Z</time>
      </trkpt>
      <trkpt lat="49.13489" lon="-0.29547">
        <ele>127</ele>
        <time>2024-04-07T11:41:28Z</time>
      </trkpt>
      <trkpt lat="49.13499" lon="-0.29541">
        <ele>126.8</ele>
        <time>2024-04-07T11:41:29Z</time>
      </trkpt>
      <trkpt lat="49.13499" lon="-0.29541">
        <ele>126.8</ele>
        <time>2024-04-07T11:41:30Z</time>
      </trkpt>
      <trkpt lat="49.13511" lon="-0.29534">
        <ele>127</ele>
        <time>2024-04-07T11:41:31Z</time>
      </trkpt>
      <trkpt lat="49.13511" lon="-0.29534">
        <ele>127</ele>
        <time>2024-04-07T11:41:32Z</time>
      </trkpt>
      <trkpt lat="49.13524" lon="-0.29528">
        <ele>126.8</ele>
        <time>2024-04-07T11:41:33Z</time>
      </trkpt>
      <trkpt lat="49.1353" lon="-0.29525">
        <ele>126.8</ele>
        <time>2024-04-07T11:41:34Z</time>
      </trkpt>
      <trkpt lat="49.13536" lon="-0.29521">
        <ele>127</ele>
        <time>2024-04-07T11:41:35Z</time>
      </trkpt>
      <trkpt lat="49.13538" lon="-0.2952">
        <ele>127</ele>
        <time>2024-04-07T11:41:36Z</time>
      </trkpt>
      <trkpt lat="49.13541" lon="-0.29518">
        <ele>127</ele>
        <time>2024-04-07T11:41:37Z</time>
      </trkpt>
      <trkpt lat="49.13549" lon="-0.29512">
        <ele>127</ele>
        <time>2024-04-07T11:41:38Z</time>
      </trkpt>
      <trkpt lat="49.13551" lon="-0.29511">
        <ele>127</ele>
        <time>2024-04-07T11:41:39Z</time>
      </trkpt>
      <trkpt lat="49.13553" lon="-0.2951">
        <ele>127</ele>
        <time>2024-04-07T11:41:40Z</time>
      </trkpt>
      <trkpt lat="49.13557" lon="-0.2951">
        <ele>127</ele>
        <time>2024-04-07T11:41:41Z</time>
      </trkpt>
      <trkpt lat="49.13567" lon="-0.29517">
        <ele>127</ele>
        <time>2024-04-07T11:41:42Z</time>
      </trkpt>
      <trkpt lat="49.13567" lon="-0.29517">
        <ele>127</ele>
        <time>2024-04-07T11:41:43Z</time>
      </trkpt>
      <trkpt lat="49.13579" lon="-0.29524">
        <ele>127</ele>
        <time>2024-04-07T11:41:44Z</time>
      </trkpt>
      <trkpt lat="49.13584" lon="-0.29524">
        <ele>126.8</ele>
        <time>2024-04-07T11:41:45Z</time>
      </trkpt>
      <trkpt lat="49.13589" lon="-0.29525">
        <ele>126.8</ele>
        <time>2024-04-07T11:41:46Z</time>
      </trkpt>
      <trkpt lat="49.136" lon="-0.29526">
        <ele>126.8</ele>
        <time>2024-04-07T11:41:47Z</time>
      </trkpt>
      <trkpt lat="49.13607" lon="-0.29526">
        <ele>126.8</ele>
        <time>2024-04-07T11:41:48Z</time>
      </trkpt>
      <trkpt lat="49.13611" lon="-0.29525">
        <ele>126.6</ele>
        <time>2024-04-07T11:41:49Z</time>
      </trkpt>
      <trkpt lat="49.13614" lon="-0.29525">
        <ele>126.6</ele>
        <time>2024-04-07T11:41:50Z</time>
      </trkpt>
      <trkpt lat="49.13622" lon="-0.29522">
        <ele>126.4</ele>
        <time>2024-04-07T11:41:51Z</time>
      </trkpt>
      <trkpt lat="49.13635" lon="-0.29512">
        <ele>126.4</ele>
        <time>2024-04-07T11:41:52Z</time>
      </trkpt>
      <trkpt lat="49.13642" lon="-0.29506">
        <ele>126.2</ele>
        <time>2024-04-07T11:41:53Z</time>
      </trkpt>
      <trkpt lat="49.13646" lon="-0.29504">
        <ele>126</ele>
        <time>2024-04-07T11:41:54Z</time>
      </trkpt>
      <trkpt lat="49.13649" lon="-0.29501">
        <ele>125.8</ele>
        <time>2024-04-07T11:41:55Z</time>
      </trkpt>
      <trkpt lat="49.13661" lon="-0.29492">
        <ele>125.8</ele>
        <time>2024-04-07T11:41:56Z</time>
      </trkpt>
      <trkpt lat="49.13666" lon="-0.29488">
        <ele>125.8</ele>
        <time>2024-04-07T11:41:57Z</time>
      </trkpt>
      <trkpt lat="49.13676" lon="-0.29482">
        <ele>125.8</ele>
        <time>2024-04-07T11:41:58Z</time>
      </trkpt>
      <trkpt lat="49.13683" lon="-0.29478">
        <ele>125.8</ele>
        <time>2024-04-07T11:41:59Z</time>
      </trkpt>
      <trkpt lat="49.13691" lon="-0.29474">
        <ele>126</ele>
        <time>2024-04-07T11:42:00Z</time>
      </trkpt>
      <trkpt lat="49.13698" lon="-0.29471">
        <ele>126</ele>
        <time>2024-04-07T11:42:01Z</time>
      </trkpt>
      <trkpt lat="49.13705" lon="-0.29468">
        <ele>126</ele>
        <time>2024-04-07T11:42:02Z</time>
      </trkpt>
      <trkpt lat="49.13713" lon="-0.29465">
        <ele>126.2</ele>
        <time>2024-04-07T11:42:03Z</time>
      </trkpt>
      <trkpt lat="49.1372" lon="-0.29462">
        <ele>126.2</ele>
        <time>2024-04-07T11:42:04Z</time>
      </trkpt>
      <trkpt lat="49.13725" lon="-0.2946">
        <ele>126.2</ele>
        <time>2024-04-07T11:42:05Z</time>
      </trkpt>
      <trkpt lat="49.13731" lon="-0.29458">
        <ele>126.2</ele>
        <time>2024-04-07T11:42:06Z</time>
      </trkpt>
      <trkpt lat="49.13742" lon="-0.29453">
        <ele>126.2</ele>
        <time>2024-04-07T11:42:07Z</time>
      </trkpt>
      <trkpt lat="49.13747" lon="-0.29451">
        <ele>126.2</ele>
        <time>2024-04-07T11:42:08Z</time>
      </trkpt>
      <trkpt lat="49.13753" lon="-0.29449">
        <ele>126.2</ele>
        <time>2024-04-07T11:42:09Z</time>
      </trkpt>
      <trkpt lat="49.13764" lon="-0.29445">
        <ele>126.2</ele>
        <time>2024-04-07T11:42:10Z</time>
      </trkpt>
      <trkpt lat="49.13771" lon="-0.29443">
        <ele>126.2</ele>
        <time>2024-04-07T11:42:11Z</time>
      </trkpt>
      <trkpt lat="49.13777" lon="-0.2944">
        <ele>126.2</ele>
        <time>2024-04-07T11:42:12Z</time>
      </trkpt>
      <trkpt lat="49.13777" lon="-0.2944">
        <ele>126.2</ele>
        <time>2024-04-07T11:42:13Z</time>
      </trkpt>
      <trkpt lat="49.1379" lon="-0.29434">
        <ele>126.2</ele>
        <time>2024-04-07T11:42:14Z</time>
      </trkpt>
      <trkpt lat="49.13797" lon="-0.29431">
        <ele>126.4</ele>
        <time>2024-04-07T11:42:15Z</time>
      </trkpt>
      <trkpt lat="49.13797" lon="-0.29431">
        <ele>126.4</ele>
        <time>2024-04-07T11:42:16Z</time>
      </trkpt>
      <trkpt lat="49.13809" lon="-0.29426">
        <ele>126.4</ele>
        <time>2024-04-07T11:42:17Z</time>
      </trkpt>
      <trkpt lat="49.13814" lon="-0.29424">
        <ele>126.4</ele>
        <time>2024-04-07T11:42:18Z</time>
      </trkpt>
      <trkpt lat="49.13824" lon="-0.2942">
        <ele>126.4</ele>
        <time>2024-04-07T11:42:19Z</time>
      </trkpt>
      <trkpt lat="49.13831" lon="-0.29417">
        <ele>126.2</ele>
        <time>2024-04-07T11:42:20Z</time>
      </trkpt>
      <trkpt lat="49.13839" lon="-0.29413">
        <ele>126.2</ele>
        <time>2024-04-07T11:42:21Z</time>
      </trkpt>
      <trkpt lat="49.13844" lon="-0.29411">
        <ele>126.2</ele>
        <time>2024-04-07T11:42:22Z</time>
      </trkpt>
      <trkpt lat="49.13849" lon="-0.29408">
        <ele>126.2</ele>
        <time>2024-04-07T11:42:23Z</time>
      </trkpt>
      <trkpt lat="49.1386" lon="-0.29403">
        <ele>126</ele>
        <time>2024-04-07T11:42:24Z</time>
      </trkpt>
      <trkpt lat="49.1386" lon="-0.29403">
        <ele>126</ele>
        <time>2024-04-07T11:42:25Z</time>
      </trkpt>
      <trkpt lat="49.13874" lon="-0.29397">
        <ele>126</ele>
        <time>2024-04-07T11:42:26Z</time>
      </trkpt>
      <trkpt lat="49.13882" lon="-0.29393">
        <ele>125.8</ele>
        <time>2024-04-07T11:42:27Z</time>
      </trkpt>
      <trkpt lat="49.13885" lon="-0.29391">
        <ele>125.8</ele>
        <time>2024-04-07T11:42:28Z</time>
      </trkpt>
      <trkpt lat="49.13889" lon="-0.29389">
        <ele>125.8</ele>
        <time>2024-04-07T11:42:29Z</time>
      </trkpt>
      <trkpt lat="49.13897" lon="-0.29385">
        <ele>125.8</ele>
        <time>2024-04-07T11:42:30Z</time>
      </trkpt>
      <trkpt lat="49.13904" lon="-0.29381">
        <ele>125.8</ele>
        <time>2024-04-07T11:42:31Z</time>
      </trkpt>
      <trkpt lat="49.13917" lon="-0.29375">
        <ele>126</ele>
        <time>2024-04-07T11:42:32Z</time>
      </trkpt>
      <trkpt lat="49.13923" lon="-0.29372">
        <ele>126</ele>
        <time>2024-04-07T11:42:33Z</time>
      </trkpt>
      <trkpt lat="49.13934" lon="-0.29366">
        <ele>126</ele>
        <time>2024-04-07T11:42:34Z</time>
      </trkpt>
      <trkpt lat="49.13938" lon="-0.29364">
        <ele>126</ele>
        <time>2024-04-07T11:42:35Z</time>
      </trkpt>
      <trkpt lat="49.13942" lon="-0.29362">
        <ele>126</ele>
        <time>2024-04-07T11:42:36Z</time>
      </trkpt>
      <trkpt lat="49.13955" lon="-0.29354">
        <ele>126</ele>
        <time>2024-04-07T11:42:37Z</time>
      </trkpt>
      <trkpt lat="49.1396" lon="-0.2935">
        <ele>125.8</ele>
        <time>2024-04-07T11:42:38Z</time>
      </trkpt>
      <trkpt lat="49.13971" lon="-0.29343">
        <ele>125.8</ele>
        <time>2024-04-07T11:42:39Z</time>
      </trkpt>
      <trkpt lat="49.13979" lon="-0.29339">
        <ele>125.8</ele>
        <time>2024-04-07T11:42:40Z</time>
      </trkpt>
      <trkpt lat="49.13984" lon="-0.29335">
        <ele>126</ele>
        <time>2024-04-07T11:42:41Z</time>
      </trkpt>
      <trkpt lat="49.1399" lon="-0.29331">
        <ele>125.8</ele>
        <time>2024-04-07T11:42:42Z</time>
      </trkpt>
      <trkpt lat="49.14" lon="-0.29323">
        <ele>125.8</ele>
        <time>2024-04-07T11:42:43Z</time>
      </trkpt>
      <trkpt lat="49.14006" lon="-0.29319">
        <ele>125.6</ele>
        <time>2024-04-07T11:42:44Z</time>
      </trkpt>
      <trkpt lat="49.14012" lon="-0.29315">
        <ele>125.4</ele>
        <time>2024-04-07T11:42:45Z</time>
      </trkpt>
      <trkpt lat="49.14023" lon="-0.29307">
        <ele>125.4</ele>
        <time>2024-04-07T11:42:46Z</time>
      </trkpt>
      <trkpt lat="49.1403" lon="-0.29301">
        <ele>125.2</ele>
        <time>2024-04-07T11:42:47Z</time>
      </trkpt>
      <trkpt lat="49.14037" lon="-0.29295">
        <ele>125</ele>
        <time>2024-04-07T11:42:48Z</time>
      </trkpt>
      <trkpt lat="49.14042" lon="-0.29291">
        <ele>125</ele>
        <time>2024-04-07T11:42:49Z</time>
      </trkpt>
      <trkpt lat="49.14047" lon="-0.29287">
        <ele>124.8</ele>
        <time>2024-04-07T11:42:50Z</time>
      </trkpt>
      <trkpt lat="49.14058" lon="-0.29279">
        <ele>124.8</ele>
        <time>2024-04-07T11:42:51Z</time>
      </trkpt>
      <trkpt lat="49.14065" lon="-0.29273">
        <ele>124.8</ele>
        <time>2024-04-07T11:42:52Z</time>
      </trkpt>
      <trkpt lat="49.14068" lon="-0.2927">
        <ele>124.8</ele>
        <time>2024-04-07T11:42:53Z</time>
      </trkpt>
      <trkpt lat="49.14071" lon="-0.29267">
        <ele>124.8</ele>
        <time>2024-04-07T11:42:54Z</time>
      </trkpt>
      <trkpt lat="49.14078" lon="-0.29261">
        <ele>124.8</ele>
        <time>2024-04-07T11:42:55Z</time>
      </trkpt>
      <trkpt lat="49.14085" lon="-0.29255">
        <ele>124.8</ele>
        <time>2024-04-07T11:42:56Z</time>
      </trkpt>
      <trkpt lat="49.14092" lon="-0.2925">
        <ele>124.8</ele>
        <time>2024-04-07T11:42:57Z</time>
      </trkpt>
      <trkpt lat="49.14102" lon="-0.29241">
        <ele>124.6</ele>
        <time>2024-04-07T11:42:58Z</time>
      </trkpt>
      <trkpt lat="49.14106" lon="-0.29238">
        <ele>124.6</ele>
        <time>2024-04-07T11:42:59Z</time>
      </trkpt>
      <trkpt lat="49.14113" lon="-0.29231">
        <ele>124.4</ele>
        <time>2024-04-07T11:43:00Z</time>
      </trkpt>
      <trkpt lat="49.14127" lon="-0.29219">
        <ele>124.2</ele>
        <time>2024-04-07T11:43:01Z</time>
      </trkpt>
      <trkpt lat="49.1413" lon="-0.29216">
        <ele>124</ele>
        <time>2024-04-07T11:43:02Z</time>
      </trkpt>
      <trkpt lat="49.14134" lon="-0.29212">
        <ele>123.8</ele>
        <time>2024-04-07T11:43:03Z</time>
      </trkpt>
      <trkpt lat="49.14141" lon="-0.29206">
        <ele>123.8</ele>
        <time>2024-04-07T11:43:04Z</time>
      </trkpt>
      <trkpt lat="49.14155" lon="-0.29194">
        <ele>123.8</ele>
        <time>2024-04-07T11:43:05Z</time>
      </trkpt>
      <trkpt lat="49.14159" lon="-0.29191">
        <ele>124</ele>
        <time>2024-04-07T11:43:06Z</time>
      </trkpt>
      <trkpt lat="49.14162" lon="-0.29188">
        <ele>124</ele>
        <time>2024-04-07T11:43:07Z</time>
      </trkpt>
      <trkpt lat="49.14169" lon="-0.29183">
        <ele>124.2</ele>
        <time>2024-04-07T11:43:08Z</time>
      </trkpt>
      <trkpt lat="49.14177" lon="-0.29177">
        <ele>124.2</ele>
        <time>2024-04-07T11:43:09Z</time>
      </trkpt>
      <trkpt lat="49.14184" lon="-0.29171">
        <ele>124.2</ele>
        <time>2024-04-07T11:43:10Z</time>
      </trkpt>
      <trkpt lat="49.14191" lon="-0.29165">
        <ele>124.2</ele>
        <time>2024-04-07T11:43:11Z</time>
      </trkpt>
      <trkpt lat="49.14198" lon="-0.29159">
        <ele>124.2</ele>
        <time>2024-04-07T11:43:12Z</time>
      </trkpt>
      <trkpt lat="49.14205" lon="-0.29153">
        <ele>124.2</ele>
        <time>2024-04-07T11:43:13Z</time>
      </trkpt>
      <trkpt lat="49.1422" lon="-0.2914">
        <ele>124</ele>
        <time>2024-04-07T11:43:14Z</time>
      </trkpt>
      <trkpt lat="49.14224" lon="-0.29137">
        <ele>124</ele>
        <time>2024-04-07T11:43:15Z</time>
      </trkpt>
      <trkpt lat="49.14227" lon="-0.29134">
        <ele>123.8</ele>
        <time>2024-04-07T11:43:16Z</time>
      </trkpt>
      <trkpt lat="49.14235" lon="-0.29127">
        <ele>123.6</ele>
        <time>2024-04-07T11:43:17Z</time>
      </trkpt>
      <trkpt lat="49.14242" lon="-0.29121">
        <ele>123.6</ele>
        <time>2024-04-07T11:43:18Z</time>
      </trkpt>
      <trkpt lat="49.14249" lon="-0.29114">
        <ele>123.6</ele>
        <time>2024-04-07T11:43:19Z</time>
      </trkpt>
      <trkpt lat="49.1426" lon="-0.29105">
        <ele>123.8</ele>
        <time>2024-04-07T11:43:20Z</time>
      </trkpt>
      <trkpt lat="49.14264" lon="-0.29102">
        <ele>123.8</ele>
        <time>2024-04-07T11:43:21Z</time>
      </trkpt>
      <trkpt lat="49.14272" lon="-0.29096">
        <ele>123.8</ele>
        <time>2024-04-07T11:43:22Z</time>
      </trkpt>
      <trkpt lat="49.14279" lon="-0.2909">
        <ele>123.8</ele>
        <time>2024-04-07T11:43:23Z</time>
      </trkpt>
      <trkpt lat="49.14287" lon="-0.29084">
        <ele>123.6</ele>
        <time>2024-04-07T11:43:24Z</time>
      </trkpt>
      <trkpt lat="49.14303" lon="-0.29072">
        <ele>123.6</ele>
        <time>2024-04-07T11:43:25Z</time>
      </trkpt>
      <trkpt lat="49.14311" lon="-0.29066">
        <ele>123.4</ele>
        <time>2024-04-07T11:43:26Z</time>
      </trkpt>
      <trkpt lat="49.14318" lon="-0.2906">
        <ele>123.4</ele>
        <time>2024-04-07T11:43:27Z</time>
      </trkpt>
      <trkpt lat="49.14322" lon="-0.29057">
        <ele>123.4</ele>
        <time>2024-04-07T11:43:28Z</time>
      </trkpt>
      <trkpt lat="49.14326" lon="-0.29054">
        <ele>123.2</ele>
        <time>2024-04-07T11:43:29Z</time>
      </trkpt>
      <trkpt lat="49.14333" lon="-0.29048">
        <ele>123.2</ele>
        <time>2024-04-07T11:43:30Z</time>
      </trkpt>
      <trkpt lat="49.14341" lon="-0.29041">
        <ele>123.4</ele>
        <time>2024-04-07T11:43:31Z</time>
      </trkpt>
      <trkpt lat="49.14348" lon="-0.29035">
        <ele>123.4</ele>
        <time>2024-04-07T11:43:32Z</time>
      </trkpt>
      <trkpt lat="49.14356" lon="-0.29029">
        <ele>123.4</ele>
        <time>2024-04-07T11:43:33Z</time>
      </trkpt>
      <trkpt lat="49.14364" lon="-0.29023">
        <ele>123.2</ele>
        <time>2024-04-07T11:43:34Z</time>
      </trkpt>
      <trkpt lat="49.14371" lon="-0.29017">
        <ele>123.2</ele>
        <time>2024-04-07T11:43:35Z</time>
      </trkpt>
      <trkpt lat="49.14379" lon="-0.29012">
        <ele>123.2</ele>
        <time>2024-04-07T11:43:36Z</time>
      </trkpt>
      <trkpt lat="49.14386" lon="-0.29006">
        <ele>123.2</ele>
        <time>2024-04-07T11:43:37Z</time>
      </trkpt>
      <trkpt lat="49.14394" lon="-0.29001">
        <ele>123</ele>
        <time>2024-04-07T11:43:38Z</time>
      </trkpt>
      <trkpt lat="49.14402" lon="-0.28996">
        <ele>123</ele>
        <time>2024-04-07T11:43:39Z</time>
      </trkpt>
      <trkpt lat="49.14418" lon="-0.28986">
        <ele>122.8</ele>
        <time>2024-04-07T11:43:40Z</time>
      </trkpt>
      <trkpt lat="49.14426" lon="-0.28981">
        <ele>122.8</ele>
        <time>2024-04-07T11:43:41Z</time>
      </trkpt>
      <trkpt lat="49.14434" lon="-0.28975">
        <ele>122.8</ele>
        <time>2024-04-07T11:43:42Z</time>
      </trkpt>
      <trkpt lat="49.14442" lon="-0.28969">
        <ele>122.8</ele>
        <time>2024-04-07T11:43:43Z</time>
      </trkpt>
      <trkpt lat="49.14448" lon="-0.28965">
        <ele>122.8</ele>
        <time>2024-04-07T11:43:44Z</time>
      </trkpt>
      <trkpt lat="49.14454" lon="-0.28961">
        <ele>122.6</ele>
        <time>2024-04-07T11:43:45Z</time>
      </trkpt>
      <trkpt lat="49.14466" lon="-0.28952">
        <ele>122.6</ele>
        <time>2024-04-07T11:43:46Z</time>
      </trkpt>
      <trkpt lat="49.14473" lon="-0.28947">
        <ele>122.4</ele>
        <time>2024-04-07T11:43:47Z</time>
      </trkpt>
      <trkpt lat="49.14481" lon="-0.28942">
        <ele>122.2</ele>
        <time>2024-04-07T11:43:48Z</time>
      </trkpt>
      <trkpt lat="49.14489" lon="-0.28937">
        <ele>122.2</ele>
        <time>2024-04-07T11:43:49Z</time>
      </trkpt>
      <trkpt lat="49.14497" lon="-0.28932">
        <ele>122.2</ele>
        <time>2024-04-07T11:43:50Z</time>
      </trkpt>
      <trkpt lat="49.14504" lon="-0.28927">
        <ele>122</ele>
        <time>2024-04-07T11:43:51Z</time>
      </trkpt>
      <trkpt lat="49.14512" lon="-0.28922">
        <ele>122</ele>
        <time>2024-04-07T11:43:52Z</time>
      </trkpt>
      <trkpt lat="49.14519" lon="-0.28916">
        <ele>122</ele>
        <time>2024-04-07T11:43:53Z</time>
      </trkpt>
      <trkpt lat="49.14526" lon="-0.28911">
        <ele>122</ele>
        <time>2024-04-07T11:43:54Z</time>
      </trkpt>
      <trkpt lat="49.14533" lon="-0.28906">
        <ele>122</ele>
        <time>2024-04-07T11:43:55Z</time>
      </trkpt>
      <trkpt lat="49.14541" lon="-0.28901">
        <ele>122</ele>
        <time>2024-04-07T11:43:56Z</time>
      </trkpt>
      <trkpt lat="49.14548" lon="-0.28896">
        <ele>121.8</ele>
        <time>2024-04-07T11:43:57Z</time>
      </trkpt>
      <trkpt lat="49.14556" lon="-0.2889">
        <ele>121.8</ele>
        <time>2024-04-07T11:43:58Z</time>
      </trkpt>
      <trkpt lat="49.14564" lon="-0.28885">
        <ele>121.8</ele>
        <time>2024-04-07T11:43:59Z</time>
      </trkpt>
      <trkpt lat="49.14572" lon="-0.2888">
        <ele>121.6</ele>
        <time>2024-04-07T11:44:00Z</time>
      </trkpt>
      <trkpt lat="49.1458" lon="-0.28875">
        <ele>121.6</ele>
        <time>2024-04-07T11:44:01Z</time>
      </trkpt>
      <trkpt lat="49.14587" lon="-0.28869">
        <ele>121.4</ele>
        <time>2024-04-07T11:44:02Z</time>
      </trkpt>
      <trkpt lat="49.14595" lon="-0.28864">
        <ele>121.2</ele>
        <time>2024-04-07T11:44:03Z</time>
      </trkpt>
      <trkpt lat="49.14602" lon="-0.28859">
        <ele>121.2</ele>
        <time>2024-04-07T11:44:04Z</time>
      </trkpt>
      <trkpt lat="49.14609" lon="-0.28854">
        <ele>121</ele>
        <time>2024-04-07T11:44:05Z</time>
      </trkpt>
      <trkpt lat="49.14616" lon="-0.28849">
        <ele>121</ele>
        <time>2024-04-07T11:44:06Z</time>
      </trkpt>
      <trkpt lat="49.14623" lon="-0.28845">
        <ele>121</ele>
        <time>2024-04-07T11:44:07Z</time>
      </trkpt>
      <trkpt lat="49.14623" lon="-0.28845">
        <ele>121</ele>
        <time>2024-04-07T11:44:08Z</time>
      </trkpt>
      <trkpt lat="49.14638" lon="-0.28836">
        <ele>120.8</ele>
        <time>2024-04-07T11:44:09Z</time>
      </trkpt>
      <trkpt lat="49.14645" lon="-0.28831">
        <ele>120.8</ele>
        <time>2024-04-07T11:44:10Z</time>
      </trkpt>
      <trkpt lat="49.1465" lon="-0.28827">
        <ele>120.8</ele>
        <time>2024-04-07T11:44:11Z</time>
      </trkpt>
      <trkpt lat="49.14656" lon="-0.28823">
        <ele>120.8</ele>
        <time>2024-04-07T11:44:12Z</time>
      </trkpt>
      <trkpt lat="49.14667" lon="-0.28816">
        <ele>120.6</ele>
        <time>2024-04-07T11:44:13Z</time>
      </trkpt>
      <trkpt lat="49.14674" lon="-0.28811">
        <ele>120.4</ele>
        <time>2024-04-07T11:44:14Z</time>
      </trkpt>
      <trkpt lat="49.14682" lon="-0.28806">
        <ele>120.4</ele>
        <time>2024-04-07T11:44:15Z</time>
      </trkpt>
      <trkpt lat="49.14689" lon="-0.28801">
        <ele>120.2</ele>
        <time>2024-04-07T11:44:16Z</time>
      </trkpt>
      <trkpt lat="49.14697" lon="-0.28796">
        <ele>120</ele>
        <time>2024-04-07T11:44:17Z</time>
      </trkpt>
      <trkpt lat="49.14705" lon="-0.2879">
        <ele>120</ele>
        <time>2024-04-07T11:44:18Z</time>
      </trkpt>
      <trkpt lat="49.14712" lon="-0.28785">
        <ele>120</ele>
        <time>2024-04-07T11:44:19Z</time>
      </trkpt>
      <trkpt lat="49.1472" lon="-0.28779">
        <ele>120</ele>
        <time>2024-04-07T11:44:20Z</time>
      </trkpt>
      <trkpt lat="49.14728" lon="-0.28772">
        <ele>119.8</ele>
        <time>2024-04-07T11:44:21Z</time>
      </trkpt>
      <trkpt lat="49.14735" lon="-0.28766">
        <ele>119.6</ele>
        <time>2024-04-07T11:44:22Z</time>
      </trkpt>
      <trkpt lat="49.14743" lon="-0.2876">
        <ele>119.4</ele>
        <time>2024-04-07T11:44:23Z</time>
      </trkpt>
      <trkpt lat="49.1475" lon="-0.28754">
        <ele>119.4</ele>
        <time>2024-04-07T11:44:24Z</time>
      </trkpt>
      <trkpt lat="49.14758" lon="-0.28748">
        <ele>119.2</ele>
        <time>2024-04-07T11:44:25Z</time>
      </trkpt>
      <trkpt lat="49.14765" lon="-0.28743">
        <ele>119</ele>
        <time>2024-04-07T11:44:26Z</time>
      </trkpt>
      <trkpt lat="49.14772" lon="-0.28739">
        <ele>118.8</ele>
        <time>2024-04-07T11:44:27Z</time>
      </trkpt>
      <trkpt lat="49.1478" lon="-0.28735">
        <ele>118.8</ele>
        <time>2024-04-07T11:44:28Z</time>
      </trkpt>
      <trkpt lat="49.14787" lon="-0.28731">
        <ele>118.6</ele>
        <time>2024-04-07T11:44:29Z</time>
      </trkpt>
      <trkpt lat="49.14795" lon="-0.28727">
        <ele>118.4</ele>
        <time>2024-04-07T11:44:30Z</time>
      </trkpt>
      <trkpt lat="49.14802" lon="-0.28726">
        <ele>118.2</ele>
        <time>2024-04-07T11:44:31Z</time>
      </trkpt>
      <trkpt lat="49.1481" lon="-0.28726">
        <ele>118.2</ele>
        <time>2024-04-07T11:44:32Z</time>
      </trkpt>
      <trkpt lat="49.14818" lon="-0.28726">
        <ele>118.2</ele>
        <time>2024-04-07T11:44:33Z</time>
      </trkpt>
      <trkpt lat="49.14826" lon="-0.28725">
        <ele>118.2</ele>
        <time>2024-04-07T11:44:34Z</time>
      </trkpt>
      <trkpt lat="49.14834" lon="-0.28724">
        <ele>118.4</ele>
        <time>2024-04-07T11:44:35Z</time>
      </trkpt>
      <trkpt lat="49.14843" lon="-0.28721">
        <ele>118.4</ele>
        <time>2024-04-07T11:44:36Z</time>
      </trkpt>
      <trkpt lat="49.14851" lon="-0.28719">
        <ele>118.6</ele>
        <time>2024-04-07T11:44:37Z</time>
      </trkpt>
      <trkpt lat="49.14859" lon="-0.28717">
        <ele>118.6</ele>
        <time>2024-04-07T11:44:38Z</time>
      </trkpt>
      <trkpt lat="49.14867" lon="-0.28715">
        <ele>118.8</ele>
        <time>2024-04-07T11:44:39Z</time>
      </trkpt>
      <trkpt lat="49.14871" lon="-0.28713">
        <ele>118.8</ele>
        <time>2024-04-07T11:44:40Z</time>
      </trkpt>
      <trkpt lat="49.14875" lon="-0.28712">
        <ele>118.8</ele>
        <time>2024-04-07T11:44:41Z</time>
      </trkpt>
      <trkpt lat="49.14883" lon="-0.28709">
        <ele>118.6</ele>
        <time>2024-04-07T11:44:42Z</time>
      </trkpt>
      <trkpt lat="49.14899" lon="-0.28707">
        <ele>118.6</ele>
        <time>2024-04-07T11:44:43Z</time>
      </trkpt>
      <trkpt lat="49.14907" lon="-0.28707">
        <ele>118.6</ele>
        <time>2024-04-07T11:44:44Z</time>
      </trkpt>
      <trkpt lat="49.14915" lon="-0.28706">
        <ele>118.4</ele>
        <time>2024-04-07T11:44:45Z</time>
      </trkpt>
      <trkpt lat="49.14923" lon="-0.28705">
        <ele>118.4</ele>
        <time>2024-04-07T11:44:46Z</time>
      </trkpt>
      <trkpt lat="49.14923" lon="-0.28705">
        <ele>118.6</ele>
        <time>2024-04-07T11:44:47Z</time>
      </trkpt>
      <trkpt lat="49.14938" lon="-0.28704">
        <ele>118.6</ele>
        <time>2024-04-07T11:44:48Z</time>
      </trkpt>
      <trkpt lat="49.14944" lon="-0.28705">
        <ele>118.6</ele>
        <time>2024-04-07T11:44:49Z</time>
      </trkpt>
      <trkpt lat="49.14949" lon="-0.28705">
        <ele>118.4</ele>
        <time>2024-04-07T11:44:50Z</time>
      </trkpt>
      <trkpt lat="49.1496" lon="-0.28705">
        <ele>118.2</ele>
        <time>2024-04-07T11:44:51Z</time>
      </trkpt>
      <trkpt lat="49.14967" lon="-0.28706">
        <ele>118.2</ele>
        <time>2024-04-07T11:44:52Z</time>
      </trkpt>
      <trkpt lat="49.14975" lon="-0.28707">
        <ele>118</ele>
        <time>2024-04-07T11:44:53Z</time>
      </trkpt>
      <trkpt lat="49.14982" lon="-0.2871">
        <ele>117.8</ele>
        <time>2024-04-07T11:44:54Z</time>
      </trkpt>
      <trkpt lat="49.14988" lon="-0.28712">
        <ele>117.8</ele>
        <time>2024-04-07T11:44:55Z</time>
      </trkpt>
      <trkpt lat="49.14995" lon="-0.28716">
        <ele>117.8</ele>
        <time>2024-04-07T11:44:56Z</time>
      </trkpt>
      <trkpt lat="49.14999" lon="-0.28717">
        <ele>117.8</ele>
        <time>2024-04-07T11:44:57Z</time>
      </trkpt>
      <trkpt lat="49.15002" lon="-0.28718">
        <ele>117.8</ele>
        <time>2024-04-07T11:44:58Z</time>
      </trkpt>
      <trkpt lat="49.1501" lon="-0.2872">
        <ele>117.8</ele>
        <time>2024-04-07T11:44:59Z</time>
      </trkpt>
      <trkpt lat="49.15017" lon="-0.28718">
        <ele>118</ele>
        <time>2024-04-07T11:45:00Z</time>
      </trkpt>
      <trkpt lat="49.15023" lon="-0.28713">
        <ele>118.4</ele>
        <time>2024-04-07T11:45:01Z</time>
      </trkpt>
      <trkpt lat="49.15037" lon="-0.28703">
        <ele>118.8</ele>
        <time>2024-04-07T11:45:02Z</time>
      </trkpt>
      <trkpt lat="49.15044" lon="-0.287">
        <ele>119.2</ele>
        <time>2024-04-07T11:45:03Z</time>
      </trkpt>
      <trkpt lat="49.1505" lon="-0.28699">
        <ele>119.4</ele>
        <time>2024-04-07T11:45:04Z</time>
      </trkpt>
      <trkpt lat="49.15055" lon="-0.28698">
        <ele>119.6</ele>
        <time>2024-04-07T11:45:05Z</time>
      </trkpt>
      <trkpt lat="49.15066" lon="-0.28696">
        <ele>119.8</ele>
        <time>2024-04-07T11:45:06Z</time>
      </trkpt>
      <trkpt lat="49.15072" lon="-0.28695">
        <ele>120</ele>
        <time>2024-04-07T11:45:07Z</time>
      </trkpt>
      <trkpt lat="49.15079" lon="-0.28694">
        <ele>120.2</ele>
        <time>2024-04-07T11:45:08Z</time>
      </trkpt>
      <trkpt lat="49.15085" lon="-0.28693">
        <ele>120.6</ele>
        <time>2024-04-07T11:45:09Z</time>
      </trkpt>
      <trkpt lat="49.15091" lon="-0.28692">
        <ele>120.8</ele>
        <time>2024-04-07T11:45:10Z</time>
      </trkpt>
      <trkpt lat="49.15097" lon="-0.28691">
        <ele>121.2</ele>
        <time>2024-04-07T11:45:11Z</time>
      </trkpt>
      <trkpt lat="49.15103" lon="-0.28689">
        <ele>121.6</ele>
        <time>2024-04-07T11:45:12Z</time>
      </trkpt>
      <trkpt lat="49.15107" lon="-0.28688">
        <ele>122.2</ele>
        <time>2024-04-07T11:45:13Z</time>
      </trkpt>
      <trkpt lat="49.15111" lon="-0.28686">
        <ele>122.8</ele>
        <time>2024-04-07T11:45:14Z</time>
      </trkpt>
      <trkpt lat="49.15119" lon="-0.28684">
        <ele>123.6</ele>
        <time>2024-04-07T11:45:15Z</time>
      </trkpt>
      <trkpt lat="49.15124" lon="-0.28681">
        <ele>124</ele>
        <time>2024-04-07T11:45:16Z</time>
      </trkpt>
      <trkpt lat="49.15129" lon="-0.28678">
        <ele>124.4</ele>
        <time>2024-04-07T11:45:17Z</time>
      </trkpt>
      <trkpt lat="49.15135" lon="-0.28675">
        <ele>124.8</ele>
        <time>2024-04-07T11:45:18Z</time>
      </trkpt>
      <trkpt lat="49.1514" lon="-0.28672">
        <ele>125.2</ele>
        <time>2024-04-07T11:45:19Z</time>
      </trkpt>
      <trkpt lat="49.15146" lon="-0.28668">
        <ele>125.4</ele>
        <time>2024-04-07T11:45:20Z</time>
      </trkpt>
      <trkpt lat="49.15146" lon="-0.28668">
        <ele>125.6</ele>
        <time>2024-04-07T11:45:21Z</time>
      </trkpt>
      <trkpt lat="49.15158" lon="-0.28661">
        <ele>125.8</ele>
        <time>2024-04-07T11:45:22Z</time>
      </trkpt>
      <trkpt lat="49.15164" lon="-0.28657">
        <ele>126</ele>
        <time>2024-04-07T11:45:23Z</time>
      </trkpt>
      <trkpt lat="49.1517" lon="-0.28653">
        <ele>126</ele>
        <time>2024-04-07T11:45:24Z</time>
      </trkpt>
      <trkpt lat="49.15176" lon="-0.2865">
        <ele>126.2</ele>
        <time>2024-04-07T11:45:25Z</time>
      </trkpt>
      <trkpt lat="49.15182" lon="-0.28646">
        <ele>126.2</ele>
        <time>2024-04-07T11:45:26Z</time>
      </trkpt>
      <trkpt lat="49.15188" lon="-0.28642">
        <ele>126.2</ele>
        <time>2024-04-07T11:45:27Z</time>
      </trkpt>
      <trkpt lat="49.15194" lon="-0.28637">
        <ele>126.2</ele>
        <time>2024-04-07T11:45:28Z</time>
      </trkpt>
      <trkpt lat="49.15201" lon="-0.28633">
        <ele>126.4</ele>
        <time>2024-04-07T11:45:29Z</time>
      </trkpt>
      <trkpt lat="49.15207" lon="-0.28629">
        <ele>126.4</ele>
        <time>2024-04-07T11:45:30Z</time>
      </trkpt>
      <trkpt lat="49.15214" lon="-0.28625">
        <ele>126.6</ele>
        <time>2024-04-07T11:45:31Z</time>
      </trkpt>
      <trkpt lat="49.1522" lon="-0.28622">
        <ele>126.6</ele>
        <time>2024-04-07T11:45:32Z</time>
      </trkpt>
      <trkpt lat="49.15227" lon="-0.28617">
        <ele>126.6</ele>
        <time>2024-04-07T11:45:33Z</time>
      </trkpt>
      <trkpt lat="49.15233" lon="-0.28615">
        <ele>126.6</ele>
        <time>2024-04-07T11:45:34Z</time>
      </trkpt>
      <trkpt lat="49.15239" lon="-0.28612">
        <ele>126.6</ele>
        <time>2024-04-07T11:45:35Z</time>
      </trkpt>
      <trkpt lat="49.1525" lon="-0.28607">
        <ele>126.4</ele>
        <time>2024-04-07T11:45:36Z</time>
      </trkpt>
      <trkpt lat="49.15254" lon="-0.28606">
        <ele>126</ele>
        <time>2024-04-07T11:45:37Z</time>
      </trkpt>
      <trkpt lat="49.15258" lon="-0.28605">
        <ele>125.6</ele>
        <time>2024-04-07T11:45:38Z</time>
      </trkpt>
      <trkpt lat="49.15267" lon="-0.28604">
        <ele>125.2</ele>
        <time>2024-04-07T11:45:39Z</time>
      </trkpt>
      <trkpt lat="49.15285" lon="-0.28604">
        <ele>124.6</ele>
        <time>2024-04-07T11:45:40Z</time>
      </trkpt>
      <trkpt lat="49.15295" lon="-0.28605">
        <ele>124</ele>
        <time>2024-04-07T11:45:41Z</time>
      </trkpt>
      <trkpt lat="49.15304" lon="-0.28607">
        <ele>123</ele>
        <time>2024-04-07T11:45:42Z</time>
      </trkpt>
      <trkpt lat="49.15314" lon="-0.28609">
        <ele>122.2</ele>
        <time>2024-04-07T11:45:43Z</time>
      </trkpt>
      <trkpt lat="49.15324" lon="-0.28611">
        <ele>121.6</ele>
        <time>2024-04-07T11:45:44Z</time>
      </trkpt>
      <trkpt lat="49.15334" lon="-0.28613">
        <ele>121</ele>
        <time>2024-04-07T11:45:45Z</time>
      </trkpt>
      <trkpt lat="49.15339" lon="-0.28614">
        <ele>120.4</ele>
        <time>2024-04-07T11:45:46Z</time>
      </trkpt>
      <trkpt lat="49.15344" lon="-0.28615">
        <ele>119.6</ele>
        <time>2024-04-07T11:45:47Z</time>
      </trkpt>
      <trkpt lat="49.15354" lon="-0.28616">
        <ele>119</ele>
        <time>2024-04-07T11:45:48Z</time>
      </trkpt>
      <trkpt lat="49.15364" lon="-0.28616">
        <ele>118.6</ele>
        <time>2024-04-07T11:45:49Z</time>
      </trkpt>
      <trkpt lat="49.15374" lon="-0.28614">
        <ele>118.4</ele>
        <time>2024-04-07T11:45:50Z</time>
      </trkpt>
      <trkpt lat="49.15384" lon="-0.28611">
        <ele>118.2</ele>
        <time>2024-04-07T11:45:51Z</time>
      </trkpt>
      <trkpt lat="49.15393" lon="-0.28607">
        <ele>118.2</ele>
        <time>2024-04-07T11:45:52Z</time>
      </trkpt>
      <trkpt lat="49.15403" lon="-0.28603">
        <ele>118.2</ele>
        <time>2024-04-07T11:45:53Z</time>
      </trkpt>
      <trkpt lat="49.15412" lon="-0.28602">
        <ele>118.2</ele>
        <time>2024-04-07T11:45:54Z</time>
      </trkpt>
      <trkpt lat="49.15421" lon="-0.28602">
        <ele>118.2</ele>
        <time>2024-04-07T11:45:55Z</time>
      </trkpt>
      <trkpt lat="49.1543" lon="-0.28601">
        <ele>118.2</ele>
        <time>2024-04-07T11:45:56Z</time>
      </trkpt>
      <trkpt lat="49.15439" lon="-0.28599">
        <ele>118.2</ele>
        <time>2024-04-07T11:45:57Z</time>
      </trkpt>
      <trkpt lat="49.15448" lon="-0.28595">
        <ele>118.2</ele>
        <time>2024-04-07T11:45:58Z</time>
      </trkpt>
      <trkpt lat="49.15466" lon="-0.28586">
        <ele>118</ele>
        <time>2024-04-07T11:45:59Z</time>
      </trkpt>
      <trkpt lat="49.15466" lon="-0.28586">
        <ele>118.2</ele>
        <time>2024-04-07T11:46:00Z</time>
      </trkpt>
      <trkpt lat="49.15483" lon="-0.28577">
        <ele>118.2</ele>
        <time>2024-04-07T11:46:01Z</time>
      </trkpt>
      <trkpt lat="49.1549" lon="-0.28574">
        <ele>118.2</ele>
        <time>2024-04-07T11:46:02Z</time>
      </trkpt>
      <trkpt lat="49.15496" lon="-0.28571">
        <ele>118</ele>
        <time>2024-04-07T11:46:03Z</time>
      </trkpt>
      <trkpt lat="49.15509" lon="-0.28566">
        <ele>118</ele>
        <time>2024-04-07T11:46:04Z</time>
      </trkpt>
      <trkpt lat="49.15518" lon="-0.28562">
        <ele>118</ele>
        <time>2024-04-07T11:46:05Z</time>
      </trkpt>
      <trkpt lat="49.15526" lon="-0.28558">
        <ele>118</ele>
        <time>2024-04-07T11:46:06Z</time>
      </trkpt>
      <trkpt lat="49.15535" lon="-0.28554">
        <ele>118</ele>
        <time>2024-04-07T11:46:07Z</time>
      </trkpt>
      <trkpt lat="49.15543" lon="-0.28551">
        <ele>118.2</ele>
        <time>2024-04-07T11:46:08Z</time>
      </trkpt>
      <trkpt lat="49.15552" lon="-0.28547">
        <ele>118</ele>
        <time>2024-04-07T11:46:09Z</time>
      </trkpt>
      <trkpt lat="49.15561" lon="-0.28543">
        <ele>118</ele>
        <time>2024-04-07T11:46:10Z</time>
      </trkpt>
      <trkpt lat="49.1557" lon="-0.28539">
        <ele>118</ele>
        <time>2024-04-07T11:46:11Z</time>
      </trkpt>
      <trkpt lat="49.15578" lon="-0.28536">
        <ele>118</ele>
        <time>2024-04-07T11:46:12Z</time>
      </trkpt>
      <trkpt lat="49.15587" lon="-0.28532">
        <ele>117.8</ele>
        <time>2024-04-07T11:46:13Z</time>
      </trkpt>
      <trkpt lat="49.15594" lon="-0.28529">
        <ele>117.6</ele>
        <time>2024-04-07T11:46:14Z</time>
      </trkpt>
      <trkpt lat="49.156" lon="-0.28527">
        <ele>117.4</ele>
        <time>2024-04-07T11:46:15Z</time>
      </trkpt>
      <trkpt lat="49.15613" lon="-0.28521">
        <ele>117.4</ele>
        <time>2024-04-07T11:46:16Z</time>
      </trkpt>
      <trkpt lat="49.15622" lon="-0.28518">
        <ele>117.2</ele>
        <time>2024-04-07T11:46:17Z</time>
      </trkpt>
      <trkpt lat="49.1563" lon="-0.28514">
        <ele>117.2</ele>
        <time>2024-04-07T11:46:18Z</time>
      </trkpt>
      <trkpt lat="49.15635" lon="-0.28513">
        <ele>117.2</ele>
        <time>2024-04-07T11:46:19Z</time>
      </trkpt>
      <trkpt lat="49.15639" lon="-0.28511">
        <ele>117.2</ele>
        <time>2024-04-07T11:46:20Z</time>
      </trkpt>
      <trkpt lat="49.15655" lon="-0.28506">
        <ele>117.2</ele>
        <time>2024-04-07T11:46:21Z</time>
      </trkpt>
      <trkpt lat="49.15659" lon="-0.28505">
        <ele>117.2</ele>
        <time>2024-04-07T11:46:22Z</time>
      </trkpt>
      <trkpt lat="49.15663" lon="-0.28503">
        <ele>117.2</ele>
        <time>2024-04-07T11:46:23Z</time>
      </trkpt>
      <trkpt lat="49.1567" lon="-0.28501">
        <ele>117.4</ele>
        <time>2024-04-07T11:46:24Z</time>
      </trkpt>
      <trkpt lat="49.15675" lon="-0.28498">
        <ele>117.4</ele>
        <time>2024-04-07T11:46:25Z</time>
      </trkpt>
      <trkpt lat="49.15683" lon="-0.28493">
        <ele>117.4</ele>
        <time>2024-04-07T11:46:26Z</time>
      </trkpt>
      <trkpt lat="49.15683" lon="-0.28493">
        <ele>117.6</ele>
        <time>2024-04-07T11:46:27Z</time>
      </trkpt>
      <trkpt lat="49.15685" lon="-0.28489">
        <ele>117.8</ele>
        <time>2024-04-07T11:46:28Z</time>
      </trkpt>
      <trkpt lat="49.15687" lon="-0.28484">
        <ele>117.8</ele>
        <time>2024-04-07T11:46:29Z</time>
      </trkpt>
      <trkpt lat="49.15689" lon="-0.28479">
        <ele>117.8</ele>
        <time>2024-04-07T11:46:30Z</time>
      </trkpt>
      <trkpt lat="49.15693" lon="-0.28473">
        <ele>117.8</ele>
        <time>2024-04-07T11:46:31Z</time>
      </trkpt>
      <trkpt lat="49.15697" lon="-0.28467">
        <ele>117.8</ele>
        <time>2024-04-07T11:46:32Z</time>
      </trkpt>
      <trkpt lat="49.15708" lon="-0.2846">
        <ele>117.6</ele>
        <time>2024-04-07T11:46:33Z</time>
      </trkpt>
      <trkpt lat="49.15711" lon="-0.28459">
        <ele>117.6</ele>
        <time>2024-04-07T11:46:34Z</time>
      </trkpt>
      <trkpt lat="49.15714" lon="-0.28459">
        <ele>117.4</ele>
        <time>2024-04-07T11:46:35Z</time>
      </trkpt>
      <trkpt lat="49.1572" lon="-0.28457">
        <ele>117.4</ele>
        <time>2024-04-07T11:46:36Z</time>
      </trkpt>
      <trkpt lat="49.15732" lon="-0.28452">
        <ele>117.2</ele>
        <time>2024-04-07T11:46:37Z</time>
      </trkpt>
      <trkpt lat="49.15737" lon="-0.28449">
        <ele>117.2</ele>
        <time>2024-04-07T11:46:38Z</time>
      </trkpt>
      <trkpt lat="49.15748" lon="-0.28441">
        <ele>117.2</ele>
        <time>2024-04-07T11:46:39Z</time>
      </trkpt>
      <trkpt lat="49.15755" lon="-0.28435">
        <ele>117</ele>
        <time>2024-04-07T11:46:40Z</time>
      </trkpt>
      <trkpt lat="49.15762" lon="-0.28429">
        <ele>116.6</ele>
        <time>2024-04-07T11:46:41Z</time>
      </trkpt>
      <trkpt lat="49.15769" lon="-0.28423">
        <ele>116</ele>
        <time>2024-04-07T11:46:42Z</time>
      </trkpt>
      <trkpt lat="49.15769" lon="-0.28423">
        <ele>115.4</ele>
        <time>2024-04-07T11:46:43Z</time>
      </trkpt>
      <trkpt lat="49.15783" lon="-0.28412">
        <ele>115</ele>
        <time>2024-04-07T11:46:44Z</time>
      </trkpt>
      <trkpt lat="49.1579" lon="-0.28408">
        <ele>115</ele>
        <time>2024-04-07T11:46:45Z</time>
      </trkpt>
      <trkpt lat="49.15797" lon="-0.28405">
        <ele>114.8</ele>
        <time>2024-04-07T11:46:46Z</time>
      </trkpt>
      <trkpt lat="49.15804" lon="-0.28402">
        <ele>115</ele>
        <time>2024-04-07T11:46:47Z</time>
      </trkpt>
      <trkpt lat="49.15811" lon="-0.284">
        <ele>115.2</ele>
        <time>2024-04-07T11:46:48Z</time>
      </trkpt>
      <trkpt lat="49.15819" lon="-0.28397">
        <ele>115.4</ele>
        <time>2024-04-07T11:46:49Z</time>
      </trkpt>
      <trkpt lat="49.15826" lon="-0.28395">
        <ele>115.6</ele>
        <time>2024-04-07T11:46:50Z</time>
      </trkpt>
      <trkpt lat="49.15834" lon="-0.28393">
        <ele>115.8</ele>
        <time>2024-04-07T11:46:51Z</time>
      </trkpt>
      <trkpt lat="49.15841" lon="-0.28391">
        <ele>115.8</ele>
        <time>2024-04-07T11:46:52Z</time>
      </trkpt>
      <trkpt lat="49.15849" lon="-0.2839">
        <ele>115.6</ele>
        <time>2024-04-07T11:46:53Z</time>
      </trkpt>
      <trkpt lat="49.15856" lon="-0.28388">
        <ele>115.6</ele>
        <time>2024-04-07T11:46:54Z</time>
      </trkpt>
      <trkpt lat="49.15864" lon="-0.28386">
        <ele>115.6</ele>
        <time>2024-04-07T11:46:55Z</time>
      </trkpt>
      <trkpt lat="49.15872" lon="-0.28384">
        <ele>115.6</ele>
        <time>2024-04-07T11:46:56Z</time>
      </trkpt>
      <trkpt lat="49.1588" lon="-0.28382">
        <ele>115.6</ele>
        <time>2024-04-07T11:46:57Z</time>
      </trkpt>
      <trkpt lat="49.15888" lon="-0.2838">
        <ele>115.4</ele>
        <time>2024-04-07T11:46:58Z</time>
      </trkpt>
      <trkpt lat="49.15896" lon="-0.28379">
        <ele>115.4</ele>
        <time>2024-04-07T11:46:59Z</time>
      </trkpt>
      <trkpt lat="49.15904" lon="-0.28377">
        <ele>115.6</ele>
        <time>2024-04-07T11:47:00Z</time>
      </trkpt>
      <trkpt lat="49.15913" lon="-0.28375">
        <ele>115.6</ele>
        <time>2024-04-07T11:47:01Z</time>
      </trkpt>
      <trkpt lat="49.15921" lon="-0.28373">
        <ele>115.6</ele>
        <time>2024-04-07T11:47:02Z</time>
      </trkpt>
      <trkpt lat="49.15929" lon="-0.28371">
        <ele>115.6</ele>
        <time>2024-04-07T11:47:03Z</time>
      </trkpt>
      <trkpt lat="49.15937" lon="-0.2837">
        <ele>115.6</ele>
        <time>2024-04-07T11:47:04Z</time>
      </trkpt>
      <trkpt lat="49.15945" lon="-0.28368">
        <ele>115.6</ele>
        <time>2024-04-07T11:47:05Z</time>
      </trkpt>
      <trkpt lat="49.15954" lon="-0.28367">
        <ele>115.4</ele>
        <time>2024-04-07T11:47:06Z</time>
      </trkpt>
      <trkpt lat="49.15962" lon="-0.28365">
        <ele>115.2</ele>
        <time>2024-04-07T11:47:07Z</time>
      </trkpt>
      <trkpt lat="49.15966" lon="-0.28364">
        <ele>115.2</ele>
        <time>2024-04-07T11:47:08Z</time>
      </trkpt>
      <trkpt lat="49.1597" lon="-0.28363">
        <ele>115</ele>
        <time>2024-04-07T11:47:09Z</time>
      </trkpt>
      <trkpt lat="49.15978" lon="-0.28361">
        <ele>114.8</ele>
        <time>2024-04-07T11:47:10Z</time>
      </trkpt>
      <trkpt lat="49.15986" lon="-0.28359">
        <ele>114.8</ele>
        <time>2024-04-07T11:47:11Z</time>
      </trkpt>
      <trkpt lat="49.15994" lon="-0.28357">
        <ele>115</ele>
        <time>2024-04-07T11:47:12Z</time>
      </trkpt>
      <trkpt lat="49.16011" lon="-0.28353">
        <ele>115</ele>
        <time>2024-04-07T11:47:13Z</time>
      </trkpt>
      <trkpt lat="49.16019" lon="-0.28352">
        <ele>115</ele>
        <time>2024-04-07T11:47:14Z</time>
      </trkpt>
      <trkpt lat="49.16019" lon="-0.28352">
        <ele>115</ele>
        <time>2024-04-07T11:47:15Z</time>
      </trkpt>
      <trkpt lat="49.16031" lon="-0.28349">
        <ele>115.2</ele>
        <time>2024-04-07T11:47:16Z</time>
      </trkpt>
      <trkpt lat="49.16035" lon="-0.28348">
        <ele>115.2</ele>
        <time>2024-04-07T11:47:17Z</time>
      </trkpt>
      <trkpt lat="49.16051" lon="-0.28345">
        <ele>115.2</ele>
        <time>2024-04-07T11:47:18Z</time>
      </trkpt>
      <trkpt lat="49.1606" lon="-0.28343">
        <ele>115.2</ele>
        <time>2024-04-07T11:47:19Z</time>
      </trkpt>
      <trkpt lat="49.16068" lon="-0.28341">
        <ele>115.2</ele>
        <time>2024-04-07T11:47:20Z</time>
      </trkpt>
      <trkpt lat="49.16076" lon="-0.28339">
        <ele>115.2</ele>
        <time>2024-04-07T11:47:21Z</time>
      </trkpt>
      <trkpt lat="49.16082" lon="-0.28338">
        <ele>115.4</ele>
        <time>2024-04-07T11:47:22Z</time>
      </trkpt>
      <trkpt lat="49.16088" lon="-0.28337">
        <ele>115.4</ele>
        <time>2024-04-07T11:47:23Z</time>
      </trkpt>
      <trkpt lat="49.16101" lon="-0.28334">
        <ele>115.4</ele>
        <time>2024-04-07T11:47:24Z</time>
      </trkpt>
      <trkpt lat="49.16109" lon="-0.28333">
        <ele>115.4</ele>
        <time>2024-04-07T11:47:25Z</time>
      </trkpt>
      <trkpt lat="49.16117" lon="-0.28331">
        <ele>115.6</ele>
        <time>2024-04-07T11:47:26Z</time>
      </trkpt>
      <trkpt lat="49.16125" lon="-0.28329">
        <ele>115.8</ele>
        <time>2024-04-07T11:47:27Z</time>
      </trkpt>
      <trkpt lat="49.16133" lon="-0.28327">
        <ele>115.8</ele>
        <time>2024-04-07T11:47:28Z</time>
      </trkpt>
      <trkpt lat="49.16139" lon="-0.28326">
        <ele>116</ele>
        <time>2024-04-07T11:47:29Z</time>
      </trkpt>
      <trkpt lat="49.16146" lon="-0.28325">
        <ele>116.2</ele>
        <time>2024-04-07T11:47:30Z</time>
      </trkpt>
      <trkpt lat="49.16158" lon="-0.28323">
        <ele>116.2</ele>
        <time>2024-04-07T11:47:31Z</time>
      </trkpt>
      <trkpt lat="49.16166" lon="-0.28322">
        <ele>116.2</ele>
        <time>2024-04-07T11:47:32Z</time>
      </trkpt>
      <trkpt lat="49.16175" lon="-0.28321">
        <ele>116.2</ele>
        <time>2024-04-07T11:47:33Z</time>
      </trkpt>
      <trkpt lat="49.16183" lon="-0.2832">
        <ele>116</ele>
        <time>2024-04-07T11:47:34Z</time>
      </trkpt>
      <trkpt lat="49.16191" lon="-0.28319">
        <ele>116</ele>
        <time>2024-04-07T11:47:35Z</time>
      </trkpt>
      <trkpt lat="49.162" lon="-0.28318">
        <ele>116</ele>
        <time>2024-04-07T11:47:36Z</time>
      </trkpt>
      <trkpt lat="49.16208" lon="-0.28317">
        <ele>116</ele>
        <time>2024-04-07T11:47:37Z</time>
      </trkpt>
      <trkpt lat="49.16217" lon="-0.28316">
        <ele>115.8</ele>
        <time>2024-04-07T11:47:38Z</time>
      </trkpt>
      <trkpt lat="49.16225" lon="-0.28315">
        <ele>115.8</ele>
        <time>2024-04-07T11:47:39Z</time>
      </trkpt>
      <trkpt lat="49.16234" lon="-0.28314">
        <ele>115.8</ele>
        <time>2024-04-07T11:47:40Z</time>
      </trkpt>
      <trkpt lat="49.16243" lon="-0.28314">
        <ele>115.6</ele>
        <time>2024-04-07T11:47:41Z</time>
      </trkpt>
      <trkpt lat="49.16251" lon="-0.28313">
        <ele>115.6</ele>
        <time>2024-04-07T11:47:42Z</time>
      </trkpt>
      <trkpt lat="49.1626" lon="-0.28312">
        <ele>115.4</ele>
        <time>2024-04-07T11:47:43Z</time>
      </trkpt>
      <trkpt lat="49.16268" lon="-0.28311">
        <ele>115.2</ele>
        <time>2024-04-07T11:47:44Z</time>
      </trkpt>
      <trkpt lat="49.16277" lon="-0.2831">
        <ele>115</ele>
        <time>2024-04-07T11:47:45Z</time>
      </trkpt>
      <trkpt lat="49.16285" lon="-0.2831">
        <ele>114.8</ele>
        <time>2024-04-07T11:47:46Z</time>
      </trkpt>
      <trkpt lat="49.16294" lon="-0.28309">
        <ele>114.8</ele>
        <time>2024-04-07T11:47:47Z</time>
      </trkpt>
      <trkpt lat="49.16302" lon="-0.28308">
        <ele>114.6</ele>
        <time>2024-04-07T11:47:48Z</time>
      </trkpt>
      <trkpt lat="49.16311" lon="-0.28307">
        <ele>114.6</ele>
        <time>2024-04-07T11:47:49Z</time>
      </trkpt>
      <trkpt lat="49.16319" lon="-0.28306">
        <ele>114.6</ele>
        <time>2024-04-07T11:47:50Z</time>
      </trkpt>
      <trkpt lat="49.16325" lon="-0.28305">
        <ele>114.6</ele>
        <time>2024-04-07T11:47:51Z</time>
      </trkpt>
      <trkpt lat="49.16332" lon="-0.28305">
        <ele>114.6</ele>
        <time>2024-04-07T11:47:52Z</time>
      </trkpt>
      <trkpt lat="49.16344" lon="-0.28303">
        <ele>114.6</ele>
        <time>2024-04-07T11:47:53Z</time>
      </trkpt>
      <trkpt lat="49.16353" lon="-0.28302">
        <ele>114.8</ele>
        <time>2024-04-07T11:47:54Z</time>
      </trkpt>
      <trkpt lat="49.16361" lon="-0.28302">
        <ele>114.8</ele>
        <time>2024-04-07T11:47:55Z</time>
      </trkpt>
      <trkpt lat="49.1637" lon="-0.28301">
        <ele>114.8</ele>
        <time>2024-04-07T11:47:56Z</time>
      </trkpt>
      <trkpt lat="49.16378" lon="-0.283">
        <ele>114.8</ele>
        <time>2024-04-07T11:47:57Z</time>
      </trkpt>
      <trkpt lat="49.16387" lon="-0.28299">
        <ele>114.6</ele>
        <time>2024-04-07T11:47:58Z</time>
      </trkpt>
      <trkpt lat="49.16395" lon="-0.28298">
        <ele>114.6</ele>
        <time>2024-04-07T11:47:59Z</time>
      </trkpt>
      <trkpt lat="49.16404" lon="-0.28297">
        <ele>114.4</ele>
        <time>2024-04-07T11:48:00Z</time>
      </trkpt>
      <trkpt lat="49.1641" lon="-0.28297">
        <ele>114.2</ele>
        <time>2024-04-07T11:48:01Z</time>
      </trkpt>
      <trkpt lat="49.16417" lon="-0.28296">
        <ele>114.2</ele>
        <time>2024-04-07T11:48:02Z</time>
      </trkpt>
      <trkpt lat="49.1643" lon="-0.28295">
        <ele>114</ele>
        <time>2024-04-07T11:48:03Z</time>
      </trkpt>
      <trkpt lat="49.16439" lon="-0.28294">
        <ele>114</ele>
        <time>2024-04-07T11:48:04Z</time>
      </trkpt>
      <trkpt lat="49.16439" lon="-0.28294">
        <ele>113.8</ele>
        <time>2024-04-07T11:48:05Z</time>
      </trkpt>
      <trkpt lat="49.16456" lon="-0.28293">
        <ele>113.8</ele>
        <time>2024-04-07T11:48:06Z</time>
      </trkpt>
      <trkpt lat="49.16465" lon="-0.28292">
        <ele>113.8</ele>
        <time>2024-04-07T11:48:07Z</time>
      </trkpt>
      <trkpt lat="49.16474" lon="-0.28291">
        <ele>113.6</ele>
        <time>2024-04-07T11:48:08Z</time>
      </trkpt>
      <trkpt lat="49.16482" lon="-0.28291">
        <ele>113.6</ele>
        <time>2024-04-07T11:48:09Z</time>
      </trkpt>
      <trkpt lat="49.16491" lon="-0.2829">
        <ele>113.4</ele>
        <time>2024-04-07T11:48:10Z</time>
      </trkpt>
      <trkpt lat="49.165" lon="-0.28289">
        <ele>113.4</ele>
        <time>2024-04-07T11:48:11Z</time>
      </trkpt>
      <trkpt lat="49.16509" lon="-0.28288">
        <ele>113.2</ele>
        <time>2024-04-07T11:48:12Z</time>
      </trkpt>
      <trkpt lat="49.16518" lon="-0.28287">
        <ele>113.2</ele>
        <time>2024-04-07T11:48:13Z</time>
      </trkpt>
      <trkpt lat="49.16527" lon="-0.28287">
        <ele>113.2</ele>
        <time>2024-04-07T11:48:14Z</time>
      </trkpt>
      <trkpt lat="49.16536" lon="-0.28286">
        <ele>113.2</ele>
        <time>2024-04-07T11:48:15Z</time>
      </trkpt>
      <trkpt lat="49.16545" lon="-0.28285">
        <ele>113.4</ele>
        <time>2024-04-07T11:48:16Z</time>
      </trkpt>
      <trkpt lat="49.16549" lon="-0.28284">
        <ele>113.4</ele>
        <time>2024-04-07T11:48:17Z</time>
      </trkpt>
      <trkpt lat="49.16553" lon="-0.28284">
        <ele>113.6</ele>
        <time>2024-04-07T11:48:18Z</time>
      </trkpt>
      <trkpt lat="49.16568" lon="-0.28283">
        <ele>113.6</ele>
        <time>2024-04-07T11:48:19Z</time>
      </trkpt>
      <trkpt lat="49.16574" lon="-0.28283">
        <ele>113.8</ele>
        <time>2024-04-07T11:48:20Z</time>
      </trkpt>
      <trkpt lat="49.16587" lon="-0.28282">
        <ele>113.8</ele>
        <time>2024-04-07T11:48:21Z</time>
      </trkpt>
      <trkpt lat="49.16595" lon="-0.28282">
        <ele>113.8</ele>
        <time>2024-04-07T11:48:22Z</time>
      </trkpt>
      <trkpt lat="49.16599" lon="-0.28282">
        <ele>114</ele>
        <time>2024-04-07T11:48:23Z</time>
      </trkpt>
      <trkpt lat="49.16603" lon="-0.28282">
        <ele>114.2</ele>
        <time>2024-04-07T11:48:24Z</time>
      </trkpt>
      <trkpt lat="49.16611" lon="-0.28282">
        <ele>114.4</ele>
        <time>2024-04-07T11:48:25Z</time>
      </trkpt>
      <trkpt lat="49.16619" lon="-0.28282">
        <ele>114.6</ele>
        <time>2024-04-07T11:48:26Z</time>
      </trkpt>
      <trkpt lat="49.16626" lon="-0.28282">
        <ele>115</ele>
        <time>2024-04-07T11:48:27Z</time>
      </trkpt>
      <trkpt lat="49.16634" lon="-0.28283">
        <ele>115.2</ele>
        <time>2024-04-07T11:48:28Z</time>
      </trkpt>
      <trkpt lat="49.16642" lon="-0.28283">
        <ele>115.6</ele>
        <time>2024-04-07T11:48:29Z</time>
      </trkpt>
      <trkpt lat="49.16649" lon="-0.28284">
        <ele>116</ele>
        <time>2024-04-07T11:48:30Z</time>
      </trkpt>
      <trkpt lat="49.16657" lon="-0.28284">
        <ele>116.4</ele>
        <time>2024-04-07T11:48:31Z</time>
      </trkpt>
      <trkpt lat="49.16673" lon="-0.28285">
        <ele>116.6</ele>
        <time>2024-04-07T11:48:32Z</time>
      </trkpt>
      <trkpt lat="49.16681" lon="-0.28286">
        <ele>116.8</ele>
        <time>2024-04-07T11:48:33Z</time>
      </trkpt>
      <trkpt lat="49.16689" lon="-0.28286">
        <ele>117.2</ele>
        <time>2024-04-07T11:48:34Z</time>
      </trkpt>
      <trkpt lat="49.16693" lon="-0.28286">
        <ele>117.4</ele>
        <time>2024-04-07T11:48:35Z</time>
      </trkpt>
      <trkpt lat="49.16697" lon="-0.28287">
        <ele>117.6</ele>
        <time>2024-04-07T11:48:36Z</time>
      </trkpt>
      <trkpt lat="49.16712" lon="-0.28288">
        <ele>117.8</ele>
        <time>2024-04-07T11:48:37Z</time>
      </trkpt>
      <trkpt lat="49.16721" lon="-0.28288">
        <ele>117.8</ele>
        <time>2024-04-07T11:48:38Z</time>
      </trkpt>
      <trkpt lat="49.16727" lon="-0.28289">
        <ele>117.8</ele>
        <time>2024-04-07T11:48:39Z</time>
      </trkpt>
      <trkpt lat="49.16733" lon="-0.28289">
        <ele>117.8</ele>
        <time>2024-04-07T11:48:40Z</time>
      </trkpt>
      <trkpt lat="49.16746" lon="-0.2829">
        <ele>117.8</ele>
        <time>2024-04-07T11:48:41Z</time>
      </trkpt>
      <trkpt lat="49.16754" lon="-0.28291">
        <ele>117.8</ele>
        <time>2024-04-07T11:48:42Z</time>
      </trkpt>
      <trkpt lat="49.16761" lon="-0.28291">
        <ele>117.8</ele>
        <time>2024-04-07T11:48:43Z</time>
      </trkpt>
      <trkpt lat="49.16767" lon="-0.28292">
        <ele>117.8</ele>
        <time>2024-04-07T11:48:44Z</time>
      </trkpt>
      <trkpt lat="49.1678" lon="-0.28293">
        <ele>117.8</ele>
        <time>2024-04-07T11:48:45Z</time>
      </trkpt>
      <trkpt lat="49.16789" lon="-0.28293">
        <ele>117.6</ele>
        <time>2024-04-07T11:48:46Z</time>
      </trkpt>
      <trkpt lat="49.16789" lon="-0.28293">
        <ele>117.4</ele>
        <time>2024-04-07T11:48:47Z</time>
      </trkpt>
      <trkpt lat="49.16808" lon="-0.28293">
        <ele>117</ele>
        <time>2024-04-07T11:48:48Z</time>
      </trkpt>
      <trkpt lat="49.16817" lon="-0.28294">
        <ele>116.4</ele>
        <time>2024-04-07T11:48:49Z</time>
      </trkpt>
      <trkpt lat="49.16826" lon="-0.28295">
        <ele>116</ele>
        <time>2024-04-07T11:48:50Z</time>
      </trkpt>
      <trkpt lat="49.16835" lon="-0.28295">
        <ele>115.6</ele>
        <time>2024-04-07T11:48:51Z</time>
      </trkpt>
      <trkpt lat="49.16835" lon="-0.28295">
        <ele>115.2</ele>
        <time>2024-04-07T11:48:52Z</time>
      </trkpt>
      <trkpt lat="49.16851" lon="-0.28297">
        <ele>115.2</ele>
        <time>2024-04-07T11:48:53Z</time>
      </trkpt>
      <trkpt lat="49.16858" lon="-0.28297">
        <ele>115</ele>
        <time>2024-04-07T11:48:54Z</time>
      </trkpt>
      <trkpt lat="49.16871" lon="-0.28298">
        <ele>115</ele>
        <time>2024-04-07T11:48:55Z</time>
      </trkpt>
      <trkpt lat="49.1688" lon="-0.28298">
        <ele>115.2</ele>
        <time>2024-04-07T11:48:56Z</time>
      </trkpt>
      <trkpt lat="49.16889" lon="-0.28299">
        <ele>115.2</ele>
        <time>2024-04-07T11:48:57Z</time>
      </trkpt>
      <trkpt lat="49.16898" lon="-0.283">
        <ele>115.2</ele>
        <time>2024-04-07T11:48:58Z</time>
      </trkpt>
      <trkpt lat="49.16907" lon="-0.283">
        <ele>115.2</ele>
        <time>2024-04-07T11:48:59Z</time>
      </trkpt>
      <trkpt lat="49.16916" lon="-0.28301">
        <ele>115</ele>
        <time>2024-04-07T11:49:00Z</time>
      </trkpt>
      <trkpt lat="49.16925" lon="-0.28302">
        <ele>114.6</ele>
        <time>2024-04-07T11:49:01Z</time>
      </trkpt>
      <trkpt lat="49.16933" lon="-0.28303">
        <ele>114.4</ele>
        <time>2024-04-07T11:49:02Z</time>
      </trkpt>
      <trkpt lat="49.16933" lon="-0.28303">
        <ele>114.2</ele>
        <time>2024-04-07T11:49:03Z</time>
      </trkpt>
      <trkpt lat="49.16951" lon="-0.28305">
        <ele>114</ele>
        <time>2024-04-07T11:49:04Z</time>
      </trkpt>
      <trkpt lat="49.16951" lon="-0.28305">
        <ele>114</ele>
        <time>2024-04-07T11:49:05Z</time>
      </trkpt>
      <trkpt lat="49.16966" lon="-0.28307">
        <ele>114</ele>
        <time>2024-04-07T11:49:06Z</time>
      </trkpt>
      <trkpt lat="49.16972" lon="-0.28307">
        <ele>113.8</ele>
        <time>2024-04-07T11:49:07Z</time>
      </trkpt>
      <trkpt lat="49.16985" lon="-0.28309">
        <ele>113.8</ele>
        <time>2024-04-07T11:49:08Z</time>
      </trkpt>
      <trkpt lat="49.16994" lon="-0.2831">
        <ele>113.8</ele>
        <time>2024-04-07T11:49:09Z</time>
      </trkpt>
      <trkpt lat="49.17002" lon="-0.28312">
        <ele>113.6</ele>
        <time>2024-04-07T11:49:10Z</time>
      </trkpt>
      <trkpt lat="49.17011" lon="-0.28312">
        <ele>113.6</ele>
        <time>2024-04-07T11:49:11Z</time>
      </trkpt>
      <trkpt lat="49.17017" lon="-0.28312">
        <ele>113.4</ele>
        <time>2024-04-07T11:49:12Z</time>
      </trkpt>
      <trkpt lat="49.17023" lon="-0.28312">
        <ele>113.4</ele>
        <time>2024-04-07T11:49:13Z</time>
      </trkpt>
      <trkpt lat="49.17036" lon="-0.28312">
        <ele>113.4</ele>
        <time>2024-04-07T11:49:14Z</time>
      </trkpt>
      <trkpt lat="49.17044" lon="-0.28311">
        <ele>113.4</ele>
        <time>2024-04-07T11:49:15Z</time>
      </trkpt>
      <trkpt lat="49.17053" lon="-0.28309">
        <ele>113.4</ele>
        <time>2024-04-07T11:49:16Z</time>
      </trkpt>
      <trkpt lat="49.17061" lon="-0.28307">
        <ele>113.6</ele>
        <time>2024-04-07T11:49:17Z</time>
      </trkpt>
      <trkpt lat="49.17069" lon="-0.28306">
        <ele>113.6</ele>
        <time>2024-04-07T11:49:18Z</time>
      </trkpt>
      <trkpt lat="49.17077" lon="-0.28305">
        <ele>113.6</ele>
        <time>2024-04-07T11:49:19Z</time>
      </trkpt>
      <trkpt lat="49.17077" lon="-0.28305">
        <ele>113.6</ele>
        <time>2024-04-07T11:49:20Z</time>
      </trkpt>
      <trkpt lat="49.17094" lon="-0.28304">
        <ele>113.6</ele>
        <time>2024-04-07T11:49:21Z</time>
      </trkpt>
      <trkpt lat="49.171" lon="-0.28302">
        <ele>113.6</ele>
        <time>2024-04-07T11:49:22Z</time>
      </trkpt>
      <trkpt lat="49.17106" lon="-0.283">
        <ele>113.8</ele>
        <time>2024-04-07T11:49:23Z</time>
      </trkpt>
      <trkpt lat="49.17119" lon="-0.28296">
        <ele>113.8</ele>
        <time>2024-04-07T11:49:24Z</time>
      </trkpt>
      <trkpt lat="49.17127" lon="-0.28291">
        <ele>114.2</ele>
        <time>2024-04-07T11:49:25Z</time>
      </trkpt>
      <trkpt lat="49.17136" lon="-0.28285">
        <ele>114.2</ele>
        <time>2024-04-07T11:49:26Z</time>
      </trkpt>
      <trkpt lat="49.17145" lon="-0.28279">
        <ele>114.4</ele>
        <time>2024-04-07T11:49:27Z</time>
      </trkpt>
      <trkpt lat="49.17154" lon="-0.28273">
        <ele>114.4</ele>
        <time>2024-04-07T11:49:28Z</time>
      </trkpt>
      <trkpt lat="49.17163" lon="-0.28267">
        <ele>114.4</ele>
        <time>2024-04-07T11:49:29Z</time>
      </trkpt>
      <trkpt lat="49.17171" lon="-0.28261">
        <ele>114.4</ele>
        <time>2024-04-07T11:49:30Z</time>
      </trkpt>
      <trkpt lat="49.1718" lon="-0.28255">
        <ele>114.2</ele>
        <time>2024-04-07T11:49:31Z</time>
      </trkpt>
      <trkpt lat="49.17187" lon="-0.28249">
        <ele>114.2</ele>
        <time>2024-04-07T11:49:32Z</time>
      </trkpt>
      <trkpt lat="49.17195" lon="-0.28242">
        <ele>114.2</ele>
        <time>2024-04-07T11:49:33Z</time>
      </trkpt>
      <trkpt lat="49.17199" lon="-0.28239">
        <ele>114</ele>
        <time>2024-04-07T11:49:34Z</time>
      </trkpt>
      <trkpt lat="49.17203" lon="-0.28235">
        <ele>114</ele>
        <time>2024-04-07T11:49:35Z</time>
      </trkpt>
      <trkpt lat="49.17214" lon="-0.28224">
        <ele>113.8</ele>
        <time>2024-04-07T11:49:36Z</time>
      </trkpt>
      <trkpt lat="49.17217" lon="-0.2822">
        <ele>113.6</ele>
        <time>2024-04-07T11:49:37Z</time>
      </trkpt>
      <trkpt lat="49.17224" lon="-0.28213">
        <ele>113.6</ele>
        <time>2024-04-07T11:49:38Z</time>
      </trkpt>
      <trkpt lat="49.17231" lon="-0.28207">
        <ele>113.4</ele>
        <time>2024-04-07T11:49:39Z</time>
      </trkpt>
      <trkpt lat="49.17239" lon="-0.28204">
        <ele>113.2</ele>
        <time>2024-04-07T11:49:40Z</time>
      </trkpt>
      <trkpt lat="49.17247" lon="-0.28202">
        <ele>113.2</ele>
        <time>2024-04-07T11:49:41Z</time>
      </trkpt>
      <trkpt lat="49.17255" lon="-0.282">
        <ele>113.2</ele>
        <time>2024-04-07T11:49:42Z</time>
      </trkpt>
      <trkpt lat="49.17271" lon="-0.28195">
        <ele>113.2</ele>
        <time>2024-04-07T11:49:43Z</time>
      </trkpt>
      <trkpt lat="49.17277" lon="-0.28192">
        <ele>113.2</ele>
        <time>2024-04-07T11:49:44Z</time>
      </trkpt>
      <trkpt lat="49.17283" lon="-0.28189">
        <ele>113.2</ele>
        <time>2024-04-07T11:49:45Z</time>
      </trkpt>
      <trkpt lat="49.17295" lon="-0.28183">
        <ele>113.2</ele>
        <time>2024-04-07T11:49:46Z</time>
      </trkpt>
      <trkpt lat="49.17303" lon="-0.28178">
        <ele>113.4</ele>
        <time>2024-04-07T11:49:47Z</time>
      </trkpt>
      <trkpt lat="49.17311" lon="-0.28174">
        <ele>113.4</ele>
        <time>2024-04-07T11:49:48Z</time>
      </trkpt>
      <trkpt lat="49.17318" lon="-0.2817">
        <ele>113.4</ele>
        <time>2024-04-07T11:49:49Z</time>
      </trkpt>
      <trkpt lat="49.17326" lon="-0.28167">
        <ele>113.4</ele>
        <time>2024-04-07T11:49:50Z</time>
      </trkpt>
      <trkpt lat="49.17334" lon="-0.28164">
        <ele>113.4</ele>
        <time>2024-04-07T11:49:51Z</time>
      </trkpt>
      <trkpt lat="49.17342" lon="-0.28161">
        <ele>113.4</ele>
        <time>2024-04-07T11:49:52Z</time>
      </trkpt>
      <trkpt lat="49.1735" lon="-0.28157">
        <ele>113.2</ele>
        <time>2024-04-07T11:49:53Z</time>
      </trkpt>
      <trkpt lat="49.17358" lon="-0.28154">
        <ele>113.2</ele>
        <time>2024-04-07T11:49:54Z</time>
      </trkpt>
      <trkpt lat="49.17366" lon="-0.28151">
        <ele>113</ele>
        <time>2024-04-07T11:49:55Z</time>
      </trkpt>
      <trkpt lat="49.17374" lon="-0.28149">
        <ele>113</ele>
        <time>2024-04-07T11:49:56Z</time>
      </trkpt>
      <trkpt lat="49.17383" lon="-0.28146">
        <ele>112.8</ele>
        <time>2024-04-07T11:49:57Z</time>
      </trkpt>
      <trkpt lat="49.17389" lon="-0.28144">
        <ele>112.8</ele>
        <time>2024-04-07T11:49:58Z</time>
      </trkpt>
      <trkpt lat="49.17395" lon="-0.28143">
        <ele>112.6</ele>
        <time>2024-04-07T11:49:59Z</time>
      </trkpt>
      <trkpt lat="49.17407" lon="-0.2814">
        <ele>112.6</ele>
        <time>2024-04-07T11:50:00Z</time>
      </trkpt>
      <trkpt lat="49.17415" lon="-0.28137">
        <ele>112.4</ele>
        <time>2024-04-07T11:50:01Z</time>
      </trkpt>
      <trkpt lat="49.17423" lon="-0.28134">
        <ele>112.4</ele>
        <time>2024-04-07T11:50:02Z</time>
      </trkpt>
      <trkpt lat="49.1743" lon="-0.28132">
        <ele>112.2</ele>
        <time>2024-04-07T11:50:03Z</time>
      </trkpt>
      <trkpt lat="49.17436" lon="-0.2813">
        <ele>112.2</ele>
        <time>2024-04-07T11:50:04Z</time>
      </trkpt>
      <trkpt lat="49.17442" lon="-0.28129">
        <ele>112.2</ele>
        <time>2024-04-07T11:50:05Z</time>
      </trkpt>
      <trkpt lat="49.17454" lon="-0.28125">
        <ele>112</ele>
        <time>2024-04-07T11:50:06Z</time>
      </trkpt>
      <trkpt lat="49.17461" lon="-0.28123">
        <ele>112</ele>
        <time>2024-04-07T11:50:07Z</time>
      </trkpt>
      <trkpt lat="49.17468" lon="-0.28122">
        <ele>111.8</ele>
        <time>2024-04-07T11:50:08Z</time>
      </trkpt>
      <trkpt lat="49.17474" lon="-0.2812">
        <ele>111.8</ele>
        <time>2024-04-07T11:50:09Z</time>
      </trkpt>
      <trkpt lat="49.17474" lon="-0.2812">
        <ele>111.8</ele>
        <time>2024-04-07T11:50:10Z</time>
      </trkpt>
      <trkpt lat="49.17482" lon="-0.28119">
        <ele>111.8</ele>
        <time>2024-04-07T11:50:11Z</time>
      </trkpt>
      <trkpt lat="49.17485" lon="-0.28119">
        <ele>111.8</ele>
        <time>2024-04-07T11:50:12Z</time>
      </trkpt>
      <trkpt lat="49.17494" lon="-0.28119">
        <ele>112</ele>
        <time>2024-04-07T11:50:13Z</time>
      </trkpt>
      <trkpt lat="49.17498" lon="-0.28119">
        <ele>112.4</ele>
        <time>2024-04-07T11:50:14Z</time>
      </trkpt>
      <trkpt lat="49.17501" lon="-0.28118">
        <ele>112.4</ele>
        <time>2024-04-07T11:50:15Z</time>
      </trkpt>
      <trkpt lat="49.17503" lon="-0.28118">
        <ele>112.6</ele>
        <time>2024-04-07T11:50:16Z</time>
      </trkpt>
      <trkpt lat="49.17509" lon="-0.28116">
        <ele>112.6</ele>
        <time>2024-04-07T11:50:17Z</time>
      </trkpt>
      <trkpt lat="49.17519" lon="-0.2811">
        <ele>112.4</ele>
        <time>2024-04-07T11:50:18Z</time>
      </trkpt>
      <trkpt lat="49.17525" lon="-0.28107">
        <ele>112</ele>
        <time>2024-04-07T11:50:19Z</time>
      </trkpt>
      <trkpt lat="49.17531" lon="-0.28104">
        <ele>112</ele>
        <time>2024-04-07T11:50:20Z</time>
      </trkpt>
      <trkpt lat="49.17536" lon="-0.28101">
        <ele>111.8</ele>
        <time>2024-04-07T11:50:21Z</time>
      </trkpt>
      <trkpt lat="49.17542" lon="-0.28098">
        <ele>111.8</ele>
        <time>2024-04-07T11:50:22Z</time>
      </trkpt>
      <trkpt lat="49.17548" lon="-0.28094">
        <ele>112</ele>
        <time>2024-04-07T11:50:23Z</time>
      </trkpt>
      <trkpt lat="49.17554" lon="-0.2809">
        <ele>112</ele>
        <time>2024-04-07T11:50:24Z</time>
      </trkpt>
      <trkpt lat="49.17558" lon="-0.28087">
        <ele>112</ele>
        <time>2024-04-07T11:50:25Z</time>
      </trkpt>
      <trkpt lat="49.17562" lon="-0.28083">
        <ele>112</ele>
        <time>2024-04-07T11:50:26Z</time>
      </trkpt>
      <trkpt lat="49.1757" lon="-0.28077">
        <ele>112.2</ele>
        <time>2024-04-07T11:50:27Z</time>
      </trkpt>
      <trkpt lat="49.17576" lon="-0.28072">
        <ele>112.2</ele>
        <time>2024-04-07T11:50:28Z</time>
      </trkpt>
      <trkpt lat="49.17581" lon="-0.28068">
        <ele>112.2</ele>
        <time>2024-04-07T11:50:29Z</time>
      </trkpt>
      <trkpt lat="49.17586" lon="-0.28064">
        <ele>112.2</ele>
        <time>2024-04-07T11:50:30Z</time>
      </trkpt>
      <trkpt lat="49.17592" lon="-0.28059">
        <ele>112.2</ele>
        <time>2024-04-07T11:50:31Z</time>
      </trkpt>
      <trkpt lat="49.17598" lon="-0.28055">
        <ele>112.2</ele>
        <time>2024-04-07T11:50:32Z</time>
      </trkpt>
      <trkpt lat="49.17604" lon="-0.28051">
        <ele>112.4</ele>
        <time>2024-04-07T11:50:33Z</time>
      </trkpt>
      <trkpt lat="49.17609" lon="-0.28047">
        <ele>112.4</ele>
        <time>2024-04-07T11:50:34Z</time>
      </trkpt>
      <trkpt lat="49.17615" lon="-0.28042">
        <ele>112.6</ele>
        <time>2024-04-07T11:50:35Z</time>
      </trkpt>
      <trkpt lat="49.1762" lon="-0.28038">
        <ele>112.8</ele>
        <time>2024-04-07T11:50:36Z</time>
      </trkpt>
      <trkpt lat="49.17624" lon="-0.28034">
        <ele>112.8</ele>
        <time>2024-04-07T11:50:37Z</time>
      </trkpt>
      <trkpt lat="49.17632" lon="-0.28026">
        <ele>113</ele>
        <time>2024-04-07T11:50:38Z</time>
      </trkpt>
      <trkpt lat="49.17638" lon="-0.28021">
        <ele>113</ele>
        <time>2024-04-07T11:50:39Z</time>
      </trkpt>
      <trkpt lat="49.17644" lon="-0.28016">
        <ele>112.8</ele>
        <time>2024-04-07T11:50:40Z</time>
      </trkpt>
      <trkpt lat="49.1765" lon="-0.28012">
        <ele>112.8</ele>
        <time>2024-04-07T11:50:41Z</time>
      </trkpt>
      <trkpt lat="49.17656" lon="-0.28007">
        <ele>112.8</ele>
        <time>2024-04-07T11:50:42Z</time>
      </trkpt>
      <trkpt lat="49.17662" lon="-0.28003">
        <ele>112.8</ele>
        <time>2024-04-07T11:50:43Z</time>
      </trkpt>
      <trkpt lat="49.17667" lon="-0.28">
        <ele>112.8</ele>
        <time>2024-04-07T11:50:44Z</time>
      </trkpt>
      <trkpt lat="49.17671" lon="-0.27997">
        <ele>112.8</ele>
        <time>2024-04-07T11:50:45Z</time>
      </trkpt>
      <trkpt lat="49.1768" lon="-0.27991">
        <ele>112.8</ele>
        <time>2024-04-07T11:50:46Z</time>
      </trkpt>
      <trkpt lat="49.17687" lon="-0.27987">
        <ele>112.8</ele>
        <time>2024-04-07T11:50:47Z</time>
      </trkpt>
      <trkpt lat="49.17693" lon="-0.27984">
        <ele>112.8</ele>
        <time>2024-04-07T11:50:48Z</time>
      </trkpt>
      <trkpt lat="49.17693" lon="-0.27984">
        <ele>112.6</ele>
        <time>2024-04-07T11:50:49Z</time>
      </trkpt>
      <trkpt lat="49.17707" lon="-0.27978">
        <ele>112.6</ele>
        <time>2024-04-07T11:50:50Z</time>
      </trkpt>
      <trkpt lat="49.17714" lon="-0.27975">
        <ele>112.4</ele>
        <time>2024-04-07T11:50:51Z</time>
      </trkpt>
      <trkpt lat="49.1772" lon="-0.27972">
        <ele>112.4</ele>
        <time>2024-04-07T11:50:52Z</time>
      </trkpt>
      <trkpt lat="49.1772" lon="-0.27972">
        <ele>112.2</ele>
        <time>2024-04-07T11:50:53Z</time>
      </trkpt>
      <trkpt lat="49.17734" lon="-0.27968">
        <ele>112</ele>
        <time>2024-04-07T11:50:54Z</time>
      </trkpt>
      <trkpt lat="49.17741" lon="-0.27967">
        <ele>111.6</ele>
        <time>2024-04-07T11:50:55Z</time>
      </trkpt>
      <trkpt lat="49.17747" lon="-0.27965">
        <ele>111.4</ele>
        <time>2024-04-07T11:50:56Z</time>
      </trkpt>
      <trkpt lat="49.17753" lon="-0.27964">
        <ele>111.2</ele>
        <time>2024-04-07T11:50:57Z</time>
      </trkpt>
      <trkpt lat="49.17759" lon="-0.27962">
        <ele>111</ele>
        <time>2024-04-07T11:50:58Z</time>
      </trkpt>
      <trkpt lat="49.17761" lon="-0.27962">
        <ele>111</ele>
        <time>2024-04-07T11:50:59Z</time>
      </trkpt>
      <trkpt lat="49.17764" lon="-0.27961">
        <ele>111</ele>
        <time>2024-04-07T11:51:00Z</time>
      </trkpt>
      <trkpt lat="49.17771" lon="-0.27959">
        <ele>111</ele>
        <time>2024-04-07T11:51:01Z</time>
      </trkpt>
      <trkpt lat="49.17772" lon="-0.27958">
        <ele>111.2</ele>
        <time>2024-04-07T11:51:02Z</time>
      </trkpt>
      <trkpt lat="49.17775" lon="-0.27957">
        <ele>111.2</ele>
        <time>2024-04-07T11:51:03Z</time>
      </trkpt>
      <trkpt lat="49.17777" lon="-0.27957">
        <ele>111.4</ele>
        <time>2024-04-07T11:51:04Z</time>
      </trkpt>
      <trkpt lat="49.17778" lon="-0.27957">
        <ele>111.4</ele>
        <time>2024-04-07T11:51:05Z</time>
      </trkpt>
      <trkpt lat="49.17778" lon="-0.27957">
        <ele>111.6</ele>
        <time>2024-04-07T11:51:06Z</time>
      </trkpt>
      <trkpt lat="49.17781" lon="-0.27957">
        <ele>111.6</ele>
        <time>2024-04-07T11:51:15Z</time>
      </trkpt>
      <trkpt lat="49.17783" lon="-0.27957">
        <ele>111.4</ele>
        <time>2024-04-07T11:51:16Z</time>
      </trkpt>
      <trkpt lat="49.17785" lon="-0.27957">
        <ele>111.4</ele>
        <time>2024-04-07T11:51:17Z</time>
      </trkpt>
      <trkpt lat="49.17788" lon="-0.27956">
        <ele>111.2</ele>
        <time>2024-04-07T11:51:18Z</time>
      </trkpt>
      <trkpt lat="49.17791" lon="-0.27956">
        <ele>111.2</ele>
        <time>2024-04-07T11:51:19Z</time>
      </trkpt>
      <trkpt lat="49.17791" lon="-0.27956">
        <ele>111.2</ele>
        <time>2024-04-07T11:51:20Z</time>
      </trkpt>
      <trkpt lat="49.17794" lon="-0.27956">
        <ele>111</ele>
        <time>2024-04-07T11:51:21Z</time>
      </trkpt>
      <trkpt lat="49.17803" lon="-0.27957">
        <ele>111</ele>
        <time>2024-04-07T11:51:22Z</time>
      </trkpt>
      <trkpt lat="49.17808" lon="-0.27957">
        <ele>110.8</ele>
        <time>2024-04-07T11:51:23Z</time>
      </trkpt>
      <trkpt lat="49.17813" lon="-0.27957">
        <ele>110.8</ele>
        <time>2024-04-07T11:51:24Z</time>
      </trkpt>
      <trkpt lat="49.17818" lon="-0.27957">
        <ele>110.8</ele>
        <time>2024-04-07T11:51:25Z</time>
      </trkpt>
      <trkpt lat="49.17823" lon="-0.27958">
        <ele>110.6</ele>
        <time>2024-04-07T11:51:26Z</time>
      </trkpt>
      <trkpt lat="49.17828" lon="-0.27959">
        <ele>110.4</ele>
        <time>2024-04-07T11:51:27Z</time>
      </trkpt>
      <trkpt lat="49.17833" lon="-0.27959">
        <ele>110.2</ele>
        <time>2024-04-07T11:51:28Z</time>
      </trkpt>
      <trkpt lat="49.17838" lon="-0.2796">
        <ele>110</ele>
        <time>2024-04-07T11:51:29Z</time>
      </trkpt>
      <trkpt lat="49.17838" lon="-0.2796">
        <ele>109.8</ele>
        <time>2024-04-07T11:51:30Z</time>
      </trkpt>
      <trkpt lat="49.17848" lon="-0.27962">
        <ele>109.4</ele>
        <time>2024-04-07T11:51:31Z</time>
      </trkpt>
      <trkpt lat="49.17853" lon="-0.27963">
        <ele>109</ele>
        <time>2024-04-07T11:51:32Z</time>
      </trkpt>
      <trkpt lat="49.17858" lon="-0.27964">
        <ele>108.8</ele>
        <time>2024-04-07T11:51:33Z</time>
      </trkpt>
      <trkpt lat="49.17863" lon="-0.27965">
        <ele>108.8</ele>
        <time>2024-04-07T11:51:34Z</time>
      </trkpt>
      <trkpt lat="49.17868" lon="-0.27967">
        <ele>108.6</ele>
        <time>2024-04-07T11:51:35Z</time>
      </trkpt>
      <trkpt lat="49.17874" lon="-0.27969">
        <ele>108.4</ele>
        <time>2024-04-07T11:51:36Z</time>
      </trkpt>
      <trkpt lat="49.17879" lon="-0.27971">
        <ele>108.4</ele>
        <time>2024-04-07T11:51:37Z</time>
      </trkpt>
      <trkpt lat="49.17885" lon="-0.27972">
        <ele>108.4</ele>
        <time>2024-04-07T11:51:38Z</time>
      </trkpt>
      <trkpt lat="49.1789" lon="-0.27974">
        <ele>108.4</ele>
        <time>2024-04-07T11:51:39Z</time>
      </trkpt>
      <trkpt lat="49.17894" lon="-0.27976">
        <ele>108.4</ele>
        <time>2024-04-07T11:51:40Z</time>
      </trkpt>
      <trkpt lat="49.17899" lon="-0.27978">
        <ele>108.2</ele>
        <time>2024-04-07T11:51:41Z</time>
      </trkpt>
      <trkpt lat="49.17907" lon="-0.27981">
        <ele>108.2</ele>
        <time>2024-04-07T11:51:42Z</time>
      </trkpt>
      <trkpt lat="49.17913" lon="-0.27983">
        <ele>108.2</ele>
        <time>2024-04-07T11:51:43Z</time>
      </trkpt>
      <trkpt lat="49.17918" lon="-0.27986">
        <ele>108.2</ele>
        <time>2024-04-07T11:51:44Z</time>
      </trkpt>
      <trkpt lat="49.17924" lon="-0.27989">
        <ele>108.2</ele>
        <time>2024-04-07T11:51:45Z</time>
      </trkpt>
      <trkpt lat="49.1793" lon="-0.27992">
        <ele>108</ele>
        <time>2024-04-07T11:51:46Z</time>
      </trkpt>
      <trkpt lat="49.17935" lon="-0.27996">
        <ele>107.8</ele>
        <time>2024-04-07T11:51:47Z</time>
      </trkpt>
      <trkpt lat="49.17941" lon="-0.28">
        <ele>107.6</ele>
        <time>2024-04-07T11:51:48Z</time>
      </trkpt>
      <trkpt lat="49.17947" lon="-0.28003">
        <ele>107.4</ele>
        <time>2024-04-07T11:51:49Z</time>
      </trkpt>
      <trkpt lat="49.17953" lon="-0.28007">
        <ele>107.4</ele>
        <time>2024-04-07T11:51:50Z</time>
      </trkpt>
      <trkpt lat="49.17959" lon="-0.28012">
        <ele>107.4</ele>
        <time>2024-04-07T11:51:51Z</time>
      </trkpt>
      <trkpt lat="49.17964" lon="-0.28016">
        <ele>107.4</ele>
        <time>2024-04-07T11:51:52Z</time>
      </trkpt>
      <trkpt lat="49.17969" lon="-0.28021">
        <ele>107.4</ele>
        <time>2024-04-07T11:51:53Z</time>
      </trkpt>
      <trkpt lat="49.17973" lon="-0.28025">
        <ele>107.6</ele>
        <time>2024-04-07T11:51:54Z</time>
      </trkpt>
      <trkpt lat="49.17978" lon="-0.2803">
        <ele>107.8</ele>
        <time>2024-04-07T11:51:55Z</time>
      </trkpt>
      <trkpt lat="49.17983" lon="-0.28034">
        <ele>108</ele>
        <time>2024-04-07T11:51:56Z</time>
      </trkpt>
      <trkpt lat="49.17987" lon="-0.28039">
        <ele>108.2</ele>
        <time>2024-04-07T11:51:57Z</time>
      </trkpt>
      <trkpt lat="49.17992" lon="-0.28044">
        <ele>108.6</ele>
        <time>2024-04-07T11:51:58Z</time>
      </trkpt>
      <trkpt lat="49.17997" lon="-0.28049">
        <ele>109</ele>
        <time>2024-04-07T11:51:59Z</time>
      </trkpt>
      <trkpt lat="49.18002" lon="-0.28054">
        <ele>109.4</ele>
        <time>2024-04-07T11:52:00Z</time>
      </trkpt>
      <trkpt lat="49.18005" lon="-0.28056">
        <ele>109.6</ele>
        <time>2024-04-07T11:52:01Z</time>
      </trkpt>
      <trkpt lat="49.18007" lon="-0.28058">
        <ele>110</ele>
        <time>2024-04-07T11:52:02Z</time>
      </trkpt>
      <trkpt lat="49.18012" lon="-0.28063">
        <ele>110.2</ele>
        <time>2024-04-07T11:52:03Z</time>
      </trkpt>
      <trkpt lat="49.18021" lon="-0.28073">
        <ele>110.4</ele>
        <time>2024-04-07T11:52:04Z</time>
      </trkpt>
      <trkpt lat="49.18025" lon="-0.28078">
        <ele>110.6</ele>
        <time>2024-04-07T11:52:05Z</time>
      </trkpt>
      <trkpt lat="49.1803" lon="-0.28083">
        <ele>110.6</ele>
        <time>2024-04-07T11:52:06Z</time>
      </trkpt>
      <trkpt lat="49.18034" lon="-0.28087">
        <ele>110.6</ele>
        <time>2024-04-07T11:52:07Z</time>
      </trkpt>
      <trkpt lat="49.18039" lon="-0.28092">
        <ele>110.6</ele>
        <time>2024-04-07T11:52:08Z</time>
      </trkpt>
      <trkpt lat="49.18041" lon="-0.28094">
        <ele>110.6</ele>
        <time>2024-04-07T11:52:09Z</time>
      </trkpt>
      <trkpt lat="49.18043" lon="-0.28096">
        <ele>110.4</ele>
        <time>2024-04-07T11:52:10Z</time>
      </trkpt>
      <trkpt lat="49.18048" lon="-0.28101">
        <ele>110.4</ele>
        <time>2024-04-07T11:52:11Z</time>
      </trkpt>
      <trkpt lat="49.18056" lon="-0.28109">
        <ele>110.4</ele>
        <time>2024-04-07T11:52:12Z</time>
      </trkpt>
      <trkpt lat="49.18061" lon="-0.28114">
        <ele>110.4</ele>
        <time>2024-04-07T11:52:13Z</time>
      </trkpt>
      <trkpt lat="49.18066" lon="-0.28118">
        <ele>110.4</ele>
        <time>2024-04-07T11:52:14Z</time>
      </trkpt>
      <trkpt lat="49.1807" lon="-0.28123">
        <ele>110.2</ele>
        <time>2024-04-07T11:52:15Z</time>
      </trkpt>
      <trkpt lat="49.18074" lon="-0.28127">
        <ele>110.2</ele>
        <time>2024-04-07T11:52:16Z</time>
      </trkpt>
      <trkpt lat="49.18078" lon="-0.2813">
        <ele>110.4</ele>
        <time>2024-04-07T11:52:17Z</time>
      </trkpt>
      <trkpt lat="49.1808" lon="-0.28132">
        <ele>110.4</ele>
        <time>2024-04-07T11:52:18Z</time>
      </trkpt>
      <trkpt lat="49.18081" lon="-0.28134">
        <ele>110.4</ele>
        <time>2024-04-07T11:52:19Z</time>
      </trkpt>
      <trkpt lat="49.18085" lon="-0.28138">
        <ele>110.6</ele>
        <time>2024-04-07T11:52:20Z</time>
      </trkpt>
      <trkpt lat="49.18093" lon="-0.28147">
        <ele>110.8</ele>
        <time>2024-04-07T11:52:21Z</time>
      </trkpt>
      <trkpt lat="49.18097" lon="-0.28152">
        <ele>111</ele>
        <time>2024-04-07T11:52:22Z</time>
      </trkpt>
      <trkpt lat="49.181" lon="-0.28155">
        <ele>111.2</ele>
        <time>2024-04-07T11:52:23Z</time>
      </trkpt>
      <trkpt lat="49.18104" lon="-0.28158">
        <ele>111.4</ele>
        <time>2024-04-07T11:52:24Z</time>
      </trkpt>
      <trkpt lat="49.18111" lon="-0.28164">
        <ele>111.6</ele>
        <time>2024-04-07T11:52:25Z</time>
      </trkpt>
      <trkpt lat="49.18116" lon="-0.28168">
        <ele>111.6</ele>
        <time>2024-04-07T11:52:26Z</time>
      </trkpt>
      <trkpt lat="49.18121" lon="-0.28173">
        <ele>111.6</ele>
        <time>2024-04-07T11:52:27Z</time>
      </trkpt>
      <trkpt lat="49.18125" lon="-0.28177">
        <ele>111.8</ele>
        <time>2024-04-07T11:52:28Z</time>
      </trkpt>
      <trkpt lat="49.1813" lon="-0.28182">
        <ele>111.8</ele>
        <time>2024-04-07T11:52:29Z</time>
      </trkpt>
      <trkpt lat="49.18134" lon="-0.28186">
        <ele>111.8</ele>
        <time>2024-04-07T11:52:30Z</time>
      </trkpt>
      <trkpt lat="49.18138" lon="-0.28191">
        <ele>111.6</ele>
        <time>2024-04-07T11:52:31Z</time>
      </trkpt>
      <trkpt lat="49.18143" lon="-0.28195">
        <ele>111.8</ele>
        <time>2024-04-07T11:52:32Z</time>
      </trkpt>
      <trkpt lat="49.18147" lon="-0.282">
        <ele>111.8</ele>
        <time>2024-04-07T11:52:33Z</time>
      </trkpt>
      <trkpt lat="49.18152" lon="-0.28204">
        <ele>111.8</ele>
        <time>2024-04-07T11:52:34Z</time>
      </trkpt>
      <trkpt lat="49.18157" lon="-0.28209">
        <ele>111.6</ele>
        <time>2024-04-07T11:52:35Z</time>
      </trkpt>
      <trkpt lat="49.18162" lon="-0.28214">
        <ele>111.6</ele>
        <time>2024-04-07T11:52:36Z</time>
      </trkpt>
      <trkpt lat="49.18167" lon="-0.28219">
        <ele>111.6</ele>
        <time>2024-04-07T11:52:37Z</time>
      </trkpt>
      <trkpt lat="49.18171" lon="-0.28223">
        <ele>111.6</ele>
        <time>2024-04-07T11:52:38Z</time>
      </trkpt>
      <trkpt lat="49.18174" lon="-0.28227">
        <ele>111.6</ele>
        <time>2024-04-07T11:52:39Z</time>
      </trkpt>
      <trkpt lat="49.18182" lon="-0.28234">
        <ele>111.6</ele>
        <time>2024-04-07T11:52:40Z</time>
      </trkpt>
      <trkpt lat="49.18187" lon="-0.28239">
        <ele>111.6</ele>
        <time>2024-04-07T11:52:41Z</time>
      </trkpt>
      <trkpt lat="49.18192" lon="-0.28245">
        <ele>111.6</ele>
        <time>2024-04-07T11:52:42Z</time>
      </trkpt>
      <trkpt lat="49.18196" lon="-0.2825">
        <ele>111.6</ele>
        <time>2024-04-07T11:52:43Z</time>
      </trkpt>
      <trkpt lat="49.18201" lon="-0.28256">
        <ele>111.6</ele>
        <time>2024-04-07T11:52:44Z</time>
      </trkpt>
      <trkpt lat="49.18203" lon="-0.28259">
        <ele>111.6</ele>
        <time>2024-04-07T11:52:45Z</time>
      </trkpt>
      <trkpt lat="49.18206" lon="-0.28262">
        <ele>111.6</ele>
        <time>2024-04-07T11:52:46Z</time>
      </trkpt>
      <trkpt lat="49.1821" lon="-0.2827">
        <ele>111.4</ele>
        <time>2024-04-07T11:52:47Z</time>
      </trkpt>
      <trkpt lat="49.18218" lon="-0.28285">
        <ele>111.2</ele>
        <time>2024-04-07T11:52:48Z</time>
      </trkpt>
      <trkpt lat="49.18223" lon="-0.28292">
        <ele>111</ele>
        <time>2024-04-07T11:52:49Z</time>
      </trkpt>
      <trkpt lat="49.18228" lon="-0.283">
        <ele>110.6</ele>
        <time>2024-04-07T11:52:50Z</time>
      </trkpt>
      <trkpt lat="49.18233" lon="-0.28307">
        <ele>110.4</ele>
        <time>2024-04-07T11:52:51Z</time>
      </trkpt>
      <trkpt lat="49.18238" lon="-0.28314">
        <ele>110.2</ele>
        <time>2024-04-07T11:52:52Z</time>
      </trkpt>
      <trkpt lat="49.18243" lon="-0.28322">
        <ele>110</ele>
        <time>2024-04-07T11:52:53Z</time>
      </trkpt>
      <trkpt lat="49.18248" lon="-0.28329">
        <ele>109.8</ele>
        <time>2024-04-07T11:52:54Z</time>
      </trkpt>
      <trkpt lat="49.18253" lon="-0.28336">
        <ele>109.8</ele>
        <time>2024-04-07T11:52:55Z</time>
      </trkpt>
      <trkpt lat="49.18257" lon="-0.28344">
        <ele>109.6</ele>
        <time>2024-04-07T11:52:56Z</time>
      </trkpt>
      <trkpt lat="49.18263" lon="-0.28352">
        <ele>109.6</ele>
        <time>2024-04-07T11:52:57Z</time>
      </trkpt>
      <trkpt lat="49.18268" lon="-0.2836">
        <ele>109.6</ele>
        <time>2024-04-07T11:52:58Z</time>
      </trkpt>
      <trkpt lat="49.1827" lon="-0.28363">
        <ele>109.8</ele>
        <time>2024-04-07T11:52:59Z</time>
      </trkpt>
      <trkpt lat="49.18272" lon="-0.28367">
        <ele>109.8</ele>
        <time>2024-04-07T11:53:00Z</time>
      </trkpt>
      <trkpt lat="49.1828" lon="-0.28379">
        <ele>109.8</ele>
        <time>2024-04-07T11:53:01Z</time>
      </trkpt>
      <trkpt lat="49.18283" lon="-0.28384">
        <ele>110</ele>
        <time>2024-04-07T11:53:02Z</time>
      </trkpt>
      <trkpt lat="49.1829" lon="-0.28394">
        <ele>110.2</ele>
        <time>2024-04-07T11:53:03Z</time>
      </trkpt>
      <trkpt lat="49.18294" lon="-0.28401">
        <ele>110.2</ele>
        <time>2024-04-07T11:53:04Z</time>
      </trkpt>
      <trkpt lat="49.18296" lon="-0.28404">
        <ele>110.4</ele>
        <time>2024-04-07T11:53:05Z</time>
      </trkpt>
      <trkpt lat="49.18298" lon="-0.28408">
        <ele>110.4</ele>
        <time>2024-04-07T11:53:06Z</time>
      </trkpt>
      <trkpt lat="49.18303" lon="-0.2842">
        <ele>110.4</ele>
        <time>2024-04-07T11:53:07Z</time>
      </trkpt>
      <trkpt lat="49.18305" lon="-0.28424">
        <ele>110.6</ele>
        <time>2024-04-07T11:53:08Z</time>
      </trkpt>
      <trkpt lat="49.18314" lon="-0.28437">
        <ele>110.6</ele>
        <time>2024-04-07T11:53:09Z</time>
      </trkpt>
      <trkpt lat="49.18316" lon="-0.2844">
        <ele>110.8</ele>
        <time>2024-04-07T11:53:10Z</time>
      </trkpt>
      <trkpt lat="49.18318" lon="-0.28443">
        <ele>110.8</ele>
        <time>2024-04-07T11:53:11Z</time>
      </trkpt>
      <trkpt lat="49.18325" lon="-0.28456">
        <ele>110.8</ele>
        <time>2024-04-07T11:53:12Z</time>
      </trkpt>
      <trkpt lat="49.18327" lon="-0.28459">
        <ele>110.8</ele>
        <time>2024-04-07T11:53:13Z</time>
      </trkpt>
      <trkpt lat="49.18329" lon="-0.28462">
        <ele>111</ele>
        <time>2024-04-07T11:53:14Z</time>
      </trkpt>
      <trkpt lat="49.18334" lon="-0.28468">
        <ele>111</ele>
        <time>2024-04-07T11:53:15Z</time>
      </trkpt>
      <trkpt lat="49.18338" lon="-0.28473">
        <ele>110.8</ele>
        <time>2024-04-07T11:53:16Z</time>
      </trkpt>
      <trkpt lat="49.18348" lon="-0.28485">
        <ele>110.8</ele>
        <time>2024-04-07T11:53:17Z</time>
      </trkpt>
      <trkpt lat="49.1835" lon="-0.28489">
        <ele>111</ele>
        <time>2024-04-07T11:53:18Z</time>
      </trkpt>
      <trkpt lat="49.18352" lon="-0.28492">
        <ele>111.2</ele>
        <time>2024-04-07T11:53:19Z</time>
      </trkpt>
      <trkpt lat="49.18357" lon="-0.28499">
        <ele>111.4</ele>
        <time>2024-04-07T11:53:20Z</time>
      </trkpt>
      <trkpt lat="49.18362" lon="-0.28505">
        <ele>111.6</ele>
        <time>2024-04-07T11:53:21Z</time>
      </trkpt>
      <trkpt lat="49.18371" lon="-0.28517">
        <ele>111.8</ele>
        <time>2024-04-07T11:53:22Z</time>
      </trkpt>
      <trkpt lat="49.18376" lon="-0.28522">
        <ele>112</ele>
        <time>2024-04-07T11:53:23Z</time>
      </trkpt>
      <trkpt lat="49.1838" lon="-0.28527">
        <ele>112.2</ele>
        <time>2024-04-07T11:53:24Z</time>
      </trkpt>
      <trkpt lat="49.18385" lon="-0.28531">
        <ele>112.2</ele>
        <time>2024-04-07T11:53:25Z</time>
      </trkpt>
      <trkpt lat="49.1839" lon="-0.28536">
        <ele>112.4</ele>
        <time>2024-04-07T11:53:26Z</time>
      </trkpt>
      <trkpt lat="49.18395" lon="-0.28541">
        <ele>112.8</ele>
        <time>2024-04-07T11:53:27Z</time>
      </trkpt>
      <trkpt lat="49.18399" lon="-0.28546">
        <ele>113.4</ele>
        <time>2024-04-07T11:53:28Z</time>
      </trkpt>
      <trkpt lat="49.18404" lon="-0.2855">
        <ele>113.6</ele>
        <time>2024-04-07T11:53:29Z</time>
      </trkpt>
      <trkpt lat="49.18409" lon="-0.28555">
        <ele>114</ele>
        <time>2024-04-07T11:53:30Z</time>
      </trkpt>
      <trkpt lat="49.18414" lon="-0.28559">
        <ele>114.2</ele>
        <time>2024-04-07T11:53:31Z</time>
      </trkpt>
      <trkpt lat="49.18416" lon="-0.28562">
        <ele>114.4</ele>
        <time>2024-04-07T11:53:32Z</time>
      </trkpt>
      <trkpt lat="49.18418" lon="-0.28564">
        <ele>114.4</ele>
        <time>2024-04-07T11:53:33Z</time>
      </trkpt>
      <trkpt lat="49.18423" lon="-0.28568">
        <ele>114.6</ele>
        <time>2024-04-07T11:53:34Z</time>
      </trkpt>
      <trkpt lat="49.18432" lon="-0.28576">
        <ele>114.6</ele>
        <time>2024-04-07T11:53:35Z</time>
      </trkpt>
      <trkpt lat="49.18434" lon="-0.28578">
        <ele>114.8</ele>
        <time>2024-04-07T11:53:36Z</time>
      </trkpt>
      <trkpt lat="49.18436" lon="-0.2858">
        <ele>114.8</ele>
        <time>2024-04-07T11:53:37Z</time>
      </trkpt>
      <trkpt lat="49.18444" lon="-0.28587">
        <ele>115.2</ele>
        <time>2024-04-07T11:53:38Z</time>
      </trkpt>
      <trkpt lat="49.18447" lon="-0.2859">
        <ele>115.4</ele>
        <time>2024-04-07T11:53:39Z</time>
      </trkpt>
      <trkpt lat="49.18454" lon="-0.28597">
        <ele>115.8</ele>
        <time>2024-04-07T11:53:40Z</time>
      </trkpt>
      <trkpt lat="49.18458" lon="-0.28601">
        <ele>116.2</ele>
        <time>2024-04-07T11:53:41Z</time>
      </trkpt>
      <trkpt lat="49.18462" lon="-0.28605">
        <ele>116.4</ele>
        <time>2024-04-07T11:53:42Z</time>
      </trkpt>
      <trkpt lat="49.18467" lon="-0.28609">
        <ele>116.6</ele>
        <time>2024-04-07T11:53:43Z</time>
      </trkpt>
      <trkpt lat="49.18471" lon="-0.28614">
        <ele>116.6</ele>
        <time>2024-04-07T11:53:44Z</time>
      </trkpt>
      <trkpt lat="49.18475" lon="-0.28618">
        <ele>116.8</ele>
        <time>2024-04-07T11:53:45Z</time>
      </trkpt>
      <trkpt lat="49.18479" lon="-0.28621">
        <ele>117</ele>
        <time>2024-04-07T11:53:46Z</time>
      </trkpt>
      <trkpt lat="49.18484" lon="-0.28626">
        <ele>117</ele>
        <time>2024-04-07T11:53:47Z</time>
      </trkpt>
      <trkpt lat="49.18486" lon="-0.28628">
        <ele>117.2</ele>
        <time>2024-04-07T11:53:48Z</time>
      </trkpt>
      <trkpt lat="49.18488" lon="-0.2863">
        <ele>117.2</ele>
        <time>2024-04-07T11:53:49Z</time>
      </trkpt>
      <trkpt lat="49.18497" lon="-0.28638">
        <ele>117.6</ele>
        <time>2024-04-07T11:53:50Z</time>
      </trkpt>
      <trkpt lat="49.18501" lon="-0.28642">
        <ele>117.8</ele>
        <time>2024-04-07T11:53:51Z</time>
      </trkpt>
      <trkpt lat="49.18504" lon="-0.28646">
        <ele>118</ele>
        <time>2024-04-07T11:53:52Z</time>
      </trkpt>
      <trkpt lat="49.18508" lon="-0.28649">
        <ele>118.2</ele>
        <time>2024-04-07T11:53:53Z</time>
      </trkpt>
      <trkpt lat="49.18512" lon="-0.28652">
        <ele>118.4</ele>
        <time>2024-04-07T11:53:54Z</time>
      </trkpt>
      <trkpt lat="49.18515" lon="-0.28656">
        <ele>118.6</ele>
        <time>2024-04-07T11:53:55Z</time>
      </trkpt>
      <trkpt lat="49.18519" lon="-0.28659">
        <ele>118.6</ele>
        <time>2024-04-07T11:53:56Z</time>
      </trkpt>
      <trkpt lat="49.18522" lon="-0.28662">
        <ele>118.8</ele>
        <time>2024-04-07T11:53:57Z</time>
      </trkpt>
      <trkpt lat="49.18526" lon="-0.28664">
        <ele>118.8</ele>
        <time>2024-04-07T11:53:58Z</time>
      </trkpt>
      <trkpt lat="49.18529" lon="-0.28667">
        <ele>119</ele>
        <time>2024-04-07T11:53:59Z</time>
      </trkpt>
      <trkpt lat="49.18533" lon="-0.2867">
        <ele>119.2</ele>
        <time>2024-04-07T11:54:00Z</time>
      </trkpt>
      <trkpt lat="49.18537" lon="-0.28673">
        <ele>119.4</ele>
        <time>2024-04-07T11:54:01Z</time>
      </trkpt>
      <trkpt lat="49.1854" lon="-0.28676">
        <ele>119.6</ele>
        <time>2024-04-07T11:54:02Z</time>
      </trkpt>
      <trkpt lat="49.18542" lon="-0.28678">
        <ele>119.6</ele>
        <time>2024-04-07T11:54:03Z</time>
      </trkpt>
      <trkpt lat="49.18544" lon="-0.28679">
        <ele>119.8</ele>
        <time>2024-04-07T11:54:04Z</time>
      </trkpt>
      <trkpt lat="49.18552" lon="-0.28686">
        <ele>119.8</ele>
        <time>2024-04-07T11:54:05Z</time>
      </trkpt>
      <trkpt lat="49.18557" lon="-0.28689">
        <ele>119.8</ele>
        <time>2024-04-07T11:54:06Z</time>
      </trkpt>
      <trkpt lat="49.18561" lon="-0.28692">
        <ele>119.8</ele>
        <time>2024-04-07T11:54:07Z</time>
      </trkpt>
      <trkpt lat="49.18565" lon="-0.28696">
        <ele>119.8</ele>
        <time>2024-04-07T11:54:08Z</time>
      </trkpt>
      <trkpt lat="49.18569" lon="-0.287">
        <ele>119.8</ele>
        <time>2024-04-07T11:54:09Z</time>
      </trkpt>
      <trkpt lat="49.18573" lon="-0.28704">
        <ele>119.8</ele>
        <time>2024-04-07T11:54:10Z</time>
      </trkpt>
      <trkpt lat="49.18577" lon="-0.28708">
        <ele>120</ele>
        <time>2024-04-07T11:54:11Z</time>
      </trkpt>
      <trkpt lat="49.18581" lon="-0.28711">
        <ele>120</ele>
        <time>2024-04-07T11:54:12Z</time>
      </trkpt>
      <trkpt lat="49.18586" lon="-0.28715">
        <ele>120.2</ele>
        <time>2024-04-07T11:54:13Z</time>
      </trkpt>
      <trkpt lat="49.1859" lon="-0.28719">
        <ele>120.8</ele>
        <time>2024-04-07T11:54:14Z</time>
      </trkpt>
      <trkpt lat="49.18595" lon="-0.28723">
        <ele>121.2</ele>
        <time>2024-04-07T11:54:15Z</time>
      </trkpt>
      <trkpt lat="49.186" lon="-0.28726">
        <ele>121.4</ele>
        <time>2024-04-07T11:54:16Z</time>
      </trkpt>
      <trkpt lat="49.18604" lon="-0.2873">
        <ele>121.6</ele>
        <time>2024-04-07T11:54:17Z</time>
      </trkpt>
      <trkpt lat="49.18608" lon="-0.28734">
        <ele>121.8</ele>
        <time>2024-04-07T11:54:18Z</time>
      </trkpt>
      <trkpt lat="49.18613" lon="-0.28738">
        <ele>121.8</ele>
        <time>2024-04-07T11:54:19Z</time>
      </trkpt>
      <trkpt lat="49.18618" lon="-0.28741">
        <ele>122</ele>
        <time>2024-04-07T11:54:20Z</time>
      </trkpt>
      <trkpt lat="49.18622" lon="-0.28745">
        <ele>122.2</ele>
        <time>2024-04-07T11:54:21Z</time>
      </trkpt>
      <trkpt lat="49.18627" lon="-0.2875">
        <ele>122.4</ele>
        <time>2024-04-07T11:54:22Z</time>
      </trkpt>
      <trkpt lat="49.18627" lon="-0.2875">
        <ele>122.4</ele>
        <time>2024-04-07T11:54:23Z</time>
      </trkpt>
      <trkpt lat="49.18637" lon="-0.28759">
        <ele>122.6</ele>
        <time>2024-04-07T11:54:24Z</time>
      </trkpt>
      <trkpt lat="49.18641" lon="-0.28763">
        <ele>122.8</ele>
        <time>2024-04-07T11:54:25Z</time>
      </trkpt>
      <trkpt lat="49.18646" lon="-0.28767">
        <ele>123</ele>
        <time>2024-04-07T11:54:26Z</time>
      </trkpt>
      <trkpt lat="49.18651" lon="-0.28771">
        <ele>123.2</ele>
        <time>2024-04-07T11:54:27Z</time>
      </trkpt>
      <trkpt lat="49.18655" lon="-0.28776">
        <ele>123.4</ele>
        <time>2024-04-07T11:54:28Z</time>
      </trkpt>
      <trkpt lat="49.1866" lon="-0.28781">
        <ele>123.4</ele>
        <time>2024-04-07T11:54:29Z</time>
      </trkpt>
      <trkpt lat="49.18664" lon="-0.28786">
        <ele>123.6</ele>
        <time>2024-04-07T11:54:30Z</time>
      </trkpt>
      <trkpt lat="49.18669" lon="-0.28791">
        <ele>123.8</ele>
        <time>2024-04-07T11:54:31Z</time>
      </trkpt>
      <trkpt lat="49.18673" lon="-0.28797">
        <ele>123.8</ele>
        <time>2024-04-07T11:54:32Z</time>
      </trkpt>
      <trkpt lat="49.18677" lon="-0.28803">
        <ele>124</ele>
        <time>2024-04-07T11:54:33Z</time>
      </trkpt>
      <trkpt lat="49.18681" lon="-0.28809">
        <ele>124.2</ele>
        <time>2024-04-07T11:54:34Z</time>
      </trkpt>
      <trkpt lat="49.18685" lon="-0.28815">
        <ele>124.4</ele>
        <time>2024-04-07T11:54:35Z</time>
      </trkpt>
      <trkpt lat="49.18689" lon="-0.28821">
        <ele>124.8</ele>
        <time>2024-04-07T11:54:36Z</time>
      </trkpt>
      <trkpt lat="49.18693" lon="-0.28827">
        <ele>125</ele>
        <time>2024-04-07T11:54:37Z</time>
      </trkpt>
      <trkpt lat="49.18697" lon="-0.28832">
        <ele>125</ele>
        <time>2024-04-07T11:54:38Z</time>
      </trkpt>
      <trkpt lat="49.18701" lon="-0.28838">
        <ele>125.2</ele>
        <time>2024-04-07T11:54:39Z</time>
      </trkpt>
      <trkpt lat="49.18704" lon="-0.28843">
        <ele>125.2</ele>
        <time>2024-04-07T11:54:40Z</time>
      </trkpt>
      <trkpt lat="49.18707" lon="-0.28847">
        <ele>125.4</ele>
        <time>2024-04-07T11:54:41Z</time>
      </trkpt>
      <trkpt lat="49.1871" lon="-0.28852">
        <ele>125.4</ele>
        <time>2024-04-07T11:54:42Z</time>
      </trkpt>
      <trkpt lat="49.18716" lon="-0.2886">
        <ele>125.6</ele>
        <time>2024-04-07T11:54:43Z</time>
      </trkpt>
      <trkpt lat="49.1872" lon="-0.28866">
        <ele>125.8</ele>
        <time>2024-04-07T11:54:44Z</time>
      </trkpt>
      <trkpt lat="49.18724" lon="-0.28871">
        <ele>125.8</ele>
        <time>2024-04-07T11:54:45Z</time>
      </trkpt>
      <trkpt lat="49.18729" lon="-0.28877">
        <ele>126</ele>
        <time>2024-04-07T11:54:46Z</time>
      </trkpt>
      <trkpt lat="49.18732" lon="-0.28883">
        <ele>126</ele>
        <time>2024-04-07T11:54:47Z</time>
      </trkpt>
      <trkpt lat="49.18736" lon="-0.28889">
        <ele>126</ele>
        <time>2024-04-07T11:54:48Z</time>
      </trkpt>
      <trkpt lat="49.1874" lon="-0.28895">
        <ele>126</ele>
        <time>2024-04-07T11:54:49Z</time>
      </trkpt>
      <trkpt lat="49.18745" lon="-0.28901">
        <ele>126.2</ele>
        <time>2024-04-07T11:54:50Z</time>
      </trkpt>
      <trkpt lat="49.18749" lon="-0.28908">
        <ele>126.6</ele>
        <time>2024-04-07T11:54:51Z</time>
      </trkpt>
      <trkpt lat="49.18751" lon="-0.28911">
        <ele>126.6</ele>
        <time>2024-04-07T11:54:52Z</time>
      </trkpt>
      <trkpt lat="49.18753" lon="-0.28914">
        <ele>127</ele>
        <time>2024-04-07T11:54:53Z</time>
      </trkpt>
      <trkpt lat="49.18761" lon="-0.28926">
        <ele>127.2</ele>
        <time>2024-04-07T11:54:54Z</time>
      </trkpt>
      <trkpt lat="49.18763" lon="-0.28929">
        <ele>127.4</ele>
        <time>2024-04-07T11:54:55Z</time>
      </trkpt>
      <trkpt lat="49.18765" lon="-0.28932">
        <ele>127.6</ele>
        <time>2024-04-07T11:54:56Z</time>
      </trkpt>
      <trkpt lat="49.18772" lon="-0.28941">
        <ele>127.8</ele>
        <time>2024-04-07T11:54:57Z</time>
      </trkpt>
      <trkpt lat="49.18774" lon="-0.28944">
        <ele>128</ele>
        <time>2024-04-07T11:54:58Z</time>
      </trkpt>
      <trkpt lat="49.18778" lon="-0.2895">
        <ele>128</ele>
        <time>2024-04-07T11:54:59Z</time>
      </trkpt>
      <trkpt lat="49.18782" lon="-0.28957">
        <ele>128</ele>
        <time>2024-04-07T11:55:00Z</time>
      </trkpt>
      <trkpt lat="49.18786" lon="-0.28963">
        <ele>128.2</ele>
        <time>2024-04-07T11:55:01Z</time>
      </trkpt>
      <trkpt lat="49.1879" lon="-0.28969">
        <ele>128.4</ele>
        <time>2024-04-07T11:55:02Z</time>
      </trkpt>
      <trkpt lat="49.18795" lon="-0.28975">
        <ele>128.6</ele>
        <time>2024-04-07T11:55:03Z</time>
      </trkpt>
      <trkpt lat="49.18799" lon="-0.28981">
        <ele>128.6</ele>
        <time>2024-04-07T11:55:04Z</time>
      </trkpt>
      <trkpt lat="49.18803" lon="-0.28987">
        <ele>128.8</ele>
        <time>2024-04-07T11:55:05Z</time>
      </trkpt>
      <trkpt lat="49.18808" lon="-0.28993">
        <ele>128.8</ele>
        <time>2024-04-07T11:55:06Z</time>
      </trkpt>
      <trkpt lat="49.18812" lon="-0.28999">
        <ele>129</ele>
        <time>2024-04-07T11:55:07Z</time>
      </trkpt>
      <trkpt lat="49.18817" lon="-0.29005">
        <ele>129.4</ele>
        <time>2024-04-07T11:55:08Z</time>
      </trkpt>
      <trkpt lat="49.18821" lon="-0.29011">
        <ele>129.4</ele>
        <time>2024-04-07T11:55:09Z</time>
      </trkpt>
      <trkpt lat="49.18831" lon="-0.29025">
        <ele>129.4</ele>
        <time>2024-04-07T11:55:10Z</time>
      </trkpt>
      <trkpt lat="49.18835" lon="-0.29032">
        <ele>129.4</ele>
        <time>2024-04-07T11:55:11Z</time>
      </trkpt>
      <trkpt lat="49.18838" lon="-0.29038">
        <ele>129.4</ele>
        <time>2024-04-07T11:55:12Z</time>
      </trkpt>
      <trkpt lat="49.18842" lon="-0.29043">
        <ele>129.4</ele>
        <time>2024-04-07T11:55:13Z</time>
      </trkpt>
      <trkpt lat="49.18848" lon="-0.29055">
        <ele>129.4</ele>
        <time>2024-04-07T11:55:14Z</time>
      </trkpt>
      <trkpt lat="49.18852" lon="-0.29063">
        <ele>129.4</ele>
        <time>2024-04-07T11:55:15Z</time>
      </trkpt>
      <trkpt lat="49.18854" lon="-0.29067">
        <ele>129.4</ele>
        <time>2024-04-07T11:55:16Z</time>
      </trkpt>
      <trkpt lat="49.18856" lon="-0.29071">
        <ele>129.2</ele>
        <time>2024-04-07T11:55:17Z</time>
      </trkpt>
      <trkpt lat="49.18862" lon="-0.29083">
        <ele>129</ele>
        <time>2024-04-07T11:55:18Z</time>
      </trkpt>
      <trkpt lat="49.18864" lon="-0.29087">
        <ele>129</ele>
        <time>2024-04-07T11:55:19Z</time>
      </trkpt>
      <trkpt lat="49.1887" lon="-0.29099">
        <ele>128.8</ele>
        <time>2024-04-07T11:55:20Z</time>
      </trkpt>
      <trkpt lat="49.18872" lon="-0.29103">
        <ele>128.6</ele>
        <time>2024-04-07T11:55:21Z</time>
      </trkpt>
      <trkpt lat="49.18876" lon="-0.2911">
        <ele>128.6</ele>
        <time>2024-04-07T11:55:22Z</time>
      </trkpt>
      <trkpt lat="49.1888" lon="-0.29117">
        <ele>128.6</ele>
        <time>2024-04-07T11:55:23Z</time>
      </trkpt>
      <trkpt lat="49.18885" lon="-0.29127">
        <ele>128.8</ele>
        <time>2024-04-07T11:55:24Z</time>
      </trkpt>
      <trkpt lat="49.18887" lon="-0.2913">
        <ele>128.8</ele>
        <time>2024-04-07T11:55:25Z</time>
      </trkpt>
      <trkpt lat="49.18893" lon="-0.29143">
        <ele>128.8</ele>
        <time>2024-04-07T11:55:26Z</time>
      </trkpt>
      <trkpt lat="49.18896" lon="-0.29149">
        <ele>128.8</ele>
        <time>2024-04-07T11:55:27Z</time>
      </trkpt>
      <trkpt lat="49.18896" lon="-0.29149">
        <ele>129</ele>
        <time>2024-04-07T11:55:28Z</time>
      </trkpt>
      <trkpt lat="49.18902" lon="-0.2916">
        <ele>129.2</ele>
        <time>2024-04-07T11:55:29Z</time>
      </trkpt>
      <trkpt lat="49.18905" lon="-0.29165">
        <ele>129.4</ele>
        <time>2024-04-07T11:55:30Z</time>
      </trkpt>
      <trkpt lat="49.18906" lon="-0.29167">
        <ele>129.6</ele>
        <time>2024-04-07T11:55:31Z</time>
      </trkpt>
      <trkpt lat="49.18907" lon="-0.2917">
        <ele>129.8</ele>
        <time>2024-04-07T11:55:32Z</time>
      </trkpt>
      <trkpt lat="49.18912" lon="-0.29179">
        <ele>130</ele>
        <time>2024-04-07T11:55:33Z</time>
      </trkpt>
      <trkpt lat="49.18913" lon="-0.29181">
        <ele>130.2</ele>
        <time>2024-04-07T11:55:34Z</time>
      </trkpt>
      <trkpt lat="49.18914" lon="-0.29183">
        <ele>130.2</ele>
        <time>2024-04-07T11:55:35Z</time>
      </trkpt>
      <trkpt lat="49.18916" lon="-0.29187">
        <ele>130.4</ele>
        <time>2024-04-07T11:55:36Z</time>
      </trkpt>
      <trkpt lat="49.18919" lon="-0.29192">
        <ele>130.4</ele>
        <time>2024-04-07T11:55:37Z</time>
      </trkpt>
      <trkpt lat="49.18924" lon="-0.29202">
        <ele>130.4</ele>
        <time>2024-04-07T11:55:38Z</time>
      </trkpt>
      <trkpt lat="49.18924" lon="-0.29202">
        <ele>130.4</ele>
        <time>2024-04-07T11:55:39Z</time>
      </trkpt>
      <trkpt lat="49.18928" lon="-0.2921">
        <ele>130.4</ele>
        <time>2024-04-07T11:55:40Z</time>
      </trkpt>
      <trkpt lat="49.18929" lon="-0.29212">
        <ele>130.4</ele>
        <time>2024-04-07T11:55:41Z</time>
      </trkpt>
      <trkpt lat="49.18935" lon="-0.29224">
        <ele>130.2</ele>
        <time>2024-04-07T11:55:42Z</time>
      </trkpt>
      <trkpt lat="49.18936" lon="-0.29227">
        <ele>130.2</ele>
        <time>2024-04-07T11:55:43Z</time>
      </trkpt>
      <trkpt lat="49.18938" lon="-0.2923">
        <ele>129.8</ele>
        <time>2024-04-07T11:55:44Z</time>
      </trkpt>
      <trkpt lat="49.18941" lon="-0.29237">
        <ele>129.8</ele>
        <time>2024-04-07T11:55:45Z</time>
      </trkpt>
      <trkpt lat="49.18947" lon="-0.2925">
        <ele>129.8</ele>
        <time>2024-04-07T11:55:46Z</time>
      </trkpt>
      <trkpt lat="49.1895" lon="-0.29255">
        <ele>129.6</ele>
        <time>2024-04-07T11:55:47Z</time>
      </trkpt>
      <trkpt lat="49.18953" lon="-0.2926">
        <ele>129.6</ele>
        <time>2024-04-07T11:55:48Z</time>
      </trkpt>
      <trkpt lat="49.18958" lon="-0.2927">
        <ele>129.6</ele>
        <time>2024-04-07T11:55:49Z</time>
      </trkpt>
      <trkpt lat="49.18961" lon="-0.29275">
        <ele>129.6</ele>
        <time>2024-04-07T11:55:50Z</time>
      </trkpt>
      <trkpt lat="49.18964" lon="-0.29281">
        <ele>129.8</ele>
        <time>2024-04-07T11:55:51Z</time>
      </trkpt>
      <trkpt lat="49.18969" lon="-0.29291">
        <ele>129.8</ele>
        <time>2024-04-07T11:55:52Z</time>
      </trkpt>
      <trkpt lat="49.18971" lon="-0.29295">
        <ele>129.8</ele>
        <time>2024-04-07T11:55:53Z</time>
      </trkpt>
      <trkpt lat="49.18973" lon="-0.29298">
        <ele>129.8</ele>
        <time>2024-04-07T11:55:54Z</time>
      </trkpt>
      <trkpt lat="49.18981" lon="-0.29314">
        <ele>129.8</ele>
        <time>2024-04-07T11:55:55Z</time>
      </trkpt>
      <trkpt lat="49.18985" lon="-0.29321">
        <ele>130</ele>
        <time>2024-04-07T11:55:56Z</time>
      </trkpt>
      <trkpt lat="49.18987" lon="-0.29325">
        <ele>130.2</ele>
        <time>2024-04-07T11:55:57Z</time>
      </trkpt>
      <trkpt lat="49.18989" lon="-0.29329">
        <ele>130.4</ele>
        <time>2024-04-07T11:55:58Z</time>
      </trkpt>
      <trkpt lat="49.18997" lon="-0.29344">
        <ele>130.4</ele>
        <time>2024-04-07T11:55:59Z</time>
      </trkpt>
      <trkpt lat="49.18999" lon="-0.29348">
        <ele>130.4</ele>
        <time>2024-04-07T11:56:00Z</time>
      </trkpt>
      <trkpt lat="49.19001" lon="-0.29352">
        <ele>130.4</ele>
        <time>2024-04-07T11:56:01Z</time>
      </trkpt>
      <trkpt lat="49.19005" lon="-0.2936">
        <ele>130.4</ele>
        <time>2024-04-07T11:56:02Z</time>
      </trkpt>
      <trkpt lat="49.19009" lon="-0.29368">
        <ele>130.6</ele>
        <time>2024-04-07T11:56:03Z</time>
      </trkpt>
      <trkpt lat="49.19018" lon="-0.29384">
        <ele>130.6</ele>
        <time>2024-04-07T11:56:04Z</time>
      </trkpt>
      <trkpt lat="49.19022" lon="-0.29392">
        <ele>130.8</ele>
        <time>2024-04-07T11:56:05Z</time>
      </trkpt>
      <trkpt lat="49.19026" lon="-0.294">
        <ele>130.6</ele>
        <time>2024-04-07T11:56:06Z</time>
      </trkpt>
      <trkpt lat="49.1903" lon="-0.29408">
        <ele>130.6</ele>
        <time>2024-04-07T11:56:07Z</time>
      </trkpt>
      <trkpt lat="49.19034" lon="-0.29415">
        <ele>130.6</ele>
        <time>2024-04-07T11:56:08Z</time>
      </trkpt>
      <trkpt lat="49.19037" lon="-0.29419">
        <ele>130.8</ele>
        <time>2024-04-07T11:56:09Z</time>
      </trkpt>
      <trkpt lat="49.19039" lon="-0.29423">
        <ele>130.8</ele>
        <time>2024-04-07T11:56:10Z</time>
      </trkpt>
      <trkpt lat="49.19043" lon="-0.2943">
        <ele>130.8</ele>
        <time>2024-04-07T11:56:11Z</time>
      </trkpt>
      <trkpt lat="49.19043" lon="-0.2943">
        <ele>130.8</ele>
        <time>2024-04-07T11:56:12Z</time>
      </trkpt>
      <trkpt lat="49.22713" lon="-0.24545">
        <ele>109.4</ele>
        <time>2024-04-07T12:43:57Z</time>
      </trkpt>
      <trkpt lat="49.2272" lon="-0.24541">
        <ele>109.4</ele>
        <time>2024-04-07T12:43:58Z</time>
      </trkpt>
      <trkpt lat="49.22728" lon="-0.24537">
        <ele>109.4</ele>
        <time>2024-04-07T12:43:59Z</time>
      </trkpt>
      <trkpt lat="49.22735" lon="-0.24533">
        <ele>109.4</ele>
        <time>2024-04-07T12:44:00Z</time>
      </trkpt>
      <trkpt lat="49.22788" lon="-0.24492">
        <ele>109.4</ele>
        <time>2024-04-07T12:44:07Z</time>
      </trkpt>
      <trkpt lat="49.22791" lon="-0.24488">
        <ele>109.4</ele>
        <time>2024-04-07T12:44:08Z</time>
      </trkpt>
      <trkpt lat="49.22797" lon="-0.24482">
        <ele>109.4</ele>
        <time>2024-04-07T12:44:09Z</time>
      </trkpt>
      <trkpt lat="49.22803" lon="-0.24476">
        <ele>109.4</ele>
        <time>2024-04-07T12:44:10Z</time>
      </trkpt>
      <trkpt lat="49.2281" lon="-0.24469">
        <ele>109.4</ele>
        <time>2024-04-07T12:44:11Z</time>
      </trkpt>
      <trkpt lat="49.22816" lon="-0.24463">
        <ele>109.4</ele>
        <time>2024-04-07T12:44:12Z</time>
      </trkpt>
      <trkpt lat="49.22822" lon="-0.24457">
        <ele>109.4</ele>
        <time>2024-04-07T12:44:13Z</time>
      </trkpt>
      <trkpt lat="49.22828" lon="-0.24448">
        <ele>109.4</ele>
        <time>2024-04-07T12:44:14Z</time>
      </trkpt>
      <trkpt lat="49.22834" lon="-0.24441">
        <ele>109.4</ele>
        <time>2024-04-07T12:44:15Z</time>
      </trkpt>
      <trkpt lat="49.22839" lon="-0.24435">
        <ele>109.4</ele>
        <time>2024-04-07T12:44:16Z</time>
      </trkpt>
      <trkpt lat="49.22844" lon="-0.2443">
        <ele>109.4</ele>
        <time>2024-04-07T12:44:17Z</time>
      </trkpt>
      <trkpt lat="49.22849" lon="-0.24425">
        <ele>109.4</ele>
        <time>2024-04-07T12:44:18Z</time>
      </trkpt>
      <trkpt lat="49.22862" lon="-0.24412">
        <ele>109.4</ele>
        <time>2024-04-07T12:44:21Z</time>
      </trkpt>
      <trkpt lat="49.22862" lon="-0.24412">
        <ele>109.4</ele>
        <time>2024-04-07T12:44:22Z</time>
      </trkpt>
      <trkpt lat="49.22864" lon="-0.24409">
        <ele>109.4</ele>
        <time>2024-04-07T12:44:23Z</time>
      </trkpt>
      <trkpt lat="49.22867" lon="-0.24406">
        <ele>109.4</ele>
        <time>2024-04-07T12:44:24Z</time>
      </trkpt>
      <trkpt lat="49.22869" lon="-0.24404">
        <ele>109.4</ele>
        <time>2024-04-07T12:44:25Z</time>
      </trkpt>
      <trkpt lat="49.22872" lon="-0.24401">
        <ele>109.4</ele>
        <time>2024-04-07T12:44:26Z</time>
      </trkpt>
      <trkpt lat="49.22875" lon="-0.24397">
        <ele>109.4</ele>
        <time>2024-04-07T12:44:27Z</time>
      </trkpt>
      <trkpt lat="49.22878" lon="-0.24393">
        <ele>109.4</ele>
        <time>2024-04-07T12:44:28Z</time>
      </trkpt>
      <trkpt lat="49.22881" lon="-0.24388">
        <ele>109.4</ele>
        <time>2024-04-07T12:44:29Z</time>
      </trkpt>
      <trkpt lat="49.22885" lon="-0.24383">
        <ele>109.4</ele>
        <time>2024-04-07T12:44:30Z</time>
      </trkpt>
      <trkpt lat="49.22889" lon="-0.24377">
        <ele>109.4</ele>
        <time>2024-04-07T12:44:31Z</time>
      </trkpt>
      <trkpt lat="49.22893" lon="-0.24371">
        <ele>109.4</ele>
        <time>2024-04-07T12:44:32Z</time>
      </trkpt>
      <trkpt lat="49.22897" lon="-0.24366">
        <ele>109.4</ele>
        <time>2024-04-07T12:44:33Z</time>
      </trkpt>
      <trkpt lat="49.22901" lon="-0.2436">
        <ele>109.4</ele>
        <time>2024-04-07T12:44:34Z</time>
      </trkpt>
      <trkpt lat="49.22905" lon="-0.24354">
        <ele>109.4</ele>
        <time>2024-04-07T12:44:35Z</time>
      </trkpt>
      <trkpt lat="49.2291" lon="-0.24347">
        <ele>109.4</ele>
        <time>2024-04-07T12:44:36Z</time>
      </trkpt>
      <trkpt lat="49.22914" lon="-0.24341">
        <ele>109.4</ele>
        <time>2024-04-07T12:44:37Z</time>
      </trkpt>
      <trkpt lat="49.22918" lon="-0.24334">
        <ele>109.4</ele>
        <time>2024-04-07T12:44:38Z</time>
      </trkpt>
      <trkpt lat="49.22923" lon="-0.24328">
        <ele>109.4</ele>
        <time>2024-04-07T12:44:39Z</time>
      </trkpt>
      <trkpt lat="49.22928" lon="-0.24322">
        <ele>109.4</ele>
        <time>2024-04-07T12:44:40Z</time>
      </trkpt>
      <trkpt lat="49.22932" lon="-0.24316">
        <ele>109.4</ele>
        <time>2024-04-07T12:44:41Z</time>
      </trkpt>
      <trkpt lat="49.22937" lon="-0.2431">
        <ele>109.4</ele>
        <time>2024-04-07T12:44:42Z</time>
      </trkpt>
      <trkpt lat="49.22942" lon="-0.24304">
        <ele>109.4</ele>
        <time>2024-04-07T12:44:43Z</time>
      </trkpt>
      <trkpt lat="49.22947" lon="-0.24299">
        <ele>109.4</ele>
        <time>2024-04-07T12:44:44Z</time>
      </trkpt>
      <trkpt lat="49.22953" lon="-0.24293">
        <ele>109.4</ele>
        <time>2024-04-07T12:44:45Z</time>
      </trkpt>
      <trkpt lat="49.22959" lon="-0.24289">
        <ele>109.4</ele>
        <time>2024-04-07T12:44:46Z</time>
      </trkpt>
      <trkpt lat="49.22964" lon="-0.24284">
        <ele>109.4</ele>
        <time>2024-04-07T12:44:47Z</time>
      </trkpt>
      <trkpt lat="49.2297" lon="-0.2428">
        <ele>109.4</ele>
        <time>2024-04-07T12:44:48Z</time>
      </trkpt>
      <trkpt lat="49.22976" lon="-0.24276">
        <ele>109.4</ele>
        <time>2024-04-07T12:44:49Z</time>
      </trkpt>
      <trkpt lat="49.22983" lon="-0.24273">
        <ele>109.4</ele>
        <time>2024-04-07T12:44:50Z</time>
      </trkpt>
      <trkpt lat="49.22989" lon="-0.2427">
        <ele>109.4</ele>
        <time>2024-04-07T12:44:51Z</time>
      </trkpt>
      <trkpt lat="49.22996" lon="-0.24266">
        <ele>108.8</ele>
        <time>2024-04-07T12:44:52Z</time>
      </trkpt>
      <trkpt lat="49.23003" lon="-0.24263">
        <ele>108.8</ele>
        <time>2024-04-07T12:44:53Z</time>
      </trkpt>
      <trkpt lat="49.2301" lon="-0.2426">
        <ele>108.8</ele>
        <time>2024-04-07T12:44:54Z</time>
      </trkpt>
      <trkpt lat="49.23017" lon="-0.24256">
        <ele>108.8</ele>
        <time>2024-04-07T12:44:55Z</time>
      </trkpt>
      <trkpt lat="49.23024" lon="-0.24253">
        <ele>108.8</ele>
        <time>2024-04-07T12:44:56Z</time>
      </trkpt>
      <trkpt lat="49.23032" lon="-0.24249">
        <ele>108.8</ele>
        <time>2024-04-07T12:44:57Z</time>
      </trkpt>
      <trkpt lat="49.23039" lon="-0.24246">
        <ele>108.8</ele>
        <time>2024-04-07T12:44:58Z</time>
      </trkpt>
      <trkpt lat="49.23047" lon="-0.24242">
        <ele>108.8</ele>
        <time>2024-04-07T12:44:59Z</time>
      </trkpt>
      <trkpt lat="49.23054" lon="-0.24238">
        <ele>108.8</ele>
        <time>2024-04-07T12:45:00Z</time>
      </trkpt>
      <trkpt lat="49.23062" lon="-0.24234">
        <ele>108.8</ele>
        <time>2024-04-07T12:45:01Z</time>
      </trkpt>
      <trkpt lat="49.2307" lon="-0.2423">
        <ele>108.8</ele>
        <time>2024-04-07T12:45:02Z</time>
      </trkpt>
      <trkpt lat="49.23078" lon="-0.24226">
        <ele>108.8</ele>
        <time>2024-04-07T12:45:03Z</time>
      </trkpt>
      <trkpt lat="49.23085" lon="-0.24222">
        <ele>108.8</ele>
        <time>2024-04-07T12:45:04Z</time>
      </trkpt>
      <trkpt lat="49.23093" lon="-0.24218">
        <ele>108.8</ele>
        <time>2024-04-07T12:45:05Z</time>
      </trkpt>
      <trkpt lat="49.23101" lon="-0.24214">
        <ele>108.8</ele>
        <time>2024-04-07T12:45:06Z</time>
      </trkpt>
      <trkpt lat="49.23109" lon="-0.2421">
        <ele>108.8</ele>
        <time>2024-04-07T12:45:07Z</time>
      </trkpt>
      <trkpt lat="49.23117" lon="-0.24206">
        <ele>108.8</ele>
        <time>2024-04-07T12:45:08Z</time>
      </trkpt>
      <trkpt lat="49.23125" lon="-0.24202">
        <ele>108.8</ele>
        <time>2024-04-07T12:45:09Z</time>
      </trkpt>
      <trkpt lat="49.23133" lon="-0.24199">
        <ele>108.8</ele>
        <time>2024-04-07T12:45:10Z</time>
      </trkpt>
      <trkpt lat="49.23141" lon="-0.24195">
        <ele>108.8</ele>
        <time>2024-04-07T12:45:11Z</time>
      </trkpt>
      <trkpt lat="49.23148" lon="-0.24191">
        <ele>108.8</ele>
        <time>2024-04-07T12:45:12Z</time>
      </trkpt>
      <trkpt lat="49.23156" lon="-0.24187">
        <ele>108.8</ele>
        <time>2024-04-07T12:45:13Z</time>
      </trkpt>
      <trkpt lat="49.23163" lon="-0.24183">
        <ele>108.8</ele>
        <time>2024-04-07T12:45:14Z</time>
      </trkpt>
      <trkpt lat="49.2317" lon="-0.24178">
        <ele>108.8</ele>
        <time>2024-04-07T12:45:15Z</time>
      </trkpt>
      <trkpt lat="49.23178" lon="-0.24174">
        <ele>108.8</ele>
        <time>2024-04-07T12:45:16Z</time>
      </trkpt>
      <trkpt lat="49.23185" lon="-0.24168">
        <ele>108.8</ele>
        <time>2024-04-07T12:45:17Z</time>
      </trkpt>
      <trkpt lat="49.23191" lon="-0.24162">
        <ele>108.8</ele>
        <time>2024-04-07T12:45:18Z</time>
      </trkpt>
      <trkpt lat="49.23198" lon="-0.24156">
        <ele>108.8</ele>
        <time>2024-04-07T12:45:19Z</time>
      </trkpt>
      <trkpt lat="49.23204" lon="-0.2415">
        <ele>108.8</ele>
        <time>2024-04-07T12:45:20Z</time>
      </trkpt>
      <trkpt lat="49.2321" lon="-0.24143">
        <ele>108.8</ele>
        <time>2024-04-07T12:45:21Z</time>
      </trkpt>
      <trkpt lat="49.23216" lon="-0.24136">
        <ele>108.8</ele>
        <time>2024-04-07T12:45:22Z</time>
      </trkpt>
      <trkpt lat="49.23221" lon="-0.24129">
        <ele>108.8</ele>
        <time>2024-04-07T12:45:23Z</time>
      </trkpt>
      <trkpt lat="49.23227" lon="-0.24122">
        <ele>108.8</ele>
        <time>2024-04-07T12:45:24Z</time>
      </trkpt>
      <trkpt lat="49.23232" lon="-0.24115">
        <ele>108.8</ele>
        <time>2024-04-07T12:45:25Z</time>
      </trkpt>
      <trkpt lat="49.23237" lon="-0.24108">
        <ele>108.8</ele>
        <time>2024-04-07T12:45:26Z</time>
      </trkpt>
      <trkpt lat="49.23242" lon="-0.24101">
        <ele>108.8</ele>
        <time>2024-04-07T12:45:27Z</time>
      </trkpt>
      <trkpt lat="49.23248" lon="-0.24094">
        <ele>108.8</ele>
        <time>2024-04-07T12:45:28Z</time>
      </trkpt>
      <trkpt lat="49.23253" lon="-0.24087">
        <ele>108.8</ele>
        <time>2024-04-07T12:45:29Z</time>
      </trkpt>
      <trkpt lat="49.23258" lon="-0.24081">
        <ele>108.8</ele>
        <time>2024-04-07T12:45:30Z</time>
      </trkpt>
      <trkpt lat="49.23263" lon="-0.24074">
        <ele>108.8</ele>
        <time>2024-04-07T12:45:31Z</time>
      </trkpt>
      <trkpt lat="49.23268" lon="-0.24068">
        <ele>108.8</ele>
        <time>2024-04-07T12:45:32Z</time>
      </trkpt>
      <trkpt lat="49.23274" lon="-0.24061">
        <ele>108.8</ele>
        <time>2024-04-07T12:45:33Z</time>
      </trkpt>
      <trkpt lat="49.23278" lon="-0.24055">
        <ele>108.8</ele>
        <time>2024-04-07T12:45:34Z</time>
      </trkpt>
      <trkpt lat="49.23283" lon="-0.24049">
        <ele>108.8</ele>
        <time>2024-04-07T12:45:35Z</time>
      </trkpt>
      <trkpt lat="49.23289" lon="-0.24042">
        <ele>108.8</ele>
        <time>2024-04-07T12:45:36Z</time>
      </trkpt>
      <trkpt lat="49.23294" lon="-0.24036">
        <ele>108.8</ele>
        <time>2024-04-07T12:45:37Z</time>
      </trkpt>
      <trkpt lat="49.23299" lon="-0.24029">
        <ele>108.8</ele>
        <time>2024-04-07T12:45:38Z</time>
      </trkpt>
      <trkpt lat="49.23304" lon="-0.24023">
        <ele>108.8</ele>
        <time>2024-04-07T12:45:39Z</time>
      </trkpt>
      <trkpt lat="49.23309" lon="-0.24017">
        <ele>108.8</ele>
        <time>2024-04-07T12:45:40Z</time>
      </trkpt>
      <trkpt lat="49.23314" lon="-0.24011">
        <ele>108.8</ele>
        <time>2024-04-07T12:45:41Z</time>
      </trkpt>
      <trkpt lat="49.23319" lon="-0.24005">
        <ele>108.8</ele>
        <time>2024-04-07T12:45:42Z</time>
      </trkpt>
      <trkpt lat="49.23324" lon="-0.23999">
        <ele>108.8</ele>
        <time>2024-04-07T12:45:43Z</time>
      </trkpt>
      <trkpt lat="49.2333" lon="-0.23994">
        <ele>108.8</ele>
        <time>2024-04-07T12:45:44Z</time>
      </trkpt>
      <trkpt lat="49.23335" lon="-0.23988">
        <ele>108.8</ele>
        <time>2024-04-07T12:45:45Z</time>
      </trkpt>
      <trkpt lat="49.2334" lon="-0.23983">
        <ele>108.8</ele>
        <time>2024-04-07T12:45:46Z</time>
      </trkpt>
      <trkpt lat="49.23345" lon="-0.23978">
        <ele>108.8</ele>
        <time>2024-04-07T12:45:47Z</time>
      </trkpt>
      <trkpt lat="49.23351" lon="-0.23973">
        <ele>108.8</ele>
        <time>2024-04-07T12:45:48Z</time>
      </trkpt>
      <trkpt lat="49.23356" lon="-0.23968">
        <ele>108.8</ele>
        <time>2024-04-07T12:45:49Z</time>
      </trkpt>
      <trkpt lat="49.23361" lon="-0.23964">
        <ele>108.8</ele>
        <time>2024-04-07T12:45:50Z</time>
      </trkpt>
      <trkpt lat="49.23367" lon="-0.2396">
        <ele>108.8</ele>
        <time>2024-04-07T12:45:51Z</time>
      </trkpt>
      <trkpt lat="49.23372" lon="-0.23956">
        <ele>108.8</ele>
        <time>2024-04-07T12:45:52Z</time>
      </trkpt>
      <trkpt lat="49.23378" lon="-0.23952">
        <ele>108.8</ele>
        <time>2024-04-07T12:45:53Z</time>
      </trkpt>
      <trkpt lat="49.23383" lon="-0.23948">
        <ele>108.8</ele>
        <time>2024-04-07T12:45:54Z</time>
      </trkpt>
      <trkpt lat="49.23389" lon="-0.23945">
        <ele>108.8</ele>
        <time>2024-04-07T12:45:55Z</time>
      </trkpt>
      <trkpt lat="49.23395" lon="-0.23942">
        <ele>108.8</ele>
        <time>2024-04-07T12:45:56Z</time>
      </trkpt>
      <trkpt lat="49.23401" lon="-0.23938">
        <ele>108.8</ele>
        <time>2024-04-07T12:45:57Z</time>
      </trkpt>
      <trkpt lat="49.23406" lon="-0.23935">
        <ele>108.8</ele>
        <time>2024-04-07T12:45:58Z</time>
      </trkpt>
      <trkpt lat="49.23412" lon="-0.23932">
        <ele>108.8</ele>
        <time>2024-04-07T12:45:59Z</time>
      </trkpt>
      <trkpt lat="49.23418" lon="-0.23928">
        <ele>108.8</ele>
        <time>2024-04-07T12:46:00Z</time>
      </trkpt>
      <trkpt lat="49.23424" lon="-0.23925">
        <ele>108.8</ele>
        <time>2024-04-07T12:46:01Z</time>
      </trkpt>
      <trkpt lat="49.2343" lon="-0.23922">
        <ele>108.8</ele>
        <time>2024-04-07T12:46:02Z</time>
      </trkpt>
      <trkpt lat="49.23436" lon="-0.23918">
        <ele>108.8</ele>
        <time>2024-04-07T12:46:03Z</time>
      </trkpt>
      <trkpt lat="49.23441" lon="-0.23914">
        <ele>108.8</ele>
        <time>2024-04-07T12:46:04Z</time>
      </trkpt>
      <trkpt lat="49.23447" lon="-0.2391">
        <ele>108.8</ele>
        <time>2024-04-07T12:46:05Z</time>
      </trkpt>
      <trkpt lat="49.23452" lon="-0.23906">
        <ele>108.8</ele>
        <time>2024-04-07T12:46:06Z</time>
      </trkpt>
      <trkpt lat="49.23458" lon="-0.23902">
        <ele>108.8</ele>
        <time>2024-04-07T12:46:07Z</time>
      </trkpt>
      <trkpt lat="49.23463" lon="-0.23897">
        <ele>108.8</ele>
        <time>2024-04-07T12:46:08Z</time>
      </trkpt>
      <trkpt lat="49.23469" lon="-0.23893">
        <ele>108.8</ele>
        <time>2024-04-07T12:46:09Z</time>
      </trkpt>
      <trkpt lat="49.23474" lon="-0.23888">
        <ele>108.8</ele>
        <time>2024-04-07T12:46:10Z</time>
      </trkpt>
      <trkpt lat="49.2348" lon="-0.23883">
        <ele>108.8</ele>
        <time>2024-04-07T12:46:11Z</time>
      </trkpt>
      <trkpt lat="49.23485" lon="-0.23879">
        <ele>108.8</ele>
        <time>2024-04-07T12:46:12Z</time>
      </trkpt>
      <trkpt lat="49.23491" lon="-0.23874">
        <ele>108.8</ele>
        <time>2024-04-07T12:46:13Z</time>
      </trkpt>
      <trkpt lat="49.23496" lon="-0.23869">
        <ele>108.8</ele>
        <time>2024-04-07T12:46:14Z</time>
      </trkpt>
      <trkpt lat="49.23502" lon="-0.23865">
        <ele>108.8</ele>
        <time>2024-04-07T12:46:15Z</time>
      </trkpt>
      <trkpt lat="49.23507" lon="-0.2386">
        <ele>108.8</ele>
        <time>2024-04-07T12:46:16Z</time>
      </trkpt>
      <trkpt lat="49.23513" lon="-0.23856">
        <ele>108.8</ele>
        <time>2024-04-07T12:46:17Z</time>
      </trkpt>
      <trkpt lat="49.23519" lon="-0.23852">
        <ele>108.8</ele>
        <time>2024-04-07T12:46:18Z</time>
      </trkpt>
      <trkpt lat="49.23525" lon="-0.23848">
        <ele>108.8</ele>
        <time>2024-04-07T12:46:19Z</time>
      </trkpt>
      <trkpt lat="49.2353" lon="-0.23844">
        <ele>108.8</ele>
        <time>2024-04-07T12:46:20Z</time>
      </trkpt>
      <trkpt lat="49.23536" lon="-0.2384">
        <ele>108.8</ele>
        <time>2024-04-07T12:46:21Z</time>
      </trkpt>
      <trkpt lat="49.23542" lon="-0.23837">
        <ele>108.8</ele>
        <time>2024-04-07T12:46:22Z</time>
      </trkpt>
      <trkpt lat="49.23548" lon="-0.23833">
        <ele>108.8</ele>
        <time>2024-04-07T12:46:23Z</time>
      </trkpt>
      <trkpt lat="49.23554" lon="-0.23829">
        <ele>108.8</ele>
        <time>2024-04-07T12:46:24Z</time>
      </trkpt>
      <trkpt lat="49.2356" lon="-0.23825">
        <ele>108.8</ele>
        <time>2024-04-07T12:46:25Z</time>
      </trkpt>
      <trkpt lat="49.23566" lon="-0.23822">
        <ele>108.8</ele>
        <time>2024-04-07T12:46:26Z</time>
      </trkpt>
      <trkpt lat="49.23572" lon="-0.23818">
        <ele>108.8</ele>
        <time>2024-04-07T12:46:27Z</time>
      </trkpt>
      <trkpt lat="49.23578" lon="-0.23815">
        <ele>108.8</ele>
        <time>2024-04-07T12:46:28Z</time>
      </trkpt>
      <trkpt lat="49.23584" lon="-0.23812">
        <ele>108.8</ele>
        <time>2024-04-07T12:46:29Z</time>
      </trkpt>
      <trkpt lat="49.2359" lon="-0.23809">
        <ele>108.8</ele>
        <time>2024-04-07T12:46:30Z</time>
      </trkpt>
      <trkpt lat="49.23595" lon="-0.23806">
        <ele>108.8</ele>
        <time>2024-04-07T12:46:31Z</time>
      </trkpt>
      <trkpt lat="49.236" lon="-0.23803">
        <ele>108.8</ele>
        <time>2024-04-07T12:46:32Z</time>
      </trkpt>
      <trkpt lat="49.23606" lon="-0.23801">
        <ele>108.8</ele>
        <time>2024-04-07T12:46:33Z</time>
      </trkpt>
      <trkpt lat="49.23611" lon="-0.23799">
        <ele>108.8</ele>
        <time>2024-04-07T12:46:34Z</time>
      </trkpt>
      <trkpt lat="49.23616" lon="-0.23798">
        <ele>108.8</ele>
        <time>2024-04-07T12:46:35Z</time>
      </trkpt>
      <trkpt lat="49.23621" lon="-0.23798">
        <ele>108.8</ele>
        <time>2024-04-07T12:46:36Z</time>
      </trkpt>
      <trkpt lat="49.23624" lon="-0.23797">
        <ele>108.8</ele>
        <time>2024-04-07T12:46:37Z</time>
      </trkpt>
      <trkpt lat="49.23627" lon="-0.23797">
        <ele>108.8</ele>
        <time>2024-04-07T12:46:38Z</time>
      </trkpt>
      <trkpt lat="49.23629" lon="-0.23797">
        <ele>108.8</ele>
        <time>2024-04-07T12:46:39Z</time>
      </trkpt>
      <trkpt lat="49.23631" lon="-0.23797">
        <ele>108.8</ele>
        <time>2024-04-07T12:46:40Z</time>
      </trkpt>
      <trkpt lat="49.23632" lon="-0.23797">
        <ele>108.8</ele>
        <time>2024-04-07T12:46:41Z</time>
      </trkpt>
      <trkpt lat="49.23633" lon="-0.23796">
        <ele>108.8</ele>
        <time>2024-04-07T12:46:42Z</time>
      </trkpt>
      <trkpt lat="49.23634" lon="-0.23796">
        <ele>108.8</ele>
        <time>2024-04-07T12:46:43Z</time>
      </trkpt>
      <trkpt lat="49.23636" lon="-0.23797">
        <ele>108.8</ele>
        <time>2024-04-07T12:46:44Z</time>
      </trkpt>
      <trkpt lat="49.23638" lon="-0.23798">
        <ele>108.8</ele>
        <time>2024-04-07T12:46:45Z</time>
      </trkpt>
      <trkpt lat="49.23641" lon="-0.238">
        <ele>108.8</ele>
        <time>2024-04-07T12:46:46Z</time>
      </trkpt>
      <trkpt lat="49.23644" lon="-0.23801">
        <ele>108.8</ele>
        <time>2024-04-07T12:46:47Z</time>
      </trkpt>
      <trkpt lat="49.23648" lon="-0.23801">
        <ele>108.8</ele>
        <time>2024-04-07T12:46:48Z</time>
      </trkpt>
      <trkpt lat="49.23652" lon="-0.23801">
        <ele>108.8</ele>
        <time>2024-04-07T12:46:49Z</time>
      </trkpt>
      <trkpt lat="49.23657" lon="-0.23801">
        <ele>108.8</ele>
        <time>2024-04-07T12:46:50Z</time>
      </trkpt>
      <trkpt lat="49.23662" lon="-0.238">
        <ele>108.8</ele>
        <time>2024-04-07T12:46:51Z</time>
      </trkpt>
      <trkpt lat="49.23667" lon="-0.23798">
        <ele>108.8</ele>
        <time>2024-04-07T12:46:52Z</time>
      </trkpt>
      <trkpt lat="49.23673" lon="-0.23796">
        <ele>108.8</ele>
        <time>2024-04-07T12:46:53Z</time>
      </trkpt>
      <trkpt lat="49.23678" lon="-0.23793">
        <ele>108.8</ele>
        <time>2024-04-07T12:46:54Z</time>
      </trkpt>
      <trkpt lat="49.23683" lon="-0.2379">
        <ele>108.8</ele>
        <time>2024-04-07T12:46:55Z</time>
      </trkpt>
      <trkpt lat="49.23689" lon="-0.23787">
        <ele>108.8</ele>
        <time>2024-04-07T12:46:56Z</time>
      </trkpt>
      <trkpt lat="49.23694" lon="-0.23784">
        <ele>108.8</ele>
        <time>2024-04-07T12:46:57Z</time>
      </trkpt>
      <trkpt lat="49.23699" lon="-0.23781">
        <ele>108.8</ele>
        <time>2024-04-07T12:46:58Z</time>
      </trkpt>
      <trkpt lat="49.23705" lon="-0.23778">
        <ele>108.8</ele>
        <time>2024-04-07T12:46:59Z</time>
      </trkpt>
      <trkpt lat="49.2371" lon="-0.23774">
        <ele>108.8</ele>
        <time>2024-04-07T12:47:00Z</time>
      </trkpt>
      <trkpt lat="49.23715" lon="-0.2377">
        <ele>108.8</ele>
        <time>2024-04-07T12:47:01Z</time>
      </trkpt>
      <trkpt lat="49.23721" lon="-0.23766">
        <ele>108.8</ele>
        <time>2024-04-07T12:47:02Z</time>
      </trkpt>
      <trkpt lat="49.23726" lon="-0.23762">
        <ele>108.8</ele>
        <time>2024-04-07T12:47:03Z</time>
      </trkpt>
      <trkpt lat="49.23732" lon="-0.23758">
        <ele>108.8</ele>
        <time>2024-04-07T12:47:04Z</time>
      </trkpt>
      <trkpt lat="49.23738" lon="-0.23754">
        <ele>108.8</ele>
        <time>2024-04-07T12:47:05Z</time>
      </trkpt>
      <trkpt lat="49.23743" lon="-0.2375">
        <ele>108.8</ele>
        <time>2024-04-07T12:47:06Z</time>
      </trkpt>
      <trkpt lat="49.23749" lon="-0.23746">
        <ele>108.8</ele>
        <time>2024-04-07T12:47:07Z</time>
      </trkpt>
      <trkpt lat="49.23755" lon="-0.23742">
        <ele>108.8</ele>
        <time>2024-04-07T12:47:08Z</time>
      </trkpt>
      <trkpt lat="49.23761" lon="-0.23738">
        <ele>108.8</ele>
        <time>2024-04-07T12:47:09Z</time>
      </trkpt>
      <trkpt lat="49.23766" lon="-0.23734">
        <ele>108.8</ele>
        <time>2024-04-07T12:47:10Z</time>
      </trkpt>
      <trkpt lat="49.23772" lon="-0.2373">
        <ele>108.8</ele>
        <time>2024-04-07T12:47:11Z</time>
      </trkpt>
      <trkpt lat="49.23778" lon="-0.23726">
        <ele>108.8</ele>
        <time>2024-04-07T12:47:12Z</time>
      </trkpt>
      <trkpt lat="49.23784" lon="-0.23722">
        <ele>108.8</ele>
        <time>2024-04-07T12:47:13Z</time>
      </trkpt>
      <trkpt lat="49.2379" lon="-0.23718">
        <ele>108.8</ele>
        <time>2024-04-07T12:47:14Z</time>
      </trkpt>
      <trkpt lat="49.23795" lon="-0.23714">
        <ele>108.8</ele>
        <time>2024-04-07T12:47:15Z</time>
      </trkpt>
      <trkpt lat="49.23801" lon="-0.23711">
        <ele>108.8</ele>
        <time>2024-04-07T12:47:16Z</time>
      </trkpt>
      <trkpt lat="49.23807" lon="-0.23708">
        <ele>108.8</ele>
        <time>2024-04-07T12:47:17Z</time>
      </trkpt>
      <trkpt lat="49.23813" lon="-0.23705">
        <ele>108.8</ele>
        <time>2024-04-07T12:47:18Z</time>
      </trkpt>
      <trkpt lat="49.23818" lon="-0.23702">
        <ele>108.8</ele>
        <time>2024-04-07T12:47:19Z</time>
      </trkpt>
      <trkpt lat="49.23823" lon="-0.23699">
        <ele>108.8</ele>
        <time>2024-04-07T12:47:20Z</time>
      </trkpt>
      <trkpt lat="49.23829" lon="-0.23697">
        <ele>108.8</ele>
        <time>2024-04-07T12:47:21Z</time>
      </trkpt>
      <trkpt lat="49.23834" lon="-0.23694">
        <ele>108.8</ele>
        <time>2024-04-07T12:47:22Z</time>
      </trkpt>
      <trkpt lat="49.23838" lon="-0.23692">
        <ele>108.8</ele>
        <time>2024-04-07T12:47:23Z</time>
      </trkpt>
      <trkpt lat="49.23843" lon="-0.23689">
        <ele>108.8</ele>
        <time>2024-04-07T12:47:24Z</time>
      </trkpt>
      <trkpt lat="49.23848" lon="-0.23687">
        <ele>108.8</ele>
        <time>2024-04-07T12:47:25Z</time>
      </trkpt>
      <trkpt lat="49.23853" lon="-0.23685">
        <ele>108.8</ele>
        <time>2024-04-07T12:47:26Z</time>
      </trkpt>
      <trkpt lat="49.23858" lon="-0.23683">
        <ele>108.8</ele>
        <time>2024-04-07T12:47:27Z</time>
      </trkpt>
      <trkpt lat="49.23863" lon="-0.23681">
        <ele>108.8</ele>
        <time>2024-04-07T12:47:28Z</time>
      </trkpt>
      <trkpt lat="49.23867" lon="-0.23679">
        <ele>108.8</ele>
        <time>2024-04-07T12:47:29Z</time>
      </trkpt>
      <trkpt lat="49.23872" lon="-0.23677">
        <ele>108.8</ele>
        <time>2024-04-07T12:47:30Z</time>
      </trkpt>
      <trkpt lat="49.23877" lon="-0.23675">
        <ele>108.8</ele>
        <time>2024-04-07T12:47:31Z</time>
      </trkpt>
      <trkpt lat="49.23882" lon="-0.23673">
        <ele>108.8</ele>
        <time>2024-04-07T12:47:32Z</time>
      </trkpt>
      <trkpt lat="49.23887" lon="-0.23671">
        <ele>108.8</ele>
        <time>2024-04-07T12:47:33Z</time>
      </trkpt>
      <trkpt lat="49.23892" lon="-0.23669">
        <ele>108.8</ele>
        <time>2024-04-07T12:47:34Z</time>
      </trkpt>
      <trkpt lat="49.23898" lon="-0.23666">
        <ele>108.8</ele>
        <time>2024-04-07T12:47:35Z</time>
      </trkpt>
      <trkpt lat="49.23903" lon="-0.23664">
        <ele>108.8</ele>
        <time>2024-04-07T12:47:36Z</time>
      </trkpt>
      <trkpt lat="49.23908" lon="-0.23662">
        <ele>108.8</ele>
        <time>2024-04-07T12:47:37Z</time>
      </trkpt>
      <trkpt lat="49.23913" lon="-0.23659">
        <ele>108.8</ele>
        <time>2024-04-07T12:47:38Z</time>
      </trkpt>
      <trkpt lat="49.23919" lon="-0.23657">
        <ele>108.8</ele>
        <time>2024-04-07T12:47:39Z</time>
      </trkpt>
      <trkpt lat="49.23924" lon="-0.23654">
        <ele>108.8</ele>
        <time>2024-04-07T12:47:40Z</time>
      </trkpt>
      <trkpt lat="49.23929" lon="-0.23651">
        <ele>108.8</ele>
        <time>2024-04-07T12:47:41Z</time>
      </trkpt>
      <trkpt lat="49.23934" lon="-0.23648">
        <ele>108.8</ele>
        <time>2024-04-07T12:47:42Z</time>
      </trkpt>
      <trkpt lat="49.23939" lon="-0.23645">
        <ele>108.8</ele>
        <time>2024-04-07T12:47:43Z</time>
      </trkpt>
      <trkpt lat="49.23945" lon="-0.23643">
        <ele>108.8</ele>
        <time>2024-04-07T12:47:44Z</time>
      </trkpt>
      <trkpt lat="49.2395" lon="-0.2364">
        <ele>108.8</ele>
        <time>2024-04-07T12:47:45Z</time>
      </trkpt>
      <trkpt lat="49.23955" lon="-0.23638">
        <ele>108.8</ele>
        <time>2024-04-07T12:47:46Z</time>
      </trkpt>
      <trkpt lat="49.2396" lon="-0.23635">
        <ele>108.8</ele>
        <time>2024-04-07T12:47:47Z</time>
      </trkpt>
      <trkpt lat="49.23966" lon="-0.23632">
        <ele>108.8</ele>
        <time>2024-04-07T12:47:48Z</time>
      </trkpt>
      <trkpt lat="49.23971" lon="-0.2363">
        <ele>108.8</ele>
        <time>2024-04-07T12:47:49Z</time>
      </trkpt>
      <trkpt lat="49.23976" lon="-0.23627">
        <ele>108.8</ele>
        <time>2024-04-07T12:47:50Z</time>
      </trkpt>
      <trkpt lat="49.23982" lon="-0.23624">
        <ele>108.8</ele>
        <time>2024-04-07T12:47:51Z</time>
      </trkpt>
      <trkpt lat="49.23988" lon="-0.23621">
        <ele>109.4</ele>
        <time>2024-04-07T12:47:52Z</time>
      </trkpt>
      <trkpt lat="49.23993" lon="-0.23618">
        <ele>109.4</ele>
        <time>2024-04-07T12:47:53Z</time>
      </trkpt>
      <trkpt lat="49.23999" lon="-0.23615">
        <ele>109.4</ele>
        <time>2024-04-07T12:47:54Z</time>
      </trkpt>
      <trkpt lat="49.24004" lon="-0.23612">
        <ele>109.4</ele>
        <time>2024-04-07T12:47:55Z</time>
      </trkpt>
      <trkpt lat="49.24009" lon="-0.23609">
        <ele>109.4</ele>
        <time>2024-04-07T12:47:56Z</time>
      </trkpt>
      <trkpt lat="49.24015" lon="-0.23606">
        <ele>109.4</ele>
        <time>2024-04-07T12:47:57Z</time>
      </trkpt>
      <trkpt lat="49.2402" lon="-0.23603">
        <ele>109.4</ele>
        <time>2024-04-07T12:47:58Z</time>
      </trkpt>
      <trkpt lat="49.24026" lon="-0.23599">
        <ele>109.4</ele>
        <time>2024-04-07T12:47:59Z</time>
      </trkpt>
      <trkpt lat="49.24031" lon="-0.23596">
        <ele>109.4</ele>
        <time>2024-04-07T12:48:00Z</time>
      </trkpt>
      <trkpt lat="49.24036" lon="-0.23592">
        <ele>109.4</ele>
        <time>2024-04-07T12:48:01Z</time>
      </trkpt>
      <trkpt lat="49.24041" lon="-0.23589">
        <ele>109.4</ele>
        <time>2024-04-07T12:48:02Z</time>
      </trkpt>
      <trkpt lat="49.24046" lon="-0.23585">
        <ele>109.4</ele>
        <time>2024-04-07T12:48:03Z</time>
      </trkpt>
      <trkpt lat="49.24052" lon="-0.23582">
        <ele>109.4</ele>
        <time>2024-04-07T12:48:04Z</time>
      </trkpt>
      <trkpt lat="49.24057" lon="-0.23578">
        <ele>109.4</ele>
        <time>2024-04-07T12:48:05Z</time>
      </trkpt>
      <trkpt lat="49.24062" lon="-0.23575">
        <ele>109.4</ele>
        <time>2024-04-07T12:48:06Z</time>
      </trkpt>
      <trkpt lat="49.24067" lon="-0.23571">
        <ele>109.4</ele>
        <time>2024-04-07T12:48:07Z</time>
      </trkpt>
      <trkpt lat="49.24072" lon="-0.23567">
        <ele>109.4</ele>
        <time>2024-04-07T12:48:08Z</time>
      </trkpt>
      <trkpt lat="49.24077" lon="-0.23562">
        <ele>109.4</ele>
        <time>2024-04-07T12:48:09Z</time>
      </trkpt>
      <trkpt lat="49.24081" lon="-0.23558">
        <ele>109.4</ele>
        <time>2024-04-07T12:48:10Z</time>
      </trkpt>
      <trkpt lat="49.24085" lon="-0.23554">
        <ele>109.4</ele>
        <time>2024-04-07T12:48:11Z</time>
      </trkpt>
      <trkpt lat="49.2409" lon="-0.2355">
        <ele>109.4</ele>
        <time>2024-04-07T12:48:12Z</time>
      </trkpt>
      <trkpt lat="49.24094" lon="-0.23546">
        <ele>109.4</ele>
        <time>2024-04-07T12:48:13Z</time>
      </trkpt>
      <trkpt lat="49.24098" lon="-0.23543">
        <ele>109.4</ele>
        <time>2024-04-07T12:48:14Z</time>
      </trkpt>
      <trkpt lat="49.24102" lon="-0.23539">
        <ele>109.4</ele>
        <time>2024-04-07T12:48:15Z</time>
      </trkpt>
      <trkpt lat="49.24105" lon="-0.23536">
        <ele>109.4</ele>
        <time>2024-04-07T12:48:16Z</time>
      </trkpt>
      <trkpt lat="49.24108" lon="-0.23533">
        <ele>109.4</ele>
        <time>2024-04-07T12:48:17Z</time>
      </trkpt>
      <trkpt lat="49.24112" lon="-0.2353">
        <ele>109.4</ele>
        <time>2024-04-07T12:48:18Z</time>
      </trkpt>
      <trkpt lat="49.24115" lon="-0.23527">
        <ele>109.4</ele>
        <time>2024-04-07T12:48:19Z</time>
      </trkpt>
      <trkpt lat="49.24118" lon="-0.23525">
        <ele>109.4</ele>
        <time>2024-04-07T12:48:20Z</time>
      </trkpt>
      <trkpt lat="49.24121" lon="-0.23522">
        <ele>109.4</ele>
        <time>2024-04-07T12:48:21Z</time>
      </trkpt>
      <trkpt lat="49.24124" lon="-0.2352">
        <ele>109.4</ele>
        <time>2024-04-07T12:48:22Z</time>
      </trkpt>
      <trkpt lat="49.24127" lon="-0.23518">
        <ele>109.4</ele>
        <time>2024-04-07T12:48:23Z</time>
      </trkpt>
      <trkpt lat="49.2413" lon="-0.23516">
        <ele>109.4</ele>
        <time>2024-04-07T12:48:24Z</time>
      </trkpt>
      <trkpt lat="49.24133" lon="-0.23514">
        <ele>109.4</ele>
        <time>2024-04-07T12:48:25Z</time>
      </trkpt>
      <trkpt lat="49.24136" lon="-0.23512">
        <ele>109.4</ele>
        <time>2024-04-07T12:48:26Z</time>
      </trkpt>
      <trkpt lat="49.24138" lon="-0.23509">
        <ele>109.4</ele>
        <time>2024-04-07T12:48:27Z</time>
      </trkpt>
      <trkpt lat="49.24141" lon="-0.23507">
        <ele>109.4</ele>
        <time>2024-04-07T12:48:28Z</time>
      </trkpt>
      <trkpt lat="49.24144" lon="-0.23504">
        <ele>109.4</ele>
        <time>2024-04-07T12:48:29Z</time>
      </trkpt>
      <trkpt lat="49.24147" lon="-0.23502">
        <ele>109.4</ele>
        <time>2024-04-07T12:48:30Z</time>
      </trkpt>
      <trkpt lat="49.2415" lon="-0.235">
        <ele>109.4</ele>
        <time>2024-04-07T12:48:31Z</time>
      </trkpt>
      <trkpt lat="49.24153" lon="-0.23498">
        <ele>109.4</ele>
        <time>2024-04-07T12:48:32Z</time>
      </trkpt>
      <trkpt lat="49.24156" lon="-0.23496">
        <ele>109.4</ele>
        <time>2024-04-07T12:48:33Z</time>
      </trkpt>
      <trkpt lat="49.24159" lon="-0.23494">
        <ele>109.4</ele>
        <time>2024-04-07T12:48:34Z</time>
      </trkpt>
      <trkpt lat="49.24162" lon="-0.23491">
        <ele>109.4</ele>
        <time>2024-04-07T12:48:35Z</time>
      </trkpt>
      <trkpt lat="49.24165" lon="-0.23489">
        <ele>109.4</ele>
        <time>2024-04-07T12:48:36Z</time>
      </trkpt>
      <trkpt lat="49.24168" lon="-0.23486">
        <ele>109.4</ele>
        <time>2024-04-07T12:48:37Z</time>
      </trkpt>
      <trkpt lat="49.24171" lon="-0.23484">
        <ele>109.4</ele>
        <time>2024-04-07T12:48:38Z</time>
      </trkpt>
      <trkpt lat="49.24174" lon="-0.23481">
        <ele>109.4</ele>
        <time>2024-04-07T12:48:39Z</time>
      </trkpt>
      <trkpt lat="49.24177" lon="-0.23477">
        <ele>109.4</ele>
        <time>2024-04-07T12:48:40Z</time>
      </trkpt>
      <trkpt lat="49.2418" lon="-0.23474">
        <ele>109.4</ele>
        <time>2024-04-07T12:48:41Z</time>
      </trkpt>
      <trkpt lat="49.24184" lon="-0.23471">
        <ele>109.4</ele>
        <time>2024-04-07T12:48:42Z</time>
      </trkpt>
      <trkpt lat="49.24187" lon="-0.23467">
        <ele>109.4</ele>
        <time>2024-04-07T12:48:43Z</time>
      </trkpt>
      <trkpt lat="49.2419" lon="-0.23464">
        <ele>109.4</ele>
        <time>2024-04-07T12:48:44Z</time>
      </trkpt>
      <trkpt lat="49.24194" lon="-0.23461">
        <ele>109.4</ele>
        <time>2024-04-07T12:48:45Z</time>
      </trkpt>
      <trkpt lat="49.24197" lon="-0.23458">
        <ele>109.4</ele>
        <time>2024-04-07T12:48:46Z</time>
      </trkpt>
      <trkpt lat="49.24201" lon="-0.23455">
        <ele>109.4</ele>
        <time>2024-04-07T12:48:47Z</time>
      </trkpt>
      <trkpt lat="49.24205" lon="-0.23451">
        <ele>109.4</ele>
        <time>2024-04-07T12:48:48Z</time>
      </trkpt>
      <trkpt lat="49.24209" lon="-0.23449">
        <ele>109.4</ele>
        <time>2024-04-07T12:48:49Z</time>
      </trkpt>
      <trkpt lat="49.24213" lon="-0.23445">
        <ele>109.4</ele>
        <time>2024-04-07T12:48:50Z</time>
      </trkpt>
      <trkpt lat="49.24216" lon="-0.23442">
        <ele>109.4</ele>
        <time>2024-04-07T12:48:51Z</time>
      </trkpt>
      <trkpt lat="49.2422" lon="-0.23438">
        <ele>113.6</ele>
        <time>2024-04-07T12:48:52Z</time>
      </trkpt>
      <trkpt lat="49.24224" lon="-0.23435">
        <ele>113.6</ele>
        <time>2024-04-07T12:48:53Z</time>
      </trkpt>
      <trkpt lat="49.24228" lon="-0.23431">
        <ele>113.6</ele>
        <time>2024-04-07T12:48:54Z</time>
      </trkpt>
      <trkpt lat="49.24232" lon="-0.23427">
        <ele>113.6</ele>
        <time>2024-04-07T12:48:55Z</time>
      </trkpt>
      <trkpt lat="49.24235" lon="-0.23423">
        <ele>113.6</ele>
        <time>2024-04-07T12:48:56Z</time>
      </trkpt>
      <trkpt lat="49.24238" lon="-0.23418">
        <ele>113.6</ele>
        <time>2024-04-07T12:48:57Z</time>
      </trkpt>
      <trkpt lat="49.24241" lon="-0.23413">
        <ele>113.6</ele>
        <time>2024-04-07T12:48:58Z</time>
      </trkpt>
      <trkpt lat="49.24244" lon="-0.23407">
        <ele>113.6</ele>
        <time>2024-04-07T12:48:59Z</time>
      </trkpt>
      <trkpt lat="49.24246" lon="-0.23403">
        <ele>113.6</ele>
        <time>2024-04-07T12:49:00Z</time>
      </trkpt>
      <trkpt lat="49.24249" lon="-0.23399">
        <ele>113.6</ele>
        <time>2024-04-07T12:49:01Z</time>
      </trkpt>
      <trkpt lat="49.24252" lon="-0.23395">
        <ele>113.6</ele>
        <time>2024-04-07T12:49:02Z</time>
      </trkpt>
      <trkpt lat="49.24255" lon="-0.23393">
        <ele>113.6</ele>
        <time>2024-04-07T12:49:03Z</time>
      </trkpt>
      <trkpt lat="49.24258" lon="-0.23392">
        <ele>113.6</ele>
        <time>2024-04-07T12:49:04Z</time>
      </trkpt>
      <trkpt lat="49.24262" lon="-0.23393">
        <ele>113.6</ele>
        <time>2024-04-07T12:49:05Z</time>
      </trkpt>
      <trkpt lat="49.24266" lon="-0.23394">
        <ele>113.6</ele>
        <time>2024-04-07T12:49:06Z</time>
      </trkpt>
      <trkpt lat="49.2427" lon="-0.23395">
        <ele>113.6</ele>
        <time>2024-04-07T12:49:07Z</time>
      </trkpt>
      <trkpt lat="49.24275" lon="-0.23397">
        <ele>113.6</ele>
        <time>2024-04-07T12:49:08Z</time>
      </trkpt>
      <trkpt lat="49.2428" lon="-0.23398">
        <ele>113.6</ele>
        <time>2024-04-07T12:49:09Z</time>
      </trkpt>
      <trkpt lat="49.24285" lon="-0.23398">
        <ele>113.6</ele>
        <time>2024-04-07T12:49:10Z</time>
      </trkpt>
      <trkpt lat="49.2429" lon="-0.23398">
        <ele>113.6</ele>
        <time>2024-04-07T12:49:11Z</time>
      </trkpt>
      <trkpt lat="49.24296" lon="-0.23398">
        <ele>113.6</ele>
        <time>2024-04-07T12:49:12Z</time>
      </trkpt>
      <trkpt lat="49.24302" lon="-0.23399">
        <ele>113.6</ele>
        <time>2024-04-07T12:49:13Z</time>
      </trkpt>
      <trkpt lat="49.24307" lon="-0.23398">
        <ele>113.6</ele>
        <time>2024-04-07T12:49:14Z</time>
      </trkpt>
      <trkpt lat="49.24313" lon="-0.23398">
        <ele>113.6</ele>
        <time>2024-04-07T12:49:15Z</time>
      </trkpt>
      <trkpt lat="49.24318" lon="-0.23398">
        <ele>113.6</ele>
        <time>2024-04-07T12:49:16Z</time>
      </trkpt>
      <trkpt lat="49.24324" lon="-0.23398">
        <ele>113.6</ele>
        <time>2024-04-07T12:49:17Z</time>
      </trkpt>
      <trkpt lat="49.2433" lon="-0.23398">
        <ele>113.6</ele>
        <time>2024-04-07T12:49:18Z</time>
      </trkpt>
      <trkpt lat="49.24335" lon="-0.23397">
        <ele>113.6</ele>
        <time>2024-04-07T12:49:19Z</time>
      </trkpt>
      <trkpt lat="49.24341" lon="-0.23397">
        <ele>113.6</ele>
        <time>2024-04-07T12:49:20Z</time>
      </trkpt>
      <trkpt lat="49.24347" lon="-0.23396">
        <ele>113.6</ele>
        <time>2024-04-07T12:49:21Z</time>
      </trkpt>
      <trkpt lat="49.24353" lon="-0.23396">
        <ele>113.6</ele>
        <time>2024-04-07T12:49:22Z</time>
      </trkpt>
      <trkpt lat="49.24359" lon="-0.23395">
        <ele>113.6</ele>
        <time>2024-04-07T12:49:23Z</time>
      </trkpt>
      <trkpt lat="49.24365" lon="-0.23395">
        <ele>113.6</ele>
        <time>2024-04-07T12:49:24Z</time>
      </trkpt>
      <trkpt lat="49.24371" lon="-0.23395">
        <ele>113.6</ele>
        <time>2024-04-07T12:49:25Z</time>
      </trkpt>
      <trkpt lat="49.24377" lon="-0.23394">
        <ele>113.6</ele>
        <time>2024-04-07T12:49:26Z</time>
      </trkpt>
      <trkpt lat="49.24384" lon="-0.23393">
        <ele>113.6</ele>
        <time>2024-04-07T12:49:27Z</time>
      </trkpt>
      <trkpt lat="49.2439" lon="-0.23392">
        <ele>113.6</ele>
        <time>2024-04-07T12:49:28Z</time>
      </trkpt>
      <trkpt lat="49.24397" lon="-0.23391">
        <ele>113.6</ele>
        <time>2024-04-07T12:49:29Z</time>
      </trkpt>
      <trkpt lat="49.24403" lon="-0.2339">
        <ele>113.6</ele>
        <time>2024-04-07T12:49:30Z</time>
      </trkpt>
      <trkpt lat="49.2441" lon="-0.2339">
        <ele>113.6</ele>
        <time>2024-04-07T12:49:31Z</time>
      </trkpt>
      <trkpt lat="49.24416" lon="-0.2339">
        <ele>113.6</ele>
        <time>2024-04-07T12:49:32Z</time>
      </trkpt>
      <trkpt lat="49.24423" lon="-0.23388">
        <ele>113.6</ele>
        <time>2024-04-07T12:49:33Z</time>
      </trkpt>
      <trkpt lat="49.24429" lon="-0.23387">
        <ele>113.6</ele>
        <time>2024-04-07T12:49:34Z</time>
      </trkpt>
      <trkpt lat="49.24436" lon="-0.23386">
        <ele>113.6</ele>
        <time>2024-04-07T12:49:35Z</time>
      </trkpt>
      <trkpt lat="49.24442" lon="-0.23385">
        <ele>113.6</ele>
        <time>2024-04-07T12:49:36Z</time>
      </trkpt>
      <trkpt lat="49.24449" lon="-0.23383">
        <ele>113.6</ele>
        <time>2024-04-07T12:49:37Z</time>
      </trkpt>
      <trkpt lat="49.24456" lon="-0.23381">
        <ele>113.6</ele>
        <time>2024-04-07T12:49:38Z</time>
      </trkpt>
      <trkpt lat="49.24463" lon="-0.2338">
        <ele>113.6</ele>
        <time>2024-04-07T12:49:39Z</time>
      </trkpt>
      <trkpt lat="49.2447" lon="-0.23378">
        <ele>113.6</ele>
        <time>2024-04-07T12:49:40Z</time>
      </trkpt>
      <trkpt lat="49.24476" lon="-0.23376">
        <ele>113.6</ele>
        <time>2024-04-07T12:49:41Z</time>
      </trkpt>
      <trkpt lat="49.24483" lon="-0.23375">
        <ele>113.6</ele>
        <time>2024-04-07T12:49:42Z</time>
      </trkpt>
      <trkpt lat="49.24489" lon="-0.23373">
        <ele>113.6</ele>
        <time>2024-04-07T12:49:43Z</time>
      </trkpt>
      <trkpt lat="49.24495" lon="-0.23372">
        <ele>113.6</ele>
        <time>2024-04-07T12:49:44Z</time>
      </trkpt>
      <trkpt lat="49.24502" lon="-0.23371">
        <ele>113.6</ele>
        <time>2024-04-07T12:49:45Z</time>
      </trkpt>
      <trkpt lat="49.24508" lon="-0.2337">
        <ele>113.6</ele>
        <time>2024-04-07T12:49:46Z</time>
      </trkpt>
      <trkpt lat="49.24514" lon="-0.23369">
        <ele>113.6</ele>
        <time>2024-04-07T12:49:47Z</time>
      </trkpt>
      <trkpt lat="49.24521" lon="-0.23367">
        <ele>113.6</ele>
        <time>2024-04-07T12:49:48Z</time>
      </trkpt>
      <trkpt lat="49.24527" lon="-0.23366">
        <ele>113.6</ele>
        <time>2024-04-07T12:49:49Z</time>
      </trkpt>
      <trkpt lat="49.24534" lon="-0.23365">
        <ele>113.6</ele>
        <time>2024-04-07T12:49:50Z</time>
      </trkpt>
      <trkpt lat="49.2454" lon="-0.23363">
        <ele>113.6</ele>
        <time>2024-04-07T12:49:51Z</time>
      </trkpt>
      <trkpt lat="49.24547" lon="-0.23362">
        <ele>121.4</ele>
        <time>2024-04-07T12:49:52Z</time>
      </trkpt>
      <trkpt lat="49.24554" lon="-0.23361">
        <ele>121.4</ele>
        <time>2024-04-07T12:49:53Z</time>
      </trkpt>
      <trkpt lat="49.2456" lon="-0.23359">
        <ele>121.4</ele>
        <time>2024-04-07T12:49:54Z</time>
      </trkpt>
      <trkpt lat="49.24567" lon="-0.23358">
        <ele>121.4</ele>
        <time>2024-04-07T12:49:55Z</time>
      </trkpt>
      <trkpt lat="49.24573" lon="-0.23356">
        <ele>121.4</ele>
        <time>2024-04-07T12:49:56Z</time>
      </trkpt>
      <trkpt lat="49.2458" lon="-0.23353">
        <ele>121.4</ele>
        <time>2024-04-07T12:49:57Z</time>
      </trkpt>
      <trkpt lat="49.24586" lon="-0.23351">
        <ele>121.4</ele>
        <time>2024-04-07T12:49:58Z</time>
      </trkpt>
      <trkpt lat="49.24592" lon="-0.23349">
        <ele>121.4</ele>
        <time>2024-04-07T12:49:59Z</time>
      </trkpt>
      <trkpt lat="49.24598" lon="-0.23346">
        <ele>121.4</ele>
        <time>2024-04-07T12:50:00Z</time>
      </trkpt>
      <trkpt lat="49.24604" lon="-0.23343">
        <ele>121.4</ele>
        <time>2024-04-07T12:50:01Z</time>
      </trkpt>
      <trkpt lat="49.2461" lon="-0.2334">
        <ele>121.4</ele>
        <time>2024-04-07T12:50:02Z</time>
      </trkpt>
      <trkpt lat="49.24617" lon="-0.23337">
        <ele>121.4</ele>
        <time>2024-04-07T12:50:03Z</time>
      </trkpt>
      <trkpt lat="49.24624" lon="-0.23336">
        <ele>121.4</ele>
        <time>2024-04-07T12:50:04Z</time>
      </trkpt>
      <trkpt lat="49.2463" lon="-0.23335">
        <ele>121.4</ele>
        <time>2024-04-07T12:50:05Z</time>
      </trkpt>
      <trkpt lat="49.24637" lon="-0.23335">
        <ele>121.4</ele>
        <time>2024-04-07T12:50:06Z</time>
      </trkpt>
      <trkpt lat="49.24644" lon="-0.23336">
        <ele>121.4</ele>
        <time>2024-04-07T12:50:07Z</time>
      </trkpt>
      <trkpt lat="49.24651" lon="-0.23337">
        <ele>121.4</ele>
        <time>2024-04-07T12:50:08Z</time>
      </trkpt>
      <trkpt lat="49.24659" lon="-0.23338">
        <ele>121.4</ele>
        <time>2024-04-07T12:50:09Z</time>
      </trkpt>
      <trkpt lat="49.24666" lon="-0.23339">
        <ele>121.4</ele>
        <time>2024-04-07T12:50:10Z</time>
      </trkpt>
      <trkpt lat="49.24673" lon="-0.2334">
        <ele>121.4</ele>
        <time>2024-04-07T12:50:11Z</time>
      </trkpt>
      <trkpt lat="49.24679" lon="-0.23341">
        <ele>121.4</ele>
        <time>2024-04-07T12:50:12Z</time>
      </trkpt>
      <trkpt lat="49.24686" lon="-0.23342">
        <ele>121.4</ele>
        <time>2024-04-07T12:50:13Z</time>
      </trkpt>
      <trkpt lat="49.24693" lon="-0.23343">
        <ele>121.4</ele>
        <time>2024-04-07T12:50:14Z</time>
      </trkpt>
      <trkpt lat="49.247" lon="-0.23345">
        <ele>121.4</ele>
        <time>2024-04-07T12:50:15Z</time>
      </trkpt>
      <trkpt lat="49.24707" lon="-0.23346">
        <ele>121.4</ele>
        <time>2024-04-07T12:50:16Z</time>
      </trkpt>
      <trkpt lat="49.24713" lon="-0.23347">
        <ele>121.4</ele>
        <time>2024-04-07T12:50:17Z</time>
      </trkpt>
      <trkpt lat="49.2472" lon="-0.23348">
        <ele>121.4</ele>
        <time>2024-04-07T12:50:18Z</time>
      </trkpt>
      <trkpt lat="49.24727" lon="-0.23349">
        <ele>121.4</ele>
        <time>2024-04-07T12:50:19Z</time>
      </trkpt>
      <trkpt lat="49.24734" lon="-0.23351">
        <ele>121.4</ele>
        <time>2024-04-07T12:50:20Z</time>
      </trkpt>
      <trkpt lat="49.24741" lon="-0.23353">
        <ele>121.4</ele>
        <time>2024-04-07T12:50:21Z</time>
      </trkpt>
      <trkpt lat="49.24748" lon="-0.23354">
        <ele>121.4</ele>
        <time>2024-04-07T12:50:22Z</time>
      </trkpt>
      <trkpt lat="49.24755" lon="-0.23356">
        <ele>121.4</ele>
        <time>2024-04-07T12:50:23Z</time>
      </trkpt>
      <trkpt lat="49.24762" lon="-0.23358">
        <ele>121.4</ele>
        <time>2024-04-07T12:50:24Z</time>
      </trkpt>
      <trkpt lat="49.24769" lon="-0.23359">
        <ele>121.4</ele>
        <time>2024-04-07T12:50:25Z</time>
      </trkpt>
      <trkpt lat="49.24776" lon="-0.23361">
        <ele>121.4</ele>
        <time>2024-04-07T12:50:26Z</time>
      </trkpt>
      <trkpt lat="49.24783" lon="-0.23362">
        <ele>121.4</ele>
        <time>2024-04-07T12:50:27Z</time>
      </trkpt>
      <trkpt lat="49.2479" lon="-0.23364">
        <ele>121.4</ele>
        <time>2024-04-07T12:50:28Z</time>
      </trkpt>
      <trkpt lat="49.24797" lon="-0.23366">
        <ele>121.4</ele>
        <time>2024-04-07T12:50:29Z</time>
      </trkpt>
      <trkpt lat="49.24804" lon="-0.23368">
        <ele>121.4</ele>
        <time>2024-04-07T12:50:30Z</time>
      </trkpt>
      <trkpt lat="49.24811" lon="-0.23369">
        <ele>121.4</ele>
        <time>2024-04-07T12:50:31Z</time>
      </trkpt>
      <trkpt lat="49.24818" lon="-0.23371">
        <ele>121.4</ele>
        <time>2024-04-07T12:50:32Z</time>
      </trkpt>
      <trkpt lat="49.24825" lon="-0.23372">
        <ele>121.4</ele>
        <time>2024-04-07T12:50:33Z</time>
      </trkpt>
      <trkpt lat="49.24832" lon="-0.23374">
        <ele>121.4</ele>
        <time>2024-04-07T12:50:34Z</time>
      </trkpt>
      <trkpt lat="49.24839" lon="-0.23377">
        <ele>121.4</ele>
        <time>2024-04-07T12:50:35Z</time>
      </trkpt>
      <trkpt lat="49.24846" lon="-0.2338">
        <ele>121.4</ele>
        <time>2024-04-07T12:50:36Z</time>
      </trkpt>
      <trkpt lat="49.24852" lon="-0.23383">
        <ele>121.4</ele>
        <time>2024-04-07T12:50:37Z</time>
      </trkpt>
      <trkpt lat="49.24859" lon="-0.23387">
        <ele>121.4</ele>
        <time>2024-04-07T12:50:38Z</time>
      </trkpt>
      <trkpt lat="49.24865" lon="-0.23391">
        <ele>121.4</ele>
        <time>2024-04-07T12:50:39Z</time>
      </trkpt>
      <trkpt lat="49.24872" lon="-0.23395">
        <ele>121.4</ele>
        <time>2024-04-07T12:50:40Z</time>
      </trkpt>
      <trkpt lat="49.24879" lon="-0.23395">
        <ele>121.4</ele>
        <time>2024-04-07T12:50:41Z</time>
      </trkpt>
      <trkpt lat="49.24887" lon="-0.23394">
        <ele>121.4</ele>
        <time>2024-04-07T12:50:42Z</time>
      </trkpt>
      <trkpt lat="49.24894" lon="-0.23391">
        <ele>121.4</ele>
        <time>2024-04-07T12:50:43Z</time>
      </trkpt>
      <trkpt lat="49.24901" lon="-0.23387">
        <ele>121.4</ele>
        <time>2024-04-07T12:50:44Z</time>
      </trkpt>
      <trkpt lat="49.24908" lon="-0.23384">
        <ele>121.4</ele>
        <time>2024-04-07T12:50:45Z</time>
      </trkpt>
      <trkpt lat="49.24915" lon="-0.23381">
        <ele>121.4</ele>
        <time>2024-04-07T12:50:46Z</time>
      </trkpt>
      <trkpt lat="49.24923" lon="-0.23378">
        <ele>121.4</ele>
        <time>2024-04-07T12:50:47Z</time>
      </trkpt>
      <trkpt lat="49.2493" lon="-0.23375">
        <ele>121.4</ele>
        <time>2024-04-07T12:50:48Z</time>
      </trkpt>
      <trkpt lat="49.24937" lon="-0.23372">
        <ele>121.4</ele>
        <time>2024-04-07T12:50:49Z</time>
      </trkpt>
      <trkpt lat="49.24945" lon="-0.2337">
        <ele>121.4</ele>
        <time>2024-04-07T12:50:50Z</time>
      </trkpt>
      <trkpt lat="49.24952" lon="-0.23368">
        <ele>121.4</ele>
        <time>2024-04-07T12:50:51Z</time>
      </trkpt>
      <trkpt lat="49.2496" lon="-0.23366">
        <ele>132.2</ele>
        <time>2024-04-07T12:50:52Z</time>
      </trkpt>
      <trkpt lat="49.24968" lon="-0.23364">
        <ele>132.2</ele>
        <time>2024-04-07T12:50:53Z</time>
      </trkpt>
      <trkpt lat="49.24975" lon="-0.23361">
        <ele>132.2</ele>
        <time>2024-04-07T12:50:54Z</time>
      </trkpt>
      <trkpt lat="49.24982" lon="-0.23358">
        <ele>132.2</ele>
        <time>2024-04-07T12:50:55Z</time>
      </trkpt>
      <trkpt lat="49.24989" lon="-0.23354">
        <ele>132.2</ele>
        <time>2024-04-07T12:50:56Z</time>
      </trkpt>
      <trkpt lat="49.24996" lon="-0.23351">
        <ele>132.2</ele>
        <time>2024-04-07T12:50:57Z</time>
      </trkpt>
      <trkpt lat="49.25002" lon="-0.23346">
        <ele>132.2</ele>
        <time>2024-04-07T12:50:58Z</time>
      </trkpt>
      <trkpt lat="49.25009" lon="-0.2334">
        <ele>132.2</ele>
        <time>2024-04-07T12:50:59Z</time>
      </trkpt>
      <trkpt lat="49.25015" lon="-0.23333">
        <ele>132.2</ele>
        <time>2024-04-07T12:51:00Z</time>
      </trkpt>
      <trkpt lat="49.2502" lon="-0.23324">
        <ele>132.2</ele>
        <time>2024-04-07T12:51:01Z</time>
      </trkpt>
      <trkpt lat="49.25024" lon="-0.23314">
        <ele>132.2</ele>
        <time>2024-04-07T12:51:02Z</time>
      </trkpt>
      <trkpt lat="49.25027" lon="-0.23304">
        <ele>132.2</ele>
        <time>2024-04-07T12:51:03Z</time>
      </trkpt>
      <trkpt lat="49.25028" lon="-0.23293">
        <ele>132.2</ele>
        <time>2024-04-07T12:51:04Z</time>
      </trkpt>
      <trkpt lat="49.25029" lon="-0.23282">
        <ele>132.2</ele>
        <time>2024-04-07T12:51:05Z</time>
      </trkpt>
      <trkpt lat="49.2503" lon="-0.2327">
        <ele>132.2</ele>
        <time>2024-04-07T12:51:06Z</time>
      </trkpt>
      <trkpt lat="49.2503" lon="-0.23258">
        <ele>132.2</ele>
        <time>2024-04-07T12:51:07Z</time>
      </trkpt>
      <trkpt lat="49.25031" lon="-0.23247">
        <ele>132.2</ele>
        <time>2024-04-07T12:51:08Z</time>
      </trkpt>
      <trkpt lat="49.25032" lon="-0.23236">
        <ele>132.2</ele>
        <time>2024-04-07T12:51:09Z</time>
      </trkpt>
      <trkpt lat="49.25033" lon="-0.23225">
        <ele>132.2</ele>
        <time>2024-04-07T12:51:10Z</time>
      </trkpt>
      <trkpt lat="49.25033" lon="-0.23215">
        <ele>132.2</ele>
        <time>2024-04-07T12:51:11Z</time>
      </trkpt>
      <trkpt lat="49.25035" lon="-0.23206">
        <ele>132.2</ele>
        <time>2024-04-07T12:51:12Z</time>
      </trkpt>
      <trkpt lat="49.25037" lon="-0.23198">
        <ele>132.2</ele>
        <time>2024-04-07T12:51:13Z</time>
      </trkpt>
      <trkpt lat="49.25042" lon="-0.23191">
        <ele>132.2</ele>
        <time>2024-04-07T12:51:14Z</time>
      </trkpt>
      <trkpt lat="49.25048" lon="-0.23186">
        <ele>132.2</ele>
        <time>2024-04-07T12:51:15Z</time>
      </trkpt>
      <trkpt lat="49.25054" lon="-0.23182">
        <ele>132.2</ele>
        <time>2024-04-07T12:51:16Z</time>
      </trkpt>
      <trkpt lat="49.2506" lon="-0.23177">
        <ele>132.2</ele>
        <time>2024-04-07T12:51:17Z</time>
      </trkpt>
      <trkpt lat="49.25067" lon="-0.23173">
        <ele>132.2</ele>
        <time>2024-04-07T12:51:18Z</time>
      </trkpt>
      <trkpt lat="49.25074" lon="-0.23168">
        <ele>132.2</ele>
        <time>2024-04-07T12:51:19Z</time>
      </trkpt>
      <trkpt lat="49.25082" lon="-0.23164">
        <ele>132.2</ele>
        <time>2024-04-07T12:51:20Z</time>
      </trkpt>
      <trkpt lat="49.25089" lon="-0.2316">
        <ele>132.2</ele>
        <time>2024-04-07T12:51:21Z</time>
      </trkpt>
      <trkpt lat="49.25097" lon="-0.23155">
        <ele>132.2</ele>
        <time>2024-04-07T12:51:22Z</time>
      </trkpt>
      <trkpt lat="49.25104" lon="-0.2315">
        <ele>132.2</ele>
        <time>2024-04-07T12:51:23Z</time>
      </trkpt>
      <trkpt lat="49.25112" lon="-0.23145">
        <ele>132.2</ele>
        <time>2024-04-07T12:51:24Z</time>
      </trkpt>
      <trkpt lat="49.25119" lon="-0.23139">
        <ele>132.2</ele>
        <time>2024-04-07T12:51:25Z</time>
      </trkpt>
      <trkpt lat="49.25127" lon="-0.23134">
        <ele>132.2</ele>
        <time>2024-04-07T12:51:26Z</time>
      </trkpt>
      <trkpt lat="49.25134" lon="-0.23128">
        <ele>132.2</ele>
        <time>2024-04-07T12:51:27Z</time>
      </trkpt>
      <trkpt lat="49.25142" lon="-0.23122">
        <ele>132.2</ele>
        <time>2024-04-07T12:51:28Z</time>
      </trkpt>
      <trkpt lat="49.25149" lon="-0.23117">
        <ele>132.2</ele>
        <time>2024-04-07T12:51:29Z</time>
      </trkpt>
      <trkpt lat="49.25156" lon="-0.23112">
        <ele>132.2</ele>
        <time>2024-04-07T12:51:30Z</time>
      </trkpt>
      <trkpt lat="49.25164" lon="-0.23107">
        <ele>132.2</ele>
        <time>2024-04-07T12:51:31Z</time>
      </trkpt>
      <trkpt lat="49.25172" lon="-0.23103">
        <ele>132.2</ele>
        <time>2024-04-07T12:51:32Z</time>
      </trkpt>
      <trkpt lat="49.2518" lon="-0.23098">
        <ele>132.2</ele>
        <time>2024-04-07T12:51:33Z</time>
      </trkpt>
      <trkpt lat="49.25188" lon="-0.23094">
        <ele>132.2</ele>
        <time>2024-04-07T12:51:34Z</time>
      </trkpt>
      <trkpt lat="49.25197" lon="-0.23091">
        <ele>132.2</ele>
        <time>2024-04-07T12:51:35Z</time>
      </trkpt>
      <trkpt lat="49.25205" lon="-0.23087">
        <ele>132.2</ele>
        <time>2024-04-07T12:51:36Z</time>
      </trkpt>
      <trkpt lat="49.25213" lon="-0.23083">
        <ele>132.2</ele>
        <time>2024-04-07T12:51:37Z</time>
      </trkpt>
      <trkpt lat="49.25222" lon="-0.23079">
        <ele>132.2</ele>
        <time>2024-04-07T12:51:38Z</time>
      </trkpt>
      <trkpt lat="49.2523" lon="-0.23076">
        <ele>132.2</ele>
        <time>2024-04-07T12:51:39Z</time>
      </trkpt>
      <trkpt lat="49.25238" lon="-0.23072">
        <ele>132.2</ele>
        <time>2024-04-07T12:51:40Z</time>
      </trkpt>
      <trkpt lat="49.25247" lon="-0.23069">
        <ele>132.2</ele>
        <time>2024-04-07T12:51:41Z</time>
      </trkpt>
      <trkpt lat="49.25255" lon="-0.23065">
        <ele>132.2</ele>
        <time>2024-04-07T12:51:42Z</time>
      </trkpt>
      <trkpt lat="49.25263" lon="-0.23061">
        <ele>132.2</ele>
        <time>2024-04-07T12:51:43Z</time>
      </trkpt>
      <trkpt lat="49.25271" lon="-0.23057">
        <ele>132.2</ele>
        <time>2024-04-07T12:51:44Z</time>
      </trkpt>
      <trkpt lat="49.2528" lon="-0.23053">
        <ele>132.2</ele>
        <time>2024-04-07T12:51:45Z</time>
      </trkpt>
      <trkpt lat="49.25288" lon="-0.23049">
        <ele>132.2</ele>
        <time>2024-04-07T12:51:46Z</time>
      </trkpt>
      <trkpt lat="49.25297" lon="-0.23045">
        <ele>132.2</ele>
        <time>2024-04-07T12:51:47Z</time>
      </trkpt>
      <trkpt lat="49.25306" lon="-0.23041">
        <ele>132.2</ele>
        <time>2024-04-07T12:51:48Z</time>
      </trkpt>
      <trkpt lat="49.25314" lon="-0.23038">
        <ele>132.2</ele>
        <time>2024-04-07T12:51:49Z</time>
      </trkpt>
      <trkpt lat="49.25323" lon="-0.23034">
        <ele>132.2</ele>
        <time>2024-04-07T12:51:50Z</time>
      </trkpt>
      <trkpt lat="49.25332" lon="-0.23031">
        <ele>132.2</ele>
        <time>2024-04-07T12:51:51Z</time>
      </trkpt>
      <trkpt lat="49.2534" lon="-0.23028">
        <ele>139.4</ele>
        <time>2024-04-07T12:51:52Z</time>
      </trkpt>
      <trkpt lat="49.25349" lon="-0.23026">
        <ele>139.4</ele>
        <time>2024-04-07T12:51:53Z</time>
      </trkpt>
      <trkpt lat="49.25358" lon="-0.23023">
        <ele>139.4</ele>
        <time>2024-04-07T12:51:54Z</time>
      </trkpt>
      <trkpt lat="49.25367" lon="-0.23022">
        <ele>139.4</ele>
        <time>2024-04-07T12:51:55Z</time>
      </trkpt>
      <trkpt lat="49.25375" lon="-0.23021">
        <ele>139.4</ele>
        <time>2024-04-07T12:51:56Z</time>
      </trkpt>
      <trkpt lat="49.25384" lon="-0.2302">
        <ele>139.4</ele>
        <time>2024-04-07T12:51:57Z</time>
      </trkpt>
      <trkpt lat="49.25393" lon="-0.2302">
        <ele>139.4</ele>
        <time>2024-04-07T12:51:58Z</time>
      </trkpt>
      <trkpt lat="49.25402" lon="-0.2302">
        <ele>139.4</ele>
        <time>2024-04-07T12:51:59Z</time>
      </trkpt>
      <trkpt lat="49.25411" lon="-0.2302">
        <ele>139.4</ele>
        <time>2024-04-07T12:52:00Z</time>
      </trkpt>
      <trkpt lat="49.2542" lon="-0.23022">
        <ele>139.4</ele>
        <time>2024-04-07T12:52:01Z</time>
      </trkpt>
      <trkpt lat="49.25429" lon="-0.23024">
        <ele>139.4</ele>
        <time>2024-04-07T12:52:02Z</time>
      </trkpt>
      <trkpt lat="49.25438" lon="-0.23026">
        <ele>139.4</ele>
        <time>2024-04-07T12:52:03Z</time>
      </trkpt>
      <trkpt lat="49.25447" lon="-0.23028">
        <ele>139.4</ele>
        <time>2024-04-07T12:52:04Z</time>
      </trkpt>
      <trkpt lat="49.25456" lon="-0.23032">
        <ele>139.4</ele>
        <time>2024-04-07T12:52:05Z</time>
      </trkpt>
      <trkpt lat="49.25464" lon="-0.23035">
        <ele>139.4</ele>
        <time>2024-04-07T12:52:06Z</time>
      </trkpt>
      <trkpt lat="49.25473" lon="-0.23038">
        <ele>139.4</ele>
        <time>2024-04-07T12:52:07Z</time>
      </trkpt>
      <trkpt lat="49.25482" lon="-0.23042">
        <ele>139.4</ele>
        <time>2024-04-07T12:52:08Z</time>
      </trkpt>
      <trkpt lat="49.25491" lon="-0.23045">
        <ele>139.4</ele>
        <time>2024-04-07T12:52:09Z</time>
      </trkpt>
      <trkpt lat="49.255" lon="-0.23048">
        <ele>139.4</ele>
        <time>2024-04-07T12:52:10Z</time>
      </trkpt>
      <trkpt lat="49.25509" lon="-0.23052">
        <ele>139.4</ele>
        <time>2024-04-07T12:52:11Z</time>
      </trkpt>
      <trkpt lat="49.25518" lon="-0.23055">
        <ele>139.4</ele>
        <time>2024-04-07T12:52:12Z</time>
      </trkpt>
      <trkpt lat="49.25527" lon="-0.23058">
        <ele>139.4</ele>
        <time>2024-04-07T12:52:13Z</time>
      </trkpt>
      <trkpt lat="49.25536" lon="-0.23061">
        <ele>139.4</ele>
        <time>2024-04-07T12:52:14Z</time>
      </trkpt>
      <trkpt lat="49.25545" lon="-0.23063">
        <ele>139.4</ele>
        <time>2024-04-07T12:52:15Z</time>
      </trkpt>
      <trkpt lat="49.25554" lon="-0.23065">
        <ele>139.4</ele>
        <time>2024-04-07T12:52:16Z</time>
      </trkpt>
      <trkpt lat="49.25564" lon="-0.23067">
        <ele>139.4</ele>
        <time>2024-04-07T12:52:17Z</time>
      </trkpt>
      <trkpt lat="49.25573" lon="-0.23069">
        <ele>139.4</ele>
        <time>2024-04-07T12:52:18Z</time>
      </trkpt>
      <trkpt lat="49.25582" lon="-0.23071">
        <ele>139.4</ele>
        <time>2024-04-07T12:52:19Z</time>
      </trkpt>
      <trkpt lat="49.25591" lon="-0.23073">
        <ele>139.4</ele>
        <time>2024-04-07T12:52:20Z</time>
      </trkpt>
      <trkpt lat="49.256" lon="-0.23075">
        <ele>139.4</ele>
        <time>2024-04-07T12:52:21Z</time>
      </trkpt>
      <trkpt lat="49.25609" lon="-0.23079">
        <ele>139.4</ele>
        <time>2024-04-07T12:52:22Z</time>
      </trkpt>
      <trkpt lat="49.25618" lon="-0.23082">
        <ele>139.4</ele>
        <time>2024-04-07T12:52:23Z</time>
      </trkpt>
      <trkpt lat="49.25627" lon="-0.23085">
        <ele>139.4</ele>
        <time>2024-04-07T12:52:24Z</time>
      </trkpt>
      <trkpt lat="49.25636" lon="-0.23089">
        <ele>139.4</ele>
        <time>2024-04-07T12:52:25Z</time>
      </trkpt>
      <trkpt lat="49.25645" lon="-0.23092">
        <ele>139.4</ele>
        <time>2024-04-07T12:52:26Z</time>
      </trkpt>
      <trkpt lat="49.25653" lon="-0.23096">
        <ele>139.4</ele>
        <time>2024-04-07T12:52:27Z</time>
      </trkpt>
      <trkpt lat="49.25662" lon="-0.231">
        <ele>139.4</ele>
        <time>2024-04-07T12:52:28Z</time>
      </trkpt>
      <trkpt lat="49.2567" lon="-0.23104">
        <ele>139.4</ele>
        <time>2024-04-07T12:52:29Z</time>
      </trkpt>
      <trkpt lat="49.25679" lon="-0.23107">
        <ele>139.4</ele>
        <time>2024-04-07T12:52:30Z</time>
      </trkpt>
      <trkpt lat="49.25687" lon="-0.2311">
        <ele>139.4</ele>
        <time>2024-04-07T12:52:31Z</time>
      </trkpt>
      <trkpt lat="49.25696" lon="-0.23112">
        <ele>139.4</ele>
        <time>2024-04-07T12:52:32Z</time>
      </trkpt>
      <trkpt lat="49.25705" lon="-0.23113">
        <ele>139.4</ele>
        <time>2024-04-07T12:52:33Z</time>
      </trkpt>
      <trkpt lat="49.25714" lon="-0.23115">
        <ele>139.4</ele>
        <time>2024-04-07T12:52:34Z</time>
      </trkpt>
      <trkpt lat="49.25723" lon="-0.23117">
        <ele>139.4</ele>
        <time>2024-04-07T12:52:35Z</time>
      </trkpt>
      <trkpt lat="49.25732" lon="-0.23118">
        <ele>139.4</ele>
        <time>2024-04-07T12:52:36Z</time>
      </trkpt>
      <trkpt lat="49.2574" lon="-0.2312">
        <ele>139.4</ele>
        <time>2024-04-07T12:52:37Z</time>
      </trkpt>
      <trkpt lat="49.25749" lon="-0.23121">
        <ele>139.4</ele>
        <time>2024-04-07T12:52:38Z</time>
      </trkpt>
      <trkpt lat="49.25758" lon="-0.23121">
        <ele>139.4</ele>
        <time>2024-04-07T12:52:39Z</time>
      </trkpt>
      <trkpt lat="49.25767" lon="-0.23122">
        <ele>139.4</ele>
        <time>2024-04-07T12:52:40Z</time>
      </trkpt>
      <trkpt lat="49.25776" lon="-0.23122">
        <ele>139.4</ele>
        <time>2024-04-07T12:52:41Z</time>
      </trkpt>
      <trkpt lat="49.25784" lon="-0.23121">
        <ele>139.4</ele>
        <time>2024-04-07T12:52:42Z</time>
      </trkpt>
      <trkpt lat="49.25793" lon="-0.23121">
        <ele>139.4</ele>
        <time>2024-04-07T12:52:43Z</time>
      </trkpt>
      <trkpt lat="49.25802" lon="-0.2312">
        <ele>139.4</ele>
        <time>2024-04-07T12:52:44Z</time>
      </trkpt>
      <trkpt lat="49.25811" lon="-0.2312">
        <ele>139.4</ele>
        <time>2024-04-07T12:52:45Z</time>
      </trkpt>
      <trkpt lat="49.2582" lon="-0.2312">
        <ele>139.4</ele>
        <time>2024-04-07T12:52:46Z</time>
      </trkpt>
      <trkpt lat="49.25828" lon="-0.23121">
        <ele>139.4</ele>
        <time>2024-04-07T12:52:47Z</time>
      </trkpt>
      <trkpt lat="49.25837" lon="-0.23121">
        <ele>139.4</ele>
        <time>2024-04-07T12:52:48Z</time>
      </trkpt>
      <trkpt lat="49.25846" lon="-0.23121">
        <ele>139.4</ele>
        <time>2024-04-07T12:52:49Z</time>
      </trkpt>
      <trkpt lat="49.25855" lon="-0.23122">
        <ele>139.4</ele>
        <time>2024-04-07T12:52:50Z</time>
      </trkpt>
      <trkpt lat="49.25863" lon="-0.23123">
        <ele>139.4</ele>
        <time>2024-04-07T12:52:51Z</time>
      </trkpt>
      <trkpt lat="49.25872" lon="-0.23124">
        <ele>140</ele>
        <time>2024-04-07T12:52:52Z</time>
      </trkpt>
      <trkpt lat="49.25881" lon="-0.23125">
        <ele>140</ele>
        <time>2024-04-07T12:52:53Z</time>
      </trkpt>
      <trkpt lat="49.2589" lon="-0.23126">
        <ele>140</ele>
        <time>2024-04-07T12:52:54Z</time>
      </trkpt>
      <trkpt lat="49.25898" lon="-0.23127">
        <ele>140</ele>
        <time>2024-04-07T12:52:55Z</time>
      </trkpt>
      <trkpt lat="49.25907" lon="-0.23126">
        <ele>140</ele>
        <time>2024-04-07T12:52:56Z</time>
      </trkpt>
      <trkpt lat="49.25916" lon="-0.23126">
        <ele>140</ele>
        <time>2024-04-07T12:52:57Z</time>
      </trkpt>
      <trkpt lat="49.25925" lon="-0.23126">
        <ele>140</ele>
        <time>2024-04-07T12:52:58Z</time>
      </trkpt>
      <trkpt lat="49.25933" lon="-0.23125">
        <ele>140</ele>
        <time>2024-04-07T12:52:59Z</time>
      </trkpt>
      <trkpt lat="49.25942" lon="-0.23125">
        <ele>140</ele>
        <time>2024-04-07T12:53:00Z</time>
      </trkpt>
      <trkpt lat="49.2595" lon="-0.23125">
        <ele>140</ele>
        <time>2024-04-07T12:53:01Z</time>
      </trkpt>
      <trkpt lat="49.25959" lon="-0.23124">
        <ele>140</ele>
        <time>2024-04-07T12:53:02Z</time>
      </trkpt>
      <trkpt lat="49.25968" lon="-0.23123">
        <ele>140</ele>
        <time>2024-04-07T12:53:03Z</time>
      </trkpt>
      <trkpt lat="49.25977" lon="-0.23122">
        <ele>140</ele>
        <time>2024-04-07T12:53:04Z</time>
      </trkpt>
      <trkpt lat="49.25986" lon="-0.2312">
        <ele>140</ele>
        <time>2024-04-07T12:53:05Z</time>
      </trkpt>
      <trkpt lat="49.25996" lon="-0.23118">
        <ele>140</ele>
        <time>2024-04-07T12:53:06Z</time>
      </trkpt>
      <trkpt lat="49.26005" lon="-0.23116">
        <ele>140</ele>
        <time>2024-04-07T12:53:07Z</time>
      </trkpt>
      <trkpt lat="49.26016" lon="-0.23114">
        <ele>140</ele>
        <time>2024-04-07T12:53:08Z</time>
      </trkpt>
      <trkpt lat="49.26026" lon="-0.23111">
        <ele>140</ele>
        <time>2024-04-07T12:53:09Z</time>
      </trkpt>
      <trkpt lat="49.26036" lon="-0.23108">
        <ele>140</ele>
        <time>2024-04-07T12:53:10Z</time>
      </trkpt>
      <trkpt lat="49.26047" lon="-0.23104">
        <ele>140</ele>
        <time>2024-04-07T12:53:11Z</time>
      </trkpt>
      <trkpt lat="49.26057" lon="-0.23101">
        <ele>140</ele>
        <time>2024-04-07T12:53:12Z</time>
      </trkpt>
      <trkpt lat="49.26067" lon="-0.23097">
        <ele>140</ele>
        <time>2024-04-07T12:53:13Z</time>
      </trkpt>
      <trkpt lat="49.26078" lon="-0.23093">
        <ele>140</ele>
        <time>2024-04-07T12:53:14Z</time>
      </trkpt>
      <trkpt lat="49.26089" lon="-0.23089">
        <ele>140</ele>
        <time>2024-04-07T12:53:15Z</time>
      </trkpt>
      <trkpt lat="49.26098" lon="-0.23085">
        <ele>140</ele>
        <time>2024-04-07T12:53:16Z</time>
      </trkpt>
      <trkpt lat="49.26107" lon="-0.23081">
        <ele>140</ele>
        <time>2024-04-07T12:53:17Z</time>
      </trkpt>
      <trkpt lat="49.26116" lon="-0.23078">
        <ele>140</ele>
        <time>2024-04-07T12:53:18Z</time>
      </trkpt>
      <trkpt lat="49.26124" lon="-0.23074">
        <ele>140</ele>
        <time>2024-04-07T12:53:19Z</time>
      </trkpt>
      <trkpt lat="49.26132" lon="-0.23071">
        <ele>140</ele>
        <time>2024-04-07T12:53:20Z</time>
      </trkpt>
      <trkpt lat="49.26141" lon="-0.23066">
        <ele>140</ele>
        <time>2024-04-07T12:53:21Z</time>
      </trkpt>
      <trkpt lat="49.26149" lon="-0.23062">
        <ele>140</ele>
        <time>2024-04-07T12:53:22Z</time>
      </trkpt>
      <trkpt lat="49.26159" lon="-0.23056">
        <ele>140</ele>
        <time>2024-04-07T12:53:23Z</time>
      </trkpt>
      <trkpt lat="49.26168" lon="-0.23049">
        <ele>140</ele>
        <time>2024-04-07T12:53:24Z</time>
      </trkpt>
      <trkpt lat="49.26178" lon="-0.23042">
        <ele>140</ele>
        <time>2024-04-07T12:53:25Z</time>
      </trkpt>
      <trkpt lat="49.26189" lon="-0.23035">
        <ele>140</ele>
        <time>2024-04-07T12:53:26Z</time>
      </trkpt>
      <trkpt lat="49.26199" lon="-0.23028">
        <ele>140</ele>
        <time>2024-04-07T12:53:27Z</time>
      </trkpt>
      <trkpt lat="49.2621" lon="-0.23021">
        <ele>140</ele>
        <time>2024-04-07T12:53:28Z</time>
      </trkpt>
      <trkpt lat="49.2622" lon="-0.23014">
        <ele>140</ele>
        <time>2024-04-07T12:53:29Z</time>
      </trkpt>
      <trkpt lat="49.26231" lon="-0.23009">
        <ele>140</ele>
        <time>2024-04-07T12:53:30Z</time>
      </trkpt>
      <trkpt lat="49.26241" lon="-0.23006">
        <ele>140</ele>
        <time>2024-04-07T12:53:31Z</time>
      </trkpt>
      <trkpt lat="49.26252" lon="-0.23004">
        <ele>140</ele>
        <time>2024-04-07T12:53:32Z</time>
      </trkpt>
      <trkpt lat="49.26262" lon="-0.23002">
        <ele>140</ele>
        <time>2024-04-07T12:53:33Z</time>
      </trkpt>
      <trkpt lat="49.26272" lon="-0.23002">
        <ele>140</ele>
        <time>2024-04-07T12:53:34Z</time>
      </trkpt>
      <trkpt lat="49.26281" lon="-0.23002">
        <ele>140</ele>
        <time>2024-04-07T12:53:35Z</time>
      </trkpt>
      <trkpt lat="49.26289" lon="-0.23001">
        <ele>140</ele>
        <time>2024-04-07T12:53:36Z</time>
      </trkpt>
      <trkpt lat="49.26297" lon="-0.23001">
        <ele>140</ele>
        <time>2024-04-07T12:53:37Z</time>
      </trkpt>
      <trkpt lat="49.26305" lon="-0.23001">
        <ele>140</ele>
        <time>2024-04-07T12:53:38Z</time>
      </trkpt>
      <trkpt lat="49.26313" lon="-0.23">
        <ele>140</ele>
        <time>2024-04-07T12:53:39Z</time>
      </trkpt>
      <trkpt lat="49.2632" lon="-0.23">
        <ele>140</ele>
        <time>2024-04-07T12:53:40Z</time>
      </trkpt>
      <trkpt lat="49.26327" lon="-0.23">
        <ele>140</ele>
        <time>2024-04-07T12:53:41Z</time>
      </trkpt>
      <trkpt lat="49.26332" lon="-0.22999">
        <ele>140</ele>
        <time>2024-04-07T12:53:42Z</time>
      </trkpt>
      <trkpt lat="49.26338" lon="-0.22998">
        <ele>140</ele>
        <time>2024-04-07T12:53:43Z</time>
      </trkpt>
      <trkpt lat="49.26342" lon="-0.22994">
        <ele>140</ele>
        <time>2024-04-07T12:53:44Z</time>
      </trkpt>
      <trkpt lat="49.26344" lon="-0.22987">
        <ele>140</ele>
        <time>2024-04-07T12:53:45Z</time>
      </trkpt>
      <trkpt lat="49.26347" lon="-0.2298">
        <ele>140</ele>
        <time>2024-04-07T12:53:46Z</time>
      </trkpt>
      <trkpt lat="49.26351" lon="-0.22973">
        <ele>140</ele>
        <time>2024-04-07T12:53:47Z</time>
      </trkpt>
      <trkpt lat="49.26354" lon="-0.22966">
        <ele>140</ele>
        <time>2024-04-07T12:53:48Z</time>
      </trkpt>
      <trkpt lat="49.26356" lon="-0.22958">
        <ele>140</ele>
        <time>2024-04-07T12:53:49Z</time>
      </trkpt>
      <trkpt lat="49.26359" lon="-0.22949">
        <ele>140</ele>
        <time>2024-04-07T12:53:50Z</time>
      </trkpt>
      <trkpt lat="49.26362" lon="-0.22941">
        <ele>140</ele>
        <time>2024-04-07T12:53:51Z</time>
      </trkpt>
      <trkpt lat="49.26365" lon="-0.22932">
        <ele>140</ele>
        <time>2024-04-07T12:53:52Z</time>
      </trkpt>
      <trkpt lat="49.26368" lon="-0.22923">
        <ele>140</ele>
        <time>2024-04-07T12:53:53Z</time>
      </trkpt>
      <trkpt lat="49.26372" lon="-0.22914">
        <ele>140</ele>
        <time>2024-04-07T12:53:54Z</time>
      </trkpt>
      <trkpt lat="49.26374" lon="-0.22905">
        <ele>140</ele>
        <time>2024-04-07T12:53:55Z</time>
      </trkpt>
      <trkpt lat="49.26376" lon="-0.22895">
        <ele>140</ele>
        <time>2024-04-07T12:53:56Z</time>
      </trkpt>
      <trkpt lat="49.26378" lon="-0.22885">
        <ele>140</ele>
        <time>2024-04-07T12:53:57Z</time>
      </trkpt>
      <trkpt lat="49.2638" lon="-0.22875">
        <ele>140</ele>
        <time>2024-04-07T12:53:58Z</time>
      </trkpt>
      <trkpt lat="49.26383" lon="-0.22865">
        <ele>140</ele>
        <time>2024-04-07T12:53:59Z</time>
      </trkpt>
      <trkpt lat="49.26386" lon="-0.22855">
        <ele>140</ele>
        <time>2024-04-07T12:54:00Z</time>
      </trkpt>
      <trkpt lat="49.26389" lon="-0.22844">
        <ele>140</ele>
        <time>2024-04-07T12:54:01Z</time>
      </trkpt>
      <trkpt lat="49.26392" lon="-0.22834">
        <ele>140</ele>
        <time>2024-04-07T12:54:02Z</time>
      </trkpt>
      <trkpt lat="49.26396" lon="-0.22824">
        <ele>140</ele>
        <time>2024-04-07T12:54:03Z</time>
      </trkpt>
      <trkpt lat="49.264" lon="-0.22815">
        <ele>140</ele>
        <time>2024-04-07T12:54:04Z</time>
      </trkpt>
      <trkpt lat="49.26404" lon="-0.22806">
        <ele>140</ele>
        <time>2024-04-07T12:54:05Z</time>
      </trkpt>
      <trkpt lat="49.26409" lon="-0.22796">
        <ele>140</ele>
        <time>2024-04-07T12:54:06Z</time>
      </trkpt>
      <trkpt lat="49.26413" lon="-0.22787">
        <ele>140</ele>
        <time>2024-04-07T12:54:07Z</time>
      </trkpt>
      <trkpt lat="49.26418" lon="-0.22777">
        <ele>140</ele>
        <time>2024-04-07T12:54:08Z</time>
      </trkpt>
      <trkpt lat="49.26423" lon="-0.22767">
        <ele>140</ele>
        <time>2024-04-07T12:54:09Z</time>
      </trkpt>
      <trkpt lat="49.26427" lon="-0.22757">
        <ele>140</ele>
        <time>2024-04-07T12:54:10Z</time>
      </trkpt>
      <trkpt lat="49.26431" lon="-0.22748">
        <ele>140</ele>
        <time>2024-04-07T12:54:11Z</time>
      </trkpt>
      <trkpt lat="49.26435" lon="-0.22738">
        <ele>140</ele>
        <time>2024-04-07T12:54:12Z</time>
      </trkpt>
      <trkpt lat="49.26439" lon="-0.22728">
        <ele>140</ele>
        <time>2024-04-07T12:54:13Z</time>
      </trkpt>
      <trkpt lat="49.26443" lon="-0.22719">
        <ele>140</ele>
        <time>2024-04-07T12:54:14Z</time>
      </trkpt>
      <trkpt lat="49.26446" lon="-0.22709">
        <ele>140</ele>
        <time>2024-04-07T12:54:15Z</time>
      </trkpt>
      <trkpt lat="49.26449" lon="-0.22699">
        <ele>140</ele>
        <time>2024-04-07T12:54:16Z</time>
      </trkpt>
      <trkpt lat="49.26452" lon="-0.22689">
        <ele>140</ele>
        <time>2024-04-07T12:54:17Z</time>
      </trkpt>
      <trkpt lat="49.26455" lon="-0.22679">
        <ele>140</ele>
        <time>2024-04-07T12:54:18Z</time>
      </trkpt>
      <trkpt lat="49.26458" lon="-0.22669">
        <ele>140</ele>
        <time>2024-04-07T12:54:19Z</time>
      </trkpt>
      <trkpt lat="49.26462" lon="-0.22659">
        <ele>140</ele>
        <time>2024-04-07T12:54:20Z</time>
      </trkpt>
      <trkpt lat="49.26465" lon="-0.22649">
        <ele>140</ele>
        <time>2024-04-07T12:54:21Z</time>
      </trkpt>
      <trkpt lat="49.26468" lon="-0.22639">
        <ele>140</ele>
        <time>2024-04-07T12:54:22Z</time>
      </trkpt>
      <trkpt lat="49.26472" lon="-0.22628">
        <ele>140</ele>
        <time>2024-04-07T12:54:23Z</time>
      </trkpt>
      <trkpt lat="49.26475" lon="-0.22618">
        <ele>140</ele>
        <time>2024-04-07T12:54:24Z</time>
      </trkpt>
      <trkpt lat="49.26478" lon="-0.22607">
        <ele>140</ele>
        <time>2024-04-07T12:54:25Z</time>
      </trkpt>
      <trkpt lat="49.26481" lon="-0.22596">
        <ele>140</ele>
        <time>2024-04-07T12:54:26Z</time>
      </trkpt>
      <trkpt lat="49.26484" lon="-0.22586">
        <ele>140</ele>
        <time>2024-04-07T12:54:27Z</time>
      </trkpt>
      <trkpt lat="49.26488" lon="-0.22575">
        <ele>140</ele>
        <time>2024-04-07T12:54:28Z</time>
      </trkpt>
      <trkpt lat="49.2649" lon="-0.22564">
        <ele>140</ele>
        <time>2024-04-07T12:54:29Z</time>
      </trkpt>
      <trkpt lat="49.26493" lon="-0.22553">
        <ele>140</ele>
        <time>2024-04-07T12:54:30Z</time>
      </trkpt>
      <trkpt lat="49.26495" lon="-0.22542">
        <ele>140</ele>
        <time>2024-04-07T12:54:31Z</time>
      </trkpt>
      <trkpt lat="49.26497" lon="-0.22531">
        <ele>140</ele>
        <time>2024-04-07T12:54:32Z</time>
      </trkpt>
      <trkpt lat="49.26499" lon="-0.22519">
        <ele>140</ele>
        <time>2024-04-07T12:54:33Z</time>
      </trkpt>
      <trkpt lat="49.26502" lon="-0.22508">
        <ele>140</ele>
        <time>2024-04-07T12:54:34Z</time>
      </trkpt>
      <trkpt lat="49.26505" lon="-0.22497">
        <ele>140</ele>
        <time>2024-04-07T12:54:35Z</time>
      </trkpt>
      <trkpt lat="49.26507" lon="-0.22486">
        <ele>140</ele>
        <time>2024-04-07T12:54:36Z</time>
      </trkpt>
      <trkpt lat="49.2651" lon="-0.22474">
        <ele>140</ele>
        <time>2024-04-07T12:54:37Z</time>
      </trkpt>
      <trkpt lat="49.26513" lon="-0.22463">
        <ele>140</ele>
        <time>2024-04-07T12:54:38Z</time>
      </trkpt>
      <trkpt lat="49.26517" lon="-0.22452">
        <ele>140</ele>
        <time>2024-04-07T12:54:39Z</time>
      </trkpt>
      <trkpt lat="49.2652" lon="-0.22441">
        <ele>140</ele>
        <time>2024-04-07T12:54:40Z</time>
      </trkpt>
      <trkpt lat="49.26524" lon="-0.2243">
        <ele>140</ele>
        <time>2024-04-07T12:54:41Z</time>
      </trkpt>
      <trkpt lat="49.26527" lon="-0.22419">
        <ele>140</ele>
        <time>2024-04-07T12:54:42Z</time>
      </trkpt>
      <trkpt lat="49.26531" lon="-0.22407">
        <ele>140</ele>
        <time>2024-04-07T12:54:43Z</time>
      </trkpt>
      <trkpt lat="49.26535" lon="-0.22395">
        <ele>140</ele>
        <time>2024-04-07T12:54:44Z</time>
      </trkpt>
      <trkpt lat="49.26538" lon="-0.22384">
        <ele>140</ele>
        <time>2024-04-07T12:54:45Z</time>
      </trkpt>
      <trkpt lat="49.26541" lon="-0.22373">
        <ele>140</ele>
        <time>2024-04-07T12:54:46Z</time>
      </trkpt>
      <trkpt lat="49.26545" lon="-0.22362">
        <ele>140</ele>
        <time>2024-04-07T12:54:47Z</time>
      </trkpt>
      <trkpt lat="49.26548" lon="-0.22351">
        <ele>140</ele>
        <time>2024-04-07T12:54:48Z</time>
      </trkpt>
      <trkpt lat="49.26551" lon="-0.2234">
        <ele>140</ele>
        <time>2024-04-07T12:54:49Z</time>
      </trkpt>
      <trkpt lat="49.26555" lon="-0.2233">
        <ele>140</ele>
        <time>2024-04-07T12:54:50Z</time>
      </trkpt>
      <trkpt lat="49.26558" lon="-0.22319">
        <ele>140</ele>
        <time>2024-04-07T12:54:51Z</time>
      </trkpt>
      <trkpt lat="49.26561" lon="-0.22308">
        <ele>140</ele>
        <time>2024-04-07T12:54:52Z</time>
      </trkpt>
      <trkpt lat="49.26565" lon="-0.22296">
        <ele>140</ele>
        <time>2024-04-07T12:54:53Z</time>
      </trkpt>
      <trkpt lat="49.26568" lon="-0.22286">
        <ele>140</ele>
        <time>2024-04-07T12:54:54Z</time>
      </trkpt>
      <trkpt lat="49.26572" lon="-0.22275">
        <ele>140</ele>
        <time>2024-04-07T12:54:55Z</time>
      </trkpt>
      <trkpt lat="49.26576" lon="-0.22265">
        <ele>140</ele>
        <time>2024-04-07T12:54:56Z</time>
      </trkpt>
      <trkpt lat="49.26581" lon="-0.22255">
        <ele>140</ele>
        <time>2024-04-07T12:54:57Z</time>
      </trkpt>
      <trkpt lat="49.26585" lon="-0.22245">
        <ele>140</ele>
        <time>2024-04-07T12:54:58Z</time>
      </trkpt>
      <trkpt lat="49.2659" lon="-0.22235">
        <ele>140</ele>
        <time>2024-04-07T12:54:59Z</time>
      </trkpt>
      <trkpt lat="49.26595" lon="-0.22225">
        <ele>140</ele>
        <time>2024-04-07T12:55:00Z</time>
      </trkpt>
      <trkpt lat="49.266" lon="-0.22215">
        <ele>140</ele>
        <time>2024-04-07T12:55:01Z</time>
      </trkpt>
      <trkpt lat="49.26605" lon="-0.22206">
        <ele>140</ele>
        <time>2024-04-07T12:55:02Z</time>
      </trkpt>
      <trkpt lat="49.26611" lon="-0.22196">
        <ele>140</ele>
        <time>2024-04-07T12:55:03Z</time>
      </trkpt>
      <trkpt lat="49.26616" lon="-0.22188">
        <ele>140</ele>
        <time>2024-04-07T12:55:04Z</time>
      </trkpt>
      <trkpt lat="49.26622" lon="-0.22179">
        <ele>140</ele>
        <time>2024-04-07T12:55:05Z</time>
      </trkpt>
      <trkpt lat="49.26629" lon="-0.22171">
        <ele>140</ele>
        <time>2024-04-07T12:55:06Z</time>
      </trkpt>
      <trkpt lat="49.26635" lon="-0.22163">
        <ele>140</ele>
        <time>2024-04-07T12:55:07Z</time>
      </trkpt>
      <trkpt lat="49.26641" lon="-0.22156">
        <ele>140</ele>
        <time>2024-04-07T12:55:08Z</time>
      </trkpt>
      <trkpt lat="49.26648" lon="-0.22149">
        <ele>140</ele>
        <time>2024-04-07T12:55:09Z</time>
      </trkpt>
      <trkpt lat="49.26655" lon="-0.22142">
        <ele>140</ele>
        <time>2024-04-07T12:55:10Z</time>
      </trkpt>
      <trkpt lat="49.26662" lon="-0.22135">
        <ele>140</ele>
        <time>2024-04-07T12:55:11Z</time>
      </trkpt>
      <trkpt lat="49.26669" lon="-0.22129">
        <ele>140</ele>
        <time>2024-04-07T12:55:12Z</time>
      </trkpt>
      <trkpt lat="49.26676" lon="-0.22123">
        <ele>140</ele>
        <time>2024-04-07T12:55:13Z</time>
      </trkpt>
      <trkpt lat="49.26683" lon="-0.22117">
        <ele>140</ele>
        <time>2024-04-07T12:55:14Z</time>
      </trkpt>
      <trkpt lat="49.2669" lon="-0.22111">
        <ele>140</ele>
        <time>2024-04-07T12:55:15Z</time>
      </trkpt>
      <trkpt lat="49.26697" lon="-0.22106">
        <ele>140</ele>
        <time>2024-04-07T12:55:16Z</time>
      </trkpt>
      <trkpt lat="49.26704" lon="-0.221">
        <ele>140</ele>
        <time>2024-04-07T12:55:17Z</time>
      </trkpt>
      <trkpt lat="49.26711" lon="-0.22095">
        <ele>140</ele>
        <time>2024-04-07T12:55:18Z</time>
      </trkpt>
      <trkpt lat="49.26718" lon="-0.22091">
        <ele>140</ele>
        <time>2024-04-07T12:55:19Z</time>
      </trkpt>
      <trkpt lat="49.26726" lon="-0.22086">
        <ele>140</ele>
        <time>2024-04-07T12:55:20Z</time>
      </trkpt>
      <trkpt lat="49.26733" lon="-0.22082">
        <ele>140</ele>
        <time>2024-04-07T12:55:21Z</time>
      </trkpt>
      <trkpt lat="49.26741" lon="-0.22078">
        <ele>140</ele>
        <time>2024-04-07T12:55:22Z</time>
      </trkpt>
      <trkpt lat="49.26749" lon="-0.22074">
        <ele>140</ele>
        <time>2024-04-07T12:55:23Z</time>
      </trkpt>
      <trkpt lat="49.26756" lon="-0.2207">
        <ele>140</ele>
        <time>2024-04-07T12:55:24Z</time>
      </trkpt>
      <trkpt lat="49.26764" lon="-0.22067">
        <ele>140</ele>
        <time>2024-04-07T12:55:25Z</time>
      </trkpt>
      <trkpt lat="49.26772" lon="-0.22065">
        <ele>140</ele>
        <time>2024-04-07T12:55:26Z</time>
      </trkpt>
      <trkpt lat="49.26779" lon="-0.22063">
        <ele>140</ele>
        <time>2024-04-07T12:55:27Z</time>
      </trkpt>
      <trkpt lat="49.26786" lon="-0.22061">
        <ele>140</ele>
        <time>2024-04-07T12:55:28Z</time>
      </trkpt>
      <trkpt lat="49.26794" lon="-0.22059">
        <ele>140</ele>
        <time>2024-04-07T12:55:29Z</time>
      </trkpt>
      <trkpt lat="49.26801" lon="-0.22057">
        <ele>140</ele>
        <time>2024-04-07T12:55:30Z</time>
      </trkpt>
      <trkpt lat="49.26809" lon="-0.22055">
        <ele>140</ele>
        <time>2024-04-07T12:55:31Z</time>
      </trkpt>
      <trkpt lat="49.26817" lon="-0.22053">
        <ele>140</ele>
        <time>2024-04-07T12:55:32Z</time>
      </trkpt>
      <trkpt lat="49.26825" lon="-0.22051">
        <ele>140</ele>
        <time>2024-04-07T12:55:33Z</time>
      </trkpt>
      <trkpt lat="49.26833" lon="-0.22048">
        <ele>140</ele>
        <time>2024-04-07T12:55:34Z</time>
      </trkpt>
      <trkpt lat="49.26841" lon="-0.22045">
        <ele>140</ele>
        <time>2024-04-07T12:55:35Z</time>
      </trkpt>
      <trkpt lat="49.26849" lon="-0.22043">
        <ele>140</ele>
        <time>2024-04-07T12:55:36Z</time>
      </trkpt>
      <trkpt lat="49.26857" lon="-0.2204">
        <ele>140</ele>
        <time>2024-04-07T12:55:37Z</time>
      </trkpt>
      <trkpt lat="49.26866" lon="-0.22037">
        <ele>140</ele>
        <time>2024-04-07T12:55:38Z</time>
      </trkpt>
      <trkpt lat="49.26875" lon="-0.22035">
        <ele>140</ele>
        <time>2024-04-07T12:55:39Z</time>
      </trkpt>
      <trkpt lat="49.26883" lon="-0.22033">
        <ele>140</ele>
        <time>2024-04-07T12:55:40Z</time>
      </trkpt>
      <trkpt lat="49.26891" lon="-0.22031">
        <ele>140</ele>
        <time>2024-04-07T12:55:41Z</time>
      </trkpt>
      <trkpt lat="49.26899" lon="-0.22028">
        <ele>140</ele>
        <time>2024-04-07T12:55:42Z</time>
      </trkpt>
      <trkpt lat="49.26907" lon="-0.22026">
        <ele>140</ele>
        <time>2024-04-07T12:55:43Z</time>
      </trkpt>
      <trkpt lat="49.26915" lon="-0.22023">
        <ele>140</ele>
        <time>2024-04-07T12:55:44Z</time>
      </trkpt>
      <trkpt lat="49.26923" lon="-0.22021">
        <ele>140</ele>
        <time>2024-04-07T12:55:45Z</time>
      </trkpt>
      <trkpt lat="49.26931" lon="-0.22018">
        <ele>140</ele>
        <time>2024-04-07T12:55:46Z</time>
      </trkpt>
      <trkpt lat="49.26939" lon="-0.22016">
        <ele>140</ele>
        <time>2024-04-07T12:55:47Z</time>
      </trkpt>
      <trkpt lat="49.26946" lon="-0.22013">
        <ele>140</ele>
        <time>2024-04-07T12:55:48Z</time>
      </trkpt>
      <trkpt lat="49.26955" lon="-0.2201">
        <ele>140</ele>
        <time>2024-04-07T12:55:49Z</time>
      </trkpt>
      <trkpt lat="49.26964" lon="-0.22008">
        <ele>140</ele>
        <time>2024-04-07T12:55:50Z</time>
      </trkpt>
      <trkpt lat="49.26973" lon="-0.22005">
        <ele>140</ele>
        <time>2024-04-07T12:55:51Z</time>
      </trkpt>
      <trkpt lat="49.26982" lon="-0.22002">
        <ele>127.8</ele>
        <time>2024-04-07T12:55:52Z</time>
      </trkpt>
      <trkpt lat="49.26992" lon="-0.21998">
        <ele>127.8</ele>
        <time>2024-04-07T12:55:53Z</time>
      </trkpt>
      <trkpt lat="49.27" lon="-0.21993">
        <ele>127.8</ele>
        <time>2024-04-07T12:55:54Z</time>
      </trkpt>
      <trkpt lat="49.27009" lon="-0.21987">
        <ele>127.8</ele>
        <time>2024-04-07T12:55:55Z</time>
      </trkpt>
      <trkpt lat="49.27017" lon="-0.21981">
        <ele>127.8</ele>
        <time>2024-04-07T12:55:56Z</time>
      </trkpt>
      <trkpt lat="49.27026" lon="-0.21975">
        <ele>127.8</ele>
        <time>2024-04-07T12:55:57Z</time>
      </trkpt>
      <trkpt lat="49.27033" lon="-0.21969">
        <ele>127.8</ele>
        <time>2024-04-07T12:55:58Z</time>
      </trkpt>
      <trkpt lat="49.27041" lon="-0.21962">
        <ele>127.8</ele>
        <time>2024-04-07T12:55:59Z</time>
      </trkpt>
      <trkpt lat="49.27048" lon="-0.21954">
        <ele>127.8</ele>
        <time>2024-04-07T12:56:00Z</time>
      </trkpt>
      <trkpt lat="49.27055" lon="-0.21947">
        <ele>127.8</ele>
        <time>2024-04-07T12:56:01Z</time>
      </trkpt>
      <trkpt lat="49.27062" lon="-0.21939">
        <ele>127.8</ele>
        <time>2024-04-07T12:56:02Z</time>
      </trkpt>
      <trkpt lat="49.27069" lon="-0.2193">
        <ele>127.8</ele>
        <time>2024-04-07T12:56:03Z</time>
      </trkpt>
      <trkpt lat="49.27076" lon="-0.21921">
        <ele>127.8</ele>
        <time>2024-04-07T12:56:04Z</time>
      </trkpt>
      <trkpt lat="49.27083" lon="-0.21912">
        <ele>127.8</ele>
        <time>2024-04-07T12:56:05Z</time>
      </trkpt>
      <trkpt lat="49.27089" lon="-0.21902">
        <ele>127.8</ele>
        <time>2024-04-07T12:56:06Z</time>
      </trkpt>
      <trkpt lat="49.27096" lon="-0.21893">
        <ele>127.8</ele>
        <time>2024-04-07T12:56:07Z</time>
      </trkpt>
      <trkpt lat="49.27102" lon="-0.21884">
        <ele>127.8</ele>
        <time>2024-04-07T12:56:08Z</time>
      </trkpt>
      <trkpt lat="49.27108" lon="-0.21875">
        <ele>127.8</ele>
        <time>2024-04-07T12:56:09Z</time>
      </trkpt>
      <trkpt lat="49.27115" lon="-0.21866">
        <ele>127.8</ele>
        <time>2024-04-07T12:56:10Z</time>
      </trkpt>
      <trkpt lat="49.27121" lon="-0.21857">
        <ele>127.8</ele>
        <time>2024-04-07T12:56:11Z</time>
      </trkpt>
      <trkpt lat="49.27127" lon="-0.21848">
        <ele>127.8</ele>
        <time>2024-04-07T12:56:12Z</time>
      </trkpt>
      <trkpt lat="49.27133" lon="-0.21839">
        <ele>127.8</ele>
        <time>2024-04-07T12:56:13Z</time>
      </trkpt>
      <trkpt lat="49.27139" lon="-0.21831">
        <ele>127.8</ele>
        <time>2024-04-07T12:56:14Z</time>
      </trkpt>
      <trkpt lat="49.27145" lon="-0.21822">
        <ele>127.8</ele>
        <time>2024-04-07T12:56:15Z</time>
      </trkpt>
      <trkpt lat="49.27151" lon="-0.21813">
        <ele>127.8</ele>
        <time>2024-04-07T12:56:16Z</time>
      </trkpt>
      <trkpt lat="49.27157" lon="-0.21805">
        <ele>127.8</ele>
        <time>2024-04-07T12:56:17Z</time>
      </trkpt>
      <trkpt lat="49.27163" lon="-0.21796">
        <ele>127.8</ele>
        <time>2024-04-07T12:56:18Z</time>
      </trkpt>
      <trkpt lat="49.27169" lon="-0.21788">
        <ele>127.8</ele>
        <time>2024-04-07T12:56:19Z</time>
      </trkpt>
      <trkpt lat="49.27175" lon="-0.21779">
        <ele>127.8</ele>
        <time>2024-04-07T12:56:20Z</time>
      </trkpt>
      <trkpt lat="49.27181" lon="-0.21771">
        <ele>127.8</ele>
        <time>2024-04-07T12:56:21Z</time>
      </trkpt>
      <trkpt lat="49.27187" lon="-0.21762">
        <ele>127.8</ele>
        <time>2024-04-07T12:56:22Z</time>
      </trkpt>
      <trkpt lat="49.27193" lon="-0.21754">
        <ele>127.8</ele>
        <time>2024-04-07T12:56:23Z</time>
      </trkpt>
      <trkpt lat="49.27199" lon="-0.21745">
        <ele>127.8</ele>
        <time>2024-04-07T12:56:24Z</time>
      </trkpt>
      <trkpt lat="49.27205" lon="-0.21736">
        <ele>127.8</ele>
        <time>2024-04-07T12:56:25Z</time>
      </trkpt>
      <trkpt lat="49.27212" lon="-0.21728">
        <ele>127.8</ele>
        <time>2024-04-07T12:56:26Z</time>
      </trkpt>
      <trkpt lat="49.27218" lon="-0.21719">
        <ele>127.8</ele>
        <time>2024-04-07T12:56:27Z</time>
      </trkpt>
      <trkpt lat="49.27224" lon="-0.2171">
        <ele>127.8</ele>
        <time>2024-04-07T12:56:28Z</time>
      </trkpt>
      <trkpt lat="49.2723" lon="-0.21702">
        <ele>127.8</ele>
        <time>2024-04-07T12:56:29Z</time>
      </trkpt>
      <trkpt lat="49.27236" lon="-0.21693">
        <ele>127.8</ele>
        <time>2024-04-07T12:56:30Z</time>
      </trkpt>
      <trkpt lat="49.27242" lon="-0.21685">
        <ele>127.8</ele>
        <time>2024-04-07T12:56:31Z</time>
      </trkpt>
      <trkpt lat="49.27248" lon="-0.21677">
        <ele>127.8</ele>
        <time>2024-04-07T12:56:32Z</time>
      </trkpt>
      <trkpt lat="49.27254" lon="-0.21668">
        <ele>127.8</ele>
        <time>2024-04-07T12:56:33Z</time>
      </trkpt>
      <trkpt lat="49.2726" lon="-0.2166">
        <ele>127.8</ele>
        <time>2024-04-07T12:56:34Z</time>
      </trkpt>
      <trkpt lat="49.27266" lon="-0.21651">
        <ele>127.8</ele>
        <time>2024-04-07T12:56:35Z</time>
      </trkpt>
      <trkpt lat="49.27272" lon="-0.21643">
        <ele>127.8</ele>
        <time>2024-04-07T12:56:36Z</time>
      </trkpt>
      <trkpt lat="49.27278" lon="-0.21634">
        <ele>127.8</ele>
        <time>2024-04-07T12:56:37Z</time>
      </trkpt>
      <trkpt lat="49.27284" lon="-0.21626">
        <ele>127.8</ele>
        <time>2024-04-07T12:56:38Z</time>
      </trkpt>
      <trkpt lat="49.2729" lon="-0.21617">
        <ele>127.8</ele>
        <time>2024-04-07T12:56:39Z</time>
      </trkpt>
      <trkpt lat="49.27296" lon="-0.21609">
        <ele>127.8</ele>
        <time>2024-04-07T12:56:40Z</time>
      </trkpt>
      <trkpt lat="49.27302" lon="-0.216">
        <ele>127.8</ele>
        <time>2024-04-07T12:56:41Z</time>
      </trkpt>
      <trkpt lat="49.27308" lon="-0.21592">
        <ele>127.8</ele>
        <time>2024-04-07T12:56:42Z</time>
      </trkpt>
      <trkpt lat="49.27314" lon="-0.21583">
        <ele>127.8</ele>
        <time>2024-04-07T12:56:43Z</time>
      </trkpt>
      <trkpt lat="49.27319" lon="-0.21575">
        <ele>127.8</ele>
        <time>2024-04-07T12:56:44Z</time>
      </trkpt>
      <trkpt lat="49.27325" lon="-0.21566">
        <ele>127.8</ele>
        <time>2024-04-07T12:56:45Z</time>
      </trkpt>
      <trkpt lat="49.2733" lon="-0.21557">
        <ele>127.8</ele>
        <time>2024-04-07T12:56:46Z</time>
      </trkpt>
      <trkpt lat="49.27336" lon="-0.21548">
        <ele>127.8</ele>
        <time>2024-04-07T12:56:47Z</time>
      </trkpt>
      <trkpt lat="49.27341" lon="-0.2154">
        <ele>127.8</ele>
        <time>2024-04-07T12:56:48Z</time>
      </trkpt>
      <trkpt lat="49.27346" lon="-0.21531">
        <ele>127.8</ele>
        <time>2024-04-07T12:56:49Z</time>
      </trkpt>
      <trkpt lat="49.27352" lon="-0.21522">
        <ele>127.8</ele>
        <time>2024-04-07T12:56:50Z</time>
      </trkpt>
      <trkpt lat="49.27357" lon="-0.21513">
        <ele>127.8</ele>
        <time>2024-04-07T12:56:51Z</time>
      </trkpt>
      <trkpt lat="49.27362" lon="-0.21504">
        <ele>110.4</ele>
        <time>2024-04-07T12:56:52Z</time>
      </trkpt>
      <trkpt lat="49.27367" lon="-0.21495">
        <ele>110.4</ele>
        <time>2024-04-07T12:56:53Z</time>
      </trkpt>
      <trkpt lat="49.27372" lon="-0.21486">
        <ele>110.4</ele>
        <time>2024-04-07T12:56:54Z</time>
      </trkpt>
      <trkpt lat="49.27378" lon="-0.21476">
        <ele>110.4</ele>
        <time>2024-04-07T12:56:55Z</time>
      </trkpt>
      <trkpt lat="49.27383" lon="-0.21467">
        <ele>110.4</ele>
        <time>2024-04-07T12:56:56Z</time>
      </trkpt>
      <trkpt lat="49.27388" lon="-0.21457">
        <ele>110.4</ele>
        <time>2024-04-07T12:56:57Z</time>
      </trkpt>
      <trkpt lat="49.27393" lon="-0.21447">
        <ele>110.4</ele>
        <time>2024-04-07T12:56:58Z</time>
      </trkpt>
      <trkpt lat="49.27398" lon="-0.21437">
        <ele>110.4</ele>
        <time>2024-04-07T12:56:59Z</time>
      </trkpt>
      <trkpt lat="49.27402" lon="-0.21426">
        <ele>110.4</ele>
        <time>2024-04-07T12:57:00Z</time>
      </trkpt>
      <trkpt lat="49.27407" lon="-0.21416">
        <ele>110.4</ele>
        <time>2024-04-07T12:57:01Z</time>
      </trkpt>
      <trkpt lat="49.27412" lon="-0.21405">
        <ele>110.4</ele>
        <time>2024-04-07T12:57:02Z</time>
      </trkpt>
      <trkpt lat="49.27416" lon="-0.21395">
        <ele>110.4</ele>
        <time>2024-04-07T12:57:03Z</time>
      </trkpt>
      <trkpt lat="49.27421" lon="-0.21384">
        <ele>110.4</ele>
        <time>2024-04-07T12:57:04Z</time>
      </trkpt>
      <trkpt lat="49.27425" lon="-0.21373">
        <ele>110.4</ele>
        <time>2024-04-07T12:57:05Z</time>
      </trkpt>
      <trkpt lat="49.27429" lon="-0.21362">
        <ele>110.4</ele>
        <time>2024-04-07T12:57:06Z</time>
      </trkpt>
      <trkpt lat="49.27433" lon="-0.2135">
        <ele>110.4</ele>
        <time>2024-04-07T12:57:07Z</time>
      </trkpt>
      <trkpt lat="49.27437" lon="-0.2134">
        <ele>110.4</ele>
        <time>2024-04-07T12:57:08Z</time>
      </trkpt>
      <trkpt lat="49.27441" lon="-0.21329">
        <ele>110.4</ele>
        <time>2024-04-07T12:57:09Z</time>
      </trkpt>
      <trkpt lat="49.27444" lon="-0.21318">
        <ele>110.4</ele>
        <time>2024-04-07T12:57:10Z</time>
      </trkpt>
      <trkpt lat="49.27448" lon="-0.21307">
        <ele>110.4</ele>
        <time>2024-04-07T12:57:11Z</time>
      </trkpt>
      <trkpt lat="49.27451" lon="-0.21297">
        <ele>110.4</ele>
        <time>2024-04-07T12:57:12Z</time>
      </trkpt>
      <trkpt lat="49.27455" lon="-0.21285">
        <ele>110.4</ele>
        <time>2024-04-07T12:57:13Z</time>
      </trkpt>
      <trkpt lat="49.27458" lon="-0.21274">
        <ele>110.4</ele>
        <time>2024-04-07T12:57:14Z</time>
      </trkpt>
      <trkpt lat="49.27461" lon="-0.21264">
        <ele>110.4</ele>
        <time>2024-04-07T12:57:15Z</time>
      </trkpt>
      <trkpt lat="49.27464" lon="-0.21253">
        <ele>110.4</ele>
        <time>2024-04-07T12:57:16Z</time>
      </trkpt>
      <trkpt lat="49.27467" lon="-0.21242">
        <ele>110.4</ele>
        <time>2024-04-07T12:57:17Z</time>
      </trkpt>
      <trkpt lat="49.2747" lon="-0.21231">
        <ele>110.4</ele>
        <time>2024-04-07T12:57:18Z</time>
      </trkpt>
      <trkpt lat="49.27473" lon="-0.21221">
        <ele>110.4</ele>
        <time>2024-04-07T12:57:19Z</time>
      </trkpt>
      <trkpt lat="49.27476" lon="-0.2121">
        <ele>110.4</ele>
        <time>2024-04-07T12:57:20Z</time>
      </trkpt>
      <trkpt lat="49.2748" lon="-0.21199">
        <ele>110.4</ele>
        <time>2024-04-07T12:57:21Z</time>
      </trkpt>
      <trkpt lat="49.27483" lon="-0.21189">
        <ele>110.4</ele>
        <time>2024-04-07T12:57:22Z</time>
      </trkpt>
      <trkpt lat="49.27486" lon="-0.21178">
        <ele>110.4</ele>
        <time>2024-04-07T12:57:23Z</time>
      </trkpt>
      <trkpt lat="49.2749" lon="-0.21167">
        <ele>110.4</ele>
        <time>2024-04-07T12:57:24Z</time>
      </trkpt>
      <trkpt lat="49.27493" lon="-0.21156">
        <ele>110.4</ele>
        <time>2024-04-07T12:57:25Z</time>
      </trkpt>
      <trkpt lat="49.27497" lon="-0.21146">
        <ele>110.4</ele>
        <time>2024-04-07T12:57:26Z</time>
      </trkpt>
      <trkpt lat="49.275" lon="-0.21135">
        <ele>110.4</ele>
        <time>2024-04-07T12:57:27Z</time>
      </trkpt>
      <trkpt lat="49.27504" lon="-0.21125">
        <ele>110.4</ele>
        <time>2024-04-07T12:57:28Z</time>
      </trkpt>
      <trkpt lat="49.27507" lon="-0.21114">
        <ele>110.4</ele>
        <time>2024-04-07T12:57:29Z</time>
      </trkpt>
      <trkpt lat="49.2751" lon="-0.21103">
        <ele>110.4</ele>
        <time>2024-04-07T12:57:30Z</time>
      </trkpt>
      <trkpt lat="49.27514" lon="-0.21092">
        <ele>110.4</ele>
        <time>2024-04-07T12:57:31Z</time>
      </trkpt>
      <trkpt lat="49.27517" lon="-0.21081">
        <ele>110.4</ele>
        <time>2024-04-07T12:57:32Z</time>
      </trkpt>
      <trkpt lat="49.2752" lon="-0.2107">
        <ele>110.4</ele>
        <time>2024-04-07T12:57:33Z</time>
      </trkpt>
      <trkpt lat="49.27524" lon="-0.21058">
        <ele>110.4</ele>
        <time>2024-04-07T12:57:34Z</time>
      </trkpt>
      <trkpt lat="49.27528" lon="-0.21047">
        <ele>110.4</ele>
        <time>2024-04-07T12:57:35Z</time>
      </trkpt>
      <trkpt lat="49.27531" lon="-0.21036">
        <ele>110.4</ele>
        <time>2024-04-07T12:57:36Z</time>
      </trkpt>
      <trkpt lat="49.27535" lon="-0.21025">
        <ele>110.4</ele>
        <time>2024-04-07T12:57:37Z</time>
      </trkpt>
      <trkpt lat="49.27539" lon="-0.21013">
        <ele>110.4</ele>
        <time>2024-04-07T12:57:38Z</time>
      </trkpt>
      <trkpt lat="49.27542" lon="-0.21002">
        <ele>110.4</ele>
        <time>2024-04-07T12:57:39Z</time>
      </trkpt>
      <trkpt lat="49.27546" lon="-0.20991">
        <ele>110.4</ele>
        <time>2024-04-07T12:57:40Z</time>
      </trkpt>
      <trkpt lat="49.2755" lon="-0.20979">
        <ele>110.4</ele>
        <time>2024-04-07T12:57:41Z</time>
      </trkpt>
      <trkpt lat="49.27553" lon="-0.20969">
        <ele>110.4</ele>
        <time>2024-04-07T12:57:42Z</time>
      </trkpt>
      <trkpt lat="49.27557" lon="-0.20958">
        <ele>110.4</ele>
        <time>2024-04-07T12:57:43Z</time>
      </trkpt>
      <trkpt lat="49.27561" lon="-0.20947">
        <ele>110.4</ele>
        <time>2024-04-07T12:57:44Z</time>
      </trkpt>
      <trkpt lat="49.27565" lon="-0.20936">
        <ele>110.4</ele>
        <time>2024-04-07T12:57:45Z</time>
      </trkpt>
      <trkpt lat="49.27569" lon="-0.20925">
        <ele>110.4</ele>
        <time>2024-04-07T12:57:46Z</time>
      </trkpt>
      <trkpt lat="49.27573" lon="-0.20915">
        <ele>110.4</ele>
        <time>2024-04-07T12:57:47Z</time>
      </trkpt>
      <trkpt lat="49.27578" lon="-0.20904">
        <ele>110.4</ele>
        <time>2024-04-07T12:57:48Z</time>
      </trkpt>
      <trkpt lat="49.27583" lon="-0.20893">
        <ele>110.4</ele>
        <time>2024-04-07T12:57:49Z</time>
      </trkpt>
      <trkpt lat="49.27587" lon="-0.20882">
        <ele>110.4</ele>
        <time>2024-04-07T12:57:50Z</time>
      </trkpt>
      <trkpt lat="49.27592" lon="-0.20871">
        <ele>110.4</ele>
        <time>2024-04-07T12:57:51Z</time>
      </trkpt>
      <trkpt lat="49.27597" lon="-0.20859">
        <ele>101</ele>
        <time>2024-04-07T12:57:52Z</time>
      </trkpt>
      <trkpt lat="49.27602" lon="-0.20849">
        <ele>101</ele>
        <time>2024-04-07T12:57:53Z</time>
      </trkpt>
      <trkpt lat="49.27606" lon="-0.20838">
        <ele>101</ele>
        <time>2024-04-07T12:57:54Z</time>
      </trkpt>
      <trkpt lat="49.27611" lon="-0.20827">
        <ele>101</ele>
        <time>2024-04-07T12:57:55Z</time>
      </trkpt>
      <trkpt lat="49.27616" lon="-0.20817">
        <ele>101</ele>
        <time>2024-04-07T12:57:56Z</time>
      </trkpt>
      <trkpt lat="49.27621" lon="-0.20807">
        <ele>101</ele>
        <time>2024-04-07T12:57:57Z</time>
      </trkpt>
      <trkpt lat="49.27626" lon="-0.20797">
        <ele>101</ele>
        <time>2024-04-07T12:57:58Z</time>
      </trkpt>
      <trkpt lat="49.2763" lon="-0.20787">
        <ele>101</ele>
        <time>2024-04-07T12:57:59Z</time>
      </trkpt>
      <trkpt lat="49.27635" lon="-0.20778">
        <ele>101</ele>
        <time>2024-04-07T12:58:00Z</time>
      </trkpt>
      <trkpt lat="49.2764" lon="-0.20768">
        <ele>101</ele>
        <time>2024-04-07T12:58:01Z</time>
      </trkpt>
      <trkpt lat="49.27645" lon="-0.20759">
        <ele>101</ele>
        <time>2024-04-07T12:58:02Z</time>
      </trkpt>
      <trkpt lat="49.2765" lon="-0.20749">
        <ele>101</ele>
        <time>2024-04-07T12:58:03Z</time>
      </trkpt>
      <trkpt lat="49.27656" lon="-0.2074">
        <ele>101</ele>
        <time>2024-04-07T12:58:04Z</time>
      </trkpt>
      <trkpt lat="49.27661" lon="-0.20731">
        <ele>101</ele>
        <time>2024-04-07T12:58:05Z</time>
      </trkpt>
      <trkpt lat="49.27667" lon="-0.20722">
        <ele>101</ele>
        <time>2024-04-07T12:58:06Z</time>
      </trkpt>
      <trkpt lat="49.27672" lon="-0.20713">
        <ele>101</ele>
        <time>2024-04-07T12:58:07Z</time>
      </trkpt>
      <trkpt lat="49.27678" lon="-0.20704">
        <ele>101</ele>
        <time>2024-04-07T12:58:08Z</time>
      </trkpt>
      <trkpt lat="49.27683" lon="-0.20696">
        <ele>101</ele>
        <time>2024-04-07T12:58:09Z</time>
      </trkpt>
      <trkpt lat="49.27689" lon="-0.20687">
        <ele>101</ele>
        <time>2024-04-07T12:58:10Z</time>
      </trkpt>
      <trkpt lat="49.27694" lon="-0.20678">
        <ele>101</ele>
        <time>2024-04-07T12:58:11Z</time>
      </trkpt>
      <trkpt lat="49.277" lon="-0.20669">
        <ele>101</ele>
        <time>2024-04-07T12:58:12Z</time>
      </trkpt>
      <trkpt lat="49.27706" lon="-0.2066">
        <ele>101</ele>
        <time>2024-04-07T12:58:13Z</time>
      </trkpt>
      <trkpt lat="49.27711" lon="-0.2065">
        <ele>101</ele>
        <time>2024-04-07T12:58:14Z</time>
      </trkpt>
      <trkpt lat="49.27717" lon="-0.20641">
        <ele>101</ele>
        <time>2024-04-07T12:58:15Z</time>
      </trkpt>
      <trkpt lat="49.27723" lon="-0.20632">
        <ele>101</ele>
        <time>2024-04-07T12:58:16Z</time>
      </trkpt>
      <trkpt lat="49.27729" lon="-0.20623">
        <ele>101</ele>
        <time>2024-04-07T12:58:17Z</time>
      </trkpt>
      <trkpt lat="49.27735" lon="-0.20614">
        <ele>101</ele>
        <time>2024-04-07T12:58:18Z</time>
      </trkpt>
      <trkpt lat="49.27741" lon="-0.20605">
        <ele>101</ele>
        <time>2024-04-07T12:58:19Z</time>
      </trkpt>
      <trkpt lat="49.27747" lon="-0.20597">
        <ele>101</ele>
        <time>2024-04-07T12:58:20Z</time>
      </trkpt>
      <trkpt lat="49.27753" lon="-0.20589">
        <ele>101</ele>
        <time>2024-04-07T12:58:21Z</time>
      </trkpt>
      <trkpt lat="49.2776" lon="-0.20581">
        <ele>101</ele>
        <time>2024-04-07T12:58:22Z</time>
      </trkpt>
      <trkpt lat="49.27766" lon="-0.20573">
        <ele>101</ele>
        <time>2024-04-07T12:58:23Z</time>
      </trkpt>
      <trkpt lat="49.27772" lon="-0.20565">
        <ele>101</ele>
        <time>2024-04-07T12:58:24Z</time>
      </trkpt>
      <trkpt lat="49.27778" lon="-0.20557">
        <ele>101</ele>
        <time>2024-04-07T12:58:25Z</time>
      </trkpt>
      <trkpt lat="49.27784" lon="-0.20549">
        <ele>101</ele>
        <time>2024-04-07T12:58:26Z</time>
      </trkpt>
      <trkpt lat="49.2779" lon="-0.20541">
        <ele>101</ele>
        <time>2024-04-07T12:58:27Z</time>
      </trkpt>
      <trkpt lat="49.27796" lon="-0.20534">
        <ele>101</ele>
        <time>2024-04-07T12:58:28Z</time>
      </trkpt>
      <trkpt lat="49.27802" lon="-0.20526">
        <ele>101</ele>
        <time>2024-04-07T12:58:29Z</time>
      </trkpt>
      <trkpt lat="49.27808" lon="-0.20518">
        <ele>101</ele>
        <time>2024-04-07T12:58:30Z</time>
      </trkpt>
      <trkpt lat="49.27813" lon="-0.2051">
        <ele>101</ele>
        <time>2024-04-07T12:58:31Z</time>
      </trkpt>
      <trkpt lat="49.27819" lon="-0.20503">
        <ele>101</ele>
        <time>2024-04-07T12:58:32Z</time>
      </trkpt>
      <trkpt lat="49.27824" lon="-0.20495">
        <ele>101</ele>
        <time>2024-04-07T12:58:33Z</time>
      </trkpt>
      <trkpt lat="49.27829" lon="-0.20486">
        <ele>101</ele>
        <time>2024-04-07T12:58:34Z</time>
      </trkpt>
      <trkpt lat="49.27834" lon="-0.20478">
        <ele>101</ele>
        <time>2024-04-07T12:58:35Z</time>
      </trkpt>
      <trkpt lat="49.27838" lon="-0.20469">
        <ele>101</ele>
        <time>2024-04-07T12:58:36Z</time>
      </trkpt>
      <trkpt lat="49.27843" lon="-0.2046">
        <ele>101</ele>
        <time>2024-04-07T12:58:37Z</time>
      </trkpt>
      <trkpt lat="49.27847" lon="-0.20451">
        <ele>101</ele>
        <time>2024-04-07T12:58:38Z</time>
      </trkpt>
      <trkpt lat="49.27852" lon="-0.20442">
        <ele>101</ele>
        <time>2024-04-07T12:58:39Z</time>
      </trkpt>
      <trkpt lat="49.27856" lon="-0.20433">
        <ele>101</ele>
        <time>2024-04-07T12:58:40Z</time>
      </trkpt>
      <trkpt lat="49.2786" lon="-0.20425">
        <ele>101</ele>
        <time>2024-04-07T12:58:41Z</time>
      </trkpt>
      <trkpt lat="49.27863" lon="-0.20418">
        <ele>101</ele>
        <time>2024-04-07T12:58:42Z</time>
      </trkpt>
      <trkpt lat="49.27866" lon="-0.20411">
        <ele>101</ele>
        <time>2024-04-07T12:58:43Z</time>
      </trkpt>
      <trkpt lat="49.27868" lon="-0.20405">
        <ele>101</ele>
        <time>2024-04-07T12:58:44Z</time>
      </trkpt>
      <trkpt lat="49.2787" lon="-0.20399">
        <ele>101</ele>
        <time>2024-04-07T12:58:45Z</time>
      </trkpt>
      <trkpt lat="49.27872" lon="-0.20394">
        <ele>101</ele>
        <time>2024-04-07T12:58:46Z</time>
      </trkpt>
      <trkpt lat="49.27874" lon="-0.20389">
        <ele>101</ele>
        <time>2024-04-07T12:58:47Z</time>
      </trkpt>
      <trkpt lat="49.27875" lon="-0.20384">
        <ele>101</ele>
        <time>2024-04-07T12:58:48Z</time>
      </trkpt>
      <trkpt lat="49.27876" lon="-0.2038">
        <ele>101</ele>
        <time>2024-04-07T12:58:49Z</time>
      </trkpt>
      <trkpt lat="49.27876" lon="-0.20373">
        <ele>101</ele>
        <time>2024-04-07T12:58:50Z</time>
      </trkpt>
      <trkpt lat="49.27877" lon="-0.20368">
        <ele>101</ele>
        <time>2024-04-07T12:58:51Z</time>
      </trkpt>
      <trkpt lat="49.27878" lon="-0.20362">
        <ele>100.4</ele>
        <time>2024-04-07T12:58:52Z</time>
      </trkpt>
      <trkpt lat="49.2788" lon="-0.20357">
        <ele>100.4</ele>
        <time>2024-04-07T12:58:53Z</time>
      </trkpt>
      <trkpt lat="49.27883" lon="-0.20351">
        <ele>100.4</ele>
        <time>2024-04-07T12:58:54Z</time>
      </trkpt>
      <trkpt lat="49.27887" lon="-0.20345">
        <ele>100.4</ele>
        <time>2024-04-07T12:58:55Z</time>
      </trkpt>
      <trkpt lat="49.2789" lon="-0.20339">
        <ele>100.4</ele>
        <time>2024-04-07T12:58:56Z</time>
      </trkpt>
      <trkpt lat="49.27893" lon="-0.20332">
        <ele>100.4</ele>
        <time>2024-04-07T12:58:57Z</time>
      </trkpt>
      <trkpt lat="49.27896" lon="-0.20325">
        <ele>100.4</ele>
        <time>2024-04-07T12:58:58Z</time>
      </trkpt>
      <trkpt lat="49.27898" lon="-0.20317">
        <ele>100.4</ele>
        <time>2024-04-07T12:58:59Z</time>
      </trkpt>
      <trkpt lat="49.27901" lon="-0.2031">
        <ele>100.4</ele>
        <time>2024-04-07T12:59:00Z</time>
      </trkpt>
      <trkpt lat="49.27903" lon="-0.20303">
        <ele>100.4</ele>
        <time>2024-04-07T12:59:01Z</time>
      </trkpt>
      <trkpt lat="49.27906" lon="-0.20295">
        <ele>100.4</ele>
        <time>2024-04-07T12:59:02Z</time>
      </trkpt>
      <trkpt lat="49.27908" lon="-0.20286">
        <ele>100.4</ele>
        <time>2024-04-07T12:59:03Z</time>
      </trkpt>
      <trkpt lat="49.27911" lon="-0.20278">
        <ele>100.4</ele>
        <time>2024-04-07T12:59:04Z</time>
      </trkpt>
      <trkpt lat="49.27914" lon="-0.20269">
        <ele>100.4</ele>
        <time>2024-04-07T12:59:05Z</time>
      </trkpt>
      <trkpt lat="49.27917" lon="-0.2026">
        <ele>100.4</ele>
        <time>2024-04-07T12:59:06Z</time>
      </trkpt>
      <trkpt lat="49.2792" lon="-0.20252">
        <ele>100.4</ele>
        <time>2024-04-07T12:59:07Z</time>
      </trkpt>
      <trkpt lat="49.27923" lon="-0.20243">
        <ele>100.4</ele>
        <time>2024-04-07T12:59:08Z</time>
      </trkpt>
      <trkpt lat="49.27926" lon="-0.20234">
        <ele>100.4</ele>
        <time>2024-04-07T12:59:09Z</time>
      </trkpt>
      <trkpt lat="49.27929" lon="-0.20226">
        <ele>100.4</ele>
        <time>2024-04-07T12:59:10Z</time>
      </trkpt>
      <trkpt lat="49.27932" lon="-0.20216">
        <ele>100.4</ele>
        <time>2024-04-07T12:59:11Z</time>
      </trkpt>
      <trkpt lat="49.27936" lon="-0.20208">
        <ele>100.4</ele>
        <time>2024-04-07T12:59:12Z</time>
      </trkpt>
      <trkpt lat="49.27939" lon="-0.20199">
        <ele>100.4</ele>
        <time>2024-04-07T12:59:13Z</time>
      </trkpt>
      <trkpt lat="49.27942" lon="-0.2019">
        <ele>100.4</ele>
        <time>2024-04-07T12:59:14Z</time>
      </trkpt>
      <trkpt lat="49.27946" lon="-0.20181">
        <ele>100.4</ele>
        <time>2024-04-07T12:59:15Z</time>
      </trkpt>
      <trkpt lat="49.27949" lon="-0.20172">
        <ele>100.4</ele>
        <time>2024-04-07T12:59:16Z</time>
      </trkpt>
      <trkpt lat="49.27953" lon="-0.20164">
        <ele>100.4</ele>
        <time>2024-04-07T12:59:17Z</time>
      </trkpt>
      <trkpt lat="49.27956" lon="-0.20155">
        <ele>100.4</ele>
        <time>2024-04-07T12:59:18Z</time>
      </trkpt>
      <trkpt lat="49.2796" lon="-0.20146">
        <ele>100.4</ele>
        <time>2024-04-07T12:59:19Z</time>
      </trkpt>
      <trkpt lat="49.27963" lon="-0.20136">
        <ele>100.4</ele>
        <time>2024-04-07T12:59:20Z</time>
      </trkpt>
      <trkpt lat="49.27967" lon="-0.20127">
        <ele>100.4</ele>
        <time>2024-04-07T12:59:21Z</time>
      </trkpt>
      <trkpt lat="49.2797" lon="-0.20118">
        <ele>100.4</ele>
        <time>2024-04-07T12:59:22Z</time>
      </trkpt>
      <trkpt lat="49.27974" lon="-0.20109">
        <ele>100.4</ele>
        <time>2024-04-07T12:59:23Z</time>
      </trkpt>
      <trkpt lat="49.27978" lon="-0.20099">
        <ele>100.4</ele>
        <time>2024-04-07T12:59:24Z</time>
      </trkpt>
      <trkpt lat="49.27981" lon="-0.2009">
        <ele>100.4</ele>
        <time>2024-04-07T12:59:25Z</time>
      </trkpt>
      <trkpt lat="49.27985" lon="-0.2008">
        <ele>100.4</ele>
        <time>2024-04-07T12:59:26Z</time>
      </trkpt>
      <trkpt lat="49.27988" lon="-0.20071">
        <ele>100.4</ele>
        <time>2024-04-07T12:59:27Z</time>
      </trkpt>
      <trkpt lat="49.27992" lon="-0.20061">
        <ele>100.4</ele>
        <time>2024-04-07T12:59:28Z</time>
      </trkpt>
      <trkpt lat="49.27996" lon="-0.20052">
        <ele>100.4</ele>
        <time>2024-04-07T12:59:29Z</time>
      </trkpt>
      <trkpt lat="49.27999" lon="-0.20042">
        <ele>100.4</ele>
        <time>2024-04-07T12:59:30Z</time>
      </trkpt>
      <trkpt lat="49.28003" lon="-0.20032">
        <ele>100.4</ele>
        <time>2024-04-07T12:59:31Z</time>
      </trkpt>
      <trkpt lat="49.28007" lon="-0.20022">
        <ele>100.4</ele>
        <time>2024-04-07T12:59:32Z</time>
      </trkpt>
      <trkpt lat="49.28011" lon="-0.20013">
        <ele>100.4</ele>
        <time>2024-04-07T12:59:33Z</time>
      </trkpt>
      <trkpt lat="49.28014" lon="-0.20003">
        <ele>100.4</ele>
        <time>2024-04-07T12:59:34Z</time>
      </trkpt>
      <trkpt lat="49.28018" lon="-0.19993">
        <ele>100.4</ele>
        <time>2024-04-07T12:59:35Z</time>
      </trkpt>
      <trkpt lat="49.28022" lon="-0.19983">
        <ele>100.4</ele>
        <time>2024-04-07T12:59:36Z</time>
      </trkpt>
      <trkpt lat="49.28026" lon="-0.19973">
        <ele>100.4</ele>
        <time>2024-04-07T12:59:37Z</time>
      </trkpt>
      <trkpt lat="49.28029" lon="-0.19963">
        <ele>100.4</ele>
        <time>2024-04-07T12:59:38Z</time>
      </trkpt>
      <trkpt lat="49.28033" lon="-0.19953">
        <ele>100.4</ele>
        <time>2024-04-07T12:59:39Z</time>
      </trkpt>
      <trkpt lat="49.28036" lon="-0.19943">
        <ele>100.4</ele>
        <time>2024-04-07T12:59:40Z</time>
      </trkpt>
      <trkpt lat="49.28039" lon="-0.19934">
        <ele>100.4</ele>
        <time>2024-04-07T12:59:41Z</time>
      </trkpt>
      <trkpt lat="49.28042" lon="-0.19925">
        <ele>100.4</ele>
        <time>2024-04-07T12:59:42Z</time>
      </trkpt>
      <trkpt lat="49.28045" lon="-0.19915">
        <ele>100.4</ele>
        <time>2024-04-07T12:59:43Z</time>
      </trkpt>
      <trkpt lat="49.28049" lon="-0.19905">
        <ele>100.4</ele>
        <time>2024-04-07T12:59:44Z</time>
      </trkpt>
      <trkpt lat="49.28052" lon="-0.19894">
        <ele>100.4</ele>
        <time>2024-04-07T12:59:45Z</time>
      </trkpt>
      <trkpt lat="49.28054" lon="-0.19884">
        <ele>100.4</ele>
        <time>2024-04-07T12:59:46Z</time>
      </trkpt>
      <trkpt lat="49.28057" lon="-0.19874">
        <ele>100.4</ele>
        <time>2024-04-07T12:59:47Z</time>
      </trkpt>
      <trkpt lat="49.28059" lon="-0.19863">
        <ele>100.4</ele>
        <time>2024-04-07T12:59:48Z</time>
      </trkpt>
      <trkpt lat="49.28062" lon="-0.19852">
        <ele>100.4</ele>
        <time>2024-04-07T12:59:49Z</time>
      </trkpt>
      <trkpt lat="49.28064" lon="-0.19841">
        <ele>100.4</ele>
        <time>2024-04-07T12:59:50Z</time>
      </trkpt>
      <trkpt lat="49.28067" lon="-0.19831">
        <ele>100.4</ele>
        <time>2024-04-07T12:59:51Z</time>
      </trkpt>
      <trkpt lat="49.28069" lon="-0.19819">
        <ele>99.6</ele>
        <time>2024-04-07T12:59:52Z</time>
      </trkpt>
      <trkpt lat="49.28072" lon="-0.19808">
        <ele>99.6</ele>
        <time>2024-04-07T12:59:53Z</time>
      </trkpt>
      <trkpt lat="49.28074" lon="-0.19797">
        <ele>99.6</ele>
        <time>2024-04-07T12:59:54Z</time>
      </trkpt>
      <trkpt lat="49.28076" lon="-0.19787">
        <ele>99.6</ele>
        <time>2024-04-07T12:59:55Z</time>
      </trkpt>
      <trkpt lat="49.28079" lon="-0.19776">
        <ele>99.6</ele>
        <time>2024-04-07T12:59:56Z</time>
      </trkpt>
      <trkpt lat="49.28081" lon="-0.19766">
        <ele>99.6</ele>
        <time>2024-04-07T12:59:57Z</time>
      </trkpt>
      <trkpt lat="49.28084" lon="-0.19756">
        <ele>99.6</ele>
        <time>2024-04-07T12:59:58Z</time>
      </trkpt>
      <trkpt lat="49.28087" lon="-0.19745">
        <ele>99.6</ele>
        <time>2024-04-07T12:59:59Z</time>
      </trkpt>
      <trkpt lat="49.28091" lon="-0.19735">
        <ele>99.6</ele>
        <time>2024-04-07T13:00:00Z</time>
      </trkpt>
      <trkpt lat="49.28094" lon="-0.19725">
        <ele>99.6</ele>
        <time>2024-04-07T13:00:01Z</time>
      </trkpt>
      <trkpt lat="49.28097" lon="-0.19715">
        <ele>99.6</ele>
        <time>2024-04-07T13:00:02Z</time>
      </trkpt>
      <trkpt lat="49.281" lon="-0.19706">
        <ele>99.6</ele>
        <time>2024-04-07T13:00:03Z</time>
      </trkpt>
      <trkpt lat="49.28103" lon="-0.19696">
        <ele>99.6</ele>
        <time>2024-04-07T13:00:04Z</time>
      </trkpt>
      <trkpt lat="49.28106" lon="-0.19687">
        <ele>99.6</ele>
        <time>2024-04-07T13:00:05Z</time>
      </trkpt>
      <trkpt lat="49.28109" lon="-0.19678">
        <ele>99.6</ele>
        <time>2024-04-07T13:00:06Z</time>
      </trkpt>
      <trkpt lat="49.28112" lon="-0.19668">
        <ele>99.6</ele>
        <time>2024-04-07T13:00:07Z</time>
      </trkpt>
      <trkpt lat="49.28115" lon="-0.19659">
        <ele>99.6</ele>
        <time>2024-04-07T13:00:08Z</time>
      </trkpt>
      <trkpt lat="49.28118" lon="-0.1965">
        <ele>99.6</ele>
        <time>2024-04-07T13:00:09Z</time>
      </trkpt>
      <trkpt lat="49.28121" lon="-0.19641">
        <ele>99.6</ele>
        <time>2024-04-07T13:00:10Z</time>
      </trkpt>
      <trkpt lat="49.28124" lon="-0.19631">
        <ele>99.6</ele>
        <time>2024-04-07T13:00:11Z</time>
      </trkpt>
      <trkpt lat="49.28128" lon="-0.19621">
        <ele>99.6</ele>
        <time>2024-04-07T13:00:12Z</time>
      </trkpt>
      <trkpt lat="49.28131" lon="-0.1961">
        <ele>99.6</ele>
        <time>2024-04-07T13:00:13Z</time>
      </trkpt>
      <trkpt lat="49.28135" lon="-0.19601">
        <ele>99.6</ele>
        <time>2024-04-07T13:00:14Z</time>
      </trkpt>
      <trkpt lat="49.28138" lon="-0.19591">
        <ele>99.6</ele>
        <time>2024-04-07T13:00:15Z</time>
      </trkpt>
      <trkpt lat="49.28142" lon="-0.19581">
        <ele>99.6</ele>
        <time>2024-04-07T13:00:16Z</time>
      </trkpt>
      <trkpt lat="49.28145" lon="-0.1957">
        <ele>99.6</ele>
        <time>2024-04-07T13:00:17Z</time>
      </trkpt>
      <trkpt lat="49.28149" lon="-0.1956">
        <ele>99.6</ele>
        <time>2024-04-07T13:00:18Z</time>
      </trkpt>
      <trkpt lat="49.28152" lon="-0.1955">
        <ele>99.6</ele>
        <time>2024-04-07T13:00:19Z</time>
      </trkpt>
      <trkpt lat="49.28156" lon="-0.1954">
        <ele>99.6</ele>
        <time>2024-04-07T13:00:20Z</time>
      </trkpt>
      <trkpt lat="49.2816" lon="-0.19529">
        <ele>99.6</ele>
        <time>2024-04-07T13:00:21Z</time>
      </trkpt>
      <trkpt lat="49.28163" lon="-0.19519">
        <ele>99.6</ele>
        <time>2024-04-07T13:00:22Z</time>
      </trkpt>
      <trkpt lat="49.28166" lon="-0.19508">
        <ele>99.6</ele>
        <time>2024-04-07T13:00:23Z</time>
      </trkpt>
      <trkpt lat="49.2817" lon="-0.19497">
        <ele>99.6</ele>
        <time>2024-04-07T13:00:24Z</time>
      </trkpt>
      <trkpt lat="49.28173" lon="-0.19487">
        <ele>99.6</ele>
        <time>2024-04-07T13:00:25Z</time>
      </trkpt>
      <trkpt lat="49.28177" lon="-0.19477">
        <ele>99.6</ele>
        <time>2024-04-07T13:00:26Z</time>
      </trkpt>
      <trkpt lat="49.2818" lon="-0.19466">
        <ele>99.6</ele>
        <time>2024-04-07T13:00:27Z</time>
      </trkpt>
      <trkpt lat="49.28184" lon="-0.19456">
        <ele>99.6</ele>
        <time>2024-04-07T13:00:28Z</time>
      </trkpt>
      <trkpt lat="49.28187" lon="-0.19446">
        <ele>99.6</ele>
        <time>2024-04-07T13:00:29Z</time>
      </trkpt>
      <trkpt lat="49.28191" lon="-0.19435">
        <ele>99.6</ele>
        <time>2024-04-07T13:00:30Z</time>
      </trkpt>
      <trkpt lat="49.28194" lon="-0.19425">
        <ele>99.6</ele>
        <time>2024-04-07T13:00:31Z</time>
      </trkpt>
      <trkpt lat="49.28198" lon="-0.19415">
        <ele>99.6</ele>
        <time>2024-04-07T13:00:32Z</time>
      </trkpt>
      <trkpt lat="49.28201" lon="-0.19405">
        <ele>99.6</ele>
        <time>2024-04-07T13:00:33Z</time>
      </trkpt>
      <trkpt lat="49.28205" lon="-0.19395">
        <ele>99.6</ele>
        <time>2024-04-07T13:00:34Z</time>
      </trkpt>
      <trkpt lat="49.28208" lon="-0.19386">
        <ele>99.6</ele>
        <time>2024-04-07T13:00:35Z</time>
      </trkpt>
      <trkpt lat="49.28212" lon="-0.19376">
        <ele>99.6</ele>
        <time>2024-04-07T13:00:36Z</time>
      </trkpt>
      <trkpt lat="49.28215" lon="-0.19365">
        <ele>99.6</ele>
        <time>2024-04-07T13:00:37Z</time>
      </trkpt>
      <trkpt lat="49.28219" lon="-0.19355">
        <ele>99.6</ele>
        <time>2024-04-07T13:00:38Z</time>
      </trkpt>
      <trkpt lat="49.28223" lon="-0.19345">
        <ele>99.6</ele>
        <time>2024-04-07T13:00:39Z</time>
      </trkpt>
      <trkpt lat="49.28227" lon="-0.19334">
        <ele>99.6</ele>
        <time>2024-04-07T13:00:40Z</time>
      </trkpt>
      <trkpt lat="49.2823" lon="-0.19324">
        <ele>99.6</ele>
        <time>2024-04-07T13:00:41Z</time>
      </trkpt>
      <trkpt lat="49.28234" lon="-0.19314">
        <ele>99.6</ele>
        <time>2024-04-07T13:00:42Z</time>
      </trkpt>
      <trkpt lat="49.28238" lon="-0.19304">
        <ele>99.6</ele>
        <time>2024-04-07T13:00:43Z</time>
      </trkpt>
      <trkpt lat="49.28241" lon="-0.19294">
        <ele>99.6</ele>
        <time>2024-04-07T13:00:44Z</time>
      </trkpt>
      <trkpt lat="49.28245" lon="-0.19285">
        <ele>99.6</ele>
        <time>2024-04-07T13:00:45Z</time>
      </trkpt>
      <trkpt lat="49.28249" lon="-0.19276">
        <ele>99.6</ele>
        <time>2024-04-07T13:00:46Z</time>
      </trkpt>
      <trkpt lat="49.28252" lon="-0.19267">
        <ele>99.6</ele>
        <time>2024-04-07T13:00:47Z</time>
      </trkpt>
      <trkpt lat="49.28255" lon="-0.19258">
        <ele>99.6</ele>
        <time>2024-04-07T13:00:48Z</time>
      </trkpt>
      <trkpt lat="49.28258" lon="-0.1925">
        <ele>99.6</ele>
        <time>2024-04-07T13:00:49Z</time>
      </trkpt>
      <trkpt lat="49.2826" lon="-0.1924">
        <ele>99.6</ele>
        <time>2024-04-07T13:00:50Z</time>
      </trkpt>
      <trkpt lat="49.28262" lon="-0.19232">
        <ele>99.6</ele>
        <time>2024-04-07T13:00:51Z</time>
      </trkpt>
      <trkpt lat="49.28264" lon="-0.19223">
        <ele>99.6</ele>
        <time>2024-04-07T13:00:52Z</time>
      </trkpt>
      <trkpt lat="49.28267" lon="-0.19215">
        <ele>99.6</ele>
        <time>2024-04-07T13:00:53Z</time>
      </trkpt>
      <trkpt lat="49.28269" lon="-0.19207">
        <ele>99.6</ele>
        <time>2024-04-07T13:00:54Z</time>
      </trkpt>
      <trkpt lat="49.28272" lon="-0.19198">
        <ele>99.6</ele>
        <time>2024-04-07T13:00:55Z</time>
      </trkpt>
      <trkpt lat="49.28275" lon="-0.19189">
        <ele>99.6</ele>
        <time>2024-04-07T13:00:56Z</time>
      </trkpt>
      <trkpt lat="49.28278" lon="-0.19181">
        <ele>99.6</ele>
        <time>2024-04-07T13:00:57Z</time>
      </trkpt>
      <trkpt lat="49.28281" lon="-0.19173">
        <ele>99.6</ele>
        <time>2024-04-07T13:00:58Z</time>
      </trkpt>
      <trkpt lat="49.28284" lon="-0.19164">
        <ele>99.6</ele>
        <time>2024-04-07T13:00:59Z</time>
      </trkpt>
      <trkpt lat="49.28287" lon="-0.19155">
        <ele>99.6</ele>
        <time>2024-04-07T13:01:00Z</time>
      </trkpt>
      <trkpt lat="49.2829" lon="-0.19146">
        <ele>99.6</ele>
        <time>2024-04-07T13:01:01Z</time>
      </trkpt>
      <trkpt lat="49.28293" lon="-0.19136">
        <ele>99.6</ele>
        <time>2024-04-07T13:01:02Z</time>
      </trkpt>
      <trkpt lat="49.28295" lon="-0.19126">
        <ele>99.6</ele>
        <time>2024-04-07T13:01:03Z</time>
      </trkpt>
      <trkpt lat="49.28298" lon="-0.19116">
        <ele>99.6</ele>
        <time>2024-04-07T13:01:04Z</time>
      </trkpt>
      <trkpt lat="49.28301" lon="-0.19107">
        <ele>99.6</ele>
        <time>2024-04-07T13:01:05Z</time>
      </trkpt>
      <trkpt lat="49.28304" lon="-0.19098">
        <ele>99.6</ele>
        <time>2024-04-07T13:01:06Z</time>
      </trkpt>
      <trkpt lat="49.28306" lon="-0.19088">
        <ele>99.6</ele>
        <time>2024-04-07T13:01:07Z</time>
      </trkpt>
      <trkpt lat="49.2831" lon="-0.19079">
        <ele>99.6</ele>
        <time>2024-04-07T13:01:08Z</time>
      </trkpt>
      <trkpt lat="49.28312" lon="-0.19071">
        <ele>99.6</ele>
        <time>2024-04-07T13:01:09Z</time>
      </trkpt>
      <trkpt lat="49.28314" lon="-0.19063">
        <ele>99.6</ele>
        <time>2024-04-07T13:01:10Z</time>
      </trkpt>
      <trkpt lat="49.28316" lon="-0.19054">
        <ele>99.6</ele>
        <time>2024-04-07T13:01:11Z</time>
      </trkpt>
      <trkpt lat="49.28317" lon="-0.19045">
        <ele>99.6</ele>
        <time>2024-04-07T13:01:12Z</time>
      </trkpt>
      <trkpt lat="49.28319" lon="-0.19036">
        <ele>99.6</ele>
        <time>2024-04-07T13:01:13Z</time>
      </trkpt>
      <trkpt lat="49.28321" lon="-0.19025">
        <ele>99.6</ele>
        <time>2024-04-07T13:01:14Z</time>
      </trkpt>
      <trkpt lat="49.28323" lon="-0.19015">
        <ele>99.6</ele>
        <time>2024-04-07T13:01:15Z</time>
      </trkpt>
      <trkpt lat="49.28325" lon="-0.19005">
        <ele>99.6</ele>
        <time>2024-04-07T13:01:16Z</time>
      </trkpt>
      <trkpt lat="49.28326" lon="-0.18996">
        <ele>99.6</ele>
        <time>2024-04-07T13:01:17Z</time>
      </trkpt>
      <trkpt lat="49.28328" lon="-0.18986">
        <ele>99.6</ele>
        <time>2024-04-07T13:01:18Z</time>
      </trkpt>
      <trkpt lat="49.2833" lon="-0.18976">
        <ele>99.6</ele>
        <time>2024-04-07T13:01:19Z</time>
      </trkpt>
      <trkpt lat="49.28331" lon="-0.18967">
        <ele>99.6</ele>
        <time>2024-04-07T13:01:20Z</time>
      </trkpt>
      <trkpt lat="49.28333" lon="-0.18957">
        <ele>99.6</ele>
        <time>2024-04-07T13:01:21Z</time>
      </trkpt>
      <trkpt lat="49.28335" lon="-0.18947">
        <ele>99.6</ele>
        <time>2024-04-07T13:01:22Z</time>
      </trkpt>
      <trkpt lat="49.28336" lon="-0.18937">
        <ele>99.6</ele>
        <time>2024-04-07T13:01:23Z</time>
      </trkpt>
      <trkpt lat="49.28338" lon="-0.18927">
        <ele>99.6</ele>
        <time>2024-04-07T13:01:24Z</time>
      </trkpt>
      <trkpt lat="49.28339" lon="-0.18917">
        <ele>99.6</ele>
        <time>2024-04-07T13:01:25Z</time>
      </trkpt>
      <trkpt lat="49.28341" lon="-0.18907">
        <ele>99.6</ele>
        <time>2024-04-07T13:01:26Z</time>
      </trkpt>
      <trkpt lat="49.28342" lon="-0.18897">
        <ele>99.6</ele>
        <time>2024-04-07T13:01:27Z</time>
      </trkpt>
      <trkpt lat="49.28344" lon="-0.18887">
        <ele>99.6</ele>
        <time>2024-04-07T13:01:28Z</time>
      </trkpt>
      <trkpt lat="49.28346" lon="-0.18878">
        <ele>99.6</ele>
        <time>2024-04-07T13:01:29Z</time>
      </trkpt>
      <trkpt lat="49.28348" lon="-0.18868">
        <ele>99.6</ele>
        <time>2024-04-07T13:01:30Z</time>
      </trkpt>
      <trkpt lat="49.2835" lon="-0.18858">
        <ele>99.6</ele>
        <time>2024-04-07T13:01:31Z</time>
      </trkpt>
      <trkpt lat="49.28353" lon="-0.18848">
        <ele>99.6</ele>
        <time>2024-04-07T13:01:32Z</time>
      </trkpt>
      <trkpt lat="49.28356" lon="-0.18838">
        <ele>99.6</ele>
        <time>2024-04-07T13:01:33Z</time>
      </trkpt>
      <trkpt lat="49.28359" lon="-0.18829">
        <ele>99.6</ele>
        <time>2024-04-07T13:01:34Z</time>
      </trkpt>
      <trkpt lat="49.28362" lon="-0.1882">
        <ele>99.6</ele>
        <time>2024-04-07T13:01:35Z</time>
      </trkpt>
      <trkpt lat="49.28365" lon="-0.1881">
        <ele>99.6</ele>
        <time>2024-04-07T13:01:36Z</time>
      </trkpt>
      <trkpt lat="49.28368" lon="-0.188">
        <ele>99.6</ele>
        <time>2024-04-07T13:01:37Z</time>
      </trkpt>
      <trkpt lat="49.28371" lon="-0.18789">
        <ele>99.6</ele>
        <time>2024-04-07T13:01:38Z</time>
      </trkpt>
      <trkpt lat="49.28374" lon="-0.18779">
        <ele>99.6</ele>
        <time>2024-04-07T13:01:39Z</time>
      </trkpt>
      <trkpt lat="49.28377" lon="-0.18769">
        <ele>99.6</ele>
        <time>2024-04-07T13:01:40Z</time>
      </trkpt>
      <trkpt lat="49.2838" lon="-0.18759">
        <ele>99.6</ele>
        <time>2024-04-07T13:01:41Z</time>
      </trkpt>
      <trkpt lat="49.28383" lon="-0.18749">
        <ele>99.6</ele>
        <time>2024-04-07T13:01:42Z</time>
      </trkpt>
      <trkpt lat="49.28387" lon="-0.18739">
        <ele>99.6</ele>
        <time>2024-04-07T13:01:43Z</time>
      </trkpt>
      <trkpt lat="49.2839" lon="-0.18729">
        <ele>99.6</ele>
        <time>2024-04-07T13:01:44Z</time>
      </trkpt>
      <trkpt lat="49.28393" lon="-0.18719">
        <ele>99.6</ele>
        <time>2024-04-07T13:01:45Z</time>
      </trkpt>
      <trkpt lat="49.28396" lon="-0.1871">
        <ele>99.6</ele>
        <time>2024-04-07T13:01:46Z</time>
      </trkpt>
      <trkpt lat="49.28399" lon="-0.187">
        <ele>99.6</ele>
        <time>2024-04-07T13:01:47Z</time>
      </trkpt>
      <trkpt lat="49.28403" lon="-0.1869">
        <ele>99.6</ele>
        <time>2024-04-07T13:01:48Z</time>
      </trkpt>
      <trkpt lat="49.28406" lon="-0.1868">
        <ele>99.6</ele>
        <time>2024-04-07T13:01:49Z</time>
      </trkpt>
      <trkpt lat="49.2841" lon="-0.18671">
        <ele>99.6</ele>
        <time>2024-04-07T13:01:50Z</time>
      </trkpt>
      <trkpt lat="49.28413" lon="-0.18661">
        <ele>99.6</ele>
        <time>2024-04-07T13:01:51Z</time>
      </trkpt>
      <trkpt lat="49.28417" lon="-0.18651">
        <ele>99.4</ele>
        <time>2024-04-07T13:01:52Z</time>
      </trkpt>
      <trkpt lat="49.2842" lon="-0.18641">
        <ele>99.4</ele>
        <time>2024-04-07T13:01:53Z</time>
      </trkpt>
      <trkpt lat="49.28424" lon="-0.18631">
        <ele>99.4</ele>
        <time>2024-04-07T13:01:54Z</time>
      </trkpt>
      <trkpt lat="49.28428" lon="-0.1862">
        <ele>99.4</ele>
        <time>2024-04-07T13:01:55Z</time>
      </trkpt>
      <trkpt lat="49.28431" lon="-0.1861">
        <ele>99.4</ele>
        <time>2024-04-07T13:01:56Z</time>
      </trkpt>
      <trkpt lat="49.28435" lon="-0.186">
        <ele>99.4</ele>
        <time>2024-04-07T13:01:57Z</time>
      </trkpt>
      <trkpt lat="49.28438" lon="-0.18591">
        <ele>99.4</ele>
        <time>2024-04-07T13:01:58Z</time>
      </trkpt>
      <trkpt lat="49.28442" lon="-0.18581">
        <ele>99.4</ele>
        <time>2024-04-07T13:01:59Z</time>
      </trkpt>
      <trkpt lat="49.28445" lon="-0.18571">
        <ele>99.4</ele>
        <time>2024-04-07T13:02:00Z</time>
      </trkpt>
      <trkpt lat="49.28448" lon="-0.1856">
        <ele>99.4</ele>
        <time>2024-04-07T13:02:01Z</time>
      </trkpt>
      <trkpt lat="49.28451" lon="-0.18549">
        <ele>99.4</ele>
        <time>2024-04-07T13:02:02Z</time>
      </trkpt>
      <trkpt lat="49.28454" lon="-0.18539">
        <ele>99.4</ele>
        <time>2024-04-07T13:02:03Z</time>
      </trkpt>
      <trkpt lat="49.28457" lon="-0.18528">
        <ele>99.4</ele>
        <time>2024-04-07T13:02:04Z</time>
      </trkpt>
      <trkpt lat="49.28459" lon="-0.18519">
        <ele>99.4</ele>
        <time>2024-04-07T13:02:05Z</time>
      </trkpt>
      <trkpt lat="49.28461" lon="-0.18508">
        <ele>99.4</ele>
        <time>2024-04-07T13:02:06Z</time>
      </trkpt>
      <trkpt lat="49.28464" lon="-0.18497">
        <ele>99.4</ele>
        <time>2024-04-07T13:02:07Z</time>
      </trkpt>
      <trkpt lat="49.28466" lon="-0.18486">
        <ele>99.4</ele>
        <time>2024-04-07T13:02:08Z</time>
      </trkpt>
      <trkpt lat="49.28468" lon="-0.18476">
        <ele>99.4</ele>
        <time>2024-04-07T13:02:09Z</time>
      </trkpt>
      <trkpt lat="49.2847" lon="-0.18465">
        <ele>99.4</ele>
        <time>2024-04-07T13:02:10Z</time>
      </trkpt>
      <trkpt lat="49.28471" lon="-0.18454">
        <ele>99.4</ele>
        <time>2024-04-07T13:02:11Z</time>
      </trkpt>
      <trkpt lat="49.28473" lon="-0.18442">
        <ele>99.4</ele>
        <time>2024-04-07T13:02:12Z</time>
      </trkpt>
      <trkpt lat="49.28474" lon="-0.18432">
        <ele>99.4</ele>
        <time>2024-04-07T13:02:13Z</time>
      </trkpt>
      <trkpt lat="49.28475" lon="-0.18421">
        <ele>99.4</ele>
        <time>2024-04-07T13:02:14Z</time>
      </trkpt>
      <trkpt lat="49.28476" lon="-0.18411">
        <ele>99.4</ele>
        <time>2024-04-07T13:02:15Z</time>
      </trkpt>
      <trkpt lat="49.28476" lon="-0.18402">
        <ele>99.4</ele>
        <time>2024-04-07T13:02:16Z</time>
      </trkpt>
      <trkpt lat="49.28476" lon="-0.18391">
        <ele>99.4</ele>
        <time>2024-04-07T13:02:17Z</time>
      </trkpt>
      <trkpt lat="49.28477" lon="-0.1838">
        <ele>99.4</ele>
        <time>2024-04-07T13:02:18Z</time>
      </trkpt>
      <trkpt lat="49.28477" lon="-0.18369">
        <ele>99.4</ele>
        <time>2024-04-07T13:02:19Z</time>
      </trkpt>
      <trkpt lat="49.28477" lon="-0.18358">
        <ele>99.4</ele>
        <time>2024-04-07T13:02:20Z</time>
      </trkpt>
      <trkpt lat="49.28477" lon="-0.18347">
        <ele>99.4</ele>
        <time>2024-04-07T13:02:21Z</time>
      </trkpt>
      <trkpt lat="49.28477" lon="-0.18335">
        <ele>99.4</ele>
        <time>2024-04-07T13:02:22Z</time>
      </trkpt>
      <trkpt lat="49.28476" lon="-0.18324">
        <ele>99.4</ele>
        <time>2024-04-07T13:02:23Z</time>
      </trkpt>
      <trkpt lat="49.28476" lon="-0.18313">
        <ele>99.4</ele>
        <time>2024-04-07T13:02:24Z</time>
      </trkpt>
      <trkpt lat="49.28475" lon="-0.18301">
        <ele>99.4</ele>
        <time>2024-04-07T13:02:25Z</time>
      </trkpt>
      <trkpt lat="49.28474" lon="-0.1829">
        <ele>99.4</ele>
        <time>2024-04-07T13:02:26Z</time>
      </trkpt>
      <trkpt lat="49.28474" lon="-0.18279">
        <ele>99.4</ele>
        <time>2024-04-07T13:02:27Z</time>
      </trkpt>
      <trkpt lat="49.28473" lon="-0.18268">
        <ele>99.4</ele>
        <time>2024-04-07T13:02:28Z</time>
      </trkpt>
      <trkpt lat="49.28473" lon="-0.18257">
        <ele>99.4</ele>
        <time>2024-04-07T13:02:29Z</time>
      </trkpt>
      <trkpt lat="49.28472" lon="-0.18246">
        <ele>99.4</ele>
        <time>2024-04-07T13:02:30Z</time>
      </trkpt>
      <trkpt lat="49.28471" lon="-0.18235">
        <ele>99.4</ele>
        <time>2024-04-07T13:02:31Z</time>
      </trkpt>
      <trkpt lat="49.28471" lon="-0.18223">
        <ele>99.4</ele>
        <time>2024-04-07T13:02:32Z</time>
      </trkpt>
      <trkpt lat="49.2847" lon="-0.18212">
        <ele>99.4</ele>
        <time>2024-04-07T13:02:33Z</time>
      </trkpt>
      <trkpt lat="49.2847" lon="-0.18201">
        <ele>99.4</ele>
        <time>2024-04-07T13:02:34Z</time>
      </trkpt>
      <trkpt lat="49.28469" lon="-0.18189">
        <ele>99.4</ele>
        <time>2024-04-07T13:02:35Z</time>
      </trkpt>
      <trkpt lat="49.28468" lon="-0.18177">
        <ele>99.4</ele>
        <time>2024-04-07T13:02:36Z</time>
      </trkpt>
      <trkpt lat="49.28468" lon="-0.18164">
        <ele>99.4</ele>
        <time>2024-04-07T13:02:37Z</time>
      </trkpt>
      <trkpt lat="49.28467" lon="-0.18152">
        <ele>99.4</ele>
        <time>2024-04-07T13:02:38Z</time>
      </trkpt>
      <trkpt lat="49.28466" lon="-0.1814">
        <ele>99.4</ele>
        <time>2024-04-07T13:02:39Z</time>
      </trkpt>
      <trkpt lat="49.28465" lon="-0.18128">
        <ele>99.4</ele>
        <time>2024-04-07T13:02:40Z</time>
      </trkpt>
      <trkpt lat="49.28465" lon="-0.18116">
        <ele>99.4</ele>
        <time>2024-04-07T13:02:41Z</time>
      </trkpt>
      <trkpt lat="49.28464" lon="-0.18104">
        <ele>99.4</ele>
        <time>2024-04-07T13:02:42Z</time>
      </trkpt>
      <trkpt lat="49.28463" lon="-0.18093">
        <ele>99.4</ele>
        <time>2024-04-07T13:02:43Z</time>
      </trkpt>
      <trkpt lat="49.28462" lon="-0.18081">
        <ele>99.4</ele>
        <time>2024-04-07T13:02:44Z</time>
      </trkpt>
      <trkpt lat="49.28461" lon="-0.18069">
        <ele>99.4</ele>
        <time>2024-04-07T13:02:45Z</time>
      </trkpt>
      <trkpt lat="49.2846" lon="-0.18057">
        <ele>99.4</ele>
        <time>2024-04-07T13:02:46Z</time>
      </trkpt>
      <trkpt lat="49.28458" lon="-0.18045">
        <ele>99.4</ele>
        <time>2024-04-07T13:02:47Z</time>
      </trkpt>
      <trkpt lat="49.28458" lon="-0.18034">
        <ele>99.4</ele>
        <time>2024-04-07T13:02:48Z</time>
      </trkpt>
      <trkpt lat="49.28457" lon="-0.18023">
        <ele>99.4</ele>
        <time>2024-04-07T13:02:49Z</time>
      </trkpt>
      <trkpt lat="49.28456" lon="-0.18011">
        <ele>99.4</ele>
        <time>2024-04-07T13:02:50Z</time>
      </trkpt>
      <trkpt lat="49.28455" lon="-0.17999">
        <ele>99.4</ele>
        <time>2024-04-07T13:02:51Z</time>
      </trkpt>
      <trkpt lat="49.28455" lon="-0.17988">
        <ele>99.4</ele>
        <time>2024-04-07T13:02:52Z</time>
      </trkpt>
      <trkpt lat="49.28455" lon="-0.17976">
        <ele>99.4</ele>
        <time>2024-04-07T13:02:53Z</time>
      </trkpt>
      <trkpt lat="49.28454" lon="-0.17964">
        <ele>99.4</ele>
        <time>2024-04-07T13:02:54Z</time>
      </trkpt>
      <trkpt lat="49.28454" lon="-0.17953">
        <ele>99.4</ele>
        <time>2024-04-07T13:02:55Z</time>
      </trkpt>
      <trkpt lat="49.28454" lon="-0.17941">
        <ele>99.4</ele>
        <time>2024-04-07T13:02:56Z</time>
      </trkpt>
      <trkpt lat="49.28455" lon="-0.1793">
        <ele>99.4</ele>
        <time>2024-04-07T13:02:57Z</time>
      </trkpt>
      <trkpt lat="49.28455" lon="-0.17919">
        <ele>99.4</ele>
        <time>2024-04-07T13:02:58Z</time>
      </trkpt>
      <trkpt lat="49.28456" lon="-0.17908">
        <ele>99.4</ele>
        <time>2024-04-07T13:02:59Z</time>
      </trkpt>
      <trkpt lat="49.28458" lon="-0.17897">
        <ele>99.4</ele>
        <time>2024-04-07T13:03:00Z</time>
      </trkpt>
      <trkpt lat="49.28459" lon="-0.17887">
        <ele>99.4</ele>
        <time>2024-04-07T13:03:01Z</time>
      </trkpt>
      <trkpt lat="49.28461" lon="-0.17877">
        <ele>99.4</ele>
        <time>2024-04-07T13:03:02Z</time>
      </trkpt>
      <trkpt lat="49.28463" lon="-0.17867">
        <ele>99.4</ele>
        <time>2024-04-07T13:03:03Z</time>
      </trkpt>
      <trkpt lat="49.28465" lon="-0.17858">
        <ele>99.4</ele>
        <time>2024-04-07T13:03:04Z</time>
      </trkpt>
      <trkpt lat="49.28467" lon="-0.17848">
        <ele>99.4</ele>
        <time>2024-04-07T13:03:05Z</time>
      </trkpt>
      <trkpt lat="49.28469" lon="-0.1784">
        <ele>99.4</ele>
        <time>2024-04-07T13:03:06Z</time>
      </trkpt>
      <trkpt lat="49.2847" lon="-0.17832">
        <ele>99.4</ele>
        <time>2024-04-07T13:03:07Z</time>
      </trkpt>
      <trkpt lat="49.28472" lon="-0.17825">
        <ele>99.4</ele>
        <time>2024-04-07T13:03:08Z</time>
      </trkpt>
      <trkpt lat="49.28472" lon="-0.17818">
        <ele>99.4</ele>
        <time>2024-04-07T13:03:09Z</time>
      </trkpt>
      <trkpt lat="49.28471" lon="-0.17812">
        <ele>99.4</ele>
        <time>2024-04-07T13:03:10Z</time>
      </trkpt>
      <trkpt lat="49.28471" lon="-0.17806">
        <ele>99.4</ele>
        <time>2024-04-07T13:03:11Z</time>
      </trkpt>
      <trkpt lat="49.28472" lon="-0.178">
        <ele>99.4</ele>
        <time>2024-04-07T13:03:12Z</time>
      </trkpt>
      <trkpt lat="49.28473" lon="-0.17794">
        <ele>99.4</ele>
        <time>2024-04-07T13:03:13Z</time>
      </trkpt>
      <trkpt lat="49.28476" lon="-0.17788">
        <ele>99.4</ele>
        <time>2024-04-07T13:03:14Z</time>
      </trkpt>
      <trkpt lat="49.28477" lon="-0.17783">
        <ele>99.4</ele>
        <time>2024-04-07T13:03:15Z</time>
      </trkpt>
      <trkpt lat="49.28479" lon="-0.17775">
        <ele>99.4</ele>
        <time>2024-04-07T13:03:16Z</time>
      </trkpt>
      <trkpt lat="49.28479" lon="-0.17766">
        <ele>99.4</ele>
        <time>2024-04-07T13:03:17Z</time>
      </trkpt>
      <trkpt lat="49.28479" lon="-0.17757">
        <ele>99.4</ele>
        <time>2024-04-07T13:03:18Z</time>
      </trkpt>
      <trkpt lat="49.2848" lon="-0.17746">
        <ele>99.4</ele>
        <time>2024-04-07T13:03:19Z</time>
      </trkpt>
      <trkpt lat="49.28482" lon="-0.17736">
        <ele>99.4</ele>
        <time>2024-04-07T13:03:20Z</time>
      </trkpt>
      <trkpt lat="49.28483" lon="-0.17726">
        <ele>99.4</ele>
        <time>2024-04-07T13:03:21Z</time>
      </trkpt>
      <trkpt lat="49.28484" lon="-0.17716">
        <ele>99.4</ele>
        <time>2024-04-07T13:03:22Z</time>
      </trkpt>
      <trkpt lat="49.28485" lon="-0.17707">
        <ele>99.4</ele>
        <time>2024-04-07T13:03:23Z</time>
      </trkpt>
      <trkpt lat="49.28487" lon="-0.17696">
        <ele>99.4</ele>
        <time>2024-04-07T13:03:24Z</time>
      </trkpt>
      <trkpt lat="49.28488" lon="-0.17686">
        <ele>99.4</ele>
        <time>2024-04-07T13:03:25Z</time>
      </trkpt>
      <trkpt lat="49.2849" lon="-0.17675">
        <ele>99.4</ele>
        <time>2024-04-07T13:03:26Z</time>
      </trkpt>
      <trkpt lat="49.28491" lon="-0.17665">
        <ele>99.4</ele>
        <time>2024-04-07T13:03:27Z</time>
      </trkpt>
      <trkpt lat="49.28491" lon="-0.17654">
        <ele>99.4</ele>
        <time>2024-04-07T13:03:28Z</time>
      </trkpt>
      <trkpt lat="49.28492" lon="-0.17643">
        <ele>99.4</ele>
        <time>2024-04-07T13:03:29Z</time>
      </trkpt>
      <trkpt lat="49.28492" lon="-0.17632">
        <ele>99.4</ele>
        <time>2024-04-07T13:03:30Z</time>
      </trkpt>
      <trkpt lat="49.28492" lon="-0.17621">
        <ele>99.4</ele>
        <time>2024-04-07T13:03:31Z</time>
      </trkpt>
      <trkpt lat="49.28492" lon="-0.1761">
        <ele>99.4</ele>
        <time>2024-04-07T13:03:32Z</time>
      </trkpt>
      <trkpt lat="49.28491" lon="-0.17598">
        <ele>99.4</ele>
        <time>2024-04-07T13:03:33Z</time>
      </trkpt>
      <trkpt lat="49.2849" lon="-0.17586">
        <ele>99.4</ele>
        <time>2024-04-07T13:03:34Z</time>
      </trkpt>
      <trkpt lat="49.28489" lon="-0.17575">
        <ele>99.4</ele>
        <time>2024-04-07T13:03:35Z</time>
      </trkpt>
      <trkpt lat="49.28488" lon="-0.17564">
        <ele>99.4</ele>
        <time>2024-04-07T13:03:36Z</time>
      </trkpt>
      <trkpt lat="49.28487" lon="-0.17553">
        <ele>99.4</ele>
        <time>2024-04-07T13:03:37Z</time>
      </trkpt>
      <trkpt lat="49.28486" lon="-0.17542">
        <ele>99.4</ele>
        <time>2024-04-07T13:03:38Z</time>
      </trkpt>
      <trkpt lat="49.28484" lon="-0.1753">
        <ele>99.4</ele>
        <time>2024-04-07T13:03:39Z</time>
      </trkpt>
      <trkpt lat="49.28483" lon="-0.17519">
        <ele>99.4</ele>
        <time>2024-04-07T13:03:40Z</time>
      </trkpt>
      <trkpt lat="49.28482" lon="-0.17508">
        <ele>99.4</ele>
        <time>2024-04-07T13:03:41Z</time>
      </trkpt>
      <trkpt lat="49.2848" lon="-0.17496">
        <ele>99.4</ele>
        <time>2024-04-07T13:03:42Z</time>
      </trkpt>
      <trkpt lat="49.28479" lon="-0.17485">
        <ele>99.4</ele>
        <time>2024-04-07T13:03:43Z</time>
      </trkpt>
      <trkpt lat="49.28477" lon="-0.17473">
        <ele>99.4</ele>
        <time>2024-04-07T13:03:44Z</time>
      </trkpt>
      <trkpt lat="49.28476" lon="-0.17462">
        <ele>99.4</ele>
        <time>2024-04-07T13:03:45Z</time>
      </trkpt>
      <trkpt lat="49.28475" lon="-0.17451">
        <ele>99.4</ele>
        <time>2024-04-07T13:03:46Z</time>
      </trkpt>
      <trkpt lat="49.28473" lon="-0.17439">
        <ele>99.4</ele>
        <time>2024-04-07T13:03:47Z</time>
      </trkpt>
      <trkpt lat="49.28472" lon="-0.17428">
        <ele>99.4</ele>
        <time>2024-04-07T13:03:48Z</time>
      </trkpt>
      <trkpt lat="49.2847" lon="-0.17416">
        <ele>99.4</ele>
        <time>2024-04-07T13:03:49Z</time>
      </trkpt>
      <trkpt lat="49.28469" lon="-0.17405">
        <ele>99.4</ele>
        <time>2024-04-07T13:03:50Z</time>
      </trkpt>
      <trkpt lat="49.28467" lon="-0.17393">
        <ele>99.4</ele>
        <time>2024-04-07T13:03:51Z</time>
      </trkpt>
      <trkpt lat="49.28466" lon="-0.17381">
        <ele>99.4</ele>
        <time>2024-04-07T13:03:52Z</time>
      </trkpt>
      <trkpt lat="49.28465" lon="-0.1737">
        <ele>99.4</ele>
        <time>2024-04-07T13:03:53Z</time>
      </trkpt>
      <trkpt lat="49.28463" lon="-0.17358">
        <ele>99.4</ele>
        <time>2024-04-07T13:03:54Z</time>
      </trkpt>
      <trkpt lat="49.28462" lon="-0.17347">
        <ele>99.4</ele>
        <time>2024-04-07T13:03:55Z</time>
      </trkpt>
      <trkpt lat="49.2846" lon="-0.17336">
        <ele>99.4</ele>
        <time>2024-04-07T13:03:56Z</time>
      </trkpt>
      <trkpt lat="49.28459" lon="-0.17324">
        <ele>99.4</ele>
        <time>2024-04-07T13:03:57Z</time>
      </trkpt>
      <trkpt lat="49.28458" lon="-0.17313">
        <ele>99.4</ele>
        <time>2024-04-07T13:03:58Z</time>
      </trkpt>
      <trkpt lat="49.28456" lon="-0.17302">
        <ele>99.4</ele>
        <time>2024-04-07T13:03:59Z</time>
      </trkpt>
      <trkpt lat="49.28455" lon="-0.17291">
        <ele>99.4</ele>
        <time>2024-04-07T13:04:00Z</time>
      </trkpt>
      <trkpt lat="49.28454" lon="-0.1728">
        <ele>99.4</ele>
        <time>2024-04-07T13:04:01Z</time>
      </trkpt>
      <trkpt lat="49.28452" lon="-0.17268">
        <ele>99.4</ele>
        <time>2024-04-07T13:04:02Z</time>
      </trkpt>
      <trkpt lat="49.28451" lon="-0.17257">
        <ele>99.4</ele>
        <time>2024-04-07T13:04:03Z</time>
      </trkpt>
      <trkpt lat="49.2845" lon="-0.17246">
        <ele>99.4</ele>
        <time>2024-04-07T13:04:04Z</time>
      </trkpt>
      <trkpt lat="49.28448" lon="-0.17235">
        <ele>99.4</ele>
        <time>2024-04-07T13:04:05Z</time>
      </trkpt>
      <trkpt lat="49.28447" lon="-0.17224">
        <ele>99.4</ele>
        <time>2024-04-07T13:04:06Z</time>
      </trkpt>
      <trkpt lat="49.28446" lon="-0.17213">
        <ele>99.4</ele>
        <time>2024-04-07T13:04:07Z</time>
      </trkpt>
      <trkpt lat="49.28445" lon="-0.17202">
        <ele>99.4</ele>
        <time>2024-04-07T13:04:08Z</time>
      </trkpt>
      <trkpt lat="49.28443" lon="-0.17191">
        <ele>99.4</ele>
        <time>2024-04-07T13:04:09Z</time>
      </trkpt>
      <trkpt lat="49.28442" lon="-0.1718">
        <ele>99.4</ele>
        <time>2024-04-07T13:04:10Z</time>
      </trkpt>
      <trkpt lat="49.28441" lon="-0.1717">
        <ele>99.4</ele>
        <time>2024-04-07T13:04:11Z</time>
      </trkpt>
      <trkpt lat="49.2844" lon="-0.17159">
        <ele>99.4</ele>
        <time>2024-04-07T13:04:12Z</time>
      </trkpt>
      <trkpt lat="49.28439" lon="-0.1715">
        <ele>99.4</ele>
        <time>2024-04-07T13:04:13Z</time>
      </trkpt>
      <trkpt lat="49.28438" lon="-0.17141">
        <ele>99.4</ele>
        <time>2024-04-07T13:04:14Z</time>
      </trkpt>
      <trkpt lat="49.28437" lon="-0.17132">
        <ele>99.4</ele>
        <time>2024-04-07T13:04:15Z</time>
      </trkpt>
      <trkpt lat="49.28437" lon="-0.17122">
        <ele>99.4</ele>
        <time>2024-04-07T13:04:16Z</time>
      </trkpt>
      <trkpt lat="49.28436" lon="-0.17113">
        <ele>99.4</ele>
        <time>2024-04-07T13:04:17Z</time>
      </trkpt>
      <trkpt lat="49.28435" lon="-0.17105">
        <ele>99.4</ele>
        <time>2024-04-07T13:04:18Z</time>
      </trkpt>
      <trkpt lat="49.28435" lon="-0.17096">
        <ele>99.4</ele>
        <time>2024-04-07T13:04:19Z</time>
      </trkpt>
      <trkpt lat="49.28435" lon="-0.17088">
        <ele>99.4</ele>
        <time>2024-04-07T13:04:20Z</time>
      </trkpt>
      <trkpt lat="49.28435" lon="-0.1708">
        <ele>99.4</ele>
        <time>2024-04-07T13:04:21Z</time>
      </trkpt>
      <trkpt lat="49.28435" lon="-0.17071">
        <ele>99.4</ele>
        <time>2024-04-07T13:04:22Z</time>
      </trkpt>
      <trkpt lat="49.28434" lon="-0.17062">
        <ele>99.4</ele>
        <time>2024-04-07T13:04:23Z</time>
      </trkpt>
      <trkpt lat="49.28433" lon="-0.17052">
        <ele>99.4</ele>
        <time>2024-04-07T13:04:24Z</time>
      </trkpt>
      <trkpt lat="49.28432" lon="-0.17043">
        <ele>99.4</ele>
        <time>2024-04-07T13:04:25Z</time>
      </trkpt>
      <trkpt lat="49.28431" lon="-0.17032">
        <ele>99.4</ele>
        <time>2024-04-07T13:04:26Z</time>
      </trkpt>
      <trkpt lat="49.2843" lon="-0.17022">
        <ele>99.4</ele>
        <time>2024-04-07T13:04:27Z</time>
      </trkpt>
      <trkpt lat="49.2843" lon="-0.17011">
        <ele>99.4</ele>
        <time>2024-04-07T13:04:28Z</time>
      </trkpt>
      <trkpt lat="49.28429" lon="-0.17001">
        <ele>99.4</ele>
        <time>2024-04-07T13:04:29Z</time>
      </trkpt>
      <trkpt lat="49.28429" lon="-0.1699">
        <ele>99.4</ele>
        <time>2024-04-07T13:04:30Z</time>
      </trkpt>
      <trkpt lat="49.2843" lon="-0.16979">
        <ele>99.4</ele>
        <time>2024-04-07T13:04:31Z</time>
      </trkpt>
      <trkpt lat="49.2843" lon="-0.16967">
        <ele>99.4</ele>
        <time>2024-04-07T13:04:32Z</time>
      </trkpt>
      <trkpt lat="49.2843" lon="-0.16956">
        <ele>99.4</ele>
        <time>2024-04-07T13:04:33Z</time>
      </trkpt>
      <trkpt lat="49.28431" lon="-0.16944">
        <ele>99.4</ele>
        <time>2024-04-07T13:04:34Z</time>
      </trkpt>
      <trkpt lat="49.28432" lon="-0.16933">
        <ele>99.4</ele>
        <time>2024-04-07T13:04:35Z</time>
      </trkpt>
      <trkpt lat="49.28433" lon="-0.16923">
        <ele>99.4</ele>
        <time>2024-04-07T13:04:36Z</time>
      </trkpt>
      <trkpt lat="49.28434" lon="-0.16913">
        <ele>99.4</ele>
        <time>2024-04-07T13:04:37Z</time>
      </trkpt>
      <trkpt lat="49.28435" lon="-0.16904">
        <ele>99.4</ele>
        <time>2024-04-07T13:04:38Z</time>
      </trkpt>
      <trkpt lat="49.28436" lon="-0.16895">
        <ele>99.4</ele>
        <time>2024-04-07T13:04:39Z</time>
      </trkpt>
      <trkpt lat="49.28437" lon="-0.16886">
        <ele>99.4</ele>
        <time>2024-04-07T13:04:40Z</time>
      </trkpt>
      <trkpt lat="49.28438" lon="-0.16876">
        <ele>99.4</ele>
        <time>2024-04-07T13:04:41Z</time>
      </trkpt>
      <trkpt lat="49.2844" lon="-0.16867">
        <ele>99.4</ele>
        <time>2024-04-07T13:04:42Z</time>
      </trkpt>
      <trkpt lat="49.2844" lon="-0.16858">
        <ele>99.4</ele>
        <time>2024-04-07T13:04:43Z</time>
      </trkpt>
      <trkpt lat="49.28441" lon="-0.16848">
        <ele>99.4</ele>
        <time>2024-04-07T13:04:44Z</time>
      </trkpt>
      <trkpt lat="49.28441" lon="-0.16838">
        <ele>99.4</ele>
        <time>2024-04-07T13:04:45Z</time>
      </trkpt>
      <trkpt lat="49.28442" lon="-0.16828">
        <ele>99.4</ele>
        <time>2024-04-07T13:04:46Z</time>
      </trkpt>
      <trkpt lat="49.28443" lon="-0.16816">
        <ele>99.4</ele>
        <time>2024-04-07T13:04:47Z</time>
      </trkpt>
      <trkpt lat="49.28444" lon="-0.16805">
        <ele>99.4</ele>
        <time>2024-04-07T13:04:48Z</time>
      </trkpt>
      <trkpt lat="49.28445" lon="-0.16794">
        <ele>99.4</ele>
        <time>2024-04-07T13:04:49Z</time>
      </trkpt>
      <trkpt lat="49.28445" lon="-0.16783">
        <ele>99.4</ele>
        <time>2024-04-07T13:04:50Z</time>
      </trkpt>
      <trkpt lat="49.28446" lon="-0.16772">
        <ele>99.4</ele>
        <time>2024-04-07T13:04:51Z</time>
      </trkpt>
      <trkpt lat="49.28446" lon="-0.16761">
        <ele>99.8</ele>
        <time>2024-04-07T13:04:52Z</time>
      </trkpt>
      <trkpt lat="49.28446" lon="-0.1675">
        <ele>99.8</ele>
        <time>2024-04-07T13:04:53Z</time>
      </trkpt>
      <trkpt lat="49.28446" lon="-0.16739">
        <ele>99.8</ele>
        <time>2024-04-07T13:04:54Z</time>
      </trkpt>
      <trkpt lat="49.28446" lon="-0.16727">
        <ele>99.8</ele>
        <time>2024-04-07T13:04:55Z</time>
      </trkpt>
      <trkpt lat="49.28447" lon="-0.16716">
        <ele>99.8</ele>
        <time>2024-04-07T13:04:56Z</time>
      </trkpt>
      <trkpt lat="49.28446" lon="-0.16705">
        <ele>99.8</ele>
        <time>2024-04-07T13:04:57Z</time>
      </trkpt>
      <trkpt lat="49.28446" lon="-0.16694">
        <ele>99.8</ele>
        <time>2024-04-07T13:04:58Z</time>
      </trkpt>
      <trkpt lat="49.28446" lon="-0.16683">
        <ele>99.8</ele>
        <time>2024-04-07T13:04:59Z</time>
      </trkpt>
      <trkpt lat="49.28445" lon="-0.16672">
        <ele>99.8</ele>
        <time>2024-04-07T13:05:00Z</time>
      </trkpt>
      <trkpt lat="49.28444" lon="-0.16662">
        <ele>99.8</ele>
        <time>2024-04-07T13:05:01Z</time>
      </trkpt>
      <trkpt lat="49.28444" lon="-0.16651">
        <ele>99.8</ele>
        <time>2024-04-07T13:05:02Z</time>
      </trkpt>
      <trkpt lat="49.28443" lon="-0.16641">
        <ele>99.8</ele>
        <time>2024-04-07T13:05:03Z</time>
      </trkpt>
      <trkpt lat="49.28442" lon="-0.16629">
        <ele>99.8</ele>
        <time>2024-04-07T13:05:04Z</time>
      </trkpt>
      <trkpt lat="49.28441" lon="-0.16618">
        <ele>99.8</ele>
        <time>2024-04-07T13:05:05Z</time>
      </trkpt>
      <trkpt lat="49.28441" lon="-0.16607">
        <ele>99.8</ele>
        <time>2024-04-07T13:05:06Z</time>
      </trkpt>
      <trkpt lat="49.28441" lon="-0.16595">
        <ele>99.8</ele>
        <time>2024-04-07T13:05:07Z</time>
      </trkpt>
      <trkpt lat="49.28442" lon="-0.16584">
        <ele>99.8</ele>
        <time>2024-04-07T13:05:08Z</time>
      </trkpt>
      <trkpt lat="49.28442" lon="-0.16574">
        <ele>99.8</ele>
        <time>2024-04-07T13:05:09Z</time>
      </trkpt>
      <trkpt lat="49.28443" lon="-0.16564">
        <ele>99.8</ele>
        <time>2024-04-07T13:05:10Z</time>
      </trkpt>
      <trkpt lat="49.28444" lon="-0.16554">
        <ele>99.8</ele>
        <time>2024-04-07T13:05:11Z</time>
      </trkpt>
      <trkpt lat="49.28444" lon="-0.16544">
        <ele>99.8</ele>
        <time>2024-04-07T13:05:12Z</time>
      </trkpt>
      <trkpt lat="49.28444" lon="-0.16533">
        <ele>99.8</ele>
        <time>2024-04-07T13:05:13Z</time>
      </trkpt>
      <trkpt lat="49.28444" lon="-0.16522">
        <ele>99.8</ele>
        <time>2024-04-07T13:05:14Z</time>
      </trkpt>
      <trkpt lat="49.28445" lon="-0.16511">
        <ele>99.8</ele>
        <time>2024-04-07T13:05:15Z</time>
      </trkpt>
      <trkpt lat="49.28445" lon="-0.165">
        <ele>99.8</ele>
        <time>2024-04-07T13:05:16Z</time>
      </trkpt>
      <trkpt lat="49.28446" lon="-0.16488">
        <ele>99.8</ele>
        <time>2024-04-07T13:05:17Z</time>
      </trkpt>
      <trkpt lat="49.28447" lon="-0.16476">
        <ele>99.8</ele>
        <time>2024-04-07T13:05:18Z</time>
      </trkpt>
      <trkpt lat="49.28447" lon="-0.16464">
        <ele>99.8</ele>
        <time>2024-04-07T13:05:19Z</time>
      </trkpt>
      <trkpt lat="49.28448" lon="-0.16452">
        <ele>99.8</ele>
        <time>2024-04-07T13:05:20Z</time>
      </trkpt>
      <trkpt lat="49.28448" lon="-0.16441">
        <ele>99.8</ele>
        <time>2024-04-07T13:05:21Z</time>
      </trkpt>
      <trkpt lat="49.28449" lon="-0.1643">
        <ele>99.8</ele>
        <time>2024-04-07T13:05:22Z</time>
      </trkpt>
      <trkpt lat="49.2845" lon="-0.16419">
        <ele>99.8</ele>
        <time>2024-04-07T13:05:23Z</time>
      </trkpt>
      <trkpt lat="49.28451" lon="-0.16408">
        <ele>99.8</ele>
        <time>2024-04-07T13:05:24Z</time>
      </trkpt>
      <trkpt lat="49.28452" lon="-0.16397">
        <ele>99.8</ele>
        <time>2024-04-07T13:05:25Z</time>
      </trkpt>
      <trkpt lat="49.28453" lon="-0.16384">
        <ele>99.8</ele>
        <time>2024-04-07T13:05:26Z</time>
      </trkpt>
      <trkpt lat="49.28453" lon="-0.16372">
        <ele>99.8</ele>
        <time>2024-04-07T13:05:27Z</time>
      </trkpt>
      <trkpt lat="49.28455" lon="-0.1636">
        <ele>99.8</ele>
        <time>2024-04-07T13:05:28Z</time>
      </trkpt>
      <trkpt lat="49.28457" lon="-0.16348">
        <ele>99.8</ele>
        <time>2024-04-07T13:05:29Z</time>
      </trkpt>
      <trkpt lat="49.28458" lon="-0.16337">
        <ele>99.8</ele>
        <time>2024-04-07T13:05:30Z</time>
      </trkpt>
      <trkpt lat="49.2846" lon="-0.16325">
        <ele>99.8</ele>
        <time>2024-04-07T13:05:31Z</time>
      </trkpt>
      <trkpt lat="49.28462" lon="-0.16314">
        <ele>99.8</ele>
        <time>2024-04-07T13:05:32Z</time>
      </trkpt>
      <trkpt lat="49.28463" lon="-0.16303">
        <ele>99.8</ele>
        <time>2024-04-07T13:05:33Z</time>
      </trkpt>
      <trkpt lat="49.28465" lon="-0.16292">
        <ele>99.8</ele>
        <time>2024-04-07T13:05:34Z</time>
      </trkpt>
      <trkpt lat="49.28467" lon="-0.16281">
        <ele>99.8</ele>
        <time>2024-04-07T13:05:35Z</time>
      </trkpt>
      <trkpt lat="49.28469" lon="-0.16269">
        <ele>99.8</ele>
        <time>2024-04-07T13:05:36Z</time>
      </trkpt>
      <trkpt lat="49.2847" lon="-0.16258">
        <ele>99.8</ele>
        <time>2024-04-07T13:05:37Z</time>
      </trkpt>
      <trkpt lat="49.28471" lon="-0.16247">
        <ele>99.8</ele>
        <time>2024-04-07T13:05:38Z</time>
      </trkpt>
      <trkpt lat="49.28472" lon="-0.16236">
        <ele>99.8</ele>
        <time>2024-04-07T13:05:39Z</time>
      </trkpt>
      <trkpt lat="49.28473" lon="-0.16225">
        <ele>99.8</ele>
        <time>2024-04-07T13:05:40Z</time>
      </trkpt>
      <trkpt lat="49.28474" lon="-0.16213">
        <ele>99.8</ele>
        <time>2024-04-07T13:05:41Z</time>
      </trkpt>
      <trkpt lat="49.28475" lon="-0.16203">
        <ele>99.8</ele>
        <time>2024-04-07T13:05:42Z</time>
      </trkpt>
      <trkpt lat="49.28475" lon="-0.16192">
        <ele>99.8</ele>
        <time>2024-04-07T13:05:43Z</time>
      </trkpt>
      <trkpt lat="49.28474" lon="-0.16183">
        <ele>99.8</ele>
        <time>2024-04-07T13:05:44Z</time>
      </trkpt>
      <trkpt lat="49.28474" lon="-0.16173">
        <ele>99.8</ele>
        <time>2024-04-07T13:05:45Z</time>
      </trkpt>
      <trkpt lat="49.28473" lon="-0.16163">
        <ele>99.8</ele>
        <time>2024-04-07T13:05:46Z</time>
      </trkpt>
      <trkpt lat="49.28472" lon="-0.16153">
        <ele>99.8</ele>
        <time>2024-04-07T13:05:47Z</time>
      </trkpt>
      <trkpt lat="49.28471" lon="-0.16143">
        <ele>99.8</ele>
        <time>2024-04-07T13:05:48Z</time>
      </trkpt>
      <trkpt lat="49.2847" lon="-0.16134">
        <ele>99.8</ele>
        <time>2024-04-07T13:05:49Z</time>
      </trkpt>
      <trkpt lat="49.28469" lon="-0.16124">
        <ele>99.8</ele>
        <time>2024-04-07T13:05:50Z</time>
      </trkpt>
      <trkpt lat="49.28468" lon="-0.16114">
        <ele>99.8</ele>
        <time>2024-04-07T13:05:51Z</time>
      </trkpt>
      <trkpt lat="49.28467" lon="-0.16104">
        <ele>99.6</ele>
        <time>2024-04-07T13:05:52Z</time>
      </trkpt>
      <trkpt lat="49.28467" lon="-0.16094">
        <ele>99.6</ele>
        <time>2024-04-07T13:05:53Z</time>
      </trkpt>
      <trkpt lat="49.28466" lon="-0.16083">
        <ele>99.6</ele>
        <time>2024-04-07T13:05:54Z</time>
      </trkpt>
      <trkpt lat="49.28465" lon="-0.16073">
        <ele>99.6</ele>
        <time>2024-04-07T13:05:55Z</time>
      </trkpt>
      <trkpt lat="49.28464" lon="-0.16062">
        <ele>99.6</ele>
        <time>2024-04-07T13:05:56Z</time>
      </trkpt>
      <trkpt lat="49.28463" lon="-0.16051">
        <ele>99.6</ele>
        <time>2024-04-07T13:05:57Z</time>
      </trkpt>
      <trkpt lat="49.28463" lon="-0.1604">
        <ele>99.6</ele>
        <time>2024-04-07T13:05:58Z</time>
      </trkpt>
      <trkpt lat="49.28463" lon="-0.16028">
        <ele>99.6</ele>
        <time>2024-04-07T13:05:59Z</time>
      </trkpt>
      <trkpt lat="49.28462" lon="-0.16017">
        <ele>99.6</ele>
        <time>2024-04-07T13:06:00Z</time>
      </trkpt>
      <trkpt lat="49.28461" lon="-0.16006">
        <ele>99.6</ele>
        <time>2024-04-07T13:06:01Z</time>
      </trkpt>
      <trkpt lat="49.28461" lon="-0.15994">
        <ele>99.6</ele>
        <time>2024-04-07T13:06:02Z</time>
      </trkpt>
      <trkpt lat="49.2846" lon="-0.15983">
        <ele>99.6</ele>
        <time>2024-04-07T13:06:03Z</time>
      </trkpt>
      <trkpt lat="49.28459" lon="-0.15971">
        <ele>99.6</ele>
        <time>2024-04-07T13:06:04Z</time>
      </trkpt>
      <trkpt lat="49.28458" lon="-0.15959">
        <ele>99.6</ele>
        <time>2024-04-07T13:06:05Z</time>
      </trkpt>
      <trkpt lat="49.28458" lon="-0.15947">
        <ele>99.6</ele>
        <time>2024-04-07T13:06:06Z</time>
      </trkpt>
      <trkpt lat="49.28457" lon="-0.15935">
        <ele>99.6</ele>
        <time>2024-04-07T13:06:07Z</time>
      </trkpt>
      <trkpt lat="49.28457" lon="-0.15923">
        <ele>99.6</ele>
        <time>2024-04-07T13:06:08Z</time>
      </trkpt>
      <trkpt lat="49.28457" lon="-0.15912">
        <ele>99.6</ele>
        <time>2024-04-07T13:06:09Z</time>
      </trkpt>
      <trkpt lat="49.28456" lon="-0.159">
        <ele>99.6</ele>
        <time>2024-04-07T13:06:10Z</time>
      </trkpt>
      <trkpt lat="49.28456" lon="-0.15889">
        <ele>99.6</ele>
        <time>2024-04-07T13:06:11Z</time>
      </trkpt>
      <trkpt lat="49.28456" lon="-0.15878">
        <ele>99.6</ele>
        <time>2024-04-07T13:06:12Z</time>
      </trkpt>
      <trkpt lat="49.28455" lon="-0.15867">
        <ele>99.6</ele>
        <time>2024-04-07T13:06:13Z</time>
      </trkpt>
      <trkpt lat="49.28454" lon="-0.15856">
        <ele>99.6</ele>
        <time>2024-04-07T13:06:14Z</time>
      </trkpt>
      <trkpt lat="49.28454" lon="-0.15845">
        <ele>99.6</ele>
        <time>2024-04-07T13:06:15Z</time>
      </trkpt>
      <trkpt lat="49.28454" lon="-0.15834">
        <ele>99.6</ele>
        <time>2024-04-07T13:06:16Z</time>
      </trkpt>
      <trkpt lat="49.28454" lon="-0.15824">
        <ele>99.6</ele>
        <time>2024-04-07T13:06:17Z</time>
      </trkpt>
      <trkpt lat="49.28453" lon="-0.15814">
        <ele>99.6</ele>
        <time>2024-04-07T13:06:18Z</time>
      </trkpt>
      <trkpt lat="49.28452" lon="-0.15804">
        <ele>99.6</ele>
        <time>2024-04-07T13:06:19Z</time>
      </trkpt>
      <trkpt lat="49.28452" lon="-0.15794">
        <ele>99.6</ele>
        <time>2024-04-07T13:06:20Z</time>
      </trkpt>
      <trkpt lat="49.28451" lon="-0.15785">
        <ele>99.6</ele>
        <time>2024-04-07T13:06:21Z</time>
      </trkpt>
      <trkpt lat="49.2845" lon="-0.15775">
        <ele>99.6</ele>
        <time>2024-04-07T13:06:22Z</time>
      </trkpt>
      <trkpt lat="49.2845" lon="-0.15766">
        <ele>99.6</ele>
        <time>2024-04-07T13:06:23Z</time>
      </trkpt>
      <trkpt lat="49.28449" lon="-0.15756">
        <ele>99.6</ele>
        <time>2024-04-07T13:06:24Z</time>
      </trkpt>
      <trkpt lat="49.28449" lon="-0.15747">
        <ele>99.6</ele>
        <time>2024-04-07T13:06:25Z</time>
      </trkpt>
      <trkpt lat="49.28448" lon="-0.15737">
        <ele>99.6</ele>
        <time>2024-04-07T13:06:26Z</time>
      </trkpt>
      <trkpt lat="49.28448" lon="-0.15727">
        <ele>99.6</ele>
        <time>2024-04-07T13:06:27Z</time>
      </trkpt>
      <trkpt lat="49.28447" lon="-0.15717">
        <ele>99.6</ele>
        <time>2024-04-07T13:06:28Z</time>
      </trkpt>
      <trkpt lat="49.28447" lon="-0.15706">
        <ele>99.6</ele>
        <time>2024-04-07T13:06:29Z</time>
      </trkpt>
      <trkpt lat="49.28446" lon="-0.15696">
        <ele>99.6</ele>
        <time>2024-04-07T13:06:30Z</time>
      </trkpt>
      <trkpt lat="49.28446" lon="-0.15686">
        <ele>99.6</ele>
        <time>2024-04-07T13:06:31Z</time>
      </trkpt>
      <trkpt lat="49.28446" lon="-0.15676">
        <ele>99.6</ele>
        <time>2024-04-07T13:06:32Z</time>
      </trkpt>
      <trkpt lat="49.28445" lon="-0.15666">
        <ele>99.6</ele>
        <time>2024-04-07T13:06:33Z</time>
      </trkpt>
      <trkpt lat="49.28445" lon="-0.15656">
        <ele>99.6</ele>
        <time>2024-04-07T13:06:34Z</time>
      </trkpt>
      <trkpt lat="49.28445" lon="-0.15646">
        <ele>99.6</ele>
        <time>2024-04-07T13:06:35Z</time>
      </trkpt>
      <trkpt lat="49.28445" lon="-0.15636">
        <ele>99.6</ele>
        <time>2024-04-07T13:06:36Z</time>
      </trkpt>
      <trkpt lat="49.28444" lon="-0.15626">
        <ele>99.6</ele>
        <time>2024-04-07T13:06:37Z</time>
      </trkpt>
      <trkpt lat="49.28443" lon="-0.15616">
        <ele>99.6</ele>
        <time>2024-04-07T13:06:38Z</time>
      </trkpt>
      <trkpt lat="49.28443" lon="-0.15606">
        <ele>99.6</ele>
        <time>2024-04-07T13:06:39Z</time>
      </trkpt>
      <trkpt lat="49.28443" lon="-0.15596">
        <ele>99.6</ele>
        <time>2024-04-07T13:06:40Z</time>
      </trkpt>
      <trkpt lat="49.28442" lon="-0.15586">
        <ele>99.6</ele>
        <time>2024-04-07T13:06:41Z</time>
      </trkpt>
      <trkpt lat="49.28442" lon="-0.15576">
        <ele>99.6</ele>
        <time>2024-04-07T13:06:42Z</time>
      </trkpt>
      <trkpt lat="49.28442" lon="-0.15566">
        <ele>99.6</ele>
        <time>2024-04-07T13:06:43Z</time>
      </trkpt>
      <trkpt lat="49.28441" lon="-0.15556">
        <ele>99.6</ele>
        <time>2024-04-07T13:06:44Z</time>
      </trkpt>
      <trkpt lat="49.28441" lon="-0.15546">
        <ele>99.6</ele>
        <time>2024-04-07T13:06:45Z</time>
      </trkpt>
      <trkpt lat="49.28441" lon="-0.15536">
        <ele>99.6</ele>
        <time>2024-04-07T13:06:46Z</time>
      </trkpt>
      <trkpt lat="49.2844" lon="-0.15527">
        <ele>99.6</ele>
        <time>2024-04-07T13:06:47Z</time>
      </trkpt>
      <trkpt lat="49.2844" lon="-0.15517">
        <ele>99.6</ele>
        <time>2024-04-07T13:06:48Z</time>
      </trkpt>
      <trkpt lat="49.28439" lon="-0.15509">
        <ele>99.6</ele>
        <time>2024-04-07T13:06:49Z</time>
      </trkpt>
      <trkpt lat="49.28439" lon="-0.155">
        <ele>99.6</ele>
        <time>2024-04-07T13:06:50Z</time>
      </trkpt>
      <trkpt lat="49.28439" lon="-0.15491">
        <ele>99.6</ele>
        <time>2024-04-07T13:06:51Z</time>
      </trkpt>
      <trkpt lat="49.28438" lon="-0.15483">
        <ele>99.8</ele>
        <time>2024-04-07T13:06:52Z</time>
      </trkpt>
      <trkpt lat="49.28438" lon="-0.15473">
        <ele>99.8</ele>
        <time>2024-04-07T13:06:53Z</time>
      </trkpt>
      <trkpt lat="49.28438" lon="-0.15464">
        <ele>99.8</ele>
        <time>2024-04-07T13:06:54Z</time>
      </trkpt>
      <trkpt lat="49.28438" lon="-0.15455">
        <ele>99.8</ele>
        <time>2024-04-07T13:06:55Z</time>
      </trkpt>
      <trkpt lat="49.28438" lon="-0.15447">
        <ele>99.8</ele>
        <time>2024-04-07T13:06:56Z</time>
      </trkpt>
      <trkpt lat="49.28438" lon="-0.15441">
        <ele>99.8</ele>
        <time>2024-04-07T13:06:57Z</time>
      </trkpt>
      <trkpt lat="49.28438" lon="-0.15436">
        <ele>99.8</ele>
        <time>2024-04-07T13:06:58Z</time>
      </trkpt>
      <trkpt lat="49.28438" lon="-0.15432">
        <ele>99.8</ele>
        <time>2024-04-07T13:06:59Z</time>
      </trkpt>
      <trkpt lat="49.28438" lon="-0.1543">
        <ele>99.8</ele>
        <time>2024-04-07T13:07:00Z</time>
      </trkpt>
      <trkpt lat="49.28438" lon="-0.15429">
        <ele>99.8</ele>
        <time>2024-04-07T13:07:01Z</time>
      </trkpt>
      <trkpt lat="49.28438" lon="-0.15429">
        <ele>99.8</ele>
        <time>2024-04-07T13:07:02Z</time>
      </trkpt>
      <trkpt lat="49.28438" lon="-0.15429">
        <ele>99.8</ele>
        <time>2024-04-07T13:07:03Z</time>
      </trkpt>
      <trkpt lat="49.28437" lon="-0.15424">
        <ele>99.8</ele>
        <time>2024-04-07T13:07:20Z</time>
      </trkpt>
      <trkpt lat="49.28437" lon="-0.15421">
        <ele>99.8</ele>
        <time>2024-04-07T13:07:21Z</time>
      </trkpt>
      <trkpt lat="49.28437" lon="-0.15418">
        <ele>99.8</ele>
        <time>2024-04-07T13:07:22Z</time>
      </trkpt>
      <trkpt lat="49.28437" lon="-0.15414">
        <ele>99.8</ele>
        <time>2024-04-07T13:07:23Z</time>
      </trkpt>
      <trkpt lat="49.28437" lon="-0.15409">
        <ele>99.8</ele>
        <time>2024-04-07T13:07:24Z</time>
      </trkpt>
      <trkpt lat="49.28437" lon="-0.15405">
        <ele>99.8</ele>
        <time>2024-04-07T13:07:25Z</time>
      </trkpt>
      <trkpt lat="49.28437" lon="-0.15401">
        <ele>99.8</ele>
        <time>2024-04-07T13:07:26Z</time>
      </trkpt>
      <trkpt lat="49.28437" lon="-0.15399">
        <ele>99.8</ele>
        <time>2024-04-07T13:07:27Z</time>
      </trkpt>
      <trkpt lat="49.28437" lon="-0.15397">
        <ele>99.8</ele>
        <time>2024-04-07T13:07:28Z</time>
      </trkpt>
      <trkpt lat="49.28437" lon="-0.15395">
        <ele>99.8</ele>
        <time>2024-04-07T13:07:29Z</time>
      </trkpt>
      <trkpt lat="49.28436" lon="-0.15393">
        <ele>99.8</ele>
        <time>2024-04-07T13:07:30Z</time>
      </trkpt>
      <trkpt lat="49.28436" lon="-0.15392">
        <ele>99.8</ele>
        <time>2024-04-07T13:07:31Z</time>
      </trkpt>
      <trkpt lat="49.28436" lon="-0.15392">
        <ele>99.8</ele>
        <time>2024-04-07T13:07:32Z</time>
      </trkpt>
      <trkpt lat="49.28436" lon="-0.15391">
        <ele>99.8</ele>
        <time>2024-04-07T13:07:33Z</time>
      </trkpt>
      <trkpt lat="49.28436" lon="-0.15386">
        <ele>99.8</ele>
        <time>2024-04-07T13:07:44Z</time>
      </trkpt>
      <trkpt lat="49.28436" lon="-0.15383">
        <ele>99.8</ele>
        <time>2024-04-07T13:07:45Z</time>
      </trkpt>
      <trkpt lat="49.28436" lon="-0.1538">
        <ele>99.8</ele>
        <time>2024-04-07T13:07:46Z</time>
      </trkpt>
      <trkpt lat="49.28436" lon="-0.15378">
        <ele>99.8</ele>
        <time>2024-04-07T13:07:47Z</time>
      </trkpt>
      <trkpt lat="49.28436" lon="-0.15377">
        <ele>99.8</ele>
        <time>2024-04-07T13:07:48Z</time>
      </trkpt>
      <trkpt lat="49.28436" lon="-0.15376">
        <ele>99.8</ele>
        <time>2024-04-07T13:07:49Z</time>
      </trkpt>
      <trkpt lat="49.28436" lon="-0.15376">
        <ele>99.8</ele>
        <time>2024-04-07T13:07:50Z</time>
      </trkpt>
      <trkpt lat="49.28436" lon="-0.15371">
        <ele>99.8</ele>
        <time>2024-04-07T13:07:54Z</time>
      </trkpt>
      <trkpt lat="49.28436" lon="-0.15368">
        <ele>99.8</ele>
        <time>2024-04-07T13:07:55Z</time>
      </trkpt>
      <trkpt lat="49.28436" lon="-0.15365">
        <ele>99.8</ele>
        <time>2024-04-07T13:07:56Z</time>
      </trkpt>
      <trkpt lat="49.28436" lon="-0.1536">
        <ele>99.8</ele>
        <time>2024-04-07T13:07:57Z</time>
      </trkpt>
      <trkpt lat="49.28436" lon="-0.15355">
        <ele>99.8</ele>
        <time>2024-04-07T13:07:58Z</time>
      </trkpt>
      <trkpt lat="49.28436" lon="-0.1535">
        <ele>99.8</ele>
        <time>2024-04-07T13:07:59Z</time>
      </trkpt>
      <trkpt lat="49.28436" lon="-0.15344">
        <ele>99.8</ele>
        <time>2024-04-07T13:08:00Z</time>
      </trkpt>
      <trkpt lat="49.28436" lon="-0.15338">
        <ele>99.8</ele>
        <time>2024-04-07T13:08:01Z</time>
      </trkpt>
      <trkpt lat="49.28435" lon="-0.15331">
        <ele>99.8</ele>
        <time>2024-04-07T13:08:02Z</time>
      </trkpt>
      <trkpt lat="49.28434" lon="-0.15324">
        <ele>99.8</ele>
        <time>2024-04-07T13:08:03Z</time>
      </trkpt>
      <trkpt lat="49.28434" lon="-0.15316">
        <ele>99.8</ele>
        <time>2024-04-07T13:08:04Z</time>
      </trkpt>
      <trkpt lat="49.28433" lon="-0.15309">
        <ele>99.8</ele>
        <time>2024-04-07T13:08:05Z</time>
      </trkpt>
      <trkpt lat="49.28433" lon="-0.15301">
        <ele>99.8</ele>
        <time>2024-04-07T13:08:06Z</time>
      </trkpt>
      <trkpt lat="49.28432" lon="-0.15293">
        <ele>99.8</ele>
        <time>2024-04-07T13:08:07Z</time>
      </trkpt>
      <trkpt lat="49.28432" lon="-0.15285">
        <ele>99.8</ele>
        <time>2024-04-07T13:08:08Z</time>
      </trkpt>
      <trkpt lat="49.28432" lon="-0.15276">
        <ele>99.8</ele>
        <time>2024-04-07T13:08:09Z</time>
      </trkpt>
      <trkpt lat="49.28431" lon="-0.15267">
        <ele>99.8</ele>
        <time>2024-04-07T13:08:10Z</time>
      </trkpt>
      <trkpt lat="49.28431" lon="-0.15257">
        <ele>99.8</ele>
        <time>2024-04-07T13:08:11Z</time>
      </trkpt>
      <trkpt lat="49.28431" lon="-0.15248">
        <ele>99.8</ele>
        <time>2024-04-07T13:08:12Z</time>
      </trkpt>
      <trkpt lat="49.28431" lon="-0.15239">
        <ele>99.8</ele>
        <time>2024-04-07T13:08:13Z</time>
      </trkpt>
      <trkpt lat="49.28431" lon="-0.15229">
        <ele>99.8</ele>
        <time>2024-04-07T13:08:14Z</time>
      </trkpt>
      <trkpt lat="49.28431" lon="-0.1522">
        <ele>99.8</ele>
        <time>2024-04-07T13:08:15Z</time>
      </trkpt>
      <trkpt lat="49.28431" lon="-0.1521">
        <ele>99.8</ele>
        <time>2024-04-07T13:08:16Z</time>
      </trkpt>
      <trkpt lat="49.28431" lon="-0.15201">
        <ele>99.8</ele>
        <time>2024-04-07T13:08:17Z</time>
      </trkpt>
      <trkpt lat="49.2843" lon="-0.15191">
        <ele>99.8</ele>
        <time>2024-04-07T13:08:18Z</time>
      </trkpt>
      <trkpt lat="49.2843" lon="-0.15181">
        <ele>99.8</ele>
        <time>2024-04-07T13:08:19Z</time>
      </trkpt>
      <trkpt lat="49.28429" lon="-0.15173">
        <ele>99.8</ele>
        <time>2024-04-07T13:08:20Z</time>
      </trkpt>
      <trkpt lat="49.28429" lon="-0.15165">
        <ele>99.8</ele>
        <time>2024-04-07T13:08:21Z</time>
      </trkpt>
      <trkpt lat="49.28429" lon="-0.15156">
        <ele>99.8</ele>
        <time>2024-04-07T13:08:22Z</time>
      </trkpt>
      <trkpt lat="49.28429" lon="-0.15146">
        <ele>99.8</ele>
        <time>2024-04-07T13:08:23Z</time>
      </trkpt>
      <trkpt lat="49.28429" lon="-0.15137">
        <ele>99.8</ele>
        <time>2024-04-07T13:08:24Z</time>
      </trkpt>
      <trkpt lat="49.28429" lon="-0.15126">
        <ele>99.8</ele>
        <time>2024-04-07T13:08:25Z</time>
      </trkpt>
      <trkpt lat="49.28429" lon="-0.15116">
        <ele>99.8</ele>
        <time>2024-04-07T13:08:26Z</time>
      </trkpt>
      <trkpt lat="49.2843" lon="-0.15106">
        <ele>99.8</ele>
        <time>2024-04-07T13:08:27Z</time>
      </trkpt>
      <trkpt lat="49.28431" lon="-0.15096">
        <ele>99.8</ele>
        <time>2024-04-07T13:08:28Z</time>
      </trkpt>
      <trkpt lat="49.28431" lon="-0.15085">
        <ele>99.8</ele>
        <time>2024-04-07T13:08:29Z</time>
      </trkpt>
      <trkpt lat="49.28432" lon="-0.15075">
        <ele>99.8</ele>
        <time>2024-04-07T13:08:30Z</time>
      </trkpt>
      <trkpt lat="49.28432" lon="-0.15064">
        <ele>99.8</ele>
        <time>2024-04-07T13:08:31Z</time>
      </trkpt>
      <trkpt lat="49.28432" lon="-0.15054">
        <ele>99.8</ele>
        <time>2024-04-07T13:08:32Z</time>
      </trkpt>
      <trkpt lat="49.28433" lon="-0.15044">
        <ele>99.8</ele>
        <time>2024-04-07T13:08:33Z</time>
      </trkpt>
      <trkpt lat="49.28434" lon="-0.15033">
        <ele>99.8</ele>
        <time>2024-04-07T13:08:34Z</time>
      </trkpt>
      <trkpt lat="49.28434" lon="-0.15023">
        <ele>99.8</ele>
        <time>2024-04-07T13:08:35Z</time>
      </trkpt>
      <trkpt lat="49.28435" lon="-0.15012">
        <ele>99.8</ele>
        <time>2024-04-07T13:08:36Z</time>
      </trkpt>
      <trkpt lat="49.28436" lon="-0.15002">
        <ele>99.8</ele>
        <time>2024-04-07T13:08:37Z</time>
      </trkpt>
      <trkpt lat="49.28436" lon="-0.14991">
        <ele>99.8</ele>
        <time>2024-04-07T13:08:38Z</time>
      </trkpt>
      <trkpt lat="49.28437" lon="-0.14981">
        <ele>99.8</ele>
        <time>2024-04-07T13:08:39Z</time>
      </trkpt>
      <trkpt lat="49.28439" lon="-0.14969">
        <ele>99.8</ele>
        <time>2024-04-07T13:08:40Z</time>
      </trkpt>
      <trkpt lat="49.28439" lon="-0.14958">
        <ele>99.8</ele>
        <time>2024-04-07T13:08:41Z</time>
      </trkpt>
      <trkpt lat="49.2844" lon="-0.14946">
        <ele>99.8</ele>
        <time>2024-04-07T13:08:42Z</time>
      </trkpt>
      <trkpt lat="49.2844" lon="-0.14935">
        <ele>99.8</ele>
        <time>2024-04-07T13:08:43Z</time>
      </trkpt>
      <trkpt lat="49.28441" lon="-0.14924">
        <ele>99.8</ele>
        <time>2024-04-07T13:08:44Z</time>
      </trkpt>
      <trkpt lat="49.28441" lon="-0.14913">
        <ele>99.8</ele>
        <time>2024-04-07T13:08:45Z</time>
      </trkpt>
      <trkpt lat="49.28442" lon="-0.14902">
        <ele>99.8</ele>
        <time>2024-04-07T13:08:46Z</time>
      </trkpt>
      <trkpt lat="49.28443" lon="-0.14891">
        <ele>99.8</ele>
        <time>2024-04-07T13:08:47Z</time>
      </trkpt>
      <trkpt lat="49.28443" lon="-0.1488">
        <ele>99.8</ele>
        <time>2024-04-07T13:08:48Z</time>
      </trkpt>
      <trkpt lat="49.28444" lon="-0.14869">
        <ele>99.8</ele>
        <time>2024-04-07T13:08:49Z</time>
      </trkpt>
      <trkpt lat="49.28445" lon="-0.14857">
        <ele>99.8</ele>
        <time>2024-04-07T13:08:50Z</time>
      </trkpt>
      <trkpt lat="49.28445" lon="-0.14846">
        <ele>99.8</ele>
        <time>2024-04-07T13:08:51Z</time>
      </trkpt>
      <trkpt lat="49.28446" lon="-0.14835">
        <ele>99.8</ele>
        <time>2024-04-07T13:08:52Z</time>
      </trkpt>
      <trkpt lat="49.28447" lon="-0.14823">
        <ele>99.8</ele>
        <time>2024-04-07T13:08:53Z</time>
      </trkpt>
      <trkpt lat="49.28447" lon="-0.14812">
        <ele>99.8</ele>
        <time>2024-04-07T13:08:54Z</time>
      </trkpt>
      <trkpt lat="49.28448" lon="-0.14801">
        <ele>99.8</ele>
        <time>2024-04-07T13:08:55Z</time>
      </trkpt>
      <trkpt lat="49.2845" lon="-0.1479">
        <ele>99.8</ele>
        <time>2024-04-07T13:08:56Z</time>
      </trkpt>
      <trkpt lat="49.2845" lon="-0.14779">
        <ele>99.8</ele>
        <time>2024-04-07T13:08:57Z</time>
      </trkpt>
      <trkpt lat="49.28451" lon="-0.14768">
        <ele>99.8</ele>
        <time>2024-04-07T13:08:58Z</time>
      </trkpt>
      <trkpt lat="49.28452" lon="-0.14758">
        <ele>99.8</ele>
        <time>2024-04-07T13:08:59Z</time>
      </trkpt>
      <trkpt lat="49.28452" lon="-0.14747">
        <ele>99.8</ele>
        <time>2024-04-07T13:09:00Z</time>
      </trkpt>
      <trkpt lat="49.28453" lon="-0.14736">
        <ele>99.8</ele>
        <time>2024-04-07T13:09:01Z</time>
      </trkpt>
      <trkpt lat="49.28454" lon="-0.14724">
        <ele>99.8</ele>
        <time>2024-04-07T13:09:02Z</time>
      </trkpt>
      <trkpt lat="49.28454" lon="-0.14713">
        <ele>99.8</ele>
        <time>2024-04-07T13:09:03Z</time>
      </trkpt>
      <trkpt lat="49.28455" lon="-0.14702">
        <ele>99.8</ele>
        <time>2024-04-07T13:09:04Z</time>
      </trkpt>
      <trkpt lat="49.28456" lon="-0.14691">
        <ele>99.8</ele>
        <time>2024-04-07T13:09:05Z</time>
      </trkpt>
      <trkpt lat="49.28457" lon="-0.14681">
        <ele>99.8</ele>
        <time>2024-04-07T13:09:06Z</time>
      </trkpt>
      <trkpt lat="49.28457" lon="-0.14671">
        <ele>99.8</ele>
        <time>2024-04-07T13:09:07Z</time>
      </trkpt>
      <trkpt lat="49.28457" lon="-0.1466">
        <ele>99.8</ele>
        <time>2024-04-07T13:09:08Z</time>
      </trkpt>
      <trkpt lat="49.28458" lon="-0.1465">
        <ele>99.8</ele>
        <time>2024-04-07T13:09:09Z</time>
      </trkpt>
      <trkpt lat="49.28459" lon="-0.14639">
        <ele>99.8</ele>
        <time>2024-04-07T13:09:10Z</time>
      </trkpt>
      <trkpt lat="49.28459" lon="-0.14629">
        <ele>99.8</ele>
        <time>2024-04-07T13:09:11Z</time>
      </trkpt>
      <trkpt lat="49.2846" lon="-0.14618">
        <ele>99.8</ele>
        <time>2024-04-07T13:09:12Z</time>
      </trkpt>
      <trkpt lat="49.2846" lon="-0.14608">
        <ele>99.8</ele>
        <time>2024-04-07T13:09:13Z</time>
      </trkpt>
      <trkpt lat="49.28461" lon="-0.14597">
        <ele>99.8</ele>
        <time>2024-04-07T13:09:14Z</time>
      </trkpt>
      <trkpt lat="49.28462" lon="-0.14586">
        <ele>99.8</ele>
        <time>2024-04-07T13:09:15Z</time>
      </trkpt>
      <trkpt lat="49.28463" lon="-0.14576">
        <ele>99.8</ele>
        <time>2024-04-07T13:09:16Z</time>
      </trkpt>
      <trkpt lat="49.28464" lon="-0.14566">
        <ele>99.8</ele>
        <time>2024-04-07T13:09:17Z</time>
      </trkpt>
      <trkpt lat="49.28464" lon="-0.14555">
        <ele>99.8</ele>
        <time>2024-04-07T13:09:18Z</time>
      </trkpt>
      <trkpt lat="49.28465" lon="-0.14544">
        <ele>99.8</ele>
        <time>2024-04-07T13:09:19Z</time>
      </trkpt>
      <trkpt lat="49.28467" lon="-0.14534">
        <ele>99.8</ele>
        <time>2024-04-07T13:09:20Z</time>
      </trkpt>
      <trkpt lat="49.28468" lon="-0.14524">
        <ele>99.8</ele>
        <time>2024-04-07T13:09:21Z</time>
      </trkpt>
      <trkpt lat="49.2847" lon="-0.14514">
        <ele>99.8</ele>
        <time>2024-04-07T13:09:22Z</time>
      </trkpt>
      <trkpt lat="49.28472" lon="-0.14504">
        <ele>99.8</ele>
        <time>2024-04-07T13:09:23Z</time>
      </trkpt>
      <trkpt lat="49.28474" lon="-0.14494">
        <ele>99.8</ele>
        <time>2024-04-07T13:09:24Z</time>
      </trkpt>
      <trkpt lat="49.28477" lon="-0.14484">
        <ele>99.8</ele>
        <time>2024-04-07T13:09:25Z</time>
      </trkpt>
      <trkpt lat="49.28479" lon="-0.14474">
        <ele>99.8</ele>
        <time>2024-04-07T13:09:26Z</time>
      </trkpt>
      <trkpt lat="49.28482" lon="-0.14464">
        <ele>99.8</ele>
        <time>2024-04-07T13:09:27Z</time>
      </trkpt>
      <trkpt lat="49.28485" lon="-0.14453">
        <ele>99.8</ele>
        <time>2024-04-07T13:09:28Z</time>
      </trkpt>
      <trkpt lat="49.28487" lon="-0.14443">
        <ele>99.8</ele>
        <time>2024-04-07T13:09:29Z</time>
      </trkpt>
      <trkpt lat="49.28489" lon="-0.14433">
        <ele>99.8</ele>
        <time>2024-04-07T13:09:30Z</time>
      </trkpt>
      <trkpt lat="49.28491" lon="-0.14423">
        <ele>99.8</ele>
        <time>2024-04-07T13:09:31Z</time>
      </trkpt>
      <trkpt lat="49.28493" lon="-0.14413">
        <ele>99.8</ele>
        <time>2024-04-07T13:09:32Z</time>
      </trkpt>
      <trkpt lat="49.28495" lon="-0.14403">
        <ele>99.8</ele>
        <time>2024-04-07T13:09:33Z</time>
      </trkpt>
      <trkpt lat="49.28497" lon="-0.14393">
        <ele>99.8</ele>
        <time>2024-04-07T13:09:34Z</time>
      </trkpt>
      <trkpt lat="49.28499" lon="-0.14382">
        <ele>99.8</ele>
        <time>2024-04-07T13:09:35Z</time>
      </trkpt>
      <trkpt lat="49.285" lon="-0.14372">
        <ele>99.8</ele>
        <time>2024-04-07T13:09:36Z</time>
      </trkpt>
      <trkpt lat="49.28502" lon="-0.14362">
        <ele>99.8</ele>
        <time>2024-04-07T13:09:37Z</time>
      </trkpt>
      <trkpt lat="49.28503" lon="-0.14352">
        <ele>99.8</ele>
        <time>2024-04-07T13:09:38Z</time>
      </trkpt>
      <trkpt lat="49.28505" lon="-0.14342">
        <ele>99.8</ele>
        <time>2024-04-07T13:09:39Z</time>
      </trkpt>
      <trkpt lat="49.28506" lon="-0.14332">
        <ele>99.8</ele>
        <time>2024-04-07T13:09:40Z</time>
      </trkpt>
      <trkpt lat="49.28508" lon="-0.14322">
        <ele>99.8</ele>
        <time>2024-04-07T13:09:41Z</time>
      </trkpt>
      <trkpt lat="49.28509" lon="-0.14312">
        <ele>99.8</ele>
        <time>2024-04-07T13:09:42Z</time>
      </trkpt>
      <trkpt lat="49.28511" lon="-0.14301">
        <ele>99.8</ele>
        <time>2024-04-07T13:09:43Z</time>
      </trkpt>
      <trkpt lat="49.28512" lon="-0.14291">
        <ele>99.8</ele>
        <time>2024-04-07T13:09:44Z</time>
      </trkpt>
      <trkpt lat="49.28513" lon="-0.1428">
        <ele>99.8</ele>
        <time>2024-04-07T13:09:45Z</time>
      </trkpt>
      <trkpt lat="49.28515" lon="-0.1427">
        <ele>99.8</ele>
        <time>2024-04-07T13:09:46Z</time>
      </trkpt>
      <trkpt lat="49.28516" lon="-0.1426">
        <ele>99.8</ele>
        <time>2024-04-07T13:09:47Z</time>
      </trkpt>
      <trkpt lat="49.28517" lon="-0.14249">
        <ele>99.8</ele>
        <time>2024-04-07T13:09:48Z</time>
      </trkpt>
      <trkpt lat="49.28519" lon="-0.14239">
        <ele>99.8</ele>
        <time>2024-04-07T13:09:49Z</time>
      </trkpt>
      <trkpt lat="49.2852" lon="-0.14229">
        <ele>99.8</ele>
        <time>2024-04-07T13:09:50Z</time>
      </trkpt>
      <trkpt lat="49.28522" lon="-0.14218">
        <ele>99.8</ele>
        <time>2024-04-07T13:09:51Z</time>
      </trkpt>
      <trkpt lat="49.28523" lon="-0.14208">
        <ele>99.8</ele>
        <time>2024-04-07T13:09:52Z</time>
      </trkpt>
      <trkpt lat="49.28525" lon="-0.14197">
        <ele>99.8</ele>
        <time>2024-04-07T13:09:53Z</time>
      </trkpt>
      <trkpt lat="49.28526" lon="-0.14187">
        <ele>99.8</ele>
        <time>2024-04-07T13:09:54Z</time>
      </trkpt>
      <trkpt lat="49.28528" lon="-0.14176">
        <ele>99.8</ele>
        <time>2024-04-07T13:09:55Z</time>
      </trkpt>
      <trkpt lat="49.28529" lon="-0.14166">
        <ele>99.8</ele>
        <time>2024-04-07T13:09:56Z</time>
      </trkpt>
      <trkpt lat="49.2853" lon="-0.14156">
        <ele>99.8</ele>
        <time>2024-04-07T13:09:57Z</time>
      </trkpt>
      <trkpt lat="49.28531" lon="-0.14145">
        <ele>99.8</ele>
        <time>2024-04-07T13:09:58Z</time>
      </trkpt>
      <trkpt lat="49.28532" lon="-0.14135">
        <ele>99.8</ele>
        <time>2024-04-07T13:09:59Z</time>
      </trkpt>
      <trkpt lat="49.28534" lon="-0.14124">
        <ele>99.8</ele>
        <time>2024-04-07T13:10:00Z</time>
      </trkpt>
      <trkpt lat="49.28535" lon="-0.14114">
        <ele>99.8</ele>
        <time>2024-04-07T13:10:01Z</time>
      </trkpt>
      <trkpt lat="49.28536" lon="-0.14103">
        <ele>99.8</ele>
        <time>2024-04-07T13:10:02Z</time>
      </trkpt>
      <trkpt lat="49.28538" lon="-0.14093">
        <ele>99.8</ele>
        <time>2024-04-07T13:10:03Z</time>
      </trkpt>
      <trkpt lat="49.2854" lon="-0.14083">
        <ele>99.8</ele>
        <time>2024-04-07T13:10:04Z</time>
      </trkpt>
      <trkpt lat="49.28541" lon="-0.14072">
        <ele>99.8</ele>
        <time>2024-04-07T13:10:05Z</time>
      </trkpt>
      <trkpt lat="49.28542" lon="-0.14062">
        <ele>99.8</ele>
        <time>2024-04-07T13:10:06Z</time>
      </trkpt>
      <trkpt lat="49.28542" lon="-0.14051">
        <ele>99.8</ele>
        <time>2024-04-07T13:10:07Z</time>
      </trkpt>
      <trkpt lat="49.28543" lon="-0.1404">
        <ele>99.8</ele>
        <time>2024-04-07T13:10:08Z</time>
      </trkpt>
      <trkpt lat="49.28543" lon="-0.14029">
        <ele>99.8</ele>
        <time>2024-04-07T13:10:09Z</time>
      </trkpt>
      <trkpt lat="49.28543" lon="-0.14019">
        <ele>99.8</ele>
        <time>2024-04-07T13:10:10Z</time>
      </trkpt>
      <trkpt lat="49.28543" lon="-0.14009">
        <ele>99.8</ele>
        <time>2024-04-07T13:10:11Z</time>
      </trkpt>
      <trkpt lat="49.28543" lon="-0.13998">
        <ele>99.8</ele>
        <time>2024-04-07T13:10:12Z</time>
      </trkpt>
      <trkpt lat="49.28543" lon="-0.13988">
        <ele>99.8</ele>
        <time>2024-04-07T13:10:13Z</time>
      </trkpt>
      <trkpt lat="49.28543" lon="-0.13977">
        <ele>99.8</ele>
        <time>2024-04-07T13:10:14Z</time>
      </trkpt>
      <trkpt lat="49.28544" lon="-0.13967">
        <ele>99.8</ele>
        <time>2024-04-07T13:10:15Z</time>
      </trkpt>
      <trkpt lat="49.28544" lon="-0.13957">
        <ele>99.8</ele>
        <time>2024-04-07T13:10:16Z</time>
      </trkpt>
      <trkpt lat="49.28544" lon="-0.13946">
        <ele>99.8</ele>
        <time>2024-04-07T13:10:17Z</time>
      </trkpt>
      <trkpt lat="49.28544" lon="-0.13937">
        <ele>99.8</ele>
        <time>2024-04-07T13:10:18Z</time>
      </trkpt>
      <trkpt lat="49.28545" lon="-0.13927">
        <ele>99.8</ele>
        <time>2024-04-07T13:10:19Z</time>
      </trkpt>
      <trkpt lat="49.28546" lon="-0.13917">
        <ele>99.8</ele>
        <time>2024-04-07T13:10:20Z</time>
      </trkpt>
      <trkpt lat="49.28547" lon="-0.13907">
        <ele>99.8</ele>
        <time>2024-04-07T13:10:21Z</time>
      </trkpt>
      <trkpt lat="49.28548" lon="-0.13896">
        <ele>99.8</ele>
        <time>2024-04-07T13:10:22Z</time>
      </trkpt>
      <trkpt lat="49.2855" lon="-0.13886">
        <ele>99.8</ele>
        <time>2024-04-07T13:10:23Z</time>
      </trkpt>
      <trkpt lat="49.28551" lon="-0.13875">
        <ele>99.8</ele>
        <time>2024-04-07T13:10:24Z</time>
      </trkpt>
      <trkpt lat="49.28552" lon="-0.13865">
        <ele>99.8</ele>
        <time>2024-04-07T13:10:25Z</time>
      </trkpt>
      <trkpt lat="49.28554" lon="-0.13855">
        <ele>99.8</ele>
        <time>2024-04-07T13:10:26Z</time>
      </trkpt>
      <trkpt lat="49.28555" lon="-0.13844">
        <ele>99.8</ele>
        <time>2024-04-07T13:10:27Z</time>
      </trkpt>
      <trkpt lat="49.28557" lon="-0.13834">
        <ele>99.8</ele>
        <time>2024-04-07T13:10:28Z</time>
      </trkpt>
      <trkpt lat="49.28558" lon="-0.13823">
        <ele>99.8</ele>
        <time>2024-04-07T13:10:29Z</time>
      </trkpt>
      <trkpt lat="49.2856" lon="-0.13813">
        <ele>99.8</ele>
        <time>2024-04-07T13:10:30Z</time>
      </trkpt>
      <trkpt lat="49.28561" lon="-0.13802">
        <ele>99.8</ele>
        <time>2024-04-07T13:10:31Z</time>
      </trkpt>
      <trkpt lat="49.28563" lon="-0.13791">
        <ele>99.8</ele>
        <time>2024-04-07T13:10:32Z</time>
      </trkpt>
      <trkpt lat="49.28564" lon="-0.1378">
        <ele>99.8</ele>
        <time>2024-04-07T13:10:33Z</time>
      </trkpt>
      <trkpt lat="49.28566" lon="-0.13769">
        <ele>99.8</ele>
        <time>2024-04-07T13:10:34Z</time>
      </trkpt>
      <trkpt lat="49.28567" lon="-0.13758">
        <ele>99.8</ele>
        <time>2024-04-07T13:10:35Z</time>
      </trkpt>
      <trkpt lat="49.28569" lon="-0.13747">
        <ele>99.8</ele>
        <time>2024-04-07T13:10:36Z</time>
      </trkpt>
      <trkpt lat="49.2857" lon="-0.13737">
        <ele>99.8</ele>
        <time>2024-04-07T13:10:37Z</time>
      </trkpt>
      <trkpt lat="49.28572" lon="-0.13726">
        <ele>99.8</ele>
        <time>2024-04-07T13:10:38Z</time>
      </trkpt>
      <trkpt lat="49.28573" lon="-0.13715">
        <ele>99.8</ele>
        <time>2024-04-07T13:10:39Z</time>
      </trkpt>
      <trkpt lat="49.28574" lon="-0.13704">
        <ele>99.8</ele>
        <time>2024-04-07T13:10:40Z</time>
      </trkpt>
      <trkpt lat="49.28576" lon="-0.13693">
        <ele>99.8</ele>
        <time>2024-04-07T13:10:41Z</time>
      </trkpt>
      <trkpt lat="49.28577" lon="-0.13683">
        <ele>99.8</ele>
        <time>2024-04-07T13:10:42Z</time>
      </trkpt>
      <trkpt lat="49.28579" lon="-0.13672">
        <ele>99.8</ele>
        <time>2024-04-07T13:10:43Z</time>
      </trkpt>
      <trkpt lat="49.2858" lon="-0.13661">
        <ele>99.8</ele>
        <time>2024-04-07T13:10:44Z</time>
      </trkpt>
      <trkpt lat="49.28581" lon="-0.1365">
        <ele>99.8</ele>
        <time>2024-04-07T13:10:45Z</time>
      </trkpt>
      <trkpt lat="49.28583" lon="-0.1364">
        <ele>99.8</ele>
        <time>2024-04-07T13:10:46Z</time>
      </trkpt>
      <trkpt lat="49.28584" lon="-0.13629">
        <ele>99.8</ele>
        <time>2024-04-07T13:10:47Z</time>
      </trkpt>
      <trkpt lat="49.28585" lon="-0.13618">
        <ele>99.8</ele>
        <time>2024-04-07T13:10:48Z</time>
      </trkpt>
      <trkpt lat="49.28586" lon="-0.13607">
        <ele>99.8</ele>
        <time>2024-04-07T13:10:49Z</time>
      </trkpt>
      <trkpt lat="49.28587" lon="-0.13596">
        <ele>99.8</ele>
        <time>2024-04-07T13:10:50Z</time>
      </trkpt>
      <trkpt lat="49.28589" lon="-0.13585">
        <ele>99.8</ele>
        <time>2024-04-07T13:10:51Z</time>
      </trkpt>
      <trkpt lat="49.2859" lon="-0.13574">
        <ele>100.2</ele>
        <time>2024-04-07T13:10:52Z</time>
      </trkpt>
      <trkpt lat="49.28592" lon="-0.13563">
        <ele>100.2</ele>
        <time>2024-04-07T13:10:53Z</time>
      </trkpt>
      <trkpt lat="49.28594" lon="-0.13552">
        <ele>100.2</ele>
        <time>2024-04-07T13:10:54Z</time>
      </trkpt>
      <trkpt lat="49.28595" lon="-0.13541">
        <ele>100.2</ele>
        <time>2024-04-07T13:10:55Z</time>
      </trkpt>
      <trkpt lat="49.28596" lon="-0.1353">
        <ele>100.2</ele>
        <time>2024-04-07T13:10:56Z</time>
      </trkpt>
      <trkpt lat="49.28597" lon="-0.1352">
        <ele>100.2</ele>
        <time>2024-04-07T13:10:57Z</time>
      </trkpt>
      <trkpt lat="49.28598" lon="-0.1351">
        <ele>100.2</ele>
        <time>2024-04-07T13:10:58Z</time>
      </trkpt>
      <trkpt lat="49.28599" lon="-0.135">
        <ele>100.2</ele>
        <time>2024-04-07T13:10:59Z</time>
      </trkpt>
      <trkpt lat="49.28601" lon="-0.1349">
        <ele>100.2</ele>
        <time>2024-04-07T13:11:00Z</time>
      </trkpt>
      <trkpt lat="49.28602" lon="-0.13479">
        <ele>100.2</ele>
        <time>2024-04-07T13:11:01Z</time>
      </trkpt>
      <trkpt lat="49.28603" lon="-0.13469">
        <ele>100.2</ele>
        <time>2024-04-07T13:11:02Z</time>
      </trkpt>
      <trkpt lat="49.28605" lon="-0.13459">
        <ele>100.2</ele>
        <time>2024-04-07T13:11:03Z</time>
      </trkpt>
      <trkpt lat="49.28606" lon="-0.13448">
        <ele>100.2</ele>
        <time>2024-04-07T13:11:04Z</time>
      </trkpt>
      <trkpt lat="49.28608" lon="-0.13438">
        <ele>100.2</ele>
        <time>2024-04-07T13:11:05Z</time>
      </trkpt>
      <trkpt lat="49.28609" lon="-0.13427">
        <ele>100.2</ele>
        <time>2024-04-07T13:11:06Z</time>
      </trkpt>
      <trkpt lat="49.28611" lon="-0.13416">
        <ele>100.2</ele>
        <time>2024-04-07T13:11:07Z</time>
      </trkpt>
      <trkpt lat="49.28612" lon="-0.13405">
        <ele>100.2</ele>
        <time>2024-04-07T13:11:08Z</time>
      </trkpt>
      <trkpt lat="49.28614" lon="-0.13394">
        <ele>100.2</ele>
        <time>2024-04-07T13:11:09Z</time>
      </trkpt>
      <trkpt lat="49.28615" lon="-0.13384">
        <ele>100.2</ele>
        <time>2024-04-07T13:11:10Z</time>
      </trkpt>
      <trkpt lat="49.28617" lon="-0.13372">
        <ele>100.2</ele>
        <time>2024-04-07T13:11:11Z</time>
      </trkpt>
      <trkpt lat="49.28619" lon="-0.13361">
        <ele>100.2</ele>
        <time>2024-04-07T13:11:12Z</time>
      </trkpt>
      <trkpt lat="49.2862" lon="-0.1335">
        <ele>100.2</ele>
        <time>2024-04-07T13:11:13Z</time>
      </trkpt>
      <trkpt lat="49.28622" lon="-0.13338">
        <ele>100.2</ele>
        <time>2024-04-07T13:11:14Z</time>
      </trkpt>
      <trkpt lat="49.28624" lon="-0.13327">
        <ele>100.2</ele>
        <time>2024-04-07T13:11:15Z</time>
      </trkpt>
      <trkpt lat="49.28625" lon="-0.13316">
        <ele>100.2</ele>
        <time>2024-04-07T13:11:16Z</time>
      </trkpt>
      <trkpt lat="49.28627" lon="-0.13305">
        <ele>100.2</ele>
        <time>2024-04-07T13:11:17Z</time>
      </trkpt>
      <trkpt lat="49.28628" lon="-0.13294">
        <ele>100.2</ele>
        <time>2024-04-07T13:11:18Z</time>
      </trkpt>
      <trkpt lat="49.28629" lon="-0.13283">
        <ele>100.2</ele>
        <time>2024-04-07T13:11:19Z</time>
      </trkpt>
      <trkpt lat="49.28631" lon="-0.13272">
        <ele>100.2</ele>
        <time>2024-04-07T13:11:20Z</time>
      </trkpt>
      <trkpt lat="49.28632" lon="-0.13261">
        <ele>100.2</ele>
        <time>2024-04-07T13:11:21Z</time>
      </trkpt>
      <trkpt lat="49.28633" lon="-0.1325">
        <ele>100.2</ele>
        <time>2024-04-07T13:11:22Z</time>
      </trkpt>
      <trkpt lat="49.28635" lon="-0.13239">
        <ele>100.2</ele>
        <time>2024-04-07T13:11:23Z</time>
      </trkpt>
      <trkpt lat="49.28636" lon="-0.13228">
        <ele>100.2</ele>
        <time>2024-04-07T13:11:24Z</time>
      </trkpt>
      <trkpt lat="49.28638" lon="-0.13216">
        <ele>100.2</ele>
        <time>2024-04-07T13:11:25Z</time>
      </trkpt>
      <trkpt lat="49.2864" lon="-0.13205">
        <ele>100.2</ele>
        <time>2024-04-07T13:11:26Z</time>
      </trkpt>
      <trkpt lat="49.28641" lon="-0.13194">
        <ele>100.2</ele>
        <time>2024-04-07T13:11:27Z</time>
      </trkpt>
      <trkpt lat="49.28643" lon="-0.13183">
        <ele>100.2</ele>
        <time>2024-04-07T13:11:28Z</time>
      </trkpt>
      <trkpt lat="49.28644" lon="-0.13171">
        <ele>100.2</ele>
        <time>2024-04-07T13:11:29Z</time>
      </trkpt>
      <trkpt lat="49.28646" lon="-0.1316">
        <ele>100.2</ele>
        <time>2024-04-07T13:11:30Z</time>
      </trkpt>
      <trkpt lat="49.28648" lon="-0.13149">
        <ele>100.2</ele>
        <time>2024-04-07T13:11:31Z</time>
      </trkpt>
      <trkpt lat="49.28649" lon="-0.13138">
        <ele>100.2</ele>
        <time>2024-04-07T13:11:32Z</time>
      </trkpt>
      <trkpt lat="49.2865" lon="-0.13127">
        <ele>100.2</ele>
        <time>2024-04-07T13:11:33Z</time>
      </trkpt>
      <trkpt lat="49.28652" lon="-0.13115">
        <ele>100.2</ele>
        <time>2024-04-07T13:11:34Z</time>
      </trkpt>
      <trkpt lat="49.28653" lon="-0.13104">
        <ele>100.2</ele>
        <time>2024-04-07T13:11:35Z</time>
      </trkpt>
      <trkpt lat="49.28654" lon="-0.13093">
        <ele>100.2</ele>
        <time>2024-04-07T13:11:36Z</time>
      </trkpt>
      <trkpt lat="49.28656" lon="-0.13081">
        <ele>100.2</ele>
        <time>2024-04-07T13:11:37Z</time>
      </trkpt>
      <trkpt lat="49.28657" lon="-0.1307">
        <ele>100.2</ele>
        <time>2024-04-07T13:11:38Z</time>
      </trkpt>
      <trkpt lat="49.28658" lon="-0.13058">
        <ele>100.2</ele>
        <time>2024-04-07T13:11:39Z</time>
      </trkpt>
      <trkpt lat="49.2866" lon="-0.13046">
        <ele>100.2</ele>
        <time>2024-04-07T13:11:40Z</time>
      </trkpt>
      <trkpt lat="49.28661" lon="-0.13034">
        <ele>100.2</ele>
        <time>2024-04-07T13:11:41Z</time>
      </trkpt>
      <trkpt lat="49.28663" lon="-0.13022">
        <ele>100.2</ele>
        <time>2024-04-07T13:11:42Z</time>
      </trkpt>
      <trkpt lat="49.28664" lon="-0.1301">
        <ele>100.2</ele>
        <time>2024-04-07T13:11:43Z</time>
      </trkpt>
      <trkpt lat="49.28666" lon="-0.12998">
        <ele>100.2</ele>
        <time>2024-04-07T13:11:44Z</time>
      </trkpt>
      <trkpt lat="49.28667" lon="-0.12986">
        <ele>100.2</ele>
        <time>2024-04-07T13:11:45Z</time>
      </trkpt>
      <trkpt lat="49.28669" lon="-0.12975">
        <ele>100.2</ele>
        <time>2024-04-07T13:11:46Z</time>
      </trkpt>
      <trkpt lat="49.2867" lon="-0.12963">
        <ele>100.2</ele>
        <time>2024-04-07T13:11:47Z</time>
      </trkpt>
      <trkpt lat="49.28671" lon="-0.12952">
        <ele>100.2</ele>
        <time>2024-04-07T13:11:48Z</time>
      </trkpt>
      <trkpt lat="49.28673" lon="-0.12941">
        <ele>100.2</ele>
        <time>2024-04-07T13:11:49Z</time>
      </trkpt>
      <trkpt lat="49.28674" lon="-0.12929">
        <ele>100.2</ele>
        <time>2024-04-07T13:11:50Z</time>
      </trkpt>
      <trkpt lat="49.28675" lon="-0.12918">
        <ele>100.2</ele>
        <time>2024-04-07T13:11:51Z</time>
      </trkpt>
      <trkpt lat="49.28677" lon="-0.12906">
        <ele>100</ele>
        <time>2024-04-07T13:11:52Z</time>
      </trkpt>
      <trkpt lat="49.28678" lon="-0.12895">
        <ele>100</ele>
        <time>2024-04-07T13:11:53Z</time>
      </trkpt>
      <trkpt lat="49.2868" lon="-0.12884">
        <ele>100</ele>
        <time>2024-04-07T13:11:54Z</time>
      </trkpt>
      <trkpt lat="49.28681" lon="-0.12873">
        <ele>100</ele>
        <time>2024-04-07T13:11:55Z</time>
      </trkpt>
      <trkpt lat="49.28682" lon="-0.12862">
        <ele>100</ele>
        <time>2024-04-07T13:11:56Z</time>
      </trkpt>
      <trkpt lat="49.28684" lon="-0.12851">
        <ele>100</ele>
        <time>2024-04-07T13:11:57Z</time>
      </trkpt>
      <trkpt lat="49.28685" lon="-0.1284">
        <ele>100</ele>
        <time>2024-04-07T13:11:58Z</time>
      </trkpt>
      <trkpt lat="49.28686" lon="-0.12829">
        <ele>100</ele>
        <time>2024-04-07T13:11:59Z</time>
      </trkpt>
      <trkpt lat="49.28688" lon="-0.12818">
        <ele>100</ele>
        <time>2024-04-07T13:12:00Z</time>
      </trkpt>
      <trkpt lat="49.28689" lon="-0.12808">
        <ele>100</ele>
        <time>2024-04-07T13:12:01Z</time>
      </trkpt>
      <trkpt lat="49.28691" lon="-0.12797">
        <ele>100</ele>
        <time>2024-04-07T13:12:02Z</time>
      </trkpt>
      <trkpt lat="49.28692" lon="-0.12786">
        <ele>100</ele>
        <time>2024-04-07T13:12:03Z</time>
      </trkpt>
      <trkpt lat="49.28694" lon="-0.12775">
        <ele>100</ele>
        <time>2024-04-07T13:12:04Z</time>
      </trkpt>
      <trkpt lat="49.28695" lon="-0.12764">
        <ele>100</ele>
        <time>2024-04-07T13:12:05Z</time>
      </trkpt>
      <trkpt lat="49.28697" lon="-0.12753">
        <ele>100</ele>
        <time>2024-04-07T13:12:06Z</time>
      </trkpt>
      <trkpt lat="49.28699" lon="-0.12742">
        <ele>100</ele>
        <time>2024-04-07T13:12:07Z</time>
      </trkpt>
      <trkpt lat="49.287" lon="-0.12731">
        <ele>100</ele>
        <time>2024-04-07T13:12:08Z</time>
      </trkpt>
      <trkpt lat="49.28701" lon="-0.12721">
        <ele>100</ele>
        <time>2024-04-07T13:12:09Z</time>
      </trkpt>
      <trkpt lat="49.28703" lon="-0.12711">
        <ele>100</ele>
        <time>2024-04-07T13:12:10Z</time>
      </trkpt>
      <trkpt lat="49.28704" lon="-0.12701">
        <ele>100</ele>
        <time>2024-04-07T13:12:11Z</time>
      </trkpt>
      <trkpt lat="49.28706" lon="-0.12691">
        <ele>100</ele>
        <time>2024-04-07T13:12:12Z</time>
      </trkpt>
      <trkpt lat="49.28707" lon="-0.12681">
        <ele>100</ele>
        <time>2024-04-07T13:12:13Z</time>
      </trkpt>
      <trkpt lat="49.28708" lon="-0.12672">
        <ele>100</ele>
        <time>2024-04-07T13:12:14Z</time>
      </trkpt>
      <trkpt lat="49.28709" lon="-0.12662">
        <ele>100</ele>
        <time>2024-04-07T13:12:15Z</time>
      </trkpt>
      <trkpt lat="49.28711" lon="-0.12652">
        <ele>100</ele>
        <time>2024-04-07T13:12:16Z</time>
      </trkpt>
      <trkpt lat="49.28712" lon="-0.12643">
        <ele>100</ele>
        <time>2024-04-07T13:12:17Z</time>
      </trkpt>
      <trkpt lat="49.28713" lon="-0.12633">
        <ele>100</ele>
        <time>2024-04-07T13:12:18Z</time>
      </trkpt>
      <trkpt lat="49.28712" lon="-0.12624">
        <ele>100</ele>
        <time>2024-04-07T13:12:19Z</time>
      </trkpt>
      <trkpt lat="49.28709" lon="-0.12616">
        <ele>100</ele>
        <time>2024-04-07T13:12:20Z</time>
      </trkpt>
      <trkpt lat="49.28704" lon="-0.12609">
        <ele>100</ele>
        <time>2024-04-07T13:12:21Z</time>
      </trkpt>
      <trkpt lat="49.28699" lon="-0.12606">
        <ele>100</ele>
        <time>2024-04-07T13:12:22Z</time>
      </trkpt>
      <trkpt lat="49.28693" lon="-0.12603">
        <ele>100</ele>
        <time>2024-04-07T13:12:23Z</time>
      </trkpt>
      <trkpt lat="49.28686" lon="-0.12601">
        <ele>100</ele>
        <time>2024-04-07T13:12:24Z</time>
      </trkpt>
      <trkpt lat="49.28679" lon="-0.12599">
        <ele>100</ele>
        <time>2024-04-07T13:12:25Z</time>
      </trkpt>
      <trkpt lat="49.28673" lon="-0.12597">
        <ele>100</ele>
        <time>2024-04-07T13:12:26Z</time>
      </trkpt>
      <trkpt lat="49.28666" lon="-0.12595">
        <ele>100</ele>
        <time>2024-04-07T13:12:27Z</time>
      </trkpt>
      <trkpt lat="49.28659" lon="-0.12593">
        <ele>100</ele>
        <time>2024-04-07T13:12:28Z</time>
      </trkpt>
      <trkpt lat="49.28652" lon="-0.12591">
        <ele>100</ele>
        <time>2024-04-07T13:12:29Z</time>
      </trkpt>
      <trkpt lat="49.28646" lon="-0.1259">
        <ele>100</ele>
        <time>2024-04-07T13:12:30Z</time>
      </trkpt>
      <trkpt lat="49.28639" lon="-0.12588">
        <ele>100</ele>
        <time>2024-04-07T13:12:31Z</time>
      </trkpt>
      <trkpt lat="49.28632" lon="-0.12586">
        <ele>100</ele>
        <time>2024-04-07T13:12:32Z</time>
      </trkpt>
      <trkpt lat="49.28625" lon="-0.12585">
        <ele>100</ele>
        <time>2024-04-07T13:12:33Z</time>
      </trkpt>
      <trkpt lat="49.28619" lon="-0.12583">
        <ele>100</ele>
        <time>2024-04-07T13:12:34Z</time>
      </trkpt>
      <trkpt lat="49.28612" lon="-0.12581">
        <ele>100</ele>
        <time>2024-04-07T13:12:35Z</time>
      </trkpt>
      <trkpt lat="49.28605" lon="-0.1258">
        <ele>100</ele>
        <time>2024-04-07T13:12:36Z</time>
      </trkpt>
      <trkpt lat="49.28598" lon="-0.12578">
        <ele>100</ele>
        <time>2024-04-07T13:12:37Z</time>
      </trkpt>
      <trkpt lat="49.28591" lon="-0.12577">
        <ele>100</ele>
        <time>2024-04-07T13:12:38Z</time>
      </trkpt>
      <trkpt lat="49.28584" lon="-0.12575">
        <ele>100</ele>
        <time>2024-04-07T13:12:39Z</time>
      </trkpt>
      <trkpt lat="49.28577" lon="-0.12573">
        <ele>100</ele>
        <time>2024-04-07T13:12:40Z</time>
      </trkpt>
      <trkpt lat="49.28571" lon="-0.12572">
        <ele>100</ele>
        <time>2024-04-07T13:12:41Z</time>
      </trkpt>
      <trkpt lat="49.28564" lon="-0.1257">
        <ele>100</ele>
        <time>2024-04-07T13:12:42Z</time>
      </trkpt>
      <trkpt lat="49.28558" lon="-0.12569">
        <ele>100</ele>
        <time>2024-04-07T13:12:43Z</time>
      </trkpt>
      <trkpt lat="49.28552" lon="-0.12569">
        <ele>100</ele>
        <time>2024-04-07T13:12:44Z</time>
      </trkpt>
      <trkpt lat="49.28546" lon="-0.12571">
        <ele>100</ele>
        <time>2024-04-07T13:12:45Z</time>
      </trkpt>
      <trkpt lat="49.2854" lon="-0.12573">
        <ele>100</ele>
        <time>2024-04-07T13:12:46Z</time>
      </trkpt>
      <trkpt lat="49.28534" lon="-0.12575">
        <ele>100</ele>
        <time>2024-04-07T13:12:47Z</time>
      </trkpt>
      <trkpt lat="49.28529" lon="-0.12574">
        <ele>100</ele>
        <time>2024-04-07T13:12:48Z</time>
      </trkpt>
      <trkpt lat="49.28524" lon="-0.12572">
        <ele>100</ele>
        <time>2024-04-07T13:12:49Z</time>
      </trkpt>
      <trkpt lat="49.2852" lon="-0.12565">
        <ele>100</ele>
        <time>2024-04-07T13:12:50Z</time>
      </trkpt>
      <trkpt lat="49.28519" lon="-0.12555">
        <ele>100</ele>
        <time>2024-04-07T13:12:51Z</time>
      </trkpt>
      <trkpt lat="49.2852" lon="-0.12546">
        <ele>100.2</ele>
        <time>2024-04-07T13:12:52Z</time>
      </trkpt>
      <trkpt lat="49.28523" lon="-0.12537">
        <ele>100.2</ele>
        <time>2024-04-07T13:12:53Z</time>
      </trkpt>
      <trkpt lat="49.28527" lon="-0.12529">
        <ele>100.2</ele>
        <time>2024-04-07T13:12:54Z</time>
      </trkpt>
      <trkpt lat="49.28531" lon="-0.12522">
        <ele>100.2</ele>
        <time>2024-04-07T13:12:55Z</time>
      </trkpt>
      <trkpt lat="49.28536" lon="-0.12515">
        <ele>100.2</ele>
        <time>2024-04-07T13:12:56Z</time>
      </trkpt>
      <trkpt lat="49.2854" lon="-0.12507">
        <ele>100.2</ele>
        <time>2024-04-07T13:12:57Z</time>
      </trkpt>
      <trkpt lat="49.28543" lon="-0.12498">
        <ele>100.2</ele>
        <time>2024-04-07T13:12:58Z</time>
      </trkpt>
      <trkpt lat="49.28545" lon="-0.12489">
        <ele>100.2</ele>
        <time>2024-04-07T13:12:59Z</time>
      </trkpt>
      <trkpt lat="49.28547" lon="-0.12479">
        <ele>100.2</ele>
        <time>2024-04-07T13:13:00Z</time>
      </trkpt>
      <trkpt lat="49.28548" lon="-0.12469">
        <ele>100.2</ele>
        <time>2024-04-07T13:13:01Z</time>
      </trkpt>
      <trkpt lat="49.2855" lon="-0.12459">
        <ele>100.2</ele>
        <time>2024-04-07T13:13:02Z</time>
      </trkpt>
      <trkpt lat="49.28552" lon="-0.12449">
        <ele>100.2</ele>
        <time>2024-04-07T13:13:03Z</time>
      </trkpt>
      <trkpt lat="49.28553" lon="-0.12439">
        <ele>100.2</ele>
        <time>2024-04-07T13:13:04Z</time>
      </trkpt>
      <trkpt lat="49.28555" lon="-0.12429">
        <ele>100.2</ele>
        <time>2024-04-07T13:13:05Z</time>
      </trkpt>
      <trkpt lat="49.28557" lon="-0.12419">
        <ele>100.2</ele>
        <time>2024-04-07T13:13:06Z</time>
      </trkpt>
      <trkpt lat="49.28559" lon="-0.12409">
        <ele>100.2</ele>
        <time>2024-04-07T13:13:07Z</time>
      </trkpt>
      <trkpt lat="49.28561" lon="-0.12399">
        <ele>100.2</ele>
        <time>2024-04-07T13:13:08Z</time>
      </trkpt>
      <trkpt lat="49.28564" lon="-0.12388">
        <ele>100.2</ele>
        <time>2024-04-07T13:13:09Z</time>
      </trkpt>
      <trkpt lat="49.28566" lon="-0.12377">
        <ele>100.2</ele>
        <time>2024-04-07T13:13:10Z</time>
      </trkpt>
      <trkpt lat="49.28568" lon="-0.12367">
        <ele>100.2</ele>
        <time>2024-04-07T13:13:11Z</time>
      </trkpt>
      <trkpt lat="49.2857" lon="-0.12356">
        <ele>100.2</ele>
        <time>2024-04-07T13:13:12Z</time>
      </trkpt>
      <trkpt lat="49.28572" lon="-0.12346">
        <ele>100.2</ele>
        <time>2024-04-07T13:13:13Z</time>
      </trkpt>
      <trkpt lat="49.28574" lon="-0.12335">
        <ele>100.2</ele>
        <time>2024-04-07T13:13:14Z</time>
      </trkpt>
      <trkpt lat="49.28576" lon="-0.12324">
        <ele>100.2</ele>
        <time>2024-04-07T13:13:15Z</time>
      </trkpt>
      <trkpt lat="49.28578" lon="-0.12313">
        <ele>100.2</ele>
        <time>2024-04-07T13:13:16Z</time>
      </trkpt>
      <trkpt lat="49.2858" lon="-0.12303">
        <ele>100.2</ele>
        <time>2024-04-07T13:13:17Z</time>
      </trkpt>
      <trkpt lat="49.28582" lon="-0.12292">
        <ele>100.2</ele>
        <time>2024-04-07T13:13:18Z</time>
      </trkpt>
      <trkpt lat="49.28585" lon="-0.1228">
        <ele>100.2</ele>
        <time>2024-04-07T13:13:19Z</time>
      </trkpt>
      <trkpt lat="49.28587" lon="-0.12269">
        <ele>100.2</ele>
        <time>2024-04-07T13:13:20Z</time>
      </trkpt>
      <trkpt lat="49.28589" lon="-0.12258">
        <ele>100.2</ele>
        <time>2024-04-07T13:13:21Z</time>
      </trkpt>
      <trkpt lat="49.28591" lon="-0.12247">
        <ele>100.2</ele>
        <time>2024-04-07T13:13:22Z</time>
      </trkpt>
      <trkpt lat="49.28593" lon="-0.12236">
        <ele>100.2</ele>
        <time>2024-04-07T13:13:23Z</time>
      </trkpt>
      <trkpt lat="49.28595" lon="-0.12225">
        <ele>100.2</ele>
        <time>2024-04-07T13:13:24Z</time>
      </trkpt>
      <trkpt lat="49.28597" lon="-0.12214">
        <ele>100.2</ele>
        <time>2024-04-07T13:13:25Z</time>
      </trkpt>
      <trkpt lat="49.286" lon="-0.12203">
        <ele>100.2</ele>
        <time>2024-04-07T13:13:26Z</time>
      </trkpt>
      <trkpt lat="49.28602" lon="-0.12193">
        <ele>100.2</ele>
        <time>2024-04-07T13:13:27Z</time>
      </trkpt>
      <trkpt lat="49.28604" lon="-0.12182">
        <ele>100.2</ele>
        <time>2024-04-07T13:13:28Z</time>
      </trkpt>
      <trkpt lat="49.28606" lon="-0.12171">
        <ele>100.2</ele>
        <time>2024-04-07T13:13:29Z</time>
      </trkpt>
      <trkpt lat="49.28609" lon="-0.1216">
        <ele>100.2</ele>
        <time>2024-04-07T13:13:30Z</time>
      </trkpt>
      <trkpt lat="49.28611" lon="-0.12149">
        <ele>100.2</ele>
        <time>2024-04-07T13:13:31Z</time>
      </trkpt>
      <trkpt lat="49.28613" lon="-0.12138">
        <ele>100.2</ele>
        <time>2024-04-07T13:13:32Z</time>
      </trkpt>
      <trkpt lat="49.28615" lon="-0.12128">
        <ele>100.2</ele>
        <time>2024-04-07T13:13:33Z</time>
      </trkpt>
      <trkpt lat="49.28617" lon="-0.12117">
        <ele>100.2</ele>
        <time>2024-04-07T13:13:34Z</time>
      </trkpt>
      <trkpt lat="49.28619" lon="-0.12106">
        <ele>100.2</ele>
        <time>2024-04-07T13:13:35Z</time>
      </trkpt>
      <trkpt lat="49.28621" lon="-0.12095">
        <ele>100.2</ele>
        <time>2024-04-07T13:13:36Z</time>
      </trkpt>
      <trkpt lat="49.28623" lon="-0.12084">
        <ele>100.2</ele>
        <time>2024-04-07T13:13:37Z</time>
      </trkpt>
      <trkpt lat="49.28626" lon="-0.12073">
        <ele>100.2</ele>
        <time>2024-04-07T13:13:38Z</time>
      </trkpt>
      <trkpt lat="49.28628" lon="-0.12062">
        <ele>100.2</ele>
        <time>2024-04-07T13:13:39Z</time>
      </trkpt>
      <trkpt lat="49.2863" lon="-0.12051">
        <ele>100.2</ele>
        <time>2024-04-07T13:13:40Z</time>
      </trkpt>
      <trkpt lat="49.28632" lon="-0.12041">
        <ele>100.2</ele>
        <time>2024-04-07T13:13:41Z</time>
      </trkpt>
      <trkpt lat="49.28635" lon="-0.1203">
        <ele>100.2</ele>
        <time>2024-04-07T13:13:42Z</time>
      </trkpt>
      <trkpt lat="49.28637" lon="-0.1202">
        <ele>100.2</ele>
        <time>2024-04-07T13:13:43Z</time>
      </trkpt>
      <trkpt lat="49.28639" lon="-0.1201">
        <ele>100.2</ele>
        <time>2024-04-07T13:13:44Z</time>
      </trkpt>
      <trkpt lat="49.28641" lon="-0.12">
        <ele>100.2</ele>
        <time>2024-04-07T13:13:45Z</time>
      </trkpt>
      <trkpt lat="49.28643" lon="-0.1199">
        <ele>100.2</ele>
        <time>2024-04-07T13:13:46Z</time>
      </trkpt>
      <trkpt lat="49.28645" lon="-0.1198">
        <ele>100.2</ele>
        <time>2024-04-07T13:13:47Z</time>
      </trkpt>
      <trkpt lat="49.28647" lon="-0.1197">
        <ele>100.2</ele>
        <time>2024-04-07T13:13:48Z</time>
      </trkpt>
      <trkpt lat="49.28649" lon="-0.1196">
        <ele>100.2</ele>
        <time>2024-04-07T13:13:49Z</time>
      </trkpt>
      <trkpt lat="49.28651" lon="-0.1195">
        <ele>100.2</ele>
        <time>2024-04-07T13:13:50Z</time>
      </trkpt>
      <trkpt lat="49.28653" lon="-0.1194">
        <ele>100.2</ele>
        <time>2024-04-07T13:13:51Z</time>
      </trkpt>
      <trkpt lat="49.28655" lon="-0.11929">
        <ele>100.2</ele>
        <time>2024-04-07T13:13:52Z</time>
      </trkpt>
      <trkpt lat="49.28657" lon="-0.11919">
        <ele>100.2</ele>
        <time>2024-04-07T13:13:53Z</time>
      </trkpt>
      <trkpt lat="49.28659" lon="-0.11908">
        <ele>100.2</ele>
        <time>2024-04-07T13:13:54Z</time>
      </trkpt>
      <trkpt lat="49.28661" lon="-0.11898">
        <ele>100.2</ele>
        <time>2024-04-07T13:13:55Z</time>
      </trkpt>
      <trkpt lat="49.28663" lon="-0.11888">
        <ele>100.2</ele>
        <time>2024-04-07T13:13:56Z</time>
      </trkpt>
      <trkpt lat="49.28666" lon="-0.11878">
        <ele>100.2</ele>
        <time>2024-04-07T13:13:57Z</time>
      </trkpt>
      <trkpt lat="49.28668" lon="-0.11867">
        <ele>100.2</ele>
        <time>2024-04-07T13:13:58Z</time>
      </trkpt>
      <trkpt lat="49.2867" lon="-0.11857">
        <ele>100.2</ele>
        <time>2024-04-07T13:13:59Z</time>
      </trkpt>
      <trkpt lat="49.28672" lon="-0.11847">
        <ele>100.2</ele>
        <time>2024-04-07T13:14:00Z</time>
      </trkpt>
      <trkpt lat="49.28673" lon="-0.11837">
        <ele>100.2</ele>
        <time>2024-04-07T13:14:01Z</time>
      </trkpt>
      <trkpt lat="49.28675" lon="-0.11827">
        <ele>100.2</ele>
        <time>2024-04-07T13:14:02Z</time>
      </trkpt>
      <trkpt lat="49.28677" lon="-0.11817">
        <ele>100.2</ele>
        <time>2024-04-07T13:14:03Z</time>
      </trkpt>
      <trkpt lat="49.28678" lon="-0.11808">
        <ele>100.2</ele>
        <time>2024-04-07T13:14:04Z</time>
      </trkpt>
      <trkpt lat="49.28679" lon="-0.11798">
        <ele>100.2</ele>
        <time>2024-04-07T13:14:05Z</time>
      </trkpt>
      <trkpt lat="49.28679" lon="-0.11789">
        <ele>100.2</ele>
        <time>2024-04-07T13:14:06Z</time>
      </trkpt>
      <trkpt lat="49.2868" lon="-0.1178">
        <ele>100.2</ele>
        <time>2024-04-07T13:14:07Z</time>
      </trkpt>
      <trkpt lat="49.2868" lon="-0.1177">
        <ele>100.2</ele>
        <time>2024-04-07T13:14:08Z</time>
      </trkpt>
      <trkpt lat="49.28681" lon="-0.11761">
        <ele>100.2</ele>
        <time>2024-04-07T13:14:09Z</time>
      </trkpt>
      <trkpt lat="49.28682" lon="-0.11753">
        <ele>100.2</ele>
        <time>2024-04-07T13:14:10Z</time>
      </trkpt>
      <trkpt lat="49.28682" lon="-0.11744">
        <ele>100.2</ele>
        <time>2024-04-07T13:14:11Z</time>
      </trkpt>
      <trkpt lat="49.28683" lon="-0.11737">
        <ele>100.2</ele>
        <time>2024-04-07T13:14:12Z</time>
      </trkpt>
      <trkpt lat="49.28683" lon="-0.11731">
        <ele>100.2</ele>
        <time>2024-04-07T13:14:13Z</time>
      </trkpt>
      <trkpt lat="49.28683" lon="-0.11726">
        <ele>100.2</ele>
        <time>2024-04-07T13:14:14Z</time>
      </trkpt>
      <trkpt lat="49.28683" lon="-0.11723">
        <ele>100.2</ele>
        <time>2024-04-07T13:14:15Z</time>
      </trkpt>
      <trkpt lat="49.28683" lon="-0.11721">
        <ele>100.2</ele>
        <time>2024-04-07T13:14:16Z</time>
      </trkpt>
      <trkpt lat="49.28683" lon="-0.1172">
        <ele>100.2</ele>
        <time>2024-04-07T13:14:17Z</time>
      </trkpt>
      <trkpt lat="49.28683" lon="-0.1172">
        <ele>100.2</ele>
        <time>2024-04-07T13:14:18Z</time>
      </trkpt>
      <trkpt lat="49.28683" lon="-0.11715">
        <ele>100.2</ele>
        <time>2024-04-07T13:15:19Z</time>
      </trkpt>
      <trkpt lat="49.28683" lon="-0.11712">
        <ele>100.2</ele>
        <time>2024-04-07T13:15:20Z</time>
      </trkpt>
      <trkpt lat="49.28683" lon="-0.11709">
        <ele>100.2</ele>
        <time>2024-04-07T13:15:21Z</time>
      </trkpt>
      <trkpt lat="49.28683" lon="-0.11704">
        <ele>100.2</ele>
        <time>2024-04-07T13:15:22Z</time>
      </trkpt>
      <trkpt lat="49.28683" lon="-0.117">
        <ele>100.2</ele>
        <time>2024-04-07T13:15:23Z</time>
      </trkpt>
      <trkpt lat="49.28683" lon="-0.11695">
        <ele>100.2</ele>
        <time>2024-04-07T13:15:24Z</time>
      </trkpt>
      <trkpt lat="49.28683" lon="-0.11689">
        <ele>100.2</ele>
        <time>2024-04-07T13:15:25Z</time>
      </trkpt>
      <trkpt lat="49.28683" lon="-0.11683">
        <ele>100.2</ele>
        <time>2024-04-07T13:15:26Z</time>
      </trkpt>
      <trkpt lat="49.28683" lon="-0.11677">
        <ele>100.2</ele>
        <time>2024-04-07T13:15:27Z</time>
      </trkpt>
      <trkpt lat="49.28684" lon="-0.11671">
        <ele>100.2</ele>
        <time>2024-04-07T13:15:28Z</time>
      </trkpt>
      <trkpt lat="49.28684" lon="-0.11664">
        <ele>100.2</ele>
        <time>2024-04-07T13:15:29Z</time>
      </trkpt>
      <trkpt lat="49.28684" lon="-0.11657">
        <ele>100.2</ele>
        <time>2024-04-07T13:15:30Z</time>
      </trkpt>
      <trkpt lat="49.28685" lon="-0.1165">
        <ele>100.2</ele>
        <time>2024-04-07T13:15:31Z</time>
      </trkpt>
      <trkpt lat="49.28685" lon="-0.11642">
        <ele>100.2</ele>
        <time>2024-04-07T13:15:32Z</time>
      </trkpt>
      <trkpt lat="49.28685" lon="-0.11634">
        <ele>100.2</ele>
        <time>2024-04-07T13:15:33Z</time>
      </trkpt>
      <trkpt lat="49.28684" lon="-0.11626">
        <ele>100.2</ele>
        <time>2024-04-07T13:15:34Z</time>
      </trkpt>
      <trkpt lat="49.28684" lon="-0.11619">
        <ele>100.2</ele>
        <time>2024-04-07T13:15:35Z</time>
      </trkpt>
      <trkpt lat="49.28684" lon="-0.11611">
        <ele>100.2</ele>
        <time>2024-04-07T13:15:36Z</time>
      </trkpt>
      <trkpt lat="49.28683" lon="-0.11604">
        <ele>100.2</ele>
        <time>2024-04-07T13:15:37Z</time>
      </trkpt>
      <trkpt lat="49.28683" lon="-0.11596">
        <ele>100.2</ele>
        <time>2024-04-07T13:15:38Z</time>
      </trkpt>
      <trkpt lat="49.28682" lon="-0.11588">
        <ele>100.2</ele>
        <time>2024-04-07T13:15:39Z</time>
      </trkpt>
      <trkpt lat="49.28682" lon="-0.11579">
        <ele>100.2</ele>
        <time>2024-04-07T13:15:40Z</time>
      </trkpt>
      <trkpt lat="49.28681" lon="-0.11571">
        <ele>100.2</ele>
        <time>2024-04-07T13:15:41Z</time>
      </trkpt>
      <trkpt lat="49.2868" lon="-0.11563">
        <ele>100.2</ele>
        <time>2024-04-07T13:15:42Z</time>
      </trkpt>
      <trkpt lat="49.2868" lon="-0.11556">
        <ele>100.2</ele>
        <time>2024-04-07T13:15:43Z</time>
      </trkpt>
      <trkpt lat="49.28678" lon="-0.11548">
        <ele>100.2</ele>
        <time>2024-04-07T13:15:44Z</time>
      </trkpt>
      <trkpt lat="49.28677" lon="-0.11541">
        <ele>100.2</ele>
        <time>2024-04-07T13:15:45Z</time>
      </trkpt>
      <trkpt lat="49.28676" lon="-0.11533">
        <ele>100.2</ele>
        <time>2024-04-07T13:15:46Z</time>
      </trkpt>
      <trkpt lat="49.28674" lon="-0.11525">
        <ele>100.2</ele>
        <time>2024-04-07T13:15:47Z</time>
      </trkpt>
      <trkpt lat="49.28673" lon="-0.11516">
        <ele>100.2</ele>
        <time>2024-04-07T13:15:48Z</time>
      </trkpt>
      <trkpt lat="49.28671" lon="-0.11508">
        <ele>100.2</ele>
        <time>2024-04-07T13:15:49Z</time>
      </trkpt>
      <trkpt lat="49.28669" lon="-0.11499">
        <ele>100.2</ele>
        <time>2024-04-07T13:15:50Z</time>
      </trkpt>
      <trkpt lat="49.28666" lon="-0.11491">
        <ele>100.2</ele>
        <time>2024-04-07T13:15:51Z</time>
      </trkpt>
      <trkpt lat="49.28664" lon="-0.11482">
        <ele>100.4</ele>
        <time>2024-04-07T13:15:52Z</time>
      </trkpt>
      <trkpt lat="49.28661" lon="-0.11474">
        <ele>100.4</ele>
        <time>2024-04-07T13:15:53Z</time>
      </trkpt>
      <trkpt lat="49.28658" lon="-0.11465">
        <ele>100.4</ele>
        <time>2024-04-07T13:15:54Z</time>
      </trkpt>
      <trkpt lat="49.28655" lon="-0.11456">
        <ele>100.4</ele>
        <time>2024-04-07T13:15:55Z</time>
      </trkpt>
      <trkpt lat="49.28653" lon="-0.11447">
        <ele>100.4</ele>
        <time>2024-04-07T13:15:56Z</time>
      </trkpt>
      <trkpt lat="49.2865" lon="-0.11438">
        <ele>100.4</ele>
        <time>2024-04-07T13:15:57Z</time>
      </trkpt>
      <trkpt lat="49.28648" lon="-0.11428">
        <ele>100.4</ele>
        <time>2024-04-07T13:15:58Z</time>
      </trkpt>
      <trkpt lat="49.28645" lon="-0.11419">
        <ele>100.4</ele>
        <time>2024-04-07T13:15:59Z</time>
      </trkpt>
      <trkpt lat="49.28643" lon="-0.1141">
        <ele>100.4</ele>
        <time>2024-04-07T13:16:00Z</time>
      </trkpt>
      <trkpt lat="49.2864" lon="-0.11401">
        <ele>100.4</ele>
        <time>2024-04-07T13:16:01Z</time>
      </trkpt>
      <trkpt lat="49.28637" lon="-0.11393">
        <ele>100.4</ele>
        <time>2024-04-07T13:16:02Z</time>
      </trkpt>
      <trkpt lat="49.28635" lon="-0.11384">
        <ele>100.4</ele>
        <time>2024-04-07T13:16:03Z</time>
      </trkpt>
      <trkpt lat="49.28632" lon="-0.11376">
        <ele>100.4</ele>
        <time>2024-04-07T13:16:04Z</time>
      </trkpt>
      <trkpt lat="49.2863" lon="-0.11367">
        <ele>100.4</ele>
        <time>2024-04-07T13:16:05Z</time>
      </trkpt>
      <trkpt lat="49.28627" lon="-0.11359">
        <ele>100.4</ele>
        <time>2024-04-07T13:16:06Z</time>
      </trkpt>
      <trkpt lat="49.28625" lon="-0.1135">
        <ele>100.4</ele>
        <time>2024-04-07T13:16:07Z</time>
      </trkpt>
      <trkpt lat="49.28623" lon="-0.11341">
        <ele>100.4</ele>
        <time>2024-04-07T13:16:08Z</time>
      </trkpt>
      <trkpt lat="49.28621" lon="-0.11332">
        <ele>100.4</ele>
        <time>2024-04-07T13:16:09Z</time>
      </trkpt>
      <trkpt lat="49.28619" lon="-0.11324">
        <ele>100.4</ele>
        <time>2024-04-07T13:16:10Z</time>
      </trkpt>
      <trkpt lat="49.28617" lon="-0.11316">
        <ele>100.4</ele>
        <time>2024-04-07T13:16:11Z</time>
      </trkpt>
      <trkpt lat="49.28615" lon="-0.11307">
        <ele>100.4</ele>
        <time>2024-04-07T13:16:12Z</time>
      </trkpt>
      <trkpt lat="49.28613" lon="-0.11299">
        <ele>100.4</ele>
        <time>2024-04-07T13:16:13Z</time>
      </trkpt>
      <trkpt lat="49.28611" lon="-0.1129">
        <ele>100.4</ele>
        <time>2024-04-07T13:16:14Z</time>
      </trkpt>
      <trkpt lat="49.28609" lon="-0.11282">
        <ele>100.4</ele>
        <time>2024-04-07T13:16:15Z</time>
      </trkpt>
      <trkpt lat="49.28607" lon="-0.11274">
        <ele>100.4</ele>
        <time>2024-04-07T13:16:16Z</time>
      </trkpt>
      <trkpt lat="49.28605" lon="-0.11267">
        <ele>100.4</ele>
        <time>2024-04-07T13:16:17Z</time>
      </trkpt>
      <trkpt lat="49.28602" lon="-0.1126">
        <ele>100.4</ele>
        <time>2024-04-07T13:16:18Z</time>
      </trkpt>
      <trkpt lat="49.28598" lon="-0.11253">
        <ele>100.4</ele>
        <time>2024-04-07T13:16:19Z</time>
      </trkpt>
      <trkpt lat="49.28595" lon="-0.11246">
        <ele>100.4</ele>
        <time>2024-04-07T13:16:20Z</time>
      </trkpt>
      <trkpt lat="49.28593" lon="-0.11238">
        <ele>100.4</ele>
        <time>2024-04-07T13:16:21Z</time>
      </trkpt>
      <trkpt lat="49.28592" lon="-0.1123">
        <ele>100.4</ele>
        <time>2024-04-07T13:16:22Z</time>
      </trkpt>
      <trkpt lat="49.2859" lon="-0.11222">
        <ele>100.4</ele>
        <time>2024-04-07T13:16:23Z</time>
      </trkpt>
      <trkpt lat="49.28589" lon="-0.11213">
        <ele>100.4</ele>
        <time>2024-04-07T13:16:24Z</time>
      </trkpt>
      <trkpt lat="49.28586" lon="-0.11205">
        <ele>100.4</ele>
        <time>2024-04-07T13:16:25Z</time>
      </trkpt>
      <trkpt lat="49.28584" lon="-0.11197">
        <ele>100.4</ele>
        <time>2024-04-07T13:16:26Z</time>
      </trkpt>
      <trkpt lat="49.28582" lon="-0.11189">
        <ele>100.4</ele>
        <time>2024-04-07T13:16:27Z</time>
      </trkpt>
      <trkpt lat="49.2858" lon="-0.11181">
        <ele>100.4</ele>
        <time>2024-04-07T13:16:28Z</time>
      </trkpt>
      <trkpt lat="49.28577" lon="-0.11173">
        <ele>100.4</ele>
        <time>2024-04-07T13:16:29Z</time>
      </trkpt>
      <trkpt lat="49.28576" lon="-0.11165">
        <ele>100.4</ele>
        <time>2024-04-07T13:16:30Z</time>
      </trkpt>
      <trkpt lat="49.28574" lon="-0.11157">
        <ele>100.4</ele>
        <time>2024-04-07T13:16:31Z</time>
      </trkpt>
      <trkpt lat="49.28571" lon="-0.11149">
        <ele>100.4</ele>
        <time>2024-04-07T13:16:32Z</time>
      </trkpt>
      <trkpt lat="49.28569" lon="-0.11142">
        <ele>100.4</ele>
        <time>2024-04-07T13:16:33Z</time>
      </trkpt>
      <trkpt lat="49.28567" lon="-0.11134">
        <ele>100.4</ele>
        <time>2024-04-07T13:16:34Z</time>
      </trkpt>
      <trkpt lat="49.28565" lon="-0.11126">
        <ele>100.4</ele>
        <time>2024-04-07T13:16:35Z</time>
      </trkpt>
      <trkpt lat="49.28562" lon="-0.11117">
        <ele>100.4</ele>
        <time>2024-04-07T13:16:36Z</time>
      </trkpt>
      <trkpt lat="49.2856" lon="-0.11109">
        <ele>100.4</ele>
        <time>2024-04-07T13:16:37Z</time>
      </trkpt>
      <trkpt lat="49.28557" lon="-0.111">
        <ele>100.4</ele>
        <time>2024-04-07T13:16:38Z</time>
      </trkpt>
      <trkpt lat="49.28555" lon="-0.11091">
        <ele>100.4</ele>
        <time>2024-04-07T13:16:39Z</time>
      </trkpt>
      <trkpt lat="49.28553" lon="-0.11083">
        <ele>100.4</ele>
        <time>2024-04-07T13:16:40Z</time>
      </trkpt>
      <trkpt lat="49.2855" lon="-0.11074">
        <ele>100.4</ele>
        <time>2024-04-07T13:16:41Z</time>
      </trkpt>
      <trkpt lat="49.28548" lon="-0.11065">
        <ele>100.4</ele>
        <time>2024-04-07T13:16:42Z</time>
      </trkpt>
      <trkpt lat="49.28546" lon="-0.11056">
        <ele>100.4</ele>
        <time>2024-04-07T13:16:43Z</time>
      </trkpt>
      <trkpt lat="49.28543" lon="-0.11047">
        <ele>100.4</ele>
        <time>2024-04-07T13:16:44Z</time>
      </trkpt>
      <trkpt lat="49.28541" lon="-0.11037">
        <ele>100.4</ele>
        <time>2024-04-07T13:16:45Z</time>
      </trkpt>
      <trkpt lat="49.28539" lon="-0.11028">
        <ele>100.4</ele>
        <time>2024-04-07T13:16:46Z</time>
      </trkpt>
      <trkpt lat="49.28537" lon="-0.11019">
        <ele>100.4</ele>
        <time>2024-04-07T13:16:47Z</time>
      </trkpt>
      <trkpt lat="49.28534" lon="-0.1101">
        <ele>100.4</ele>
        <time>2024-04-07T13:16:48Z</time>
      </trkpt>
      <trkpt lat="49.28533" lon="-0.11">
        <ele>100.4</ele>
        <time>2024-04-07T13:16:49Z</time>
      </trkpt>
      <trkpt lat="49.28531" lon="-0.10991">
        <ele>100.4</ele>
        <time>2024-04-07T13:16:50Z</time>
      </trkpt>
      <trkpt lat="49.28529" lon="-0.10981">
        <ele>100.4</ele>
        <time>2024-04-07T13:16:51Z</time>
      </trkpt>
      <trkpt lat="49.28527" lon="-0.10972">
        <ele>100.4</ele>
        <time>2024-04-07T13:16:52Z</time>
      </trkpt>
      <trkpt lat="49.28526" lon="-0.10963">
        <ele>100.4</ele>
        <time>2024-04-07T13:16:53Z</time>
      </trkpt>
      <trkpt lat="49.28524" lon="-0.10953">
        <ele>100.4</ele>
        <time>2024-04-07T13:16:54Z</time>
      </trkpt>
      <trkpt lat="49.28523" lon="-0.10944">
        <ele>100.4</ele>
        <time>2024-04-07T13:16:55Z</time>
      </trkpt>
      <trkpt lat="49.28522" lon="-0.10935">
        <ele>100.4</ele>
        <time>2024-04-07T13:16:56Z</time>
      </trkpt>
      <trkpt lat="49.28522" lon="-0.10925">
        <ele>100.4</ele>
        <time>2024-04-07T13:16:57Z</time>
      </trkpt>
      <trkpt lat="49.28522" lon="-0.10917">
        <ele>100.4</ele>
        <time>2024-04-07T13:16:58Z</time>
      </trkpt>
      <trkpt lat="49.28523" lon="-0.10908">
        <ele>100.4</ele>
        <time>2024-04-07T13:16:59Z</time>
      </trkpt>
      <trkpt lat="49.28523" lon="-0.10899">
        <ele>100.4</ele>
        <time>2024-04-07T13:17:00Z</time>
      </trkpt>
      <trkpt lat="49.28523" lon="-0.10891">
        <ele>100.4</ele>
        <time>2024-04-07T13:17:01Z</time>
      </trkpt>
      <trkpt lat="49.28522" lon="-0.10882">
        <ele>100.4</ele>
        <time>2024-04-07T13:17:02Z</time>
      </trkpt>
      <trkpt lat="49.28522" lon="-0.10873">
        <ele>100.4</ele>
        <time>2024-04-07T13:17:03Z</time>
      </trkpt>
      <trkpt lat="49.28522" lon="-0.10863">
        <ele>100.4</ele>
        <time>2024-04-07T13:17:04Z</time>
      </trkpt>
      <trkpt lat="49.28522" lon="-0.10854">
        <ele>100.4</ele>
        <time>2024-04-07T13:17:05Z</time>
      </trkpt>
      <trkpt lat="49.28522" lon="-0.10844">
        <ele>100.4</ele>
        <time>2024-04-07T13:17:06Z</time>
      </trkpt>
      <trkpt lat="49.28522" lon="-0.10834">
        <ele>100.4</ele>
        <time>2024-04-07T13:17:07Z</time>
      </trkpt>
      <trkpt lat="49.28521" lon="-0.10823">
        <ele>100.4</ele>
        <time>2024-04-07T13:17:08Z</time>
      </trkpt>
      <trkpt lat="49.2852" lon="-0.10813">
        <ele>100.4</ele>
        <time>2024-04-07T13:17:09Z</time>
      </trkpt>
      <trkpt lat="49.28519" lon="-0.10802">
        <ele>100.4</ele>
        <time>2024-04-07T13:17:10Z</time>
      </trkpt>
      <trkpt lat="49.28518" lon="-0.10792">
        <ele>100.4</ele>
        <time>2024-04-07T13:17:11Z</time>
      </trkpt>
      <trkpt lat="49.28518" lon="-0.10781">
        <ele>100.4</ele>
        <time>2024-04-07T13:17:12Z</time>
      </trkpt>
      <trkpt lat="49.28518" lon="-0.1077">
        <ele>100.4</ele>
        <time>2024-04-07T13:17:13Z</time>
      </trkpt>
      <trkpt lat="49.28518" lon="-0.10759">
        <ele>100.4</ele>
        <time>2024-04-07T13:17:14Z</time>
      </trkpt>
      <trkpt lat="49.28517" lon="-0.10748">
        <ele>100.4</ele>
        <time>2024-04-07T13:17:15Z</time>
      </trkpt>
      <trkpt lat="49.28516" lon="-0.10737">
        <ele>100.4</ele>
        <time>2024-04-07T13:17:16Z</time>
      </trkpt>
      <trkpt lat="49.28516" lon="-0.10725">
        <ele>100.4</ele>
        <time>2024-04-07T13:17:17Z</time>
      </trkpt>
      <trkpt lat="49.28516" lon="-0.10713">
        <ele>100.4</ele>
        <time>2024-04-07T13:17:18Z</time>
      </trkpt>
      <trkpt lat="49.28515" lon="-0.10701">
        <ele>100.4</ele>
        <time>2024-04-07T13:17:19Z</time>
      </trkpt>
      <trkpt lat="49.28515" lon="-0.10689">
        <ele>100.4</ele>
        <time>2024-04-07T13:17:20Z</time>
      </trkpt>
      <trkpt lat="49.28515" lon="-0.10677">
        <ele>100.4</ele>
        <time>2024-04-07T13:17:21Z</time>
      </trkpt>
      <trkpt lat="49.28515" lon="-0.10665">
        <ele>100.4</ele>
        <time>2024-04-07T13:17:22Z</time>
      </trkpt>
      <trkpt lat="49.28516" lon="-0.10653">
        <ele>100.4</ele>
        <time>2024-04-07T13:17:23Z</time>
      </trkpt>
      <trkpt lat="49.28516" lon="-0.10641">
        <ele>100.4</ele>
        <time>2024-04-07T13:17:24Z</time>
      </trkpt>
      <trkpt lat="49.28516" lon="-0.10629">
        <ele>100.4</ele>
        <time>2024-04-07T13:17:25Z</time>
      </trkpt>
      <trkpt lat="49.28517" lon="-0.10617">
        <ele>100.4</ele>
        <time>2024-04-07T13:17:26Z</time>
      </trkpt>
      <trkpt lat="49.28517" lon="-0.10605">
        <ele>100.4</ele>
        <time>2024-04-07T13:17:27Z</time>
      </trkpt>
      <trkpt lat="49.28518" lon="-0.10594">
        <ele>100.4</ele>
        <time>2024-04-07T13:17:28Z</time>
      </trkpt>
      <trkpt lat="49.28519" lon="-0.10582">
        <ele>100.4</ele>
        <time>2024-04-07T13:17:29Z</time>
      </trkpt>
      <trkpt lat="49.28519" lon="-0.1057">
        <ele>100.4</ele>
        <time>2024-04-07T13:17:30Z</time>
      </trkpt>
      <trkpt lat="49.2852" lon="-0.10559">
        <ele>100.4</ele>
        <time>2024-04-07T13:17:31Z</time>
      </trkpt>
      <trkpt lat="49.2852" lon="-0.10547">
        <ele>100.4</ele>
        <time>2024-04-07T13:17:32Z</time>
      </trkpt>
      <trkpt lat="49.28521" lon="-0.10536">
        <ele>100.4</ele>
        <time>2024-04-07T13:17:33Z</time>
      </trkpt>
      <trkpt lat="49.28521" lon="-0.10524">
        <ele>100.4</ele>
        <time>2024-04-07T13:17:34Z</time>
      </trkpt>
      <trkpt lat="49.28522" lon="-0.10512">
        <ele>100.4</ele>
        <time>2024-04-07T13:17:35Z</time>
      </trkpt>
      <trkpt lat="49.28522" lon="-0.10501">
        <ele>100.4</ele>
        <time>2024-04-07T13:17:36Z</time>
      </trkpt>
      <trkpt lat="49.28523" lon="-0.10489">
        <ele>100.4</ele>
        <time>2024-04-07T13:17:37Z</time>
      </trkpt>
      <trkpt lat="49.28524" lon="-0.10477">
        <ele>100.4</ele>
        <time>2024-04-07T13:17:38Z</time>
      </trkpt>
      <trkpt lat="49.28524" lon="-0.10465">
        <ele>100.4</ele>
        <time>2024-04-07T13:17:39Z</time>
      </trkpt>
      <trkpt lat="49.28525" lon="-0.10453">
        <ele>100.4</ele>
        <time>2024-04-07T13:17:40Z</time>
      </trkpt>
      <trkpt lat="49.28525" lon="-0.10441">
        <ele>100.4</ele>
        <time>2024-04-07T13:17:41Z</time>
      </trkpt>
      <trkpt lat="49.28525" lon="-0.10429">
        <ele>100.4</ele>
        <time>2024-04-07T13:17:42Z</time>
      </trkpt>
      <trkpt lat="49.28526" lon="-0.10417">
        <ele>100.4</ele>
        <time>2024-04-07T13:17:43Z</time>
      </trkpt>
      <trkpt lat="49.28527" lon="-0.10406">
        <ele>100.4</ele>
        <time>2024-04-07T13:17:44Z</time>
      </trkpt>
      <trkpt lat="49.28528" lon="-0.10394">
        <ele>100.4</ele>
        <time>2024-04-07T13:17:45Z</time>
      </trkpt>
      <trkpt lat="49.28529" lon="-0.10383">
        <ele>100.4</ele>
        <time>2024-04-07T13:17:46Z</time>
      </trkpt>
      <trkpt lat="49.2853" lon="-0.10372">
        <ele>100.4</ele>
        <time>2024-04-07T13:17:47Z</time>
      </trkpt>
      <trkpt lat="49.28531" lon="-0.1036">
        <ele>100.4</ele>
        <time>2024-04-07T13:17:48Z</time>
      </trkpt>
      <trkpt lat="49.28533" lon="-0.10348">
        <ele>100.4</ele>
        <time>2024-04-07T13:17:49Z</time>
      </trkpt>
      <trkpt lat="49.28535" lon="-0.10337">
        <ele>100.4</ele>
        <time>2024-04-07T13:17:50Z</time>
      </trkpt>
      <trkpt lat="49.28536" lon="-0.10325">
        <ele>100.4</ele>
        <time>2024-04-07T13:17:51Z</time>
      </trkpt>
      <trkpt lat="49.28538" lon="-0.10314">
        <ele>100.4</ele>
        <time>2024-04-07T13:17:52Z</time>
      </trkpt>
      <trkpt lat="49.28541" lon="-0.10303">
        <ele>100.4</ele>
        <time>2024-04-07T13:17:53Z</time>
      </trkpt>
      <trkpt lat="49.28543" lon="-0.10292">
        <ele>100.4</ele>
        <time>2024-04-07T13:17:54Z</time>
      </trkpt>
      <trkpt lat="49.28547" lon="-0.10282">
        <ele>100.4</ele>
        <time>2024-04-07T13:17:55Z</time>
      </trkpt>
      <trkpt lat="49.28549" lon="-0.10271">
        <ele>100.4</ele>
        <time>2024-04-07T13:17:56Z</time>
      </trkpt>
      <trkpt lat="49.28551" lon="-0.10262">
        <ele>100.4</ele>
        <time>2024-04-07T13:17:57Z</time>
      </trkpt>
      <trkpt lat="49.28553" lon="-0.10252">
        <ele>100.4</ele>
        <time>2024-04-07T13:17:58Z</time>
      </trkpt>
      <trkpt lat="49.28555" lon="-0.10241">
        <ele>100.4</ele>
        <time>2024-04-07T13:17:59Z</time>
      </trkpt>
      <trkpt lat="49.28557" lon="-0.10231">
        <ele>100.4</ele>
        <time>2024-04-07T13:18:00Z</time>
      </trkpt>
      <trkpt lat="49.28559" lon="-0.10221">
        <ele>100.4</ele>
        <time>2024-04-07T13:18:01Z</time>
      </trkpt>
      <trkpt lat="49.28562" lon="-0.1021">
        <ele>100.4</ele>
        <time>2024-04-07T13:18:02Z</time>
      </trkpt>
      <trkpt lat="49.28565" lon="-0.10199">
        <ele>100.4</ele>
        <time>2024-04-07T13:18:03Z</time>
      </trkpt>
      <trkpt lat="49.28568" lon="-0.10188">
        <ele>100.4</ele>
        <time>2024-04-07T13:18:04Z</time>
      </trkpt>
      <trkpt lat="49.28571" lon="-0.10177">
        <ele>100.4</ele>
        <time>2024-04-07T13:18:05Z</time>
      </trkpt>
      <trkpt lat="49.28574" lon="-0.10167">
        <ele>100.4</ele>
        <time>2024-04-07T13:18:06Z</time>
      </trkpt>
      <trkpt lat="49.28577" lon="-0.10156">
        <ele>100.4</ele>
        <time>2024-04-07T13:18:07Z</time>
      </trkpt>
      <trkpt lat="49.28581" lon="-0.10145">
        <ele>100.4</ele>
        <time>2024-04-07T13:18:08Z</time>
      </trkpt>
      <trkpt lat="49.28584" lon="-0.10134">
        <ele>100.4</ele>
        <time>2024-04-07T13:18:09Z</time>
      </trkpt>
      <trkpt lat="49.28587" lon="-0.10124">
        <ele>100.4</ele>
        <time>2024-04-07T13:18:10Z</time>
      </trkpt>
      <trkpt lat="49.2859" lon="-0.10113">
        <ele>100.4</ele>
        <time>2024-04-07T13:18:11Z</time>
      </trkpt>
      <trkpt lat="49.28593" lon="-0.10102">
        <ele>100.4</ele>
        <time>2024-04-07T13:18:12Z</time>
      </trkpt>
      <trkpt lat="49.28596" lon="-0.10091">
        <ele>100.4</ele>
        <time>2024-04-07T13:18:13Z</time>
      </trkpt>
      <trkpt lat="49.28599" lon="-0.10081">
        <ele>100.4</ele>
        <time>2024-04-07T13:18:14Z</time>
      </trkpt>
      <trkpt lat="49.28602" lon="-0.1007">
        <ele>100.4</ele>
        <time>2024-04-07T13:18:15Z</time>
      </trkpt>
      <trkpt lat="49.28605" lon="-0.1006">
        <ele>100.4</ele>
        <time>2024-04-07T13:18:16Z</time>
      </trkpt>
      <trkpt lat="49.28608" lon="-0.1005">
        <ele>100.4</ele>
        <time>2024-04-07T13:18:17Z</time>
      </trkpt>
      <trkpt lat="49.28611" lon="-0.10041">
        <ele>100.4</ele>
        <time>2024-04-07T13:18:18Z</time>
      </trkpt>
      <trkpt lat="49.28615" lon="-0.10032">
        <ele>100.4</ele>
        <time>2024-04-07T13:18:19Z</time>
      </trkpt>
      <trkpt lat="49.28618" lon="-0.10024">
        <ele>100.4</ele>
        <time>2024-04-07T13:18:20Z</time>
      </trkpt>
      <trkpt lat="49.28621" lon="-0.10016">
        <ele>100.4</ele>
        <time>2024-04-07T13:18:21Z</time>
      </trkpt>
      <trkpt lat="49.28624" lon="-0.10008">
        <ele>100.4</ele>
        <time>2024-04-07T13:18:22Z</time>
      </trkpt>
      <trkpt lat="49.28628" lon="-0.1">
        <ele>100.4</ele>
        <time>2024-04-07T13:18:23Z</time>
      </trkpt>
      <trkpt lat="49.28632" lon="-0.09991">
        <ele>100.4</ele>
        <time>2024-04-07T13:18:24Z</time>
      </trkpt>
      <trkpt lat="49.28636" lon="-0.09983">
        <ele>100.4</ele>
        <time>2024-04-07T13:18:25Z</time>
      </trkpt>
      <trkpt lat="49.28639" lon="-0.09974">
        <ele>100.4</ele>
        <time>2024-04-07T13:18:26Z</time>
      </trkpt>
      <trkpt lat="49.28644" lon="-0.09966">
        <ele>100.4</ele>
        <time>2024-04-07T13:18:27Z</time>
      </trkpt>
      <trkpt lat="49.28649" lon="-0.09957">
        <ele>100.4</ele>
        <time>2024-04-07T13:18:28Z</time>
      </trkpt>
      <trkpt lat="49.28653" lon="-0.09949">
        <ele>100.4</ele>
        <time>2024-04-07T13:18:29Z</time>
      </trkpt>
      <trkpt lat="49.28657" lon="-0.0994">
        <ele>100.4</ele>
        <time>2024-04-07T13:18:30Z</time>
      </trkpt>
      <trkpt lat="49.28662" lon="-0.09932">
        <ele>100.4</ele>
        <time>2024-04-07T13:18:31Z</time>
      </trkpt>
      <trkpt lat="49.28667" lon="-0.09925">
        <ele>100.4</ele>
        <time>2024-04-07T13:18:32Z</time>
      </trkpt>
      <trkpt lat="49.28672" lon="-0.09917">
        <ele>100.4</ele>
        <time>2024-04-07T13:18:33Z</time>
      </trkpt>
      <trkpt lat="49.28677" lon="-0.0991">
        <ele>100.4</ele>
        <time>2024-04-07T13:18:34Z</time>
      </trkpt>
      <trkpt lat="49.28681" lon="-0.09904">
        <ele>100.4</ele>
        <time>2024-04-07T13:18:35Z</time>
      </trkpt>
      <trkpt lat="49.28686" lon="-0.099">
        <ele>100.4</ele>
        <time>2024-04-07T13:18:36Z</time>
      </trkpt>
      <trkpt lat="49.2869" lon="-0.09894">
        <ele>100.4</ele>
        <time>2024-04-07T13:18:37Z</time>
      </trkpt>
      <trkpt lat="49.28694" lon="-0.09889">
        <ele>100.4</ele>
        <time>2024-04-07T13:18:38Z</time>
      </trkpt>
      <trkpt lat="49.28699" lon="-0.09884">
        <ele>100.4</ele>
        <time>2024-04-07T13:18:39Z</time>
      </trkpt>
      <trkpt lat="49.28703" lon="-0.09879">
        <ele>100.4</ele>
        <time>2024-04-07T13:18:40Z</time>
      </trkpt>
      <trkpt lat="49.28708" lon="-0.09873">
        <ele>100.4</ele>
        <time>2024-04-07T13:18:41Z</time>
      </trkpt>
      <trkpt lat="49.28713" lon="-0.09867">
        <ele>100.4</ele>
        <time>2024-04-07T13:18:42Z</time>
      </trkpt>
      <trkpt lat="49.28718" lon="-0.09861">
        <ele>100.4</ele>
        <time>2024-04-07T13:18:43Z</time>
      </trkpt>
      <trkpt lat="49.28723" lon="-0.09855">
        <ele>100.4</ele>
        <time>2024-04-07T13:18:44Z</time>
      </trkpt>
      <trkpt lat="49.28728" lon="-0.09849">
        <ele>100.4</ele>
        <time>2024-04-07T13:18:45Z</time>
      </trkpt>
      <trkpt lat="49.28734" lon="-0.09843">
        <ele>100.4</ele>
        <time>2024-04-07T13:18:46Z</time>
      </trkpt>
      <trkpt lat="49.2874" lon="-0.09837">
        <ele>100.4</ele>
        <time>2024-04-07T13:18:47Z</time>
      </trkpt>
      <trkpt lat="49.28746" lon="-0.09832">
        <ele>100.4</ele>
        <time>2024-04-07T13:18:48Z</time>
      </trkpt>
      <trkpt lat="49.28752" lon="-0.09825">
        <ele>100.4</ele>
        <time>2024-04-07T13:18:49Z</time>
      </trkpt>
      <trkpt lat="49.28758" lon="-0.09819">
        <ele>100.4</ele>
        <time>2024-04-07T13:18:50Z</time>
      </trkpt>
      <trkpt lat="49.28765" lon="-0.09813">
        <ele>100.4</ele>
        <time>2024-04-07T13:18:51Z</time>
      </trkpt>
      <trkpt lat="49.28771" lon="-0.09806">
        <ele>100.6</ele>
        <time>2024-04-07T13:18:52Z</time>
      </trkpt>
      <trkpt lat="49.28777" lon="-0.09799">
        <ele>100.6</ele>
        <time>2024-04-07T13:18:53Z</time>
      </trkpt>
      <trkpt lat="49.28784" lon="-0.09793">
        <ele>100.6</ele>
        <time>2024-04-07T13:18:54Z</time>
      </trkpt>
      <trkpt lat="49.2879" lon="-0.09786">
        <ele>100.6</ele>
        <time>2024-04-07T13:18:55Z</time>
      </trkpt>
      <trkpt lat="49.28796" lon="-0.09779">
        <ele>100.6</ele>
        <time>2024-04-07T13:18:56Z</time>
      </trkpt>
      <trkpt lat="49.28802" lon="-0.09771">
        <ele>100.6</ele>
        <time>2024-04-07T13:18:57Z</time>
      </trkpt>
      <trkpt lat="49.28808" lon="-0.09763">
        <ele>100.6</ele>
        <time>2024-04-07T13:18:58Z</time>
      </trkpt>
      <trkpt lat="49.28813" lon="-0.09755">
        <ele>100.6</ele>
        <time>2024-04-07T13:18:59Z</time>
      </trkpt>
      <trkpt lat="49.28818" lon="-0.09747">
        <ele>100.6</ele>
        <time>2024-04-07T13:19:00Z</time>
      </trkpt>
      <trkpt lat="49.28822" lon="-0.09738">
        <ele>100.6</ele>
        <time>2024-04-07T13:19:01Z</time>
      </trkpt>
      <trkpt lat="49.28827" lon="-0.09728">
        <ele>100.6</ele>
        <time>2024-04-07T13:19:02Z</time>
      </trkpt>
      <trkpt lat="49.28831" lon="-0.09719">
        <ele>100.6</ele>
        <time>2024-04-07T13:19:03Z</time>
      </trkpt>
      <trkpt lat="49.28836" lon="-0.0971">
        <ele>100.6</ele>
        <time>2024-04-07T13:19:04Z</time>
      </trkpt>
      <trkpt lat="49.28841" lon="-0.097">
        <ele>100.6</ele>
        <time>2024-04-07T13:19:05Z</time>
      </trkpt>
      <trkpt lat="49.28846" lon="-0.09691">
        <ele>100.6</ele>
        <time>2024-04-07T13:19:06Z</time>
      </trkpt>
      <trkpt lat="49.28851" lon="-0.09681">
        <ele>100.6</ele>
        <time>2024-04-07T13:19:07Z</time>
      </trkpt>
      <trkpt lat="49.28856" lon="-0.09673">
        <ele>100.6</ele>
        <time>2024-04-07T13:19:08Z</time>
      </trkpt>
      <trkpt lat="49.2886" lon="-0.09664">
        <ele>100.6</ele>
        <time>2024-04-07T13:19:09Z</time>
      </trkpt>
      <trkpt lat="49.28865" lon="-0.09656">
        <ele>100.6</ele>
        <time>2024-04-07T13:19:10Z</time>
      </trkpt>
      <trkpt lat="49.28869" lon="-0.09647">
        <ele>100.6</ele>
        <time>2024-04-07T13:19:11Z</time>
      </trkpt>
      <trkpt lat="49.28873" lon="-0.09639">
        <ele>100.6</ele>
        <time>2024-04-07T13:19:12Z</time>
      </trkpt>
      <trkpt lat="49.28876" lon="-0.0963">
        <ele>100.6</ele>
        <time>2024-04-07T13:19:13Z</time>
      </trkpt>
      <trkpt lat="49.2888" lon="-0.09621">
        <ele>100.6</ele>
        <time>2024-04-07T13:19:14Z</time>
      </trkpt>
      <trkpt lat="49.28881" lon="-0.09612">
        <ele>100.6</ele>
        <time>2024-04-07T13:19:15Z</time>
      </trkpt>
      <trkpt lat="49.28883" lon="-0.09603">
        <ele>100.6</ele>
        <time>2024-04-07T13:19:16Z</time>
      </trkpt>
      <trkpt lat="49.28886" lon="-0.09596">
        <ele>100.6</ele>
        <time>2024-04-07T13:19:17Z</time>
      </trkpt>
      <trkpt lat="49.2889" lon="-0.09589">
        <ele>100.6</ele>
        <time>2024-04-07T13:19:18Z</time>
      </trkpt>
      <trkpt lat="49.28896" lon="-0.09583">
        <ele>100.6</ele>
        <time>2024-04-07T13:19:19Z</time>
      </trkpt>
      <trkpt lat="49.28901" lon="-0.09575">
        <ele>100.6</ele>
        <time>2024-04-07T13:19:20Z</time>
      </trkpt>
      <trkpt lat="49.28906" lon="-0.09567">
        <ele>100.6</ele>
        <time>2024-04-07T13:19:21Z</time>
      </trkpt>
      <trkpt lat="49.28911" lon="-0.09559">
        <ele>100.6</ele>
        <time>2024-04-07T13:19:22Z</time>
      </trkpt>
      <trkpt lat="49.28916" lon="-0.09551">
        <ele>100.6</ele>
        <time>2024-04-07T13:19:23Z</time>
      </trkpt>
      <trkpt lat="49.28921" lon="-0.09543">
        <ele>100.6</ele>
        <time>2024-04-07T13:19:24Z</time>
      </trkpt>
      <trkpt lat="49.28927" lon="-0.09536">
        <ele>100.6</ele>
        <time>2024-04-07T13:19:25Z</time>
      </trkpt>
      <trkpt lat="49.28932" lon="-0.09529">
        <ele>100.6</ele>
        <time>2024-04-07T13:19:26Z</time>
      </trkpt>
      <trkpt lat="49.28938" lon="-0.09521">
        <ele>100.6</ele>
        <time>2024-04-07T13:19:27Z</time>
      </trkpt>
      <trkpt lat="49.28943" lon="-0.09513">
        <ele>100.6</ele>
        <time>2024-04-07T13:19:28Z</time>
      </trkpt>
      <trkpt lat="49.28949" lon="-0.09504">
        <ele>100.6</ele>
        <time>2024-04-07T13:19:29Z</time>
      </trkpt>
      <trkpt lat="49.28955" lon="-0.09496">
        <ele>100.6</ele>
        <time>2024-04-07T13:19:30Z</time>
      </trkpt>
      <trkpt lat="49.28961" lon="-0.09488">
        <ele>100.6</ele>
        <time>2024-04-07T13:19:31Z</time>
      </trkpt>
      <trkpt lat="49.28967" lon="-0.09481">
        <ele>100.6</ele>
        <time>2024-04-07T13:19:32Z</time>
      </trkpt>
      <trkpt lat="49.28973" lon="-0.09473">
        <ele>100.6</ele>
        <time>2024-04-07T13:19:33Z</time>
      </trkpt>
      <trkpt lat="49.28979" lon="-0.09465">
        <ele>100.6</ele>
        <time>2024-04-07T13:19:34Z</time>
      </trkpt>
      <trkpt lat="49.28985" lon="-0.09458">
        <ele>100.6</ele>
        <time>2024-04-07T13:19:35Z</time>
      </trkpt>
      <trkpt lat="49.28991" lon="-0.0945">
        <ele>100.6</ele>
        <time>2024-04-07T13:19:36Z</time>
      </trkpt>
      <trkpt lat="49.28997" lon="-0.09442">
        <ele>100.6</ele>
        <time>2024-04-07T13:19:37Z</time>
      </trkpt>
      <trkpt lat="49.29003" lon="-0.09435">
        <ele>100.6</ele>
        <time>2024-04-07T13:19:38Z</time>
      </trkpt>
      <trkpt lat="49.29009" lon="-0.09427">
        <ele>100.6</ele>
        <time>2024-04-07T13:19:39Z</time>
      </trkpt>
      <trkpt lat="49.29015" lon="-0.0942">
        <ele>100.6</ele>
        <time>2024-04-07T13:19:40Z</time>
      </trkpt>
      <trkpt lat="49.29021" lon="-0.09412">
        <ele>100.6</ele>
        <time>2024-04-07T13:19:41Z</time>
      </trkpt>
      <trkpt lat="49.29026" lon="-0.09405">
        <ele>100.6</ele>
        <time>2024-04-07T13:19:42Z</time>
      </trkpt>
      <trkpt lat="49.29032" lon="-0.09398">
        <ele>100.6</ele>
        <time>2024-04-07T13:19:43Z</time>
      </trkpt>
      <trkpt lat="49.29038" lon="-0.0939">
        <ele>100.6</ele>
        <time>2024-04-07T13:19:44Z</time>
      </trkpt>
      <trkpt lat="49.29044" lon="-0.09383">
        <ele>100.6</ele>
        <time>2024-04-07T13:19:45Z</time>
      </trkpt>
      <trkpt lat="49.29051" lon="-0.09375">
        <ele>100.6</ele>
        <time>2024-04-07T13:19:46Z</time>
      </trkpt>
      <trkpt lat="49.29057" lon="-0.09367">
        <ele>100.6</ele>
        <time>2024-04-07T13:19:47Z</time>
      </trkpt>
      <trkpt lat="49.29062" lon="-0.0936">
        <ele>100.6</ele>
        <time>2024-04-07T13:19:48Z</time>
      </trkpt>
      <trkpt lat="49.29068" lon="-0.09352">
        <ele>100.6</ele>
        <time>2024-04-07T13:19:49Z</time>
      </trkpt>
      <trkpt lat="49.29075" lon="-0.09345">
        <ele>100.6</ele>
        <time>2024-04-07T13:19:50Z</time>
      </trkpt>
      <trkpt lat="49.29081" lon="-0.09339">
        <ele>100.6</ele>
        <time>2024-04-07T13:19:51Z</time>
      </trkpt>
      <trkpt lat="49.29088" lon="-0.09333">
        <ele>101</ele>
        <time>2024-04-07T13:19:52Z</time>
      </trkpt>
      <trkpt lat="49.29095" lon="-0.09327">
        <ele>101</ele>
        <time>2024-04-07T13:19:53Z</time>
      </trkpt>
      <trkpt lat="49.29102" lon="-0.09322">
        <ele>101</ele>
        <time>2024-04-07T13:19:54Z</time>
      </trkpt>
      <trkpt lat="49.2911" lon="-0.09317">
        <ele>101</ele>
        <time>2024-04-07T13:19:55Z</time>
      </trkpt>
      <trkpt lat="49.29117" lon="-0.09311">
        <ele>101</ele>
        <time>2024-04-07T13:19:56Z</time>
      </trkpt>
      <trkpt lat="49.29124" lon="-0.09306">
        <ele>101</ele>
        <time>2024-04-07T13:19:57Z</time>
      </trkpt>
      <trkpt lat="49.29131" lon="-0.09301">
        <ele>101</ele>
        <time>2024-04-07T13:19:58Z</time>
      </trkpt>
      <trkpt lat="49.29138" lon="-0.09297">
        <ele>101</ele>
        <time>2024-04-07T13:19:59Z</time>
      </trkpt>
      <trkpt lat="49.29145" lon="-0.09293">
        <ele>101</ele>
        <time>2024-04-07T13:20:00Z</time>
      </trkpt>
      <trkpt lat="49.29152" lon="-0.09289">
        <ele>101</ele>
        <time>2024-04-07T13:20:01Z</time>
      </trkpt>
      <trkpt lat="49.29158" lon="-0.09284">
        <ele>101</ele>
        <time>2024-04-07T13:20:02Z</time>
      </trkpt>
      <trkpt lat="49.29165" lon="-0.0928">
        <ele>101</ele>
        <time>2024-04-07T13:20:03Z</time>
      </trkpt>
      <trkpt lat="49.29171" lon="-0.09276">
        <ele>101</ele>
        <time>2024-04-07T13:20:04Z</time>
      </trkpt>
      <trkpt lat="49.29178" lon="-0.09272">
        <ele>101</ele>
        <time>2024-04-07T13:20:05Z</time>
      </trkpt>
      <trkpt lat="49.29184" lon="-0.09269">
        <ele>101</ele>
        <time>2024-04-07T13:20:06Z</time>
      </trkpt>
      <trkpt lat="49.2919" lon="-0.09265">
        <ele>101</ele>
        <time>2024-04-07T13:20:07Z</time>
      </trkpt>
      <trkpt lat="49.29196" lon="-0.09261">
        <ele>101</ele>
        <time>2024-04-07T13:20:08Z</time>
      </trkpt>
      <trkpt lat="49.29202" lon="-0.09257">
        <ele>101</ele>
        <time>2024-04-07T13:20:09Z</time>
      </trkpt>
      <trkpt lat="49.29208" lon="-0.09253">
        <ele>101</ele>
        <time>2024-04-07T13:20:10Z</time>
      </trkpt>
      <trkpt lat="49.29213" lon="-0.09249">
        <ele>101</ele>
        <time>2024-04-07T13:20:11Z</time>
      </trkpt>
      <trkpt lat="49.29218" lon="-0.09245">
        <ele>101</ele>
        <time>2024-04-07T13:20:12Z</time>
      </trkpt>
      <trkpt lat="49.29223" lon="-0.09241">
        <ele>101</ele>
        <time>2024-04-07T13:20:13Z</time>
      </trkpt>
      <trkpt lat="49.29228" lon="-0.09237">
        <ele>101</ele>
        <time>2024-04-07T13:20:14Z</time>
      </trkpt>
      <trkpt lat="49.29232" lon="-0.09233">
        <ele>101</ele>
        <time>2024-04-07T13:20:15Z</time>
      </trkpt>
      <trkpt lat="49.29235" lon="-0.0923">
        <ele>101</ele>
        <time>2024-04-07T13:20:16Z</time>
      </trkpt>
      <trkpt lat="49.29237" lon="-0.09227">
        <ele>101</ele>
        <time>2024-04-07T13:20:17Z</time>
      </trkpt>
      <trkpt lat="49.29239" lon="-0.09225">
        <ele>101</ele>
        <time>2024-04-07T13:20:18Z</time>
      </trkpt>
      <trkpt lat="49.29241" lon="-0.09223">
        <ele>101</ele>
        <time>2024-04-07T13:20:19Z</time>
      </trkpt>
      <trkpt lat="49.29242" lon="-0.09222">
        <ele>101</ele>
        <time>2024-04-07T13:20:20Z</time>
      </trkpt>
      <trkpt lat="49.29244" lon="-0.0922">
        <ele>101</ele>
        <time>2024-04-07T13:20:21Z</time>
      </trkpt>
      <trkpt lat="49.29246" lon="-0.09217">
        <ele>101</ele>
        <time>2024-04-07T13:20:22Z</time>
      </trkpt>
      <trkpt lat="49.29248" lon="-0.09214">
        <ele>101</ele>
        <time>2024-04-07T13:20:23Z</time>
      </trkpt>
      <trkpt lat="49.29251" lon="-0.09211">
        <ele>101</ele>
        <time>2024-04-07T13:20:24Z</time>
      </trkpt>
      <trkpt lat="49.29255" lon="-0.09207">
        <ele>101</ele>
        <time>2024-04-07T13:20:25Z</time>
      </trkpt>
      <trkpt lat="49.29259" lon="-0.09203">
        <ele>101</ele>
        <time>2024-04-07T13:20:26Z</time>
      </trkpt>
      <trkpt lat="49.29264" lon="-0.09199">
        <ele>101</ele>
        <time>2024-04-07T13:20:27Z</time>
      </trkpt>
      <trkpt lat="49.29268" lon="-0.09194">
        <ele>101</ele>
        <time>2024-04-07T13:20:28Z</time>
      </trkpt>
      <trkpt lat="49.29274" lon="-0.09189">
        <ele>101</ele>
        <time>2024-04-07T13:20:29Z</time>
      </trkpt>
      <trkpt lat="49.29279" lon="-0.09185">
        <ele>101</ele>
        <time>2024-04-07T13:20:30Z</time>
      </trkpt>
      <trkpt lat="49.29285" lon="-0.0918">
        <ele>101</ele>
        <time>2024-04-07T13:20:31Z</time>
      </trkpt>
      <trkpt lat="49.2929" lon="-0.09175">
        <ele>101</ele>
        <time>2024-04-07T13:20:32Z</time>
      </trkpt>
      <trkpt lat="49.29296" lon="-0.0917">
        <ele>101</ele>
        <time>2024-04-07T13:20:33Z</time>
      </trkpt>
      <trkpt lat="49.29301" lon="-0.09165">
        <ele>101</ele>
        <time>2024-04-07T13:20:34Z</time>
      </trkpt>
      <trkpt lat="49.29307" lon="-0.0916">
        <ele>101</ele>
        <time>2024-04-07T13:20:35Z</time>
      </trkpt>
      <trkpt lat="49.29313" lon="-0.09155">
        <ele>101</ele>
        <time>2024-04-07T13:20:36Z</time>
      </trkpt>
      <trkpt lat="49.29319" lon="-0.09149">
        <ele>101</ele>
        <time>2024-04-07T13:20:37Z</time>
      </trkpt>
      <trkpt lat="49.29325" lon="-0.09144">
        <ele>101</ele>
        <time>2024-04-07T13:20:38Z</time>
      </trkpt>
      <trkpt lat="49.2933" lon="-0.09138">
        <ele>101</ele>
        <time>2024-04-07T13:20:39Z</time>
      </trkpt>
      <trkpt lat="49.29336" lon="-0.09132">
        <ele>101</ele>
        <time>2024-04-07T13:20:40Z</time>
      </trkpt>
      <trkpt lat="49.29342" lon="-0.09126">
        <ele>101</ele>
        <time>2024-04-07T13:20:41Z</time>
      </trkpt>
      <trkpt lat="49.29348" lon="-0.09121">
        <ele>101</ele>
        <time>2024-04-07T13:20:42Z</time>
      </trkpt>
      <trkpt lat="49.29355" lon="-0.09115">
        <ele>101</ele>
        <time>2024-04-07T13:20:43Z</time>
      </trkpt>
      <trkpt lat="49.29361" lon="-0.09109">
        <ele>101</ele>
        <time>2024-04-07T13:20:44Z</time>
      </trkpt>
      <trkpt lat="49.29368" lon="-0.09103">
        <ele>101</ele>
        <time>2024-04-07T13:20:45Z</time>
      </trkpt>
      <trkpt lat="49.29375" lon="-0.09096">
        <ele>101</ele>
        <time>2024-04-07T13:20:46Z</time>
      </trkpt>
      <trkpt lat="49.29381" lon="-0.0909">
        <ele>101</ele>
        <time>2024-04-07T13:20:47Z</time>
      </trkpt>
      <trkpt lat="49.29388" lon="-0.09084">
        <ele>101</ele>
        <time>2024-04-07T13:20:48Z</time>
      </trkpt>
      <trkpt lat="49.29394" lon="-0.09078">
        <ele>101</ele>
        <time>2024-04-07T13:20:49Z</time>
      </trkpt>
      <trkpt lat="49.294" lon="-0.09072">
        <ele>101</ele>
        <time>2024-04-07T13:20:50Z</time>
      </trkpt>
      <trkpt lat="49.29405" lon="-0.09067">
        <ele>101</ele>
        <time>2024-04-07T13:20:51Z</time>
      </trkpt>
      <trkpt lat="49.2941" lon="-0.09062">
        <ele>101.6</ele>
        <time>2024-04-07T13:20:52Z</time>
      </trkpt>
      <trkpt lat="49.29416" lon="-0.09058">
        <ele>101.6</ele>
        <time>2024-04-07T13:20:53Z</time>
      </trkpt>
      <trkpt lat="49.2942" lon="-0.09056">
        <ele>101.6</ele>
        <time>2024-04-07T13:20:54Z</time>
      </trkpt>
      <trkpt lat="49.29424" lon="-0.09055">
        <ele>101.6</ele>
        <time>2024-04-07T13:20:55Z</time>
      </trkpt>
      <trkpt lat="49.29427" lon="-0.09056">
        <ele>101.6</ele>
        <time>2024-04-07T13:20:56Z</time>
      </trkpt>
      <trkpt lat="49.29429" lon="-0.09056">
        <ele>101.6</ele>
        <time>2024-04-07T13:20:57Z</time>
      </trkpt>
      <trkpt lat="49.29431" lon="-0.09057">
        <ele>101.6</ele>
        <time>2024-04-07T13:20:58Z</time>
      </trkpt>
      <trkpt lat="49.29431" lon="-0.09057">
        <ele>101.6</ele>
        <time>2024-04-07T13:20:59Z</time>
      </trkpt>
      <trkpt lat="49.2943" lon="-0.09057">
        <ele>101.6</ele>
        <time>2024-04-07T13:21:00Z</time>
      </trkpt>
      <trkpt lat="49.29433" lon="-0.09055">
        <ele>101.6</ele>
        <time>2024-04-07T13:21:06Z</time>
      </trkpt>
      <trkpt lat="49.29435" lon="-0.09054">
        <ele>101.6</ele>
        <time>2024-04-07T13:21:07Z</time>
      </trkpt>
      <trkpt lat="49.29437" lon="-0.09054">
        <ele>101.6</ele>
        <time>2024-04-07T13:21:08Z</time>
      </trkpt>
      <trkpt lat="49.2944" lon="-0.09055">
        <ele>101.6</ele>
        <time>2024-04-07T13:21:09Z</time>
      </trkpt>
      <trkpt lat="49.29443" lon="-0.09056">
        <ele>101.6</ele>
        <time>2024-04-07T13:21:10Z</time>
      </trkpt>
      <trkpt lat="49.29445" lon="-0.09057">
        <ele>101.6</ele>
        <time>2024-04-07T13:21:11Z</time>
      </trkpt>
      <trkpt lat="49.29448" lon="-0.09058">
        <ele>101.6</ele>
        <time>2024-04-07T13:21:12Z</time>
      </trkpt>
      <trkpt lat="49.29451" lon="-0.09057">
        <ele>101.6</ele>
        <time>2024-04-07T13:21:13Z</time>
      </trkpt>
      <trkpt lat="49.29454" lon="-0.09054">
        <ele>101.6</ele>
        <time>2024-04-07T13:21:14Z</time>
      </trkpt>
      <trkpt lat="49.29455" lon="-0.0905">
        <ele>101.6</ele>
        <time>2024-04-07T13:21:15Z</time>
      </trkpt>
      <trkpt lat="49.29456" lon="-0.09046">
        <ele>101.6</ele>
        <time>2024-04-07T13:21:16Z</time>
      </trkpt>
      <trkpt lat="49.29457" lon="-0.09041">
        <ele>101.6</ele>
        <time>2024-04-07T13:21:17Z</time>
      </trkpt>
      <trkpt lat="49.29459" lon="-0.09035">
        <ele>101.6</ele>
        <time>2024-04-07T13:21:18Z</time>
      </trkpt>
      <trkpt lat="49.2946" lon="-0.0903">
        <ele>101.6</ele>
        <time>2024-04-07T13:21:19Z</time>
      </trkpt>
      <trkpt lat="49.29461" lon="-0.09025">
        <ele>101.6</ele>
        <time>2024-04-07T13:21:20Z</time>
      </trkpt>
      <trkpt lat="49.29462" lon="-0.0902">
        <ele>101.6</ele>
        <time>2024-04-07T13:21:21Z</time>
      </trkpt>
      <trkpt lat="49.29464" lon="-0.09014">
        <ele>101.6</ele>
        <time>2024-04-07T13:21:22Z</time>
      </trkpt>
      <trkpt lat="49.29466" lon="-0.09008">
        <ele>101.6</ele>
        <time>2024-04-07T13:21:23Z</time>
      </trkpt>
      <trkpt lat="49.29469" lon="-0.09002">
        <ele>101.6</ele>
        <time>2024-04-07T13:21:24Z</time>
      </trkpt>
      <trkpt lat="49.29471" lon="-0.08996">
        <ele>101.6</ele>
        <time>2024-04-07T13:21:25Z</time>
      </trkpt>
      <trkpt lat="49.29474" lon="-0.0899">
        <ele>101.6</ele>
        <time>2024-04-07T13:21:26Z</time>
      </trkpt>
      <trkpt lat="49.29476" lon="-0.08983">
        <ele>101.6</ele>
        <time>2024-04-07T13:21:27Z</time>
      </trkpt>
      <trkpt lat="49.29479" lon="-0.08977">
        <ele>101.6</ele>
        <time>2024-04-07T13:21:28Z</time>
      </trkpt>
      <trkpt lat="49.29482" lon="-0.08971">
        <ele>101.6</ele>
        <time>2024-04-07T13:21:29Z</time>
      </trkpt>
      <trkpt lat="49.29484" lon="-0.08964">
        <ele>101.6</ele>
        <time>2024-04-07T13:21:30Z</time>
      </trkpt>
      <trkpt lat="49.29487" lon="-0.08958">
        <ele>101.6</ele>
        <time>2024-04-07T13:21:31Z</time>
      </trkpt>
      <trkpt lat="49.29489" lon="-0.08951">
        <ele>101.6</ele>
        <time>2024-04-07T13:21:32Z</time>
      </trkpt>
      <trkpt lat="49.29491" lon="-0.08944">
        <ele>101.6</ele>
        <time>2024-04-07T13:21:33Z</time>
      </trkpt>
      <trkpt lat="49.29493" lon="-0.08937">
        <ele>101.6</ele>
        <time>2024-04-07T13:21:34Z</time>
      </trkpt>
      <trkpt lat="49.29495" lon="-0.0893">
        <ele>101.6</ele>
        <time>2024-04-07T13:21:35Z</time>
      </trkpt>
      <trkpt lat="49.29498" lon="-0.08923">
        <ele>101.6</ele>
        <time>2024-04-07T13:21:36Z</time>
      </trkpt>
      <trkpt lat="49.29501" lon="-0.08915">
        <ele>101.6</ele>
        <time>2024-04-07T13:21:37Z</time>
      </trkpt>
      <trkpt lat="49.29504" lon="-0.08907">
        <ele>101.6</ele>
        <time>2024-04-07T13:21:38Z</time>
      </trkpt>
      <trkpt lat="49.29507" lon="-0.08898">
        <ele>101.6</ele>
        <time>2024-04-07T13:21:39Z</time>
      </trkpt>
      <trkpt lat="49.29511" lon="-0.0889">
        <ele>101.6</ele>
        <time>2024-04-07T13:21:40Z</time>
      </trkpt>
      <trkpt lat="49.29515" lon="-0.08881">
        <ele>101.6</ele>
        <time>2024-04-07T13:21:41Z</time>
      </trkpt>
      <trkpt lat="49.29519" lon="-0.08873">
        <ele>101.6</ele>
        <time>2024-04-07T13:21:42Z</time>
      </trkpt>
      <trkpt lat="49.29522" lon="-0.08865">
        <ele>101.6</ele>
        <time>2024-04-07T13:21:43Z</time>
      </trkpt>
      <trkpt lat="49.29526" lon="-0.08857">
        <ele>101.6</ele>
        <time>2024-04-07T13:21:44Z</time>
      </trkpt>
      <trkpt lat="49.2953" lon="-0.08849">
        <ele>101.6</ele>
        <time>2024-04-07T13:21:45Z</time>
      </trkpt>
      <trkpt lat="49.29535" lon="-0.08841">
        <ele>101.6</ele>
        <time>2024-04-07T13:21:46Z</time>
      </trkpt>
      <trkpt lat="49.29539" lon="-0.08833">
        <ele>101.6</ele>
        <time>2024-04-07T13:21:47Z</time>
      </trkpt>
      <trkpt lat="49.29543" lon="-0.08826">
        <ele>101.6</ele>
        <time>2024-04-07T13:21:48Z</time>
      </trkpt>
      <trkpt lat="49.29548" lon="-0.08818">
        <ele>101.6</ele>
        <time>2024-04-07T13:21:49Z</time>
      </trkpt>
      <trkpt lat="49.29553" lon="-0.08811">
        <ele>101.6</ele>
        <time>2024-04-07T13:21:50Z</time>
      </trkpt>
      <trkpt lat="49.29558" lon="-0.08804">
        <ele>101.6</ele>
        <time>2024-04-07T13:21:51Z</time>
      </trkpt>
      <trkpt lat="49.29563" lon="-0.08797">
        <ele>101.6</ele>
        <time>2024-04-07T13:21:52Z</time>
      </trkpt>
      <trkpt lat="49.29569" lon="-0.08791">
        <ele>101.6</ele>
        <time>2024-04-07T13:21:53Z</time>
      </trkpt>
      <trkpt lat="49.29574" lon="-0.08784">
        <ele>101.6</ele>
        <time>2024-04-07T13:21:54Z</time>
      </trkpt>
      <trkpt lat="49.2958" lon="-0.08778">
        <ele>101.6</ele>
        <time>2024-04-07T13:21:55Z</time>
      </trkpt>
      <trkpt lat="49.29585" lon="-0.08772">
        <ele>101.6</ele>
        <time>2024-04-07T13:21:56Z</time>
      </trkpt>
      <trkpt lat="49.29591" lon="-0.08767">
        <ele>101.6</ele>
        <time>2024-04-07T13:21:57Z</time>
      </trkpt>
      <trkpt lat="49.29596" lon="-0.08762">
        <ele>101.6</ele>
        <time>2024-04-07T13:21:58Z</time>
      </trkpt>
      <trkpt lat="49.29602" lon="-0.08757">
        <ele>101.6</ele>
        <time>2024-04-07T13:21:59Z</time>
      </trkpt>
      <trkpt lat="49.29607" lon="-0.08752">
        <ele>101.6</ele>
        <time>2024-04-07T13:22:00Z</time>
      </trkpt>
      <trkpt lat="49.29613" lon="-0.08748">
        <ele>101.6</ele>
        <time>2024-04-07T13:22:01Z</time>
      </trkpt>
      <trkpt lat="49.29618" lon="-0.08743">
        <ele>101.6</ele>
        <time>2024-04-07T13:22:02Z</time>
      </trkpt>
      <trkpt lat="49.29624" lon="-0.08739">
        <ele>101.6</ele>
        <time>2024-04-07T13:22:03Z</time>
      </trkpt>
      <trkpt lat="49.2963" lon="-0.08735">
        <ele>101.6</ele>
        <time>2024-04-07T13:22:04Z</time>
      </trkpt>
      <trkpt lat="49.29635" lon="-0.08731">
        <ele>101.6</ele>
        <time>2024-04-07T13:22:05Z</time>
      </trkpt>
      <trkpt lat="49.2964" lon="-0.08726">
        <ele>101.6</ele>
        <time>2024-04-07T13:22:06Z</time>
      </trkpt>
      <trkpt lat="49.29646" lon="-0.08722">
        <ele>101.6</ele>
        <time>2024-04-07T13:22:07Z</time>
      </trkpt>
      <trkpt lat="49.29651" lon="-0.08717">
        <ele>101.6</ele>
        <time>2024-04-07T13:22:08Z</time>
      </trkpt>
      <trkpt lat="49.29657" lon="-0.08713">
        <ele>101.6</ele>
        <time>2024-04-07T13:22:09Z</time>
      </trkpt>
      <trkpt lat="49.29663" lon="-0.08708">
        <ele>101.6</ele>
        <time>2024-04-07T13:22:10Z</time>
      </trkpt>
      <trkpt lat="49.29669" lon="-0.08703">
        <ele>101.6</ele>
        <time>2024-04-07T13:22:11Z</time>
      </trkpt>
      <trkpt lat="49.29674" lon="-0.08698">
        <ele>101.6</ele>
        <time>2024-04-07T13:22:12Z</time>
      </trkpt>
      <trkpt lat="49.2968" lon="-0.08694">
        <ele>101.6</ele>
        <time>2024-04-07T13:22:13Z</time>
      </trkpt>
      <trkpt lat="49.29686" lon="-0.08689">
        <ele>101.6</ele>
        <time>2024-04-07T13:22:14Z</time>
      </trkpt>
      <trkpt lat="49.29692" lon="-0.08684">
        <ele>101.6</ele>
        <time>2024-04-07T13:22:15Z</time>
      </trkpt>
      <trkpt lat="49.29698" lon="-0.08679">
        <ele>101.6</ele>
        <time>2024-04-07T13:22:16Z</time>
      </trkpt>
      <trkpt lat="49.29704" lon="-0.08674">
        <ele>101.6</ele>
        <time>2024-04-07T13:22:17Z</time>
      </trkpt>
      <trkpt lat="49.2971" lon="-0.08668">
        <ele>101.6</ele>
        <time>2024-04-07T13:22:18Z</time>
      </trkpt>
      <trkpt lat="49.29716" lon="-0.08663">
        <ele>101.6</ele>
        <time>2024-04-07T13:22:19Z</time>
      </trkpt>
      <trkpt lat="49.29722" lon="-0.08657">
        <ele>101.6</ele>
        <time>2024-04-07T13:22:20Z</time>
      </trkpt>
      <trkpt lat="49.29727" lon="-0.08651">
        <ele>101.6</ele>
        <time>2024-04-07T13:22:21Z</time>
      </trkpt>
      <trkpt lat="49.29733" lon="-0.08645">
        <ele>101.6</ele>
        <time>2024-04-07T13:22:22Z</time>
      </trkpt>
      <trkpt lat="49.29739" lon="-0.08639">
        <ele>101.6</ele>
        <time>2024-04-07T13:22:23Z</time>
      </trkpt>
      <trkpt lat="49.29745" lon="-0.08634">
        <ele>101.6</ele>
        <time>2024-04-07T13:22:24Z</time>
      </trkpt>
      <trkpt lat="49.2975" lon="-0.08628">
        <ele>101.6</ele>
        <time>2024-04-07T13:22:25Z</time>
      </trkpt>
      <trkpt lat="49.29756" lon="-0.08623">
        <ele>101.6</ele>
        <time>2024-04-07T13:22:26Z</time>
      </trkpt>
      <trkpt lat="49.29762" lon="-0.08617">
        <ele>101.6</ele>
        <time>2024-04-07T13:22:27Z</time>
      </trkpt>
      <trkpt lat="49.29768" lon="-0.08612">
        <ele>101.6</ele>
        <time>2024-04-07T13:22:28Z</time>
      </trkpt>
      <trkpt lat="49.29774" lon="-0.08606">
        <ele>101.6</ele>
        <time>2024-04-07T13:22:29Z</time>
      </trkpt>
      <trkpt lat="49.2978" lon="-0.086">
        <ele>101.6</ele>
        <time>2024-04-07T13:22:30Z</time>
      </trkpt>
      <trkpt lat="49.29785" lon="-0.08594">
        <ele>101.6</ele>
        <time>2024-04-07T13:22:31Z</time>
      </trkpt>
      <trkpt lat="49.29791" lon="-0.08589">
        <ele>101.6</ele>
        <time>2024-04-07T13:22:32Z</time>
      </trkpt>
      <trkpt lat="49.29797" lon="-0.08583">
        <ele>101.6</ele>
        <time>2024-04-07T13:22:33Z</time>
      </trkpt>
      <trkpt lat="49.29803" lon="-0.08577">
        <ele>101.6</ele>
        <time>2024-04-07T13:22:34Z</time>
      </trkpt>
      <trkpt lat="49.29809" lon="-0.08571">
        <ele>101.6</ele>
        <time>2024-04-07T13:22:35Z</time>
      </trkpt>
      <trkpt lat="49.29814" lon="-0.08566">
        <ele>101.6</ele>
        <time>2024-04-07T13:22:36Z</time>
      </trkpt>
      <trkpt lat="49.2982" lon="-0.0856">
        <ele>101.6</ele>
        <time>2024-04-07T13:22:37Z</time>
      </trkpt>
      <trkpt lat="49.29826" lon="-0.08554">
        <ele>101.6</ele>
        <time>2024-04-07T13:22:38Z</time>
      </trkpt>
      <trkpt lat="49.29832" lon="-0.08549">
        <ele>101.6</ele>
        <time>2024-04-07T13:22:39Z</time>
      </trkpt>
      <trkpt lat="49.29838" lon="-0.08543">
        <ele>101.6</ele>
        <time>2024-04-07T13:22:40Z</time>
      </trkpt>
      <trkpt lat="49.29844" lon="-0.08538">
        <ele>101.6</ele>
        <time>2024-04-07T13:22:41Z</time>
      </trkpt>
      <trkpt lat="49.29849" lon="-0.08532">
        <ele>101.6</ele>
        <time>2024-04-07T13:22:42Z</time>
      </trkpt>
      <trkpt lat="49.29855" lon="-0.08527">
        <ele>101.6</ele>
        <time>2024-04-07T13:22:43Z</time>
      </trkpt>
      <trkpt lat="49.29861" lon="-0.08521">
        <ele>101.6</ele>
        <time>2024-04-07T13:22:44Z</time>
      </trkpt>
      <trkpt lat="49.29867" lon="-0.08516">
        <ele>101.6</ele>
        <time>2024-04-07T13:22:45Z</time>
      </trkpt>
      <trkpt lat="49.29872" lon="-0.0851">
        <ele>101.6</ele>
        <time>2024-04-07T13:22:46Z</time>
      </trkpt>
      <trkpt lat="49.29878" lon="-0.08505">
        <ele>101.6</ele>
        <time>2024-04-07T13:22:47Z</time>
      </trkpt>
      <trkpt lat="49.29883" lon="-0.08499">
        <ele>101.6</ele>
        <time>2024-04-07T13:22:48Z</time>
      </trkpt>
      <trkpt lat="49.29889" lon="-0.08494">
        <ele>101.6</ele>
        <time>2024-04-07T13:22:49Z</time>
      </trkpt>
      <trkpt lat="49.29894" lon="-0.08489">
        <ele>101.6</ele>
        <time>2024-04-07T13:22:50Z</time>
      </trkpt>
      <trkpt lat="49.299" lon="-0.08484">
        <ele>101.6</ele>
        <time>2024-04-07T13:22:51Z</time>
      </trkpt>
      <trkpt lat="49.29905" lon="-0.08479">
        <ele>102.2</ele>
        <time>2024-04-07T13:22:52Z</time>
      </trkpt>
      <trkpt lat="49.2991" lon="-0.08473">
        <ele>102.2</ele>
        <time>2024-04-07T13:22:53Z</time>
      </trkpt>
      <trkpt lat="49.29915" lon="-0.08468">
        <ele>102.2</ele>
        <time>2024-04-07T13:22:54Z</time>
      </trkpt>
      <trkpt lat="49.29919" lon="-0.08462">
        <ele>102.2</ele>
        <time>2024-04-07T13:22:55Z</time>
      </trkpt>
      <trkpt lat="49.29923" lon="-0.08456">
        <ele>102.2</ele>
        <time>2024-04-07T13:22:56Z</time>
      </trkpt>
      <trkpt lat="49.29927" lon="-0.08449">
        <ele>102.2</ele>
        <time>2024-04-07T13:22:57Z</time>
      </trkpt>
      <trkpt lat="49.29932" lon="-0.08443">
        <ele>102.2</ele>
        <time>2024-04-07T13:22:58Z</time>
      </trkpt>
      <trkpt lat="49.29937" lon="-0.08437">
        <ele>102.2</ele>
        <time>2024-04-07T13:22:59Z</time>
      </trkpt>
      <trkpt lat="49.29942" lon="-0.08431">
        <ele>102.2</ele>
        <time>2024-04-07T13:23:00Z</time>
      </trkpt>
      <trkpt lat="49.29947" lon="-0.08426">
        <ele>102.2</ele>
        <time>2024-04-07T13:23:01Z</time>
      </trkpt>
      <trkpt lat="49.29951" lon="-0.08422">
        <ele>102.2</ele>
        <time>2024-04-07T13:23:02Z</time>
      </trkpt>
      <trkpt lat="49.29954" lon="-0.08418">
        <ele>102.2</ele>
        <time>2024-04-07T13:23:03Z</time>
      </trkpt>
      <trkpt lat="49.29957" lon="-0.08415">
        <ele>102.2</ele>
        <time>2024-04-07T13:23:04Z</time>
      </trkpt>
      <trkpt lat="49.29959" lon="-0.08413">
        <ele>102.2</ele>
        <time>2024-04-07T13:23:05Z</time>
      </trkpt>
      <trkpt lat="49.2996" lon="-0.08411">
        <ele>102.2</ele>
        <time>2024-04-07T13:23:06Z</time>
      </trkpt>
      <trkpt lat="49.29961" lon="-0.08409">
        <ele>102.2</ele>
        <time>2024-04-07T13:23:07Z</time>
      </trkpt>
      <trkpt lat="49.29961" lon="-0.08407">
        <ele>102.2</ele>
        <time>2024-04-07T13:23:08Z</time>
      </trkpt>
      <trkpt lat="49.29962" lon="-0.08405">
        <ele>102.2</ele>
        <time>2024-04-07T13:23:09Z</time>
      </trkpt>
      <trkpt lat="49.29962" lon="-0.08402">
        <ele>102.2</ele>
        <time>2024-04-07T13:23:10Z</time>
      </trkpt>
      <trkpt lat="49.29962" lon="-0.08399">
        <ele>102.2</ele>
        <time>2024-04-07T13:23:11Z</time>
      </trkpt>
      <trkpt lat="49.29963" lon="-0.08395">
        <ele>102.2</ele>
        <time>2024-04-07T13:23:12Z</time>
      </trkpt>
      <trkpt lat="49.29964" lon="-0.0839">
        <ele>102.2</ele>
        <time>2024-04-07T13:23:13Z</time>
      </trkpt>
      <trkpt lat="49.29966" lon="-0.08386">
        <ele>102.2</ele>
        <time>2024-04-07T13:23:14Z</time>
      </trkpt>
      <trkpt lat="49.2997" lon="-0.08383">
        <ele>102.2</ele>
        <time>2024-04-07T13:23:15Z</time>
      </trkpt>
      <trkpt lat="49.29973" lon="-0.0838">
        <ele>102.2</ele>
        <time>2024-04-07T13:23:16Z</time>
      </trkpt>
      <trkpt lat="49.29977" lon="-0.08377">
        <ele>102.2</ele>
        <time>2024-04-07T13:23:17Z</time>
      </trkpt>
      <trkpt lat="49.2998" lon="-0.08375">
        <ele>102.2</ele>
        <time>2024-04-07T13:23:18Z</time>
      </trkpt>
      <trkpt lat="49.29984" lon="-0.08373">
        <ele>102.2</ele>
        <time>2024-04-07T13:23:19Z</time>
      </trkpt>
      <trkpt lat="49.29988" lon="-0.08371">
        <ele>102.2</ele>
        <time>2024-04-07T13:23:20Z</time>
      </trkpt>
      <trkpt lat="49.29992" lon="-0.08368">
        <ele>102.2</ele>
        <time>2024-04-07T13:23:21Z</time>
      </trkpt>
      <trkpt lat="49.29996" lon="-0.08364">
        <ele>102.2</ele>
        <time>2024-04-07T13:23:22Z</time>
      </trkpt>
      <trkpt lat="49.3" lon="-0.08361">
        <ele>102.2</ele>
        <time>2024-04-07T13:23:23Z</time>
      </trkpt>
      <trkpt lat="49.30005" lon="-0.08357">
        <ele>102.2</ele>
        <time>2024-04-07T13:23:24Z</time>
      </trkpt>
      <trkpt lat="49.3001" lon="-0.08352">
        <ele>102.2</ele>
        <time>2024-04-07T13:23:25Z</time>
      </trkpt>
      <trkpt lat="49.30015" lon="-0.08348">
        <ele>102.2</ele>
        <time>2024-04-07T13:23:26Z</time>
      </trkpt>
      <trkpt lat="49.30019" lon="-0.08343">
        <ele>102.2</ele>
        <time>2024-04-07T13:23:27Z</time>
      </trkpt>
      <trkpt lat="49.30024" lon="-0.08338">
        <ele>102.2</ele>
        <time>2024-04-07T13:23:28Z</time>
      </trkpt>
      <trkpt lat="49.30029" lon="-0.08333">
        <ele>102.2</ele>
        <time>2024-04-07T13:23:29Z</time>
      </trkpt>
      <trkpt lat="49.30034" lon="-0.08328">
        <ele>102.2</ele>
        <time>2024-04-07T13:23:30Z</time>
      </trkpt>
      <trkpt lat="49.30039" lon="-0.08323">
        <ele>102.2</ele>
        <time>2024-04-07T13:23:31Z</time>
      </trkpt>
      <trkpt lat="49.30044" lon="-0.08318">
        <ele>102.2</ele>
        <time>2024-04-07T13:23:32Z</time>
      </trkpt>
      <trkpt lat="49.30049" lon="-0.08313">
        <ele>102.2</ele>
        <time>2024-04-07T13:23:33Z</time>
      </trkpt>
      <trkpt lat="49.30054" lon="-0.08308">
        <ele>102.2</ele>
        <time>2024-04-07T13:23:34Z</time>
      </trkpt>
      <trkpt lat="49.3006" lon="-0.08303">
        <ele>102.2</ele>
        <time>2024-04-07T13:23:35Z</time>
      </trkpt>
      <trkpt lat="49.30065" lon="-0.08298">
        <ele>102.2</ele>
        <time>2024-04-07T13:23:36Z</time>
      </trkpt>
      <trkpt lat="49.3007" lon="-0.08293">
        <ele>102.2</ele>
        <time>2024-04-07T13:23:37Z</time>
      </trkpt>
      <trkpt lat="49.30075" lon="-0.08288">
        <ele>102.2</ele>
        <time>2024-04-07T13:23:38Z</time>
      </trkpt>
      <trkpt lat="49.30079" lon="-0.08282">
        <ele>102.2</ele>
        <time>2024-04-07T13:23:39Z</time>
      </trkpt>
      <trkpt lat="49.30084" lon="-0.08277">
        <ele>102.2</ele>
        <time>2024-04-07T13:23:40Z</time>
      </trkpt>
      <trkpt lat="49.30089" lon="-0.08272">
        <ele>102.2</ele>
        <time>2024-04-07T13:23:41Z</time>
      </trkpt>
      <trkpt lat="49.30094" lon="-0.08268">
        <ele>102.2</ele>
        <time>2024-04-07T13:23:42Z</time>
      </trkpt>
      <trkpt lat="49.30099" lon="-0.08263">
        <ele>102.2</ele>
        <time>2024-04-07T13:23:43Z</time>
      </trkpt>
      <trkpt lat="49.30104" lon="-0.08257">
        <ele>102.2</ele>
        <time>2024-04-07T13:23:44Z</time>
      </trkpt>
      <trkpt lat="49.30109" lon="-0.08251">
        <ele>102.2</ele>
        <time>2024-04-07T13:23:45Z</time>
      </trkpt>
      <trkpt lat="49.30114" lon="-0.08246">
        <ele>102.2</ele>
        <time>2024-04-07T13:23:46Z</time>
      </trkpt>
      <trkpt lat="49.3012" lon="-0.08241">
        <ele>102.2</ele>
        <time>2024-04-07T13:23:47Z</time>
      </trkpt>
      <trkpt lat="49.30125" lon="-0.08236">
        <ele>102.2</ele>
        <time>2024-04-07T13:23:48Z</time>
      </trkpt>
      <trkpt lat="49.3013" lon="-0.08231">
        <ele>102.2</ele>
        <time>2024-04-07T13:23:49Z</time>
      </trkpt>
      <trkpt lat="49.30135" lon="-0.08225">
        <ele>102.2</ele>
        <time>2024-04-07T13:23:50Z</time>
      </trkpt>
      <trkpt lat="49.30141" lon="-0.0822">
        <ele>102.2</ele>
        <time>2024-04-07T13:23:51Z</time>
      </trkpt>
      <trkpt lat="49.30146" lon="-0.08214">
        <ele>102.6</ele>
        <time>2024-04-07T13:23:52Z</time>
      </trkpt>
      <trkpt lat="49.30152" lon="-0.08208">
        <ele>102.6</ele>
        <time>2024-04-07T13:23:53Z</time>
      </trkpt>
      <trkpt lat="49.30157" lon="-0.08202">
        <ele>102.6</ele>
        <time>2024-04-07T13:23:54Z</time>
      </trkpt>
      <trkpt lat="49.30163" lon="-0.08197">
        <ele>102.6</ele>
        <time>2024-04-07T13:23:55Z</time>
      </trkpt>
      <trkpt lat="49.30168" lon="-0.08191">
        <ele>102.6</ele>
        <time>2024-04-07T13:23:56Z</time>
      </trkpt>
      <trkpt lat="49.30174" lon="-0.08185">
        <ele>102.6</ele>
        <time>2024-04-07T13:23:57Z</time>
      </trkpt>
      <trkpt lat="49.30179" lon="-0.08178">
        <ele>102.6</ele>
        <time>2024-04-07T13:23:58Z</time>
      </trkpt>
      <trkpt lat="49.30183" lon="-0.08171">
        <ele>102.6</ele>
        <time>2024-04-07T13:23:59Z</time>
      </trkpt>
      <trkpt lat="49.30188" lon="-0.08163">
        <ele>102.6</ele>
        <time>2024-04-07T13:24:00Z</time>
      </trkpt>
      <trkpt lat="49.30192" lon="-0.08154">
        <ele>102.6</ele>
        <time>2024-04-07T13:24:01Z</time>
      </trkpt>
      <trkpt lat="49.30195" lon="-0.08146">
        <ele>102.6</ele>
        <time>2024-04-07T13:24:02Z</time>
      </trkpt>
      <trkpt lat="49.30199" lon="-0.08137">
        <ele>102.6</ele>
        <time>2024-04-07T13:24:03Z</time>
      </trkpt>
      <trkpt lat="49.30202" lon="-0.08128">
        <ele>102.6</ele>
        <time>2024-04-07T13:24:04Z</time>
      </trkpt>
      <trkpt lat="49.30205" lon="-0.08118">
        <ele>102.6</ele>
        <time>2024-04-07T13:24:05Z</time>
      </trkpt>
      <trkpt lat="49.30208" lon="-0.08109">
        <ele>102.6</ele>
        <time>2024-04-07T13:24:06Z</time>
      </trkpt>
      <trkpt lat="49.30212" lon="-0.081">
        <ele>102.6</ele>
        <time>2024-04-07T13:24:07Z</time>
      </trkpt>
      <trkpt lat="49.30215" lon="-0.08091">
        <ele>102.6</ele>
        <time>2024-04-07T13:24:08Z</time>
      </trkpt>
      <trkpt lat="49.30218" lon="-0.08082">
        <ele>102.6</ele>
        <time>2024-04-07T13:24:09Z</time>
      </trkpt>
      <trkpt lat="49.30222" lon="-0.08072">
        <ele>102.6</ele>
        <time>2024-04-07T13:24:10Z</time>
      </trkpt>
      <trkpt lat="49.30225" lon="-0.08063">
        <ele>102.6</ele>
        <time>2024-04-07T13:24:11Z</time>
      </trkpt>
      <trkpt lat="49.30229" lon="-0.08055">
        <ele>102.6</ele>
        <time>2024-04-07T13:24:12Z</time>
      </trkpt>
      <trkpt lat="49.30232" lon="-0.08046">
        <ele>102.6</ele>
        <time>2024-04-07T13:24:13Z</time>
      </trkpt>
      <trkpt lat="49.30236" lon="-0.08038">
        <ele>102.6</ele>
        <time>2024-04-07T13:24:14Z</time>
      </trkpt>
      <trkpt lat="49.30239" lon="-0.0803">
        <ele>102.6</ele>
        <time>2024-04-07T13:24:15Z</time>
      </trkpt>
      <trkpt lat="49.30241" lon="-0.08022">
        <ele>102.6</ele>
        <time>2024-04-07T13:24:16Z</time>
      </trkpt>
      <trkpt lat="49.30244" lon="-0.08013">
        <ele>102.6</ele>
        <time>2024-04-07T13:24:17Z</time>
      </trkpt>
      <trkpt lat="49.30246" lon="-0.08005">
        <ele>102.6</ele>
        <time>2024-04-07T13:24:18Z</time>
      </trkpt>
      <trkpt lat="49.30249" lon="-0.07996">
        <ele>102.6</ele>
        <time>2024-04-07T13:24:19Z</time>
      </trkpt>
      <trkpt lat="49.30251" lon="-0.07988">
        <ele>102.6</ele>
        <time>2024-04-07T13:24:20Z</time>
      </trkpt>
      <trkpt lat="49.30254" lon="-0.07981">
        <ele>102.6</ele>
        <time>2024-04-07T13:24:21Z</time>
      </trkpt>
      <trkpt lat="49.30257" lon="-0.07973">
        <ele>102.6</ele>
        <time>2024-04-07T13:24:22Z</time>
      </trkpt>
      <trkpt lat="49.30259" lon="-0.07966">
        <ele>102.6</ele>
        <time>2024-04-07T13:24:23Z</time>
      </trkpt>
      <trkpt lat="49.30262" lon="-0.07958">
        <ele>102.6</ele>
        <time>2024-04-07T13:24:24Z</time>
      </trkpt>
      <trkpt lat="49.30264" lon="-0.07951">
        <ele>102.6</ele>
        <time>2024-04-07T13:24:25Z</time>
      </trkpt>
      <trkpt lat="49.30266" lon="-0.07944">
        <ele>102.6</ele>
        <time>2024-04-07T13:24:26Z</time>
      </trkpt>
      <trkpt lat="49.30268" lon="-0.07937">
        <ele>102.6</ele>
        <time>2024-04-07T13:24:27Z</time>
      </trkpt>
      <trkpt lat="49.3027" lon="-0.07931">
        <ele>102.6</ele>
        <time>2024-04-07T13:24:28Z</time>
      </trkpt>
      <trkpt lat="49.30272" lon="-0.07926">
        <ele>102.6</ele>
        <time>2024-04-07T13:24:29Z</time>
      </trkpt>
      <trkpt lat="49.30273" lon="-0.07922">
        <ele>102.6</ele>
        <time>2024-04-07T13:24:30Z</time>
      </trkpt>
      <trkpt lat="49.30273" lon="-0.07919">
        <ele>102.6</ele>
        <time>2024-04-07T13:24:31Z</time>
      </trkpt>
      <trkpt lat="49.30274" lon="-0.07916">
        <ele>102.6</ele>
        <time>2024-04-07T13:24:32Z</time>
      </trkpt>
      <trkpt lat="49.30274" lon="-0.07912">
        <ele>102.6</ele>
        <time>2024-04-07T13:24:33Z</time>
      </trkpt>
      <trkpt lat="49.30276" lon="-0.07907">
        <ele>102.6</ele>
        <time>2024-04-07T13:24:34Z</time>
      </trkpt>
      <trkpt lat="49.30277" lon="-0.07903">
        <ele>102.6</ele>
        <time>2024-04-07T13:24:35Z</time>
      </trkpt>
      <trkpt lat="49.30279" lon="-0.07898">
        <ele>102.6</ele>
        <time>2024-04-07T13:24:36Z</time>
      </trkpt>
      <trkpt lat="49.30281" lon="-0.07893">
        <ele>102.6</ele>
        <time>2024-04-07T13:24:37Z</time>
      </trkpt>
      <trkpt lat="49.30284" lon="-0.07887">
        <ele>102.6</ele>
        <time>2024-04-07T13:24:38Z</time>
      </trkpt>
      <trkpt lat="49.30286" lon="-0.07881">
        <ele>102.6</ele>
        <time>2024-04-07T13:24:39Z</time>
      </trkpt>
      <trkpt lat="49.30288" lon="-0.07874">
        <ele>102.6</ele>
        <time>2024-04-07T13:24:40Z</time>
      </trkpt>
      <trkpt lat="49.3029" lon="-0.07866">
        <ele>102.6</ele>
        <time>2024-04-07T13:24:41Z</time>
      </trkpt>
      <trkpt lat="49.30292" lon="-0.07859">
        <ele>102.6</ele>
        <time>2024-04-07T13:24:42Z</time>
      </trkpt>
      <trkpt lat="49.30295" lon="-0.07852">
        <ele>102.6</ele>
        <time>2024-04-07T13:24:43Z</time>
      </trkpt>
      <trkpt lat="49.30298" lon="-0.07846">
        <ele>102.6</ele>
        <time>2024-04-07T13:24:44Z</time>
      </trkpt>
      <trkpt lat="49.30301" lon="-0.07839">
        <ele>102.6</ele>
        <time>2024-04-07T13:24:45Z</time>
      </trkpt>
      <trkpt lat="49.30303" lon="-0.07831">
        <ele>102.6</ele>
        <time>2024-04-07T13:24:46Z</time>
      </trkpt>
      <trkpt lat="49.30304" lon="-0.07825">
        <ele>102.6</ele>
        <time>2024-04-07T13:24:47Z</time>
      </trkpt>
      <trkpt lat="49.30306" lon="-0.07818">
        <ele>102.6</ele>
        <time>2024-04-07T13:24:48Z</time>
      </trkpt>
      <trkpt lat="49.30309" lon="-0.07811">
        <ele>102.6</ele>
        <time>2024-04-07T13:24:49Z</time>
      </trkpt>
      <trkpt lat="49.30312" lon="-0.07803">
        <ele>102.6</ele>
        <time>2024-04-07T13:24:50Z</time>
      </trkpt>
      <trkpt lat="49.30314" lon="-0.07795">
        <ele>102.6</ele>
        <time>2024-04-07T13:24:51Z</time>
      </trkpt>
      <trkpt lat="49.30317" lon="-0.0779">
        <ele>102.8</ele>
        <time>2024-04-07T13:24:52Z</time>
      </trkpt>
      <trkpt lat="49.3032" lon="-0.07784">
        <ele>102.8</ele>
        <time>2024-04-07T13:24:53Z</time>
      </trkpt>
      <trkpt lat="49.30322" lon="-0.07776">
        <ele>102.8</ele>
        <time>2024-04-07T13:24:54Z</time>
      </trkpt>
      <trkpt lat="49.30325" lon="-0.07769">
        <ele>102.8</ele>
        <time>2024-04-07T13:24:55Z</time>
      </trkpt>
      <trkpt lat="49.30327" lon="-0.07761">
        <ele>102.8</ele>
        <time>2024-04-07T13:24:56Z</time>
      </trkpt>
      <trkpt lat="49.30329" lon="-0.07753">
        <ele>102.8</ele>
        <time>2024-04-07T13:24:57Z</time>
      </trkpt>
      <trkpt lat="49.30332" lon="-0.07745">
        <ele>102.8</ele>
        <time>2024-04-07T13:24:58Z</time>
      </trkpt>
      <trkpt lat="49.30334" lon="-0.07737">
        <ele>102.8</ele>
        <time>2024-04-07T13:24:59Z</time>
      </trkpt>
      <trkpt lat="49.30336" lon="-0.07729">
        <ele>102.8</ele>
        <time>2024-04-07T13:25:00Z</time>
      </trkpt>
      <trkpt lat="49.30339" lon="-0.07721">
        <ele>102.8</ele>
        <time>2024-04-07T13:25:01Z</time>
      </trkpt>
      <trkpt lat="49.30341" lon="-0.07713">
        <ele>102.8</ele>
        <time>2024-04-07T13:25:02Z</time>
      </trkpt>
      <trkpt lat="49.30344" lon="-0.07706">
        <ele>102.8</ele>
        <time>2024-04-07T13:25:03Z</time>
      </trkpt>
      <trkpt lat="49.30347" lon="-0.07698">
        <ele>102.8</ele>
        <time>2024-04-07T13:25:04Z</time>
      </trkpt>
      <trkpt lat="49.30349" lon="-0.0769">
        <ele>102.8</ele>
        <time>2024-04-07T13:25:05Z</time>
      </trkpt>
      <trkpt lat="49.30352" lon="-0.07682">
        <ele>102.8</ele>
        <time>2024-04-07T13:25:06Z</time>
      </trkpt>
      <trkpt lat="49.30355" lon="-0.07674">
        <ele>102.8</ele>
        <time>2024-04-07T13:25:07Z</time>
      </trkpt>
      <trkpt lat="49.30358" lon="-0.07666">
        <ele>102.8</ele>
        <time>2024-04-07T13:25:08Z</time>
      </trkpt>
      <trkpt lat="49.3036" lon="-0.07658">
        <ele>102.8</ele>
        <time>2024-04-07T13:25:09Z</time>
      </trkpt>
      <trkpt lat="49.30362" lon="-0.07647">
        <ele>102.8</ele>
        <time>2024-04-07T13:25:10Z</time>
      </trkpt>
      <trkpt lat="49.30365" lon="-0.07639">
        <ele>102.8</ele>
        <time>2024-04-07T13:25:11Z</time>
      </trkpt>
      <trkpt lat="49.30368" lon="-0.07631">
        <ele>102.8</ele>
        <time>2024-04-07T13:25:12Z</time>
      </trkpt>
      <trkpt lat="49.3037" lon="-0.07623">
        <ele>102.8</ele>
        <time>2024-04-07T13:25:13Z</time>
      </trkpt>
      <trkpt lat="49.30373" lon="-0.07615">
        <ele>102.8</ele>
        <time>2024-04-07T13:25:14Z</time>
      </trkpt>
      <trkpt lat="49.30376" lon="-0.07607">
        <ele>102.8</ele>
        <time>2024-04-07T13:25:15Z</time>
      </trkpt>
      <trkpt lat="49.30379" lon="-0.07601">
        <ele>102.8</ele>
        <time>2024-04-07T13:25:16Z</time>
      </trkpt>
      <trkpt lat="49.30381" lon="-0.07594">
        <ele>102.8</ele>
        <time>2024-04-07T13:25:17Z</time>
      </trkpt>
      <trkpt lat="49.30384" lon="-0.07587">
        <ele>102.8</ele>
        <time>2024-04-07T13:25:18Z</time>
      </trkpt>
      <trkpt lat="49.30387" lon="-0.07579">
        <ele>102.8</ele>
        <time>2024-04-07T13:25:19Z</time>
      </trkpt>
      <trkpt lat="49.3039" lon="-0.07571">
        <ele>102.8</ele>
        <time>2024-04-07T13:25:20Z</time>
      </trkpt>
      <trkpt lat="49.30393" lon="-0.07563">
        <ele>102.8</ele>
        <time>2024-04-07T13:25:21Z</time>
      </trkpt>
      <trkpt lat="49.30396" lon="-0.07554">
        <ele>102.8</ele>
        <time>2024-04-07T13:25:22Z</time>
      </trkpt>
      <trkpt lat="49.30398" lon="-0.07546">
        <ele>102.8</ele>
        <time>2024-04-07T13:25:23Z</time>
      </trkpt>
      <trkpt lat="49.30401" lon="-0.07538">
        <ele>102.8</ele>
        <time>2024-04-07T13:25:24Z</time>
      </trkpt>
      <trkpt lat="49.30404" lon="-0.07529">
        <ele>102.8</ele>
        <time>2024-04-07T13:25:25Z</time>
      </trkpt>
      <trkpt lat="49.30408" lon="-0.07521">
        <ele>102.8</ele>
        <time>2024-04-07T13:25:26Z</time>
      </trkpt>
      <trkpt lat="49.30411" lon="-0.07513">
        <ele>102.8</ele>
        <time>2024-04-07T13:25:27Z</time>
      </trkpt>
      <trkpt lat="49.30414" lon="-0.07505">
        <ele>102.8</ele>
        <time>2024-04-07T13:25:28Z</time>
      </trkpt>
      <trkpt lat="49.30417" lon="-0.07497">
        <ele>102.8</ele>
        <time>2024-04-07T13:25:29Z</time>
      </trkpt>
      <trkpt lat="49.3042" lon="-0.0749">
        <ele>102.8</ele>
        <time>2024-04-07T13:25:30Z</time>
      </trkpt>
      <trkpt lat="49.30422" lon="-0.07481">
        <ele>102.8</ele>
        <time>2024-04-07T13:25:31Z</time>
      </trkpt>
      <trkpt lat="49.30425" lon="-0.07473">
        <ele>102.8</ele>
        <time>2024-04-07T13:25:32Z</time>
      </trkpt>
      <trkpt lat="49.30427" lon="-0.07466">
        <ele>102.8</ele>
        <time>2024-04-07T13:25:33Z</time>
      </trkpt>
      <trkpt lat="49.30427" lon="-0.07459">
        <ele>102.8</ele>
        <time>2024-04-07T13:25:34Z</time>
      </trkpt>
      <trkpt lat="49.30425" lon="-0.07454">
        <ele>102.8</ele>
        <time>2024-04-07T13:25:35Z</time>
      </trkpt>
      <trkpt lat="49.30421" lon="-0.0745">
        <ele>102.8</ele>
        <time>2024-04-07T13:25:36Z</time>
      </trkpt>
      <trkpt lat="49.30416" lon="-0.07448">
        <ele>102.8</ele>
        <time>2024-04-07T13:25:37Z</time>
      </trkpt>
      <trkpt lat="49.30412" lon="-0.07445">
        <ele>102.8</ele>
        <time>2024-04-07T13:25:38Z</time>
      </trkpt>
      <trkpt lat="49.30407" lon="-0.07441">
        <ele>102.8</ele>
        <time>2024-04-07T13:25:39Z</time>
      </trkpt>
      <trkpt lat="49.30403" lon="-0.07436">
        <ele>102.8</ele>
        <time>2024-04-07T13:25:40Z</time>
      </trkpt>
      <trkpt lat="49.30398" lon="-0.07432">
        <ele>102.8</ele>
        <time>2024-04-07T13:25:41Z</time>
      </trkpt>
      <trkpt lat="49.30393" lon="-0.07429">
        <ele>102.8</ele>
        <time>2024-04-07T13:25:42Z</time>
      </trkpt>
      <trkpt lat="49.30388" lon="-0.07427">
        <ele>102.8</ele>
        <time>2024-04-07T13:25:43Z</time>
      </trkpt>
      <trkpt lat="49.30383" lon="-0.07426">
        <ele>102.8</ele>
        <time>2024-04-07T13:25:44Z</time>
      </trkpt>
      <trkpt lat="49.30378" lon="-0.07425">
        <ele>102.8</ele>
        <time>2024-04-07T13:25:45Z</time>
      </trkpt>
      <trkpt lat="49.30373" lon="-0.07425">
        <ele>102.8</ele>
        <time>2024-04-07T13:25:46Z</time>
      </trkpt>
      <trkpt lat="49.30368" lon="-0.07425">
        <ele>102.8</ele>
        <time>2024-04-07T13:25:47Z</time>
      </trkpt>
      <trkpt lat="49.30362" lon="-0.07423">
        <ele>102.8</ele>
        <time>2024-04-07T13:25:48Z</time>
      </trkpt>
      <trkpt lat="49.30357" lon="-0.07421">
        <ele>102.8</ele>
        <time>2024-04-07T13:25:49Z</time>
      </trkpt>
      <trkpt lat="49.30353" lon="-0.07418">
        <ele>102.8</ele>
        <time>2024-04-07T13:25:50Z</time>
      </trkpt>
      <trkpt lat="49.30349" lon="-0.07415">
        <ele>102.8</ele>
        <time>2024-04-07T13:25:51Z</time>
      </trkpt>
      <trkpt lat="49.30344" lon="-0.07411">
        <ele>103.6</ele>
        <time>2024-04-07T13:25:52Z</time>
      </trkpt>
      <trkpt lat="49.3034" lon="-0.07406">
        <ele>103.6</ele>
        <time>2024-04-07T13:25:53Z</time>
      </trkpt>
      <trkpt lat="49.30337" lon="-0.07401">
        <ele>103.6</ele>
        <time>2024-04-07T13:25:54Z</time>
      </trkpt>
      <trkpt lat="49.30333" lon="-0.07396">
        <ele>103.6</ele>
        <time>2024-04-07T13:25:55Z</time>
      </trkpt>
      <trkpt lat="49.30331" lon="-0.07391">
        <ele>103.6</ele>
        <time>2024-04-07T13:25:56Z</time>
      </trkpt>
      <trkpt lat="49.30328" lon="-0.07385">
        <ele>103.6</ele>
        <time>2024-04-07T13:25:57Z</time>
      </trkpt>
      <trkpt lat="49.30326" lon="-0.07378">
        <ele>103.6</ele>
        <time>2024-04-07T13:25:58Z</time>
      </trkpt>
      <trkpt lat="49.30324" lon="-0.07372">
        <ele>103.6</ele>
        <time>2024-04-07T13:25:59Z</time>
      </trkpt>
      <trkpt lat="49.30322" lon="-0.07365">
        <ele>103.6</ele>
        <time>2024-04-07T13:26:00Z</time>
      </trkpt>
      <trkpt lat="49.30319" lon="-0.0736">
        <ele>103.6</ele>
        <time>2024-04-07T13:26:01Z</time>
      </trkpt>
      <trkpt lat="49.30317" lon="-0.07355">
        <ele>103.6</ele>
        <time>2024-04-07T13:26:02Z</time>
      </trkpt>
      <trkpt lat="49.30315" lon="-0.07352">
        <ele>103.6</ele>
        <time>2024-04-07T13:26:03Z</time>
      </trkpt>
      <trkpt lat="49.30314" lon="-0.0735">
        <ele>103.6</ele>
        <time>2024-04-07T13:26:04Z</time>
      </trkpt>
      <trkpt lat="49.30313" lon="-0.0735">
        <ele>103.6</ele>
        <time>2024-04-07T13:26:05Z</time>
      </trkpt>
      <trkpt lat="49.30312" lon="-0.0735">
        <ele>103.6</ele>
        <time>2024-04-07T13:26:06Z</time>
      </trkpt>
      <trkpt lat="49.30313" lon="-0.0735">
        <ele>103.6</ele>
        <time>2024-04-07T13:26:07Z</time>
      </trkpt>
      <trkpt lat="49.30312" lon="-0.0735">
        <ele>103.6</ele>
        <time>2024-04-07T13:26:08Z</time>
      </trkpt>
      <trkpt lat="49.30311" lon="-0.0735">
        <ele>103.6</ele>
        <time>2024-04-07T13:26:09Z</time>
      </trkpt>
      <trkpt lat="49.30309" lon="-0.07349">
        <ele>103.6</ele>
        <time>2024-04-07T13:26:10Z</time>
      </trkpt>
      <trkpt lat="49.30307" lon="-0.07348">
        <ele>103.6</ele>
        <time>2024-04-07T13:26:11Z</time>
      </trkpt>
      <trkpt lat="49.30305" lon="-0.07347">
        <ele>103.6</ele>
        <time>2024-04-07T13:26:12Z</time>
      </trkpt>
      <trkpt lat="49.30303" lon="-0.07345">
        <ele>103.6</ele>
        <time>2024-04-07T13:26:13Z</time>
      </trkpt>
      <trkpt lat="49.30301" lon="-0.07343">
        <ele>103.6</ele>
        <time>2024-04-07T13:26:14Z</time>
      </trkpt>
      <trkpt lat="49.30298" lon="-0.07341">
        <ele>103.6</ele>
        <time>2024-04-07T13:26:15Z</time>
      </trkpt>
      <trkpt lat="49.30296" lon="-0.07339">
        <ele>103.6</ele>
        <time>2024-04-07T13:26:16Z</time>
      </trkpt>
      <trkpt lat="49.30294" lon="-0.07336">
        <ele>103.6</ele>
        <time>2024-04-07T13:26:17Z</time>
      </trkpt>
      <trkpt lat="49.30292" lon="-0.07334">
        <ele>103.6</ele>
        <time>2024-04-07T13:26:18Z</time>
      </trkpt>
      <trkpt lat="49.3029" lon="-0.07331">
        <ele>103.6</ele>
        <time>2024-04-07T13:26:19Z</time>
      </trkpt>
      <trkpt lat="49.30287" lon="-0.07329">
        <ele>103.6</ele>
        <time>2024-04-07T13:26:20Z</time>
      </trkpt>
      <trkpt lat="49.30285" lon="-0.07327">
        <ele>103.6</ele>
        <time>2024-04-07T13:26:21Z</time>
      </trkpt>
      <trkpt lat="49.30283" lon="-0.07325">
        <ele>103.6</ele>
        <time>2024-04-07T13:26:22Z</time>
      </trkpt>
      <trkpt lat="49.3028" lon="-0.07323">
        <ele>103.6</ele>
        <time>2024-04-07T13:26:23Z</time>
      </trkpt>
      <trkpt lat="49.30277" lon="-0.0732">
        <ele>103.6</ele>
        <time>2024-04-07T13:26:24Z</time>
      </trkpt>
      <trkpt lat="49.30273" lon="-0.07317">
        <ele>103.6</ele>
        <time>2024-04-07T13:26:25Z</time>
      </trkpt>
      <trkpt lat="49.3027" lon="-0.07313">
        <ele>103.6</ele>
        <time>2024-04-07T13:26:26Z</time>
      </trkpt>
      <trkpt lat="49.30267" lon="-0.0731">
        <ele>103.6</ele>
        <time>2024-04-07T13:26:27Z</time>
      </trkpt>
      <trkpt lat="49.30263" lon="-0.07307">
        <ele>103.6</ele>
        <time>2024-04-07T13:26:28Z</time>
      </trkpt>
      <trkpt lat="49.3026" lon="-0.07303">
        <ele>103.6</ele>
        <time>2024-04-07T13:26:29Z</time>
      </trkpt>
      <trkpt lat="49.30256" lon="-0.07299">
        <ele>103.6</ele>
        <time>2024-04-07T13:26:30Z</time>
      </trkpt>
      <trkpt lat="49.30252" lon="-0.07295">
        <ele>103.6</ele>
        <time>2024-04-07T13:26:31Z</time>
      </trkpt>
      <trkpt lat="49.30248" lon="-0.07292">
        <ele>103.6</ele>
        <time>2024-04-07T13:26:32Z</time>
      </trkpt>
      <trkpt lat="49.30245" lon="-0.07288">
        <ele>103.6</ele>
        <time>2024-04-07T13:26:33Z</time>
      </trkpt>
      <trkpt lat="49.30241" lon="-0.07286">
        <ele>103.6</ele>
        <time>2024-04-07T13:26:34Z</time>
      </trkpt>
      <trkpt lat="49.30237" lon="-0.07283">
        <ele>103.6</ele>
        <time>2024-04-07T13:26:35Z</time>
      </trkpt>
      <trkpt lat="49.30233" lon="-0.0728">
        <ele>103.6</ele>
        <time>2024-04-07T13:26:36Z</time>
      </trkpt>
      <trkpt lat="49.3023" lon="-0.07276">
        <ele>103.6</ele>
        <time>2024-04-07T13:26:37Z</time>
      </trkpt>
      <trkpt lat="49.30226" lon="-0.07273">
        <ele>103.6</ele>
        <time>2024-04-07T13:26:38Z</time>
      </trkpt>
      <trkpt lat="49.30223" lon="-0.07269">
        <ele>103.6</ele>
        <time>2024-04-07T13:26:39Z</time>
      </trkpt>
      <trkpt lat="49.30219" lon="-0.07266">
        <ele>103.6</ele>
        <time>2024-04-07T13:26:40Z</time>
      </trkpt>
      <trkpt lat="49.30216" lon="-0.07263">
        <ele>103.6</ele>
        <time>2024-04-07T13:26:41Z</time>
      </trkpt>
      <trkpt lat="49.30212" lon="-0.0726">
        <ele>103.6</ele>
        <time>2024-04-07T13:26:42Z</time>
      </trkpt>
      <trkpt lat="49.30208" lon="-0.07256">
        <ele>103.6</ele>
        <time>2024-04-07T13:26:43Z</time>
      </trkpt>
      <trkpt lat="49.30205" lon="-0.07252">
        <ele>103.6</ele>
        <time>2024-04-07T13:26:44Z</time>
      </trkpt>
      <trkpt lat="49.30201" lon="-0.07248">
        <ele>103.6</ele>
        <time>2024-04-07T13:26:45Z</time>
      </trkpt>
      <trkpt lat="49.30198" lon="-0.07245">
        <ele>103.6</ele>
        <time>2024-04-07T13:26:46Z</time>
      </trkpt>
      <trkpt lat="49.30195" lon="-0.07242">
        <ele>103.6</ele>
        <time>2024-04-07T13:26:47Z</time>
      </trkpt>
      <trkpt lat="49.30192" lon="-0.07239">
        <ele>103.6</ele>
        <time>2024-04-07T13:26:48Z</time>
      </trkpt>
      <trkpt lat="49.30189" lon="-0.07236">
        <ele>103.6</ele>
        <time>2024-04-07T13:26:49Z</time>
      </trkpt>
      <trkpt lat="49.30186" lon="-0.07234">
        <ele>103.6</ele>
        <time>2024-04-07T13:26:50Z</time>
      </trkpt>
      <trkpt lat="49.30182" lon="-0.07232">
        <ele>103.6</ele>
        <time>2024-04-07T13:26:51Z</time>
      </trkpt>
      <trkpt lat="49.30179" lon="-0.07229">
        <ele>105.2</ele>
        <time>2024-04-07T13:26:52Z</time>
      </trkpt>
      <trkpt lat="49.30176" lon="-0.07226">
        <ele>105.2</ele>
        <time>2024-04-07T13:26:53Z</time>
      </trkpt>
      <trkpt lat="49.30173" lon="-0.07223">
        <ele>105.2</ele>
        <time>2024-04-07T13:26:54Z</time>
      </trkpt>
      <trkpt lat="49.3017" lon="-0.0722">
        <ele>105.2</ele>
        <time>2024-04-07T13:26:55Z</time>
      </trkpt>
      <trkpt lat="49.30167" lon="-0.07218">
        <ele>105.2</ele>
        <time>2024-04-07T13:26:56Z</time>
      </trkpt>
      <trkpt lat="49.30164" lon="-0.07215">
        <ele>105.2</ele>
        <time>2024-04-07T13:26:57Z</time>
      </trkpt>
      <trkpt lat="49.30161" lon="-0.07212">
        <ele>105.2</ele>
        <time>2024-04-07T13:26:58Z</time>
      </trkpt>
      <trkpt lat="49.30158" lon="-0.07209">
        <ele>105.2</ele>
        <time>2024-04-07T13:26:59Z</time>
      </trkpt>
      <trkpt lat="49.30156" lon="-0.07206">
        <ele>105.2</ele>
        <time>2024-04-07T13:27:00Z</time>
      </trkpt>
      <trkpt lat="49.30153" lon="-0.07203">
        <ele>105.2</ele>
        <time>2024-04-07T13:27:01Z</time>
      </trkpt>
      <trkpt lat="49.3015" lon="-0.072">
        <ele>105.2</ele>
        <time>2024-04-07T13:27:02Z</time>
      </trkpt>
      <trkpt lat="49.30147" lon="-0.07197">
        <ele>105.2</ele>
        <time>2024-04-07T13:27:03Z</time>
      </trkpt>
      <trkpt lat="49.30144" lon="-0.07194">
        <ele>105.2</ele>
        <time>2024-04-07T13:27:04Z</time>
      </trkpt>
      <trkpt lat="49.30141" lon="-0.0719">
        <ele>105.2</ele>
        <time>2024-04-07T13:27:05Z</time>
      </trkpt>
      <trkpt lat="49.30138" lon="-0.07189">
        <ele>105.2</ele>
        <time>2024-04-07T13:27:06Z</time>
      </trkpt>
      <trkpt lat="49.30134" lon="-0.07188">
        <ele>105.2</ele>
        <time>2024-04-07T13:27:07Z</time>
      </trkpt>
      <trkpt lat="49.30131" lon="-0.07187">
        <ele>105.2</ele>
        <time>2024-04-07T13:27:08Z</time>
      </trkpt>
      <trkpt lat="49.30127" lon="-0.07187">
        <ele>105.2</ele>
        <time>2024-04-07T13:27:09Z</time>
      </trkpt>
      <trkpt lat="49.30124" lon="-0.07186">
        <ele>105.2</ele>
        <time>2024-04-07T13:27:10Z</time>
      </trkpt>
      <trkpt lat="49.30121" lon="-0.07185">
        <ele>105.2</ele>
        <time>2024-04-07T13:27:11Z</time>
      </trkpt>
      <trkpt lat="49.30118" lon="-0.07184">
        <ele>105.2</ele>
        <time>2024-04-07T13:27:12Z</time>
      </trkpt>
      <trkpt lat="49.30115" lon="-0.07183">
        <ele>105.2</ele>
        <time>2024-04-07T13:27:13Z</time>
      </trkpt>
      <trkpt lat="49.30111" lon="-0.07183">
        <ele>105.2</ele>
        <time>2024-04-07T13:27:14Z</time>
      </trkpt>
      <trkpt lat="49.30107" lon="-0.07181">
        <ele>105.2</ele>
        <time>2024-04-07T13:27:15Z</time>
      </trkpt>
      <trkpt lat="49.30104" lon="-0.07178">
        <ele>105.2</ele>
        <time>2024-04-07T13:27:16Z</time>
      </trkpt>
      <trkpt lat="49.301" lon="-0.07176">
        <ele>105.2</ele>
        <time>2024-04-07T13:27:17Z</time>
      </trkpt>
      <trkpt lat="49.30096" lon="-0.07174">
        <ele>105.2</ele>
        <time>2024-04-07T13:27:18Z</time>
      </trkpt>
      <trkpt lat="49.30092" lon="-0.07172">
        <ele>105.2</ele>
        <time>2024-04-07T13:27:19Z</time>
      </trkpt>
      <trkpt lat="49.30087" lon="-0.07171">
        <ele>105.2</ele>
        <time>2024-04-07T13:27:20Z</time>
      </trkpt>
      <trkpt lat="49.30082" lon="-0.0717">
        <ele>105.2</ele>
        <time>2024-04-07T13:27:21Z</time>
      </trkpt>
      <trkpt lat="49.30077" lon="-0.0717">
        <ele>105.2</ele>
        <time>2024-04-07T13:27:22Z</time>
      </trkpt>
      <trkpt lat="49.30071" lon="-0.0717">
        <ele>105.2</ele>
        <time>2024-04-07T13:27:23Z</time>
      </trkpt>
      <trkpt lat="49.30065" lon="-0.07169">
        <ele>105.2</ele>
        <time>2024-04-07T13:27:24Z</time>
      </trkpt>
      <trkpt lat="49.30059" lon="-0.07169">
        <ele>105.2</ele>
        <time>2024-04-07T13:27:25Z</time>
      </trkpt>
      <trkpt lat="49.30053" lon="-0.07169">
        <ele>105.2</ele>
        <time>2024-04-07T13:27:26Z</time>
      </trkpt>
      <trkpt lat="49.30047" lon="-0.07169">
        <ele>105.2</ele>
        <time>2024-04-07T13:27:27Z</time>
      </trkpt>
      <trkpt lat="49.30041" lon="-0.07167">
        <ele>105.2</ele>
        <time>2024-04-07T13:27:28Z</time>
      </trkpt>
      <trkpt lat="49.30036" lon="-0.07166">
        <ele>105.2</ele>
        <time>2024-04-07T13:27:29Z</time>
      </trkpt>
      <trkpt lat="49.30031" lon="-0.07164">
        <ele>105.2</ele>
        <time>2024-04-07T13:27:30Z</time>
      </trkpt>
      <trkpt lat="49.30027" lon="-0.07163">
        <ele>105.2</ele>
        <time>2024-04-07T13:27:31Z</time>
      </trkpt>
      <trkpt lat="49.30022" lon="-0.07162">
        <ele>105.2</ele>
        <time>2024-04-07T13:27:32Z</time>
      </trkpt>
      <trkpt lat="49.30018" lon="-0.07162">
        <ele>105.2</ele>
        <time>2024-04-07T13:27:33Z</time>
      </trkpt>
      <trkpt lat="49.30014" lon="-0.07162">
        <ele>105.2</ele>
        <time>2024-04-07T13:27:34Z</time>
      </trkpt>
      <trkpt lat="49.30011" lon="-0.07162">
        <ele>105.2</ele>
        <time>2024-04-07T13:27:35Z</time>
      </trkpt>
      <trkpt lat="49.30007" lon="-0.07161">
        <ele>105.2</ele>
        <time>2024-04-07T13:27:36Z</time>
      </trkpt>
      <trkpt lat="49.30003" lon="-0.07159">
        <ele>105.2</ele>
        <time>2024-04-07T13:27:37Z</time>
      </trkpt>
      <trkpt lat="49.30001" lon="-0.07158">
        <ele>105.2</ele>
        <time>2024-04-07T13:27:38Z</time>
      </trkpt>
      <trkpt lat="49.29998" lon="-0.07157">
        <ele>105.2</ele>
        <time>2024-04-07T13:27:39Z</time>
      </trkpt>
      <trkpt lat="49.29994" lon="-0.07157">
        <ele>105.2</ele>
        <time>2024-04-07T13:27:40Z</time>
      </trkpt>
      <trkpt lat="49.29992" lon="-0.07158">
        <ele>105.2</ele>
        <time>2024-04-07T13:27:41Z</time>
      </trkpt>
      <trkpt lat="49.29988" lon="-0.07162">
        <ele>105.2</ele>
        <time>2024-04-07T13:27:42Z</time>
      </trkpt>
      <trkpt lat="49.29985" lon="-0.07166">
        <ele>105.2</ele>
        <time>2024-04-07T13:27:43Z</time>
      </trkpt>
      <trkpt lat="49.2998" lon="-0.07171">
        <ele>105.2</ele>
        <time>2024-04-07T13:27:44Z</time>
      </trkpt>
      <trkpt lat="49.29976" lon="-0.07177">
        <ele>105.2</ele>
        <time>2024-04-07T13:27:45Z</time>
      </trkpt>
      <trkpt lat="49.29971" lon="-0.07182">
        <ele>105.2</ele>
        <time>2024-04-07T13:27:46Z</time>
      </trkpt>
      <trkpt lat="49.29965" lon="-0.07189">
        <ele>105.2</ele>
        <time>2024-04-07T13:27:47Z</time>
      </trkpt>
      <trkpt lat="49.2996" lon="-0.07195">
        <ele>105.2</ele>
        <time>2024-04-07T13:27:48Z</time>
      </trkpt>
      <trkpt lat="49.29954" lon="-0.07202">
        <ele>105.2</ele>
        <time>2024-04-07T13:27:49Z</time>
      </trkpt>
      <trkpt lat="49.29948" lon="-0.07209">
        <ele>105.2</ele>
        <time>2024-04-07T13:27:50Z</time>
      </trkpt>
      <trkpt lat="49.29941" lon="-0.07217">
        <ele>105.2</ele>
        <time>2024-04-07T13:27:51Z</time>
      </trkpt>
      <trkpt lat="49.29934" lon="-0.07224">
        <ele>108.2</ele>
        <time>2024-04-07T13:27:52Z</time>
      </trkpt>
      <trkpt lat="49.29928" lon="-0.07231">
        <ele>108.2</ele>
        <time>2024-04-07T13:27:53Z</time>
      </trkpt>
      <trkpt lat="49.29922" lon="-0.07238">
        <ele>108.2</ele>
        <time>2024-04-07T13:27:54Z</time>
      </trkpt>
      <trkpt lat="49.29916" lon="-0.07245">
        <ele>108.2</ele>
        <time>2024-04-07T13:27:55Z</time>
      </trkpt>
      <trkpt lat="49.29911" lon="-0.07252">
        <ele>108.2</ele>
        <time>2024-04-07T13:27:56Z</time>
      </trkpt>
      <trkpt lat="49.29905" lon="-0.07258">
        <ele>108.2</ele>
        <time>2024-04-07T13:27:57Z</time>
      </trkpt>
      <trkpt lat="49.29901" lon="-0.07264">
        <ele>108.2</ele>
        <time>2024-04-07T13:27:58Z</time>
      </trkpt>
      <trkpt lat="49.29898" lon="-0.07269">
        <ele>108.2</ele>
        <time>2024-04-07T13:27:59Z</time>
      </trkpt>
      <trkpt lat="49.29895" lon="-0.07273">
        <ele>108.2</ele>
        <time>2024-04-07T13:28:00Z</time>
      </trkpt>
      <trkpt lat="49.29892" lon="-0.07277">
        <ele>108.2</ele>
        <time>2024-04-07T13:28:01Z</time>
      </trkpt>
      <trkpt lat="49.29889" lon="-0.07279">
        <ele>108.2</ele>
        <time>2024-04-07T13:28:02Z</time>
      </trkpt>
      <trkpt lat="49.29886" lon="-0.0728">
        <ele>108.2</ele>
        <time>2024-04-07T13:28:03Z</time>
      </trkpt>
      <trkpt lat="49.29882" lon="-0.0728">
        <ele>108.2</ele>
        <time>2024-04-07T13:28:04Z</time>
      </trkpt>
      <trkpt lat="49.29878" lon="-0.07279">
        <ele>108.2</ele>
        <time>2024-04-07T13:28:05Z</time>
      </trkpt>
      <trkpt lat="49.29874" lon="-0.07276">
        <ele>108.2</ele>
        <time>2024-04-07T13:28:06Z</time>
      </trkpt>
      <trkpt lat="49.2987" lon="-0.07272">
        <ele>108.2</ele>
        <time>2024-04-07T13:28:07Z</time>
      </trkpt>
      <trkpt lat="49.29866" lon="-0.07268">
        <ele>108.2</ele>
        <time>2024-04-07T13:28:08Z</time>
      </trkpt>
      <trkpt lat="49.29861" lon="-0.07263">
        <ele>108.2</ele>
        <time>2024-04-07T13:28:09Z</time>
      </trkpt>
      <trkpt lat="49.29856" lon="-0.07258">
        <ele>108.2</ele>
        <time>2024-04-07T13:28:10Z</time>
      </trkpt>
      <trkpt lat="49.29851" lon="-0.07254">
        <ele>108.2</ele>
        <time>2024-04-07T13:28:11Z</time>
      </trkpt>
      <trkpt lat="49.29846" lon="-0.07249">
        <ele>108.2</ele>
        <time>2024-04-07T13:28:12Z</time>
      </trkpt>
      <trkpt lat="49.29841" lon="-0.07243">
        <ele>108.2</ele>
        <time>2024-04-07T13:28:13Z</time>
      </trkpt>
      <trkpt lat="49.29836" lon="-0.07238">
        <ele>108.2</ele>
        <time>2024-04-07T13:28:14Z</time>
      </trkpt>
      <trkpt lat="49.29832" lon="-0.07233">
        <ele>108.2</ele>
        <time>2024-04-07T13:28:15Z</time>
      </trkpt>
      <trkpt lat="49.29827" lon="-0.07227">
        <ele>108.2</ele>
        <time>2024-04-07T13:28:16Z</time>
      </trkpt>
      <trkpt lat="49.29822" lon="-0.07221">
        <ele>108.2</ele>
        <time>2024-04-07T13:28:17Z</time>
      </trkpt>
      <trkpt lat="49.29818" lon="-0.07216">
        <ele>108.2</ele>
        <time>2024-04-07T13:28:18Z</time>
      </trkpt>
      <trkpt lat="49.29813" lon="-0.07212">
        <ele>108.2</ele>
        <time>2024-04-07T13:28:19Z</time>
      </trkpt>
      <trkpt lat="49.29808" lon="-0.07207">
        <ele>108.2</ele>
        <time>2024-04-07T13:28:20Z</time>
      </trkpt>
      <trkpt lat="49.29802" lon="-0.07202">
        <ele>108.2</ele>
        <time>2024-04-07T13:28:21Z</time>
      </trkpt>
      <trkpt lat="49.29797" lon="-0.07197">
        <ele>108.2</ele>
        <time>2024-04-07T13:28:22Z</time>
      </trkpt>
      <trkpt lat="49.29792" lon="-0.07193">
        <ele>108.2</ele>
        <time>2024-04-07T13:28:23Z</time>
      </trkpt>
      <trkpt lat="49.29786" lon="-0.07189">
        <ele>108.2</ele>
        <time>2024-04-07T13:28:24Z</time>
      </trkpt>
      <trkpt lat="49.29781" lon="-0.07184">
        <ele>108.2</ele>
        <time>2024-04-07T13:28:25Z</time>
      </trkpt>
      <trkpt lat="49.29775" lon="-0.07181">
        <ele>108.2</ele>
        <time>2024-04-07T13:28:26Z</time>
      </trkpt>
      <trkpt lat="49.29769" lon="-0.07178">
        <ele>108.2</ele>
        <time>2024-04-07T13:28:27Z</time>
      </trkpt>
      <trkpt lat="49.29762" lon="-0.07176">
        <ele>108.2</ele>
        <time>2024-04-07T13:28:28Z</time>
      </trkpt>
      <trkpt lat="49.29756" lon="-0.07174">
        <ele>108.2</ele>
        <time>2024-04-07T13:28:29Z</time>
      </trkpt>
      <trkpt lat="49.2975" lon="-0.07173">
        <ele>108.2</ele>
        <time>2024-04-07T13:28:30Z</time>
      </trkpt>
      <trkpt lat="49.29744" lon="-0.07171">
        <ele>108.2</ele>
        <time>2024-04-07T13:28:31Z</time>
      </trkpt>
      <trkpt lat="49.29738" lon="-0.0717">
        <ele>108.2</ele>
        <time>2024-04-07T13:28:32Z</time>
      </trkpt>
      <trkpt lat="49.29733" lon="-0.07167">
        <ele>108.2</ele>
        <time>2024-04-07T13:28:33Z</time>
      </trkpt>
      <trkpt lat="49.29727" lon="-0.07165">
        <ele>108.2</ele>
        <time>2024-04-07T13:28:34Z</time>
      </trkpt>
      <trkpt lat="49.29721" lon="-0.07162">
        <ele>108.2</ele>
        <time>2024-04-07T13:28:35Z</time>
      </trkpt>
      <trkpt lat="49.29716" lon="-0.07159">
        <ele>108.2</ele>
        <time>2024-04-07T13:28:36Z</time>
      </trkpt>
      <trkpt lat="49.29711" lon="-0.07154">
        <ele>108.2</ele>
        <time>2024-04-07T13:28:37Z</time>
      </trkpt>
      <trkpt lat="49.29707" lon="-0.0715">
        <ele>108.2</ele>
        <time>2024-04-07T13:28:38Z</time>
      </trkpt>
      <trkpt lat="49.29703" lon="-0.07144">
        <ele>108.2</ele>
        <time>2024-04-07T13:28:39Z</time>
      </trkpt>
      <trkpt lat="49.29699" lon="-0.07139">
        <ele>108.2</ele>
        <time>2024-04-07T13:28:40Z</time>
      </trkpt>
      <trkpt lat="49.29694" lon="-0.07134">
        <ele>108.2</ele>
        <time>2024-04-07T13:28:41Z</time>
      </trkpt>
      <trkpt lat="49.2969" lon="-0.0713">
        <ele>108.2</ele>
        <time>2024-04-07T13:28:42Z</time>
      </trkpt>
      <trkpt lat="49.29685" lon="-0.07125">
        <ele>108.2</ele>
        <time>2024-04-07T13:28:43Z</time>
      </trkpt>
      <trkpt lat="49.29681" lon="-0.0712">
        <ele>108.2</ele>
        <time>2024-04-07T13:28:44Z</time>
      </trkpt>
      <trkpt lat="49.29677" lon="-0.07114">
        <ele>108.2</ele>
        <time>2024-04-07T13:28:45Z</time>
      </trkpt>
      <trkpt lat="49.29672" lon="-0.07109">
        <ele>108.2</ele>
        <time>2024-04-07T13:28:46Z</time>
      </trkpt>
      <trkpt lat="49.29668" lon="-0.07104">
        <ele>108.2</ele>
        <time>2024-04-07T13:28:47Z</time>
      </trkpt>
      <trkpt lat="49.29664" lon="-0.07099">
        <ele>108.2</ele>
        <time>2024-04-07T13:28:48Z</time>
      </trkpt>
      <trkpt lat="49.29659" lon="-0.07094">
        <ele>108.2</ele>
        <time>2024-04-07T13:28:49Z</time>
      </trkpt>
      <trkpt lat="49.29654" lon="-0.07089">
        <ele>108.2</ele>
        <time>2024-04-07T13:28:50Z</time>
      </trkpt>
      <trkpt lat="49.2965" lon="-0.07084">
        <ele>108.2</ele>
        <time>2024-04-07T13:28:51Z</time>
      </trkpt>
      <trkpt lat="49.29646" lon="-0.07079">
        <ele>111.2</ele>
        <time>2024-04-07T13:28:52Z</time>
      </trkpt>
      <trkpt lat="49.29641" lon="-0.07074">
        <ele>111.2</ele>
        <time>2024-04-07T13:28:53Z</time>
      </trkpt>
      <trkpt lat="49.29637" lon="-0.07069">
        <ele>111.2</ele>
        <time>2024-04-07T13:28:54Z</time>
      </trkpt>
      <trkpt lat="49.29633" lon="-0.07064">
        <ele>111.2</ele>
        <time>2024-04-07T13:28:55Z</time>
      </trkpt>
      <trkpt lat="49.29628" lon="-0.07058">
        <ele>111.2</ele>
        <time>2024-04-07T13:28:56Z</time>
      </trkpt>
      <trkpt lat="49.29624" lon="-0.07053">
        <ele>111.2</ele>
        <time>2024-04-07T13:28:57Z</time>
      </trkpt>
      <trkpt lat="49.2962" lon="-0.07047">
        <ele>111.2</ele>
        <time>2024-04-07T13:28:58Z</time>
      </trkpt>
      <trkpt lat="49.29615" lon="-0.07042">
        <ele>111.2</ele>
        <time>2024-04-07T13:28:59Z</time>
      </trkpt>
      <trkpt lat="49.29611" lon="-0.07036">
        <ele>111.2</ele>
        <time>2024-04-07T13:29:00Z</time>
      </trkpt>
      <trkpt lat="49.29607" lon="-0.07031">
        <ele>111.2</ele>
        <time>2024-04-07T13:29:01Z</time>
      </trkpt>
      <trkpt lat="49.29602" lon="-0.07026">
        <ele>111.2</ele>
        <time>2024-04-07T13:29:02Z</time>
      </trkpt>
      <trkpt lat="49.29597" lon="-0.07021">
        <ele>111.2</ele>
        <time>2024-04-07T13:29:03Z</time>
      </trkpt>
      <trkpt lat="49.29593" lon="-0.07016">
        <ele>111.2</ele>
        <time>2024-04-07T13:29:04Z</time>
      </trkpt>
      <trkpt lat="49.29589" lon="-0.07011">
        <ele>111.2</ele>
        <time>2024-04-07T13:29:05Z</time>
      </trkpt>
      <trkpt lat="49.29585" lon="-0.07005">
        <ele>111.2</ele>
        <time>2024-04-07T13:29:06Z</time>
      </trkpt>
      <trkpt lat="49.2958" lon="-0.07">
        <ele>111.2</ele>
        <time>2024-04-07T13:29:07Z</time>
      </trkpt>
      <trkpt lat="49.29576" lon="-0.06994">
        <ele>111.2</ele>
        <time>2024-04-07T13:29:08Z</time>
      </trkpt>
      <trkpt lat="49.29572" lon="-0.06988">
        <ele>111.2</ele>
        <time>2024-04-07T13:29:09Z</time>
      </trkpt>
      <trkpt lat="49.29567" lon="-0.06982">
        <ele>111.2</ele>
        <time>2024-04-07T13:29:10Z</time>
      </trkpt>
      <trkpt lat="49.29563" lon="-0.06977">
        <ele>111.2</ele>
        <time>2024-04-07T13:29:11Z</time>
      </trkpt>
      <trkpt lat="49.29559" lon="-0.06971">
        <ele>111.2</ele>
        <time>2024-04-07T13:29:12Z</time>
      </trkpt>
      <trkpt lat="49.29555" lon="-0.06964">
        <ele>111.2</ele>
        <time>2024-04-07T13:29:13Z</time>
      </trkpt>
      <trkpt lat="49.29551" lon="-0.06958">
        <ele>111.2</ele>
        <time>2024-04-07T13:29:14Z</time>
      </trkpt>
      <trkpt lat="49.29547" lon="-0.06951">
        <ele>111.2</ele>
        <time>2024-04-07T13:29:15Z</time>
      </trkpt>
      <trkpt lat="49.29543" lon="-0.06944">
        <ele>111.2</ele>
        <time>2024-04-07T13:29:16Z</time>
      </trkpt>
      <trkpt lat="49.29539" lon="-0.06938">
        <ele>111.2</ele>
        <time>2024-04-07T13:29:17Z</time>
      </trkpt>
      <trkpt lat="49.29535" lon="-0.06931">
        <ele>111.2</ele>
        <time>2024-04-07T13:29:18Z</time>
      </trkpt>
      <trkpt lat="49.29531" lon="-0.06924">
        <ele>111.2</ele>
        <time>2024-04-07T13:29:19Z</time>
      </trkpt>
      <trkpt lat="49.29527" lon="-0.06917">
        <ele>111.2</ele>
        <time>2024-04-07T13:29:20Z</time>
      </trkpt>
      <trkpt lat="49.29523" lon="-0.0691">
        <ele>111.2</ele>
        <time>2024-04-07T13:29:21Z</time>
      </trkpt>
      <trkpt lat="49.29519" lon="-0.06904">
        <ele>111.2</ele>
        <time>2024-04-07T13:29:22Z</time>
      </trkpt>
      <trkpt lat="49.29516" lon="-0.06897">
        <ele>111.2</ele>
        <time>2024-04-07T13:29:23Z</time>
      </trkpt>
      <trkpt lat="49.29513" lon="-0.0689">
        <ele>111.2</ele>
        <time>2024-04-07T13:29:24Z</time>
      </trkpt>
      <trkpt lat="49.29509" lon="-0.06884">
        <ele>111.2</ele>
        <time>2024-04-07T13:29:25Z</time>
      </trkpt>
      <trkpt lat="49.29506" lon="-0.06877">
        <ele>111.2</ele>
        <time>2024-04-07T13:29:26Z</time>
      </trkpt>
      <trkpt lat="49.29504" lon="-0.06871">
        <ele>111.2</ele>
        <time>2024-04-07T13:29:27Z</time>
      </trkpt>
      <trkpt lat="49.29501" lon="-0.06865">
        <ele>111.2</ele>
        <time>2024-04-07T13:29:28Z</time>
      </trkpt>
      <trkpt lat="49.29498" lon="-0.06858">
        <ele>111.2</ele>
        <time>2024-04-07T13:29:29Z</time>
      </trkpt>
      <trkpt lat="49.29495" lon="-0.06851">
        <ele>111.2</ele>
        <time>2024-04-07T13:29:30Z</time>
      </trkpt>
      <trkpt lat="49.29492" lon="-0.06844">
        <ele>111.2</ele>
        <time>2024-04-07T13:29:31Z</time>
      </trkpt>
      <trkpt lat="49.2949" lon="-0.06837">
        <ele>111.2</ele>
        <time>2024-04-07T13:29:32Z</time>
      </trkpt>
      <trkpt lat="49.29487" lon="-0.06829">
        <ele>111.2</ele>
        <time>2024-04-07T13:29:33Z</time>
      </trkpt>
      <trkpt lat="49.29485" lon="-0.06821">
        <ele>111.2</ele>
        <time>2024-04-07T13:29:34Z</time>
      </trkpt>
      <trkpt lat="49.29482" lon="-0.06813">
        <ele>111.2</ele>
        <time>2024-04-07T13:29:35Z</time>
      </trkpt>
      <trkpt lat="49.2948" lon="-0.06804">
        <ele>111.2</ele>
        <time>2024-04-07T13:29:36Z</time>
      </trkpt>
      <trkpt lat="49.29478" lon="-0.06796">
        <ele>111.2</ele>
        <time>2024-04-07T13:29:37Z</time>
      </trkpt>
      <trkpt lat="49.29477" lon="-0.06787">
        <ele>111.2</ele>
        <time>2024-04-07T13:29:38Z</time>
      </trkpt>
      <trkpt lat="49.29475" lon="-0.06779">
        <ele>111.2</ele>
        <time>2024-04-07T13:29:39Z</time>
      </trkpt>
      <trkpt lat="49.29474" lon="-0.0677">
        <ele>111.2</ele>
        <time>2024-04-07T13:29:40Z</time>
      </trkpt>
      <trkpt lat="49.29473" lon="-0.06762">
        <ele>111.2</ele>
        <time>2024-04-07T13:29:41Z</time>
      </trkpt>
      <trkpt lat="49.29472" lon="-0.06754">
        <ele>111.2</ele>
        <time>2024-04-07T13:29:42Z</time>
      </trkpt>
      <trkpt lat="49.29472" lon="-0.06746">
        <ele>111.2</ele>
        <time>2024-04-07T13:29:43Z</time>
      </trkpt>
      <trkpt lat="49.29471" lon="-0.06739">
        <ele>111.2</ele>
        <time>2024-04-07T13:29:44Z</time>
      </trkpt>
      <trkpt lat="49.29471" lon="-0.06732">
        <ele>111.2</ele>
        <time>2024-04-07T13:29:45Z</time>
      </trkpt>
      <trkpt lat="49.2947" lon="-0.06727">
        <ele>111.2</ele>
        <time>2024-04-07T13:29:46Z</time>
      </trkpt>
      <trkpt lat="49.2947" lon="-0.06723">
        <ele>111.2</ele>
        <time>2024-04-07T13:29:47Z</time>
      </trkpt>
      <trkpt lat="49.2947" lon="-0.0672">
        <ele>111.2</ele>
        <time>2024-04-07T13:29:48Z</time>
      </trkpt>
      <trkpt lat="49.2947" lon="-0.06717">
        <ele>111.2</ele>
        <time>2024-04-07T13:29:49Z</time>
      </trkpt>
      <trkpt lat="49.2947" lon="-0.06714">
        <ele>111.2</ele>
        <time>2024-04-07T13:29:50Z</time>
      </trkpt>
      <trkpt lat="49.29469" lon="-0.06711">
        <ele>111.2</ele>
        <time>2024-04-07T13:29:51Z</time>
      </trkpt>
      <trkpt lat="49.29468" lon="-0.06708">
        <ele>113</ele>
        <time>2024-04-07T13:29:52Z</time>
      </trkpt>
      <trkpt lat="49.29466" lon="-0.06706">
        <ele>113</ele>
        <time>2024-04-07T13:29:53Z</time>
      </trkpt>
      <trkpt lat="49.29464" lon="-0.06703">
        <ele>113</ele>
        <time>2024-04-07T13:29:54Z</time>
      </trkpt>
      <trkpt lat="49.29464" lon="-0.06698">
        <ele>113</ele>
        <time>2024-04-07T13:29:55Z</time>
      </trkpt>
      <trkpt lat="49.29465" lon="-0.06693">
        <ele>113</ele>
        <time>2024-04-07T13:29:56Z</time>
      </trkpt>
      <trkpt lat="49.29467" lon="-0.06688">
        <ele>113</ele>
        <time>2024-04-07T13:29:57Z</time>
      </trkpt>
      <trkpt lat="49.2947" lon="-0.06682">
        <ele>113</ele>
        <time>2024-04-07T13:29:58Z</time>
      </trkpt>
      <trkpt lat="49.29472" lon="-0.06675">
        <ele>113</ele>
        <time>2024-04-07T13:29:59Z</time>
      </trkpt>
      <trkpt lat="49.29474" lon="-0.06669">
        <ele>113</ele>
        <time>2024-04-07T13:30:00Z</time>
      </trkpt>
      <trkpt lat="49.29475" lon="-0.06662">
        <ele>113</ele>
        <time>2024-04-07T13:30:01Z</time>
      </trkpt>
      <trkpt lat="49.29476" lon="-0.06654">
        <ele>113</ele>
        <time>2024-04-07T13:30:02Z</time>
      </trkpt>
      <trkpt lat="49.29478" lon="-0.06646">
        <ele>113</ele>
        <time>2024-04-07T13:30:03Z</time>
      </trkpt>
      <trkpt lat="49.29479" lon="-0.06639">
        <ele>113</ele>
        <time>2024-04-07T13:30:04Z</time>
      </trkpt>
      <trkpt lat="49.2948" lon="-0.06631">
        <ele>113</ele>
        <time>2024-04-07T13:30:05Z</time>
      </trkpt>
      <trkpt lat="49.29482" lon="-0.06623">
        <ele>113</ele>
        <time>2024-04-07T13:30:06Z</time>
      </trkpt>
      <trkpt lat="49.29484" lon="-0.06615">
        <ele>113</ele>
        <time>2024-04-07T13:30:07Z</time>
      </trkpt>
      <trkpt lat="49.29485" lon="-0.06607">
        <ele>113</ele>
        <time>2024-04-07T13:30:08Z</time>
      </trkpt>
      <trkpt lat="49.29487" lon="-0.06599">
        <ele>113</ele>
        <time>2024-04-07T13:30:09Z</time>
      </trkpt>
      <trkpt lat="49.29489" lon="-0.06591">
        <ele>113</ele>
        <time>2024-04-07T13:30:10Z</time>
      </trkpt>
      <trkpt lat="49.29491" lon="-0.06583">
        <ele>113</ele>
        <time>2024-04-07T13:30:11Z</time>
      </trkpt>
      <trkpt lat="49.29493" lon="-0.06574">
        <ele>113</ele>
        <time>2024-04-07T13:30:12Z</time>
      </trkpt>
      <trkpt lat="49.29495" lon="-0.06565">
        <ele>113</ele>
        <time>2024-04-07T13:30:13Z</time>
      </trkpt>
      <trkpt lat="49.29497" lon="-0.06557">
        <ele>113</ele>
        <time>2024-04-07T13:30:14Z</time>
      </trkpt>
      <trkpt lat="49.29499" lon="-0.06548">
        <ele>113</ele>
        <time>2024-04-07T13:30:15Z</time>
      </trkpt>
      <trkpt lat="49.29501" lon="-0.06538">
        <ele>113</ele>
        <time>2024-04-07T13:30:16Z</time>
      </trkpt>
      <trkpt lat="49.29502" lon="-0.06529">
        <ele>113</ele>
        <time>2024-04-07T13:30:17Z</time>
      </trkpt>
      <trkpt lat="49.29504" lon="-0.0652">
        <ele>113</ele>
        <time>2024-04-07T13:30:18Z</time>
      </trkpt>
      <trkpt lat="49.29506" lon="-0.06511">
        <ele>113</ele>
        <time>2024-04-07T13:30:19Z</time>
      </trkpt>
      <trkpt lat="49.29508" lon="-0.06502">
        <ele>113</ele>
        <time>2024-04-07T13:30:20Z</time>
      </trkpt>
      <trkpt lat="49.2951" lon="-0.06493">
        <ele>113</ele>
        <time>2024-04-07T13:30:21Z</time>
      </trkpt>
      <trkpt lat="49.29512" lon="-0.06484">
        <ele>113</ele>
        <time>2024-04-07T13:30:22Z</time>
      </trkpt>
      <trkpt lat="49.29514" lon="-0.06474">
        <ele>113</ele>
        <time>2024-04-07T13:30:23Z</time>
      </trkpt>
      <trkpt lat="49.29516" lon="-0.06465">
        <ele>113</ele>
        <time>2024-04-07T13:30:24Z</time>
      </trkpt>
      <trkpt lat="49.29518" lon="-0.06456">
        <ele>113</ele>
        <time>2024-04-07T13:30:25Z</time>
      </trkpt>
      <trkpt lat="49.2952" lon="-0.06447">
        <ele>113</ele>
        <time>2024-04-07T13:30:26Z</time>
      </trkpt>
      <trkpt lat="49.29521" lon="-0.06438">
        <ele>113</ele>
        <time>2024-04-07T13:30:27Z</time>
      </trkpt>
      <trkpt lat="49.29523" lon="-0.06429">
        <ele>113</ele>
        <time>2024-04-07T13:30:28Z</time>
      </trkpt>
      <trkpt lat="49.29525" lon="-0.06421">
        <ele>113</ele>
        <time>2024-04-07T13:30:29Z</time>
      </trkpt>
      <trkpt lat="49.29527" lon="-0.06412">
        <ele>113</ele>
        <time>2024-04-07T13:30:30Z</time>
      </trkpt>
      <trkpt lat="49.29529" lon="-0.06403">
        <ele>113</ele>
        <time>2024-04-07T13:30:31Z</time>
      </trkpt>
      <trkpt lat="49.2953" lon="-0.06394">
        <ele>113</ele>
        <time>2024-04-07T13:30:32Z</time>
      </trkpt>
      <trkpt lat="49.29532" lon="-0.06385">
        <ele>113</ele>
        <time>2024-04-07T13:30:33Z</time>
      </trkpt>
      <trkpt lat="49.29535" lon="-0.06376">
        <ele>113</ele>
        <time>2024-04-07T13:30:34Z</time>
      </trkpt>
      <trkpt lat="49.29537" lon="-0.06367">
        <ele>113</ele>
        <time>2024-04-07T13:30:35Z</time>
      </trkpt>
      <trkpt lat="49.29541" lon="-0.06359">
        <ele>113</ele>
        <time>2024-04-07T13:30:36Z</time>
      </trkpt>
      <trkpt lat="49.29544" lon="-0.06351">
        <ele>113</ele>
        <time>2024-04-07T13:30:37Z</time>
      </trkpt>
      <trkpt lat="49.29548" lon="-0.06344">
        <ele>113</ele>
        <time>2024-04-07T13:30:38Z</time>
      </trkpt>
      <trkpt lat="49.29552" lon="-0.06336">
        <ele>113</ele>
        <time>2024-04-07T13:30:39Z</time>
      </trkpt>
      <trkpt lat="49.29556" lon="-0.06328">
        <ele>113</ele>
        <time>2024-04-07T13:30:40Z</time>
      </trkpt>
      <trkpt lat="49.2956" lon="-0.0632">
        <ele>113</ele>
        <time>2024-04-07T13:30:41Z</time>
      </trkpt>
      <trkpt lat="49.29563" lon="-0.06311">
        <ele>113</ele>
        <time>2024-04-07T13:30:42Z</time>
      </trkpt>
      <trkpt lat="49.29567" lon="-0.06303">
        <ele>113</ele>
        <time>2024-04-07T13:30:43Z</time>
      </trkpt>
      <trkpt lat="49.29569" lon="-0.06294">
        <ele>113</ele>
        <time>2024-04-07T13:30:44Z</time>
      </trkpt>
      <trkpt lat="49.29572" lon="-0.06284">
        <ele>113</ele>
        <time>2024-04-07T13:30:45Z</time>
      </trkpt>
      <trkpt lat="49.29574" lon="-0.06275">
        <ele>113</ele>
        <time>2024-04-07T13:30:46Z</time>
      </trkpt>
      <trkpt lat="49.29575" lon="-0.06266">
        <ele>113</ele>
        <time>2024-04-07T13:30:47Z</time>
      </trkpt>
      <trkpt lat="49.29576" lon="-0.06256">
        <ele>113</ele>
        <time>2024-04-07T13:30:48Z</time>
      </trkpt>
      <trkpt lat="49.29576" lon="-0.06247">
        <ele>113</ele>
        <time>2024-04-07T13:30:49Z</time>
      </trkpt>
      <trkpt lat="49.29576" lon="-0.06237">
        <ele>113</ele>
        <time>2024-04-07T13:30:50Z</time>
      </trkpt>
      <trkpt lat="49.29576" lon="-0.06228">
        <ele>113</ele>
        <time>2024-04-07T13:30:51Z</time>
      </trkpt>
      <trkpt lat="49.29576" lon="-0.06219">
        <ele>115.2</ele>
        <time>2024-04-07T13:30:52Z</time>
      </trkpt>
      <trkpt lat="49.29576" lon="-0.06209">
        <ele>115.2</ele>
        <time>2024-04-07T13:30:53Z</time>
      </trkpt>
      <trkpt lat="49.29576" lon="-0.062">
        <ele>115.2</ele>
        <time>2024-04-07T13:30:54Z</time>
      </trkpt>
      <trkpt lat="49.29575" lon="-0.06191">
        <ele>115.2</ele>
        <time>2024-04-07T13:30:55Z</time>
      </trkpt>
      <trkpt lat="49.29574" lon="-0.06182">
        <ele>115.2</ele>
        <time>2024-04-07T13:30:56Z</time>
      </trkpt>
      <trkpt lat="49.29573" lon="-0.06173">
        <ele>115.2</ele>
        <time>2024-04-07T13:30:57Z</time>
      </trkpt>
      <trkpt lat="49.29572" lon="-0.06164">
        <ele>115.2</ele>
        <time>2024-04-07T13:30:58Z</time>
      </trkpt>
      <trkpt lat="49.29571" lon="-0.06154">
        <ele>115.2</ele>
        <time>2024-04-07T13:30:59Z</time>
      </trkpt>
      <trkpt lat="49.2957" lon="-0.06145">
        <ele>115.2</ele>
        <time>2024-04-07T13:31:00Z</time>
      </trkpt>
      <trkpt lat="49.29569" lon="-0.06135">
        <ele>115.2</ele>
        <time>2024-04-07T13:31:01Z</time>
      </trkpt>
      <trkpt lat="49.29568" lon="-0.06126">
        <ele>115.2</ele>
        <time>2024-04-07T13:31:02Z</time>
      </trkpt>
      <trkpt lat="49.29567" lon="-0.06117">
        <ele>115.2</ele>
        <time>2024-04-07T13:31:03Z</time>
      </trkpt>
      <trkpt lat="49.29566" lon="-0.06107">
        <ele>115.2</ele>
        <time>2024-04-07T13:31:04Z</time>
      </trkpt>
      <trkpt lat="49.29566" lon="-0.06097">
        <ele>115.2</ele>
        <time>2024-04-07T13:31:05Z</time>
      </trkpt>
      <trkpt lat="49.29565" lon="-0.06088">
        <ele>115.2</ele>
        <time>2024-04-07T13:31:06Z</time>
      </trkpt>
      <trkpt lat="49.29565" lon="-0.06079">
        <ele>115.2</ele>
        <time>2024-04-07T13:31:07Z</time>
      </trkpt>
      <trkpt lat="49.29566" lon="-0.0607">
        <ele>115.2</ele>
        <time>2024-04-07T13:31:08Z</time>
      </trkpt>
      <trkpt lat="49.29565" lon="-0.06063">
        <ele>115.2</ele>
        <time>2024-04-07T13:31:09Z</time>
      </trkpt>
      <trkpt lat="49.29564" lon="-0.06055">
        <ele>115.2</ele>
        <time>2024-04-07T13:31:10Z</time>
      </trkpt>
      <trkpt lat="49.29564" lon="-0.06047">
        <ele>115.2</ele>
        <time>2024-04-07T13:31:11Z</time>
      </trkpt>
      <trkpt lat="49.29564" lon="-0.0604">
        <ele>115.2</ele>
        <time>2024-04-07T13:31:12Z</time>
      </trkpt>
      <trkpt lat="49.29564" lon="-0.06031">
        <ele>115.2</ele>
        <time>2024-04-07T13:31:13Z</time>
      </trkpt>
      <trkpt lat="49.29564" lon="-0.06024">
        <ele>115.2</ele>
        <time>2024-04-07T13:31:14Z</time>
      </trkpt>
      <trkpt lat="49.29564" lon="-0.06015">
        <ele>115.2</ele>
        <time>2024-04-07T13:31:15Z</time>
      </trkpt>
      <trkpt lat="49.29564" lon="-0.06006">
        <ele>115.2</ele>
        <time>2024-04-07T13:31:16Z</time>
      </trkpt>
      <trkpt lat="49.29563" lon="-0.05998">
        <ele>115.2</ele>
        <time>2024-04-07T13:31:17Z</time>
      </trkpt>
      <trkpt lat="49.29562" lon="-0.05989">
        <ele>115.2</ele>
        <time>2024-04-07T13:31:18Z</time>
      </trkpt>
      <trkpt lat="49.29562" lon="-0.0598">
        <ele>115.2</ele>
        <time>2024-04-07T13:31:19Z</time>
      </trkpt>
      <trkpt lat="49.29562" lon="-0.05971">
        <ele>115.2</ele>
        <time>2024-04-07T13:31:20Z</time>
      </trkpt>
      <trkpt lat="49.29563" lon="-0.05962">
        <ele>115.2</ele>
        <time>2024-04-07T13:31:21Z</time>
      </trkpt>
      <trkpt lat="49.29563" lon="-0.05953">
        <ele>115.2</ele>
        <time>2024-04-07T13:31:22Z</time>
      </trkpt>
      <trkpt lat="49.29562" lon="-0.05943">
        <ele>115.2</ele>
        <time>2024-04-07T13:31:23Z</time>
      </trkpt>
      <trkpt lat="49.29562" lon="-0.05934">
        <ele>115.2</ele>
        <time>2024-04-07T13:31:24Z</time>
      </trkpt>
      <trkpt lat="49.29561" lon="-0.05925">
        <ele>115.2</ele>
        <time>2024-04-07T13:31:25Z</time>
      </trkpt>
      <trkpt lat="49.2956" lon="-0.05916">
        <ele>115.2</ele>
        <time>2024-04-07T13:31:26Z</time>
      </trkpt>
      <trkpt lat="49.2956" lon="-0.05907">
        <ele>115.2</ele>
        <time>2024-04-07T13:31:27Z</time>
      </trkpt>
      <trkpt lat="49.29559" lon="-0.05898">
        <ele>115.2</ele>
        <time>2024-04-07T13:31:28Z</time>
      </trkpt>
      <trkpt lat="49.29559" lon="-0.0589">
        <ele>115.2</ele>
        <time>2024-04-07T13:31:29Z</time>
      </trkpt>
      <trkpt lat="49.29558" lon="-0.0588">
        <ele>115.2</ele>
        <time>2024-04-07T13:31:30Z</time>
      </trkpt>
      <trkpt lat="49.29558" lon="-0.05871">
        <ele>115.2</ele>
        <time>2024-04-07T13:31:31Z</time>
      </trkpt>
      <trkpt lat="49.29556" lon="-0.05862">
        <ele>115.2</ele>
        <time>2024-04-07T13:31:32Z</time>
      </trkpt>
      <trkpt lat="49.29555" lon="-0.05853">
        <ele>115.2</ele>
        <time>2024-04-07T13:31:33Z</time>
      </trkpt>
      <trkpt lat="49.29553" lon="-0.05844">
        <ele>115.2</ele>
        <time>2024-04-07T13:31:34Z</time>
      </trkpt>
      <trkpt lat="49.29552" lon="-0.05834">
        <ele>115.2</ele>
        <time>2024-04-07T13:31:35Z</time>
      </trkpt>
      <trkpt lat="49.2955" lon="-0.05825">
        <ele>115.2</ele>
        <time>2024-04-07T13:31:36Z</time>
      </trkpt>
      <trkpt lat="49.29549" lon="-0.05816">
        <ele>115.2</ele>
        <time>2024-04-07T13:31:37Z</time>
      </trkpt>
      <trkpt lat="49.29547" lon="-0.05807">
        <ele>115.2</ele>
        <time>2024-04-07T13:31:38Z</time>
      </trkpt>
      <trkpt lat="49.29546" lon="-0.05797">
        <ele>115.2</ele>
        <time>2024-04-07T13:31:39Z</time>
      </trkpt>
      <trkpt lat="49.29545" lon="-0.05788">
        <ele>115.2</ele>
        <time>2024-04-07T13:31:40Z</time>
      </trkpt>
      <trkpt lat="49.29545" lon="-0.05779">
        <ele>115.2</ele>
        <time>2024-04-07T13:31:41Z</time>
      </trkpt>
      <trkpt lat="49.29544" lon="-0.0577">
        <ele>115.2</ele>
        <time>2024-04-07T13:31:42Z</time>
      </trkpt>
      <trkpt lat="49.29544" lon="-0.05762">
        <ele>115.2</ele>
        <time>2024-04-07T13:31:43Z</time>
      </trkpt>
      <trkpt lat="49.29543" lon="-0.05754">
        <ele>115.2</ele>
        <time>2024-04-07T13:31:44Z</time>
      </trkpt>
      <trkpt lat="49.29542" lon="-0.05746">
        <ele>115.2</ele>
        <time>2024-04-07T13:31:45Z</time>
      </trkpt>
      <trkpt lat="49.29541" lon="-0.05738">
        <ele>115.2</ele>
        <time>2024-04-07T13:31:46Z</time>
      </trkpt>
      <trkpt lat="49.29541" lon="-0.05731">
        <ele>115.2</ele>
        <time>2024-04-07T13:31:47Z</time>
      </trkpt>
      <trkpt lat="49.2954" lon="-0.05724">
        <ele>115.2</ele>
        <time>2024-04-07T13:31:48Z</time>
      </trkpt>
      <trkpt lat="49.29538" lon="-0.05718">
        <ele>115.2</ele>
        <time>2024-04-07T13:31:49Z</time>
      </trkpt>
      <trkpt lat="49.29537" lon="-0.05713">
        <ele>115.2</ele>
        <time>2024-04-07T13:31:50Z</time>
      </trkpt>
      <trkpt lat="49.29538" lon="-0.05708">
        <ele>115.2</ele>
        <time>2024-04-07T13:31:51Z</time>
      </trkpt>
      <trkpt lat="49.2954" lon="-0.05706">
        <ele>117.8</ele>
        <time>2024-04-07T13:31:52Z</time>
      </trkpt>
      <trkpt lat="49.29542" lon="-0.05705">
        <ele>117.8</ele>
        <time>2024-04-07T13:31:53Z</time>
      </trkpt>
      <trkpt lat="49.29544" lon="-0.05709">
        <ele>117.8</ele>
        <time>2024-04-07T13:31:54Z</time>
      </trkpt>
      <trkpt lat="49.29545" lon="-0.05714">
        <ele>117.8</ele>
        <time>2024-04-07T13:31:55Z</time>
      </trkpt>
      <trkpt lat="49.29545" lon="-0.0572">
        <ele>117.8</ele>
        <time>2024-04-07T13:31:56Z</time>
      </trkpt>
      <trkpt lat="49.29544" lon="-0.05727">
        <ele>117.8</ele>
        <time>2024-04-07T13:31:57Z</time>
      </trkpt>
      <trkpt lat="49.29544" lon="-0.05735">
        <ele>117.8</ele>
        <time>2024-04-07T13:31:58Z</time>
      </trkpt>
      <trkpt lat="49.29545" lon="-0.05743">
        <ele>117.8</ele>
        <time>2024-04-07T13:31:59Z</time>
      </trkpt>
      <trkpt lat="49.29546" lon="-0.05752">
        <ele>117.8</ele>
        <time>2024-04-07T13:32:00Z</time>
      </trkpt>
      <trkpt lat="49.29546" lon="-0.05762">
        <ele>117.8</ele>
        <time>2024-04-07T13:32:01Z</time>
      </trkpt>
      <trkpt lat="49.29546" lon="-0.05771">
        <ele>117.8</ele>
        <time>2024-04-07T13:32:02Z</time>
      </trkpt>
      <trkpt lat="49.29547" lon="-0.05782">
        <ele>117.8</ele>
        <time>2024-04-07T13:32:03Z</time>
      </trkpt>
      <trkpt lat="49.29548" lon="-0.05791">
        <ele>117.8</ele>
        <time>2024-04-07T13:32:04Z</time>
      </trkpt>
      <trkpt lat="49.2955" lon="-0.05801">
        <ele>117.8</ele>
        <time>2024-04-07T13:32:05Z</time>
      </trkpt>
      <trkpt lat="49.29551" lon="-0.05811">
        <ele>117.8</ele>
        <time>2024-04-07T13:32:06Z</time>
      </trkpt>
      <trkpt lat="49.29553" lon="-0.05821">
        <ele>117.8</ele>
        <time>2024-04-07T13:32:07Z</time>
      </trkpt>
      <trkpt lat="49.29555" lon="-0.05832">
        <ele>117.8</ele>
        <time>2024-04-07T13:32:08Z</time>
      </trkpt>
      <trkpt lat="49.29556" lon="-0.05842">
        <ele>117.8</ele>
        <time>2024-04-07T13:32:09Z</time>
      </trkpt>
      <trkpt lat="49.29557" lon="-0.05852">
        <ele>117.8</ele>
        <time>2024-04-07T13:32:10Z</time>
      </trkpt>
      <trkpt lat="49.29559" lon="-0.05862">
        <ele>117.8</ele>
        <time>2024-04-07T13:32:11Z</time>
      </trkpt>
      <trkpt lat="49.2956" lon="-0.05872">
        <ele>117.8</ele>
        <time>2024-04-07T13:32:12Z</time>
      </trkpt>
      <trkpt lat="49.29561" lon="-0.05883">
        <ele>117.8</ele>
        <time>2024-04-07T13:32:13Z</time>
      </trkpt>
      <trkpt lat="49.29561" lon="-0.05894">
        <ele>117.8</ele>
        <time>2024-04-07T13:32:14Z</time>
      </trkpt>
      <trkpt lat="49.29562" lon="-0.05905">
        <ele>117.8</ele>
        <time>2024-04-07T13:32:15Z</time>
      </trkpt>
      <trkpt lat="49.29562" lon="-0.05916">
        <ele>117.8</ele>
        <time>2024-04-07T13:32:16Z</time>
      </trkpt>
      <trkpt lat="49.29562" lon="-0.05926">
        <ele>117.8</ele>
        <time>2024-04-07T13:32:17Z</time>
      </trkpt>
      <trkpt lat="49.29563" lon="-0.05937">
        <ele>117.8</ele>
        <time>2024-04-07T13:32:18Z</time>
      </trkpt>
      <trkpt lat="49.29563" lon="-0.05948">
        <ele>117.8</ele>
        <time>2024-04-07T13:32:19Z</time>
      </trkpt>
      <trkpt lat="49.29563" lon="-0.05959">
        <ele>117.8</ele>
        <time>2024-04-07T13:32:20Z</time>
      </trkpt>
      <trkpt lat="49.29563" lon="-0.0597">
        <ele>117.8</ele>
        <time>2024-04-07T13:32:21Z</time>
      </trkpt>
      <trkpt lat="49.29563" lon="-0.05981">
        <ele>117.8</ele>
        <time>2024-04-07T13:32:22Z</time>
      </trkpt>
      <trkpt lat="49.29564" lon="-0.05992">
        <ele>117.8</ele>
        <time>2024-04-07T13:32:23Z</time>
      </trkpt>
      <trkpt lat="49.29564" lon="-0.06003">
        <ele>117.8</ele>
        <time>2024-04-07T13:32:24Z</time>
      </trkpt>
      <trkpt lat="49.29564" lon="-0.06014">
        <ele>117.8</ele>
        <time>2024-04-07T13:32:25Z</time>
      </trkpt>
      <trkpt lat="49.29565" lon="-0.06026">
        <ele>117.8</ele>
        <time>2024-04-07T13:32:26Z</time>
      </trkpt>
      <trkpt lat="49.29565" lon="-0.06037">
        <ele>117.8</ele>
        <time>2024-04-07T13:32:27Z</time>
      </trkpt>
      <trkpt lat="49.29565" lon="-0.06048">
        <ele>117.8</ele>
        <time>2024-04-07T13:32:28Z</time>
      </trkpt>
      <trkpt lat="49.29566" lon="-0.06059">
        <ele>117.8</ele>
        <time>2024-04-07T13:32:29Z</time>
      </trkpt>
      <trkpt lat="49.29567" lon="-0.0607">
        <ele>117.8</ele>
        <time>2024-04-07T13:32:30Z</time>
      </trkpt>
      <trkpt lat="49.29567" lon="-0.06081">
        <ele>117.8</ele>
        <time>2024-04-07T13:32:31Z</time>
      </trkpt>
      <trkpt lat="49.29568" lon="-0.06092">
        <ele>117.8</ele>
        <time>2024-04-07T13:32:32Z</time>
      </trkpt>
      <trkpt lat="49.29569" lon="-0.06102">
        <ele>117.8</ele>
        <time>2024-04-07T13:32:33Z</time>
      </trkpt>
      <trkpt lat="49.2957" lon="-0.06113">
        <ele>117.8</ele>
        <time>2024-04-07T13:32:34Z</time>
      </trkpt>
      <trkpt lat="49.29571" lon="-0.06123">
        <ele>117.8</ele>
        <time>2024-04-07T13:32:35Z</time>
      </trkpt>
      <trkpt lat="49.29573" lon="-0.06134">
        <ele>117.8</ele>
        <time>2024-04-07T13:32:36Z</time>
      </trkpt>
      <trkpt lat="49.29574" lon="-0.06144">
        <ele>117.8</ele>
        <time>2024-04-07T13:32:37Z</time>
      </trkpt>
      <trkpt lat="49.29575" lon="-0.06155">
        <ele>117.8</ele>
        <time>2024-04-07T13:32:38Z</time>
      </trkpt>
      <trkpt lat="49.29576" lon="-0.06166">
        <ele>117.8</ele>
        <time>2024-04-07T13:32:39Z</time>
      </trkpt>
      <trkpt lat="49.29577" lon="-0.06177">
        <ele>117.8</ele>
        <time>2024-04-07T13:32:40Z</time>
      </trkpt>
      <trkpt lat="49.29577" lon="-0.06188">
        <ele>117.8</ele>
        <time>2024-04-07T13:32:41Z</time>
      </trkpt>
      <trkpt lat="49.29578" lon="-0.06199">
        <ele>117.8</ele>
        <time>2024-04-07T13:32:42Z</time>
      </trkpt>
      <trkpt lat="49.29579" lon="-0.0621">
        <ele>117.8</ele>
        <time>2024-04-07T13:32:43Z</time>
      </trkpt>
      <trkpt lat="49.29579" lon="-0.06222">
        <ele>117.8</ele>
        <time>2024-04-07T13:32:44Z</time>
      </trkpt>
      <trkpt lat="49.29579" lon="-0.06233">
        <ele>117.8</ele>
        <time>2024-04-07T13:32:45Z</time>
      </trkpt>
      <trkpt lat="49.29579" lon="-0.06245">
        <ele>117.8</ele>
        <time>2024-04-07T13:32:46Z</time>
      </trkpt>
      <trkpt lat="49.29579" lon="-0.06257">
        <ele>117.8</ele>
        <time>2024-04-07T13:32:47Z</time>
      </trkpt>
      <trkpt lat="49.29578" lon="-0.06268">
        <ele>117.8</ele>
        <time>2024-04-07T13:32:48Z</time>
      </trkpt>
      <trkpt lat="49.29578" lon="-0.06279">
        <ele>117.8</ele>
        <time>2024-04-07T13:32:49Z</time>
      </trkpt>
      <trkpt lat="49.29577" lon="-0.06291">
        <ele>117.8</ele>
        <time>2024-04-07T13:32:50Z</time>
      </trkpt>
      <trkpt lat="49.29575" lon="-0.06301">
        <ele>117.8</ele>
        <time>2024-04-07T13:32:51Z</time>
      </trkpt>
      <trkpt lat="49.29572" lon="-0.06312">
        <ele>119</ele>
        <time>2024-04-07T13:32:52Z</time>
      </trkpt>
      <trkpt lat="49.29568" lon="-0.06321">
        <ele>119</ele>
        <time>2024-04-07T13:32:53Z</time>
      </trkpt>
      <trkpt lat="49.29564" lon="-0.06331">
        <ele>119</ele>
        <time>2024-04-07T13:32:54Z</time>
      </trkpt>
      <trkpt lat="49.2956" lon="-0.0634">
        <ele>119</ele>
        <time>2024-04-07T13:32:55Z</time>
      </trkpt>
      <trkpt lat="49.29556" lon="-0.06348">
        <ele>119</ele>
        <time>2024-04-07T13:32:56Z</time>
      </trkpt>
      <trkpt lat="49.29552" lon="-0.06355">
        <ele>119</ele>
        <time>2024-04-07T13:32:57Z</time>
      </trkpt>
      <trkpt lat="49.29547" lon="-0.06364">
        <ele>119</ele>
        <time>2024-04-07T13:32:58Z</time>
      </trkpt>
      <trkpt lat="49.29544" lon="-0.06372">
        <ele>119</ele>
        <time>2024-04-07T13:32:59Z</time>
      </trkpt>
      <trkpt lat="49.2954" lon="-0.06381">
        <ele>119</ele>
        <time>2024-04-07T13:33:00Z</time>
      </trkpt>
      <trkpt lat="49.29537" lon="-0.06391">
        <ele>119</ele>
        <time>2024-04-07T13:33:01Z</time>
      </trkpt>
      <trkpt lat="49.29534" lon="-0.06401">
        <ele>119</ele>
        <time>2024-04-07T13:33:02Z</time>
      </trkpt>
      <trkpt lat="49.29532" lon="-0.06412">
        <ele>119</ele>
        <time>2024-04-07T13:33:03Z</time>
      </trkpt>
      <trkpt lat="49.29529" lon="-0.06422">
        <ele>119</ele>
        <time>2024-04-07T13:33:04Z</time>
      </trkpt>
      <trkpt lat="49.29527" lon="-0.06433">
        <ele>119</ele>
        <time>2024-04-07T13:33:05Z</time>
      </trkpt>
      <trkpt lat="49.29525" lon="-0.06443">
        <ele>119</ele>
        <time>2024-04-07T13:33:06Z</time>
      </trkpt>
      <trkpt lat="49.29523" lon="-0.06453">
        <ele>119</ele>
        <time>2024-04-07T13:33:07Z</time>
      </trkpt>
      <trkpt lat="49.29521" lon="-0.06462">
        <ele>119</ele>
        <time>2024-04-07T13:33:08Z</time>
      </trkpt>
      <trkpt lat="49.29519" lon="-0.06472">
        <ele>119</ele>
        <time>2024-04-07T13:33:09Z</time>
      </trkpt>
      <trkpt lat="49.29517" lon="-0.06481">
        <ele>119</ele>
        <time>2024-04-07T13:33:10Z</time>
      </trkpt>
      <trkpt lat="49.29515" lon="-0.0649">
        <ele>119</ele>
        <time>2024-04-07T13:33:11Z</time>
      </trkpt>
      <trkpt lat="49.29513" lon="-0.06498">
        <ele>119</ele>
        <time>2024-04-07T13:33:12Z</time>
      </trkpt>
      <trkpt lat="49.29512" lon="-0.06506">
        <ele>119</ele>
        <time>2024-04-07T13:33:13Z</time>
      </trkpt>
      <trkpt lat="49.2951" lon="-0.06514">
        <ele>119</ele>
        <time>2024-04-07T13:33:14Z</time>
      </trkpt>
      <trkpt lat="49.29509" lon="-0.06521">
        <ele>119</ele>
        <time>2024-04-07T13:33:15Z</time>
      </trkpt>
      <trkpt lat="49.29507" lon="-0.06529">
        <ele>119</ele>
        <time>2024-04-07T13:33:16Z</time>
      </trkpt>
      <trkpt lat="49.29505" lon="-0.06536">
        <ele>119</ele>
        <time>2024-04-07T13:33:17Z</time>
      </trkpt>
      <trkpt lat="49.29503" lon="-0.06543">
        <ele>119</ele>
        <time>2024-04-07T13:33:18Z</time>
      </trkpt>
      <trkpt lat="49.29502" lon="-0.0655">
        <ele>119</ele>
        <time>2024-04-07T13:33:19Z</time>
      </trkpt>
      <trkpt lat="49.295" lon="-0.06556">
        <ele>119</ele>
        <time>2024-04-07T13:33:20Z</time>
      </trkpt>
      <trkpt lat="49.29499" lon="-0.06562">
        <ele>119</ele>
        <time>2024-04-07T13:33:21Z</time>
      </trkpt>
      <trkpt lat="49.29498" lon="-0.06568">
        <ele>119</ele>
        <time>2024-04-07T13:33:22Z</time>
      </trkpt>
      <trkpt lat="49.29496" lon="-0.06572">
        <ele>119</ele>
        <time>2024-04-07T13:33:23Z</time>
      </trkpt>
      <trkpt lat="49.29494" lon="-0.06576">
        <ele>119</ele>
        <time>2024-04-07T13:33:24Z</time>
      </trkpt>
      <trkpt lat="49.29492" lon="-0.06578">
        <ele>119</ele>
        <time>2024-04-07T13:33:25Z</time>
      </trkpt>
      <trkpt lat="49.29491" lon="-0.06581">
        <ele>119</ele>
        <time>2024-04-07T13:33:26Z</time>
      </trkpt>
      <trkpt lat="49.29489" lon="-0.06583">
        <ele>119</ele>
        <time>2024-04-07T13:33:27Z</time>
      </trkpt>
      <trkpt lat="49.29488" lon="-0.06584">
        <ele>119</ele>
        <time>2024-04-07T13:33:28Z</time>
      </trkpt>
      <trkpt lat="49.29486" lon="-0.06584">
        <ele>119</ele>
        <time>2024-04-07T13:33:29Z</time>
      </trkpt>
      <trkpt lat="49.29486" lon="-0.06584">
        <ele>119</ele>
        <time>2024-04-07T13:33:30Z</time>
      </trkpt>
      <trkpt lat="49.29485" lon="-0.06583">
        <ele>119</ele>
        <time>2024-04-07T13:33:31Z</time>
      </trkpt>
      <trkpt lat="49.29484" lon="-0.06582">
        <ele>119</ele>
        <time>2024-04-07T13:34:16Z</time>
      </trkpt>
      <trkpt lat="49.29484" lon="-0.06582">
        <ele>119</ele>
        <time>2024-04-07T13:34:17Z</time>
      </trkpt>
    </trkseg>
  </trk>
</gpx>